<?xml version='1.0' encoding='UTF-8'?><gpx version="1.1" creator="JPX - https://github.com/jenetics/jpx" xmlns="http://www.topografix.com/GPX/1/1"><trk><trkseg><trkpt lat="43.3913206" lon="10.4321368"><ele>9.25</ele><time>2026-03-22T13:01:53.129Z</time></trkpt><trkpt lat="43.3914751" lon="10.4321352"><ele>9.5</ele><time>2026-03-22T13:06:21.117Z</time></trkpt><trkpt lat="43.3914149" lon="10.4322225"><ele>9.75</ele><time>2026-03-22T13:06:27.059Z</time></trkpt><trkpt lat="43.3912694" lon="10.4323634"><ele>10.0</ele><time>2026-03-22T13:06:29.108Z</time></trkpt><trkpt lat="43.3911769" lon="10.432401"><ele>10.0</ele><time>2026-03-22T13:06:31.055Z</time></trkpt><trkpt lat="43.3910708" lon="10.4324626"><ele>10.0</ele><time>2026-03-22T13:06:33.104Z</time></trkpt><trkpt lat="43.3909665" lon="10.4325241"><ele>10.0</ele><time>2026-03-22T13:06:35.051Z</time></trkpt><trkpt lat="43.3908853" lon="10.4326196"><ele>10.0</ele><time>2026-03-22T13:06:36.01Z</time></trkpt><trkpt lat="43.390786" lon="10.4327018"><ele>10.0</ele><time>2026-03-22T13:06:38.012Z</time></trkpt><trkpt lat="43.3907046" lon="10.4327747"><ele>10.0</ele><time>2026-03-22T13:06:40.01Z</time></trkpt><trkpt lat="43.390646" lon="10.4328554"><ele>10.0</ele><time>2026-03-22T13:06:42.01Z</time></trkpt><trkpt lat="43.3906417" lon="10.4329445"><ele>10.0</ele><time>2026-03-22T13:06:44.011Z</time></trkpt><trkpt lat="43.3906606" lon="10.433043"><ele>10.0</ele><time>2026-03-22T13:06:46.011Z</time></trkpt><trkpt lat="43.3907269" lon="10.4331509"><ele>10.0</ele><time>2026-03-22T13:06:48.01Z</time></trkpt><trkpt lat="43.3908095" lon="10.4332739"><ele>10.0</ele><time>2026-03-22T13:06:50.01Z</time></trkpt><trkpt lat="43.3908609" lon="10.4333629"><ele>10.0</ele><time>2026-03-22T13:06:52.089Z</time></trkpt><trkpt lat="43.390978" lon="10.4335782"><ele>10.0</ele><time>2026-03-22T13:06:55.009Z</time></trkpt><trkpt lat="43.3910205" lon="10.4336528"><ele>10.0</ele><time>2026-03-22T13:06:56.009Z</time></trkpt><trkpt lat="43.3911002" lon="10.4337859"><ele>10.0</ele><time>2026-03-22T13:06:58.01Z</time></trkpt><trkpt lat="43.3911382" lon="10.4338606"><ele>10.0</ele><time>2026-03-22T13:06:59.01Z</time></trkpt><trkpt lat="43.3911781" lon="10.4339398"><ele>10.0</ele><time>2026-03-22T13:07:00.01Z</time></trkpt><trkpt lat="43.3912158" lon="10.4340211"><ele>10.0</ele><time>2026-03-22T13:07:01.01Z</time></trkpt><trkpt lat="43.3912494" lon="10.4341005"><ele>10.0</ele><time>2026-03-22T13:07:02.012Z</time></trkpt><trkpt lat="43.3912844" lon="10.4341749"><ele>10.0</ele><time>2026-03-22T13:07:03.01Z</time></trkpt><trkpt lat="43.3913208" lon="10.4342472"><ele>10.0</ele><time>2026-03-22T13:07:04.009Z</time></trkpt><trkpt lat="43.3913548" lon="10.4343217"><ele>10.333333333333334</ele><time>2026-03-22T13:07:05.008Z</time></trkpt><trkpt lat="43.3913952" lon="10.4344028"><ele>10.666666666666668</ele><time>2026-03-22T13:07:06.01Z</time></trkpt><trkpt lat="43.3914316" lon="10.4344859"><ele>11.0</ele><time>2026-03-22T13:07:07.011Z</time></trkpt><trkpt lat="43.391467" lon="10.4345707"><ele>11.333333333333334</ele><time>2026-03-22T13:07:08.01Z</time></trkpt><trkpt lat="43.3915018" lon="10.4346517"><ele>11.666666666666666</ele><time>2026-03-22T13:07:09.009Z</time></trkpt><trkpt lat="43.3915382" lon="10.4347282"><ele>12.0</ele><time>2026-03-22T13:07:10.009Z</time></trkpt><trkpt lat="43.39159" lon="10.43486"><ele>12.0</ele><time>2026-03-22T13:07:12.009Z</time></trkpt><trkpt lat="43.391635" lon="10.4349383"><ele>12.0</ele><time>2026-03-22T13:07:15.01Z</time></trkpt><trkpt lat="43.3917183" lon="10.4348833"><ele>12.0</ele><time>2026-03-22T13:07:18.01Z</time></trkpt><trkpt lat="43.39181" lon="10.4348"><ele>12.0</ele><time>2026-03-22T13:07:20.01Z</time></trkpt><trkpt lat="43.3918633" lon="10.4347533"><ele>12.0</ele><time>2026-03-22T13:07:21.01Z</time></trkpt><trkpt lat="43.3919633" lon="10.4346633"><ele>12.0</ele><time>2026-03-22T13:07:23.01Z</time></trkpt><trkpt lat="43.3920633" lon="10.434575"><ele>12.0</ele><time>2026-03-22T13:07:25.01Z</time></trkpt><trkpt lat="43.39217" lon="10.4344833"><ele>12.0</ele><time>2026-03-22T13:07:27.009Z</time></trkpt><trkpt lat="43.3922317" lon="10.4344283"><ele>12.0</ele><time>2026-03-22T13:07:28.009Z</time></trkpt><trkpt lat="43.39229" lon="10.43437"><ele>12.0</ele><time>2026-03-22T13:07:29.01Z</time></trkpt><trkpt lat="43.392345" lon="10.434315"><ele>11.999999999999998</ele><time>2026-03-22T13:07:30.01Z</time></trkpt><trkpt lat="43.3924017" lon="10.4342617"><ele>12.0</ele><time>2026-03-22T13:07:31.01Z</time></trkpt><trkpt lat="43.3924633" lon="10.4342033"><ele>12.0</ele><time>2026-03-22T13:07:32.01Z</time></trkpt><trkpt lat="43.3925233" lon="10.4341417"><ele>12.0</ele><time>2026-03-22T13:07:33.01Z</time></trkpt><trkpt lat="43.39258" lon="10.4340867"><ele>12.0</ele><time>2026-03-22T13:07:34.01Z</time></trkpt><trkpt lat="43.3926383" lon="10.4340367"><ele>11.999999999999998</ele><time>2026-03-22T13:07:35.011Z</time></trkpt><trkpt lat="43.392705" lon="10.43399"><ele>12.0</ele><time>2026-03-22T13:07:36.01Z</time></trkpt><trkpt lat="43.3927667" lon="10.433945"><ele>11.999999999999998</ele><time>2026-03-22T13:07:37.01Z</time></trkpt><trkpt lat="43.392825" lon="10.4339"><ele>12.0</ele><time>2026-03-22T13:07:38.01Z</time></trkpt><trkpt lat="43.392885" lon="10.4338533"><ele>12.0</ele><time>2026-03-22T13:07:39.01Z</time></trkpt><trkpt lat="43.3929483" lon="10.4338083"><ele>12.0</ele><time>2026-03-22T13:07:40.01Z</time></trkpt><trkpt lat="43.3930067" lon="10.4337617"><ele>12.0</ele><time>2026-03-22T13:07:41.01Z</time></trkpt><trkpt lat="43.3930667" lon="10.4337117"><ele>11.999999999999998</ele><time>2026-03-22T13:07:42.01Z</time></trkpt><trkpt lat="43.393125" lon="10.433665"><ele>12.0</ele><time>2026-03-22T13:07:43.009Z</time></trkpt><trkpt lat="43.3931817" lon="10.4336133"><ele>12.333333333333334</ele><time>2026-03-22T13:07:44.01Z</time></trkpt><trkpt lat="43.3932333" lon="10.4335617"><ele>12.666666666666668</ele><time>2026-03-22T13:07:45.01Z</time></trkpt><trkpt lat="43.3932883" lon="10.4335117"><ele>13.0</ele><time>2026-03-22T13:07:46.01Z</time></trkpt><trkpt lat="43.3933433" lon="10.4334633"><ele>13.333333333333334</ele><time>2026-03-22T13:07:47.011Z</time></trkpt><trkpt lat="43.3934" lon="10.43342"><ele>13.666666666666668</ele><time>2026-03-22T13:07:48.01Z</time></trkpt><trkpt lat="43.3934617" lon="10.4333817"><ele>14.0</ele><time>2026-03-22T13:07:49.009Z</time></trkpt><trkpt lat="43.3935783" lon="10.4333117"><ele>14.000000000000002</ele><time>2026-03-22T13:07:51.01Z</time></trkpt><trkpt lat="43.3936933" lon="10.4332317"><ele>14.0</ele><time>2026-03-22T13:07:53.01Z</time></trkpt><trkpt lat="43.3937633" lon="10.433185"><ele>14.0</ele><time>2026-03-22T13:07:54.011Z</time></trkpt><trkpt lat="43.393835" lon="10.4331367"><ele>14.0</ele><time>2026-03-22T13:07:55.01Z</time></trkpt><trkpt lat="43.39391" lon="10.4330983"><ele>14.000000000000002</ele><time>2026-03-22T13:07:56.01Z</time></trkpt><trkpt lat="43.3939767" lon="10.433055"><ele>14.0</ele><time>2026-03-22T13:07:57.01Z</time></trkpt><trkpt lat="43.3940467" lon="10.4330167"><ele>14.142857142857142</ele><time>2026-03-22T13:07:58.01Z</time></trkpt><trkpt lat="43.3941117" lon="10.432975"><ele>14.285714285714285</ele><time>2026-03-22T13:07:59.01Z</time></trkpt><trkpt lat="43.3941733" lon="10.4329383"><ele>14.428571428571429</ele><time>2026-03-22T13:08:00.01Z</time></trkpt><trkpt lat="43.394235" lon="10.4328967"><ele>14.571428571428571</ele><time>2026-03-22T13:08:01.01Z</time></trkpt><trkpt lat="43.3942967" lon="10.4328517"><ele>14.714285714285714</ele><time>2026-03-22T13:08:02.009Z</time></trkpt><trkpt lat="43.3943583" lon="10.432805"><ele>14.857142857142858</ele><time>2026-03-22T13:08:03.01Z</time></trkpt><trkpt lat="43.3944267" lon="10.4327583"><ele>15.0</ele><time>2026-03-22T13:08:04.01Z</time></trkpt><trkpt lat="43.3944867" lon="10.4326917"><ele>14.5</ele><time>2026-03-22T13:08:05.01Z</time></trkpt><trkpt lat="43.3945517" lon="10.4326433"><ele>14.0</ele><time>2026-03-22T13:08:06.01Z</time></trkpt><trkpt lat="43.3946167" lon="10.4325817"><ele>13.5</ele><time>2026-03-22T13:08:07.01Z</time></trkpt><trkpt lat="43.394685" lon="10.4325283"><ele>13.0</ele><time>2026-03-22T13:08:08.01Z</time></trkpt><trkpt lat="43.394755" lon="10.43248"><ele>12.5</ele><time>2026-03-22T13:08:09.009Z</time></trkpt><trkpt lat="43.3948217" lon="10.432425"><ele>12.0</ele><time>2026-03-22T13:08:10.01Z</time></trkpt><trkpt lat="43.3948917" lon="10.43238"><ele>12.0</ele><time>2026-03-22T13:08:11.01Z</time></trkpt><trkpt lat="43.3949633" lon="10.432335"><ele>12.0</ele><time>2026-03-22T13:08:12.009Z</time></trkpt><trkpt lat="43.3950333" lon="10.43229"><ele>12.0</ele><time>2026-03-22T13:08:13.01Z</time></trkpt><trkpt lat="43.3951017" lon="10.43224"><ele>12.0</ele><time>2026-03-22T13:08:14.011Z</time></trkpt><trkpt lat="43.3951767" lon="10.4322033"><ele>12.0</ele><time>2026-03-22T13:08:15.01Z</time></trkpt><trkpt lat="43.3952433" lon="10.4321533"><ele>12.0</ele><time>2026-03-22T13:08:16.01Z</time></trkpt><trkpt lat="43.3953133" lon="10.432105"><ele>11.833333333333334</ele><time>2026-03-22T13:08:17.01Z</time></trkpt><trkpt lat="43.3953817" lon="10.43206"><ele>11.666666666666666</ele><time>2026-03-22T13:08:18.01Z</time></trkpt><trkpt lat="43.3954517" lon="10.4320183"><ele>11.5</ele><time>2026-03-22T13:08:19.011Z</time></trkpt><trkpt lat="43.395525" lon="10.4319867"><ele>11.333333333333332</ele><time>2026-03-22T13:08:20.011Z</time></trkpt><trkpt lat="43.3956033" lon="10.431975"><ele>11.166666666666666</ele><time>2026-03-22T13:08:21.011Z</time></trkpt><trkpt lat="43.3956833" lon="10.43198"><ele>11.0</ele><time>2026-03-22T13:08:22.009Z</time></trkpt><trkpt lat="43.3957633" lon="10.431995"><ele>10.833333333333332</ele><time>2026-03-22T13:08:23.01Z</time></trkpt><trkpt lat="43.3958417" lon="10.4320117"><ele>10.666666666666666</ele><time>2026-03-22T13:08:24.01Z</time></trkpt><trkpt lat="43.3959183" lon="10.4320217"><ele>10.5</ele><time>2026-03-22T13:08:25.011Z</time></trkpt><trkpt lat="43.3959917" lon="10.432015"><ele>10.333333333333334</ele><time>2026-03-22T13:08:26.011Z</time></trkpt><trkpt lat="43.3960683" lon="10.4320083"><ele>10.166666666666668</ele><time>2026-03-22T13:08:27.009Z</time></trkpt><trkpt lat="43.396145" lon="10.43199"><ele>10.0</ele><time>2026-03-22T13:08:28.01Z</time></trkpt><trkpt lat="43.3962133" lon="10.4319683"><ele>10.0</ele><time>2026-03-22T13:08:29.01Z</time></trkpt><trkpt lat="43.3962817" lon="10.4319333"><ele>10.0</ele><time>2026-03-22T13:08:30.01Z</time></trkpt><trkpt lat="43.396345" lon="10.4319067"><ele>10.0</ele><time>2026-03-22T13:08:31.011Z</time></trkpt><trkpt lat="43.3964467" lon="10.4318767"><ele>10.0</ele><time>2026-03-22T13:08:33.01Z</time></trkpt><trkpt lat="43.3965333" lon="10.4319033"><ele>10.0</ele><time>2026-03-22T13:08:35.01Z</time></trkpt><trkpt lat="43.3966" lon="10.4320017"><ele>10.0</ele><time>2026-03-22T13:08:37.01Z</time></trkpt><trkpt lat="43.3966267" lon="10.4320883"><ele>10.333333333333334</ele><time>2026-03-22T13:08:38.011Z</time></trkpt><trkpt lat="43.396645" lon="10.4321883"><ele>10.666666666666668</ele><time>2026-03-22T13:08:39.01Z</time></trkpt><trkpt lat="43.3966617" lon="10.432295"><ele>11.0</ele><time>2026-03-22T13:08:40.01Z</time></trkpt><trkpt lat="43.3966817" lon="10.432405"><ele>11.333333333333334</ele><time>2026-03-22T13:08:41.011Z</time></trkpt><trkpt lat="43.3967067" lon="10.4325233"><ele>11.666666666666666</ele><time>2026-03-22T13:08:42.008Z</time></trkpt><trkpt lat="43.3967333" lon="10.4326433"><ele>12.0</ele><time>2026-03-22T13:08:43.011Z</time></trkpt><trkpt lat="43.39676" lon="10.432765"><ele>12.0</ele><time>2026-03-22T13:08:44.011Z</time></trkpt><trkpt lat="43.39679" lon="10.43289"><ele>12.0</ele><time>2026-03-22T13:08:45.011Z</time></trkpt><trkpt lat="43.3968217" lon="10.4330217"><ele>12.0</ele><time>2026-03-22T13:08:46.01Z</time></trkpt><trkpt lat="43.3968533" lon="10.4331517"><ele>12.0</ele><time>2026-03-22T13:08:47.01Z</time></trkpt><trkpt lat="43.396885" lon="10.4332883"><ele>12.0</ele><time>2026-03-22T13:08:48.01Z</time></trkpt><trkpt lat="43.3969217" lon="10.4334267"><ele>12.0</ele><time>2026-03-22T13:08:49.01Z</time></trkpt><trkpt lat="43.396955" lon="10.4335733"><ele>12.0</ele><time>2026-03-22T13:08:50.01Z</time></trkpt><trkpt lat="43.39699" lon="10.433725"><ele>12.0</ele><time>2026-03-22T13:08:51.009Z</time></trkpt><trkpt lat="43.397025" lon="10.4338783"><ele>12.0</ele><time>2026-03-22T13:08:52.011Z</time></trkpt><trkpt lat="43.3970567" lon="10.434035"><ele>12.0</ele><time>2026-03-22T13:08:53.01Z</time></trkpt><trkpt lat="43.3970883" lon="10.43419"><ele>12.0</ele><time>2026-03-22T13:08:54.01Z</time></trkpt><trkpt lat="43.3971217" lon="10.4343417"><ele>12.0</ele><time>2026-03-22T13:08:55.011Z</time></trkpt><trkpt lat="43.39715" lon="10.4344883"><ele>12.0</ele><time>2026-03-22T13:08:56.01Z</time></trkpt><trkpt lat="43.3971783" lon="10.4346283"><ele>12.0</ele><time>2026-03-22T13:08:57.01Z</time></trkpt><trkpt lat="43.3972" lon="10.4347567"><ele>12.8</ele><time>2026-03-22T13:08:58.009Z</time></trkpt><trkpt lat="43.3972167" lon="10.43488"><ele>13.6</ele><time>2026-03-22T13:08:59.01Z</time></trkpt><trkpt lat="43.397225" lon="10.4350033"><ele>14.400000000000002</ele><time>2026-03-22T13:09:00.01Z</time></trkpt><trkpt lat="43.39723" lon="10.43513"><ele>15.200000000000001</ele><time>2026-03-22T13:09:01.01Z</time></trkpt><trkpt lat="43.3972467" lon="10.43525"><ele>16.0</ele><time>2026-03-22T13:09:02.011Z</time></trkpt><trkpt lat="43.3972833" lon="10.4353667"><ele>16.6</ele><time>2026-03-22T13:09:03.01Z</time></trkpt><trkpt lat="43.3973433" lon="10.435475"><ele>17.200000000000003</ele><time>2026-03-22T13:09:04.01Z</time></trkpt><trkpt lat="43.39739" lon="10.43559"><ele>17.799999999999997</ele><time>2026-03-22T13:09:05.01Z</time></trkpt><trkpt lat="43.3974167" lon="10.4357183"><ele>18.4</ele><time>2026-03-22T13:09:06.01Z</time></trkpt><trkpt lat="43.3974333" lon="10.4358533"><ele>19.0</ele><time>2026-03-22T13:09:07.01Z</time></trkpt><trkpt lat="43.3974467" lon="10.435995"><ele>19.0</ele><time>2026-03-22T13:09:08.01Z</time></trkpt><trkpt lat="43.39746" lon="10.43614"><ele>19.0</ele><time>2026-03-22T13:09:09.01Z</time></trkpt><trkpt lat="43.3974683" lon="10.4362883"><ele>19.0</ele><time>2026-03-22T13:09:10.009Z</time></trkpt><trkpt lat="43.39748" lon="10.436435"><ele>19.0</ele><time>2026-03-22T13:09:11.01Z</time></trkpt><trkpt lat="43.3974883" lon="10.43658"><ele>19.0</ele><time>2026-03-22T13:09:12.01Z</time></trkpt><trkpt lat="43.3975" lon="10.43672"><ele>19.0</ele><time>2026-03-22T13:09:13.01Z</time></trkpt><trkpt lat="43.3975133" lon="10.4368583"><ele>19.0</ele><time>2026-03-22T13:09:14.011Z</time></trkpt><trkpt lat="43.3975267" lon="10.436995"><ele>19.0</ele><time>2026-03-22T13:09:15.01Z</time></trkpt><trkpt lat="43.39754" lon="10.43713"><ele>19.0</ele><time>2026-03-22T13:09:16.01Z</time></trkpt><trkpt lat="43.3975517" lon="10.4372667"><ele>19.0</ele><time>2026-03-22T13:09:17.01Z</time></trkpt><trkpt lat="43.3975667" lon="10.4374017"><ele>19.4</ele><time>2026-03-22T13:09:18.01Z</time></trkpt><trkpt lat="43.397575" lon="10.437535"><ele>19.799999999999997</ele><time>2026-03-22T13:09:19.011Z</time></trkpt><trkpt lat="43.397585" lon="10.4376583"><ele>20.200000000000003</ele><time>2026-03-22T13:09:20.011Z</time></trkpt><trkpt lat="43.3975933" lon="10.4377633"><ele>20.6</ele><time>2026-03-22T13:09:21.01Z</time></trkpt><trkpt lat="43.3976217" lon="10.4379233"><ele>21.0</ele><time>2026-03-22T13:09:23.011Z</time></trkpt><trkpt lat="43.3977033" lon="10.437915"><ele>21.0</ele><time>2026-03-22T13:09:26.01Z</time></trkpt><trkpt lat="43.3978017" lon="10.4378117"><ele>21.0</ele><time>2026-03-22T13:09:28.01Z</time></trkpt><trkpt lat="43.397905" lon="10.437745"><ele>21.0</ele><time>2026-03-22T13:09:29.011Z</time></trkpt><trkpt lat="43.3980017" lon="10.43768"><ele>21.0</ele><time>2026-03-22T13:09:30.01Z</time></trkpt><trkpt lat="43.3980717" lon="10.4376383"><ele>21.0</ele><time>2026-03-22T13:09:31.011Z</time></trkpt><trkpt lat="43.3981533" lon="10.4375983"><ele>21.0</ele><time>2026-03-22T13:09:33.01Z</time></trkpt><trkpt lat="43.3982033" lon="10.4375383"><ele>21.0</ele><time>2026-03-22T13:10:23.009Z</time></trkpt><trkpt lat="43.3982867" lon="10.4374667"><ele>21.0</ele><time>2026-03-22T13:10:25.01Z</time></trkpt><trkpt lat="43.39839" lon="10.437455"><ele>21.0</ele><time>2026-03-22T13:10:27.01Z</time></trkpt><trkpt lat="43.39845" lon="10.4374833"><ele>21.0</ele><time>2026-03-22T13:10:28.009Z</time></trkpt><trkpt lat="43.3985133" lon="10.43753"><ele>21.0</ele><time>2026-03-22T13:10:29.009Z</time></trkpt><trkpt lat="43.3985783" lon="10.437585"><ele>21.0</ele><time>2026-03-22T13:10:30.011Z</time></trkpt><trkpt lat="43.39865" lon="10.4376433"><ele>21.0</ele><time>2026-03-22T13:10:31.01Z</time></trkpt><trkpt lat="43.3987233" lon="10.4377117"><ele>21.0</ele><time>2026-03-22T13:10:32.011Z</time></trkpt><trkpt lat="43.398795" lon="10.4377883"><ele>21.0</ele><time>2026-03-22T13:10:33.01Z</time></trkpt><trkpt lat="43.39887" lon="10.4378667"><ele>21.0</ele><time>2026-03-22T13:10:34.011Z</time></trkpt><trkpt lat="43.398945" lon="10.4379433"><ele>21.8</ele><time>2026-03-22T13:10:35.011Z</time></trkpt><trkpt lat="43.39902" lon="10.4380267"><ele>22.6</ele><time>2026-03-22T13:10:36.01Z</time></trkpt><trkpt lat="43.3990967" lon="10.4381033"><ele>23.4</ele><time>2026-03-22T13:10:37.01Z</time></trkpt><trkpt lat="43.39917" lon="10.4381817"><ele>24.2</ele><time>2026-03-22T13:10:38.011Z</time></trkpt><trkpt lat="43.3992483" lon="10.4382517"><ele>25.0</ele><time>2026-03-22T13:10:39.01Z</time></trkpt><trkpt lat="43.399325" lon="10.43832"><ele>25.000000000000004</ele><time>2026-03-22T13:10:40.01Z</time></trkpt><trkpt lat="43.3994033" lon="10.43838"><ele>25.0</ele><time>2026-03-22T13:10:41.011Z</time></trkpt><trkpt lat="43.3994833" lon="10.43844"><ele>25.0</ele><time>2026-03-22T13:10:42.009Z</time></trkpt><trkpt lat="43.3995583" lon="10.4385"><ele>25.0</ele><time>2026-03-22T13:10:43.009Z</time></trkpt><trkpt lat="43.3996333" lon="10.4385583"><ele>25.000000000000004</ele><time>2026-03-22T13:10:44.01Z</time></trkpt><trkpt lat="43.3997" lon="10.4386117"><ele>25.0</ele><time>2026-03-22T13:10:45.009Z</time></trkpt><trkpt lat="43.3997867" lon="10.438685"><ele>25.0</ele><time>2026-03-22T13:10:47.009Z</time></trkpt><trkpt lat="43.3998767" lon="10.4386567"><ele>25.0</ele><time>2026-03-22T13:10:54.01Z</time></trkpt><trkpt lat="43.3999267" lon="10.4385667"><ele>25.0</ele><time>2026-03-22T13:10:56.01Z</time></trkpt><trkpt lat="43.3999683" lon="10.438435"><ele>25.0</ele><time>2026-03-22T13:10:57.01Z</time></trkpt><trkpt lat="43.4000167" lon="10.4382983"><ele>25.0</ele><time>2026-03-22T13:10:58.01Z</time></trkpt><trkpt lat="43.4000667" lon="10.4381433"><ele>25.0</ele><time>2026-03-22T13:10:59.01Z</time></trkpt><trkpt lat="43.4001033" lon="10.4379867"><ele>25.0</ele><time>2026-03-22T13:11:00.011Z</time></trkpt><trkpt lat="43.400155" lon="10.4378133"><ele>25.0</ele><time>2026-03-22T13:11:01.011Z</time></trkpt><trkpt lat="43.4002117" lon="10.4376317"><ele>25.0</ele><time>2026-03-22T13:11:02.01Z</time></trkpt><trkpt lat="43.4002667" lon="10.437445"><ele>25.0</ele><time>2026-03-22T13:11:03.009Z</time></trkpt><trkpt lat="43.4003133" lon="10.4372717"><ele>25.0</ele><time>2026-03-22T13:11:04.01Z</time></trkpt><trkpt lat="43.40036" lon="10.4371"><ele>25.0</ele><time>2026-03-22T13:11:05.01Z</time></trkpt><trkpt lat="43.400405" lon="10.4369217"><ele>25.0</ele><time>2026-03-22T13:11:06.01Z</time></trkpt><trkpt lat="43.4004533" lon="10.4367817"><ele>24.75</ele><time>2026-03-22T13:11:07.01Z</time></trkpt><trkpt lat="43.400505" lon="10.4366433"><ele>24.5</ele><time>2026-03-22T13:11:08.011Z</time></trkpt><trkpt lat="43.40059" lon="10.4365183"><ele>24.25</ele><time>2026-03-22T13:11:09.01Z</time></trkpt><trkpt lat="43.4006683" lon="10.4363933"><ele>24.0</ele><time>2026-03-22T13:11:10.01Z</time></trkpt><trkpt lat="43.4007567" lon="10.4362633"><ele>23.5</ele><time>2026-03-22T13:11:11.01Z</time></trkpt><trkpt lat="43.4008467" lon="10.4361333"><ele>23.0</ele><time>2026-03-22T13:11:12.011Z</time></trkpt><trkpt lat="43.40094" lon="10.4360033"><ele>22.5</ele><time>2026-03-22T13:11:13.01Z</time></trkpt><trkpt lat="43.401035" lon="10.4358733"><ele>22.0</ele><time>2026-03-22T13:11:14.011Z</time></trkpt><trkpt lat="43.4011317" lon="10.43575"><ele>22.0</ele><time>2026-03-22T13:11:15.01Z</time></trkpt><trkpt lat="43.40123" lon="10.4356317"><ele>22.0</ele><time>2026-03-22T13:11:16.009Z</time></trkpt><trkpt lat="43.401335" lon="10.43552"><ele>22.0</ele><time>2026-03-22T13:11:17.01Z</time></trkpt><trkpt lat="43.4014217" lon="10.435385"><ele>22.0</ele><time>2026-03-22T13:11:18.01Z</time></trkpt><trkpt lat="43.401515" lon="10.4352533"><ele>21.25</ele><time>2026-03-22T13:11:19.01Z</time></trkpt><trkpt lat="43.4016217" lon="10.4351267"><ele>20.5</ele><time>2026-03-22T13:11:20.012Z</time></trkpt><trkpt lat="43.4017283" lon="10.435005"><ele>19.75</ele><time>2026-03-22T13:11:21.011Z</time></trkpt><trkpt lat="43.4018267" lon="10.434875"><ele>19.0</ele><time>2026-03-22T13:11:22.01Z</time></trkpt><trkpt lat="43.4019217" lon="10.43474"><ele>18.5</ele><time>2026-03-22T13:11:23.01Z</time></trkpt><trkpt lat="43.4020083" lon="10.434595"><ele>18.0</ele><time>2026-03-22T13:11:24.01Z</time></trkpt><trkpt lat="43.4020833" lon="10.4344417"><ele>17.5</ele><time>2026-03-22T13:11:25.011Z</time></trkpt><trkpt lat="43.4021517" lon="10.4342917"><ele>17.0</ele><time>2026-03-22T13:11:26.011Z</time></trkpt><trkpt lat="43.4022167" lon="10.43414"><ele>18.25</ele><time>2026-03-22T13:11:27.011Z</time></trkpt><trkpt lat="43.4022767" lon="10.43399"><ele>19.5</ele><time>2026-03-22T13:11:28.01Z</time></trkpt><trkpt lat="43.4023383" lon="10.4338367"><ele>20.75</ele><time>2026-03-22T13:11:29.01Z</time></trkpt><trkpt lat="43.4024033" lon="10.4336783"><ele>22.0</ele><time>2026-03-22T13:11:30.01Z</time></trkpt><trkpt lat="43.402465" lon="10.4335117"><ele>22.0</ele><time>2026-03-22T13:11:31.01Z</time></trkpt><trkpt lat="43.40253" lon="10.4333433"><ele>22.0</ele><time>2026-03-22T13:11:32.011Z</time></trkpt><trkpt lat="43.402585" lon="10.4331717"><ele>22.0</ele><time>2026-03-22T13:11:33.009Z</time></trkpt><trkpt lat="43.4026467" lon="10.4330017"><ele>22.0</ele><time>2026-03-22T13:11:34.01Z</time></trkpt><trkpt lat="43.4027033" lon="10.4328267"><ele>21.75</ele><time>2026-03-22T13:11:35.011Z</time></trkpt><trkpt lat="43.4027383" lon="10.4326483"><ele>21.5</ele><time>2026-03-22T13:11:36.01Z</time></trkpt><trkpt lat="43.4027533" lon="10.432455"><ele>21.25</ele><time>2026-03-22T13:11:37.01Z</time></trkpt><trkpt lat="43.4027517" lon="10.4322617"><ele>21.0</ele><time>2026-03-22T13:11:38.01Z</time></trkpt><trkpt lat="43.4027567" lon="10.4320733"><ele>20.75</ele><time>2026-03-22T13:11:39.01Z</time></trkpt><trkpt lat="43.4027717" lon="10.43189"><ele>20.5</ele><time>2026-03-22T13:11:40.011Z</time></trkpt><trkpt lat="43.4027967" lon="10.4317067"><ele>20.25</ele><time>2026-03-22T13:11:41.011Z</time></trkpt><trkpt lat="43.4028417" lon="10.4315267"><ele>20.0</ele><time>2026-03-22T13:11:42.011Z</time></trkpt><trkpt lat="43.4028967" lon="10.4313533"><ele>20.25</ele><time>2026-03-22T13:11:43.011Z</time></trkpt><trkpt lat="43.40296" lon="10.431185"><ele>20.5</ele><time>2026-03-22T13:11:44.01Z</time></trkpt><trkpt lat="43.4030283" lon="10.4310217"><ele>20.75</ele><time>2026-03-22T13:11:45.011Z</time></trkpt><trkpt lat="43.40311" lon="10.4308683"><ele>21.0</ele><time>2026-03-22T13:11:46.01Z</time></trkpt><trkpt lat="43.4032" lon="10.4307217"><ele>21.0</ele><time>2026-03-22T13:11:47.01Z</time></trkpt><trkpt lat="43.4032867" lon="10.4305683"><ele>21.0</ele><time>2026-03-22T13:11:48.011Z</time></trkpt><trkpt lat="43.4033867" lon="10.4304217"><ele>21.0</ele><time>2026-03-22T13:11:49.01Z</time></trkpt><trkpt lat="43.4034917" lon="10.4302683"><ele>21.0</ele><time>2026-03-22T13:11:50.01Z</time></trkpt><trkpt lat="43.4035983" lon="10.4301183"><ele>21.5</ele><time>2026-03-22T13:11:51.011Z</time></trkpt><trkpt lat="43.4037067" lon="10.4299683"><ele>22.0</ele><time>2026-03-22T13:11:52.011Z</time></trkpt><trkpt lat="43.4038133" lon="10.429825"><ele>22.5</ele><time>2026-03-22T13:11:53.011Z</time></trkpt><trkpt lat="43.40392" lon="10.4296967"><ele>23.0</ele><time>2026-03-22T13:11:54.01Z</time></trkpt><trkpt lat="43.4040117" lon="10.4295733"><ele>23.4</ele><time>2026-03-22T13:11:55.01Z</time></trkpt><trkpt lat="43.404095" lon="10.4294617"><ele>23.799999999999997</ele><time>2026-03-22T13:11:56.011Z</time></trkpt><trkpt lat="43.4041683" lon="10.42935"><ele>24.2</ele><time>2026-03-22T13:11:57.011Z</time></trkpt><trkpt lat="43.40423" lon="10.4292267"><ele>24.6</ele><time>2026-03-22T13:11:58.01Z</time></trkpt><trkpt lat="43.4042733" lon="10.4290933"><ele>25.0</ele><time>2026-03-22T13:11:59.01Z</time></trkpt><trkpt lat="43.4043117" lon="10.42895"><ele>24.25</ele><time>2026-03-22T13:12:00.011Z</time></trkpt><trkpt lat="43.4043517" lon="10.4287983"><ele>23.5</ele><time>2026-03-22T13:12:01.01Z</time></trkpt><trkpt lat="43.4043933" lon="10.42864"><ele>22.75</ele><time>2026-03-22T13:12:02.011Z</time></trkpt><trkpt lat="43.4044417" lon="10.4284833"><ele>22.0</ele><time>2026-03-22T13:12:03.01Z</time></trkpt><trkpt lat="43.404485" lon="10.4283233"><ele>22.0</ele><time>2026-03-22T13:12:04.011Z</time></trkpt><trkpt lat="43.4045317" lon="10.4281567"><ele>22.0</ele><time>2026-03-22T13:12:05.011Z</time></trkpt><trkpt lat="43.4045583" lon="10.4279783"><ele>22.0</ele><time>2026-03-22T13:12:06.011Z</time></trkpt><trkpt lat="43.4045933" lon="10.42781"><ele>22.0</ele><time>2026-03-22T13:12:07.01Z</time></trkpt><trkpt lat="43.404615" lon="10.427635"><ele>22.0</ele><time>2026-03-22T13:12:08.011Z</time></trkpt><trkpt lat="43.4046183" lon="10.4274567"><ele>22.0</ele><time>2026-03-22T13:12:09.01Z</time></trkpt><trkpt lat="43.40461" lon="10.427275"><ele>22.0</ele><time>2026-03-22T13:12:10.011Z</time></trkpt><trkpt lat="43.4045983" lon="10.4271033"><ele>22.0</ele><time>2026-03-22T13:12:11.011Z</time></trkpt><trkpt lat="43.404585" lon="10.4269483"><ele>22.0</ele><time>2026-03-22T13:12:12.01Z</time></trkpt><trkpt lat="43.4045783" lon="10.4267967"><ele>22.0</ele><time>2026-03-22T13:12:13.01Z</time></trkpt><trkpt lat="43.4045817" lon="10.4266417"><ele>22.0</ele><time>2026-03-22T13:12:14.011Z</time></trkpt><trkpt lat="43.40459" lon="10.4264817"><ele>22.0</ele><time>2026-03-22T13:12:15.011Z</time></trkpt><trkpt lat="43.404605" lon="10.42632"><ele>21.75</ele><time>2026-03-22T13:12:16.009Z</time></trkpt><trkpt lat="43.4046383" lon="10.4261567"><ele>21.5</ele><time>2026-03-22T13:12:17.01Z</time></trkpt><trkpt lat="43.4046817" lon="10.4259983"><ele>21.25</ele><time>2026-03-22T13:12:18.011Z</time></trkpt><trkpt lat="43.404745" lon="10.4258467"><ele>21.0</ele><time>2026-03-22T13:12:19.01Z</time></trkpt><trkpt lat="43.404825" lon="10.4257033"><ele>21.0</ele><time>2026-03-22T13:12:20.011Z</time></trkpt><trkpt lat="43.4048933" lon="10.4255617"><ele>21.0</ele><time>2026-03-22T13:12:21.01Z</time></trkpt><trkpt lat="43.4049433" lon="10.42542"><ele>21.0</ele><time>2026-03-22T13:12:22.01Z</time></trkpt><trkpt lat="43.404965" lon="10.4252767"><ele>21.0</ele><time>2026-03-22T13:12:23.01Z</time></trkpt><trkpt lat="43.4049717" lon="10.4251517"><ele>21.0</ele><time>2026-03-22T13:12:24.011Z</time></trkpt><trkpt lat="43.4049717" lon="10.4250467"><ele>21.0</ele><time>2026-03-22T13:12:25.01Z</time></trkpt><trkpt lat="43.40498" lon="10.4249433"><ele>21.0</ele><time>2026-03-22T13:12:26.009Z</time></trkpt><trkpt lat="43.405" lon="10.4248383"><ele>21.0</ele><time>2026-03-22T13:12:27.01Z</time></trkpt><trkpt lat="43.4050317" lon="10.4247233"><ele>21.0</ele><time>2026-03-22T13:12:28.01Z</time></trkpt><trkpt lat="43.405065" lon="10.4246017"><ele>21.0</ele><time>2026-03-22T13:12:29.011Z</time></trkpt><trkpt lat="43.4051067" lon="10.42448"><ele>21.0</ele><time>2026-03-22T13:12:30.01Z</time></trkpt><trkpt lat="43.405145" lon="10.4243483"><ele>21.0</ele><time>2026-03-22T13:12:31.01Z</time></trkpt><trkpt lat="43.40518" lon="10.424215"><ele>21.0</ele><time>2026-03-22T13:12:32.011Z</time></trkpt><trkpt lat="43.40522" lon="10.4240817"><ele>21.0</ele><time>2026-03-22T13:12:33.01Z</time></trkpt><trkpt lat="43.4052567" lon="10.4239467"><ele>21.0</ele><time>2026-03-22T13:12:34.01Z</time></trkpt><trkpt lat="43.40529" lon="10.42381"><ele>21.0</ele><time>2026-03-22T13:12:35.011Z</time></trkpt><trkpt lat="43.4053317" lon="10.423675"><ele>21.4</ele><time>2026-03-22T13:12:36.01Z</time></trkpt><trkpt lat="43.4053683" lon="10.42354"><ele>21.8</ele><time>2026-03-22T13:12:37.011Z</time></trkpt><trkpt lat="43.40541" lon="10.42342"><ele>22.2</ele><time>2026-03-22T13:12:38.011Z</time></trkpt><trkpt lat="43.4054383" lon="10.4232883"><ele>22.599999999999998</ele><time>2026-03-22T13:12:39.01Z</time></trkpt><trkpt lat="43.4054683" lon="10.4231583"><ele>23.0</ele><time>2026-03-22T13:12:40.011Z</time></trkpt><trkpt lat="43.40551" lon="10.4230267"><ele>23.2</ele><time>2026-03-22T13:12:41.011Z</time></trkpt><trkpt lat="43.4055467" lon="10.4228883"><ele>23.4</ele><time>2026-03-22T13:12:42.012Z</time></trkpt><trkpt lat="43.4055883" lon="10.4227517"><ele>23.599999999999998</ele><time>2026-03-22T13:12:43.012Z</time></trkpt><trkpt lat="43.40563" lon="10.42261"><ele>23.799999999999997</ele><time>2026-03-22T13:12:44.011Z</time></trkpt><trkpt lat="43.4056717" lon="10.4224733"><ele>24.0</ele><time>2026-03-22T13:12:45.011Z</time></trkpt><trkpt lat="43.40572" lon="10.42234"><ele>24.0</ele><time>2026-03-22T13:12:46.01Z</time></trkpt><trkpt lat="43.4057617" lon="10.4221983"><ele>24.0</ele><time>2026-03-22T13:12:47.011Z</time></trkpt><trkpt lat="43.4058017" lon="10.42206"><ele>24.0</ele><time>2026-03-22T13:12:48.01Z</time></trkpt><trkpt lat="43.4058417" lon="10.42192"><ele>24.0</ele><time>2026-03-22T13:12:49.011Z</time></trkpt><trkpt lat="43.405885" lon="10.42178"><ele>24.0</ele><time>2026-03-22T13:12:50.011Z</time></trkpt><trkpt lat="43.405925" lon="10.4216383"><ele>24.0</ele><time>2026-03-22T13:12:51.01Z</time></trkpt><trkpt lat="43.4059683" lon="10.4214967"><ele>24.0</ele><time>2026-03-22T13:12:52.01Z</time></trkpt><trkpt lat="43.4060017" lon="10.421355"><ele>24.0</ele><time>2026-03-22T13:12:53.011Z</time></trkpt><trkpt lat="43.4060417" lon="10.42122"><ele>24.0</ele><time>2026-03-22T13:12:54.011Z</time></trkpt><trkpt lat="43.4060767" lon="10.4210867"><ele>24.0</ele><time>2026-03-22T13:12:55.011Z</time></trkpt><trkpt lat="43.4061033" lon="10.420955"><ele>24.4</ele><time>2026-03-22T13:12:56.011Z</time></trkpt><trkpt lat="43.4061283" lon="10.4208267"><ele>24.799999999999997</ele><time>2026-03-22T13:12:57.009Z</time></trkpt><trkpt lat="43.406155" lon="10.4207"><ele>25.200000000000003</ele><time>2026-03-22T13:12:58.011Z</time></trkpt><trkpt lat="43.4061717" lon="10.4205683"><ele>25.6</ele><time>2026-03-22T13:12:59.01Z</time></trkpt><trkpt lat="43.406185" lon="10.420435"><ele>26.0</ele><time>2026-03-22T13:13:00.011Z</time></trkpt><trkpt lat="43.406195" lon="10.4203"><ele>26.0</ele><time>2026-03-22T13:13:01.011Z</time></trkpt><trkpt lat="43.4062083" lon="10.4201633"><ele>26.0</ele><time>2026-03-22T13:13:02.012Z</time></trkpt><trkpt lat="43.4062283" lon="10.420025"><ele>26.0</ele><time>2026-03-22T13:13:03.01Z</time></trkpt><trkpt lat="43.406255" lon="10.41989"><ele>26.0</ele><time>2026-03-22T13:13:04.01Z</time></trkpt><trkpt lat="43.40627" lon="10.4197567"><ele>26.0</ele><time>2026-03-22T13:13:05.011Z</time></trkpt><trkpt lat="43.4062883" lon="10.419625"><ele>25.8</ele><time>2026-03-22T13:13:06.01Z</time></trkpt><trkpt lat="43.4063067" lon="10.4194883"><ele>25.6</ele><time>2026-03-22T13:13:07.011Z</time></trkpt><trkpt lat="43.4063317" lon="10.4193483"><ele>25.4</ele><time>2026-03-22T13:13:08.011Z</time></trkpt><trkpt lat="43.4063533" lon="10.4192017"><ele>25.2</ele><time>2026-03-22T13:13:09.009Z</time></trkpt><trkpt lat="43.4063817" lon="10.4190583"><ele>25.0</ele><time>2026-03-22T13:13:10.01Z</time></trkpt><trkpt lat="43.406405" lon="10.4189167"><ele>26.0</ele><time>2026-03-22T13:13:11.01Z</time></trkpt><trkpt lat="43.4064267" lon="10.4187833"><ele>27.0</ele><time>2026-03-22T13:13:12.011Z</time></trkpt><trkpt lat="43.4064467" lon="10.4186583"><ele>28.0</ele><time>2026-03-22T13:13:13.011Z</time></trkpt><trkpt lat="43.4064667" lon="10.4185367"><ele>29.0</ele><time>2026-03-22T13:13:14.011Z</time></trkpt><trkpt lat="43.4064933" lon="10.4184133"><ele>30.0</ele><time>2026-03-22T13:13:15.01Z</time></trkpt><trkpt lat="43.406525" lon="10.4182883"><ele>30.0</ele><time>2026-03-22T13:13:16.009Z</time></trkpt><trkpt lat="43.40656" lon="10.41816"><ele>30.0</ele><time>2026-03-22T13:13:17.011Z</time></trkpt><trkpt lat="43.40659" lon="10.41804"><ele>30.0</ele><time>2026-03-22T13:13:18.01Z</time></trkpt><trkpt lat="43.4066233" lon="10.4179317"><ele>30.0</ele><time>2026-03-22T13:13:19.01Z</time></trkpt><trkpt lat="43.406655" lon="10.417845"><ele>30.0</ele><time>2026-03-22T13:13:20.011Z</time></trkpt><trkpt lat="43.4067433" lon="10.4177433"><ele>30.2</ele><time>2026-03-22T13:13:22.011Z</time></trkpt><trkpt lat="43.4068533" lon="10.41774"><ele>30.4</ele><time>2026-03-22T13:13:24.01Z</time></trkpt><trkpt lat="43.4069217" lon="10.4177533"><ele>30.6</ele><time>2026-03-22T13:13:25.013Z</time></trkpt><trkpt lat="43.4070133" lon="10.4178017"><ele>30.8</ele><time>2026-03-22T13:13:26.011Z</time></trkpt><trkpt lat="43.40712" lon="10.4178817"><ele>31.0</ele><time>2026-03-22T13:13:27.011Z</time></trkpt><trkpt lat="43.407235" lon="10.4179533"><ele>33.75</ele><time>2026-03-22T13:13:28.01Z</time></trkpt><trkpt lat="43.4073567" lon="10.4180167"><ele>36.5</ele><time>2026-03-22T13:13:29.01Z</time></trkpt><trkpt lat="43.4074867" lon="10.418055"><ele>39.25</ele><time>2026-03-22T13:13:30.011Z</time></trkpt><trkpt lat="43.4076283" lon="10.4180883"><ele>42.0</ele><time>2026-03-22T13:13:31.011Z</time></trkpt><trkpt lat="43.4077667" lon="10.4181167"><ele>42.0</ele><time>2026-03-22T13:13:32.011Z</time></trkpt><trkpt lat="43.4079133" lon="10.4181367"><ele>42.0</ele><time>2026-03-22T13:13:33.01Z</time></trkpt><trkpt lat="43.408055" lon="10.418135"><ele>42.0</ele><time>2026-03-22T13:13:34.009Z</time></trkpt><trkpt lat="43.4081917" lon="10.4181217"><ele>42.0</ele><time>2026-03-22T13:13:35.011Z</time></trkpt><trkpt lat="43.4083133" lon="10.4180717"><ele>46.75</ele><time>2026-03-22T13:13:36.011Z</time></trkpt><trkpt lat="43.4084117" lon="10.4179517"><ele>51.5</ele><time>2026-03-22T13:13:37.01Z</time></trkpt><trkpt lat="43.4085067" lon="10.4178433"><ele>56.25</ele><time>2026-03-22T13:13:38.01Z</time></trkpt><trkpt lat="43.4086033" lon="10.4177283"><ele>61.0</ele><time>2026-03-22T13:13:39.01Z</time></trkpt><trkpt lat="43.4086967" lon="10.4176067"><ele>61.0</ele><time>2026-03-22T13:13:40.011Z</time></trkpt><trkpt lat="43.4087667" lon="10.417455"><ele>61.0</ele><time>2026-03-22T13:13:41.011Z</time></trkpt><trkpt lat="43.4088467" lon="10.4173017"><ele>61.0</ele><time>2026-03-22T13:13:42.01Z</time></trkpt><trkpt lat="43.4089267" lon="10.4171467"><ele>61.0</ele><time>2026-03-22T13:13:43.011Z</time></trkpt><trkpt lat="43.40901" lon="10.417"><ele>64.0</ele><time>2026-03-22T13:13:44.011Z</time></trkpt><trkpt lat="43.4090933" lon="10.4168567"><ele>67.0</ele><time>2026-03-22T13:13:45.011Z</time></trkpt><trkpt lat="43.4091617" lon="10.41671"><ele>70.0</ele><time>2026-03-22T13:13:46.01Z</time></trkpt><trkpt lat="43.4092383" lon="10.416575"><ele>73.0</ele><time>2026-03-22T13:13:47.01Z</time></trkpt><trkpt lat="43.40932" lon="10.4164383"><ele>73.25</ele><time>2026-03-22T13:13:48.01Z</time></trkpt><trkpt lat="43.409395" lon="10.416295"><ele>73.5</ele><time>2026-03-22T13:13:49.011Z</time></trkpt><trkpt lat="43.4094683" lon="10.4161533"><ele>73.75</ele><time>2026-03-22T13:13:50.009Z</time></trkpt><trkpt lat="43.40954" lon="10.4160283"><ele>74.0</ele><time>2026-03-22T13:13:51.01Z</time></trkpt><trkpt lat="43.4096033" lon="10.4159067"><ele>74.0</ele><time>2026-03-22T13:13:52.011Z</time></trkpt><trkpt lat="43.40965" lon="10.415795"><ele>74.0</ele><time>2026-03-22T13:13:53.011Z</time></trkpt><trkpt lat="43.409695" lon="10.415705"><ele>74.0</ele><time>2026-03-22T13:13:54.011Z</time></trkpt><trkpt lat="43.4097717" lon="10.41561"><ele>74.0</ele><time>2026-03-22T13:13:56.013Z</time></trkpt><trkpt lat="43.4098267" lon="10.415565"><ele>74.0</ele><time>2026-03-22T13:13:58.011Z</time></trkpt><trkpt lat="43.4098917" lon="10.4155667"><ele>74.0</ele><time>2026-03-22T13:14:00.01Z</time></trkpt><trkpt lat="43.40997" lon="10.41562"><ele>76.2</ele><time>2026-03-22T13:14:02.01Z</time></trkpt><trkpt lat="43.41003" lon="10.4156733"><ele>78.4</ele><time>2026-03-22T13:14:03.012Z</time></trkpt><trkpt lat="43.41011" lon="10.41575"><ele>80.6</ele><time>2026-03-22T13:14:04.01Z</time></trkpt><trkpt lat="43.41019" lon="10.41582"><ele>82.8</ele><time>2026-03-22T13:14:05.011Z</time></trkpt><trkpt lat="43.410275" lon="10.4159117"><ele>85.0</ele><time>2026-03-22T13:14:06.011Z</time></trkpt><trkpt lat="43.410365" lon="10.4159933"><ele>85.0</ele><time>2026-03-22T13:14:07.011Z</time></trkpt><trkpt lat="43.4104567" lon="10.416085"><ele>85.0</ele><time>2026-03-22T13:14:08.011Z</time></trkpt><trkpt lat="43.41055" lon="10.4161617"><ele>85.0</ele><time>2026-03-22T13:14:09.01Z</time></trkpt><trkpt lat="43.4106483" lon="10.416245"><ele>85.0</ele><time>2026-03-22T13:14:10.011Z</time></trkpt><trkpt lat="43.4107567" lon="10.4163067"><ele>85.0</ele><time>2026-03-22T13:14:11.011Z</time></trkpt><trkpt lat="43.4108767" lon="10.4163433"><ele>85.0</ele><time>2026-03-22T13:14:12.011Z</time></trkpt><trkpt lat="43.411" lon="10.4163667"><ele>85.0</ele><time>2026-03-22T13:14:13.01Z</time></trkpt><trkpt lat="43.41112" lon="10.4163867"><ele>85.0</ele><time>2026-03-22T13:14:14.01Z</time></trkpt><trkpt lat="43.4112317" lon="10.41641"><ele>86.8</ele><time>2026-03-22T13:14:15.011Z</time></trkpt><trkpt lat="43.4113267" lon="10.416425"><ele>88.6</ele><time>2026-03-22T13:14:16.011Z</time></trkpt><trkpt lat="43.4114183" lon="10.4164417"><ele>90.4</ele><time>2026-03-22T13:14:17.011Z</time></trkpt><trkpt lat="43.4115083" lon="10.4164483"><ele>92.2</ele><time>2026-03-22T13:14:18.01Z</time></trkpt><trkpt lat="43.4116067" lon="10.41646"><ele>94.0</ele><time>2026-03-22T13:14:19.011Z</time></trkpt><trkpt lat="43.4117067" lon="10.416475"><ele>94.0</ele><time>2026-03-22T13:14:20.01Z</time></trkpt><trkpt lat="43.4118167" lon="10.41649"><ele>94.0</ele><time>2026-03-22T13:14:21.011Z</time></trkpt><trkpt lat="43.4119283" lon="10.4165117"><ele>94.0</ele><time>2026-03-22T13:14:22.011Z</time></trkpt><trkpt lat="43.4120433" lon="10.41653"><ele>94.0</ele><time>2026-03-22T13:14:23.012Z</time></trkpt><trkpt lat="43.41216" lon="10.4165467"><ele>95.25</ele><time>2026-03-22T13:14:24.01Z</time></trkpt><trkpt lat="43.4122767" lon="10.4165717"><ele>96.5</ele><time>2026-03-22T13:14:25.011Z</time></trkpt><trkpt lat="43.4123967" lon="10.4165883"><ele>97.75</ele><time>2026-03-22T13:14:26.013Z</time></trkpt><trkpt lat="43.4125167" lon="10.4165967"><ele>99.0</ele><time>2026-03-22T13:14:27.011Z</time></trkpt><trkpt lat="43.4126283" lon="10.4166067"><ele>99.0</ele><time>2026-03-22T13:14:28.01Z</time></trkpt><trkpt lat="43.4127433" lon="10.4166183"><ele>99.0</ele><time>2026-03-22T13:14:29.011Z</time></trkpt><trkpt lat="43.412855" lon="10.41664"><ele>99.0</ele><time>2026-03-22T13:14:30.013Z</time></trkpt><trkpt lat="43.4129717" lon="10.4166533"><ele>99.0</ele><time>2026-03-22T13:14:31.012Z</time></trkpt><trkpt lat="43.4130917" lon="10.4166717"><ele>99.75</ele><time>2026-03-22T13:14:32.013Z</time></trkpt><trkpt lat="43.41321" lon="10.4166967"><ele>100.5</ele><time>2026-03-22T13:14:33.011Z</time></trkpt><trkpt lat="43.4133267" lon="10.4167167"><ele>101.25</ele><time>2026-03-22T13:14:34.01Z</time></trkpt><trkpt lat="43.4134417" lon="10.41674"><ele>102.0</ele><time>2026-03-22T13:14:35.01Z</time></trkpt><trkpt lat="43.413545" lon="10.416755"><ele>102.0</ele><time>2026-03-22T13:14:36.011Z</time></trkpt><trkpt lat="43.413655" lon="10.416805"><ele>102.0</ele><time>2026-03-22T13:14:37.011Z</time></trkpt><trkpt lat="43.41376" lon="10.4168667"><ele>102.0</ele><time>2026-03-22T13:14:38.011Z</time></trkpt><trkpt lat="43.4138683" lon="10.41693"><ele>102.0</ele><time>2026-03-22T13:14:39.01Z</time></trkpt><trkpt lat="43.413975" lon="10.4170033"><ele>102.0</ele><time>2026-03-22T13:14:40.011Z</time></trkpt><trkpt lat="43.4140833" lon="10.4170833"><ele>102.0</ele><time>2026-03-22T13:14:41.011Z</time></trkpt><trkpt lat="43.4141917" lon="10.4171767"><ele>102.0</ele><time>2026-03-22T13:14:42.011Z</time></trkpt><trkpt lat="43.414305" lon="10.4172733"><ele>102.0</ele><time>2026-03-22T13:14:43.013Z</time></trkpt><trkpt lat="43.41442" lon="10.4173733"><ele>102.0</ele><time>2026-03-22T13:14:44.011Z</time></trkpt><trkpt lat="43.4145317" lon="10.41748"><ele>102.0</ele><time>2026-03-22T13:14:45.01Z</time></trkpt><trkpt lat="43.414645" lon="10.4175983"><ele>102.0</ele><time>2026-03-22T13:14:46.009Z</time></trkpt><trkpt lat="43.4147517" lon="10.41773"><ele>102.0</ele><time>2026-03-22T13:14:47.011Z</time></trkpt><trkpt lat="43.4148567" lon="10.4178833"><ele>101.25</ele><time>2026-03-22T13:14:48.011Z</time></trkpt><trkpt lat="43.4149433" lon="10.41806"><ele>100.5</ele><time>2026-03-22T13:14:49.012Z</time></trkpt><trkpt lat="43.4150083" lon="10.41824"><ele>99.75</ele><time>2026-03-22T13:14:50.011Z</time></trkpt><trkpt lat="43.415055" lon="10.4184267"><ele>99.0</ele><time>2026-03-22T13:14:51.013Z</time></trkpt><trkpt lat="43.4150967" lon="10.4186183"><ele>99.0</ele><time>2026-03-22T13:14:52.013Z</time></trkpt><trkpt lat="43.41515" lon="10.418805"><ele>99.0</ele><time>2026-03-22T13:14:53.011Z</time></trkpt><trkpt lat="43.4152133" lon="10.4189883"><ele>99.0</ele><time>2026-03-22T13:14:54.011Z</time></trkpt><trkpt lat="43.4152917" lon="10.4191617"><ele>99.0</ele><time>2026-03-22T13:14:55.011Z</time></trkpt><trkpt lat="43.4153867" lon="10.4193233"><ele>100.33333333333334</ele><time>2026-03-22T13:14:56.014Z</time></trkpt><trkpt lat="43.415495" lon="10.4194867"><ele>101.66666666666667</ele><time>2026-03-22T13:14:57.012Z</time></trkpt><trkpt lat="43.4156033" lon="10.4196467"><ele>103.0</ele><time>2026-03-22T13:14:58.011Z</time></trkpt><trkpt lat="43.4157117" lon="10.4198083"><ele>105.25</ele><time>2026-03-22T13:14:59.01Z</time></trkpt><trkpt lat="43.415825" lon="10.4199583"><ele>107.5</ele><time>2026-03-22T13:15:00.011Z</time></trkpt><trkpt lat="43.415935" lon="10.4200917"><ele>109.75</ele><time>2026-03-22T13:15:01.012Z</time></trkpt><trkpt lat="43.416045" lon="10.4202117"><ele>112.0</ele><time>2026-03-22T13:15:02.012Z</time></trkpt><trkpt lat="43.4161633" lon="10.4203017"><ele>112.0</ele><time>2026-03-22T13:15:03.011Z</time></trkpt><trkpt lat="43.4162783" lon="10.4203683"><ele>112.0</ele><time>2026-03-22T13:15:04.01Z</time></trkpt><trkpt lat="43.4164017" lon="10.420395"><ele>112.0</ele><time>2026-03-22T13:15:05.01Z</time></trkpt><trkpt lat="43.4165317" lon="10.4204"><ele>112.0</ele><time>2026-03-22T13:15:06.011Z</time></trkpt><trkpt lat="43.41666" lon="10.4203883"><ele>111.75</ele><time>2026-03-22T13:15:07.011Z</time></trkpt><trkpt lat="43.41679" lon="10.420335"><ele>111.5</ele><time>2026-03-22T13:15:08.011Z</time></trkpt><trkpt lat="43.416925" lon="10.4202633"><ele>111.25</ele><time>2026-03-22T13:15:09.011Z</time></trkpt><trkpt lat="43.4170583" lon="10.42018"><ele>111.0</ele><time>2026-03-22T13:15:10.01Z</time></trkpt><trkpt lat="43.4171833" lon="10.4200733"><ele>112.5</ele><time>2026-03-22T13:15:11.011Z</time></trkpt><trkpt lat="43.4173033" lon="10.4199633"><ele>114.0</ele><time>2026-03-22T13:15:12.01Z</time></trkpt><trkpt lat="43.4174133" lon="10.4198833"><ele>115.5</ele><time>2026-03-22T13:15:13.01Z</time></trkpt><trkpt lat="43.4175117" lon="10.419825"><ele>117.0</ele><time>2026-03-22T13:15:14.009Z</time></trkpt><trkpt lat="43.41761" lon="10.4197883"><ele>117.0</ele><time>2026-03-22T13:15:15.01Z</time></trkpt><trkpt lat="43.4177183" lon="10.4197733"><ele>117.0</ele><time>2026-03-22T13:15:16.01Z</time></trkpt><trkpt lat="43.41783" lon="10.4197583"><ele>117.0</ele><time>2026-03-22T13:15:17.01Z</time></trkpt><trkpt lat="43.4179467" lon="10.4197433"><ele>117.0</ele><time>2026-03-22T13:15:18.01Z</time></trkpt><trkpt lat="43.4180717" lon="10.4197283"><ele>117.75</ele><time>2026-03-22T13:15:19.01Z</time></trkpt><trkpt lat="43.4182017" lon="10.419725"><ele>118.5</ele><time>2026-03-22T13:15:20.01Z</time></trkpt><trkpt lat="43.4183333" lon="10.4197317"><ele>119.25</ele><time>2026-03-22T13:15:21.01Z</time></trkpt><trkpt lat="43.418465" lon="10.4197417"><ele>120.0</ele><time>2026-03-22T13:15:22.01Z</time></trkpt><trkpt lat="43.4185983" lon="10.4197533"><ele>120.0</ele><time>2026-03-22T13:15:23.009Z</time></trkpt><trkpt lat="43.41873" lon="10.41977"><ele>120.0</ele><time>2026-03-22T13:15:24.01Z</time></trkpt><trkpt lat="43.4188633" lon="10.4197933"><ele>120.0</ele><time>2026-03-22T13:15:25.009Z</time></trkpt><trkpt lat="43.4189983" lon="10.4198233"><ele>120.0</ele><time>2026-03-22T13:15:26.011Z</time></trkpt><trkpt lat="43.4191333" lon="10.4198617"><ele>120.25</ele><time>2026-03-22T13:15:27.009Z</time></trkpt><trkpt lat="43.41927" lon="10.4199033"><ele>120.5</ele><time>2026-03-22T13:15:28.009Z</time></trkpt><trkpt lat="43.4194067" lon="10.41994"><ele>120.75</ele><time>2026-03-22T13:15:29.011Z</time></trkpt><trkpt lat="43.4195467" lon="10.4199817"><ele>121.0</ele><time>2026-03-22T13:15:30.011Z</time></trkpt><trkpt lat="43.4196917" lon="10.420025"><ele>121.5</ele><time>2026-03-22T13:15:31.01Z</time></trkpt><trkpt lat="43.4198367" lon="10.4200683"><ele>122.0</ele><time>2026-03-22T13:15:32.01Z</time></trkpt><trkpt lat="43.41998" lon="10.42011"><ele>122.5</ele><time>2026-03-22T13:15:33.01Z</time></trkpt><trkpt lat="43.4201117" lon="10.420155"><ele>123.0</ele><time>2026-03-22T13:15:34.01Z</time></trkpt><trkpt lat="43.4202333" lon="10.4202083"><ele>123.0</ele><time>2026-03-22T13:15:35.01Z</time></trkpt><trkpt lat="43.420345" lon="10.420275"><ele>123.0</ele><time>2026-03-22T13:15:36.009Z</time></trkpt><trkpt lat="43.4204467" lon="10.420355"><ele>123.0</ele><time>2026-03-22T13:15:37.01Z</time></trkpt><trkpt lat="43.42054" lon="10.4204817"><ele>123.0</ele><time>2026-03-22T13:15:38.01Z</time></trkpt><trkpt lat="43.4206183" lon="10.4206317"><ele>125.0</ele><time>2026-03-22T13:15:39.01Z</time></trkpt><trkpt lat="43.4207" lon="10.4207933"><ele>127.0</ele><time>2026-03-22T13:15:40.01Z</time></trkpt><trkpt lat="43.4207917" lon="10.4209567"><ele>129.0</ele><time>2026-03-22T13:15:41.01Z</time></trkpt><trkpt lat="43.42089" lon="10.4211117"><ele>131.0</ele><time>2026-03-22T13:15:42.01Z</time></trkpt><trkpt lat="43.4209967" lon="10.4212517"><ele>131.25</ele><time>2026-03-22T13:15:43.009Z</time></trkpt><trkpt lat="43.4211117" lon="10.4213667"><ele>131.5</ele><time>2026-03-22T13:15:44.011Z</time></trkpt><trkpt lat="43.4212317" lon="10.4214633"><ele>131.75</ele><time>2026-03-22T13:15:45.009Z</time></trkpt><trkpt lat="43.421355" lon="10.4215567"><ele>132.0</ele><time>2026-03-22T13:15:46.01Z</time></trkpt><trkpt lat="43.421485" lon="10.42164"><ele>132.75</ele><time>2026-03-22T13:15:47.01Z</time></trkpt><trkpt lat="43.42162" lon="10.4217217"><ele>133.5</ele><time>2026-03-22T13:15:48.01Z</time></trkpt><trkpt lat="43.4217533" lon="10.4217933"><ele>134.25</ele><time>2026-03-22T13:15:49.01Z</time></trkpt><trkpt lat="43.42189" lon="10.4218433"><ele>135.0</ele><time>2026-03-22T13:15:50.011Z</time></trkpt><trkpt lat="43.4220283" lon="10.42187"><ele>136.25</ele><time>2026-03-22T13:15:51.01Z</time></trkpt><trkpt lat="43.422165" lon="10.4218817"><ele>137.5</ele><time>2026-03-22T13:15:52.009Z</time></trkpt><trkpt lat="43.422295" lon="10.42188"><ele>138.75</ele><time>2026-03-22T13:15:53.01Z</time></trkpt><trkpt lat="43.4224133" lon="10.4218717"><ele>140.0</ele><time>2026-03-22T13:15:54.01Z</time></trkpt><trkpt lat="43.4225133" lon="10.421845"><ele>140.0</ele><time>2026-03-22T13:15:55.01Z</time></trkpt><trkpt lat="43.422595" lon="10.4217967"><ele>140.0</ele><time>2026-03-22T13:15:56.011Z</time></trkpt><trkpt lat="43.42266" lon="10.421735"><ele>140.0</ele><time>2026-03-22T13:15:57.01Z</time></trkpt><trkpt lat="43.4227117" lon="10.421675"><ele>140.0</ele><time>2026-03-22T13:15:58.009Z</time></trkpt><trkpt lat="43.42278" lon="10.421565"><ele>140.0</ele><time>2026-03-22T13:16:00.01Z</time></trkpt><trkpt lat="43.4228117" lon="10.4214833"><ele>140.0</ele><time>2026-03-22T13:16:02.01Z</time></trkpt><trkpt lat="43.422805" lon="10.421385"><ele>140.0</ele><time>2026-03-22T13:17:02.01Z</time></trkpt><trkpt lat="43.4227783" lon="10.4212883"><ele>140.0</ele><time>2026-03-22T13:17:04.009Z</time></trkpt><trkpt lat="43.422715" lon="10.4212167"><ele>140.0</ele><time>2026-03-22T13:17:07.01Z</time></trkpt><trkpt lat="43.4226517" lon="10.4211817"><ele>140.0</ele><time>2026-03-22T13:17:09.012Z</time></trkpt><trkpt lat="43.422585" lon="10.42114"><ele>140.0</ele><time>2026-03-22T13:17:11.01Z</time></trkpt><trkpt lat="43.4224717" lon="10.4210933"><ele>140.0</ele><time>2026-03-22T13:17:22.01Z</time></trkpt><trkpt lat="43.4223933" lon="10.42105"><ele>140.0</ele><time>2026-03-22T13:17:23.011Z</time></trkpt><trkpt lat="43.4223017" lon="10.4210033"><ele>140.0</ele><time>2026-03-22T13:17:24.011Z</time></trkpt><trkpt lat="43.4222033" lon="10.4209433"><ele>140.0</ele><time>2026-03-22T13:17:25.011Z</time></trkpt><trkpt lat="43.4221017" lon="10.4208833"><ele>140.0</ele><time>2026-03-22T13:17:26.012Z</time></trkpt><trkpt lat="43.422" lon="10.4208117"><ele>140.0</ele><time>2026-03-22T13:17:27.011Z</time></trkpt><trkpt lat="43.4219117" lon="10.42074"><ele>138.8</ele><time>2026-03-22T13:17:28.011Z</time></trkpt><trkpt lat="43.4218517" lon="10.4206517"><ele>137.6</ele><time>2026-03-22T13:17:29.011Z</time></trkpt><trkpt lat="43.4218133" lon="10.4205533"><ele>136.4</ele><time>2026-03-22T13:17:30.012Z</time></trkpt><trkpt lat="43.4217983" lon="10.4204367"><ele>135.2</ele><time>2026-03-22T13:17:31.011Z</time></trkpt><trkpt lat="43.4218233" lon="10.4203017"><ele>134.0</ele><time>2026-03-22T13:17:32.011Z</time></trkpt><trkpt lat="43.4218833" lon="10.42014"><ele>132.66666666666666</ele><time>2026-03-22T13:17:33.01Z</time></trkpt><trkpt lat="43.4219483" lon="10.4199517"><ele>131.33333333333334</ele><time>2026-03-22T13:17:34.01Z</time></trkpt><trkpt lat="43.422015" lon="10.4197417"><ele>130.0</ele><time>2026-03-22T13:17:35.01Z</time></trkpt><trkpt lat="43.4220817" lon="10.4195283"><ele>131.66666666666669</ele><time>2026-03-22T13:17:36.01Z</time></trkpt><trkpt lat="43.4221567" lon="10.419315"><ele>133.33333333333334</ele><time>2026-03-22T13:17:37.01Z</time></trkpt><trkpt lat="43.4222317" lon="10.4190917"><ele>135.0</ele><time>2026-03-22T13:17:38.011Z</time></trkpt><trkpt lat="43.4223117" lon="10.4188633"><ele>135.33333333333334</ele><time>2026-03-22T13:17:39.01Z</time></trkpt><trkpt lat="43.4223883" lon="10.41863"><ele>135.66666666666669</ele><time>2026-03-22T13:17:40.01Z</time></trkpt><trkpt lat="43.4224683" lon="10.4183933"><ele>136.0</ele><time>2026-03-22T13:17:41.01Z</time></trkpt><trkpt lat="43.4225517" lon="10.418155"><ele>135.66666666666669</ele><time>2026-03-22T13:17:42.01Z</time></trkpt><trkpt lat="43.4226283" lon="10.4179117"><ele>135.33333333333334</ele><time>2026-03-22T13:17:43.01Z</time></trkpt><trkpt lat="43.4227033" lon="10.417665"><ele>135.0</ele><time>2026-03-22T13:17:44.01Z</time></trkpt><trkpt lat="43.42278" lon="10.4174183"><ele>135.0</ele><time>2026-03-22T13:17:45.01Z</time></trkpt><trkpt lat="43.4228583" lon="10.4171767"><ele>135.0</ele><time>2026-03-22T13:17:46.009Z</time></trkpt><trkpt lat="43.4229367" lon="10.4169367"><ele>135.0</ele><time>2026-03-22T13:17:47.012Z</time></trkpt><trkpt lat="43.4230117" lon="10.4166917"><ele>133.0</ele><time>2026-03-22T13:17:48.012Z</time></trkpt><trkpt lat="43.4230883" lon="10.4164433"><ele>131.0</ele><time>2026-03-22T13:17:49.011Z</time></trkpt><trkpt lat="43.423165" lon="10.4161917"><ele>129.0</ele><time>2026-03-22T13:17:50.011Z</time></trkpt><trkpt lat="43.4232417" lon="10.4159417"><ele>127.33333333333334</ele><time>2026-03-22T13:17:51.01Z</time></trkpt><trkpt lat="43.42332" lon="10.4156917"><ele>125.66666666666667</ele><time>2026-03-22T13:17:52.011Z</time></trkpt><trkpt lat="43.4234" lon="10.4154417"><ele>124.0</ele><time>2026-03-22T13:17:53.011Z</time></trkpt><trkpt lat="43.42348" lon="10.4151933"><ele>123.66666666666667</ele><time>2026-03-22T13:17:54.011Z</time></trkpt><trkpt lat="43.423565" lon="10.4149467"><ele>123.33333333333334</ele><time>2026-03-22T13:17:55.011Z</time></trkpt><trkpt lat="43.423655" lon="10.4147033"><ele>123.0</ele><time>2026-03-22T13:17:56.011Z</time></trkpt><trkpt lat="43.423745" lon="10.4144617"><ele>122.66666666666666</ele><time>2026-03-22T13:17:57.01Z</time></trkpt><trkpt lat="43.4238417" lon="10.4142217"><ele>122.33333333333333</ele><time>2026-03-22T13:17:58.011Z</time></trkpt><trkpt lat="43.4239367" lon="10.4139833"><ele>122.0</ele><time>2026-03-22T13:17:59.011Z</time></trkpt><trkpt lat="43.42403" lon="10.4137433"><ele>122.0</ele><time>2026-03-22T13:18:00.011Z</time></trkpt><trkpt lat="43.4241333" lon="10.41351"><ele>122.0</ele><time>2026-03-22T13:18:01.01Z</time></trkpt><trkpt lat="43.4242333" lon="10.4132733"><ele>122.0</ele><time>2026-03-22T13:18:02.01Z</time></trkpt><trkpt lat="43.4243333" lon="10.4130383"><ele>120.33333333333333</ele><time>2026-03-22T13:18:03.009Z</time></trkpt><trkpt lat="43.4244417" lon="10.4128067"><ele>118.66666666666666</ele><time>2026-03-22T13:18:04.01Z</time></trkpt><trkpt lat="43.4245517" lon="10.4125767"><ele>117.0</ele><time>2026-03-22T13:18:05.012Z</time></trkpt><trkpt lat="43.4246667" lon="10.41235"><ele>113.66666666666666</ele><time>2026-03-22T13:18:06.009Z</time></trkpt><trkpt lat="43.424785" lon="10.4121233"><ele>110.33333333333333</ele><time>2026-03-22T13:18:07.01Z</time></trkpt><trkpt lat="43.4249033" lon="10.4118983"><ele>107.0</ele><time>2026-03-22T13:18:08.011Z</time></trkpt><trkpt lat="43.4250267" lon="10.411675"><ele>107.0</ele><time>2026-03-22T13:18:09.011Z</time></trkpt><trkpt lat="43.425155" lon="10.4114533"><ele>107.0</ele><time>2026-03-22T13:18:10.011Z</time></trkpt><trkpt lat="43.425285" lon="10.4112383"><ele>107.0</ele><time>2026-03-22T13:18:11.01Z</time></trkpt><trkpt lat="43.4254217" lon="10.4110283"><ele>107.66666666666666</ele><time>2026-03-22T13:18:12.01Z</time></trkpt><trkpt lat="43.4255583" lon="10.4108183"><ele>108.33333333333334</ele><time>2026-03-22T13:18:13.01Z</time></trkpt><trkpt lat="43.4257017" lon="10.4106117"><ele>109.0</ele><time>2026-03-22T13:18:14.01Z</time></trkpt><trkpt lat="43.4258433" lon="10.4104033"><ele>106.66666666666667</ele><time>2026-03-22T13:18:15.01Z</time></trkpt><trkpt lat="43.4259867" lon="10.410195"><ele>104.33333333333334</ele><time>2026-03-22T13:18:16.01Z</time></trkpt><trkpt lat="43.4261333" lon="10.40999"><ele>102.0</ele><time>2026-03-22T13:18:17.011Z</time></trkpt><trkpt lat="43.4262817" lon="10.4097867"><ele>102.0</ele><time>2026-03-22T13:18:18.01Z</time></trkpt><trkpt lat="43.42644" lon="10.40959"><ele>102.0</ele><time>2026-03-22T13:18:19.01Z</time></trkpt><trkpt lat="43.4266" lon="10.4093967"><ele>102.0</ele><time>2026-03-22T13:18:20.01Z</time></trkpt><trkpt lat="43.4267617" lon="10.409205"><ele>102.0</ele><time>2026-03-22T13:18:21.011Z</time></trkpt><trkpt lat="43.4269267" lon="10.4090167"><ele>102.0</ele><time>2026-03-22T13:18:22.01Z</time></trkpt><trkpt lat="43.4270933" lon="10.40883"><ele>102.0</ele><time>2026-03-22T13:18:23.01Z</time></trkpt><trkpt lat="43.427255" lon="10.40865"><ele>99.33333333333333</ele><time>2026-03-22T13:18:24.011Z</time></trkpt><trkpt lat="43.4274167" lon="10.4084817"><ele>96.66666666666666</ele><time>2026-03-22T13:18:25.01Z</time></trkpt><trkpt lat="43.4275717" lon="10.4083183"><ele>94.0</ele><time>2026-03-22T13:18:26.01Z</time></trkpt><trkpt lat="43.42773" lon="10.4081533"><ele>92.0</ele><time>2026-03-22T13:18:27.01Z</time></trkpt><trkpt lat="43.427885" lon="10.4079933"><ele>90.0</ele><time>2026-03-22T13:18:28.01Z</time></trkpt><trkpt lat="43.42804" lon="10.4078317"><ele>88.0</ele><time>2026-03-22T13:18:29.011Z</time></trkpt><trkpt lat="43.428195" lon="10.4076717"><ele>86.0</ele><time>2026-03-22T13:18:30.01Z</time></trkpt><trkpt lat="43.4283517" lon="10.407515"><ele>84.0</ele><time>2026-03-22T13:18:31.01Z</time></trkpt><trkpt lat="43.42851" lon="10.4073567"><ele>82.0</ele><time>2026-03-22T13:18:32.011Z</time></trkpt><trkpt lat="43.42867" lon="10.4071983"><ele>81.33333333333333</ele><time>2026-03-22T13:18:33.01Z</time></trkpt><trkpt lat="43.4288267" lon="10.4070367"><ele>80.66666666666667</ele><time>2026-03-22T13:18:34.011Z</time></trkpt><trkpt lat="43.4289817" lon="10.406875"><ele>80.0</ele><time>2026-03-22T13:18:35.01Z</time></trkpt><trkpt lat="43.429135" lon="10.4067117"><ele>80.0</ele><time>2026-03-22T13:18:36.01Z</time></trkpt><trkpt lat="43.429285" lon="10.4065417"><ele>80.0</ele><time>2026-03-22T13:18:37.01Z</time></trkpt><trkpt lat="43.4294267" lon="10.4063583"><ele>80.0</ele><time>2026-03-22T13:18:38.011Z</time></trkpt><trkpt lat="43.4295583" lon="10.406165"><ele>77.0</ele><time>2026-03-22T13:18:39.011Z</time></trkpt><trkpt lat="43.4296817" lon="10.4059633"><ele>74.0</ele><time>2026-03-22T13:18:40.01Z</time></trkpt><trkpt lat="43.4297983" lon="10.4057517"><ele>71.0</ele><time>2026-03-22T13:18:41.012Z</time></trkpt><trkpt lat="43.4299083" lon="10.40553"><ele>68.66666666666667</ele><time>2026-03-22T13:18:42.01Z</time></trkpt><trkpt lat="43.43001" lon="10.4053017"><ele>66.33333333333333</ele><time>2026-03-22T13:18:43.011Z</time></trkpt><trkpt lat="43.430105" lon="10.4050617"><ele>64.0</ele><time>2026-03-22T13:18:44.011Z</time></trkpt><trkpt lat="43.4301883" lon="10.404815"><ele>63.0</ele><time>2026-03-22T13:18:45.01Z</time></trkpt><trkpt lat="43.430265" lon="10.4045633"><ele>62.0</ele><time>2026-03-22T13:18:46.01Z</time></trkpt><trkpt lat="43.43033" lon="10.404305"><ele>61.0</ele><time>2026-03-22T13:18:47.01Z</time></trkpt><trkpt lat="43.4303867" lon="10.4040417"><ele>58.0</ele><time>2026-03-22T13:18:48.011Z</time></trkpt><trkpt lat="43.4304317" lon="10.4037767"><ele>55.0</ele><time>2026-03-22T13:18:49.011Z</time></trkpt><trkpt lat="43.43047" lon="10.4035083"><ele>52.0</ele><time>2026-03-22T13:18:50.01Z</time></trkpt><trkpt lat="43.4304967" lon="10.4032333"><ele>50.666666666666664</ele><time>2026-03-22T13:18:51.01Z</time></trkpt><trkpt lat="43.4305133" lon="10.4029583"><ele>49.33333333333333</ele><time>2026-03-22T13:18:52.01Z</time></trkpt><trkpt lat="43.430525" lon="10.40268"><ele>48.0</ele><time>2026-03-22T13:18:53.011Z</time></trkpt><trkpt lat="43.4305317" lon="10.4024017"><ele>49.33333333333333</ele><time>2026-03-22T13:18:54.01Z</time></trkpt><trkpt lat="43.43053" lon="10.40212"><ele>50.666666666666664</ele><time>2026-03-22T13:18:55.01Z</time></trkpt><trkpt lat="43.4305283" lon="10.4018383"><ele>52.0</ele><time>2026-03-22T13:18:56.013Z</time></trkpt><trkpt lat="43.430525" lon="10.4015533"><ele>50.33333333333333</ele><time>2026-03-22T13:18:57.011Z</time></trkpt><trkpt lat="43.4305217" lon="10.4012683"><ele>48.666666666666664</ele><time>2026-03-22T13:18:58.01Z</time></trkpt><trkpt lat="43.4305183" lon="10.400985"><ele>47.0</ele><time>2026-03-22T13:18:59.011Z</time></trkpt><trkpt lat="43.4305183" lon="10.4006983"><ele>48.0</ele><time>2026-03-22T13:19:00.011Z</time></trkpt><trkpt lat="43.4305167" lon="10.4004133"><ele>49.0</ele><time>2026-03-22T13:19:01.01Z</time></trkpt><trkpt lat="43.430515" lon="10.4001317"><ele>50.0</ele><time>2026-03-22T13:19:02.009Z</time></trkpt><trkpt lat="43.4305117" lon="10.399855"><ele>49.66666666666667</ele><time>2026-03-22T13:19:03.01Z</time></trkpt><trkpt lat="43.4305083" lon="10.399575"><ele>49.33333333333333</ele><time>2026-03-22T13:19:04.011Z</time></trkpt><trkpt lat="43.4305067" lon="10.3992983"><ele>49.0</ele><time>2026-03-22T13:19:05.011Z</time></trkpt><trkpt lat="43.43051" lon="10.3990167"><ele>48.0</ele><time>2026-03-22T13:19:06.01Z</time></trkpt><trkpt lat="43.4305117" lon="10.3987383"><ele>47.0</ele><time>2026-03-22T13:19:07.011Z</time></trkpt><trkpt lat="43.43052" lon="10.3984583"><ele>46.0</ele><time>2026-03-22T13:19:08.01Z</time></trkpt><trkpt lat="43.430535" lon="10.3981817"><ele>45.333333333333336</ele><time>2026-03-22T13:19:09.01Z</time></trkpt><trkpt lat="43.4305617" lon="10.3979017"><ele>44.666666666666664</ele><time>2026-03-22T13:19:10.008Z</time></trkpt><trkpt lat="43.4305933" lon="10.3976283"><ele>44.0</ele><time>2026-03-22T13:19:11.01Z</time></trkpt><trkpt lat="43.4306367" lon="10.3973517"><ele>43.33333333333333</ele><time>2026-03-22T13:19:12.01Z</time></trkpt><trkpt lat="43.4306767" lon="10.39708"><ele>42.666666666666664</ele><time>2026-03-22T13:19:13.01Z</time></trkpt><trkpt lat="43.4307267" lon="10.3968117"><ele>42.0</ele><time>2026-03-22T13:19:14.011Z</time></trkpt><trkpt lat="43.4307817" lon="10.3965467"><ele>41.0</ele><time>2026-03-22T13:19:15.01Z</time></trkpt><trkpt lat="43.43084" lon="10.3962817"><ele>40.0</ele><time>2026-03-22T13:19:16.011Z</time></trkpt><trkpt lat="43.4309033" lon="10.3960233"><ele>39.0</ele><time>2026-03-22T13:19:17.01Z</time></trkpt><trkpt lat="43.4309733" lon="10.3957717"><ele>39.0</ele><time>2026-03-22T13:19:18.01Z</time></trkpt><trkpt lat="43.4310433" lon="10.3955217"><ele>39.0</ele><time>2026-03-22T13:19:19.01Z</time></trkpt><trkpt lat="43.4311233" lon="10.395275"><ele>39.0</ele><time>2026-03-22T13:19:20.01Z</time></trkpt><trkpt lat="43.4312117" lon="10.395035"><ele>36.0</ele><time>2026-03-22T13:19:21.01Z</time></trkpt><trkpt lat="43.4313017" lon="10.3947983"><ele>33.0</ele><time>2026-03-22T13:19:22.01Z</time></trkpt><trkpt lat="43.4314" lon="10.394565"><ele>30.0</ele><time>2026-03-22T13:19:23.01Z</time></trkpt><trkpt lat="43.4315017" lon="10.394335"><ele>27.333333333333332</ele><time>2026-03-22T13:19:24.01Z</time></trkpt><trkpt lat="43.4316117" lon="10.3941067"><ele>24.666666666666664</ele><time>2026-03-22T13:19:25.01Z</time></trkpt><trkpt lat="43.4317267" lon="10.39388"><ele>22.0</ele><time>2026-03-22T13:19:26.01Z</time></trkpt><trkpt lat="43.4318467" lon="10.393655"><ele>22.0</ele><time>2026-03-22T13:19:27.011Z</time></trkpt><trkpt lat="43.4319717" lon="10.3934333"><ele>22.0</ele><time>2026-03-22T13:19:28.01Z</time></trkpt><trkpt lat="43.432105" lon="10.393215"><ele>22.0</ele><time>2026-03-22T13:19:29.011Z</time></trkpt><trkpt lat="43.4322483" lon="10.3930017"><ele>26.0</ele><time>2026-03-22T13:19:30.011Z</time></trkpt><trkpt lat="43.432395" lon="10.3927917"><ele>30.0</ele><time>2026-03-22T13:19:31.01Z</time></trkpt><trkpt lat="43.4325467" lon="10.3925867"><ele>34.0</ele><time>2026-03-22T13:19:32.009Z</time></trkpt><trkpt lat="43.4327017" lon="10.3923833"><ele>34.0</ele><time>2026-03-22T13:19:33.009Z</time></trkpt><trkpt lat="43.4328633" lon="10.3921883"><ele>34.0</ele><time>2026-03-22T13:19:34.01Z</time></trkpt><trkpt lat="43.4330283" lon="10.392"><ele>34.0</ele><time>2026-03-22T13:19:35.01Z</time></trkpt><trkpt lat="43.433195" lon="10.3918283"><ele>34.333333333333336</ele><time>2026-03-22T13:19:36.01Z</time></trkpt><trkpt lat="43.433365" lon="10.3916633"><ele>34.666666666666664</ele><time>2026-03-22T13:19:37.011Z</time></trkpt><trkpt lat="43.4335383" lon="10.3915117"><ele>35.0</ele><time>2026-03-22T13:19:38.01Z</time></trkpt><trkpt lat="43.4337133" lon="10.391365"><ele>35.0</ele><time>2026-03-22T13:19:39.01Z</time></trkpt><trkpt lat="43.4338883" lon="10.3912283"><ele>35.0</ele><time>2026-03-22T13:19:40.01Z</time></trkpt><trkpt lat="43.434065" lon="10.3911"><ele>35.0</ele><time>2026-03-22T13:19:41.01Z</time></trkpt><trkpt lat="43.4342433" lon="10.3909767"><ele>35.0</ele><time>2026-03-22T13:19:42.01Z</time></trkpt><trkpt lat="43.43442" lon="10.3908567"><ele>35.0</ele><time>2026-03-22T13:19:43.01Z</time></trkpt><trkpt lat="43.4345967" lon="10.39074"><ele>35.0</ele><time>2026-03-22T13:19:44.011Z</time></trkpt><trkpt lat="43.434775" lon="10.390625"><ele>34.0</ele><time>2026-03-22T13:19:45.01Z</time></trkpt><trkpt lat="43.434955" lon="10.3905117"><ele>33.0</ele><time>2026-03-22T13:19:46.01Z</time></trkpt><trkpt lat="43.435135" lon="10.3904083"><ele>32.0</ele><time>2026-03-22T13:19:47.011Z</time></trkpt><trkpt lat="43.435315" lon="10.390305"><ele>33.33333333333333</ele><time>2026-03-22T13:19:48.013Z</time></trkpt><trkpt lat="43.4354933" lon="10.3901967"><ele>34.666666666666664</ele><time>2026-03-22T13:19:49.01Z</time></trkpt><trkpt lat="43.4356733" lon="10.39009"><ele>36.0</ele><time>2026-03-22T13:19:50.012Z</time></trkpt><trkpt lat="43.4358517" lon="10.3899833"><ele>36.0</ele><time>2026-03-22T13:19:51.01Z</time></trkpt><trkpt lat="43.4360283" lon="10.389875"><ele>36.0</ele><time>2026-03-22T13:19:52.01Z</time></trkpt><trkpt lat="43.4362067" lon="10.3897733"><ele>36.0</ele><time>2026-03-22T13:19:53.01Z</time></trkpt><trkpt lat="43.436385" lon="10.389675"><ele>32.333333333333336</ele><time>2026-03-22T13:19:54.011Z</time></trkpt><trkpt lat="43.4365567" lon="10.3895633"><ele>28.666666666666668</ele><time>2026-03-22T13:19:55.011Z</time></trkpt><trkpt lat="43.4367317" lon="10.38945"><ele>25.0</ele><time>2026-03-22T13:19:56.011Z</time></trkpt><trkpt lat="43.4369033" lon="10.389335"><ele>25.0</ele><time>2026-03-22T13:19:57.01Z</time></trkpt><trkpt lat="43.4370767" lon="10.38922"><ele>25.0</ele><time>2026-03-22T13:19:58.01Z</time></trkpt><trkpt lat="43.437255" lon="10.3891133"><ele>25.0</ele><time>2026-03-22T13:19:59.01Z</time></trkpt><trkpt lat="43.4374333" lon="10.38901"><ele>26.0</ele><time>2026-03-22T13:20:00.01Z</time></trkpt><trkpt lat="43.4376067" lon="10.3889017"><ele>27.0</ele><time>2026-03-22T13:20:01.011Z</time></trkpt><trkpt lat="43.43778" lon="10.388795"><ele>28.0</ele><time>2026-03-22T13:20:02.011Z</time></trkpt><trkpt lat="43.4379517" lon="10.3886867"><ele>26.666666666666668</ele><time>2026-03-22T13:20:03.011Z</time></trkpt><trkpt lat="43.4381217" lon="10.3885733"><ele>25.333333333333336</ele><time>2026-03-22T13:20:04.01Z</time></trkpt><trkpt lat="43.4382933" lon="10.38846"><ele>24.0</ele><time>2026-03-22T13:20:05.01Z</time></trkpt><trkpt lat="43.4384567" lon="10.3883367"><ele>24.0</ele><time>2026-03-22T13:20:06.01Z</time></trkpt><trkpt lat="43.4386233" lon="10.388225"><ele>24.0</ele><time>2026-03-22T13:20:07.01Z</time></trkpt><trkpt lat="43.43879" lon="10.3881133"><ele>24.0</ele><time>2026-03-22T13:20:08.011Z</time></trkpt><trkpt lat="43.4389567" lon="10.388005"><ele>22.333333333333332</ele><time>2026-03-22T13:20:09.01Z</time></trkpt><trkpt lat="43.43912" lon="10.3878967"><ele>20.666666666666664</ele><time>2026-03-22T13:20:10.01Z</time></trkpt><trkpt lat="43.4392817" lon="10.387785"><ele>19.0</ele><time>2026-03-22T13:20:11.011Z</time></trkpt><trkpt lat="43.4394417" lon="10.3876717"><ele>19.0</ele><time>2026-03-22T13:20:12.01Z</time></trkpt><trkpt lat="43.4396017" lon="10.3875633"><ele>19.0</ele><time>2026-03-22T13:20:13.011Z</time></trkpt><trkpt lat="43.43976" lon="10.38745"><ele>19.0</ele><time>2026-03-22T13:20:14.01Z</time></trkpt><trkpt lat="43.439915" lon="10.3873367"><ele>19.333333333333332</ele><time>2026-03-22T13:20:15.011Z</time></trkpt><trkpt lat="43.44007" lon="10.3872233"><ele>19.666666666666668</ele><time>2026-03-22T13:20:16.011Z</time></trkpt><trkpt lat="43.4402217" lon="10.3871117"><ele>20.0</ele><time>2026-03-22T13:20:17.011Z</time></trkpt><trkpt lat="43.4403733" lon="10.387"><ele>20.0</ele><time>2026-03-22T13:20:18.01Z</time></trkpt><trkpt lat="43.4405233" lon="10.38689"><ele>20.0</ele><time>2026-03-22T13:20:19.012Z</time></trkpt><trkpt lat="43.44067" lon="10.3867767"><ele>20.0</ele><time>2026-03-22T13:20:20.01Z</time></trkpt><trkpt lat="43.4408133" lon="10.3866667"><ele>20.0</ele><time>2026-03-22T13:20:21.01Z</time></trkpt><trkpt lat="43.4409517" lon="10.3865617"><ele>20.0</ele><time>2026-03-22T13:20:22.012Z</time></trkpt><trkpt lat="43.4410883" lon="10.3864567"><ele>20.0</ele><time>2026-03-22T13:20:23.012Z</time></trkpt><trkpt lat="43.4412283" lon="10.3863583"><ele>20.666666666666668</ele><time>2026-03-22T13:20:24.011Z</time></trkpt><trkpt lat="43.441365" lon="10.3862617"><ele>21.333333333333332</ele><time>2026-03-22T13:20:25.01Z</time></trkpt><trkpt lat="43.4415033" lon="10.3861683"><ele>22.0</ele><time>2026-03-22T13:20:26.011Z</time></trkpt><trkpt lat="43.4416433" lon="10.3860733"><ele>22.0</ele><time>2026-03-22T13:20:27.011Z</time></trkpt><trkpt lat="43.44178" lon="10.3859717"><ele>22.0</ele><time>2026-03-22T13:20:28.011Z</time></trkpt><trkpt lat="43.4419133" lon="10.3858633"><ele>22.0</ele><time>2026-03-22T13:20:29.011Z</time></trkpt><trkpt lat="43.4420517" lon="10.38576"><ele>22.666666666666664</ele><time>2026-03-22T13:20:30.01Z</time></trkpt><trkpt lat="43.44219" lon="10.385665"><ele>23.333333333333332</ele><time>2026-03-22T13:20:31.011Z</time></trkpt><trkpt lat="43.4423333" lon="10.3855717"><ele>24.0</ele><time>2026-03-22T13:20:32.011Z</time></trkpt><trkpt lat="43.4424683" lon="10.3854767"><ele>24.0</ele><time>2026-03-22T13:20:33.011Z</time></trkpt><trkpt lat="43.4426" lon="10.3853783"><ele>24.0</ele><time>2026-03-22T13:20:34.01Z</time></trkpt><trkpt lat="43.4427367" lon="10.38528"><ele>24.0</ele><time>2026-03-22T13:20:35.011Z</time></trkpt><trkpt lat="43.4428783" lon="10.3851817"><ele>25.333333333333336</ele><time>2026-03-22T13:20:36.011Z</time></trkpt><trkpt lat="43.443025" lon="10.38508"><ele>26.666666666666668</ele><time>2026-03-22T13:20:37.013Z</time></trkpt><trkpt lat="43.4431717" lon="10.3849683"><ele>28.0</ele><time>2026-03-22T13:20:38.01Z</time></trkpt><trkpt lat="43.4433233" lon="10.3848567"><ele>28.0</ele><time>2026-03-22T13:20:39.01Z</time></trkpt><trkpt lat="43.4434783" lon="10.384745"><ele>28.0</ele><time>2026-03-22T13:20:40.011Z</time></trkpt><trkpt lat="43.4436333" lon="10.3846283"><ele>28.0</ele><time>2026-03-22T13:20:41.011Z</time></trkpt><trkpt lat="43.4437933" lon="10.384515"><ele>28.0</ele><time>2026-03-22T13:20:42.01Z</time></trkpt><trkpt lat="43.443955" lon="10.3843983"><ele>28.0</ele><time>2026-03-22T13:20:43.011Z</time></trkpt><trkpt lat="43.4441183" lon="10.38428"><ele>28.0</ele><time>2026-03-22T13:20:44.01Z</time></trkpt><trkpt lat="43.444285" lon="10.3841567"><ele>28.0</ele><time>2026-03-22T13:20:45.011Z</time></trkpt><trkpt lat="43.444455" lon="10.3840383"><ele>28.0</ele><time>2026-03-22T13:20:46.011Z</time></trkpt><trkpt lat="43.444625" lon="10.3839183"><ele>28.0</ele><time>2026-03-22T13:20:47.011Z</time></trkpt><trkpt lat="43.4447917" lon="10.383795"><ele>27.0</ele><time>2026-03-22T13:20:48.011Z</time></trkpt><trkpt lat="43.4449633" lon="10.38367"><ele>26.0</ele><time>2026-03-22T13:20:49.01Z</time></trkpt><trkpt lat="43.4451383" lon="10.3835517"><ele>25.0</ele><time>2026-03-22T13:20:50.011Z</time></trkpt><trkpt lat="43.4453067" lon="10.3834267"><ele>27.333333333333336</ele><time>2026-03-22T13:20:51.009Z</time></trkpt><trkpt lat="43.445475" lon="10.3833033"><ele>29.666666666666664</ele><time>2026-03-22T13:20:52.011Z</time></trkpt><trkpt lat="43.4456417" lon="10.3831783"><ele>32.0</ele><time>2026-03-22T13:20:53.01Z</time></trkpt><trkpt lat="43.4458083" lon="10.383055"><ele>30.0</ele><time>2026-03-22T13:20:54.011Z</time></trkpt><trkpt lat="43.4459783" lon="10.382935"><ele>28.0</ele><time>2026-03-22T13:20:55.011Z</time></trkpt><trkpt lat="43.4461433" lon="10.38281"><ele>26.0</ele><time>2026-03-22T13:20:56.012Z</time></trkpt><trkpt lat="43.446305" lon="10.382685"><ele>26.0</ele><time>2026-03-22T13:20:57.01Z</time></trkpt><trkpt lat="43.4464633" lon="10.3825533"><ele>26.0</ele><time>2026-03-22T13:20:58.011Z</time></trkpt><trkpt lat="43.4466167" lon="10.3824217"><ele>26.0</ele><time>2026-03-22T13:20:59.01Z</time></trkpt><trkpt lat="43.4467683" lon="10.3822917"><ele>24.666666666666664</ele><time>2026-03-22T13:21:00.011Z</time></trkpt><trkpt lat="43.4469133" lon="10.3821683"><ele>23.333333333333332</ele><time>2026-03-22T13:21:01.01Z</time></trkpt><trkpt lat="43.4470483" lon="10.3820483"><ele>22.0</ele><time>2026-03-22T13:21:02.01Z</time></trkpt><trkpt lat="43.4471767" lon="10.381935"><ele>22.0</ele><time>2026-03-22T13:21:03.011Z</time></trkpt><trkpt lat="43.4472983" lon="10.3818267"><ele>22.0</ele><time>2026-03-22T13:21:04.012Z</time></trkpt><trkpt lat="43.4474117" lon="10.3817233"><ele>22.0</ele><time>2026-03-22T13:21:05.01Z</time></trkpt><trkpt lat="43.4475183" lon="10.38163"><ele>22.0</ele><time>2026-03-22T13:21:06.011Z</time></trkpt><trkpt lat="43.4476217" lon="10.38155"><ele>22.0</ele><time>2026-03-22T13:21:07.01Z</time></trkpt><trkpt lat="43.4477283" lon="10.3814817"><ele>22.0</ele><time>2026-03-22T13:21:08.011Z</time></trkpt><trkpt lat="43.4478267" lon="10.38142"><ele>22.0</ele><time>2026-03-22T13:21:09.01Z</time></trkpt><trkpt lat="43.4479117" lon="10.3813833"><ele>22.0</ele><time>2026-03-22T13:21:10.01Z</time></trkpt><trkpt lat="43.4479833" lon="10.3813667"><ele>22.0</ele><time>2026-03-22T13:21:11.01Z</time></trkpt><trkpt lat="43.4481017" lon="10.38139"><ele>21.8</ele><time>2026-03-22T13:21:13.011Z</time></trkpt><trkpt lat="43.4481583" lon="10.3814633"><ele>21.6</ele><time>2026-03-22T13:21:14.011Z</time></trkpt><trkpt lat="43.4482183" lon="10.38155"><ele>21.400000000000002</ele><time>2026-03-22T13:21:15.01Z</time></trkpt><trkpt lat="43.448285" lon="10.3816467"><ele>21.200000000000003</ele><time>2026-03-22T13:21:16.01Z</time></trkpt><trkpt lat="43.4483567" lon="10.3817333"><ele>21.0</ele><time>2026-03-22T13:21:17.011Z</time></trkpt><trkpt lat="43.448445" lon="10.3818283"><ele>21.0</ele><time>2026-03-22T13:21:18.01Z</time></trkpt><trkpt lat="43.4485417" lon="10.3819083"><ele>21.0</ele><time>2026-03-22T13:21:19.011Z</time></trkpt><trkpt lat="43.4486383" lon="10.3819783"><ele>21.0</ele><time>2026-03-22T13:21:20.012Z</time></trkpt><trkpt lat="43.44876" lon="10.3820433"><ele>21.0</ele><time>2026-03-22T13:21:21.011Z</time></trkpt><trkpt lat="43.4488833" lon="10.3821"><ele>21.0</ele><time>2026-03-22T13:21:22.01Z</time></trkpt><trkpt lat="43.4490067" lon="10.3821433"><ele>21.0</ele><time>2026-03-22T13:21:23.01Z</time></trkpt><trkpt lat="43.4491183" lon="10.3821867"><ele>21.0</ele><time>2026-03-22T13:21:24.011Z</time></trkpt><trkpt lat="43.4492267" lon="10.3822267"><ele>21.0</ele><time>2026-03-22T13:21:25.011Z</time></trkpt><trkpt lat="43.4493217" lon="10.38228"><ele>22.8</ele><time>2026-03-22T13:21:26.011Z</time></trkpt><trkpt lat="43.4494183" lon="10.3823417"><ele>24.6</ele><time>2026-03-22T13:21:27.011Z</time></trkpt><trkpt lat="43.4495" lon="10.3824383"><ele>26.4</ele><time>2026-03-22T13:21:28.011Z</time></trkpt><trkpt lat="43.4495583" lon="10.3825483"><ele>28.2</ele><time>2026-03-22T13:21:29.01Z</time></trkpt><trkpt lat="43.4495767" lon="10.3826767"><ele>30.0</ele><time>2026-03-22T13:21:30.01Z</time></trkpt><trkpt lat="43.4495783" lon="10.3828083"><ele>30.0</ele><time>2026-03-22T13:21:31.009Z</time></trkpt><trkpt lat="43.4495517" lon="10.3829817"><ele>30.0</ele><time>2026-03-22T13:21:32.01Z</time></trkpt><trkpt lat="43.44953" lon="10.3831717"><ele>30.0</ele><time>2026-03-22T13:21:33.01Z</time></trkpt><trkpt lat="43.44951" lon="10.3833683"><ele>30.0</ele><time>2026-03-22T13:21:34.011Z</time></trkpt><trkpt lat="43.4494983" lon="10.3835633"><ele>31.75</ele><time>2026-03-22T13:21:35.01Z</time></trkpt><trkpt lat="43.449505" lon="10.3837517"><ele>33.5</ele><time>2026-03-22T13:21:36.011Z</time></trkpt><trkpt lat="43.44951" lon="10.3839383"><ele>35.25</ele><time>2026-03-22T13:21:37.01Z</time></trkpt><trkpt lat="43.44952" lon="10.3841067"><ele>37.0</ele><time>2026-03-22T13:21:38.011Z</time></trkpt><trkpt lat="43.4495483" lon="10.3842533"><ele>36.25</ele><time>2026-03-22T13:21:39.01Z</time></trkpt><trkpt lat="43.4496067" lon="10.3843833"><ele>35.5</ele><time>2026-03-22T13:21:40.009Z</time></trkpt><trkpt lat="43.4496967" lon="10.3844933"><ele>34.75</ele><time>2026-03-22T13:21:41.01Z</time></trkpt><trkpt lat="43.449795" lon="10.3845867"><ele>34.0</ele><time>2026-03-22T13:21:42.011Z</time></trkpt><trkpt lat="43.4499133" lon="10.384645"><ele>34.0</ele><time>2026-03-22T13:21:43.009Z</time></trkpt><trkpt lat="43.4500483" lon="10.3846683"><ele>34.0</ele><time>2026-03-22T13:21:44.011Z</time></trkpt><trkpt lat="43.450175" lon="10.3846733"><ele>34.0</ele><time>2026-03-22T13:21:45.01Z</time></trkpt><trkpt lat="43.45029" lon="10.3846783"><ele>34.0</ele><time>2026-03-22T13:21:46.01Z</time></trkpt><trkpt lat="43.4503767" lon="10.38474"><ele>34.8</ele><time>2026-03-22T13:21:47.011Z</time></trkpt><trkpt lat="43.4504517" lon="10.384855"><ele>35.599999999999994</ele><time>2026-03-22T13:21:48.01Z</time></trkpt><trkpt lat="43.4505017" lon="10.3849733"><ele>36.4</ele><time>2026-03-22T13:21:49.011Z</time></trkpt><trkpt lat="43.4505383" lon="10.3851167"><ele>37.199999999999996</ele><time>2026-03-22T13:21:50.012Z</time></trkpt><trkpt lat="43.4505917" lon="10.38526"><ele>38.0</ele><time>2026-03-22T13:21:51.009Z</time></trkpt><trkpt lat="43.4506783" lon="10.3853817"><ele>38.0</ele><time>2026-03-22T13:21:52.011Z</time></trkpt><trkpt lat="43.4507967" lon="10.385475"><ele>38.0</ele><time>2026-03-22T13:21:53.011Z</time></trkpt><trkpt lat="43.45093" lon="10.3855567"><ele>38.0</ele><time>2026-03-22T13:21:54.011Z</time></trkpt><trkpt lat="43.4510717" lon="10.38559"><ele>38.0</ele><time>2026-03-22T13:21:55.01Z</time></trkpt><trkpt lat="43.4511983" lon="10.3856183"><ele>39.0</ele><time>2026-03-22T13:21:56.01Z</time></trkpt><trkpt lat="43.4512983" lon="10.3856883"><ele>40.0</ele><time>2026-03-22T13:21:57.011Z</time></trkpt><trkpt lat="43.4513617" lon="10.3858067"><ele>41.0</ele><time>2026-03-22T13:21:58.01Z</time></trkpt><trkpt lat="43.45138" lon="10.38594"><ele>42.0</ele><time>2026-03-22T13:21:59.009Z</time></trkpt><trkpt lat="43.4513567" lon="10.386085"><ele>43.0</ele><time>2026-03-22T13:22:00.011Z</time></trkpt><trkpt lat="43.4513133" lon="10.3862533"><ele>45.5</ele><time>2026-03-22T13:22:01.011Z</time></trkpt><trkpt lat="43.4512733" lon="10.3864333"><ele>48.0</ele><time>2026-03-22T13:22:02.011Z</time></trkpt><trkpt lat="43.45126" lon="10.3866233"><ele>50.5</ele><time>2026-03-22T13:22:03.01Z</time></trkpt><trkpt lat="43.4512967" lon="10.38681"><ele>53.0</ele><time>2026-03-22T13:22:04.01Z</time></trkpt><trkpt lat="43.451365" lon="10.3869983"><ele>56.0</ele><time>2026-03-22T13:22:05.011Z</time></trkpt><trkpt lat="43.4514533" lon="10.3871817"><ele>59.0</ele><time>2026-03-22T13:22:06.011Z</time></trkpt><trkpt lat="43.4515667" lon="10.3873533"><ele>62.0</ele><time>2026-03-22T13:22:07.01Z</time></trkpt><trkpt lat="43.451695" lon="10.387515"><ele>62.0</ele><time>2026-03-22T13:22:08.012Z</time></trkpt><trkpt lat="43.4518183" lon="10.3876867"><ele>62.0</ele><time>2026-03-22T13:22:09.01Z</time></trkpt><trkpt lat="43.451945" lon="10.3878483"><ele>62.0</ele><time>2026-03-22T13:22:10.01Z</time></trkpt><trkpt lat="43.4520833" lon="10.3879917"><ele>63.66666666666667</ele><time>2026-03-22T13:22:11.009Z</time></trkpt><trkpt lat="43.45223" lon="10.3881067"><ele>65.33333333333333</ele><time>2026-03-22T13:22:12.011Z</time></trkpt><trkpt lat="43.4524017" lon="10.388175"><ele>67.0</ele><time>2026-03-22T13:22:13.011Z</time></trkpt><trkpt lat="43.452595" lon="10.3882167"><ele>67.0</ele><time>2026-03-22T13:22:14.01Z</time></trkpt><trkpt lat="43.4527733" lon="10.3882633"><ele>67.0</ele><time>2026-03-22T13:22:15.01Z</time></trkpt><trkpt lat="43.4529417" lon="10.388305"><ele>67.0</ele><time>2026-03-22T13:22:16.011Z</time></trkpt><trkpt lat="43.453105" lon="10.3883333"><ele>66.5</ele><time>2026-03-22T13:22:17.011Z</time></trkpt><trkpt lat="43.453245" lon="10.38835"><ele>66.0</ele><time>2026-03-22T13:22:18.012Z</time></trkpt><trkpt lat="43.45336" lon="10.38839"><ele>65.5</ele><time>2026-03-22T13:22:19.011Z</time></trkpt><trkpt lat="43.4534483" lon="10.3884617"><ele>65.0</ele><time>2026-03-22T13:22:20.012Z</time></trkpt><trkpt lat="43.4535133" lon="10.3885717"><ele>65.0</ele><time>2026-03-22T13:22:21.011Z</time></trkpt><trkpt lat="43.4535567" lon="10.3887283"><ele>65.0</ele><time>2026-03-22T13:22:22.01Z</time></trkpt><trkpt lat="43.453565" lon="10.388915"><ele>65.0</ele><time>2026-03-22T13:22:23.011Z</time></trkpt><trkpt lat="43.4535367" lon="10.3891217"><ele>65.0</ele><time>2026-03-22T13:22:24.01Z</time></trkpt><trkpt lat="43.4534983" lon="10.3893433"><ele>68.66666666666667</ele><time>2026-03-22T13:22:25.011Z</time></trkpt><trkpt lat="43.45346" lon="10.389595"><ele>72.33333333333333</ele><time>2026-03-22T13:22:26.012Z</time></trkpt><trkpt lat="43.45343" lon="10.3898583"><ele>76.0</ele><time>2026-03-22T13:22:27.011Z</time></trkpt><trkpt lat="43.4534183" lon="10.3901267"><ele>77.0</ele><time>2026-03-22T13:22:28.01Z</time></trkpt><trkpt lat="43.4534233" lon="10.3903883"><ele>78.0</ele><time>2026-03-22T13:22:29.011Z</time></trkpt><trkpt lat="43.4534267" lon="10.3906267"><ele>79.0</ele><time>2026-03-22T13:22:30.011Z</time></trkpt><trkpt lat="43.45343" lon="10.3908383"><ele>79.0</ele><time>2026-03-22T13:22:31.009Z</time></trkpt><trkpt lat="43.453435" lon="10.391015"><ele>79.0</ele><time>2026-03-22T13:22:32.011Z</time></trkpt><trkpt lat="43.4534183" lon="10.3911567"><ele>79.0</ele><time>2026-03-22T13:22:33.01Z</time></trkpt><trkpt lat="43.453375" lon="10.39126"><ele>79.0</ele><time>2026-03-22T13:22:34.011Z</time></trkpt><trkpt lat="43.4533183" lon="10.391335"><ele>79.0</ele><time>2026-03-22T13:22:35.01Z</time></trkpt><trkpt lat="43.453255" lon="10.3913783"><ele>79.0</ele><time>2026-03-22T13:22:36.01Z</time></trkpt><trkpt lat="43.4531617" lon="10.391345"><ele>79.0</ele><time>2026-03-22T13:22:37.01Z</time></trkpt><trkpt lat="43.45306" lon="10.3912667"><ele>79.0</ele><time>2026-03-22T13:22:38.012Z</time></trkpt><trkpt lat="43.4529583" lon="10.3912033"><ele>79.0</ele><time>2026-03-22T13:22:39.011Z</time></trkpt><trkpt lat="43.45283" lon="10.39112"><ele>81.5</ele><time>2026-03-22T13:22:40.011Z</time></trkpt><trkpt lat="43.4526967" lon="10.391015"><ele>84.0</ele><time>2026-03-22T13:22:41.011Z</time></trkpt><trkpt lat="43.4525733" lon="10.3908983"><ele>86.5</ele><time>2026-03-22T13:22:42.01Z</time></trkpt><trkpt lat="43.452475" lon="10.3907567"><ele>89.0</ele><time>2026-03-22T13:22:43.009Z</time></trkpt><trkpt lat="43.452385" lon="10.3906017"><ele>88.0</ele><time>2026-03-22T13:22:44.012Z</time></trkpt><trkpt lat="43.4523033" lon="10.3904583"><ele>87.0</ele><time>2026-03-22T13:22:45.012Z</time></trkpt><trkpt lat="43.452225" lon="10.3903417"><ele>86.0</ele><time>2026-03-22T13:22:46.012Z</time></trkpt><trkpt lat="43.4521283" lon="10.3902633"><ele>85.0</ele><time>2026-03-22T13:22:47.012Z</time></trkpt><trkpt lat="43.452" lon="10.3902283"><ele>88.0</ele><time>2026-03-22T13:22:48.011Z</time></trkpt><trkpt lat="43.4518483" lon="10.3902433"><ele>91.0</ele><time>2026-03-22T13:22:49.012Z</time></trkpt><trkpt lat="43.4516483" lon="10.390295"><ele>94.0</ele><time>2026-03-22T13:22:50.012Z</time></trkpt><trkpt lat="43.451455" lon="10.3903267"><ele>95.33333333333333</ele><time>2026-03-22T13:22:51.011Z</time></trkpt><trkpt lat="43.4512667" lon="10.390355"><ele>96.66666666666666</ele><time>2026-03-22T13:22:52.01Z</time></trkpt><trkpt lat="43.4510983" lon="10.390375"><ele>98.0</ele><time>2026-03-22T13:22:53.012Z</time></trkpt><trkpt lat="43.4509433" lon="10.3903833"><ele>98.0</ele><time>2026-03-22T13:22:54.012Z</time></trkpt><trkpt lat="43.4508017" lon="10.3903783"><ele>98.0</ele><time>2026-03-22T13:22:55.011Z</time></trkpt><trkpt lat="43.4506817" lon="10.3903417"><ele>98.0</ele><time>2026-03-22T13:22:56.011Z</time></trkpt><trkpt lat="43.4505767" lon="10.3902617"><ele>98.0</ele><time>2026-03-22T13:22:57.01Z</time></trkpt><trkpt lat="43.45048" lon="10.3901433"><ele>98.25</ele><time>2026-03-22T13:22:58.01Z</time></trkpt><trkpt lat="43.450385" lon="10.3899917"><ele>98.5</ele><time>2026-03-22T13:22:59.011Z</time></trkpt><trkpt lat="43.4502883" lon="10.389835"><ele>98.75</ele><time>2026-03-22T13:23:00.011Z</time></trkpt><trkpt lat="43.45018" lon="10.3896933"><ele>99.0</ele><time>2026-03-22T13:23:01.011Z</time></trkpt><trkpt lat="43.4500567" lon="10.3895933"><ele>99.0</ele><time>2026-03-22T13:23:02.01Z</time></trkpt><trkpt lat="43.4499183" lon="10.3895083"><ele>99.0</ele><time>2026-03-22T13:23:03.011Z</time></trkpt><trkpt lat="43.4497617" lon="10.389455"><ele>99.0</ele><time>2026-03-22T13:23:04.009Z</time></trkpt><trkpt lat="43.4495967" lon="10.389425"><ele>102.0</ele><time>2026-03-22T13:23:05.011Z</time></trkpt><trkpt lat="43.4494183" lon="10.3894"><ele>105.0</ele><time>2026-03-22T13:23:06.011Z</time></trkpt><trkpt lat="43.4492467" lon="10.38937"><ele>108.0</ele><time>2026-03-22T13:23:07.01Z</time></trkpt><trkpt lat="43.44908" lon="10.38934"><ele>108.0</ele><time>2026-03-22T13:23:08.013Z</time></trkpt><trkpt lat="43.4489283" lon="10.389315"><ele>108.0</ele><time>2026-03-22T13:23:09.011Z</time></trkpt><trkpt lat="43.4487967" lon="10.3893133"><ele>108.0</ele><time>2026-03-22T13:23:10.01Z</time></trkpt><trkpt lat="43.448675" lon="10.3893383"><ele>108.0</ele><time>2026-03-22T13:23:11.01Z</time></trkpt><trkpt lat="43.448555" lon="10.38941"><ele>108.25</ele><time>2026-03-22T13:23:12.011Z</time></trkpt><trkpt lat="43.44847" lon="10.3895217"><ele>108.5</ele><time>2026-03-22T13:23:13.011Z</time></trkpt><trkpt lat="43.4484017" lon="10.38967"><ele>108.75</ele><time>2026-03-22T13:23:14.012Z</time></trkpt><trkpt lat="43.448355" lon="10.3898433"><ele>109.0</ele><time>2026-03-22T13:23:15.01Z</time></trkpt><trkpt lat="43.4483433" lon="10.39005"><ele>111.33333333333334</ele><time>2026-03-22T13:23:16.011Z</time></trkpt><trkpt lat="43.4483517" lon="10.39027"><ele>113.66666666666666</ele><time>2026-03-22T13:23:17.011Z</time></trkpt><trkpt lat="43.4483683" lon="10.3905017"><ele>116.0</ele><time>2026-03-22T13:23:18.01Z</time></trkpt><trkpt lat="43.4484083" lon="10.3907367"><ele>117.33333333333333</ele><time>2026-03-22T13:23:19.009Z</time></trkpt><trkpt lat="43.44843" lon="10.3909817"><ele>118.66666666666666</ele><time>2026-03-22T13:23:20.013Z</time></trkpt><trkpt lat="43.4484517" lon="10.3912183"><ele>120.0</ele><time>2026-03-22T13:23:21.011Z</time></trkpt><trkpt lat="43.448475" lon="10.3914417"><ele>121.75</ele><time>2026-03-22T13:23:22.01Z</time></trkpt><trkpt lat="43.4484883" lon="10.3916433"><ele>123.5</ele><time>2026-03-22T13:23:23.012Z</time></trkpt><trkpt lat="43.4484817" lon="10.391835"><ele>125.25</ele><time>2026-03-22T13:23:24.01Z</time></trkpt><trkpt lat="43.4484467" lon="10.3920133"><ele>127.0</ele><time>2026-03-22T13:23:25.011Z</time></trkpt><trkpt lat="43.448375" lon="10.3921667"><ele>126.0</ele><time>2026-03-22T13:23:26.012Z</time></trkpt><trkpt lat="43.4482633" lon="10.3922867"><ele>125.0</ele><time>2026-03-22T13:23:27.011Z</time></trkpt><trkpt lat="43.4481333" lon="10.3923833"><ele>124.0</ele><time>2026-03-22T13:23:28.011Z</time></trkpt><trkpt lat="43.4479983" lon="10.3925"><ele>123.0</ele><time>2026-03-22T13:23:29.011Z</time></trkpt><trkpt lat="43.4478867" lon="10.39266"><ele>123.0</ele><time>2026-03-22T13:23:30.012Z</time></trkpt><trkpt lat="43.447805" lon="10.3928633"><ele>123.0</ele><time>2026-03-22T13:23:31.01Z</time></trkpt><trkpt lat="43.4477633" lon="10.3931067"><ele>123.0</ele><time>2026-03-22T13:23:32.011Z</time></trkpt><trkpt lat="43.4477567" lon="10.3933717"><ele>125.33333333333334</ele><time>2026-03-22T13:23:33.011Z</time></trkpt><trkpt lat="43.4477817" lon="10.3936483"><ele>127.66666666666667</ele><time>2026-03-22T13:23:34.012Z</time></trkpt><trkpt lat="43.4478117" lon="10.3939267"><ele>130.0</ele><time>2026-03-22T13:23:35.01Z</time></trkpt><trkpt lat="43.4478417" lon="10.3941983"><ele>132.0</ele><time>2026-03-22T13:23:36.011Z</time></trkpt><trkpt lat="43.44788" lon="10.394465"><ele>134.0</ele><time>2026-03-22T13:23:37.011Z</time></trkpt><trkpt lat="43.4479317" lon="10.39473"><ele>136.0</ele><time>2026-03-22T13:23:38.01Z</time></trkpt><trkpt lat="43.4479967" lon="10.39499"><ele>141.66666666666669</ele><time>2026-03-22T13:23:39.01Z</time></trkpt><trkpt lat="43.4480817" lon="10.3952417"><ele>147.33333333333334</ele><time>2026-03-22T13:23:40.011Z</time></trkpt><trkpt lat="43.4481683" lon="10.3954817"><ele>153.0</ele><time>2026-03-22T13:23:41.011Z</time></trkpt><trkpt lat="43.44827" lon="10.3957033"><ele>153.0</ele><time>2026-03-22T13:23:42.011Z</time></trkpt><trkpt lat="43.448385" lon="10.3959067"><ele>153.0</ele><time>2026-03-22T13:23:43.011Z</time></trkpt><trkpt lat="43.4485167" lon="10.3961"><ele>153.0</ele><time>2026-03-22T13:23:44.011Z</time></trkpt><trkpt lat="43.4486617" lon="10.3962867"><ele>158.66666666666666</ele><time>2026-03-22T13:23:45.01Z</time></trkpt><trkpt lat="43.4488117" lon="10.3964717"><ele>164.33333333333331</ele><time>2026-03-22T13:23:46.011Z</time></trkpt><trkpt lat="43.448955" lon="10.3966683"><ele>170.0</ele><time>2026-03-22T13:23:47.01Z</time></trkpt><trkpt lat="43.4490867" lon="10.3968783"><ele>170.0</ele><time>2026-03-22T13:23:48.01Z</time></trkpt><trkpt lat="43.44921" lon="10.39709"><ele>170.0</ele><time>2026-03-22T13:23:49.01Z</time></trkpt><trkpt lat="43.4493383" lon="10.3972917"><ele>170.0</ele><time>2026-03-22T13:23:50.01Z</time></trkpt><trkpt lat="43.4494667" lon="10.3974817"><ele>169.33333333333331</ele><time>2026-03-22T13:23:51.01Z</time></trkpt><trkpt lat="43.4495733" lon="10.39766"><ele>168.66666666666666</ele><time>2026-03-22T13:23:52.01Z</time></trkpt><trkpt lat="43.449665" lon="10.3978233"><ele>168.0</ele><time>2026-03-22T13:23:53.012Z</time></trkpt><trkpt lat="43.4497333" lon="10.3979967"><ele>171.0</ele><time>2026-03-22T13:23:54.012Z</time></trkpt><trkpt lat="43.4497617" lon="10.398185"><ele>174.0</ele><time>2026-03-22T13:23:55.011Z</time></trkpt><trkpt lat="43.4497567" lon="10.3983717"><ele>177.0</ele><time>2026-03-22T13:23:56.012Z</time></trkpt><trkpt lat="43.4497133" lon="10.39857"><ele>180.0</ele><time>2026-03-22T13:23:57.01Z</time></trkpt><trkpt lat="43.4496417" lon="10.39878"><ele>179.0</ele><time>2026-03-22T13:23:58.01Z</time></trkpt><trkpt lat="43.4495617" lon="10.3989967"><ele>178.0</ele><time>2026-03-22T13:23:59.01Z</time></trkpt><trkpt lat="43.4494867" lon="10.3992117"><ele>177.0</ele><time>2026-03-22T13:24:00.01Z</time></trkpt><trkpt lat="43.4494267" lon="10.3994067"><ele>177.0</ele><time>2026-03-22T13:24:01.01Z</time></trkpt><trkpt lat="43.4493867" lon="10.3995883"><ele>177.0</ele><time>2026-03-22T13:24:02.011Z</time></trkpt><trkpt lat="43.44938" lon="10.3997717"><ele>177.0</ele><time>2026-03-22T13:24:03.011Z</time></trkpt><trkpt lat="43.4494217" lon="10.39995"><ele>177.0</ele><time>2026-03-22T13:24:04.011Z</time></trkpt><trkpt lat="43.449495" lon="10.4001317"><ele>176.33333333333334</ele><time>2026-03-22T13:24:05.01Z</time></trkpt><trkpt lat="43.4495833" lon="10.400325"><ele>175.66666666666669</ele><time>2026-03-22T13:24:06.011Z</time></trkpt><trkpt lat="43.4496583" lon="10.4005383"><ele>175.0</ele><time>2026-03-22T13:24:07.011Z</time></trkpt><trkpt lat="43.4497283" lon="10.4007433"><ele>178.33333333333334</ele><time>2026-03-22T13:24:08.011Z</time></trkpt><trkpt lat="43.4497683" lon="10.400955"><ele>181.66666666666666</ele><time>2026-03-22T13:24:09.01Z</time></trkpt><trkpt lat="43.4497833" lon="10.40116"><ele>185.0</ele><time>2026-03-22T13:24:10.011Z</time></trkpt><trkpt lat="43.449755" lon="10.40136"><ele>185.0</ele><time>2026-03-22T13:24:11.009Z</time></trkpt><trkpt lat="43.4497133" lon="10.401545"><ele>185.0</ele><time>2026-03-22T13:24:12.01Z</time></trkpt><trkpt lat="43.4496783" lon="10.4017183"><ele>185.0</ele><time>2026-03-22T13:24:13.011Z</time></trkpt><trkpt lat="43.4496883" lon="10.4018833"><ele>185.0</ele><time>2026-03-22T13:24:14.01Z</time></trkpt><trkpt lat="43.4497367" lon="10.4020383"><ele>182.33333333333331</ele><time>2026-03-22T13:24:15.011Z</time></trkpt><trkpt lat="43.4498217" lon="10.402185"><ele>179.66666666666666</ele><time>2026-03-22T13:24:16.011Z</time></trkpt><trkpt lat="43.449945" lon="10.40232"><ele>177.0</ele><time>2026-03-22T13:24:17.01Z</time></trkpt><trkpt lat="43.4500933" lon="10.4024583"><ele>177.0</ele><time>2026-03-22T13:24:18.012Z</time></trkpt><trkpt lat="43.4502383" lon="10.4025983"><ele>177.0</ele><time>2026-03-22T13:24:19.011Z</time></trkpt><trkpt lat="43.4503733" lon="10.4027283"><ele>177.0</ele><time>2026-03-22T13:24:20.011Z</time></trkpt><trkpt lat="43.4505067" lon="10.4028367"><ele>179.0</ele><time>2026-03-22T13:24:21.01Z</time></trkpt><trkpt lat="43.4506383" lon="10.4028967"><ele>181.0</ele><time>2026-03-22T13:24:22.01Z</time></trkpt><trkpt lat="43.4507817" lon="10.4029"><ele>183.0</ele><time>2026-03-22T13:24:23.01Z</time></trkpt><trkpt lat="43.4509217" lon="10.4028567"><ele>185.0</ele><time>2026-03-22T13:24:24.01Z</time></trkpt><trkpt lat="43.4510467" lon="10.40278"><ele>185.0</ele><time>2026-03-22T13:24:25.011Z</time></trkpt><trkpt lat="43.45117" lon="10.4027267"><ele>185.0</ele><time>2026-03-22T13:24:26.012Z</time></trkpt><trkpt lat="43.451295" lon="10.40271"><ele>185.0</ele><time>2026-03-22T13:24:27.01Z</time></trkpt><trkpt lat="43.45143" lon="10.4027467"><ele>185.0</ele><time>2026-03-22T13:24:28.011Z</time></trkpt><trkpt lat="43.4515583" lon="10.40282"><ele>186.25</ele><time>2026-03-22T13:24:29.01Z</time></trkpt><trkpt lat="43.4516933" lon="10.40293"><ele>187.5</ele><time>2026-03-22T13:24:30.012Z</time></trkpt><trkpt lat="43.4518217" lon="10.4030383"><ele>188.75</ele><time>2026-03-22T13:24:31.01Z</time></trkpt><trkpt lat="43.45195" lon="10.4031117"><ele>190.0</ele><time>2026-03-22T13:24:32.011Z</time></trkpt><trkpt lat="43.4520833" lon="10.4031383"><ele>189.33333333333334</ele><time>2026-03-22T13:24:33.012Z</time></trkpt><trkpt lat="43.4522333" lon="10.403105"><ele>188.66666666666666</ele><time>2026-03-22T13:24:34.012Z</time></trkpt><trkpt lat="43.4523817" lon="10.4030433"><ele>188.0</ele><time>2026-03-22T13:24:35.011Z</time></trkpt><trkpt lat="43.4525383" lon="10.4029917"><ele>188.0</ele><time>2026-03-22T13:24:36.011Z</time></trkpt><trkpt lat="43.4526967" lon="10.4029683"><ele>188.0</ele><time>2026-03-22T13:24:37.012Z</time></trkpt><trkpt lat="43.4528583" lon="10.4029833"><ele>188.0</ele><time>2026-03-22T13:24:38.011Z</time></trkpt><trkpt lat="43.4530167" lon="10.4030183"><ele>183.66666666666666</ele><time>2026-03-22T13:24:39.011Z</time></trkpt><trkpt lat="43.45317" lon="10.4030483"><ele>179.33333333333334</ele><time>2026-03-22T13:24:40.011Z</time></trkpt><trkpt lat="43.4533333" lon="10.4030433"><ele>175.0</ele><time>2026-03-22T13:24:41.011Z</time></trkpt><trkpt lat="43.4534967" lon="10.4029917"><ele>175.0</ele><time>2026-03-22T13:24:42.01Z</time></trkpt><trkpt lat="43.4536633" lon="10.402945"><ele>175.0</ele><time>2026-03-22T13:24:43.011Z</time></trkpt><trkpt lat="43.4538333" lon="10.4029083"><ele>175.0</ele><time>2026-03-22T13:24:44.011Z</time></trkpt><trkpt lat="43.4540033" lon="10.4028783"><ele>175.33333333333334</ele><time>2026-03-22T13:24:45.011Z</time></trkpt><trkpt lat="43.454165" lon="10.4028633"><ele>175.66666666666666</ele><time>2026-03-22T13:24:46.012Z</time></trkpt><trkpt lat="43.4543217" lon="10.40288"><ele>176.0</ele><time>2026-03-22T13:24:47.01Z</time></trkpt><trkpt lat="43.4544733" lon="10.402935"><ele>175.0</ele><time>2026-03-22T13:24:48.01Z</time></trkpt><trkpt lat="43.4546" lon="10.4030183"><ele>174.0</ele><time>2026-03-22T13:24:49.01Z</time></trkpt><trkpt lat="43.454715" lon="10.4031267"><ele>173.0</ele><time>2026-03-22T13:24:50.01Z</time></trkpt><trkpt lat="43.4548183" lon="10.403265"><ele>172.0</ele><time>2026-03-22T13:24:51.009Z</time></trkpt><trkpt lat="43.454925" lon="10.403415"><ele>174.0</ele><time>2026-03-22T13:24:52.011Z</time></trkpt><trkpt lat="43.4550317" lon="10.4035933"><ele>176.0</ele><time>2026-03-22T13:24:53.011Z</time></trkpt><trkpt lat="43.455135" lon="10.40379"><ele>178.0</ele><time>2026-03-22T13:24:54.011Z</time></trkpt><trkpt lat="43.4552267" lon="10.4039933"><ele>178.0</ele><time>2026-03-22T13:24:55.01Z</time></trkpt><trkpt lat="43.4553133" lon="10.4041917"><ele>178.0</ele><time>2026-03-22T13:24:56.012Z</time></trkpt><trkpt lat="43.4553967" lon="10.4043683"><ele>178.0</ele><time>2026-03-22T13:24:57.011Z</time></trkpt><trkpt lat="43.455505" lon="10.4045"><ele>180.0</ele><time>2026-03-22T13:24:58.011Z</time></trkpt><trkpt lat="43.4556333" lon="10.4045867"><ele>182.0</ele><time>2026-03-22T13:24:59.011Z</time></trkpt><trkpt lat="43.4557867" lon="10.404635"><ele>184.0</ele><time>2026-03-22T13:25:00.011Z</time></trkpt><trkpt lat="43.45595" lon="10.4046667"><ele>184.0</ele><time>2026-03-22T13:25:01.01Z</time></trkpt><trkpt lat="43.456115" lon="10.4047217"><ele>184.0</ele><time>2026-03-22T13:25:02.012Z</time></trkpt><trkpt lat="43.4562683" lon="10.4048083"><ele>184.0</ele><time>2026-03-22T13:25:03.011Z</time></trkpt><trkpt lat="43.4564017" lon="10.4049333"><ele>189.0</ele><time>2026-03-22T13:25:04.011Z</time></trkpt><trkpt lat="43.4565167" lon="10.40511"><ele>194.0</ele><time>2026-03-22T13:25:05.009Z</time></trkpt><trkpt lat="43.45662" lon="10.4053183"><ele>199.0</ele><time>2026-03-22T13:25:06.011Z</time></trkpt><trkpt lat="43.4567" lon="10.40554"><ele>199.0</ele><time>2026-03-22T13:25:07.011Z</time></trkpt><trkpt lat="43.4567483" lon="10.4057767"><ele>199.0</ele><time>2026-03-22T13:25:08.009Z</time></trkpt><trkpt lat="43.456775" lon="10.406015"><ele>199.0</ele><time>2026-03-22T13:25:09.011Z</time></trkpt><trkpt lat="43.4568033" lon="10.4062433"><ele>198.33333333333331</ele><time>2026-03-22T13:25:10.01Z</time></trkpt><trkpt lat="43.4568467" lon="10.4064617"><ele>197.66666666666669</ele><time>2026-03-22T13:25:11.011Z</time></trkpt><trkpt lat="43.456915" lon="10.4066633"><ele>197.0</ele><time>2026-03-22T13:25:12.011Z</time></trkpt><trkpt lat="43.457015" lon="10.4068383"><ele>198.33333333333334</ele><time>2026-03-22T13:25:13.012Z</time></trkpt><trkpt lat="43.4571483" lon="10.4069717"><ele>199.66666666666669</ele><time>2026-03-22T13:25:14.01Z</time></trkpt><trkpt lat="43.4573083" lon="10.4070767"><ele>201.0</ele><time>2026-03-22T13:25:15.01Z</time></trkpt><trkpt lat="43.45748" lon="10.4071767"><ele>201.0</ele><time>2026-03-22T13:25:16.011Z</time></trkpt><trkpt lat="43.4576483" lon="10.40729"><ele>201.0</ele><time>2026-03-22T13:25:17.011Z</time></trkpt><trkpt lat="43.4578067" lon="10.4074167"><ele>201.0</ele><time>2026-03-22T13:25:18.011Z</time></trkpt><trkpt lat="43.457955" lon="10.40754"><ele>205.66666666666669</ele><time>2026-03-22T13:25:19.01Z</time></trkpt><trkpt lat="43.45809" lon="10.4076467"><ele>210.33333333333334</ele><time>2026-03-22T13:25:20.013Z</time></trkpt><trkpt lat="43.45823" lon="10.40771"><ele>215.0</ele><time>2026-03-22T13:25:21.01Z</time></trkpt><trkpt lat="43.4583833" lon="10.40772"><ele>215.0</ele><time>2026-03-22T13:25:22.011Z</time></trkpt><trkpt lat="43.4585483" lon="10.4077233"><ele>215.0</ele><time>2026-03-22T13:25:23.012Z</time></trkpt><trkpt lat="43.458705" lon="10.407755"><ele>215.0</ele><time>2026-03-22T13:25:24.011Z</time></trkpt><trkpt lat="43.458835" lon="10.4078367"><ele>217.33333333333334</ele><time>2026-03-22T13:25:25.011Z</time></trkpt><trkpt lat="43.4589367" lon="10.4079817"><ele>219.66666666666669</ele><time>2026-03-22T13:25:26.011Z</time></trkpt><trkpt lat="43.4590283" lon="10.4081733"><ele>222.0</ele><time>2026-03-22T13:25:27.011Z</time></trkpt><trkpt lat="43.459115" lon="10.4083583"><ele>222.0</ele><time>2026-03-22T13:25:28.011Z</time></trkpt><trkpt lat="43.4592083" lon="10.4085133"><ele>222.0</ele><time>2026-03-22T13:25:29.011Z</time></trkpt><trkpt lat="43.4593167" lon="10.408635"><ele>222.0</ele><time>2026-03-22T13:25:30.011Z</time></trkpt><trkpt lat="43.459445" lon="10.408725"><ele>222.0</ele><time>2026-03-22T13:25:31.01Z</time></trkpt><trkpt lat="43.45959" lon="10.4087883"><ele>222.5</ele><time>2026-03-22T13:25:32.011Z</time></trkpt><trkpt lat="43.4597317" lon="10.4088533"><ele>223.0</ele><time>2026-03-22T13:25:33.011Z</time></trkpt><trkpt lat="43.4598583" lon="10.40893"><ele>223.5</ele><time>2026-03-22T13:25:34.011Z</time></trkpt><trkpt lat="43.459965" lon="10.4090183"><ele>224.0</ele><time>2026-03-22T13:25:35.011Z</time></trkpt><trkpt lat="43.460055" lon="10.4090983"><ele>224.00000000000003</ele><time>2026-03-22T13:25:36.012Z</time></trkpt><trkpt lat="43.46013" lon="10.409165"><ele>224.0</ele><time>2026-03-22T13:25:37.013Z</time></trkpt><trkpt lat="43.4602017" lon="10.4092217"><ele>224.0</ele><time>2026-03-22T13:25:38.012Z</time></trkpt><trkpt lat="43.460265" lon="10.40928"><ele>224.0</ele><time>2026-03-22T13:25:39.011Z</time></trkpt><trkpt lat="43.4603217" lon="10.4093333"><ele>224.00000000000003</ele><time>2026-03-22T13:25:40.012Z</time></trkpt><trkpt lat="43.4604083" lon="10.4094183"><ele>224.0</ele><time>2026-03-22T13:25:42.01Z</time></trkpt><trkpt lat="43.4604917" lon="10.4094867"><ele>224.50000000000003</ele><time>2026-03-22T13:26:05.01Z</time></trkpt><trkpt lat="43.460605" lon="10.40955"><ele>225.0</ele><time>2026-03-22T13:26:07.01Z</time></trkpt><trkpt lat="43.46067" lon="10.4095833"><ele>225.5</ele><time>2026-03-22T13:26:08.01Z</time></trkpt><trkpt lat="43.4607333" lon="10.40962"><ele>226.0</ele><time>2026-03-22T13:26:09.009Z</time></trkpt><trkpt lat="43.4607983" lon="10.4096567"><ele>226.50000000000003</ele><time>2026-03-22T13:26:10.011Z</time></trkpt><trkpt lat="43.46086" lon="10.4096967"><ele>227.0</ele><time>2026-03-22T13:26:11.01Z</time></trkpt><trkpt lat="43.4609217" lon="10.4097367"><ele>227.00000000000003</ele><time>2026-03-22T13:26:12.01Z</time></trkpt><trkpt lat="43.46098" lon="10.4097767"><ele>227.0</ele><time>2026-03-22T13:26:13.01Z</time></trkpt><trkpt lat="43.461045" lon="10.4098183"><ele>227.0</ele><time>2026-03-22T13:26:14.01Z</time></trkpt><trkpt lat="43.46112" lon="10.4098567"><ele>227.0</ele><time>2026-03-22T13:26:15.01Z</time></trkpt><trkpt lat="43.4611983" lon="10.4098967"><ele>227.00000000000003</ele><time>2026-03-22T13:26:16.009Z</time></trkpt><trkpt lat="43.4612833" lon="10.4099467"><ele>227.0</ele><time>2026-03-22T13:26:17.009Z</time></trkpt><trkpt lat="43.4613683" lon="10.410005"><ele>227.39999999999998</ele><time>2026-03-22T13:26:18.009Z</time></trkpt><trkpt lat="43.46145" lon="10.4100883"><ele>227.79999999999998</ele><time>2026-03-22T13:26:19.011Z</time></trkpt><trkpt lat="43.4615267" lon="10.4101917"><ele>228.2</ele><time>2026-03-22T13:26:20.012Z</time></trkpt><trkpt lat="43.4615967" lon="10.4103067"><ele>228.6</ele><time>2026-03-22T13:26:21.011Z</time></trkpt><trkpt lat="43.4616617" lon="10.4104317"><ele>229.0</ele><time>2026-03-22T13:26:22.011Z</time></trkpt><trkpt lat="43.4617333" lon="10.4105533"><ele>229.0</ele><time>2026-03-22T13:26:23.012Z</time></trkpt><trkpt lat="43.46182" lon="10.410665"><ele>229.0</ele><time>2026-03-22T13:26:24.009Z</time></trkpt><trkpt lat="43.4619083" lon="10.4107667"><ele>229.0</ele><time>2026-03-22T13:26:25.011Z</time></trkpt><trkpt lat="43.462" lon="10.4108583"><ele>229.0</ele><time>2026-03-22T13:26:26.011Z</time></trkpt><trkpt lat="43.4620967" lon="10.410955"><ele>230.25</ele><time>2026-03-22T13:26:27.011Z</time></trkpt><trkpt lat="43.46219" lon="10.4110567"><ele>231.5</ele><time>2026-03-22T13:26:28.011Z</time></trkpt><trkpt lat="43.4622667" lon="10.4111717"><ele>232.75</ele><time>2026-03-22T13:26:29.008Z</time></trkpt><trkpt lat="43.4623233" lon="10.411305"><ele>234.0</ele><time>2026-03-22T13:26:30.01Z</time></trkpt><trkpt lat="43.4623683" lon="10.4114567"><ele>234.0</ele><time>2026-03-22T13:26:31.01Z</time></trkpt><trkpt lat="43.4624117" lon="10.4116067"><ele>234.0</ele><time>2026-03-22T13:26:32.011Z</time></trkpt><trkpt lat="43.4624533" lon="10.4117583"><ele>234.0</ele><time>2026-03-22T13:26:33.01Z</time></trkpt><trkpt lat="43.46249" lon="10.4119117"><ele>234.0</ele><time>2026-03-22T13:26:34.011Z</time></trkpt><trkpt lat="43.4625117" lon="10.412075"><ele>235.5</ele><time>2026-03-22T13:26:35.01Z</time></trkpt><trkpt lat="43.462525" lon="10.4122383"><ele>237.0</ele><time>2026-03-22T13:26:36.009Z</time></trkpt><trkpt lat="43.4625117" lon="10.4124117"><ele>238.5</ele><time>2026-03-22T13:26:37.01Z</time></trkpt><trkpt lat="43.4624833" lon="10.4125867"><ele>240.0</ele><time>2026-03-22T13:26:38.01Z</time></trkpt><trkpt lat="43.4624367" lon="10.4127683"><ele>240.0</ele><time>2026-03-22T13:26:39.01Z</time></trkpt><trkpt lat="43.4623833" lon="10.4129517"><ele>240.0</ele><time>2026-03-22T13:26:40.009Z</time></trkpt><trkpt lat="43.4623233" lon="10.41314"><ele>240.0</ele><time>2026-03-22T13:26:41.01Z</time></trkpt><trkpt lat="43.4622683" lon="10.4133283"><ele>240.0</ele><time>2026-03-22T13:26:42.011Z</time></trkpt><trkpt lat="43.4622067" lon="10.4135133"><ele>242.25</ele><time>2026-03-22T13:26:43.011Z</time></trkpt><trkpt lat="43.462135" lon="10.4136867"><ele>244.5</ele><time>2026-03-22T13:26:44.011Z</time></trkpt><trkpt lat="43.462045" lon="10.4138383"><ele>246.75</ele><time>2026-03-22T13:26:45.011Z</time></trkpt><trkpt lat="43.46195" lon="10.41397"><ele>249.0</ele><time>2026-03-22T13:26:46.01Z</time></trkpt><trkpt lat="43.461845" lon="10.4140667"><ele>249.6</ele><time>2026-03-22T13:26:47.01Z</time></trkpt><trkpt lat="43.4617433" lon="10.4141417"><ele>250.2</ele><time>2026-03-22T13:26:48.011Z</time></trkpt><trkpt lat="43.4616483" lon="10.4142"><ele>250.79999999999998</ele><time>2026-03-22T13:26:49.011Z</time></trkpt><trkpt lat="43.461565" lon="10.4142583"><ele>251.39999999999998</ele><time>2026-03-22T13:26:50.012Z</time></trkpt><trkpt lat="43.4615" lon="10.4143217"><ele>252.0</ele><time>2026-03-22T13:26:51.01Z</time></trkpt><trkpt lat="43.4614567" lon="10.4144017"><ele>252.0</ele><time>2026-03-22T13:26:52.011Z</time></trkpt><trkpt lat="43.46148" lon="10.4145183"><ele>252.0</ele><time>2026-03-22T13:26:53.012Z</time></trkpt><trkpt lat="43.4615167" lon="10.4146217"><ele>252.0</ele><time>2026-03-22T13:26:54.011Z</time></trkpt><trkpt lat="43.4615567" lon="10.4147167"><ele>252.0</ele><time>2026-03-22T13:26:55.012Z</time></trkpt><trkpt lat="43.4616467" lon="10.4147483"><ele>252.0</ele><time>2026-03-22T13:26:56.011Z</time></trkpt><trkpt lat="43.4617233" lon="10.414765"><ele>252.0</ele><time>2026-03-22T13:26:57.01Z</time></trkpt><trkpt lat="43.4618217" lon="10.4147517"><ele>252.0</ele><time>2026-03-22T13:26:58.01Z</time></trkpt><trkpt lat="43.4619417" lon="10.4146883"><ele>252.0</ele><time>2026-03-22T13:26:59.012Z</time></trkpt><trkpt lat="43.4620583" lon="10.4146483"><ele>252.0</ele><time>2026-03-22T13:27:00.01Z</time></trkpt><trkpt lat="43.46218" lon="10.4146133"><ele>252.0</ele><time>2026-03-22T13:27:01.012Z</time></trkpt><trkpt lat="43.4623" lon="10.4146167"><ele>252.5</ele><time>2026-03-22T13:27:02.011Z</time></trkpt><trkpt lat="43.4624133" lon="10.4146533"><ele>253.0</ele><time>2026-03-22T13:27:03.011Z</time></trkpt><trkpt lat="43.4625183" lon="10.414735"><ele>253.5</ele><time>2026-03-22T13:27:04.01Z</time></trkpt><trkpt lat="43.4626133" lon="10.4148417"><ele>254.0</ele><time>2026-03-22T13:27:05.01Z</time></trkpt><trkpt lat="43.462705" lon="10.4149583"><ele>254.0</ele><time>2026-03-22T13:27:06.01Z</time></trkpt><trkpt lat="43.4628033" lon="10.4150767"><ele>254.0</ele><time>2026-03-22T13:27:07.01Z</time></trkpt><trkpt lat="43.46291" lon="10.415185"><ele>254.0</ele><time>2026-03-22T13:27:08.01Z</time></trkpt><trkpt lat="43.4630267" lon="10.4152717"><ele>254.0</ele><time>2026-03-22T13:27:09.01Z</time></trkpt><trkpt lat="43.463155" lon="10.41535"><ele>255.25</ele><time>2026-03-22T13:27:10.01Z</time></trkpt><trkpt lat="43.4632783" lon="10.415435"><ele>256.5</ele><time>2026-03-22T13:27:11.011Z</time></trkpt><trkpt lat="43.4633967" lon="10.4155233"><ele>257.75</ele><time>2026-03-22T13:27:12.01Z</time></trkpt><trkpt lat="43.4635033" lon="10.4156283"><ele>259.0</ele><time>2026-03-22T13:27:13.011Z</time></trkpt><trkpt lat="43.4636" lon="10.4157433"><ele>259.0</ele><time>2026-03-22T13:27:14.01Z</time></trkpt><trkpt lat="43.4636983" lon="10.415855"><ele>259.0</ele><time>2026-03-22T13:27:15.01Z</time></trkpt><trkpt lat="43.4637983" lon="10.41596"><ele>259.0</ele><time>2026-03-22T13:27:16.009Z</time></trkpt><trkpt lat="43.4639017" lon="10.4160467"><ele>259.0</ele><time>2026-03-22T13:27:17.01Z</time></trkpt><trkpt lat="43.464005" lon="10.41612"><ele>260.8333333333333</ele><time>2026-03-22T13:27:18.01Z</time></trkpt><trkpt lat="43.464095" lon="10.416185"><ele>262.66666666666663</ele><time>2026-03-22T13:27:19.01Z</time></trkpt><trkpt lat="43.4641733" lon="10.41623"><ele>264.5</ele><time>2026-03-22T13:27:20.011Z</time></trkpt><trkpt lat="43.4642367" lon="10.4162767"><ele>266.3333333333333</ele><time>2026-03-22T13:27:21.011Z</time></trkpt><trkpt lat="43.46429" lon="10.4163367"><ele>268.1666666666667</ele><time>2026-03-22T13:27:22.009Z</time></trkpt><trkpt lat="43.46433" lon="10.4164217"><ele>270.0</ele><time>2026-03-22T13:27:23.011Z</time></trkpt><trkpt lat="43.464345" lon="10.41652"><ele>270.0</ele><time>2026-03-22T13:27:24.01Z</time></trkpt><trkpt lat="43.4643567" lon="10.4166117"><ele>270.0</ele><time>2026-03-22T13:27:25.01Z</time></trkpt><trkpt lat="43.4643783" lon="10.4166967"><ele>270.0</ele><time>2026-03-22T13:27:26.01Z</time></trkpt><trkpt lat="43.4644033" lon="10.4167767"><ele>270.0</ele><time>2026-03-22T13:27:27.01Z</time></trkpt><trkpt lat="43.4644417" lon="10.41685"><ele>270.0</ele><time>2026-03-22T13:27:28.009Z</time></trkpt><trkpt lat="43.4644867" lon="10.4169333"><ele>270.0</ele><time>2026-03-22T13:27:29.01Z</time></trkpt><trkpt lat="43.4645383" lon="10.4170233"><ele>270.0</ele><time>2026-03-22T13:27:30.01Z</time></trkpt><trkpt lat="43.4645883" lon="10.41713"><ele>269.0</ele><time>2026-03-22T13:27:31.012Z</time></trkpt><trkpt lat="43.4646367" lon="10.4172417"><ele>268.0</ele><time>2026-03-22T13:27:32.011Z</time></trkpt><trkpt lat="43.4646867" lon="10.4173483"><ele>267.0</ele><time>2026-03-22T13:27:33.01Z</time></trkpt><trkpt lat="43.4647383" lon="10.4174533"><ele>266.0</ele><time>2026-03-22T13:27:34.012Z</time></trkpt><trkpt lat="43.4648017" lon="10.41755"><ele>265.0</ele><time>2026-03-22T13:27:35.012Z</time></trkpt><trkpt lat="43.46488" lon="10.4176417"><ele>265.0</ele><time>2026-03-22T13:27:36.012Z</time></trkpt><trkpt lat="43.4649633" lon="10.4177267"><ele>265.0</ele><time>2026-03-22T13:27:37.012Z</time></trkpt><trkpt lat="43.4650483" lon="10.4178133"><ele>265.0</ele><time>2026-03-22T13:27:38.012Z</time></trkpt><trkpt lat="43.4651333" lon="10.41791"><ele>265.0</ele><time>2026-03-22T13:27:39.01Z</time></trkpt><trkpt lat="43.4652233" lon="10.4180083"><ele>265.0</ele><time>2026-03-22T13:27:40.011Z</time></trkpt><trkpt lat="43.4653183" lon="10.4181067"><ele>265.5</ele><time>2026-03-22T13:27:41.011Z</time></trkpt><trkpt lat="43.4654133" lon="10.4182083"><ele>266.0</ele><time>2026-03-22T13:27:42.011Z</time></trkpt><trkpt lat="43.4655133" lon="10.4183033"><ele>266.5</ele><time>2026-03-22T13:27:43.01Z</time></trkpt><trkpt lat="43.465615" lon="10.41839"><ele>267.0</ele><time>2026-03-22T13:27:44.011Z</time></trkpt><trkpt lat="43.4657233" lon="10.4184667"><ele>267.0</ele><time>2026-03-22T13:27:45.011Z</time></trkpt><trkpt lat="43.465835" lon="10.4185333"><ele>267.0</ele><time>2026-03-22T13:27:46.01Z</time></trkpt><trkpt lat="43.4659467" lon="10.4185867"><ele>267.0</ele><time>2026-03-22T13:27:47.01Z</time></trkpt><trkpt lat="43.466055" lon="10.4186367"><ele>267.0</ele><time>2026-03-22T13:27:48.009Z</time></trkpt><trkpt lat="43.4661517" lon="10.418675"><ele>267.0</ele><time>2026-03-22T13:27:49.01Z</time></trkpt><trkpt lat="43.4662467" lon="10.4187083"><ele>267.0</ele><time>2026-03-22T13:27:50.01Z</time></trkpt><trkpt lat="43.46634" lon="10.4187533"><ele>267.0</ele><time>2026-03-22T13:27:51.01Z</time></trkpt><trkpt lat="43.4664317" lon="10.4187533"><ele>267.0</ele><time>2026-03-22T13:27:52.011Z</time></trkpt><trkpt lat="43.4665283" lon="10.4187317"><ele>267.0</ele><time>2026-03-22T13:27:53.01Z</time></trkpt><trkpt lat="43.46663" lon="10.4187167"><ele>267.0</ele><time>2026-03-22T13:27:54.01Z</time></trkpt><trkpt lat="43.4667383" lon="10.4187167"><ele>267.0</ele><time>2026-03-22T13:27:55.011Z</time></trkpt><trkpt lat="43.466845" lon="10.418725"><ele>267.0</ele><time>2026-03-22T13:27:56.01Z</time></trkpt><trkpt lat="43.4669567" lon="10.4187617"><ele>267.0</ele><time>2026-03-22T13:27:57.012Z</time></trkpt><trkpt lat="43.46707" lon="10.4188083"><ele>267.0</ele><time>2026-03-22T13:27:58.011Z</time></trkpt><trkpt lat="43.467175" lon="10.4188633"><ele>267.8</ele><time>2026-03-22T13:27:59.012Z</time></trkpt><trkpt lat="43.4672683" lon="10.418925"><ele>268.6</ele><time>2026-03-22T13:28:00.009Z</time></trkpt><trkpt lat="43.4673483" lon="10.4189883"><ele>269.40000000000003</ele><time>2026-03-22T13:28:01.01Z</time></trkpt><trkpt lat="43.4674267" lon="10.4190417"><ele>270.2</ele><time>2026-03-22T13:28:02.011Z</time></trkpt><trkpt lat="43.4675033" lon="10.4191"><ele>271.0</ele><time>2026-03-22T13:28:03.011Z</time></trkpt><trkpt lat="43.46759" lon="10.4191533"><ele>271.0</ele><time>2026-03-22T13:28:04.01Z</time></trkpt><trkpt lat="43.4676717" lon="10.41921"><ele>271.0</ele><time>2026-03-22T13:28:05.012Z</time></trkpt><trkpt lat="43.4677517" lon="10.41926"><ele>271.0</ele><time>2026-03-22T13:28:06.011Z</time></trkpt><trkpt lat="43.4678367" lon="10.4192983"><ele>271.0</ele><time>2026-03-22T13:28:07.011Z</time></trkpt><trkpt lat="43.4681783" lon="10.4189417"><ele>269.66666666666663</ele><time>2026-03-22T13:28:08.757Z</time></trkpt><trkpt lat="43.4681683" lon="10.4190567"><ele>268.3333333333333</ele><time>2026-03-22T13:28:10Z</time></trkpt><trkpt lat="43.468405" lon="10.4189567"><ele>267.0</ele><time>2026-03-22T13:28:12.01Z</time></trkpt><trkpt lat="43.46853" lon="10.41892"><ele>267.0</ele><time>2026-03-22T13:28:13.009Z</time></trkpt><trkpt lat="43.468665" lon="10.418915"><ele>267.0</ele><time>2026-03-22T13:28:14.009Z</time></trkpt><trkpt lat="43.4687833" lon="10.4188817"><ele>267.0</ele><time>2026-03-22T13:28:15.009Z</time></trkpt><trkpt lat="43.4689" lon="10.4188467"><ele>267.0</ele><time>2026-03-22T13:28:16.01Z</time></trkpt><trkpt lat="43.4690117" lon="10.4188183"><ele>267.0</ele><time>2026-03-22T13:28:17.012Z</time></trkpt><trkpt lat="43.4691233" lon="10.4188017"><ele>267.0</ele><time>2026-03-22T13:28:18.01Z</time></trkpt><trkpt lat="43.4692283" lon="10.4188033"><ele>267.0</ele><time>2026-03-22T13:28:19.011Z</time></trkpt><trkpt lat="43.4693283" lon="10.4188283"><ele>267.0</ele><time>2026-03-22T13:28:20.01Z</time></trkpt><trkpt lat="43.4694267" lon="10.41891"><ele>267.0</ele><time>2026-03-22T13:28:21.011Z</time></trkpt><trkpt lat="43.4695233" lon="10.4190467"><ele>264.0</ele><time>2026-03-22T13:28:22.01Z</time></trkpt><trkpt lat="43.4696217" lon="10.4192083"><ele>261.0</ele><time>2026-03-22T13:28:23.01Z</time></trkpt><trkpt lat="43.4697283" lon="10.4193583"><ele>258.0</ele><time>2026-03-22T13:28:24.01Z</time></trkpt><trkpt lat="43.4698483" lon="10.4194883"><ele>258.0</ele><time>2026-03-22T13:28:25.011Z</time></trkpt><trkpt lat="43.4699767" lon="10.4196"><ele>258.0</ele><time>2026-03-22T13:28:26.01Z</time></trkpt><trkpt lat="43.470115" lon="10.4196883"><ele>258.0</ele><time>2026-03-22T13:28:27.01Z</time></trkpt><trkpt lat="43.470265" lon="10.4197533"><ele>258.6666666666667</ele><time>2026-03-22T13:28:28.009Z</time></trkpt><trkpt lat="43.4704217" lon="10.4198017"><ele>259.33333333333337</ele><time>2026-03-22T13:28:29.011Z</time></trkpt><trkpt lat="43.4705833" lon="10.41983"><ele>260.0</ele><time>2026-03-22T13:28:30.01Z</time></trkpt><trkpt lat="43.4707417" lon="10.4198467"><ele>260.0</ele><time>2026-03-22T13:28:31.009Z</time></trkpt><trkpt lat="43.4708983" lon="10.419865"><ele>260.0</ele><time>2026-03-22T13:28:32.01Z</time></trkpt><trkpt lat="43.4710583" lon="10.4198933"><ele>260.0</ele><time>2026-03-22T13:28:33.01Z</time></trkpt><trkpt lat="43.4712117" lon="10.419925"><ele>257.75</ele><time>2026-03-22T13:28:34.009Z</time></trkpt><trkpt lat="43.4713567" lon="10.4199817"><ele>255.5</ele><time>2026-03-22T13:28:35.009Z</time></trkpt><trkpt lat="43.471495" lon="10.420065"><ele>253.25</ele><time>2026-03-22T13:28:36.01Z</time></trkpt><trkpt lat="43.4716183" lon="10.420165"><ele>251.0</ele><time>2026-03-22T13:28:37.01Z</time></trkpt><trkpt lat="43.4717283" lon="10.4202767"><ele>251.0</ele><time>2026-03-22T13:28:38.009Z</time></trkpt><trkpt lat="43.4718167" lon="10.4204183"><ele>251.0</ele><time>2026-03-22T13:28:39.011Z</time></trkpt><trkpt lat="43.4718883" lon="10.4205867"><ele>251.0</ele><time>2026-03-22T13:28:40.011Z</time></trkpt><trkpt lat="43.471955" lon="10.4207633"><ele>251.0</ele><time>2026-03-22T13:28:41.01Z</time></trkpt><trkpt lat="43.4720217" lon="10.4209333"><ele>249.0</ele><time>2026-03-22T13:28:42.01Z</time></trkpt><trkpt lat="43.4720983" lon="10.4211"><ele>247.0</ele><time>2026-03-22T13:28:43.01Z</time></trkpt><trkpt lat="43.4721717" lon="10.42125"><ele>245.0</ele><time>2026-03-22T13:28:44.012Z</time></trkpt><trkpt lat="43.47225" lon="10.4213733"><ele>243.0</ele><time>2026-03-22T13:28:45.009Z</time></trkpt><trkpt lat="43.4723433" lon="10.4214633"><ele>241.25</ele><time>2026-03-22T13:28:46.009Z</time></trkpt><trkpt lat="43.4724617" lon="10.4215183"><ele>239.5</ele><time>2026-03-22T13:28:47.01Z</time></trkpt><trkpt lat="43.4725867" lon="10.4215667"><ele>237.75</ele><time>2026-03-22T13:28:48.011Z</time></trkpt><trkpt lat="43.4727033" lon="10.4216517"><ele>236.0</ele><time>2026-03-22T13:28:49.011Z</time></trkpt><trkpt lat="43.4728217" lon="10.42176"><ele>236.0</ele><time>2026-03-22T13:28:50.011Z</time></trkpt><trkpt lat="43.4729333" lon="10.42189"><ele>236.0</ele><time>2026-03-22T13:28:51.01Z</time></trkpt><trkpt lat="43.4730483" lon="10.4220317"><ele>236.0</ele><time>2026-03-22T13:28:52.01Z</time></trkpt><trkpt lat="43.4731667" lon="10.4221783"><ele>237.0</ele><time>2026-03-22T13:28:53.01Z</time></trkpt><trkpt lat="43.4732883" lon="10.42232"><ele>238.0</ele><time>2026-03-22T13:28:54.01Z</time></trkpt><trkpt lat="43.4734133" lon="10.4224567"><ele>239.0</ele><time>2026-03-22T13:28:55.011Z</time></trkpt><trkpt lat="43.4735367" lon="10.4225933"><ele>239.0</ele><time>2026-03-22T13:28:56.011Z</time></trkpt><trkpt lat="43.473655" lon="10.422705"><ele>239.0</ele><time>2026-03-22T13:28:57.011Z</time></trkpt><trkpt lat="43.4737917" lon="10.42279"><ele>239.0</ele><time>2026-03-22T13:28:58.009Z</time></trkpt><trkpt lat="43.4739367" lon="10.4228567"><ele>239.0</ele><time>2026-03-22T13:28:59.01Z</time></trkpt><trkpt lat="43.4740883" lon="10.42291"><ele>239.25</ele><time>2026-03-22T13:29:00.01Z</time></trkpt><trkpt lat="43.474235" lon="10.4229533"><ele>239.5</ele><time>2026-03-22T13:29:01.01Z</time></trkpt><trkpt lat="43.474375" lon="10.42298"><ele>239.75</ele><time>2026-03-22T13:29:02.011Z</time></trkpt><trkpt lat="43.47451" lon="10.4230183"><ele>240.0</ele><time>2026-03-22T13:29:03.009Z</time></trkpt><trkpt lat="43.4746317" lon="10.42307"><ele>240.25</ele><time>2026-03-22T13:29:04.008Z</time></trkpt><trkpt lat="43.4747467" lon="10.4231433"><ele>240.5</ele><time>2026-03-22T13:29:05.01Z</time></trkpt><trkpt lat="43.474855" lon="10.4232333"><ele>240.75</ele><time>2026-03-22T13:29:06.01Z</time></trkpt><trkpt lat="43.4749567" lon="10.42334"><ele>241.0</ele><time>2026-03-22T13:29:07.01Z</time></trkpt><trkpt lat="43.4750583" lon="10.4234667"><ele>241.0</ele><time>2026-03-22T13:29:08.01Z</time></trkpt><trkpt lat="43.47516" lon="10.4235933"><ele>241.0</ele><time>2026-03-22T13:29:09.012Z</time></trkpt><trkpt lat="43.4752633" lon="10.4237167"><ele>241.0</ele><time>2026-03-22T13:29:10.01Z</time></trkpt><trkpt lat="43.4753783" lon="10.4238183"><ele>241.0</ele><time>2026-03-22T13:29:11.01Z</time></trkpt><trkpt lat="43.475495" lon="10.423895"><ele>240.5</ele><time>2026-03-22T13:29:12.011Z</time></trkpt><trkpt lat="43.4756067" lon="10.4239733"><ele>240.0</ele><time>2026-03-22T13:29:13.01Z</time></trkpt><trkpt lat="43.47571" lon="10.4240667"><ele>239.5</ele><time>2026-03-22T13:29:14.01Z</time></trkpt><trkpt lat="43.4758017" lon="10.4241817"><ele>239.0</ele><time>2026-03-22T13:29:15.01Z</time></trkpt><trkpt lat="43.4758833" lon="10.4243233"><ele>239.0</ele><time>2026-03-22T13:29:16.011Z</time></trkpt><trkpt lat="43.4759583" lon="10.4244683"><ele>239.0</ele><time>2026-03-22T13:29:17.01Z</time></trkpt><trkpt lat="43.4760233" lon="10.4246267"><ele>239.0</ele><time>2026-03-22T13:29:18.01Z</time></trkpt><trkpt lat="43.4760817" lon="10.424795"><ele>239.0</ele><time>2026-03-22T13:29:19.011Z</time></trkpt><trkpt lat="43.47613" lon="10.4249683"><ele>237.79999999999998</ele><time>2026-03-22T13:29:20.01Z</time></trkpt><trkpt lat="43.4761667" lon="10.4251367"><ele>236.59999999999997</ele><time>2026-03-22T13:29:21.01Z</time></trkpt><trkpt lat="43.4762033" lon="10.42529"><ele>235.4</ele><time>2026-03-22T13:29:22.011Z</time></trkpt><trkpt lat="43.476235" lon="10.4254283"><ele>234.2</ele><time>2026-03-22T13:29:23.009Z</time></trkpt><trkpt lat="43.476235" lon="10.425565"><ele>233.0</ele><time>2026-03-22T13:29:24.011Z</time></trkpt><trkpt lat="43.476195" lon="10.425695"><ele>231.2</ele><time>2026-03-22T13:29:25.01Z</time></trkpt><trkpt lat="43.4761217" lon="10.425805"><ele>229.4</ele><time>2026-03-22T13:29:26.01Z</time></trkpt><trkpt lat="43.47605" lon="10.4258933"><ele>227.59999999999997</ele><time>2026-03-22T13:29:27.01Z</time></trkpt><trkpt lat="43.4760017" lon="10.425985"><ele>225.79999999999998</ele><time>2026-03-22T13:29:28.011Z</time></trkpt><trkpt lat="43.4759767" lon="10.42609"><ele>224.0</ele><time>2026-03-22T13:29:29.009Z</time></trkpt><trkpt lat="43.475975" lon="10.4262067"><ele>222.25</ele><time>2026-03-22T13:29:30.01Z</time></trkpt><trkpt lat="43.4759867" lon="10.42634"><ele>220.5</ele><time>2026-03-22T13:29:31.012Z</time></trkpt><trkpt lat="43.47607" lon="10.426495"><ele>218.75</ele><time>2026-03-22T13:29:32.011Z</time></trkpt><trkpt lat="43.4761667" lon="10.42663"><ele>217.0</ele><time>2026-03-22T13:29:33.011Z</time></trkpt><trkpt lat="43.4762317" lon="10.426785"><ele>216.6</ele><time>2026-03-22T13:29:34.011Z</time></trkpt><trkpt lat="43.4762817" lon="10.4269333"><ele>216.2</ele><time>2026-03-22T13:29:35.011Z</time></trkpt><trkpt lat="43.4762933" lon="10.427095"><ele>215.8</ele><time>2026-03-22T13:29:36.011Z</time></trkpt><trkpt lat="43.4762733" lon="10.4272417"><ele>215.4</ele><time>2026-03-22T13:29:37.01Z</time></trkpt><trkpt lat="43.4762233" lon="10.4273667"><ele>215.0</ele><time>2026-03-22T13:29:38.01Z</time></trkpt><trkpt lat="43.4761467" lon="10.4274583"><ele>215.0</ele><time>2026-03-22T13:29:39.01Z</time></trkpt><trkpt lat="43.476055" lon="10.42751"><ele>215.0</ele><time>2026-03-22T13:29:40.01Z</time></trkpt><trkpt lat="43.475955" lon="10.4275367"><ele>215.0</ele><time>2026-03-22T13:29:41.01Z</time></trkpt><trkpt lat="43.47585" lon="10.4275583"><ele>215.0</ele><time>2026-03-22T13:29:42.011Z</time></trkpt><trkpt lat="43.4757467" lon="10.4275817"><ele>215.0</ele><time>2026-03-22T13:29:43.01Z</time></trkpt><trkpt lat="43.4756517" lon="10.4276267"><ele>215.0</ele><time>2026-03-22T13:29:44.01Z</time></trkpt><trkpt lat="43.4755767" lon="10.4277067"><ele>215.0</ele><time>2026-03-22T13:29:45.011Z</time></trkpt><trkpt lat="43.4755383" lon="10.4278233"><ele>215.0</ele><time>2026-03-22T13:29:46.01Z</time></trkpt><trkpt lat="43.4755417" lon="10.4279717"><ele>215.0</ele><time>2026-03-22T13:29:47.011Z</time></trkpt><trkpt lat="43.475565" lon="10.4281483"><ele>215.0</ele><time>2026-03-22T13:29:48.011Z</time></trkpt><trkpt lat="43.475595" lon="10.42834"><ele>214.75</ele><time>2026-03-22T13:29:49.011Z</time></trkpt><trkpt lat="43.4756217" lon="10.4285417"><ele>214.5</ele><time>2026-03-22T13:29:50.012Z</time></trkpt><trkpt lat="43.4756417" lon="10.428745"><ele>214.25</ele><time>2026-03-22T13:29:51.01Z</time></trkpt><trkpt lat="43.475645" lon="10.4289533"><ele>214.0</ele><time>2026-03-22T13:29:52.01Z</time></trkpt><trkpt lat="43.4756283" lon="10.4291617"><ele>210.66666666666666</ele><time>2026-03-22T13:29:53.011Z</time></trkpt><trkpt lat="43.4755983" lon="10.4293683"><ele>207.33333333333331</ele><time>2026-03-22T13:29:54.011Z</time></trkpt><trkpt lat="43.4755617" lon="10.4295717"><ele>204.0</ele><time>2026-03-22T13:29:55.012Z</time></trkpt><trkpt lat="43.475525" lon="10.4297767"><ele>202.75</ele><time>2026-03-22T13:29:56.01Z</time></trkpt><trkpt lat="43.4755017" lon="10.429975"><ele>201.5</ele><time>2026-03-22T13:29:57.01Z</time></trkpt><trkpt lat="43.4754817" lon="10.4301633"><ele>200.25</ele><time>2026-03-22T13:29:58.01Z</time></trkpt><trkpt lat="43.4754467" lon="10.4303367"><ele>199.0</ele><time>2026-03-22T13:29:59.011Z</time></trkpt><trkpt lat="43.4754083" lon="10.43049"><ele>198.0</ele><time>2026-03-22T13:30:00.009Z</time></trkpt><trkpt lat="43.47536" lon="10.430635"><ele>197.0</ele><time>2026-03-22T13:30:01.01Z</time></trkpt><trkpt lat="43.4753267" lon="10.4307783"><ele>196.0</ele><time>2026-03-22T13:30:02.011Z</time></trkpt><trkpt lat="43.4753117" lon="10.43092"><ele>195.0</ele><time>2026-03-22T13:30:03.011Z</time></trkpt><trkpt lat="43.47533" lon="10.43105"><ele>194.0</ele><time>2026-03-22T13:30:04.01Z</time></trkpt><trkpt lat="43.4753633" lon="10.431175"><ele>194.0</ele><time>2026-03-22T13:30:05.009Z</time></trkpt><trkpt lat="43.475415" lon="10.431275"><ele>194.0</ele><time>2026-03-22T13:30:06.011Z</time></trkpt><trkpt lat="43.4754733" lon="10.4313617"><ele>194.0</ele><time>2026-03-22T13:30:07.01Z</time></trkpt><trkpt lat="43.4755483" lon="10.431405"><ele>194.0</ele><time>2026-03-22T13:30:08.01Z</time></trkpt><trkpt lat="43.4756333" lon="10.4313933"><ele>194.0</ele><time>2026-03-22T13:30:09.009Z</time></trkpt><trkpt lat="43.4757333" lon="10.4312517"><ele>194.0</ele><time>2026-03-22T13:30:10.01Z</time></trkpt><trkpt lat="43.4758283" lon="10.4310883"><ele>194.0</ele><time>2026-03-22T13:30:11.011Z</time></trkpt><trkpt lat="43.47592" lon="10.4309333"><ele>194.0</ele><time>2026-03-22T13:30:12.011Z</time></trkpt><trkpt lat="43.476015" lon="10.4307933"><ele>194.0</ele><time>2026-03-22T13:30:13.011Z</time></trkpt><trkpt lat="43.4761317" lon="10.430665"><ele>194.0</ele><time>2026-03-22T13:30:14.011Z</time></trkpt><trkpt lat="43.476255" lon="10.4305567"><ele>194.0</ele><time>2026-03-22T13:30:15.011Z</time></trkpt><trkpt lat="43.4763833" lon="10.4304767"><ele>194.0</ele><time>2026-03-22T13:30:16.01Z</time></trkpt><trkpt lat="43.47651" lon="10.4303933"><ele>194.0</ele><time>2026-03-22T13:30:17.01Z</time></trkpt><trkpt lat="43.4766367" lon="10.4303083"><ele>191.75</ele><time>2026-03-22T13:30:18.011Z</time></trkpt><trkpt lat="43.4767617" lon="10.4302383"><ele>189.5</ele><time>2026-03-22T13:30:19.011Z</time></trkpt><trkpt lat="43.4768767" lon="10.430185"><ele>187.25</ele><time>2026-03-22T13:30:20.011Z</time></trkpt><trkpt lat="43.4769833" lon="10.43017"><ele>185.0</ele><time>2026-03-22T13:30:21.01Z</time></trkpt><trkpt lat="43.47708" lon="10.4302117"><ele>184.8</ele><time>2026-03-22T13:30:22.01Z</time></trkpt><trkpt lat="43.4771567" lon="10.4302833"><ele>184.6</ele><time>2026-03-22T13:30:23.01Z</time></trkpt><trkpt lat="43.477225" lon="10.4303767"><ele>184.39999999999998</ele><time>2026-03-22T13:30:24.01Z</time></trkpt><trkpt lat="43.4772917" lon="10.43048"><ele>184.2</ele><time>2026-03-22T13:30:25.011Z</time></trkpt><trkpt lat="43.4773667" lon="10.4305717"><ele>184.0</ele><time>2026-03-22T13:30:26.011Z</time></trkpt><trkpt lat="43.4774483" lon="10.430665"><ele>181.6</ele><time>2026-03-22T13:30:27.01Z</time></trkpt><trkpt lat="43.4775333" lon="10.4307417"><ele>179.2</ele><time>2026-03-22T13:30:28.009Z</time></trkpt><trkpt lat="43.4776217" lon="10.430805"><ele>176.79999999999998</ele><time>2026-03-22T13:30:29.01Z</time></trkpt><trkpt lat="43.4777167" lon="10.4308433"><ele>174.39999999999998</ele><time>2026-03-22T13:30:30.01Z</time></trkpt><trkpt lat="43.4778233" lon="10.4308633"><ele>172.0</ele><time>2026-03-22T13:30:31.01Z</time></trkpt><trkpt lat="43.4779283" lon="10.4308483"><ele>172.2</ele><time>2026-03-22T13:30:32.011Z</time></trkpt><trkpt lat="43.4780367" lon="10.4308133"><ele>172.39999999999998</ele><time>2026-03-22T13:30:33.01Z</time></trkpt><trkpt lat="43.4781433" lon="10.4307967"><ele>172.60000000000002</ele><time>2026-03-22T13:30:34.011Z</time></trkpt><trkpt lat="43.47824" lon="10.4308083"><ele>172.8</ele><time>2026-03-22T13:30:35.012Z</time></trkpt><trkpt lat="43.4783267" lon="10.4308367"><ele>173.0</ele><time>2026-03-22T13:30:36.011Z</time></trkpt><trkpt lat="43.4784033" lon="10.430885"><ele>173.0</ele><time>2026-03-22T13:30:37.011Z</time></trkpt><trkpt lat="43.47847" lon="10.4309633"><ele>173.0</ele><time>2026-03-22T13:30:38.011Z</time></trkpt><trkpt lat="43.478525" lon="10.4310667"><ele>173.0</ele><time>2026-03-22T13:30:39.011Z</time></trkpt><trkpt lat="43.4785767" lon="10.43117"><ele>173.0</ele><time>2026-03-22T13:30:40.01Z</time></trkpt><trkpt lat="43.47863" lon="10.4312617"><ele>173.0</ele><time>2026-03-22T13:30:41.011Z</time></trkpt><trkpt lat="43.4786783" lon="10.4313433"><ele>173.0</ele><time>2026-03-22T13:30:42.012Z</time></trkpt><trkpt lat="43.478745" lon="10.4314683"><ele>173.2</ele><time>2026-03-22T13:30:44.012Z</time></trkpt><trkpt lat="43.47881" lon="10.431465"><ele>173.4</ele><time>2026-03-22T13:30:48.011Z</time></trkpt><trkpt lat="43.4788783" lon="10.4313733"><ele>173.6</ele><time>2026-03-22T13:30:50.011Z</time></trkpt><trkpt lat="43.478925" lon="10.4312783"><ele>173.79999999999998</ele><time>2026-03-22T13:30:51.01Z</time></trkpt><trkpt lat="43.4789817" lon="10.4311733"><ele>174.0</ele><time>2026-03-22T13:30:52.009Z</time></trkpt><trkpt lat="43.4790567" lon="10.431045"><ele>175.39999999999998</ele><time>2026-03-22T13:30:53.011Z</time></trkpt><trkpt lat="43.4791333" lon="10.43092"><ele>176.8</ele><time>2026-03-22T13:30:54.011Z</time></trkpt><trkpt lat="43.4792183" lon="10.4308317"><ele>178.2</ele><time>2026-03-22T13:30:55.011Z</time></trkpt><trkpt lat="43.4793133" lon="10.4307733"><ele>179.60000000000002</ele><time>2026-03-22T13:30:56.009Z</time></trkpt><trkpt lat="43.4794083" lon="10.4307367"><ele>181.0</ele><time>2026-03-22T13:30:57.011Z</time></trkpt><trkpt lat="43.4795067" lon="10.430715"><ele>180.8</ele><time>2026-03-22T13:30:58.011Z</time></trkpt><trkpt lat="43.4796067" lon="10.4307033"><ele>180.60000000000002</ele><time>2026-03-22T13:30:59.011Z</time></trkpt><trkpt lat="43.4797017" lon="10.430675"><ele>180.4</ele><time>2026-03-22T13:31:00.01Z</time></trkpt><trkpt lat="43.4797883" lon="10.4306283"><ele>180.2</ele><time>2026-03-22T13:31:01.011Z</time></trkpt><trkpt lat="43.4798433" lon="10.4305367"><ele>180.0</ele><time>2026-03-22T13:31:02.011Z</time></trkpt><trkpt lat="43.4798783" lon="10.43044"><ele>180.0</ele><time>2026-03-22T13:31:03.011Z</time></trkpt><trkpt lat="43.4798883" lon="10.430335"><ele>180.0</ele><time>2026-03-22T13:31:04.011Z</time></trkpt><trkpt lat="43.4798933" lon="10.4302433"><ele>180.0</ele><time>2026-03-22T13:31:05.011Z</time></trkpt><trkpt lat="43.4799167" lon="10.430155"><ele>180.0</ele><time>2026-03-22T13:31:06.011Z</time></trkpt><trkpt lat="43.479945" lon="10.4300767"><ele>180.0</ele><time>2026-03-22T13:31:07.011Z</time></trkpt><trkpt lat="43.4800433" lon="10.4299817"><ele>180.0</ele><time>2026-03-22T13:31:09.011Z</time></trkpt><trkpt lat="43.4800917" lon="10.4299033"><ele>180.0</ele><time>2026-03-22T13:31:10.01Z</time></trkpt><trkpt lat="43.480125" lon="10.4298183"><ele>180.0</ele><time>2026-03-22T13:31:11.011Z</time></trkpt><trkpt lat="43.4801417" lon="10.4297167"><ele>180.0</ele><time>2026-03-22T13:31:12.011Z</time></trkpt><trkpt lat="43.4801683" lon="10.429625"><ele>180.0</ele><time>2026-03-22T13:31:13.011Z</time></trkpt><trkpt lat="43.4802067" lon="10.4295533"><ele>180.0</ele><time>2026-03-22T13:31:14.011Z</time></trkpt><trkpt lat="43.4803267" lon="10.4295083"><ele>180.0</ele><time>2026-03-22T13:31:16.011Z</time></trkpt><trkpt lat="43.480415" lon="10.4295933"><ele>181.2</ele><time>2026-03-22T13:31:17.012Z</time></trkpt><trkpt lat="43.48047" lon="10.4297517"><ele>182.4</ele><time>2026-03-22T13:31:18.011Z</time></trkpt><trkpt lat="43.4805067" lon="10.4299"><ele>183.60000000000002</ele><time>2026-03-22T13:31:19.01Z</time></trkpt><trkpt lat="43.4805317" lon="10.4300367"><ele>184.8</ele><time>2026-03-22T13:31:20.01Z</time></trkpt><trkpt lat="43.4805667" lon="10.4301733"><ele>186.0</ele><time>2026-03-22T13:31:21.012Z</time></trkpt><trkpt lat="43.4806117" lon="10.4303067"><ele>186.0</ele><time>2026-03-22T13:31:22.011Z</time></trkpt><trkpt lat="43.4806783" lon="10.43042"><ele>186.0</ele><time>2026-03-22T13:31:23.011Z</time></trkpt><trkpt lat="43.48075" lon="10.430535"><ele>186.0</ele><time>2026-03-22T13:31:24.01Z</time></trkpt><trkpt lat="43.4808183" lon="10.4306683"><ele>186.0</ele><time>2026-03-22T13:31:25.012Z</time></trkpt><trkpt lat="43.480875" lon="10.4307967"><ele>186.0</ele><time>2026-03-22T13:31:26.011Z</time></trkpt><trkpt lat="43.4809333" lon="10.4309217"><ele>184.8</ele><time>2026-03-22T13:31:27.01Z</time></trkpt><trkpt lat="43.481" lon="10.4310317"><ele>183.60000000000002</ele><time>2026-03-22T13:31:28.011Z</time></trkpt><trkpt lat="43.4810767" lon="10.431115"><ele>182.4</ele><time>2026-03-22T13:31:29.011Z</time></trkpt><trkpt lat="43.481165" lon="10.4311667"><ele>181.2</ele><time>2026-03-22T13:31:30.012Z</time></trkpt><trkpt lat="43.48126" lon="10.4312"><ele>180.0</ele><time>2026-03-22T13:31:31.011Z</time></trkpt><trkpt lat="43.4813517" lon="10.4312417"><ele>180.83333333333334</ele><time>2026-03-22T13:31:32.011Z</time></trkpt><trkpt lat="43.4814333" lon="10.43131"><ele>181.66666666666666</ele><time>2026-03-22T13:31:33.01Z</time></trkpt><trkpt lat="43.4814867" lon="10.4314067"><ele>182.5</ele><time>2026-03-22T13:31:34.01Z</time></trkpt><trkpt lat="43.4815117" lon="10.431525"><ele>183.33333333333331</ele><time>2026-03-22T13:31:35.011Z</time></trkpt><trkpt lat="43.4815167" lon="10.4316433"><ele>184.16666666666666</ele><time>2026-03-22T13:31:36.01Z</time></trkpt><trkpt lat="43.4815283" lon="10.4317583"><ele>185.0</ele><time>2026-03-22T13:31:37.011Z</time></trkpt><trkpt lat="43.4815533" lon="10.4318717"><ele>185.0</ele><time>2026-03-22T13:31:38.011Z</time></trkpt><trkpt lat="43.481605" lon="10.4319733"><ele>185.0</ele><time>2026-03-22T13:31:39.011Z</time></trkpt><trkpt lat="43.4817183" lon="10.4320683"><ele>185.0</ele><time>2026-03-22T13:31:40.011Z</time></trkpt><trkpt lat="43.4818517" lon="10.4321583"><ele>185.0</ele><time>2026-03-22T13:31:41.011Z</time></trkpt><trkpt lat="43.48198" lon="10.4322667"><ele>186.66666666666666</ele><time>2026-03-22T13:31:42.011Z</time></trkpt><trkpt lat="43.4821167" lon="10.432375"><ele>188.33333333333334</ele><time>2026-03-22T13:31:43.011Z</time></trkpt><trkpt lat="43.4822417" lon="10.4324933"><ele>190.0</ele><time>2026-03-22T13:31:44.011Z</time></trkpt><trkpt lat="43.4823717" lon="10.4326067"><ele>190.0</ele><time>2026-03-22T13:31:45.01Z</time></trkpt><trkpt lat="43.4824983" lon="10.4327167"><ele>190.0</ele><time>2026-03-22T13:31:46.01Z</time></trkpt><trkpt lat="43.4826217" lon="10.4328317"><ele>190.0</ele><time>2026-03-22T13:31:47.011Z</time></trkpt><trkpt lat="43.48274" lon="10.4329483"><ele>190.0</ele><time>2026-03-22T13:31:48.011Z</time></trkpt><trkpt lat="43.4828483" lon="10.43307"><ele>191.0</ele><time>2026-03-22T13:31:49.011Z</time></trkpt><trkpt lat="43.4829467" lon="10.4331933"><ele>192.0</ele><time>2026-03-22T13:31:50.011Z</time></trkpt><trkpt lat="43.4830433" lon="10.4333083"><ele>193.0</ele><time>2026-03-22T13:31:51.01Z</time></trkpt><trkpt lat="43.483135" lon="10.4334083"><ele>194.0</ele><time>2026-03-22T13:31:52.011Z</time></trkpt><trkpt lat="43.4832333" lon="10.433495"><ele>194.0</ele><time>2026-03-22T13:31:53.011Z</time></trkpt><trkpt lat="43.483335" lon="10.4335833"><ele>194.0</ele><time>2026-03-22T13:31:54.011Z</time></trkpt><trkpt lat="43.48344" lon="10.43367"><ele>194.0</ele><time>2026-03-22T13:31:55.01Z</time></trkpt><trkpt lat="43.4835483" lon="10.4337517"><ele>194.0</ele><time>2026-03-22T13:31:56.01Z</time></trkpt><trkpt lat="43.48365" lon="10.43384"><ele>194.6</ele><time>2026-03-22T13:31:57.011Z</time></trkpt><trkpt lat="43.48373" lon="10.433935"><ele>195.2</ele><time>2026-03-22T13:31:58.011Z</time></trkpt><trkpt lat="43.4838083" lon="10.43405"><ele>195.79999999999998</ele><time>2026-03-22T13:31:59.011Z</time></trkpt><trkpt lat="43.4838667" lon="10.43418"><ele>196.39999999999998</ele><time>2026-03-22T13:32:00.011Z</time></trkpt><trkpt lat="43.4839017" lon="10.4343267"><ele>197.0</ele><time>2026-03-22T13:32:01.011Z</time></trkpt><trkpt lat="43.4839317" lon="10.43447"><ele>197.0</ele><time>2026-03-22T13:32:02.011Z</time></trkpt><trkpt lat="43.48398" lon="10.4346083"><ele>197.0</ele><time>2026-03-22T13:32:03.011Z</time></trkpt><trkpt lat="43.4840467" lon="10.434725"><ele>197.0</ele><time>2026-03-22T13:32:04.011Z</time></trkpt><trkpt lat="43.4841283" lon="10.434835"><ele>197.0</ele><time>2026-03-22T13:32:05.011Z</time></trkpt><trkpt lat="43.4842217" lon="10.4349467"><ele>194.75</ele><time>2026-03-22T13:32:06.011Z</time></trkpt><trkpt lat="43.484315" lon="10.4350633"><ele>192.5</ele><time>2026-03-22T13:32:07.011Z</time></trkpt><trkpt lat="43.4844117" lon="10.4351767"><ele>190.25</ele><time>2026-03-22T13:32:08.01Z</time></trkpt><trkpt lat="43.4845067" lon="10.4352767"><ele>188.0</ele><time>2026-03-22T13:32:09.011Z</time></trkpt><trkpt lat="43.4845933" lon="10.43537"><ele>188.8</ele><time>2026-03-22T13:32:10.011Z</time></trkpt><trkpt lat="43.4846617" lon="10.4354717"><ele>189.60000000000002</ele><time>2026-03-22T13:32:11.01Z</time></trkpt><trkpt lat="43.4847233" lon="10.4355917"><ele>190.39999999999998</ele><time>2026-03-22T13:32:12.011Z</time></trkpt><trkpt lat="43.48477" lon="10.4357183"><ele>191.2</ele><time>2026-03-22T13:32:13.011Z</time></trkpt><trkpt lat="43.4848067" lon="10.4358433"><ele>192.0</ele><time>2026-03-22T13:32:14.01Z</time></trkpt><trkpt lat="43.4848583" lon="10.435945"><ele>192.0</ele><time>2026-03-22T13:32:15.011Z</time></trkpt><trkpt lat="43.4849217" lon="10.4360383"><ele>192.0</ele><time>2026-03-22T13:32:16.01Z</time></trkpt><trkpt lat="43.4849933" lon="10.4361183"><ele>192.0</ele><time>2026-03-22T13:32:17.011Z</time></trkpt><trkpt lat="43.4850917" lon="10.43619"><ele>192.0</ele><time>2026-03-22T13:32:18.011Z</time></trkpt><trkpt lat="43.4851867" lon="10.43627"><ele>192.0</ele><time>2026-03-22T13:32:19.011Z</time></trkpt><trkpt lat="43.4852783" lon="10.4363267"><ele>191.16666666666666</ele><time>2026-03-22T13:32:20.011Z</time></trkpt><trkpt lat="43.4853467" lon="10.4363933"><ele>190.33333333333334</ele><time>2026-03-22T13:32:21.011Z</time></trkpt><trkpt lat="43.4853933" lon="10.4364783"><ele>189.5</ele><time>2026-03-22T13:32:22.011Z</time></trkpt><trkpt lat="43.4854117" lon="10.4366"><ele>188.66666666666669</ele><time>2026-03-22T13:32:23.011Z</time></trkpt><trkpt lat="43.485405" lon="10.4367283"><ele>187.83333333333334</ele><time>2026-03-22T13:32:24.01Z</time></trkpt><trkpt lat="43.4854083" lon="10.43683"><ele>187.0</ele><time>2026-03-22T13:32:25.01Z</time></trkpt><trkpt lat="43.4853683" lon="10.436905"><ele>187.0</ele><time>2026-03-22T13:32:26.011Z</time></trkpt><trkpt lat="43.48532" lon="10.4369633"><ele>187.0</ele><time>2026-03-22T13:32:27.01Z</time></trkpt><trkpt lat="43.4852483" lon="10.437065"><ele>187.0</ele><time>2026-03-22T13:32:29.011Z</time></trkpt><trkpt lat="43.4851417" lon="10.43701"><ele>187.0</ele><time>2026-03-22T13:32:30.011Z</time></trkpt><trkpt lat="43.4848233" lon="10.4369467"><ele>187.0</ele><time>2026-03-22T13:32:31.011Z</time></trkpt><trkpt lat="43.484685" lon="10.4369267"><ele>187.0</ele><time>2026-03-22T13:32:32.011Z</time></trkpt><trkpt lat="43.48459" lon="10.4369583"><ele>187.0</ele><time>2026-03-22T13:32:33.011Z</time></trkpt><trkpt lat="43.4845083" lon="10.4370267"><ele>187.0</ele><time>2026-03-22T13:32:34.01Z</time></trkpt><trkpt lat="43.484455" lon="10.4371183"><ele>187.0</ele><time>2026-03-22T13:32:35.011Z</time></trkpt><trkpt lat="43.4844317" lon="10.4372183"><ele>187.5</ele><time>2026-03-22T13:32:36.011Z</time></trkpt><trkpt lat="43.48447" lon="10.4373317"><ele>188.0</ele><time>2026-03-22T13:32:37.011Z</time></trkpt><trkpt lat="43.4845033" lon="10.43743"><ele>188.5</ele><time>2026-03-22T13:32:38.012Z</time></trkpt><trkpt lat="43.4845383" lon="10.4375233"><ele>189.0</ele><time>2026-03-22T13:32:39.011Z</time></trkpt><trkpt lat="43.4845717" lon="10.437605"><ele>189.5</ele><time>2026-03-22T13:32:40.011Z</time></trkpt><trkpt lat="43.484585" lon="10.4376917"><ele>190.0</ele><time>2026-03-22T13:32:41.011Z</time></trkpt><trkpt lat="43.48457" lon="10.437855"><ele>192.4</ele><time>2026-03-22T13:32:43.011Z</time></trkpt><trkpt lat="43.4845033" lon="10.4379967"><ele>194.8</ele><time>2026-03-22T13:32:45.01Z</time></trkpt><trkpt lat="43.4844633" lon="10.4380667"><ele>197.2</ele><time>2026-03-22T13:32:46.011Z</time></trkpt><trkpt lat="43.4844167" lon="10.4381467"><ele>199.6</ele><time>2026-03-22T13:32:47.012Z</time></trkpt><trkpt lat="43.4843617" lon="10.4382283"><ele>202.0</ele><time>2026-03-22T13:32:48.011Z</time></trkpt><trkpt lat="43.48427" lon="10.4383217"><ele>202.0</ele><time>2026-03-22T13:32:49.011Z</time></trkpt><trkpt lat="43.4841567" lon="10.4384167"><ele>202.0</ele><time>2026-03-22T13:32:50.011Z</time></trkpt><trkpt lat="43.484055" lon="10.438505"><ele>202.0</ele><time>2026-03-22T13:32:51.009Z</time></trkpt><trkpt lat="43.4839633" lon="10.43861"><ele>202.0</ele><time>2026-03-22T13:32:52.011Z</time></trkpt><trkpt lat="43.483885" lon="10.4387333"><ele>200.75</ele><time>2026-03-22T13:32:53.01Z</time></trkpt><trkpt lat="43.4838333" lon="10.438885"><ele>199.5</ele><time>2026-03-22T13:32:54.011Z</time></trkpt><trkpt lat="43.483785" lon="10.4390567"><ele>198.25</ele><time>2026-03-22T13:32:55.01Z</time></trkpt><trkpt lat="43.4837567" lon="10.43922"><ele>197.0</ele><time>2026-03-22T13:32:56.011Z</time></trkpt><trkpt lat="43.4837333" lon="10.43937"><ele>197.0</ele><time>2026-03-22T13:32:57.011Z</time></trkpt><trkpt lat="43.4836817" lon="10.439505"><ele>197.0</ele><time>2026-03-22T13:32:58.01Z</time></trkpt><trkpt lat="43.4836117" lon="10.4396317"><ele>197.0</ele><time>2026-03-22T13:32:59.011Z</time></trkpt><trkpt lat="43.4835367" lon="10.4397533"><ele>197.0</ele><time>2026-03-22T13:33:00.012Z</time></trkpt><trkpt lat="43.4834483" lon="10.4398617"><ele>198.75</ele><time>2026-03-22T13:33:01.011Z</time></trkpt><trkpt lat="43.4833583" lon="10.4399667"><ele>200.5</ele><time>2026-03-22T13:33:02.012Z</time></trkpt><trkpt lat="43.48327" lon="10.44008"><ele>202.25</ele><time>2026-03-22T13:33:03.011Z</time></trkpt><trkpt lat="43.4831883" lon="10.4402"><ele>204.0</ele><time>2026-03-22T13:33:04.011Z</time></trkpt><trkpt lat="43.4831067" lon="10.440315"><ele>204.0</ele><time>2026-03-22T13:33:05.011Z</time></trkpt><trkpt lat="43.483025" lon="10.4404317"><ele>204.0</ele><time>2026-03-22T13:33:06.01Z</time></trkpt><trkpt lat="43.4829483" lon="10.44055"><ele>204.0</ele><time>2026-03-22T13:33:07.011Z</time></trkpt><trkpt lat="43.4828683" lon="10.4406583"><ele>204.0</ele><time>2026-03-22T13:33:08.011Z</time></trkpt><trkpt lat="43.4827967" lon="10.4407717"><ele>204.16666666666666</ele><time>2026-03-22T13:33:09.011Z</time></trkpt><trkpt lat="43.48273" lon="10.4408783"><ele>204.33333333333331</ele><time>2026-03-22T13:33:10.011Z</time></trkpt><trkpt lat="43.4826717" lon="10.440975"><ele>204.5</ele><time>2026-03-22T13:33:11.011Z</time></trkpt><trkpt lat="43.4826167" lon="10.4410583"><ele>204.66666666666666</ele><time>2026-03-22T13:33:12.011Z</time></trkpt><trkpt lat="43.4825783" lon="10.441135"><ele>204.83333333333331</ele><time>2026-03-22T13:33:13.013Z</time></trkpt><trkpt lat="43.48253" lon="10.4411933"><ele>205.0</ele><time>2026-03-22T13:33:15.01Z</time></trkpt><trkpt lat="43.482445" lon="10.4412567"><ele>205.0</ele><time>2026-03-22T13:33:18.01Z</time></trkpt><trkpt lat="43.4823533" lon="10.4412883"><ele>205.0</ele><time>2026-03-22T13:33:20.01Z</time></trkpt><trkpt lat="43.48227" lon="10.44129"><ele>205.0</ele><time>2026-03-22T13:33:22.01Z</time></trkpt><trkpt lat="43.4821767" lon="10.4412267"><ele>205.0</ele><time>2026-03-22T13:33:24.011Z</time></trkpt><trkpt lat="43.48207" lon="10.441135"><ele>205.0</ele><time>2026-03-22T13:33:26.011Z</time></trkpt><trkpt lat="43.4819517" lon="10.4410583"><ele>204.71428571428572</ele><time>2026-03-22T13:33:28.011Z</time></trkpt><trkpt lat="43.4818883" lon="10.4410383"><ele>204.42857142857142</ele><time>2026-03-22T13:33:29.011Z</time></trkpt><trkpt lat="43.4818217" lon="10.4410117"><ele>204.14285714285714</ele><time>2026-03-22T13:33:30.011Z</time></trkpt><trkpt lat="43.481755" lon="10.4410233"><ele>203.85714285714286</ele><time>2026-03-22T13:33:31.011Z</time></trkpt><trkpt lat="43.481715" lon="10.4411067"><ele>203.57142857142856</ele><time>2026-03-22T13:33:32.011Z</time></trkpt><trkpt lat="43.4816683" lon="10.4412033"><ele>203.28571428571428</ele><time>2026-03-22T13:33:33.011Z</time></trkpt><trkpt lat="43.481635" lon="10.4413"><ele>203.0</ele><time>2026-03-22T13:33:34.011Z</time></trkpt><trkpt lat="43.4816183" lon="10.4414217"><ele>201.8</ele><time>2026-03-22T13:33:35.01Z</time></trkpt><trkpt lat="43.4816433" lon="10.4415667"><ele>200.60000000000002</ele><time>2026-03-22T13:33:36.01Z</time></trkpt><trkpt lat="43.481675" lon="10.4417083"><ele>199.39999999999998</ele><time>2026-03-22T13:33:37.011Z</time></trkpt><trkpt lat="43.4816917" lon="10.4418383"><ele>198.2</ele><time>2026-03-22T13:33:38.01Z</time></trkpt><trkpt lat="43.4817117" lon="10.441975"><ele>197.0</ele><time>2026-03-22T13:33:39.01Z</time></trkpt><trkpt lat="43.4817383" lon="10.442115"><ele>195.6</ele><time>2026-03-22T13:33:40.01Z</time></trkpt><trkpt lat="43.4817583" lon="10.442255"><ele>194.2</ele><time>2026-03-22T13:33:41.011Z</time></trkpt><trkpt lat="43.48178" lon="10.4423933"><ele>192.8</ele><time>2026-03-22T13:33:42.011Z</time></trkpt><trkpt lat="43.4817983" lon="10.44253"><ele>191.4</ele><time>2026-03-22T13:33:43.01Z</time></trkpt><trkpt lat="43.4818167" lon="10.4426617"><ele>190.0</ele><time>2026-03-22T13:33:44.011Z</time></trkpt><trkpt lat="43.4818333" lon="10.4427867"><ele>190.0</ele><time>2026-03-22T13:33:45.011Z</time></trkpt><trkpt lat="43.4818467" lon="10.4428967"><ele>190.0</ele><time>2026-03-22T13:33:46.011Z</time></trkpt><trkpt lat="43.4818617" lon="10.4429967"><ele>190.0</ele><time>2026-03-22T13:33:47.011Z</time></trkpt><trkpt lat="43.481865" lon="10.4430983"><ele>190.0</ele><time>2026-03-22T13:33:48.011Z</time></trkpt><trkpt lat="43.4818467" lon="10.4432033"><ele>190.0</ele><time>2026-03-22T13:33:49.01Z</time></trkpt><trkpt lat="43.48181" lon="10.4433117"><ele>190.0</ele><time>2026-03-22T13:33:50.011Z</time></trkpt><trkpt lat="43.4817617" lon="10.44343"><ele>189.0</ele><time>2026-03-22T13:33:51.01Z</time></trkpt><trkpt lat="43.4817283" lon="10.4435633"><ele>188.0</ele><time>2026-03-22T13:33:52.011Z</time></trkpt><trkpt lat="43.48171" lon="10.4437183"><ele>187.0</ele><time>2026-03-22T13:33:53.011Z</time></trkpt><trkpt lat="43.481705" lon="10.44387"><ele>186.0</ele><time>2026-03-22T13:33:54.01Z</time></trkpt><trkpt lat="43.4816967" lon="10.4440233"><ele>185.0</ele><time>2026-03-22T13:33:55.011Z</time></trkpt><trkpt lat="43.481685" lon="10.4441633"><ele>185.0</ele><time>2026-03-22T13:33:56.01Z</time></trkpt><trkpt lat="43.4816483" lon="10.44429"><ele>185.0</ele><time>2026-03-22T13:33:57.011Z</time></trkpt><trkpt lat="43.4815833" lon="10.4444067"><ele>185.0</ele><time>2026-03-22T13:33:58.009Z</time></trkpt><trkpt lat="43.4814883" lon="10.444495"><ele>185.0</ele><time>2026-03-22T13:33:59.011Z</time></trkpt><trkpt lat="43.48138" lon="10.44457"><ele>185.0</ele><time>2026-03-22T13:34:00.011Z</time></trkpt><trkpt lat="43.4812617" lon="10.4446417"><ele>181.5</ele><time>2026-03-22T13:34:01.01Z</time></trkpt><trkpt lat="43.4811433" lon="10.4447117"><ele>178.0</ele><time>2026-03-22T13:34:02.011Z</time></trkpt><trkpt lat="43.481035" lon="10.4447917"><ele>174.5</ele><time>2026-03-22T13:34:03.01Z</time></trkpt><trkpt lat="43.480955" lon="10.4449033"><ele>171.0</ele><time>2026-03-22T13:34:04.011Z</time></trkpt><trkpt lat="43.4809067" lon="10.4450433"><ele>171.0</ele><time>2026-03-22T13:34:05.011Z</time></trkpt><trkpt lat="43.4808967" lon="10.445195"><ele>171.0</ele><time>2026-03-22T13:34:06.011Z</time></trkpt><trkpt lat="43.4809133" lon="10.4453617"><ele>171.0</ele><time>2026-03-22T13:34:07.011Z</time></trkpt><trkpt lat="43.4809683" lon="10.44553"><ele>171.0</ele><time>2026-03-22T13:34:08.011Z</time></trkpt><trkpt lat="43.4810417" lon="10.4457067"><ele>169.66666666666666</ele><time>2026-03-22T13:34:09.011Z</time></trkpt><trkpt lat="43.4811183" lon="10.4458967"><ele>168.33333333333331</ele><time>2026-03-22T13:34:10.01Z</time></trkpt><trkpt lat="43.4812" lon="10.44609"><ele>167.0</ele><time>2026-03-22T13:34:11.011Z</time></trkpt><trkpt lat="43.4812817" lon="10.4462883"><ele>166.0</ele><time>2026-03-22T13:34:12.01Z</time></trkpt><trkpt lat="43.4813717" lon="10.4464767"><ele>165.0</ele><time>2026-03-22T13:34:13.01Z</time></trkpt><trkpt lat="43.481475" lon="10.4466483"><ele>164.0</ele><time>2026-03-22T13:34:14.012Z</time></trkpt><trkpt lat="43.4815767" lon="10.4468083"><ele>164.0</ele><time>2026-03-22T13:34:15.011Z</time></trkpt><trkpt lat="43.4816667" lon="10.4469767"><ele>164.0</ele><time>2026-03-22T13:34:16.012Z</time></trkpt><trkpt lat="43.4817367" lon="10.4471583"><ele>164.0</ele><time>2026-03-22T13:34:17.011Z</time></trkpt><trkpt lat="43.4817933" lon="10.4473333"><ele>164.0</ele><time>2026-03-22T13:34:18.011Z</time></trkpt><trkpt lat="43.4818417" lon="10.4474917"><ele>165.5</ele><time>2026-03-22T13:34:19.011Z</time></trkpt><trkpt lat="43.4819083" lon="10.4476233"><ele>167.0</ele><time>2026-03-22T13:34:20.01Z</time></trkpt><trkpt lat="43.481995" lon="10.44773"><ele>168.5</ele><time>2026-03-22T13:34:21.011Z</time></trkpt><trkpt lat="43.4821017" lon="10.4478133"><ele>170.0</ele><time>2026-03-22T13:34:22.011Z</time></trkpt><trkpt lat="43.4822233" lon="10.447875"><ele>170.0</ele><time>2026-03-22T13:34:23.011Z</time></trkpt><trkpt lat="43.4823383" lon="10.4479467"><ele>170.0</ele><time>2026-03-22T13:34:24.011Z</time></trkpt><trkpt lat="43.48244" lon="10.448035"><ele>170.0</ele><time>2026-03-22T13:34:25.011Z</time></trkpt><trkpt lat="43.482505" lon="10.4481617"><ele>170.0</ele><time>2026-03-22T13:34:26.012Z</time></trkpt><trkpt lat="43.4825317" lon="10.4483233"><ele>165.5</ele><time>2026-03-22T13:34:27.01Z</time></trkpt><trkpt lat="43.4825333" lon="10.4484967"><ele>161.0</ele><time>2026-03-22T13:34:28.011Z</time></trkpt><trkpt lat="43.4825117" lon="10.4486817"><ele>156.5</ele><time>2026-03-22T13:34:29.011Z</time></trkpt><trkpt lat="43.48248" lon="10.4488683"><ele>152.0</ele><time>2026-03-22T13:34:30.011Z</time></trkpt><trkpt lat="43.4824633" lon="10.44905"><ele>150.25</ele><time>2026-03-22T13:34:31.011Z</time></trkpt><trkpt lat="43.48247" lon="10.4492267"><ele>148.5</ele><time>2026-03-22T13:34:32.01Z</time></trkpt><trkpt lat="43.4825117" lon="10.4493983"><ele>146.75</ele><time>2026-03-22T13:34:33.011Z</time></trkpt><trkpt lat="43.4825833" lon="10.4495583"><ele>145.0</ele><time>2026-03-22T13:34:34.01Z</time></trkpt><trkpt lat="43.48268" lon="10.44971"><ele>144.75</ele><time>2026-03-22T13:34:35.01Z</time></trkpt><trkpt lat="43.482785" lon="10.4498583"><ele>144.5</ele><time>2026-03-22T13:34:36.01Z</time></trkpt><trkpt lat="43.48289" lon="10.4500017"><ele>144.25</ele><time>2026-03-22T13:34:37.009Z</time></trkpt><trkpt lat="43.48299" lon="10.45014"><ele>144.0</ele><time>2026-03-22T13:34:38.009Z</time></trkpt><trkpt lat="43.4830817" lon="10.45029"><ele>144.0</ele><time>2026-03-22T13:34:39.009Z</time></trkpt><trkpt lat="43.4831383" lon="10.4504533"><ele>144.0</ele><time>2026-03-22T13:34:40.009Z</time></trkpt><trkpt lat="43.4831633" lon="10.4506383"><ele>144.0</ele><time>2026-03-22T13:34:41.009Z</time></trkpt><trkpt lat="43.483175" lon="10.4508317"><ele>144.0</ele><time>2026-03-22T13:34:42.009Z</time></trkpt><trkpt lat="43.4831783" lon="10.4510233"><ele>140.33333333333334</ele><time>2026-03-22T13:34:43.009Z</time></trkpt><trkpt lat="43.4831783" lon="10.4512267"><ele>136.66666666666669</ele><time>2026-03-22T13:34:44.009Z</time></trkpt><trkpt lat="43.4831533" lon="10.4514333"><ele>133.0</ele><time>2026-03-22T13:34:45.01Z</time></trkpt><trkpt lat="43.483105" lon="10.4516317"><ele>129.66666666666669</ele><time>2026-03-22T13:34:46.009Z</time></trkpt><trkpt lat="43.4830433" lon="10.45183"><ele>126.33333333333334</ele><time>2026-03-22T13:34:47.009Z</time></trkpt><trkpt lat="43.4829683" lon="10.452035"><ele>123.0</ele><time>2026-03-22T13:34:48.01Z</time></trkpt><trkpt lat="43.4828933" lon="10.4522433"><ele>121.66666666666666</ele><time>2026-03-22T13:34:49.01Z</time></trkpt><trkpt lat="43.48283" lon="10.4524483"><ele>120.33333333333333</ele><time>2026-03-22T13:34:50.011Z</time></trkpt><trkpt lat="43.4827667" lon="10.45265"><ele>119.0</ele><time>2026-03-22T13:34:51.01Z</time></trkpt><trkpt lat="43.4827" lon="10.4528483"><ele>116.25</ele><time>2026-03-22T13:34:52.01Z</time></trkpt><trkpt lat="43.48263" lon="10.4530333"><ele>113.5</ele><time>2026-03-22T13:34:53.01Z</time></trkpt><trkpt lat="43.4825467" lon="10.4531983"><ele>110.75</ele><time>2026-03-22T13:34:54.011Z</time></trkpt><trkpt lat="43.4824417" lon="10.4533317"><ele>108.0</ele><time>2026-03-22T13:34:55.011Z</time></trkpt><trkpt lat="43.48232" lon="10.4534333"><ele>108.0</ele><time>2026-03-22T13:34:56.01Z</time></trkpt><trkpt lat="43.4821933" lon="10.45352"><ele>108.0</ele><time>2026-03-22T13:34:57.01Z</time></trkpt><trkpt lat="43.48208" lon="10.4536183"><ele>108.0</ele><time>2026-03-22T13:34:58.01Z</time></trkpt><trkpt lat="43.4819917" lon="10.453755"><ele>108.0</ele><time>2026-03-22T13:34:59.009Z</time></trkpt><trkpt lat="43.4819283" lon="10.4539283"><ele>105.0</ele><time>2026-03-22T13:35:00.01Z</time></trkpt><trkpt lat="43.4818883" lon="10.4541383"><ele>102.0</ele><time>2026-03-22T13:35:01.01Z</time></trkpt><trkpt lat="43.4818667" lon="10.45436"><ele>99.0</ele><time>2026-03-22T13:35:02.009Z</time></trkpt><trkpt lat="43.4818433" lon="10.4545867"><ele>97.66666666666667</ele><time>2026-03-22T13:35:03.01Z</time></trkpt><trkpt lat="43.48182" lon="10.4548183"><ele>96.33333333333334</ele><time>2026-03-22T13:35:04.009Z</time></trkpt><trkpt lat="43.4817983" lon="10.4550517"><ele>95.0</ele><time>2026-03-22T13:35:05.01Z</time></trkpt><trkpt lat="43.4817683" lon="10.4552883"><ele>93.66666666666667</ele><time>2026-03-22T13:35:06.009Z</time></trkpt><trkpt lat="43.4817483" lon="10.4555267"><ele>92.33333333333333</ele><time>2026-03-22T13:35:07.01Z</time></trkpt><trkpt lat="43.4817333" lon="10.4557667"><ele>91.0</ele><time>2026-03-22T13:35:08.009Z</time></trkpt><trkpt lat="43.48172" lon="10.4560083"><ele>91.0</ele><time>2026-03-22T13:35:09.01Z</time></trkpt><trkpt lat="43.4817217" lon="10.45625"><ele>91.0</ele><time>2026-03-22T13:35:10.009Z</time></trkpt><trkpt lat="43.4817417" lon="10.4564867"><ele>91.0</ele><time>2026-03-22T13:35:11.01Z</time></trkpt><trkpt lat="43.48178" lon="10.4567167"><ele>91.33333333333333</ele><time>2026-03-22T13:35:12.009Z</time></trkpt><trkpt lat="43.4818367" lon="10.4569433"><ele>91.66666666666667</ele><time>2026-03-22T13:35:13.008Z</time></trkpt><trkpt lat="43.48191" lon="10.4571633"><ele>92.0</ele><time>2026-03-22T13:35:14.01Z</time></trkpt><trkpt lat="43.481985" lon="10.4573767"><ele>91.33333333333334</ele><time>2026-03-22T13:35:15.01Z</time></trkpt><trkpt lat="43.4820567" lon="10.45759"><ele>90.66666666666667</ele><time>2026-03-22T13:35:16.01Z</time></trkpt><trkpt lat="43.482115" lon="10.4577917"><ele>90.0</ele><time>2026-03-22T13:35:17.007Z</time></trkpt><trkpt lat="43.4821533" lon="10.4580033"><ele>87.66666666666667</ele><time>2026-03-22T13:35:18.01Z</time></trkpt><trkpt lat="43.482175" lon="10.4582217"><ele>85.33333333333334</ele><time>2026-03-22T13:35:19.011Z</time></trkpt><trkpt lat="43.48218" lon="10.4584617"><ele>83.0</ele><time>2026-03-22T13:35:20.01Z</time></trkpt><trkpt lat="43.482185" lon="10.4587133"><ele>82.0</ele><time>2026-03-22T13:35:21.011Z</time></trkpt><trkpt lat="43.48219" lon="10.4589683"><ele>81.0</ele><time>2026-03-22T13:35:22.01Z</time></trkpt><trkpt lat="43.4821867" lon="10.4592333"><ele>80.0</ele><time>2026-03-22T13:35:23.01Z</time></trkpt><trkpt lat="43.4821817" lon="10.4594983"><ele>80.0</ele><time>2026-03-22T13:35:24.01Z</time></trkpt><trkpt lat="43.4821667" lon="10.4597617"><ele>80.0</ele><time>2026-03-22T13:35:25.01Z</time></trkpt><trkpt lat="43.4821417" lon="10.46002"><ele>80.0</ele><time>2026-03-22T13:35:26.01Z</time></trkpt><trkpt lat="43.48212" lon="10.4602733"><ele>80.33333333333334</ele><time>2026-03-22T13:35:27.01Z</time></trkpt><trkpt lat="43.4821" lon="10.4605133"><ele>80.66666666666667</ele><time>2026-03-22T13:35:28.01Z</time></trkpt><trkpt lat="43.482085" lon="10.4607417"><ele>81.0</ele><time>2026-03-22T13:35:29.01Z</time></trkpt><trkpt lat="43.4820867" lon="10.46096"><ele>79.0</ele><time>2026-03-22T13:35:30.01Z</time></trkpt><trkpt lat="43.4821167" lon="10.4611717"><ele>77.0</ele><time>2026-03-22T13:35:31.01Z</time></trkpt><trkpt lat="43.4821817" lon="10.4613633"><ele>75.0</ele><time>2026-03-22T13:35:32.01Z</time></trkpt><trkpt lat="43.4822833" lon="10.46153"><ele>74.33333333333333</ele><time>2026-03-22T13:35:33.01Z</time></trkpt><trkpt lat="43.48241" lon="10.4616833"><ele>73.66666666666666</ele><time>2026-03-22T13:35:34.01Z</time></trkpt><trkpt lat="43.4825567" lon="10.4618133"><ele>73.0</ele><time>2026-03-22T13:35:35.011Z</time></trkpt><trkpt lat="43.482715" lon="10.461935"><ele>73.0</ele><time>2026-03-22T13:35:36.01Z</time></trkpt><trkpt lat="43.4828767" lon="10.462065"><ele>73.0</ele><time>2026-03-22T13:35:37.009Z</time></trkpt><trkpt lat="43.4830383" lon="10.4622017"><ele>73.0</ele><time>2026-03-22T13:35:38.01Z</time></trkpt><trkpt lat="43.4831967" lon="10.4623383"><ele>72.33333333333333</ele><time>2026-03-22T13:35:39.01Z</time></trkpt><trkpt lat="43.483345" lon="10.4625033"><ele>71.66666666666667</ele><time>2026-03-22T13:35:40.01Z</time></trkpt><trkpt lat="43.4834667" lon="10.4626933"><ele>71.0</ele><time>2026-03-22T13:35:41.01Z</time></trkpt><trkpt lat="43.48357" lon="10.4629117"><ele>70.66666666666667</ele><time>2026-03-22T13:35:42.009Z</time></trkpt><trkpt lat="43.4836683" lon="10.463145"><ele>70.33333333333333</ele><time>2026-03-22T13:35:43.009Z</time></trkpt><trkpt lat="43.48377" lon="10.4633883"><ele>70.0</ele><time>2026-03-22T13:35:44.011Z</time></trkpt><trkpt lat="43.4838783" lon="10.463625"><ele>68.33333333333333</ele><time>2026-03-22T13:35:45.011Z</time></trkpt><trkpt lat="43.4839917" lon="10.4638517"><ele>66.66666666666667</ele><time>2026-03-22T13:35:46.012Z</time></trkpt><trkpt lat="43.48411" lon="10.464065"><ele>65.0</ele><time>2026-03-22T13:35:47.011Z</time></trkpt><trkpt lat="43.484225" lon="10.46427"><ele>65.0</ele><time>2026-03-22T13:35:48.012Z</time></trkpt><trkpt lat="43.4843367" lon="10.464465"><ele>65.0</ele><time>2026-03-22T13:35:49.011Z</time></trkpt><trkpt lat="43.4844383" lon="10.4646467"><ele>65.0</ele><time>2026-03-22T13:35:50.013Z</time></trkpt><trkpt lat="43.4845383" lon="10.464815"><ele>65.75</ele><time>2026-03-22T13:35:51.01Z</time></trkpt><trkpt lat="43.4846283" lon="10.4649783"><ele>66.5</ele><time>2026-03-22T13:35:52.01Z</time></trkpt><trkpt lat="43.4847083" lon="10.4651317"><ele>67.25</ele><time>2026-03-22T13:35:53.012Z</time></trkpt><trkpt lat="43.484785" lon="10.465285"><ele>68.0</ele><time>2026-03-22T13:35:54.01Z</time></trkpt><trkpt lat="43.48485" lon="10.4654317"><ele>67.4</ele><time>2026-03-22T13:35:55.01Z</time></trkpt><trkpt lat="43.4849033" lon="10.465565"><ele>66.8</ele><time>2026-03-22T13:35:56.01Z</time></trkpt><trkpt lat="43.48495" lon="10.4656867"><ele>66.2</ele><time>2026-03-22T13:35:57.01Z</time></trkpt><trkpt lat="43.4849917" lon="10.4658"><ele>65.6</ele><time>2026-03-22T13:35:58.009Z</time></trkpt><trkpt lat="43.4850283" lon="10.4659033"><ele>65.0</ele><time>2026-03-22T13:35:59.009Z</time></trkpt><trkpt lat="43.485055" lon="10.4659967"><ele>65.0</ele><time>2026-03-22T13:36:00.01Z</time></trkpt><trkpt lat="43.485075" lon="10.46608"><ele>65.0</ele><time>2026-03-22T13:36:01.01Z</time></trkpt><trkpt lat="43.4851067" lon="10.4662183"><ele>65.0</ele><time>2026-03-22T13:36:03.009Z</time></trkpt><trkpt lat="43.485135" lon="10.4662983"><ele>65.0</ele><time>2026-03-22T13:36:20.009Z</time></trkpt><trkpt lat="43.4851833" lon="10.4663617"><ele>65.0</ele><time>2026-03-22T13:36:22.009Z</time></trkpt><trkpt lat="43.485315" lon="10.4664083"><ele>65.0</ele><time>2026-03-22T13:36:24.009Z</time></trkpt><trkpt lat="43.4854317" lon="10.4663883"><ele>66.0</ele><time>2026-03-22T13:36:25.01Z</time></trkpt><trkpt lat="43.4855917" lon="10.46635"><ele>67.0</ele><time>2026-03-22T13:36:26.009Z</time></trkpt><trkpt lat="43.4857717" lon="10.4663283"><ele>68.0</ele><time>2026-03-22T13:36:27.009Z</time></trkpt><trkpt lat="43.48596" lon="10.466315"><ele>68.0</ele><time>2026-03-22T13:36:28.01Z</time></trkpt><trkpt lat="43.4861583" lon="10.4663117"><ele>68.0</ele><time>2026-03-22T13:36:29.011Z</time></trkpt><trkpt lat="43.4863633" lon="10.466305"><ele>68.0</ele><time>2026-03-22T13:36:30.011Z</time></trkpt><trkpt lat="43.486575" lon="10.466295"><ele>68.66666666666667</ele><time>2026-03-22T13:36:31.011Z</time></trkpt><trkpt lat="43.4867867" lon="10.4662783"><ele>69.33333333333333</ele><time>2026-03-22T13:36:32.012Z</time></trkpt><trkpt lat="43.487" lon="10.4662667"><ele>70.0</ele><time>2026-03-22T13:36:33.011Z</time></trkpt><trkpt lat="43.487215" lon="10.4662533"><ele>70.66666666666666</ele><time>2026-03-22T13:36:34.012Z</time></trkpt><trkpt lat="43.4874317" lon="10.466235"><ele>71.33333333333333</ele><time>2026-03-22T13:36:35.011Z</time></trkpt><trkpt lat="43.48764" lon="10.4662067"><ele>72.0</ele><time>2026-03-22T13:36:36.012Z</time></trkpt><trkpt lat="43.4878333" lon="10.4661583"><ele>73.33333333333333</ele><time>2026-03-22T13:36:37.011Z</time></trkpt><trkpt lat="43.4880183" lon="10.4660583"><ele>74.66666666666666</ele><time>2026-03-22T13:36:38.01Z</time></trkpt><trkpt lat="43.4881917" lon="10.4659117"><ele>76.0</ele><time>2026-03-22T13:36:39.011Z</time></trkpt><trkpt lat="43.4883633" lon="10.4657467"><ele>76.0</ele><time>2026-03-22T13:36:40.01Z</time></trkpt><trkpt lat="43.4885333" lon="10.46558"><ele>76.0</ele><time>2026-03-22T13:36:41.011Z</time></trkpt><trkpt lat="43.4887133" lon="10.4654317"><ele>76.0</ele><time>2026-03-22T13:36:42.011Z</time></trkpt><trkpt lat="43.4889" lon="10.4653033"><ele>77.66666666666666</ele><time>2026-03-22T13:36:43.011Z</time></trkpt><trkpt lat="43.4891" lon="10.4652183"><ele>79.33333333333333</ele><time>2026-03-22T13:36:44.011Z</time></trkpt><trkpt lat="43.4893067" lon="10.4651633"><ele>81.0</ele><time>2026-03-22T13:36:45.011Z</time></trkpt><trkpt lat="43.4895233" lon="10.4651283"><ele>81.0</ele><time>2026-03-22T13:36:46.009Z</time></trkpt><trkpt lat="43.4897383" lon="10.465095"><ele>81.0</ele><time>2026-03-22T13:36:47.01Z</time></trkpt><trkpt lat="43.4899467" lon="10.4650583"><ele>81.0</ele><time>2026-03-22T13:36:48.01Z</time></trkpt><trkpt lat="43.4901433" lon="10.4650283"><ele>81.0</ele><time>2026-03-22T13:36:49.011Z</time></trkpt><trkpt lat="43.4903367" lon="10.4650267"><ele>81.0</ele><time>2026-03-22T13:36:50.01Z</time></trkpt><trkpt lat="43.4905317" lon="10.4650683"><ele>81.0</ele><time>2026-03-22T13:36:51.01Z</time></trkpt><trkpt lat="43.490725" lon="10.4651467"><ele>79.66666666666667</ele><time>2026-03-22T13:36:52.009Z</time></trkpt><trkpt lat="43.490915" lon="10.465255"><ele>78.33333333333334</ele><time>2026-03-22T13:36:53.01Z</time></trkpt><trkpt lat="43.49111" lon="10.4653683"><ele>77.0</ele><time>2026-03-22T13:36:54.01Z</time></trkpt><trkpt lat="43.4913117" lon="10.4654833"><ele>75.0</ele><time>2026-03-22T13:36:55.01Z</time></trkpt><trkpt lat="43.4915233" lon="10.4656"><ele>73.0</ele><time>2026-03-22T13:36:56.011Z</time></trkpt><trkpt lat="43.4917333" lon="10.465705"><ele>73.0</ele><time>2026-03-22T13:36:57.01Z</time></trkpt><trkpt lat="43.491945" lon="10.4658117"><ele>73.0</ele><time>2026-03-22T13:36:58.01Z</time></trkpt><trkpt lat="43.49216" lon="10.4659217"><ele>71.0</ele><time>2026-03-22T13:36:59.01Z</time></trkpt><trkpt lat="43.4923767" lon="10.46603"><ele>69.0</ele><time>2026-03-22T13:37:00.01Z</time></trkpt><trkpt lat="43.492595" lon="10.4661417"><ele>69.0</ele><time>2026-03-22T13:37:01.009Z</time></trkpt><trkpt lat="43.492815" lon="10.4662483"><ele>69.0</ele><time>2026-03-22T13:37:02.01Z</time></trkpt><trkpt lat="43.4930367" lon="10.466355"><ele>69.0</ele><time>2026-03-22T13:37:03.01Z</time></trkpt><trkpt lat="43.49326" lon="10.4664583"><ele>69.0</ele><time>2026-03-22T13:37:04.01Z</time></trkpt><trkpt lat="43.4934833" lon="10.4665617"><ele>69.0</ele><time>2026-03-22T13:37:05.01Z</time></trkpt><trkpt lat="43.4937083" lon="10.46667"><ele>69.0</ele><time>2026-03-22T13:37:06.009Z</time></trkpt><trkpt lat="43.493935" lon="10.4667833"><ele>69.5</ele><time>2026-03-22T13:37:07.01Z</time></trkpt><trkpt lat="43.49416" lon="10.4668917"><ele>70.0</ele><time>2026-03-22T13:37:08.01Z</time></trkpt><trkpt lat="43.4943867" lon="10.4670017"><ele>70.0</ele><time>2026-03-22T13:37:09.009Z</time></trkpt><trkpt lat="43.4946083" lon="10.4671067"><ele>70.0</ele><time>2026-03-22T13:37:10.01Z</time></trkpt><trkpt lat="43.49483" lon="10.4672033"><ele>70.5</ele><time>2026-03-22T13:37:11.009Z</time></trkpt><trkpt lat="43.4950483" lon="10.467295"><ele>71.0</ele><time>2026-03-22T13:37:12.01Z</time></trkpt><trkpt lat="43.49527" lon="10.4673683"><ele>72.66666666666667</ele><time>2026-03-22T13:37:13.011Z</time></trkpt><trkpt lat="43.4954917" lon="10.46742"><ele>74.33333333333333</ele><time>2026-03-22T13:37:14.012Z</time></trkpt><trkpt lat="43.4957133" lon="10.4674433"><ele>76.0</ele><time>2026-03-22T13:37:15.009Z</time></trkpt><trkpt lat="43.4959367" lon="10.46744"><ele>76.0</ele><time>2026-03-22T13:37:16.01Z</time></trkpt><trkpt lat="43.4961583" lon="10.467415"><ele>76.0</ele><time>2026-03-22T13:37:17.01Z</time></trkpt><trkpt lat="43.4963767" lon="10.4673633"><ele>76.0</ele><time>2026-03-22T13:37:18.01Z</time></trkpt><trkpt lat="43.4965933" lon="10.467285"><ele>76.66666666666666</ele><time>2026-03-22T13:37:19.011Z</time></trkpt><trkpt lat="43.4968033" lon="10.4671833"><ele>77.33333333333333</ele><time>2026-03-22T13:37:20.01Z</time></trkpt><trkpt lat="43.49701" lon="10.467065"><ele>78.0</ele><time>2026-03-22T13:37:21.01Z</time></trkpt><trkpt lat="43.4972167" lon="10.4669383"><ele>79.66666666666667</ele><time>2026-03-22T13:37:22.01Z</time></trkpt><trkpt lat="43.4974233" lon="10.4668117"><ele>81.33333333333334</ele><time>2026-03-22T13:37:23.01Z</time></trkpt><trkpt lat="43.497625" lon="10.4666817"><ele>83.0</ele><time>2026-03-22T13:37:24.01Z</time></trkpt><trkpt lat="43.497825" lon="10.4665517"><ele>83.66666666666667</ele><time>2026-03-22T13:37:25.008Z</time></trkpt><trkpt lat="43.4980217" lon="10.4664233"><ele>84.33333333333333</ele><time>2026-03-22T13:37:26.01Z</time></trkpt><trkpt lat="43.4982167" lon="10.4662967"><ele>85.0</ele><time>2026-03-22T13:37:27.01Z</time></trkpt><trkpt lat="43.4984117" lon="10.4661717"><ele>85.66666666666666</ele><time>2026-03-22T13:37:28.01Z</time></trkpt><trkpt lat="43.498605" lon="10.46605"><ele>86.33333333333333</ele><time>2026-03-22T13:37:29.008Z</time></trkpt><trkpt lat="43.4988017" lon="10.4659283"><ele>87.0</ele><time>2026-03-22T13:37:30.01Z</time></trkpt><trkpt lat="43.4989983" lon="10.4658067"><ele>87.0</ele><time>2026-03-22T13:37:31.009Z</time></trkpt><trkpt lat="43.499195" lon="10.4656833"><ele>87.0</ele><time>2026-03-22T13:37:32.01Z</time></trkpt><trkpt lat="43.49939" lon="10.4655583"><ele>87.0</ele><time>2026-03-22T13:37:33.01Z</time></trkpt><trkpt lat="43.499585" lon="10.4654333"><ele>88.0</ele><time>2026-03-22T13:37:34.01Z</time></trkpt><trkpt lat="43.499775" lon="10.4653017"><ele>89.0</ele><time>2026-03-22T13:37:35.01Z</time></trkpt><trkpt lat="43.4999683" lon="10.465175"><ele>90.0</ele><time>2026-03-22T13:37:36.011Z</time></trkpt><trkpt lat="43.5001533" lon="10.46504"><ele>90.0</ele><time>2026-03-22T13:37:37.01Z</time></trkpt><trkpt lat="43.5003383" lon="10.4649117"><ele>90.0</ele><time>2026-03-22T13:37:38.009Z</time></trkpt><trkpt lat="43.50052" lon="10.4648"><ele>90.0</ele><time>2026-03-22T13:37:39.01Z</time></trkpt><trkpt lat="43.5006917" lon="10.464695"><ele>88.0</ele><time>2026-03-22T13:37:40.01Z</time></trkpt><trkpt lat="43.500855" lon="10.4646033"><ele>86.0</ele><time>2026-03-22T13:37:41.011Z</time></trkpt><trkpt lat="43.5010117" lon="10.4645317"><ele>84.0</ele><time>2026-03-22T13:37:42.01Z</time></trkpt><trkpt lat="43.5011567" lon="10.4644783"><ele>84.0</ele><time>2026-03-22T13:37:43.01Z</time></trkpt><trkpt lat="43.5012883" lon="10.464455"><ele>84.0</ele><time>2026-03-22T13:37:44.01Z</time></trkpt><trkpt lat="43.5013983" lon="10.4644517"><ele>84.0</ele><time>2026-03-22T13:37:45.01Z</time></trkpt><trkpt lat="43.5014817" lon="10.4644733"><ele>84.0</ele><time>2026-03-22T13:37:46.009Z</time></trkpt><trkpt lat="43.5015467" lon="10.4645133"><ele>84.0</ele><time>2026-03-22T13:37:47.01Z</time></trkpt><trkpt lat="43.5015983" lon="10.46467"><ele>83.5</ele><time>2026-03-22T13:37:49.009Z</time></trkpt><trkpt lat="43.5015583" lon="10.4648183"><ele>83.0</ele><time>2026-03-22T13:37:50.011Z</time></trkpt><trkpt lat="43.5014983" lon="10.4649967"><ele>82.5</ele><time>2026-03-22T13:37:51.01Z</time></trkpt><trkpt lat="43.50143" lon="10.4651983"><ele>82.0</ele><time>2026-03-22T13:37:52.01Z</time></trkpt><trkpt lat="43.50135" lon="10.4654217"><ele>83.33333333333333</ele><time>2026-03-22T13:37:53.01Z</time></trkpt><trkpt lat="43.5012633" lon="10.465665"><ele>84.66666666666667</ele><time>2026-03-22T13:37:54.01Z</time></trkpt><trkpt lat="43.5011733" lon="10.465915"><ele>86.0</ele><time>2026-03-22T13:37:55.01Z</time></trkpt><trkpt lat="43.50108" lon="10.4661733"><ele>83.66666666666667</ele><time>2026-03-22T13:37:56.011Z</time></trkpt><trkpt lat="43.5009883" lon="10.466435"><ele>81.33333333333333</ele><time>2026-03-22T13:37:57.01Z</time></trkpt><trkpt lat="43.500895" lon="10.4666967"><ele>79.0</ele><time>2026-03-22T13:37:58.009Z</time></trkpt><trkpt lat="43.5008033" lon="10.466955"><ele>79.66666666666666</ele><time>2026-03-22T13:37:59.01Z</time></trkpt><trkpt lat="43.5007117" lon="10.4672017"><ele>80.33333333333333</ele><time>2026-03-22T13:38:00.011Z</time></trkpt><trkpt lat="43.5006317" lon="10.4674367"><ele>81.0</ele><time>2026-03-22T13:38:01.009Z</time></trkpt><trkpt lat="43.5005783" lon="10.467665"><ele>81.0</ele><time>2026-03-22T13:38:02.01Z</time></trkpt><trkpt lat="43.50055" lon="10.4678933"><ele>81.0</ele><time>2026-03-22T13:38:03.01Z</time></trkpt><trkpt lat="43.5005533" lon="10.4681267"><ele>81.0</ele><time>2026-03-22T13:38:04.01Z</time></trkpt><trkpt lat="43.500595" lon="10.468365"><ele>83.0</ele><time>2026-03-22T13:38:05.011Z</time></trkpt><trkpt lat="43.5006617" lon="10.4686083"><ele>85.0</ele><time>2026-03-22T13:38:06.009Z</time></trkpt><trkpt lat="43.5007383" lon="10.46886"><ele>87.0</ele><time>2026-03-22T13:38:07.01Z</time></trkpt><trkpt lat="43.500815" lon="10.469125"><ele>88.66666666666667</ele><time>2026-03-22T13:38:08.012Z</time></trkpt><trkpt lat="43.500895" lon="10.4693933"><ele>90.33333333333334</ele><time>2026-03-22T13:38:09.011Z</time></trkpt><trkpt lat="43.5009717" lon="10.4696567"><ele>92.0</ele><time>2026-03-22T13:38:10.012Z</time></trkpt><trkpt lat="43.5010417" lon="10.46991"><ele>93.33333333333334</ele><time>2026-03-22T13:38:11.012Z</time></trkpt><trkpt lat="43.5011" lon="10.4701683"><ele>94.66666666666667</ele><time>2026-03-22T13:38:12.012Z</time></trkpt><trkpt lat="43.50115" lon="10.470435"><ele>96.0</ele><time>2026-03-22T13:38:13.01Z</time></trkpt><trkpt lat="43.5012" lon="10.4707"><ele>96.33333333333334</ele><time>2026-03-22T13:38:14.011Z</time></trkpt><trkpt lat="43.5012533" lon="10.4709733"><ele>96.66666666666667</ele><time>2026-03-22T13:38:15.01Z</time></trkpt><trkpt lat="43.5013083" lon="10.4712583"><ele>97.0</ele><time>2026-03-22T13:38:16.01Z</time></trkpt><trkpt lat="43.5013617" lon="10.4715467"><ele>96.33333333333334</ele><time>2026-03-22T13:38:17.011Z</time></trkpt><trkpt lat="43.5014133" lon="10.47184"><ele>95.66666666666667</ele><time>2026-03-22T13:38:18.009Z</time></trkpt><trkpt lat="43.5014633" lon="10.47213"><ele>95.0</ele><time>2026-03-22T13:38:19.01Z</time></trkpt><trkpt lat="43.501515" lon="10.4724117"><ele>94.33333333333334</ele><time>2026-03-22T13:38:20.01Z</time></trkpt><trkpt lat="43.501575" lon="10.4726833"><ele>93.66666666666667</ele><time>2026-03-22T13:38:21.01Z</time></trkpt><trkpt lat="43.5016417" lon="10.472935"><ele>93.0</ele><time>2026-03-22T13:38:22.009Z</time></trkpt><trkpt lat="43.50172" lon="10.4731733"><ele>92.33333333333333</ele><time>2026-03-22T13:38:23.011Z</time></trkpt><trkpt lat="43.5018133" lon="10.4733983"><ele>91.66666666666666</ele><time>2026-03-22T13:38:24.011Z</time></trkpt><trkpt lat="43.5019233" lon="10.47361"><ele>91.0</ele><time>2026-03-22T13:38:25.011Z</time></trkpt><trkpt lat="43.5020433" lon="10.473815"><ele>92.33333333333333</ele><time>2026-03-22T13:38:26.01Z</time></trkpt><trkpt lat="43.5021733" lon="10.4740133"><ele>93.66666666666667</ele><time>2026-03-22T13:38:27.012Z</time></trkpt><trkpt lat="43.5023067" lon="10.4742183"><ele>95.0</ele><time>2026-03-22T13:38:28.01Z</time></trkpt><trkpt lat="43.5024317" lon="10.4744317"><ele>90.33333333333334</ele><time>2026-03-22T13:38:29.011Z</time></trkpt><trkpt lat="43.5025383" lon="10.4746567"><ele>85.66666666666667</ele><time>2026-03-22T13:38:30.012Z</time></trkpt><trkpt lat="43.5026283" lon="10.4748833"><ele>81.0</ele><time>2026-03-22T13:38:31.01Z</time></trkpt><trkpt lat="43.5027033" lon="10.4751033"><ele>81.0</ele><time>2026-03-22T13:38:32.01Z</time></trkpt><trkpt lat="43.50277" lon="10.4753183"><ele>81.0</ele><time>2026-03-22T13:38:33.01Z</time></trkpt><trkpt lat="43.5028333" lon="10.4755283"><ele>81.0</ele><time>2026-03-22T13:38:34.009Z</time></trkpt><trkpt lat="43.50289" lon="10.4757367"><ele>80.0</ele><time>2026-03-22T13:38:35.009Z</time></trkpt><trkpt lat="43.5029483" lon="10.4759433"><ele>79.0</ele><time>2026-03-22T13:38:36.01Z</time></trkpt><trkpt lat="43.503005" lon="10.4761517"><ele>78.0</ele><time>2026-03-22T13:38:37.011Z</time></trkpt><trkpt lat="43.5030633" lon="10.4763617"><ele>78.0</ele><time>2026-03-22T13:38:38.011Z</time></trkpt><trkpt lat="43.5031217" lon="10.4765733"><ele>78.0</ele><time>2026-03-22T13:38:39.01Z</time></trkpt><trkpt lat="43.5031783" lon="10.47678"><ele>78.0</ele><time>2026-03-22T13:38:40.009Z</time></trkpt><trkpt lat="43.5032283" lon="10.4769767"><ele>77.5</ele><time>2026-03-22T13:38:41.011Z</time></trkpt><trkpt lat="43.503275" lon="10.4771617"><ele>77.0</ele><time>2026-03-22T13:38:42.01Z</time></trkpt><trkpt lat="43.5033233" lon="10.4773333"><ele>76.5</ele><time>2026-03-22T13:38:43.01Z</time></trkpt><trkpt lat="43.5033683" lon="10.4775"><ele>76.0</ele><time>2026-03-22T13:38:44.01Z</time></trkpt><trkpt lat="43.5034117" lon="10.47766"><ele>76.0</ele><time>2026-03-22T13:38:45.009Z</time></trkpt><trkpt lat="43.5034533" lon="10.4778067"><ele>76.0</ele><time>2026-03-22T13:38:46.009Z</time></trkpt><trkpt lat="43.503495" lon="10.4779583"><ele>76.0</ele><time>2026-03-22T13:38:47.012Z</time></trkpt><trkpt lat="43.5035367" lon="10.4781267"><ele>76.0</ele><time>2026-03-22T13:38:48.01Z</time></trkpt><trkpt lat="43.5035883" lon="10.478305"><ele>77.33333333333333</ele><time>2026-03-22T13:38:49.01Z</time></trkpt><trkpt lat="43.5036433" lon="10.478495"><ele>78.66666666666667</ele><time>2026-03-22T13:38:50.01Z</time></trkpt><trkpt lat="43.5036983" lon="10.4786967"><ele>80.0</ele><time>2026-03-22T13:38:51.01Z</time></trkpt><trkpt lat="43.5037533" lon="10.478905"><ele>80.33333333333334</ele><time>2026-03-22T13:38:52.01Z</time></trkpt><trkpt lat="43.5038133" lon="10.47912"><ele>80.66666666666667</ele><time>2026-03-22T13:38:53.009Z</time></trkpt><trkpt lat="43.5038767" lon="10.4793433"><ele>81.0</ele><time>2026-03-22T13:38:54.011Z</time></trkpt><trkpt lat="43.50394" lon="10.479575"><ele>82.66666666666667</ele><time>2026-03-22T13:38:55.009Z</time></trkpt><trkpt lat="43.5040067" lon="10.47981"><ele>84.33333333333334</ele><time>2026-03-22T13:38:56.012Z</time></trkpt><trkpt lat="43.5040717" lon="10.4800533"><ele>86.0</ele><time>2026-03-22T13:38:57.011Z</time></trkpt><trkpt lat="43.5041367" lon="10.4803033"><ele>89.33333333333334</ele><time>2026-03-22T13:38:58.011Z</time></trkpt><trkpt lat="43.5042033" lon="10.4805567"><ele>92.66666666666667</ele><time>2026-03-22T13:38:59.011Z</time></trkpt><trkpt lat="43.5042717" lon="10.4808133"><ele>96.0</ele><time>2026-03-22T13:39:00.011Z</time></trkpt><trkpt lat="43.5043383" lon="10.481065"><ele>98.66666666666666</ele><time>2026-03-22T13:39:01.012Z</time></trkpt><trkpt lat="43.5044033" lon="10.481315"><ele>101.33333333333333</ele><time>2026-03-22T13:39:02.012Z</time></trkpt><trkpt lat="43.50446" lon="10.481565"><ele>104.0</ele><time>2026-03-22T13:39:03.011Z</time></trkpt><trkpt lat="43.504505" lon="10.4818167"><ele>104.0</ele><time>2026-03-22T13:39:04.011Z</time></trkpt><trkpt lat="43.5045383" lon="10.48207"><ele>104.0</ele><time>2026-03-22T13:39:05.011Z</time></trkpt><trkpt lat="43.50456" lon="10.482325"><ele>104.0</ele><time>2026-03-22T13:39:06.011Z</time></trkpt><trkpt lat="43.5045767" lon="10.4825817"><ele>103.33333333333333</ele><time>2026-03-22T13:39:07.012Z</time></trkpt><trkpt lat="43.504585" lon="10.4828383"><ele>102.66666666666666</ele><time>2026-03-22T13:39:08.011Z</time></trkpt><trkpt lat="43.504595" lon="10.483095"><ele>102.0</ele><time>2026-03-22T13:39:09.011Z</time></trkpt><trkpt lat="43.5046117" lon="10.48335"><ele>102.0</ele><time>2026-03-22T13:39:10.011Z</time></trkpt><trkpt lat="43.504625" lon="10.483605"><ele>102.0</ele><time>2026-03-22T13:39:11.012Z</time></trkpt><trkpt lat="43.5046383" lon="10.48386"><ele>102.0</ele><time>2026-03-22T13:39:12.012Z</time></trkpt><trkpt lat="43.5046567" lon="10.4841183"><ele>104.66666666666666</ele><time>2026-03-22T13:39:13.011Z</time></trkpt><trkpt lat="43.5046767" lon="10.4843783"><ele>107.33333333333333</ele><time>2026-03-22T13:39:14.012Z</time></trkpt><trkpt lat="43.504695" lon="10.4846383"><ele>110.0</ele><time>2026-03-22T13:39:15.01Z</time></trkpt><trkpt lat="43.504705" lon="10.4848983"><ele>112.66666666666666</ele><time>2026-03-22T13:39:16.011Z</time></trkpt><trkpt lat="43.504705" lon="10.4851633"><ele>115.33333333333334</ele><time>2026-03-22T13:39:17.01Z</time></trkpt><trkpt lat="43.5046883" lon="10.4854267"><ele>118.0</ele><time>2026-03-22T13:39:18.01Z</time></trkpt><trkpt lat="43.5046483" lon="10.4856833"><ele>118.0</ele><time>2026-03-22T13:39:19.01Z</time></trkpt><trkpt lat="43.504585" lon="10.485935"><ele>118.0</ele><time>2026-03-22T13:39:20.01Z</time></trkpt><trkpt lat="43.504495" lon="10.4861733"><ele>118.0</ele><time>2026-03-22T13:39:21.01Z</time></trkpt><trkpt lat="43.5043817" lon="10.4863917"><ele>118.0</ele><time>2026-03-22T13:39:22.01Z</time></trkpt><trkpt lat="43.504245" lon="10.4865867"><ele>118.0</ele><time>2026-03-22T13:39:23.01Z</time></trkpt><trkpt lat="43.504095" lon="10.48676"><ele>118.0</ele><time>2026-03-22T13:39:24.01Z</time></trkpt><trkpt lat="43.5039383" lon="10.4869233"><ele>118.0</ele><time>2026-03-22T13:39:25.011Z</time></trkpt><trkpt lat="43.50378" lon="10.4870767"><ele>118.0</ele><time>2026-03-22T13:39:26.01Z</time></trkpt><trkpt lat="43.5036217" lon="10.4872283"><ele>118.0</ele><time>2026-03-22T13:39:27.01Z</time></trkpt><trkpt lat="43.5034667" lon="10.4873833"><ele>121.66666666666667</ele><time>2026-03-22T13:39:28.01Z</time></trkpt><trkpt lat="43.50331" lon="10.487535"><ele>125.33333333333334</ele><time>2026-03-22T13:39:29.011Z</time></trkpt><trkpt lat="43.5031517" lon="10.4876817"><ele>129.0</ele><time>2026-03-22T13:39:30.01Z</time></trkpt><trkpt lat="43.5030033" lon="10.48783"><ele>129.33333333333334</ele><time>2026-03-22T13:39:31.01Z</time></trkpt><trkpt lat="43.5028683" lon="10.4879783"><ele>129.66666666666669</ele><time>2026-03-22T13:39:32.011Z</time></trkpt><trkpt lat="43.5027417" lon="10.4881317"><ele>130.0</ele><time>2026-03-22T13:39:33.011Z</time></trkpt><trkpt lat="43.5026217" lon="10.4883017"><ele>130.0</ele><time>2026-03-22T13:39:34.009Z</time></trkpt><trkpt lat="43.502505" lon="10.488495"><ele>130.0</ele><time>2026-03-22T13:39:35.01Z</time></trkpt><trkpt lat="43.5023933" lon="10.4887"><ele>130.0</ele><time>2026-03-22T13:39:36.011Z</time></trkpt><trkpt lat="43.5022817" lon="10.488905"><ele>129.66666666666669</ele><time>2026-03-22T13:39:37.01Z</time></trkpt><trkpt lat="43.5021533" lon="10.4891067"><ele>129.33333333333334</ele><time>2026-03-22T13:39:38.01Z</time></trkpt><trkpt lat="43.5020167" lon="10.4893017"><ele>129.0</ele><time>2026-03-22T13:39:39.01Z</time></trkpt><trkpt lat="43.50188" lon="10.4894917"><ele>130.0</ele><time>2026-03-22T13:39:40.01Z</time></trkpt><trkpt lat="43.5017283" lon="10.48968"><ele>131.0</ele><time>2026-03-22T13:39:41.011Z</time></trkpt><trkpt lat="43.50159" lon="10.4898617"><ele>132.0</ele><time>2026-03-22T13:39:42.011Z</time></trkpt><trkpt lat="43.501445" lon="10.4900417"><ele>132.0</ele><time>2026-03-22T13:39:43.009Z</time></trkpt><trkpt lat="43.5012967" lon="10.4902217"><ele>132.0</ele><time>2026-03-22T13:39:44.01Z</time></trkpt><trkpt lat="43.5011483" lon="10.4903983"><ele>132.0</ele><time>2026-03-22T13:39:45.01Z</time></trkpt><trkpt lat="43.5010083" lon="10.4905767"><ele>132.66666666666666</ele><time>2026-03-22T13:39:46.01Z</time></trkpt><trkpt lat="43.5008717" lon="10.490755"><ele>133.33333333333331</ele><time>2026-03-22T13:39:47.01Z</time></trkpt><trkpt lat="43.5007333" lon="10.4909267"><ele>134.0</ele><time>2026-03-22T13:39:48.01Z</time></trkpt><trkpt lat="43.500595" lon="10.491095"><ele>134.33333333333331</ele><time>2026-03-22T13:39:49.01Z</time></trkpt><trkpt lat="43.5004617" lon="10.49126"><ele>134.66666666666666</ele><time>2026-03-22T13:39:50.011Z</time></trkpt><trkpt lat="43.5003383" lon="10.4914283"><ele>135.0</ele><time>2026-03-22T13:39:51.01Z</time></trkpt><trkpt lat="43.50022" lon="10.4915983"><ele>135.0</ele><time>2026-03-22T13:39:52.01Z</time></trkpt><trkpt lat="43.50012" lon="10.49178"><ele>135.0</ele><time>2026-03-22T13:39:53.012Z</time></trkpt><trkpt lat="43.5000267" lon="10.4919767"><ele>135.0</ele><time>2026-03-22T13:39:54.011Z</time></trkpt><trkpt lat="43.4999467" lon="10.4921883"><ele>135.66666666666666</ele><time>2026-03-22T13:39:55.011Z</time></trkpt><trkpt lat="43.4998817" lon="10.4924133"><ele>136.33333333333331</ele><time>2026-03-22T13:39:56.011Z</time></trkpt><trkpt lat="43.4998317" lon="10.4926483"><ele>137.0</ele><time>2026-03-22T13:39:57.011Z</time></trkpt><trkpt lat="43.49979" lon="10.492895"><ele>137.66666666666666</ele><time>2026-03-22T13:39:58.011Z</time></trkpt><trkpt lat="43.4997583" lon="10.4931483"><ele>138.33333333333334</ele><time>2026-03-22T13:39:59.01Z</time></trkpt><trkpt lat="43.4997367" lon="10.4934083"><ele>139.0</ele><time>2026-03-22T13:40:00.01Z</time></trkpt><trkpt lat="43.4997217" lon="10.4936717"><ele>138.66666666666669</ele><time>2026-03-22T13:40:01.01Z</time></trkpt><trkpt lat="43.4997033" lon="10.4939317"><ele>138.33333333333334</ele><time>2026-03-22T13:40:02.01Z</time></trkpt><trkpt lat="43.4996867" lon="10.49419"><ele>138.0</ele><time>2026-03-22T13:40:03.01Z</time></trkpt><trkpt lat="43.4996633" lon="10.49445"><ele>136.66666666666666</ele><time>2026-03-22T13:40:04.01Z</time></trkpt><trkpt lat="43.4996317" lon="10.494705"><ele>135.33333333333331</ele><time>2026-03-22T13:40:05.011Z</time></trkpt><trkpt lat="43.4995867" lon="10.49495"><ele>134.0</ele><time>2026-03-22T13:40:06.01Z</time></trkpt><trkpt lat="43.4995317" lon="10.4951767"><ele>132.0</ele><time>2026-03-22T13:40:07.009Z</time></trkpt><trkpt lat="43.499455" lon="10.49538"><ele>130.0</ele><time>2026-03-22T13:40:08.011Z</time></trkpt><trkpt lat="43.4993717" lon="10.4955667"><ele>128.0</ele><time>2026-03-22T13:40:09.01Z</time></trkpt><trkpt lat="43.4992833" lon="10.4957317"><ele>128.0</ele><time>2026-03-22T13:40:10.011Z</time></trkpt><trkpt lat="43.4991883" lon="10.4958833"><ele>128.0</ele><time>2026-03-22T13:40:11.011Z</time></trkpt><trkpt lat="43.4990983" lon="10.49603"><ele>128.0</ele><time>2026-03-22T13:40:12.01Z</time></trkpt><trkpt lat="43.4990133" lon="10.496175"><ele>128.0</ele><time>2026-03-22T13:40:13.009Z</time></trkpt><trkpt lat="43.4989217" lon="10.4963233"><ele>126.75</ele><time>2026-03-22T13:40:14.011Z</time></trkpt><trkpt lat="43.4988317" lon="10.4964717"><ele>125.5</ele><time>2026-03-22T13:40:15.01Z</time></trkpt><trkpt lat="43.4987433" lon="10.4966133"><ele>124.25</ele><time>2026-03-22T13:40:16.01Z</time></trkpt><trkpt lat="43.4986583" lon="10.4967533"><ele>123.0</ele><time>2026-03-22T13:40:17.011Z</time></trkpt><trkpt lat="43.4985767" lon="10.4968883"><ele>122.80000000000001</ele><time>2026-03-22T13:40:18.011Z</time></trkpt><trkpt lat="43.4984967" lon="10.497015"><ele>122.60000000000001</ele><time>2026-03-22T13:40:19.011Z</time></trkpt><trkpt lat="43.4984233" lon="10.4971317"><ele>122.39999999999999</ele><time>2026-03-22T13:40:20.011Z</time></trkpt><trkpt lat="43.49836" lon="10.497235"><ele>122.19999999999999</ele><time>2026-03-22T13:40:21.011Z</time></trkpt><trkpt lat="43.4983033" lon="10.4973233"><ele>122.0</ele><time>2026-03-22T13:40:22.01Z</time></trkpt><trkpt lat="43.4982567" lon="10.4973933"><ele>121.66666666666666</ele><time>2026-03-22T13:40:23.011Z</time></trkpt><trkpt lat="43.498185" lon="10.4975017"><ele>121.33333333333333</ele><time>2026-03-22T13:40:25.009Z</time></trkpt><trkpt lat="43.4981167" lon="10.4976233"><ele>121.0</ele><time>2026-03-22T13:40:27.011Z</time></trkpt><trkpt lat="43.4980767" lon="10.4976967"><ele>120.66666666666666</ele><time>2026-03-22T13:40:28.011Z</time></trkpt><trkpt lat="43.4980317" lon="10.497775"><ele>120.33333333333333</ele><time>2026-03-22T13:40:29.011Z</time></trkpt><trkpt lat="43.49799" lon="10.4978533"><ele>120.0</ele><time>2026-03-22T13:40:30.01Z</time></trkpt><trkpt lat="43.4979433" lon="10.4979317"><ele>119.83333333333333</ele><time>2026-03-22T13:40:31.009Z</time></trkpt><trkpt lat="43.4978967" lon="10.4980117"><ele>119.66666666666666</ele><time>2026-03-22T13:40:32.01Z</time></trkpt><trkpt lat="43.4978467" lon="10.4980833"><ele>119.5</ele><time>2026-03-22T13:40:33.011Z</time></trkpt><trkpt lat="43.4977733" lon="10.4982"><ele>119.33333333333333</ele><time>2026-03-22T13:40:35.01Z</time></trkpt><trkpt lat="43.4977217" lon="10.4982733"><ele>119.16666666666666</ele><time>2026-03-22T13:41:08.011Z</time></trkpt><trkpt lat="43.4976783" lon="10.4984033"><ele>119.0</ele><time>2026-03-22T13:41:10.01Z</time></trkpt><trkpt lat="43.4976433" lon="10.498495"><ele>119.0</ele><time>2026-03-22T13:41:11.011Z</time></trkpt><trkpt lat="43.4976033" lon="10.4985917"><ele>119.0</ele><time>2026-03-22T13:41:12.01Z</time></trkpt><trkpt lat="43.4975617" lon="10.4987017"><ele>119.0</ele><time>2026-03-22T13:41:13.009Z</time></trkpt><trkpt lat="43.4975133" lon="10.4988267"><ele>119.0</ele><time>2026-03-22T13:41:14.011Z</time></trkpt><trkpt lat="43.49746" lon="10.49896"><ele>119.0</ele><time>2026-03-22T13:41:15.008Z</time></trkpt><trkpt lat="43.497395" lon="10.4991"><ele>119.5</ele><time>2026-03-22T13:41:16.01Z</time></trkpt><trkpt lat="43.4973317" lon="10.4992433"><ele>120.0</ele><time>2026-03-22T13:41:17.011Z</time></trkpt><trkpt lat="43.4972633" lon="10.4993883"><ele>120.5</ele><time>2026-03-22T13:41:18.013Z</time></trkpt><trkpt lat="43.49719" lon="10.499535"><ele>121.0</ele><time>2026-03-22T13:41:19.011Z</time></trkpt><trkpt lat="43.4971217" lon="10.499685"><ele>120.5</ele><time>2026-03-22T13:41:20.012Z</time></trkpt><trkpt lat="43.4970533" lon="10.4998367"><ele>120.0</ele><time>2026-03-22T13:41:21.012Z</time></trkpt><trkpt lat="43.4969917" lon="10.4999917"><ele>119.5</ele><time>2026-03-22T13:41:22.012Z</time></trkpt><trkpt lat="43.4969267" lon="10.5001533"><ele>119.0</ele><time>2026-03-22T13:41:23.012Z</time></trkpt><trkpt lat="43.4968717" lon="10.5003233"><ele>119.25</ele><time>2026-03-22T13:41:24.01Z</time></trkpt><trkpt lat="43.4968233" lon="10.5005017"><ele>119.5</ele><time>2026-03-22T13:41:25.011Z</time></trkpt><trkpt lat="43.4967767" lon="10.5006883"><ele>119.75</ele><time>2026-03-22T13:41:26.011Z</time></trkpt><trkpt lat="43.4967333" lon="10.5008783"><ele>120.0</ele><time>2026-03-22T13:41:27.012Z</time></trkpt><trkpt lat="43.4966983" lon="10.5010717"><ele>120.0</ele><time>2026-03-22T13:41:28.011Z</time></trkpt><trkpt lat="43.4966667" lon="10.5012683"><ele>120.0</ele><time>2026-03-22T13:41:29.011Z</time></trkpt><trkpt lat="43.4966433" lon="10.50147"><ele>120.0</ele><time>2026-03-22T13:41:30.011Z</time></trkpt><trkpt lat="43.496635" lon="10.5016683"><ele>120.0</ele><time>2026-03-22T13:41:31.011Z</time></trkpt><trkpt lat="43.49663" lon="10.50187"><ele>120.0</ele><time>2026-03-22T13:41:32.011Z</time></trkpt><trkpt lat="43.4966217" lon="10.5020717"><ele>120.0</ele><time>2026-03-22T13:41:33.01Z</time></trkpt><trkpt lat="43.4966167" lon="10.5022767"><ele>120.0</ele><time>2026-03-22T13:41:34.011Z</time></trkpt><trkpt lat="43.4966117" lon="10.502475"><ele>120.0</ele><time>2026-03-22T13:41:35.01Z</time></trkpt><trkpt lat="43.4966067" lon="10.5026667"><ele>120.0</ele><time>2026-03-22T13:41:36.01Z</time></trkpt><trkpt lat="43.4965983" lon="10.5028583"><ele>120.0</ele><time>2026-03-22T13:41:37.01Z</time></trkpt><trkpt lat="43.4965883" lon="10.5030483"><ele>120.0</ele><time>2026-03-22T13:41:38.011Z</time></trkpt><trkpt lat="43.4965733" lon="10.5032467"><ele>120.0</ele><time>2026-03-22T13:41:39.01Z</time></trkpt><trkpt lat="43.4965483" lon="10.5034417"><ele>120.0</ele><time>2026-03-22T13:41:40.01Z</time></trkpt><trkpt lat="43.4965167" lon="10.50364"><ele>120.0</ele><time>2026-03-22T13:41:41.01Z</time></trkpt><trkpt lat="43.496475" lon="10.5038433"><ele>120.0</ele><time>2026-03-22T13:41:42.011Z</time></trkpt><trkpt lat="43.4964233" lon="10.5040467"><ele>120.0</ele><time>2026-03-22T13:41:43.01Z</time></trkpt><trkpt lat="43.4963667" lon="10.5042467"><ele>120.0</ele><time>2026-03-22T13:41:44.011Z</time></trkpt><trkpt lat="43.4963083" lon="10.504445"><ele>120.0</ele><time>2026-03-22T13:41:45.01Z</time></trkpt><trkpt lat="43.4962417" lon="10.50464"><ele>118.0</ele><time>2026-03-22T13:41:46.01Z</time></trkpt><trkpt lat="43.4961683" lon="10.5048317"><ele>116.0</ele><time>2026-03-22T13:41:47.011Z</time></trkpt><trkpt lat="43.4960883" lon="10.5050183"><ele>114.0</ele><time>2026-03-22T13:41:48.011Z</time></trkpt><trkpt lat="43.4959983" lon="10.505205"><ele>114.0</ele><time>2026-03-22T13:41:49.011Z</time></trkpt><trkpt lat="43.4959083" lon="10.5053867"><ele>114.0</ele><time>2026-03-22T13:41:50.01Z</time></trkpt><trkpt lat="43.4958217" lon="10.5055683"><ele>114.0</ele><time>2026-03-22T13:41:51.011Z</time></trkpt><trkpt lat="43.495735" lon="10.5057483"><ele>113.0</ele><time>2026-03-22T13:41:52.011Z</time></trkpt><trkpt lat="43.4956517" lon="10.50593"><ele>112.0</ele><time>2026-03-22T13:41:53.011Z</time></trkpt><trkpt lat="43.495575" lon="10.5061133"><ele>111.0</ele><time>2026-03-22T13:41:54.01Z</time></trkpt><trkpt lat="43.4955067" lon="10.5063"><ele>111.33333333333334</ele><time>2026-03-22T13:41:55.01Z</time></trkpt><trkpt lat="43.4954533" lon="10.5064933"><ele>111.66666666666667</ele><time>2026-03-22T13:41:56.011Z</time></trkpt><trkpt lat="43.4954067" lon="10.5066917"><ele>112.0</ele><time>2026-03-22T13:41:57.009Z</time></trkpt><trkpt lat="43.4953767" lon="10.506895"><ele>112.66666666666667</ele><time>2026-03-22T13:41:58.01Z</time></trkpt><trkpt lat="43.4953583" lon="10.5071017"><ele>113.33333333333334</ele><time>2026-03-22T13:41:59.01Z</time></trkpt><trkpt lat="43.4953533" lon="10.50731"><ele>114.0</ele><time>2026-03-22T13:42:00.01Z</time></trkpt><trkpt lat="43.4953567" lon="10.50752"><ele>114.0</ele><time>2026-03-22T13:42:01.01Z</time></trkpt><trkpt lat="43.4953583" lon="10.507725"><ele>114.0</ele><time>2026-03-22T13:42:02.011Z</time></trkpt><trkpt lat="43.4953483" lon="10.5079233"><ele>114.0</ele><time>2026-03-22T13:42:03.01Z</time></trkpt><trkpt lat="43.4953317" lon="10.5081083"><ele>114.0</ele><time>2026-03-22T13:42:04.01Z</time></trkpt><trkpt lat="43.4953083" lon="10.5082833"><ele>115.0</ele><time>2026-03-22T13:42:05.01Z</time></trkpt><trkpt lat="43.4952867" lon="10.5084383"><ele>116.0</ele><time>2026-03-22T13:42:06.01Z</time></trkpt><trkpt lat="43.4952583" lon="10.5085733"><ele>117.0</ele><time>2026-03-22T13:42:07.009Z</time></trkpt><trkpt lat="43.4952283" lon="10.5086967"><ele>118.0</ele><time>2026-03-22T13:42:08.01Z</time></trkpt><trkpt lat="43.4951983" lon="10.5088117"><ele>119.0</ele><time>2026-03-22T13:42:09.01Z</time></trkpt><trkpt lat="43.4951567" lon="10.5089267"><ele>119.4</ele><time>2026-03-22T13:42:10.009Z</time></trkpt><trkpt lat="43.4951067" lon="10.509045"><ele>119.80000000000001</ele><time>2026-03-22T13:42:11.012Z</time></trkpt><trkpt lat="43.4950433" lon="10.50917"><ele>120.19999999999999</ele><time>2026-03-22T13:42:12.01Z</time></trkpt><trkpt lat="43.4949767" lon="10.5093017"><ele>120.6</ele><time>2026-03-22T13:42:13.011Z</time></trkpt><trkpt lat="43.49491" lon="10.50944"><ele>121.0</ele><time>2026-03-22T13:42:14.011Z</time></trkpt><trkpt lat="43.49484" lon="10.50957"><ele>120.0</ele><time>2026-03-22T13:42:15.011Z</time></trkpt><trkpt lat="43.4947683" lon="10.5096967"><ele>119.0</ele><time>2026-03-22T13:42:16.009Z</time></trkpt><trkpt lat="43.4947" lon="10.5098183"><ele>118.0</ele><time>2026-03-22T13:42:17.011Z</time></trkpt><trkpt lat="43.49463" lon="10.5099383"><ele>117.0</ele><time>2026-03-22T13:42:18.01Z</time></trkpt><trkpt lat="43.4945567" lon="10.510055"><ele>116.8</ele><time>2026-03-22T13:42:19.01Z</time></trkpt><trkpt lat="43.49448" lon="10.510165"><ele>116.6</ele><time>2026-03-22T13:42:20.012Z</time></trkpt><trkpt lat="43.494395" lon="10.510265"><ele>116.39999999999999</ele><time>2026-03-22T13:42:21.011Z</time></trkpt><trkpt lat="43.4943133" lon="10.51036"><ele>116.19999999999999</ele><time>2026-03-22T13:42:22.01Z</time></trkpt><trkpt lat="43.4942333" lon="10.5104333"><ele>116.0</ele><time>2026-03-22T13:42:23.011Z</time></trkpt><trkpt lat="43.4941567" lon="10.5105117"><ele>116.33333333333333</ele><time>2026-03-22T13:42:24.011Z</time></trkpt><trkpt lat="43.494085" lon="10.51059"><ele>116.66666666666666</ele><time>2026-03-22T13:42:25.011Z</time></trkpt><trkpt lat="43.49402" lon="10.5106517"><ele>117.0</ele><time>2026-03-22T13:42:26.011Z</time></trkpt><trkpt lat="43.4939633" lon="10.5106983"><ele>117.33333333333334</ele><time>2026-03-22T13:42:27.01Z</time></trkpt><trkpt lat="43.4939017" lon="10.5107333"><ele>117.66666666666667</ele><time>2026-03-22T13:42:28.011Z</time></trkpt><trkpt lat="43.49383" lon="10.510755"><ele>118.0</ele><time>2026-03-22T13:42:29.01Z</time></trkpt><trkpt lat="43.4937517" lon="10.5107667"><ele>117.33333333333334</ele><time>2026-03-22T13:42:30.009Z</time></trkpt><trkpt lat="43.493675" lon="10.5107633"><ele>116.66666666666667</ele><time>2026-03-22T13:42:31.01Z</time></trkpt><trkpt lat="43.4935933" lon="10.5107617"><ele>116.0</ele><time>2026-03-22T13:42:32.011Z</time></trkpt><trkpt lat="43.49352" lon="10.5107633"><ele>115.33333333333334</ele><time>2026-03-22T13:42:33.01Z</time></trkpt><trkpt lat="43.4934483" lon="10.510775"><ele>114.66666666666667</ele><time>2026-03-22T13:42:34.011Z</time></trkpt><trkpt lat="43.4933683" lon="10.5107783"><ele>114.0</ele><time>2026-03-22T13:42:35.011Z</time></trkpt><trkpt lat="43.493285" lon="10.5107817"><ele>114.0</ele><time>2026-03-22T13:42:36.013Z</time></trkpt><trkpt lat="43.4932" lon="10.5107783"><ele>114.0</ele><time>2026-03-22T13:42:37.01Z</time></trkpt><trkpt lat="43.4931083" lon="10.51077"><ele>114.0</ele><time>2026-03-22T13:42:38.011Z</time></trkpt><trkpt lat="43.493015" lon="10.5107583"><ele>114.0</ele><time>2026-03-22T13:42:39.01Z</time></trkpt><trkpt lat="43.4929117" lon="10.51074"><ele>114.0</ele><time>2026-03-22T13:42:40.011Z</time></trkpt><trkpt lat="43.4928067" lon="10.5107283"><ele>113.0</ele><time>2026-03-22T13:42:41.011Z</time></trkpt><trkpt lat="43.4927" lon="10.5107167"><ele>112.0</ele><time>2026-03-22T13:42:42.011Z</time></trkpt><trkpt lat="43.492585" lon="10.51071"><ele>111.0</ele><time>2026-03-22T13:42:43.011Z</time></trkpt><trkpt lat="43.4924683" lon="10.5107033"><ele>110.0</ele><time>2026-03-22T13:42:44.011Z</time></trkpt><trkpt lat="43.492355" lon="10.5106933"><ele>110.0</ele><time>2026-03-22T13:42:45.01Z</time></trkpt><trkpt lat="43.4922417" lon="10.5106767"><ele>110.0</ele><time>2026-03-22T13:42:46.009Z</time></trkpt><trkpt lat="43.4921367" lon="10.51065"><ele>110.0</ele><time>2026-03-22T13:42:47.01Z</time></trkpt><trkpt lat="43.4920417" lon="10.5105933"><ele>110.0</ele><time>2026-03-22T13:42:48.01Z</time></trkpt><trkpt lat="43.4919617" lon="10.51051"><ele>110.0</ele><time>2026-03-22T13:42:49.01Z</time></trkpt><trkpt lat="43.4919167" lon="10.510385"><ele>106.75</ele><time>2026-03-22T13:42:50.011Z</time></trkpt><trkpt lat="43.4918983" lon="10.5102383"><ele>103.5</ele><time>2026-03-22T13:42:51.01Z</time></trkpt><trkpt lat="43.49191" lon="10.51008"><ele>100.25</ele><time>2026-03-22T13:42:52.011Z</time></trkpt><trkpt lat="43.491955" lon="10.509915"><ele>97.0</ele><time>2026-03-22T13:42:53.011Z</time></trkpt><trkpt lat="43.4920233" lon="10.5097467"><ele>96.25</ele><time>2026-03-22T13:42:54.011Z</time></trkpt><trkpt lat="43.4920983" lon="10.50958"><ele>95.5</ele><time>2026-03-22T13:42:55.01Z</time></trkpt><trkpt lat="43.49216" lon="10.50942"><ele>94.75</ele><time>2026-03-22T13:42:56.009Z</time></trkpt><trkpt lat="43.4922017" lon="10.50926"><ele>94.0</ele><time>2026-03-22T13:42:57.01Z</time></trkpt><trkpt lat="43.4922017" lon="10.5091033"><ele>94.0</ele><time>2026-03-22T13:42:58.011Z</time></trkpt><trkpt lat="43.4921583" lon="10.5089667"><ele>94.0</ele><time>2026-03-22T13:42:59.01Z</time></trkpt><trkpt lat="43.4920867" lon="10.50884"><ele>94.0</ele><time>2026-03-22T13:43:00.01Z</time></trkpt><trkpt lat="43.4919917" lon="10.5087533"><ele>94.0</ele><time>2026-03-22T13:43:01.011Z</time></trkpt><trkpt lat="43.4918833" lon="10.5087233"><ele>94.0</ele><time>2026-03-22T13:43:02.011Z</time></trkpt><trkpt lat="43.4917783" lon="10.5087467"><ele>92.75</ele><time>2026-03-22T13:43:03.01Z</time></trkpt><trkpt lat="43.4916817" lon="10.50881"><ele>91.5</ele><time>2026-03-22T13:43:04.011Z</time></trkpt><trkpt lat="43.4915983" lon="10.5089017"><ele>90.25</ele><time>2026-03-22T13:43:05.01Z</time></trkpt><trkpt lat="43.4915167" lon="10.509035"><ele>89.0</ele><time>2026-03-22T13:43:06.01Z</time></trkpt><trkpt lat="43.491445" lon="10.509185"><ele>89.0</ele><time>2026-03-22T13:43:07.011Z</time></trkpt><trkpt lat="43.49138" lon="10.50935"><ele>89.0</ele><time>2026-03-22T13:43:08.011Z</time></trkpt><trkpt lat="43.4913117" lon="10.5095217"><ele>89.0</ele><time>2026-03-22T13:43:09.011Z</time></trkpt><trkpt lat="43.4912367" lon="10.509705"><ele>89.0</ele><time>2026-03-22T13:43:10.009Z</time></trkpt><trkpt lat="43.491155" lon="10.509895"><ele>88.33333333333334</ele><time>2026-03-22T13:43:11.01Z</time></trkpt><trkpt lat="43.4910783" lon="10.5100883"><ele>87.66666666666667</ele><time>2026-03-22T13:43:12.01Z</time></trkpt><trkpt lat="43.4909967" lon="10.5102867"><ele>87.0</ele><time>2026-03-22T13:43:13.011Z</time></trkpt><trkpt lat="43.4909133" lon="10.5104883"><ele>87.0</ele><time>2026-03-22T13:43:14.01Z</time></trkpt><trkpt lat="43.4908233" lon="10.5106967"><ele>87.0</ele><time>2026-03-22T13:43:15.01Z</time></trkpt><trkpt lat="43.4907333" lon="10.5109117"><ele>87.0</ele><time>2026-03-22T13:43:16.011Z</time></trkpt><trkpt lat="43.4906417" lon="10.5111317"><ele>87.0</ele><time>2026-03-22T13:43:17.01Z</time></trkpt><trkpt lat="43.4905483" lon="10.51135"><ele>87.0</ele><time>2026-03-22T13:43:18.009Z</time></trkpt><trkpt lat="43.490455" lon="10.51157"><ele>87.0</ele><time>2026-03-22T13:43:19.01Z</time></trkpt><trkpt lat="43.4903567" lon="10.51179"><ele>84.33333333333333</ele><time>2026-03-22T13:43:20.011Z</time></trkpt><trkpt lat="43.490255" lon="10.5120167"><ele>81.66666666666666</ele><time>2026-03-22T13:43:21.011Z</time></trkpt><trkpt lat="43.4901533" lon="10.512245"><ele>79.0</ele><time>2026-03-22T13:43:22.011Z</time></trkpt><trkpt lat="43.4900533" lon="10.5124817"><ele>79.0</ele><time>2026-03-22T13:43:23.01Z</time></trkpt><trkpt lat="43.4899483" lon="10.5127217"><ele>79.0</ele><time>2026-03-22T13:43:24.01Z</time></trkpt><trkpt lat="43.489845" lon="10.512965"><ele>79.0</ele><time>2026-03-22T13:43:25.01Z</time></trkpt><trkpt lat="43.4897367" lon="10.51321"><ele>79.33333333333333</ele><time>2026-03-22T13:43:26.011Z</time></trkpt><trkpt lat="43.4896283" lon="10.513455"><ele>79.66666666666667</ele><time>2026-03-22T13:43:27.01Z</time></trkpt><trkpt lat="43.4895233" lon="10.5137"><ele>80.0</ele><time>2026-03-22T13:43:28.01Z</time></trkpt><trkpt lat="43.48942" lon="10.5139467"><ele>78.66666666666667</ele><time>2026-03-22T13:43:29.011Z</time></trkpt><trkpt lat="43.48932" lon="10.5142"><ele>77.33333333333333</ele><time>2026-03-22T13:43:30.011Z</time></trkpt><trkpt lat="43.489235" lon="10.5144667"><ele>76.0</ele><time>2026-03-22T13:43:31.011Z</time></trkpt><trkpt lat="43.4891767" lon="10.5147417"><ele>76.0</ele><time>2026-03-22T13:43:32.01Z</time></trkpt><trkpt lat="43.4891433" lon="10.5150217"><ele>76.0</ele><time>2026-03-22T13:43:33.01Z</time></trkpt><trkpt lat="43.4891233" lon="10.5153"><ele>76.0</ele><time>2026-03-22T13:43:34.01Z</time></trkpt><trkpt lat="43.48912" lon="10.5155817"><ele>77.0</ele><time>2026-03-22T13:43:35.01Z</time></trkpt><trkpt lat="43.48912" lon="10.5158667"><ele>78.0</ele><time>2026-03-22T13:43:36.01Z</time></trkpt><trkpt lat="43.4891167" lon="10.5161567"><ele>79.0</ele><time>2026-03-22T13:43:37.011Z</time></trkpt><trkpt lat="43.4891183" lon="10.5164467"><ele>79.66666666666666</ele><time>2026-03-22T13:43:38.011Z</time></trkpt><trkpt lat="43.4891167" lon="10.5167383"><ele>80.33333333333333</ele><time>2026-03-22T13:43:39.01Z</time></trkpt><trkpt lat="43.4891167" lon="10.51703"><ele>81.0</ele><time>2026-03-22T13:43:40.01Z</time></trkpt><trkpt lat="43.4891183" lon="10.5173233"><ele>83.0</ele><time>2026-03-22T13:43:41.01Z</time></trkpt><trkpt lat="43.4891233" lon="10.5176133"><ele>85.0</ele><time>2026-03-22T13:43:42.01Z</time></trkpt><trkpt lat="43.4891267" lon="10.5179033"><ele>87.0</ele><time>2026-03-22T13:43:43.01Z</time></trkpt><trkpt lat="43.4891317" lon="10.5181917"><ele>89.33333333333333</ele><time>2026-03-22T13:43:44.011Z</time></trkpt><trkpt lat="43.489135" lon="10.5184767"><ele>91.66666666666666</ele><time>2026-03-22T13:43:45.01Z</time></trkpt><trkpt lat="43.489135" lon="10.51876"><ele>94.0</ele><time>2026-03-22T13:43:46.01Z</time></trkpt><trkpt lat="43.4891383" lon="10.5190417"><ele>95.0</ele><time>2026-03-22T13:43:47.011Z</time></trkpt><trkpt lat="43.48914" lon="10.5193167"><ele>96.0</ele><time>2026-03-22T13:43:48.01Z</time></trkpt><trkpt lat="43.48914" lon="10.519575"><ele>97.0</ele><time>2026-03-22T13:43:49.01Z</time></trkpt><trkpt lat="43.4891417" lon="10.5198217"><ele>97.66666666666667</ele><time>2026-03-22T13:43:50.011Z</time></trkpt><trkpt lat="43.4891417" lon="10.52007"><ele>98.33333333333334</ele><time>2026-03-22T13:43:51.01Z</time></trkpt><trkpt lat="43.4891417" lon="10.520325"><ele>99.0</ele><time>2026-03-22T13:43:52.009Z</time></trkpt><trkpt lat="43.4891383" lon="10.5205767"><ele>97.0</ele><time>2026-03-22T13:43:53.011Z</time></trkpt><trkpt lat="43.4891317" lon="10.52082"><ele>95.0</ele><time>2026-03-22T13:43:54.011Z</time></trkpt><trkpt lat="43.4891167" lon="10.521055"><ele>93.0</ele><time>2026-03-22T13:43:55.01Z</time></trkpt><trkpt lat="43.4890733" lon="10.521285"><ele>92.66666666666667</ele><time>2026-03-22T13:43:56.011Z</time></trkpt><trkpt lat="43.4890067" lon="10.5215017"><ele>92.33333333333334</ele><time>2026-03-22T13:43:57.01Z</time></trkpt><trkpt lat="43.4889167" lon="10.5216967"><ele>92.0</ele><time>2026-03-22T13:43:58.01Z</time></trkpt><trkpt lat="43.4888017" lon="10.5218767"><ele>91.66666666666667</ele><time>2026-03-22T13:43:59.011Z</time></trkpt><trkpt lat="43.4886683" lon="10.5220417"><ele>91.33333333333333</ele><time>2026-03-22T13:44:00.01Z</time></trkpt><trkpt lat="43.4885317" lon="10.5222017"><ele>91.0</ele><time>2026-03-22T13:44:01.011Z</time></trkpt><trkpt lat="43.4884133" lon="10.5223667"><ele>90.66666666666666</ele><time>2026-03-22T13:44:02.012Z</time></trkpt><trkpt lat="43.48831" lon="10.5225567"><ele>90.33333333333333</ele><time>2026-03-22T13:44:03.01Z</time></trkpt><trkpt lat="43.4882333" lon="10.5227767"><ele>90.0</ele><time>2026-03-22T13:44:04.01Z</time></trkpt><trkpt lat="43.48818" lon="10.52302"><ele>89.66666666666667</ele><time>2026-03-22T13:44:05.01Z</time></trkpt><trkpt lat="43.488165" lon="10.5232817"><ele>89.33333333333334</ele><time>2026-03-22T13:44:06.009Z</time></trkpt><trkpt lat="43.48817" lon="10.5235533"><ele>89.0</ele><time>2026-03-22T13:44:07.01Z</time></trkpt><trkpt lat="43.4881867" lon="10.52383"><ele>87.33333333333334</ele><time>2026-03-22T13:44:08.011Z</time></trkpt><trkpt lat="43.4882033" lon="10.52411"><ele>85.66666666666667</ele><time>2026-03-22T13:44:09.011Z</time></trkpt><trkpt lat="43.4882117" lon="10.524395"><ele>84.0</ele><time>2026-03-22T13:44:10.01Z</time></trkpt><trkpt lat="43.488215" lon="10.524685"><ele>83.66666666666667</ele><time>2026-03-22T13:44:11.01Z</time></trkpt><trkpt lat="43.4882067" lon="10.5249767"><ele>83.33333333333334</ele><time>2026-03-22T13:44:12.01Z</time></trkpt><trkpt lat="43.48818" lon="10.5252683"><ele>83.0</ele><time>2026-03-22T13:44:13.011Z</time></trkpt><trkpt lat="43.4881433" lon="10.5255567"><ele>83.0</ele><time>2026-03-22T13:44:14.01Z</time></trkpt><trkpt lat="43.4881017" lon="10.5258417"><ele>83.0</ele><time>2026-03-22T13:44:15.01Z</time></trkpt><trkpt lat="43.48806" lon="10.5261183"><ele>83.0</ele><time>2026-03-22T13:44:16.01Z</time></trkpt><trkpt lat="43.48802" lon="10.5263883"><ele>83.33333333333334</ele><time>2026-03-22T13:44:17.011Z</time></trkpt><trkpt lat="43.48798" lon="10.52666"><ele>83.66666666666667</ele><time>2026-03-22T13:44:18.011Z</time></trkpt><trkpt lat="43.4879383" lon="10.5269333"><ele>84.0</ele><time>2026-03-22T13:44:19.012Z</time></trkpt><trkpt lat="43.487895" lon="10.527205"><ele>84.33333333333333</ele><time>2026-03-22T13:44:20.012Z</time></trkpt><trkpt lat="43.487855" lon="10.52748"><ele>84.66666666666666</ele><time>2026-03-22T13:44:21.011Z</time></trkpt><trkpt lat="43.4878133" lon="10.5277567"><ele>85.0</ele><time>2026-03-22T13:44:22.011Z</time></trkpt><trkpt lat="43.4877767" lon="10.52803"><ele>85.66666666666666</ele><time>2026-03-22T13:44:23.01Z</time></trkpt><trkpt lat="43.487735" lon="10.52831"><ele>86.33333333333333</ele><time>2026-03-22T13:44:24.011Z</time></trkpt><trkpt lat="43.4876933" lon="10.52859"><ele>87.0</ele><time>2026-03-22T13:44:25.011Z</time></trkpt><trkpt lat="43.4876517" lon="10.5288733"><ele>88.0</ele><time>2026-03-22T13:44:26.013Z</time></trkpt><trkpt lat="43.4876083" lon="10.5291567"><ele>89.0</ele><time>2026-03-22T13:44:27.01Z</time></trkpt><trkpt lat="43.4875667" lon="10.52944"><ele>90.0</ele><time>2026-03-22T13:44:28.011Z</time></trkpt><trkpt lat="43.487525" lon="10.5297233"><ele>90.33333333333333</ele><time>2026-03-22T13:44:29.011Z</time></trkpt><trkpt lat="43.4874833" lon="10.5300083"><ele>90.66666666666666</ele><time>2026-03-22T13:44:30.011Z</time></trkpt><trkpt lat="43.4874433" lon="10.530295"><ele>91.0</ele><time>2026-03-22T13:44:31.011Z</time></trkpt><trkpt lat="43.4874" lon="10.5305783"><ele>91.66666666666666</ele><time>2026-03-22T13:44:32.01Z</time></trkpt><trkpt lat="43.4873567" lon="10.5308617"><ele>92.33333333333333</ele><time>2026-03-22T13:44:33.01Z</time></trkpt><trkpt lat="43.4873183" lon="10.5311433"><ele>93.0</ele><time>2026-03-22T13:44:34.01Z</time></trkpt><trkpt lat="43.4872817" lon="10.5314233"><ele>93.0</ele><time>2026-03-22T13:44:35.011Z</time></trkpt><trkpt lat="43.4872383" lon="10.5317"><ele>93.0</ele><time>2026-03-22T13:44:36.011Z</time></trkpt><trkpt lat="43.4871817" lon="10.53197"><ele>93.0</ele><time>2026-03-22T13:44:37.011Z</time></trkpt><trkpt lat="43.4871033" lon="10.53223"><ele>93.0</ele><time>2026-03-22T13:44:38.011Z</time></trkpt><trkpt lat="43.487005" lon="10.5324783"><ele>93.0</ele><time>2026-03-22T13:44:39.01Z</time></trkpt><trkpt lat="43.48689" lon="10.53271"><ele>93.0</ele><time>2026-03-22T13:44:40.011Z</time></trkpt><trkpt lat="43.4867583" lon="10.5329267"><ele>93.33333333333333</ele><time>2026-03-22T13:44:41.01Z</time></trkpt><trkpt lat="43.4866133" lon="10.5331333"><ele>93.66666666666666</ele><time>2026-03-22T13:44:42.011Z</time></trkpt><trkpt lat="43.486465" lon="10.5333383"><ele>94.0</ele><time>2026-03-22T13:44:43.009Z</time></trkpt><trkpt lat="43.4863133" lon="10.5335433"><ele>94.33333333333333</ele><time>2026-03-22T13:44:44.011Z</time></trkpt><trkpt lat="43.48616" lon="10.5337483"><ele>94.66666666666667</ele><time>2026-03-22T13:44:45.011Z</time></trkpt><trkpt lat="43.48601" lon="10.5339567"><ele>95.0</ele><time>2026-03-22T13:44:46.01Z</time></trkpt><trkpt lat="43.4858583" lon="10.534165"><ele>95.0</ele><time>2026-03-22T13:44:47.01Z</time></trkpt><trkpt lat="43.4857033" lon="10.5343733"><ele>95.0</ele><time>2026-03-22T13:44:48.01Z</time></trkpt><trkpt lat="43.48555" lon="10.53458"><ele>95.0</ele><time>2026-03-22T13:44:49.01Z</time></trkpt><trkpt lat="43.4853983" lon="10.5347833"><ele>95.66666666666667</ele><time>2026-03-22T13:44:50.011Z</time></trkpt><trkpt lat="43.4852483" lon="10.534985"><ele>96.33333333333334</ele><time>2026-03-22T13:44:51.011Z</time></trkpt><trkpt lat="43.4851033" lon="10.535195"><ele>97.0</ele><time>2026-03-22T13:44:52.009Z</time></trkpt><trkpt lat="43.484965" lon="10.5354167"><ele>98.33333333333334</ele><time>2026-03-22T13:44:53.01Z</time></trkpt><trkpt lat="43.4848383" lon="10.53565"><ele>99.66666666666666</ele><time>2026-03-22T13:44:54.01Z</time></trkpt><trkpt lat="43.4847267" lon="10.5358917"><ele>101.0</ele><time>2026-03-22T13:44:55.01Z</time></trkpt><trkpt lat="43.4846217" lon="10.5361417"><ele>101.0</ele><time>2026-03-22T13:44:56.011Z</time></trkpt><trkpt lat="43.484515" lon="10.5363967"><ele>101.0</ele><time>2026-03-22T13:44:57.011Z</time></trkpt><trkpt lat="43.4844033" lon="10.5366533"><ele>101.0</ele><time>2026-03-22T13:44:58.01Z</time></trkpt><trkpt lat="43.4842933" lon="10.5369067"><ele>101.66666666666666</ele><time>2026-03-22T13:44:59.01Z</time></trkpt><trkpt lat="43.48418" lon="10.53716"><ele>102.33333333333334</ele><time>2026-03-22T13:45:00.01Z</time></trkpt><trkpt lat="43.4840717" lon="10.5374117"><ele>103.0</ele><time>2026-03-22T13:45:01.01Z</time></trkpt><trkpt lat="43.4839633" lon="10.537665"><ele>104.0</ele><time>2026-03-22T13:45:02.011Z</time></trkpt><trkpt lat="43.48385" lon="10.5379167"><ele>105.0</ele><time>2026-03-22T13:45:03.011Z</time></trkpt><trkpt lat="43.4837383" lon="10.538175"><ele>106.0</ele><time>2026-03-22T13:45:04.01Z</time></trkpt><trkpt lat="43.4836267" lon="10.5384317"><ele>106.0</ele><time>2026-03-22T13:45:05.01Z</time></trkpt><trkpt lat="43.48351" lon="10.5386883"><ele>106.0</ele><time>2026-03-22T13:45:06.01Z</time></trkpt><trkpt lat="43.4833933" lon="10.5389417"><ele>106.0</ele><time>2026-03-22T13:45:07.01Z</time></trkpt><trkpt lat="43.4832733" lon="10.5391967"><ele>106.0</ele><time>2026-03-22T13:45:08.011Z</time></trkpt><trkpt lat="43.4831567" lon="10.539445"><ele>106.0</ele><time>2026-03-22T13:45:09.012Z</time></trkpt><trkpt lat="43.4830333" lon="10.5396883"><ele>106.0</ele><time>2026-03-22T13:45:10.011Z</time></trkpt><trkpt lat="43.4829083" lon="10.53992"><ele>108.33333333333334</ele><time>2026-03-22T13:45:11.01Z</time></trkpt><trkpt lat="43.4827817" lon="10.5401433"><ele>110.66666666666666</ele><time>2026-03-22T13:45:12.008Z</time></trkpt><trkpt lat="43.4826517" lon="10.5403533"><ele>113.0</ele><time>2026-03-22T13:45:13.01Z</time></trkpt><trkpt lat="43.4825233" lon="10.5405567"><ele>113.0</ele><time>2026-03-22T13:45:14.01Z</time></trkpt><trkpt lat="43.4823967" lon="10.5407567"><ele>113.0</ele><time>2026-03-22T13:45:15.01Z</time></trkpt><trkpt lat="43.482275" lon="10.5409567"><ele>113.0</ele><time>2026-03-22T13:45:16.01Z</time></trkpt><trkpt lat="43.48215" lon="10.5411567"><ele>115.0</ele><time>2026-03-22T13:45:17.01Z</time></trkpt><trkpt lat="43.4820217" lon="10.541355"><ele>117.0</ele><time>2026-03-22T13:45:18.01Z</time></trkpt><trkpt lat="43.481895" lon="10.541555"><ele>119.0</ele><time>2026-03-22T13:45:19.01Z</time></trkpt><trkpt lat="43.4817733" lon="10.5417583"><ele>119.0</ele><time>2026-03-22T13:45:20.011Z</time></trkpt><trkpt lat="43.4816467" lon="10.5419667"><ele>119.0</ele><time>2026-03-22T13:45:21.01Z</time></trkpt><trkpt lat="43.481525" lon="10.5421767"><ele>119.0</ele><time>2026-03-22T13:45:22.009Z</time></trkpt><trkpt lat="43.4814017" lon="10.5423867"><ele>122.0</ele><time>2026-03-22T13:45:23.01Z</time></trkpt><trkpt lat="43.4812833" lon="10.5425933"><ele>125.0</ele><time>2026-03-22T13:45:24.01Z</time></trkpt><trkpt lat="43.4811667" lon="10.5427883"><ele>128.0</ele><time>2026-03-22T13:45:25.011Z</time></trkpt><trkpt lat="43.4810583" lon="10.5429667"><ele>130.0</ele><time>2026-03-22T13:45:26.01Z</time></trkpt><trkpt lat="43.4809683" lon="10.5431283"><ele>132.0</ele><time>2026-03-22T13:45:27.011Z</time></trkpt><trkpt lat="43.4808783" lon="10.54328"><ele>134.0</ele><time>2026-03-22T13:45:28.011Z</time></trkpt><trkpt lat="43.4807883" lon="10.5434233"><ele>136.0</ele><time>2026-03-22T13:45:29.011Z</time></trkpt><trkpt lat="43.480705" lon="10.5435617"><ele>136.0</ele><time>2026-03-22T13:45:30.01Z</time></trkpt><trkpt lat="43.4806233" lon="10.543705"><ele>136.0</ele><time>2026-03-22T13:45:31.011Z</time></trkpt><trkpt lat="43.480535" lon="10.5438483"><ele>136.0</ele><time>2026-03-22T13:45:32.01Z</time></trkpt><trkpt lat="43.4804467" lon="10.5439883"><ele>136.0</ele><time>2026-03-22T13:45:33.011Z</time></trkpt><trkpt lat="43.48036" lon="10.54413"><ele>137.5</ele><time>2026-03-22T13:45:34.011Z</time></trkpt><trkpt lat="43.4802717" lon="10.5442733"><ele>139.0</ele><time>2026-03-22T13:45:35.011Z</time></trkpt><trkpt lat="43.4801867" lon="10.5444217"><ele>140.5</ele><time>2026-03-22T13:45:36.011Z</time></trkpt><trkpt lat="43.4800933" lon="10.5445767"><ele>142.0</ele><time>2026-03-22T13:45:37.011Z</time></trkpt><trkpt lat="43.4799967" lon="10.54474"><ele>142.33333333333334</ele><time>2026-03-22T13:45:38.011Z</time></trkpt><trkpt lat="43.47989" lon="10.5449083"><ele>142.66666666666666</ele><time>2026-03-22T13:45:39.01Z</time></trkpt><trkpt lat="43.47978" lon="10.545075"><ele>143.0</ele><time>2026-03-22T13:45:40.011Z</time></trkpt><trkpt lat="43.4796833" lon="10.5452517"><ele>143.66666666666666</ele><time>2026-03-22T13:45:41.011Z</time></trkpt><trkpt lat="43.4796033" lon="10.5454383"><ele>144.33333333333334</ele><time>2026-03-22T13:45:42.011Z</time></trkpt><trkpt lat="43.4795367" lon="10.545635"><ele>145.0</ele><time>2026-03-22T13:45:43.011Z</time></trkpt><trkpt lat="43.4794883" lon="10.5458433"><ele>145.33333333333334</ele><time>2026-03-22T13:45:44.01Z</time></trkpt><trkpt lat="43.479465" lon="10.5460583"><ele>145.66666666666666</ele><time>2026-03-22T13:45:45.012Z</time></trkpt><trkpt lat="43.4794633" lon="10.5462817"><ele>146.0</ele><time>2026-03-22T13:45:46.011Z</time></trkpt><trkpt lat="43.4794883" lon="10.54651"><ele>146.0</ele><time>2026-03-22T13:45:47.012Z</time></trkpt><trkpt lat="43.47954" lon="10.5467333"><ele>146.0</ele><time>2026-03-22T13:45:48.01Z</time></trkpt><trkpt lat="43.4796133" lon="10.5469467"><ele>146.0</ele><time>2026-03-22T13:45:49.01Z</time></trkpt><trkpt lat="43.4797083" lon="10.547145"><ele>146.0</ele><time>2026-03-22T13:45:50.01Z</time></trkpt><trkpt lat="43.47982" lon="10.54733"><ele>146.0</ele><time>2026-03-22T13:45:51.01Z</time></trkpt><trkpt lat="43.4799483" lon="10.5475017"><ele>146.0</ele><time>2026-03-22T13:45:52.008Z</time></trkpt><trkpt lat="43.4800867" lon="10.54767"><ele>146.0</ele><time>2026-03-22T13:45:53.009Z</time></trkpt><trkpt lat="43.480235" lon="10.5478333"><ele>146.0</ele><time>2026-03-22T13:45:54.01Z</time></trkpt><trkpt lat="43.4803833" lon="10.5480033"><ele>146.0</ele><time>2026-03-22T13:45:55.009Z</time></trkpt><trkpt lat="43.4805283" lon="10.5481733"><ele>145.0</ele><time>2026-03-22T13:45:56.01Z</time></trkpt><trkpt lat="43.480675" lon="10.5483433"><ele>144.0</ele><time>2026-03-22T13:45:57.011Z</time></trkpt><trkpt lat="43.4808233" lon="10.5485217"><ele>143.0</ele><time>2026-03-22T13:45:58.01Z</time></trkpt><trkpt lat="43.480975" lon="10.5487033"><ele>143.0</ele><time>2026-03-22T13:45:59.01Z</time></trkpt><trkpt lat="43.4811283" lon="10.5488817"><ele>143.0</ele><time>2026-03-22T13:46:00.01Z</time></trkpt><trkpt lat="43.4812783" lon="10.5490583"><ele>143.0</ele><time>2026-03-22T13:46:01.01Z</time></trkpt><trkpt lat="43.4814283" lon="10.54923"><ele>143.0</ele><time>2026-03-22T13:46:02.01Z</time></trkpt><trkpt lat="43.4815783" lon="10.5493983"><ele>143.0</ele><time>2026-03-22T13:46:03.01Z</time></trkpt><trkpt lat="43.4817267" lon="10.54957"><ele>143.0</ele><time>2026-03-22T13:46:04.009Z</time></trkpt><trkpt lat="43.4818733" lon="10.5497333"><ele>142.0</ele><time>2026-03-22T13:46:05.009Z</time></trkpt><trkpt lat="43.4820167" lon="10.5499017"><ele>141.0</ele><time>2026-03-22T13:46:06.01Z</time></trkpt><trkpt lat="43.4821633" lon="10.5500667"><ele>140.0</ele><time>2026-03-22T13:46:07.01Z</time></trkpt><trkpt lat="43.4823117" lon="10.5502317"><ele>143.33333333333331</ele><time>2026-03-22T13:46:08.01Z</time></trkpt><trkpt lat="43.4824467" lon="10.5504183"><ele>146.66666666666666</ele><time>2026-03-22T13:46:09.009Z</time></trkpt><trkpt lat="43.482565" lon="10.5506333"><ele>150.0</ele><time>2026-03-22T13:46:10.012Z</time></trkpt><trkpt lat="43.4826633" lon="10.55087"><ele>150.0</ele><time>2026-03-22T13:46:11.009Z</time></trkpt><trkpt lat="43.4827467" lon="10.5511217"><ele>150.0</ele><time>2026-03-22T13:46:12.007Z</time></trkpt><trkpt lat="43.4828233" lon="10.55138"><ele>150.0</ele><time>2026-03-22T13:46:13.009Z</time></trkpt><trkpt lat="43.4828983" lon="10.551645"><ele>150.66666666666666</ele><time>2026-03-22T13:46:14.01Z</time></trkpt><trkpt lat="43.482975" lon="10.551915"><ele>151.33333333333331</ele><time>2026-03-22T13:46:15.009Z</time></trkpt><trkpt lat="43.483055" lon="10.5521867"><ele>152.0</ele><time>2026-03-22T13:46:16.01Z</time></trkpt><trkpt lat="43.483135" lon="10.5524617"><ele>153.0</ele><time>2026-03-22T13:46:17.01Z</time></trkpt><trkpt lat="43.483215" lon="10.5527383"><ele>154.0</ele><time>2026-03-22T13:46:18.009Z</time></trkpt><trkpt lat="43.4832967" lon="10.5530183"><ele>155.0</ele><time>2026-03-22T13:46:19.009Z</time></trkpt><trkpt lat="43.4833833" lon="10.5532967"><ele>155.66666666666666</ele><time>2026-03-22T13:46:20.011Z</time></trkpt><trkpt lat="43.48347" lon="10.5535733"><ele>156.33333333333334</ele><time>2026-03-22T13:46:21.009Z</time></trkpt><trkpt lat="43.4835533" lon="10.553855"><ele>157.0</ele><time>2026-03-22T13:46:22.009Z</time></trkpt><trkpt lat="43.483635" lon="10.5541383"><ele>158.66666666666669</ele><time>2026-03-22T13:46:23.009Z</time></trkpt><trkpt lat="43.483715" lon="10.5544183"><ele>160.33333333333334</ele><time>2026-03-22T13:46:24.01Z</time></trkpt><trkpt lat="43.4837933" lon="10.5546983"><ele>162.0</ele><time>2026-03-22T13:46:25.01Z</time></trkpt><trkpt lat="43.4838717" lon="10.5549733"><ele>162.0</ele><time>2026-03-22T13:46:26.008Z</time></trkpt><trkpt lat="43.48395" lon="10.555245"><ele>162.0</ele><time>2026-03-22T13:46:27.01Z</time></trkpt><trkpt lat="43.4840233" lon="10.5555133"><ele>162.0</ele><time>2026-03-22T13:46:28.008Z</time></trkpt><trkpt lat="43.484095" lon="10.5557783"><ele>162.66666666666666</ele><time>2026-03-22T13:46:29.01Z</time></trkpt><trkpt lat="43.484175" lon="10.5560317"><ele>163.33333333333331</ele><time>2026-03-22T13:46:30.009Z</time></trkpt><trkpt lat="43.4842483" lon="10.5562767"><ele>164.0</ele><time>2026-03-22T13:46:31.01Z</time></trkpt><trkpt lat="43.484315" lon="10.5565083"><ele>165.66666666666666</ele><time>2026-03-22T13:46:32.01Z</time></trkpt><trkpt lat="43.48438" lon="10.5567217"><ele>167.33333333333334</ele><time>2026-03-22T13:46:33.01Z</time></trkpt><trkpt lat="43.48444" lon="10.556925"><ele>169.0</ele><time>2026-03-22T13:46:34.008Z</time></trkpt><trkpt lat="43.4844967" lon="10.55713"><ele>169.66666666666669</ele><time>2026-03-22T13:46:35.009Z</time></trkpt><trkpt lat="43.484555" lon="10.5573383"><ele>170.33333333333334</ele><time>2026-03-22T13:46:36.01Z</time></trkpt><trkpt lat="43.4846133" lon="10.5575383"><ele>171.0</ele><time>2026-03-22T13:46:37.01Z</time></trkpt><trkpt lat="43.4846667" lon="10.5577267"><ele>170.5</ele><time>2026-03-22T13:46:38.011Z</time></trkpt><trkpt lat="43.484715" lon="10.5579017"><ele>170.0</ele><time>2026-03-22T13:46:39.009Z</time></trkpt><trkpt lat="43.484765" lon="10.558055"><ele>169.5</ele><time>2026-03-22T13:46:40.01Z</time></trkpt><trkpt lat="43.4848067" lon="10.558195"><ele>169.0</ele><time>2026-03-22T13:46:41.009Z</time></trkpt><trkpt lat="43.4848383" lon="10.558315"><ele>169.0</ele><time>2026-03-22T13:46:42.01Z</time></trkpt><trkpt lat="43.4848617" lon="10.5584167"><ele>169.0</ele><time>2026-03-22T13:46:43.01Z</time></trkpt><trkpt lat="43.48489" lon="10.5585567"><ele>169.0</ele><time>2026-03-22T13:46:45.01Z</time></trkpt><trkpt lat="43.4849483" lon="10.5586483"><ele>169.0</ele><time>2026-03-22T13:47:03.01Z</time></trkpt><trkpt lat="43.48498" lon="10.5587617"><ele>169.0</ele><time>2026-03-22T13:47:04.01Z</time></trkpt><trkpt lat="43.4850133" lon="10.5589033"><ele>169.25</ele><time>2026-03-22T13:47:05.01Z</time></trkpt><trkpt lat="43.4850617" lon="10.5590667"><ele>169.5</ele><time>2026-03-22T13:47:06.01Z</time></trkpt><trkpt lat="43.4851117" lon="10.5592333"><ele>169.75</ele><time>2026-03-22T13:47:07.01Z</time></trkpt><trkpt lat="43.4851617" lon="10.5594067"><ele>170.0</ele><time>2026-03-22T13:47:08.009Z</time></trkpt><trkpt lat="43.4852133" lon="10.5595917"><ele>168.0</ele><time>2026-03-22T13:47:09.01Z</time></trkpt><trkpt lat="43.4852717" lon="10.559795"><ele>166.0</ele><time>2026-03-22T13:47:10.009Z</time></trkpt><trkpt lat="43.4853283" lon="10.5600067"><ele>164.0</ele><time>2026-03-22T13:47:11.01Z</time></trkpt><trkpt lat="43.4853883" lon="10.560215"><ele>164.66666666666666</ele><time>2026-03-22T13:47:12.008Z</time></trkpt><trkpt lat="43.4854467" lon="10.5604283"><ele>165.33333333333334</ele><time>2026-03-22T13:47:13.01Z</time></trkpt><trkpt lat="43.48551" lon="10.5606367"><ele>166.0</ele><time>2026-03-22T13:47:14.01Z</time></trkpt><trkpt lat="43.4855717" lon="10.560835"><ele>166.0</ele><time>2026-03-22T13:47:15.01Z</time></trkpt><trkpt lat="43.4856283" lon="10.561015"><ele>166.0</ele><time>2026-03-22T13:47:16.01Z</time></trkpt><trkpt lat="43.4856767" lon="10.5611817"><ele>166.0</ele><time>2026-03-22T13:47:17.011Z</time></trkpt><trkpt lat="43.4857167" lon="10.5613367"><ele>166.0</ele><time>2026-03-22T13:47:18.009Z</time></trkpt><trkpt lat="43.4857433" lon="10.5614783"><ele>166.8</ele><time>2026-03-22T13:47:19.01Z</time></trkpt><trkpt lat="43.485755" lon="10.5616017"><ele>167.60000000000002</ele><time>2026-03-22T13:47:20.01Z</time></trkpt><trkpt lat="43.4857533" lon="10.5617083"><ele>168.4</ele><time>2026-03-22T13:47:21.01Z</time></trkpt><trkpt lat="43.48573" lon="10.56184"><ele>169.2</ele><time>2026-03-22T13:47:23.01Z</time></trkpt><trkpt lat="43.4856717" lon="10.56195"><ele>170.0</ele><time>2026-03-22T13:47:26.009Z</time></trkpt><trkpt lat="43.4855633" lon="10.5620433"><ele>173.0</ele><time>2026-03-22T13:47:28.01Z</time></trkpt><trkpt lat="43.4854817" lon="10.5620967"><ele>176.0</ele><time>2026-03-22T13:47:29.01Z</time></trkpt><trkpt lat="43.4853883" lon="10.5621583"><ele>179.0</ele><time>2026-03-22T13:47:30.012Z</time></trkpt><trkpt lat="43.4852467" lon="10.562215"><ele>182.0</ele><time>2026-03-22T13:47:31.009Z</time></trkpt><trkpt lat="43.4851083" lon="10.5622733"><ele>182.0</ele><time>2026-03-22T13:47:32.01Z</time></trkpt><trkpt lat="43.4849733" lon="10.5623383"><ele>182.0</ele><time>2026-03-22T13:47:33.01Z</time></trkpt><trkpt lat="43.4848333" lon="10.5624183"><ele>182.0</ele><time>2026-03-22T13:47:34.009Z</time></trkpt><trkpt lat="43.4847083" lon="10.56253"><ele>182.0</ele><time>2026-03-22T13:47:35.01Z</time></trkpt><trkpt lat="43.4845967" lon="10.56267"><ele>182.5</ele><time>2026-03-22T13:47:36.012Z</time></trkpt><trkpt lat="43.4845017" lon="10.5628183"><ele>183.0</ele><time>2026-03-22T13:47:37.011Z</time></trkpt><trkpt lat="43.48443" lon="10.5629567"><ele>183.5</ele><time>2026-03-22T13:47:38.011Z</time></trkpt><trkpt lat="43.4843583" lon="10.5630533"><ele>184.0</ele><time>2026-03-22T13:47:39.01Z</time></trkpt><trkpt lat="43.4842833" lon="10.56312"><ele>184.0</ele><time>2026-03-22T13:47:40.01Z</time></trkpt><trkpt lat="43.4841917" lon="10.5631067"><ele>184.0</ele><time>2026-03-22T13:47:41.009Z</time></trkpt><trkpt lat="43.4840867" lon="10.5630433"><ele>184.0</ele><time>2026-03-22T13:47:42.01Z</time></trkpt><trkpt lat="43.48397" lon="10.562935"><ele>184.0</ele><time>2026-03-22T13:47:43.01Z</time></trkpt><trkpt lat="43.4838517" lon="10.5627883"><ele>184.0</ele><time>2026-03-22T13:47:44.009Z</time></trkpt><trkpt lat="43.483725" lon="10.562645"><ele>184.0</ele><time>2026-03-22T13:47:45.01Z</time></trkpt><trkpt lat="43.4835917" lon="10.5625167"><ele>184.0</ele><time>2026-03-22T13:47:46.01Z</time></trkpt><trkpt lat="43.48344" lon="10.5624"><ele>184.0</ele><time>2026-03-22T13:47:47.009Z</time></trkpt><trkpt lat="43.4832817" lon="10.5623"><ele>184.0</ele><time>2026-03-22T13:47:48.009Z</time></trkpt><trkpt lat="43.4831167" lon="10.5622133"><ele>184.0</ele><time>2026-03-22T13:47:49.008Z</time></trkpt><trkpt lat="43.482945" lon="10.5621517"><ele>184.66666666666669</ele><time>2026-03-22T13:47:50.01Z</time></trkpt><trkpt lat="43.4827717" lon="10.5621067"><ele>185.33333333333334</ele><time>2026-03-22T13:47:51.011Z</time></trkpt><trkpt lat="43.4826033" lon="10.5620783"><ele>186.0</ele><time>2026-03-22T13:47:52.008Z</time></trkpt><trkpt lat="43.4824417" lon="10.5620583"><ele>186.0</ele><time>2026-03-22T13:47:53.01Z</time></trkpt><trkpt lat="43.4822933" lon="10.5620367"><ele>186.0</ele><time>2026-03-22T13:47:54.009Z</time></trkpt><trkpt lat="43.4821717" lon="10.5619817"><ele>186.0</ele><time>2026-03-22T13:47:55.01Z</time></trkpt><trkpt lat="43.4820717" lon="10.5618733"><ele>186.0</ele><time>2026-03-22T13:47:56.009Z</time></trkpt><trkpt lat="43.4819883" lon="10.561745"><ele>184.60000000000002</ele><time>2026-03-22T13:47:57.009Z</time></trkpt><trkpt lat="43.4819183" lon="10.5616233"><ele>183.2</ele><time>2026-03-22T13:47:58.009Z</time></trkpt><trkpt lat="43.4818367" lon="10.5615367"><ele>181.8</ele><time>2026-03-22T13:47:59.009Z</time></trkpt><trkpt lat="43.4817383" lon="10.5614983"><ele>180.39999999999998</ele><time>2026-03-22T13:48:00.01Z</time></trkpt><trkpt lat="43.4816367" lon="10.5614867"><ele>179.0</ele><time>2026-03-22T13:48:01.011Z</time></trkpt><trkpt lat="43.4815183" lon="10.56153"><ele>179.0</ele><time>2026-03-22T13:48:02.011Z</time></trkpt><trkpt lat="43.4813983" lon="10.5616367"><ele>179.0</ele><time>2026-03-22T13:48:03.01Z</time></trkpt><trkpt lat="43.4812633" lon="10.5617617"><ele>179.0</ele><time>2026-03-22T13:48:04.012Z</time></trkpt><trkpt lat="43.4811167" lon="10.5618633"><ele>178.0</ele><time>2026-03-22T13:48:05.01Z</time></trkpt><trkpt lat="43.4809583" lon="10.5619183"><ele>177.0</ele><time>2026-03-22T13:48:06.009Z</time></trkpt><trkpt lat="43.4807983" lon="10.5619317"><ele>176.0</ele><time>2026-03-22T13:48:07.009Z</time></trkpt><trkpt lat="43.480635" lon="10.5619533"><ele>176.0</ele><time>2026-03-22T13:48:08.011Z</time></trkpt><trkpt lat="43.480475" lon="10.5620083"><ele>176.0</ele><time>2026-03-22T13:48:09.009Z</time></trkpt><trkpt lat="43.4803133" lon="10.5621"><ele>176.0</ele><time>2026-03-22T13:48:10.011Z</time></trkpt><trkpt lat="43.4801633" lon="10.5622067"><ele>180.66666666666666</ele><time>2026-03-22T13:48:11.01Z</time></trkpt><trkpt lat="43.48001" lon="10.5623167"><ele>185.33333333333334</ele><time>2026-03-22T13:48:12.01Z</time></trkpt><trkpt lat="43.4798517" lon="10.5624017"><ele>190.0</ele><time>2026-03-22T13:48:13.01Z</time></trkpt><trkpt lat="43.47968" lon="10.5624467"><ele>189.0</ele><time>2026-03-22T13:48:14.011Z</time></trkpt><trkpt lat="43.4794983" lon="10.5624633"><ele>188.0</ele><time>2026-03-22T13:48:15.01Z</time></trkpt><trkpt lat="43.4793133" lon="10.56247"><ele>187.0</ele><time>2026-03-22T13:48:16.009Z</time></trkpt><trkpt lat="43.4791233" lon="10.5624583"><ele>187.0</ele><time>2026-03-22T13:48:17.011Z</time></trkpt><trkpt lat="43.4789417" lon="10.5624267"><ele>187.0</ele><time>2026-03-22T13:48:18.01Z</time></trkpt><trkpt lat="43.4787767" lon="10.562395"><ele>187.0</ele><time>2026-03-22T13:48:19.01Z</time></trkpt><trkpt lat="43.4786267" lon="10.5623733"><ele>186.25</ele><time>2026-03-22T13:48:20.011Z</time></trkpt><trkpt lat="43.4784933" lon="10.56237"><ele>185.5</ele><time>2026-03-22T13:48:21.009Z</time></trkpt><trkpt lat="43.4783833" lon="10.5623983"><ele>184.75</ele><time>2026-03-22T13:48:22.01Z</time></trkpt><trkpt lat="43.4782867" lon="10.5624783"><ele>184.0</ele><time>2026-03-22T13:48:23.01Z</time></trkpt><trkpt lat="43.4781917" lon="10.5626"><ele>184.0</ele><time>2026-03-22T13:48:24.01Z</time></trkpt><trkpt lat="43.4781133" lon="10.56277"><ele>184.0</ele><time>2026-03-22T13:48:25.01Z</time></trkpt><trkpt lat="43.4780233" lon="10.5629467"><ele>184.0</ele><time>2026-03-22T13:48:26.01Z</time></trkpt><trkpt lat="43.4779333" lon="10.563125"><ele>184.0</ele><time>2026-03-22T13:48:27.009Z</time></trkpt><trkpt lat="43.4778417" lon="10.5633033"><ele>184.0</ele><time>2026-03-22T13:48:28.01Z</time></trkpt><trkpt lat="43.47776" lon="10.5634733"><ele>184.0</ele><time>2026-03-22T13:48:29.01Z</time></trkpt><trkpt lat="43.47769" lon="10.56364"><ele>184.0</ele><time>2026-03-22T13:48:30.01Z</time></trkpt><trkpt lat="43.477635" lon="10.5638017"><ele>184.0</ele><time>2026-03-22T13:48:31.01Z</time></trkpt><trkpt lat="43.47758" lon="10.5639483"><ele>184.0</ele><time>2026-03-22T13:48:32.01Z</time></trkpt><trkpt lat="43.4775117" lon="10.564075"><ele>184.0</ele><time>2026-03-22T13:48:33.01Z</time></trkpt><trkpt lat="43.4774217" lon="10.5641767"><ele>184.0</ele><time>2026-03-22T13:48:34.009Z</time></trkpt><trkpt lat="43.4773167" lon="10.5642383"><ele>184.0</ele><time>2026-03-22T13:48:35.009Z</time></trkpt><trkpt lat="43.4772117" lon="10.5642567"><ele>184.0</ele><time>2026-03-22T13:48:36.01Z</time></trkpt><trkpt lat="43.47712" lon="10.5642517"><ele>184.0</ele><time>2026-03-22T13:48:37.01Z</time></trkpt><trkpt lat="43.4770383" lon="10.56423"><ele>184.0</ele><time>2026-03-22T13:48:38.01Z</time></trkpt><trkpt lat="43.4769567" lon="10.5642117"><ele>184.0</ele><time>2026-03-22T13:48:39.01Z</time></trkpt><trkpt lat="43.4768717" lon="10.5642033"><ele>184.0</ele><time>2026-03-22T13:48:40.009Z</time></trkpt><trkpt lat="43.4767767" lon="10.5642617"><ele>185.75</ele><time>2026-03-22T13:48:41.01Z</time></trkpt><trkpt lat="43.4766833" lon="10.5643583"><ele>187.5</ele><time>2026-03-22T13:48:42.01Z</time></trkpt><trkpt lat="43.47659" lon="10.564485"><ele>189.25</ele><time>2026-03-22T13:48:43.01Z</time></trkpt><trkpt lat="43.476495" lon="10.5646483"><ele>191.0</ele><time>2026-03-22T13:48:44.009Z</time></trkpt><trkpt lat="43.4764" lon="10.5648267"><ele>191.0</ele><time>2026-03-22T13:48:45.01Z</time></trkpt><trkpt lat="43.4762867" lon="10.565"><ele>191.0</ele><time>2026-03-22T13:48:46.009Z</time></trkpt><trkpt lat="43.4761633" lon="10.5651517"><ele>191.0</ele><time>2026-03-22T13:48:47.009Z</time></trkpt><trkpt lat="43.4760283" lon="10.56528"><ele>192.33333333333331</ele><time>2026-03-22T13:48:48.01Z</time></trkpt><trkpt lat="43.47589" lon="10.56539"><ele>193.66666666666666</ele><time>2026-03-22T13:48:49.009Z</time></trkpt><trkpt lat="43.4757383" lon="10.5654517"><ele>195.0</ele><time>2026-03-22T13:48:50.011Z</time></trkpt><trkpt lat="43.47558" lon="10.5654717"><ele>193.66666666666666</ele><time>2026-03-22T13:48:51.01Z</time></trkpt><trkpt lat="43.475425" lon="10.565485"><ele>192.33333333333331</ele><time>2026-03-22T13:48:52.01Z</time></trkpt><trkpt lat="43.4752767" lon="10.5655267"><ele>191.0</ele><time>2026-03-22T13:48:53.01Z</time></trkpt><trkpt lat="43.4751367" lon="10.565605"><ele>191.0</ele><time>2026-03-22T13:48:54.01Z</time></trkpt><trkpt lat="43.4749917" lon="10.5657"><ele>191.0</ele><time>2026-03-22T13:48:55.01Z</time></trkpt><trkpt lat="43.4748417" lon="10.565795"><ele>191.0</ele><time>2026-03-22T13:48:56.009Z</time></trkpt><trkpt lat="43.4746917" lon="10.5658733"><ele>189.0</ele><time>2026-03-22T13:48:57.009Z</time></trkpt><trkpt lat="43.47455" lon="10.5659283"><ele>187.0</ele><time>2026-03-22T13:48:58.011Z</time></trkpt><trkpt lat="43.47442" lon="10.5659717"><ele>185.0</ele><time>2026-03-22T13:48:59.01Z</time></trkpt><trkpt lat="43.4743117" lon="10.5660283"><ele>183.0</ele><time>2026-03-22T13:49:00.01Z</time></trkpt><trkpt lat="43.4742267" lon="10.56613"><ele>188.0</ele><time>2026-03-22T13:49:01.01Z</time></trkpt><trkpt lat="43.4741717" lon="10.5662717"><ele>193.0</ele><time>2026-03-22T13:49:02.011Z</time></trkpt><trkpt lat="43.474135" lon="10.56644"><ele>198.0</ele><time>2026-03-22T13:49:03.009Z</time></trkpt><trkpt lat="43.4741267" lon="10.5666233"><ele>203.0</ele><time>2026-03-22T13:49:04.01Z</time></trkpt><trkpt lat="43.4741367" lon="10.5667883"><ele>203.00000000000003</ele><time>2026-03-22T13:49:05.009Z</time></trkpt><trkpt lat="43.4741667" lon="10.5669233"><ele>203.0</ele><time>2026-03-22T13:49:06.01Z</time></trkpt><trkpt lat="43.4741933" lon="10.5670333"><ele>203.0</ele><time>2026-03-22T13:49:07.008Z</time></trkpt><trkpt lat="43.4742067" lon="10.5671367"><ele>203.0</ele><time>2026-03-22T13:49:08.01Z</time></trkpt><trkpt lat="43.4742167" lon="10.5672333"><ele>203.00000000000003</ele><time>2026-03-22T13:49:09.01Z</time></trkpt><trkpt lat="43.4741817" lon="10.5673617"><ele>203.0</ele><time>2026-03-22T13:49:11.009Z</time></trkpt><trkpt lat="43.474045" lon="10.5672517"><ele>203.0</ele><time>2026-03-22T13:49:13.009Z</time></trkpt><trkpt lat="43.4739517" lon="10.5670867"><ele>203.0</ele><time>2026-03-22T13:49:14.011Z</time></trkpt><trkpt lat="43.4738667" lon="10.5668983"><ele>203.0</ele><time>2026-03-22T13:49:15.01Z</time></trkpt><trkpt lat="43.473785" lon="10.566745"><ele>202.25</ele><time>2026-03-22T13:49:16.01Z</time></trkpt><trkpt lat="43.473725" lon="10.5665817"><ele>201.5</ele><time>2026-03-22T13:49:17.01Z</time></trkpt><trkpt lat="43.47368" lon="10.5664283"><ele>200.75</ele><time>2026-03-22T13:49:18.01Z</time></trkpt><trkpt lat="43.4736333" lon="10.5662767"><ele>200.0</ele><time>2026-03-22T13:49:19.009Z</time></trkpt><trkpt lat="43.473565" lon="10.5661483"><ele>200.0</ele><time>2026-03-22T13:49:20.011Z</time></trkpt><trkpt lat="43.47348" lon="10.5660317"><ele>200.0</ele><time>2026-03-22T13:49:21.01Z</time></trkpt><trkpt lat="43.47339" lon="10.5659133"><ele>200.0</ele><time>2026-03-22T13:49:22.01Z</time></trkpt><trkpt lat="43.4732967" lon="10.5657967"><ele>200.0</ele><time>2026-03-22T13:49:23.01Z</time></trkpt><trkpt lat="43.4732083" lon="10.5656817"><ele>200.0</ele><time>2026-03-22T13:49:24.01Z</time></trkpt><trkpt lat="43.473125" lon="10.5655667"><ele>200.0</ele><time>2026-03-22T13:49:25.01Z</time></trkpt><trkpt lat="43.4730433" lon="10.5654583"><ele>200.0</ele><time>2026-03-22T13:49:26.01Z</time></trkpt><trkpt lat="43.4729683" lon="10.5653533"><ele>200.0</ele><time>2026-03-22T13:49:27.009Z</time></trkpt><trkpt lat="43.4729" lon="10.5652633"><ele>200.0</ele><time>2026-03-22T13:49:28.01Z</time></trkpt><trkpt lat="43.4728433" lon="10.5651883"><ele>199.83333333333334</ele><time>2026-03-22T13:49:29.01Z</time></trkpt><trkpt lat="43.472775" lon="10.5651367"><ele>199.66666666666669</ele><time>2026-03-22T13:49:30.01Z</time></trkpt><trkpt lat="43.4727067" lon="10.5651167"><ele>199.5</ele><time>2026-03-22T13:49:31.011Z</time></trkpt><trkpt lat="43.47258" lon="10.5651467"><ele>199.33333333333331</ele><time>2026-03-22T13:49:33.01Z</time></trkpt><trkpt lat="43.472505" lon="10.56516"><ele>199.16666666666666</ele><time>2026-03-22T13:49:34.01Z</time></trkpt><trkpt lat="43.47242" lon="10.5651483"><ele>199.0</ele><time>2026-03-22T13:49:35.009Z</time></trkpt><trkpt lat="43.472325" lon="10.565105"><ele>199.0</ele><time>2026-03-22T13:49:36.008Z</time></trkpt><trkpt lat="43.4722183" lon="10.5650283"><ele>199.0</ele><time>2026-03-22T13:49:37.01Z</time></trkpt><trkpt lat="43.4721233" lon="10.5649467"><ele>199.0</ele><time>2026-03-22T13:49:38.009Z</time></trkpt><trkpt lat="43.47204" lon="10.5648567"><ele>199.0</ele><time>2026-03-22T13:49:39.01Z</time></trkpt><trkpt lat="43.4719633" lon="10.56475"><ele>199.0</ele><time>2026-03-22T13:49:40.011Z</time></trkpt><trkpt lat="43.4719" lon="10.564615"><ele>197.5</ele><time>2026-03-22T13:49:41.01Z</time></trkpt><trkpt lat="43.4718433" lon="10.5644667"><ele>196.0</ele><time>2026-03-22T13:49:42.01Z</time></trkpt><trkpt lat="43.4717933" lon="10.5643033"><ele>194.5</ele><time>2026-03-22T13:49:43.01Z</time></trkpt><trkpt lat="43.4717533" lon="10.564135"><ele>193.0</ele><time>2026-03-22T13:49:44.011Z</time></trkpt><trkpt lat="43.471715" lon="10.5639667"><ele>193.0</ele><time>2026-03-22T13:49:45.01Z</time></trkpt><trkpt lat="43.4716767" lon="10.563805"><ele>193.0</ele><time>2026-03-22T13:49:46.009Z</time></trkpt><trkpt lat="43.4716283" lon="10.5636633"><ele>193.0</ele><time>2026-03-22T13:49:47.009Z</time></trkpt><trkpt lat="43.4715667" lon="10.5635233"><ele>193.0</ele><time>2026-03-22T13:49:48.011Z</time></trkpt><trkpt lat="43.4714867" lon="10.56339"><ele>193.0</ele><time>2026-03-22T13:49:49.011Z</time></trkpt><trkpt lat="43.4713983" lon="10.5632667"><ele>193.0</ele><time>2026-03-22T13:49:50.01Z</time></trkpt><trkpt lat="43.4713083" lon="10.5631367"><ele>193.0</ele><time>2026-03-22T13:49:51.011Z</time></trkpt><trkpt lat="43.4712233" lon="10.5629883"><ele>193.0</ele><time>2026-03-22T13:49:52.01Z</time></trkpt><trkpt lat="43.4711417" lon="10.5628083"><ele>191.5</ele><time>2026-03-22T13:49:53.01Z</time></trkpt><trkpt lat="43.47104" lon="10.5626883"><ele>190.0</ele><time>2026-03-22T13:49:54.01Z</time></trkpt><trkpt lat="43.47093" lon="10.5625817"><ele>188.5</ele><time>2026-03-22T13:49:55.01Z</time></trkpt><trkpt lat="43.470815" lon="10.5624817"><ele>187.0</ele><time>2026-03-22T13:49:56.01Z</time></trkpt><trkpt lat="43.4706967" lon="10.56238"><ele>187.0</ele><time>2026-03-22T13:49:57.01Z</time></trkpt><trkpt lat="43.4705883" lon="10.5622683"><ele>187.0</ele><time>2026-03-22T13:49:58.01Z</time></trkpt><trkpt lat="43.4704933" lon="10.5621317"><ele>187.0</ele><time>2026-03-22T13:49:59.01Z</time></trkpt><trkpt lat="43.4704083" lon="10.561975"><ele>187.0</ele><time>2026-03-22T13:50:00.01Z</time></trkpt><trkpt lat="43.470325" lon="10.5618067"><ele>187.25</ele><time>2026-03-22T13:50:01.008Z</time></trkpt><trkpt lat="43.4702483" lon="10.5616483"><ele>187.5</ele><time>2026-03-22T13:50:02.011Z</time></trkpt><trkpt lat="43.4701783" lon="10.5614833"><ele>187.75</ele><time>2026-03-22T13:50:03.01Z</time></trkpt><trkpt lat="43.4701167" lon="10.561325"><ele>188.0</ele><time>2026-03-22T13:50:04.009Z</time></trkpt><trkpt lat="43.4700667" lon="10.561165"><ele>188.0</ele><time>2026-03-22T13:50:05.01Z</time></trkpt><trkpt lat="43.4700317" lon="10.561005"><ele>188.0</ele><time>2026-03-22T13:50:06.009Z</time></trkpt><trkpt lat="43.47002" lon="10.5608333"><ele>188.0</ele><time>2026-03-22T13:50:07.01Z</time></trkpt><trkpt lat="43.4700267" lon="10.5606583"><ele>188.0</ele><time>2026-03-22T13:50:08.01Z</time></trkpt><trkpt lat="43.470045" lon="10.5604783"><ele>189.25</ele><time>2026-03-22T13:50:09.011Z</time></trkpt><trkpt lat="43.4700767" lon="10.5602917"><ele>190.5</ele><time>2026-03-22T13:50:10.01Z</time></trkpt><trkpt lat="43.4700983" lon="10.560105"><ele>191.75</ele><time>2026-03-22T13:50:11.01Z</time></trkpt><trkpt lat="43.4701133" lon="10.559915"><ele>193.0</ele><time>2026-03-22T13:50:12.01Z</time></trkpt><trkpt lat="43.47012" lon="10.55972"><ele>191.0</ele><time>2026-03-22T13:50:13.01Z</time></trkpt><trkpt lat="43.4701183" lon="10.5595133"><ele>189.0</ele><time>2026-03-22T13:50:14.01Z</time></trkpt><trkpt lat="43.4701067" lon="10.559305"><ele>187.0</ele><time>2026-03-22T13:50:15.009Z</time></trkpt><trkpt lat="43.47008" lon="10.559095"><ele>187.0</ele><time>2026-03-22T13:50:16.01Z</time></trkpt><trkpt lat="43.4700417" lon="10.5588833"><ele>187.0</ele><time>2026-03-22T13:50:17.01Z</time></trkpt><trkpt lat="43.4699933" lon="10.5586817"><ele>187.0</ele><time>2026-03-22T13:50:18.01Z</time></trkpt><trkpt lat="43.469935" lon="10.5584933"><ele>184.5</ele><time>2026-03-22T13:50:19.01Z</time></trkpt><trkpt lat="43.4698783" lon="10.5583083"><ele>182.0</ele><time>2026-03-22T13:50:20.011Z</time></trkpt><trkpt lat="43.46981" lon="10.55813"><ele>179.5</ele><time>2026-03-22T13:50:21.01Z</time></trkpt><trkpt lat="43.4697317" lon="10.5579617"><ele>177.0</ele><time>2026-03-22T13:50:22.01Z</time></trkpt><trkpt lat="43.46965" lon="10.5578117"><ele>175.25</ele><time>2026-03-22T13:50:23.01Z</time></trkpt><trkpt lat="43.4695517" lon="10.557685"><ele>173.5</ele><time>2026-03-22T13:50:24.01Z</time></trkpt><trkpt lat="43.46944" lon="10.5575817"><ele>171.75</ele><time>2026-03-22T13:50:25.01Z</time></trkpt><trkpt lat="43.4693233" lon="10.55748"><ele>170.0</ele><time>2026-03-22T13:50:26.01Z</time></trkpt><trkpt lat="43.4692083" lon="10.5573867"><ele>170.0</ele><time>2026-03-22T13:50:27.01Z</time></trkpt><trkpt lat="43.4690967" lon="10.5573083"><ele>170.0</ele><time>2026-03-22T13:50:28.011Z</time></trkpt><trkpt lat="43.4689833" lon="10.557265"><ele>170.0</ele><time>2026-03-22T13:50:29.01Z</time></trkpt><trkpt lat="43.4688783" lon="10.5572583"><ele>170.0</ele><time>2026-03-22T13:50:30.011Z</time></trkpt><trkpt lat="43.4687767" lon="10.5572967"><ele>170.25</ele><time>2026-03-22T13:50:31.009Z</time></trkpt><trkpt lat="43.4686717" lon="10.557355"><ele>170.5</ele><time>2026-03-22T13:50:32.011Z</time></trkpt><trkpt lat="43.4685633" lon="10.5574"><ele>170.75</ele><time>2026-03-22T13:50:33.01Z</time></trkpt><trkpt lat="43.4684533" lon="10.55739"><ele>171.0</ele><time>2026-03-22T13:50:34.01Z</time></trkpt><trkpt lat="43.4683267" lon="10.5573383"><ele>171.0</ele><time>2026-03-22T13:50:35.01Z</time></trkpt><trkpt lat="43.4682067" lon="10.5572417"><ele>171.0</ele><time>2026-03-22T13:50:36.009Z</time></trkpt><trkpt lat="43.4681" lon="10.5571233"><ele>171.0</ele><time>2026-03-22T13:50:37.01Z</time></trkpt><trkpt lat="43.46802" lon="10.55698"><ele>171.0</ele><time>2026-03-22T13:50:38.011Z</time></trkpt><trkpt lat="43.4679617" lon="10.5568383"><ele>168.4</ele><time>2026-03-22T13:50:39.009Z</time></trkpt><trkpt lat="43.4679083" lon="10.5567083"><ele>165.8</ele><time>2026-03-22T13:50:40.009Z</time></trkpt><trkpt lat="43.4678383" lon="10.5566133"><ele>163.20000000000002</ele><time>2026-03-22T13:50:41.01Z</time></trkpt><trkpt lat="43.467755" lon="10.556565"><ele>160.60000000000002</ele><time>2026-03-22T13:50:42.01Z</time></trkpt><trkpt lat="43.4676683" lon="10.5565683"><ele>158.0</ele><time>2026-03-22T13:50:43.009Z</time></trkpt><trkpt lat="43.4675883" lon="10.5566383"><ele>158.0</ele><time>2026-03-22T13:50:44.009Z</time></trkpt><trkpt lat="43.4675133" lon="10.556755"><ele>158.0</ele><time>2026-03-22T13:50:45.009Z</time></trkpt><trkpt lat="43.4674283" lon="10.5569067"><ele>158.0</ele><time>2026-03-22T13:50:46.01Z</time></trkpt><trkpt lat="43.4673333" lon="10.5570683"><ele>158.0</ele><time>2026-03-22T13:50:47.01Z</time></trkpt><trkpt lat="43.467235" lon="10.5572383"><ele>157.0</ele><time>2026-03-22T13:50:48.01Z</time></trkpt><trkpt lat="43.4671333" lon="10.5574017"><ele>156.0</ele><time>2026-03-22T13:50:49.01Z</time></trkpt><trkpt lat="43.4670283" lon="10.557545"><ele>155.0</ele><time>2026-03-22T13:50:50.01Z</time></trkpt><trkpt lat="43.4669217" lon="10.557655"><ele>154.0</ele><time>2026-03-22T13:50:51.01Z</time></trkpt><trkpt lat="43.4668083" lon="10.557725"><ele>154.0</ele><time>2026-03-22T13:50:52.01Z</time></trkpt><trkpt lat="43.46669" lon="10.557765"><ele>154.0</ele><time>2026-03-22T13:50:53.011Z</time></trkpt><trkpt lat="43.466575" lon="10.5577867"><ele>154.0</ele><time>2026-03-22T13:50:54.01Z</time></trkpt><trkpt lat="43.466475" lon="10.5578133"><ele>154.0</ele><time>2026-03-22T13:50:55.011Z</time></trkpt><trkpt lat="43.4663833" lon="10.5578817"><ele>154.0</ele><time>2026-03-22T13:50:56.012Z</time></trkpt><trkpt lat="43.46631" lon="10.558"><ele>154.5</ele><time>2026-03-22T13:50:57.01Z</time></trkpt><trkpt lat="43.4662667" lon="10.5581433"><ele>155.0</ele><time>2026-03-22T13:50:58.01Z</time></trkpt><trkpt lat="43.466245" lon="10.5583217"><ele>155.5</ele><time>2026-03-22T13:50:59.011Z</time></trkpt><trkpt lat="43.4662433" lon="10.5585117"><ele>156.0</ele><time>2026-03-22T13:51:00.01Z</time></trkpt><trkpt lat="43.4662467" lon="10.558685"><ele>160.0</ele><time>2026-03-22T13:51:01.01Z</time></trkpt><trkpt lat="43.4662567" lon="10.5588567"><ele>164.0</ele><time>2026-03-22T13:51:02.011Z</time></trkpt><trkpt lat="43.4662867" lon="10.559025"><ele>168.0</ele><time>2026-03-22T13:51:03.01Z</time></trkpt><trkpt lat="43.4663283" lon="10.55918"><ele>172.0</ele><time>2026-03-22T13:51:04.009Z</time></trkpt><trkpt lat="43.4664" lon="10.5593083"><ele>172.0</ele><time>2026-03-22T13:51:05.011Z</time></trkpt><trkpt lat="43.4664967" lon="10.559415"><ele>172.0</ele><time>2026-03-22T13:51:06.011Z</time></trkpt><trkpt lat="43.4666033" lon="10.5595083"><ele>172.0</ele><time>2026-03-22T13:51:07.011Z</time></trkpt><trkpt lat="43.4667117" lon="10.55959"><ele>172.0</ele><time>2026-03-22T13:51:08.011Z</time></trkpt><trkpt lat="43.4668017" lon="10.5596583"><ele>172.0</ele><time>2026-03-22T13:51:09.011Z</time></trkpt><trkpt lat="43.4668717" lon="10.5597283"><ele>172.0</ele><time>2026-03-22T13:51:10.01Z</time></trkpt><trkpt lat="43.46693" lon="10.559795"><ele>172.0</ele><time>2026-03-22T13:51:11.01Z</time></trkpt><trkpt lat="43.4669467" lon="10.5598917"><ele>172.0</ele><time>2026-03-22T13:51:12.012Z</time></trkpt><trkpt lat="43.4669067" lon="10.5600667"><ele>172.0</ele><time>2026-03-22T13:51:14.009Z</time></trkpt><trkpt lat="43.4667733" lon="10.5601467"><ele>172.0</ele><time>2026-03-22T13:51:16.01Z</time></trkpt><trkpt lat="43.466695" lon="10.5601383"><ele>172.0</ele><time>2026-03-22T13:51:17.01Z</time></trkpt><trkpt lat="43.4665883" lon="10.56011"><ele>172.0</ele><time>2026-03-22T13:51:18.011Z</time></trkpt><trkpt lat="43.4664467" lon="10.560065"><ele>172.0</ele><time>2026-03-22T13:51:19.012Z</time></trkpt><trkpt lat="43.4662533" lon="10.5600033"><ele>180.0</ele><time>2026-03-22T13:51:20.011Z</time></trkpt><trkpt lat="43.4661083" lon="10.5599183"><ele>188.0</ele><time>2026-03-22T13:51:21.01Z</time></trkpt><trkpt lat="43.4659717" lon="10.5598133"><ele>196.0</ele><time>2026-03-22T13:51:22.01Z</time></trkpt><trkpt lat="43.46586" lon="10.5596767"><ele>188.0</ele><time>2026-03-22T13:51:23.011Z</time></trkpt><trkpt lat="43.4657567" lon="10.5595083"><ele>180.0</ele><time>2026-03-22T13:51:24.01Z</time></trkpt><trkpt lat="43.4656583" lon="10.5593583"><ele>172.0</ele><time>2026-03-22T13:51:25.011Z</time></trkpt><trkpt lat="43.4655767" lon="10.5591867"><ele>172.0</ele><time>2026-03-22T13:51:26.012Z</time></trkpt><trkpt lat="43.4655" lon="10.5590133"><ele>172.0</ele><time>2026-03-22T13:51:27.01Z</time></trkpt><trkpt lat="43.4654417" lon="10.558845"><ele>172.0</ele><time>2026-03-22T13:51:28.01Z</time></trkpt><trkpt lat="43.4653833" lon="10.558695"><ele>172.0</ele><time>2026-03-22T13:51:29.011Z</time></trkpt><trkpt lat="43.4653017" lon="10.5585817"><ele>172.2</ele><time>2026-03-22T13:51:30.011Z</time></trkpt><trkpt lat="43.4652317" lon="10.5584917"><ele>172.39999999999998</ele><time>2026-03-22T13:51:31.011Z</time></trkpt><trkpt lat="43.4651433" lon="10.5584383"><ele>172.60000000000002</ele><time>2026-03-22T13:51:32.011Z</time></trkpt><trkpt lat="43.4650433" lon="10.55842"><ele>172.8</ele><time>2026-03-22T13:51:33.01Z</time></trkpt><trkpt lat="43.4649283" lon="10.5584367"><ele>173.0</ele><time>2026-03-22T13:51:34.01Z</time></trkpt><trkpt lat="43.4647967" lon="10.5585233"><ele>173.0</ele><time>2026-03-22T13:51:35.01Z</time></trkpt><trkpt lat="43.4646783" lon="10.5585867"><ele>173.0</ele><time>2026-03-22T13:51:36.009Z</time></trkpt><trkpt lat="43.4645583" lon="10.558615"><ele>173.0</ele><time>2026-03-22T13:51:37.011Z</time></trkpt><trkpt lat="43.4644383" lon="10.5586067"><ele>173.0</ele><time>2026-03-22T13:51:38.011Z</time></trkpt><trkpt lat="43.4643133" lon="10.5585483"><ele>174.75</ele><time>2026-03-22T13:51:39.012Z</time></trkpt><trkpt lat="43.4641883" lon="10.5584583"><ele>176.5</ele><time>2026-03-22T13:51:40.011Z</time></trkpt><trkpt lat="43.46407" lon="10.5583467"><ele>178.25</ele><time>2026-03-22T13:51:41.01Z</time></trkpt><trkpt lat="43.4639367" lon="10.558245"><ele>180.0</ele><time>2026-03-22T13:51:42.01Z</time></trkpt><trkpt lat="43.4638" lon="10.5581583"><ele>180.0</ele><time>2026-03-22T13:51:43.011Z</time></trkpt><trkpt lat="43.463665" lon="10.5580983"><ele>180.0</ele><time>2026-03-22T13:51:44.011Z</time></trkpt><trkpt lat="43.463535" lon="10.5580667"><ele>180.0</ele><time>2026-03-22T13:51:45.01Z</time></trkpt><trkpt lat="43.4634217" lon="10.5580817"><ele>180.0</ele><time>2026-03-22T13:51:46.01Z</time></trkpt><trkpt lat="43.46332" lon="10.5581533"><ele>180.0</ele><time>2026-03-22T13:51:47.009Z</time></trkpt><trkpt lat="43.4632333" lon="10.5582733"><ele>180.0</ele><time>2026-03-22T13:51:48.009Z</time></trkpt><trkpt lat="43.463185" lon="10.558445"><ele>180.0</ele><time>2026-03-22T13:51:49.01Z</time></trkpt><trkpt lat="43.46315" lon="10.5586417"><ele>180.0</ele><time>2026-03-22T13:51:50.008Z</time></trkpt><trkpt lat="43.4630983" lon="10.558835"><ele>180.0</ele><time>2026-03-22T13:51:51.01Z</time></trkpt><trkpt lat="43.4630167" lon="10.559015"><ele>180.0</ele><time>2026-03-22T13:51:52.009Z</time></trkpt><trkpt lat="43.4629033" lon="10.55917"><ele>180.0</ele><time>2026-03-22T13:51:53.011Z</time></trkpt><trkpt lat="43.46278" lon="10.55932"><ele>180.0</ele><time>2026-03-22T13:51:54.009Z</time></trkpt><trkpt lat="43.46266" lon="10.55948"><ele>180.0</ele><time>2026-03-22T13:51:55.012Z</time></trkpt><trkpt lat="43.4625533" lon="10.5596567"><ele>180.0</ele><time>2026-03-22T13:51:56.011Z</time></trkpt><trkpt lat="43.4624567" lon="10.559845"><ele>183.0</ele><time>2026-03-22T13:51:57.01Z</time></trkpt><trkpt lat="43.4623667" lon="10.56003"><ele>186.0</ele><time>2026-03-22T13:51:58.011Z</time></trkpt><trkpt lat="43.462285" lon="10.5601917"><ele>189.0</ele><time>2026-03-22T13:51:59.009Z</time></trkpt><trkpt lat="43.4622" lon="10.560335"><ele>192.0</ele><time>2026-03-22T13:52:00.011Z</time></trkpt><trkpt lat="43.4621033" lon="10.5604633"><ele>192.0</ele><time>2026-03-22T13:52:01.01Z</time></trkpt><trkpt lat="43.4619967" lon="10.56057"><ele>192.0</ele><time>2026-03-22T13:52:02.01Z</time></trkpt><trkpt lat="43.46189" lon="10.5606633"><ele>192.0</ele><time>2026-03-22T13:52:03.011Z</time></trkpt><trkpt lat="43.4617883" lon="10.5607483"><ele>192.0</ele><time>2026-03-22T13:52:04.01Z</time></trkpt><trkpt lat="43.461705" lon="10.56086"><ele>192.0</ele><time>2026-03-22T13:52:05.01Z</time></trkpt><trkpt lat="43.4616483" lon="10.5609983"><ele>192.0</ele><time>2026-03-22T13:52:06.011Z</time></trkpt><trkpt lat="43.4616117" lon="10.5611317"><ele>192.0</ele><time>2026-03-22T13:52:07.011Z</time></trkpt><trkpt lat="43.46161" lon="10.5612817"><ele>192.0</ele><time>2026-03-22T13:52:08.011Z</time></trkpt><trkpt lat="43.46163" lon="10.56144"><ele>192.0</ele><time>2026-03-22T13:52:09.011Z</time></trkpt><trkpt lat="43.4616683" lon="10.5615933"><ele>194.0</ele><time>2026-03-22T13:52:10.011Z</time></trkpt><trkpt lat="43.46171" lon="10.5617483"><ele>196.0</ele><time>2026-03-22T13:52:11.011Z</time></trkpt><trkpt lat="43.4617417" lon="10.5618917"><ele>198.0</ele><time>2026-03-22T13:52:12.01Z</time></trkpt><trkpt lat="43.4617533" lon="10.5620217"><ele>200.0</ele><time>2026-03-22T13:52:13.01Z</time></trkpt><trkpt lat="43.46174" lon="10.562135"><ele>202.0</ele><time>2026-03-22T13:52:14.01Z</time></trkpt><trkpt lat="43.4616483" lon="10.5622367"><ele>203.0</ele><time>2026-03-22T13:52:16.011Z</time></trkpt><trkpt lat="43.461565" lon="10.5622067"><ele>204.0</ele><time>2026-03-22T13:52:17.01Z</time></trkpt><trkpt lat="43.46147" lon="10.562165"><ele>205.0</ele><time>2026-03-22T13:52:18.01Z</time></trkpt><trkpt lat="43.4613767" lon="10.5621333"><ele>206.0</ele><time>2026-03-22T13:52:19.011Z</time></trkpt><trkpt lat="43.4612867" lon="10.5621283"><ele>207.0</ele><time>2026-03-22T13:52:20.01Z</time></trkpt><trkpt lat="43.46119" lon="10.5621667"><ele>207.0</ele><time>2026-03-22T13:52:21.01Z</time></trkpt><trkpt lat="43.4610767" lon="10.56226"><ele>207.0</ele><time>2026-03-22T13:52:22.011Z</time></trkpt><trkpt lat="43.46098" lon="10.5623283"><ele>207.0</ele><time>2026-03-22T13:52:23.01Z</time></trkpt><trkpt lat="43.46089" lon="10.5623983"><ele>207.0</ele><time>2026-03-22T13:52:24.01Z</time></trkpt><trkpt lat="43.4608" lon="10.56246"><ele>207.0</ele><time>2026-03-22T13:52:25.01Z</time></trkpt><trkpt lat="43.46072" lon="10.56252"><ele>207.0</ele><time>2026-03-22T13:52:26.01Z</time></trkpt><trkpt lat="43.460635" lon="10.56258"><ele>207.0</ele><time>2026-03-22T13:52:27.011Z</time></trkpt><trkpt lat="43.4605567" lon="10.5626267"><ele>207.0</ele><time>2026-03-22T13:52:28.009Z</time></trkpt><trkpt lat="43.460485" lon="10.5626633"><ele>207.0</ele><time>2026-03-22T13:52:29.011Z</time></trkpt><trkpt lat="43.4604283" lon="10.5627033"><ele>207.0</ele><time>2026-03-22T13:52:30.011Z</time></trkpt><trkpt lat="43.4603417" lon="10.5627317"><ele>207.0</ele><time>2026-03-22T13:52:33.011Z</time></trkpt><trkpt lat="43.460265" lon="10.5627783"><ele>207.0</ele><time>2026-03-22T13:52:35.011Z</time></trkpt><trkpt lat="43.46021" lon="10.562825"><ele>207.0</ele><time>2026-03-22T13:52:36.01Z</time></trkpt><trkpt lat="43.46013" lon="10.5628983"><ele>207.0</ele><time>2026-03-22T13:52:38.01Z</time></trkpt><trkpt lat="43.46008" lon="10.5629717"><ele>207.0</ele><time>2026-03-22T13:52:40.01Z</time></trkpt><trkpt lat="43.460135" lon="10.5630833"><ele>207.0</ele><time>2026-03-22T13:52:42.01Z</time></trkpt><trkpt lat="43.4601567" lon="10.5632183"><ele>207.0</ele><time>2026-03-22T13:52:44.011Z</time></trkpt><trkpt lat="43.4601917" lon="10.5633683"><ele>208.0</ele><time>2026-03-22T13:52:46.01Z</time></trkpt><trkpt lat="43.460205" lon="10.563505"><ele>209.0</ele><time>2026-03-22T13:52:48.01Z</time></trkpt><trkpt lat="43.4601883" lon="10.5636367"><ele>210.0</ele><time>2026-03-22T13:52:52.01Z</time></trkpt><trkpt lat="43.4601483" lon="10.563775"><ele>211.0</ele><time>2026-03-22T13:52:54.01Z</time></trkpt><trkpt lat="43.4601083" lon="10.56394"><ele>212.0</ele><time>2026-03-22T13:52:56.011Z</time></trkpt><trkpt lat="43.4600883" lon="10.5640233"><ele>212.33333333333334</ele><time>2026-03-22T13:52:57.011Z</time></trkpt><trkpt lat="43.460065" lon="10.5641067"><ele>212.66666666666669</ele><time>2026-03-22T13:52:58.01Z</time></trkpt><trkpt lat="43.4600433" lon="10.5642733"><ele>213.0</ele><time>2026-03-22T13:53:00.009Z</time></trkpt><trkpt lat="43.46005" lon="10.5643683"><ele>213.33333333333331</ele><time>2026-03-22T13:53:01.009Z</time></trkpt><trkpt lat="43.4600583" lon="10.5644617"><ele>213.66666666666666</ele><time>2026-03-22T13:53:02.01Z</time></trkpt><trkpt lat="43.4600633" lon="10.5645683"><ele>214.0</ele><time>2026-03-22T13:53:03.009Z</time></trkpt><trkpt lat="43.4600617" lon="10.5646783"><ele>214.16666666666666</ele><time>2026-03-22T13:53:04.01Z</time></trkpt><trkpt lat="43.4600617" lon="10.564795"><ele>214.33333333333331</ele><time>2026-03-22T13:53:05.01Z</time></trkpt><trkpt lat="43.460065" lon="10.56491"><ele>214.5</ele><time>2026-03-22T13:53:06.01Z</time></trkpt><trkpt lat="43.46007" lon="10.5650283"><ele>214.66666666666669</ele><time>2026-03-22T13:53:07.009Z</time></trkpt><trkpt lat="43.4600783" lon="10.565135"><ele>214.83333333333334</ele><time>2026-03-22T13:53:08.011Z</time></trkpt><trkpt lat="43.4600783" lon="10.565235"><ele>215.0</ele><time>2026-03-22T13:53:09.01Z</time></trkpt><trkpt lat="43.460075" lon="10.5653317"><ele>215.66666666666669</ele><time>2026-03-22T13:53:10.009Z</time></trkpt><trkpt lat="43.460075" lon="10.5654283"><ele>216.33333333333334</ele><time>2026-03-22T13:53:11.01Z</time></trkpt><trkpt lat="43.4600767" lon="10.5655267"><ele>217.0</ele><time>2026-03-22T13:53:12.01Z</time></trkpt><trkpt lat="43.4600717" lon="10.56563"><ele>217.66666666666669</ele><time>2026-03-22T13:53:13.009Z</time></trkpt><trkpt lat="43.4600767" lon="10.5657383"><ele>218.33333333333334</ele><time>2026-03-22T13:53:14.01Z</time></trkpt><trkpt lat="43.4600783" lon="10.56585"><ele>219.0</ele><time>2026-03-22T13:53:15.009Z</time></trkpt><trkpt lat="43.46008" lon="10.565965"><ele>219.0</ele><time>2026-03-22T13:53:16.009Z</time></trkpt><trkpt lat="43.460085" lon="10.5660833"><ele>219.0</ele><time>2026-03-22T13:53:17.01Z</time></trkpt><trkpt lat="43.4600967" lon="10.5661983"><ele>219.0</ele><time>2026-03-22T13:53:18.01Z</time></trkpt><trkpt lat="43.4601067" lon="10.5663067"><ele>219.0</ele><time>2026-03-22T13:53:19.009Z</time></trkpt><trkpt lat="43.46012" lon="10.56642"><ele>219.0</ele><time>2026-03-22T13:53:20.01Z</time></trkpt><trkpt lat="43.4601333" lon="10.5665233"><ele>219.0</ele><time>2026-03-22T13:53:21.01Z</time></trkpt><trkpt lat="43.4601383" lon="10.5666183"><ele>219.5</ele><time>2026-03-22T13:53:22.01Z</time></trkpt><trkpt lat="43.46015" lon="10.5667067"><ele>220.0</ele><time>2026-03-22T13:53:23.01Z</time></trkpt><trkpt lat="43.460145" lon="10.5668283"><ele>220.5</ele><time>2026-03-22T13:53:25.01Z</time></trkpt><trkpt lat="43.4600867" lon="10.566895"><ele>221.0</ele><time>2026-03-22T13:53:27.009Z</time></trkpt><trkpt lat="43.4599817" lon="10.5669733"><ele>221.5</ele><time>2026-03-22T13:53:29.01Z</time></trkpt><trkpt lat="43.45991" lon="10.567025"><ele>222.0</ele><time>2026-03-22T13:53:30.011Z</time></trkpt><trkpt lat="43.459835" lon="10.5670817"><ele>221.83333333333334</ele><time>2026-03-22T13:53:31.01Z</time></trkpt><trkpt lat="43.4597533" lon="10.567145"><ele>221.66666666666669</ele><time>2026-03-22T13:53:32.011Z</time></trkpt><trkpt lat="43.459675" lon="10.5672117"><ele>221.5</ele><time>2026-03-22T13:53:33.01Z</time></trkpt><trkpt lat="43.4596" lon="10.5672733"><ele>221.33333333333334</ele><time>2026-03-22T13:53:34.011Z</time></trkpt><trkpt lat="43.4595333" lon="10.5673267"><ele>221.16666666666669</ele><time>2026-03-22T13:53:35.01Z</time></trkpt><trkpt lat="43.4594717" lon="10.5673717"><ele>221.0</ele><time>2026-03-22T13:53:36.01Z</time></trkpt><trkpt lat="43.4594" lon="10.5674133"><ele>221.00000000000003</ele><time>2026-03-22T13:53:37.011Z</time></trkpt><trkpt lat="43.45932" lon="10.5674617"><ele>221.0</ele><time>2026-03-22T13:53:38.011Z</time></trkpt><trkpt lat="43.4592433" lon="10.5675133"><ele>221.0</ele><time>2026-03-22T13:53:39.011Z</time></trkpt><trkpt lat="43.4591683" lon="10.5675633"><ele>221.0</ele><time>2026-03-22T13:53:40.01Z</time></trkpt><trkpt lat="43.4591" lon="10.567615"><ele>221.00000000000003</ele><time>2026-03-22T13:53:41.011Z</time></trkpt><trkpt lat="43.459045" lon="10.5676683"><ele>221.0</ele><time>2026-03-22T13:53:42.011Z</time></trkpt><trkpt lat="43.4589867" lon="10.56772"><ele>221.00000000000003</ele><time>2026-03-22T13:53:43.011Z</time></trkpt><trkpt lat="43.4589283" lon="10.5677567"><ele>221.0</ele><time>2026-03-22T13:53:44.011Z</time></trkpt><trkpt lat="43.458865" lon="10.5677867"><ele>221.0</ele><time>2026-03-22T13:53:45.011Z</time></trkpt><trkpt lat="43.4588017" lon="10.5678"><ele>221.0</ele><time>2026-03-22T13:53:46.011Z</time></trkpt><trkpt lat="43.45869" lon="10.5678283"><ele>221.00000000000003</ele><time>2026-03-22T13:53:48.012Z</time></trkpt><trkpt lat="43.4585967" lon="10.5678083"><ele>221.0</ele><time>2026-03-22T13:53:50.011Z</time></trkpt><trkpt lat="43.4585233" lon="10.5677617"><ele>219.66666666666669</ele><time>2026-03-22T13:53:53.011Z</time></trkpt><trkpt lat="43.4584333" lon="10.5677617"><ele>218.33333333333334</ele><time>2026-03-22T13:53:55.011Z</time></trkpt><trkpt lat="43.4583567" lon="10.5677667"><ele>217.0</ele><time>2026-03-22T13:53:56.011Z</time></trkpt><trkpt lat="43.4582817" lon="10.5677617"><ele>215.66666666666669</ele><time>2026-03-22T13:53:57.01Z</time></trkpt><trkpt lat="43.4582017" lon="10.5677467"><ele>214.33333333333334</ele><time>2026-03-22T13:53:58.01Z</time></trkpt><trkpt lat="43.4581067" lon="10.5676867"><ele>213.0</ele><time>2026-03-22T13:53:59.013Z</time></trkpt><trkpt lat="43.4580283" lon="10.5675717"><ele>213.0</ele><time>2026-03-22T13:54:00.011Z</time></trkpt><trkpt lat="43.45796" lon="10.5674867"><ele>213.0</ele><time>2026-03-22T13:54:01.012Z</time></trkpt><trkpt lat="43.45789" lon="10.567415"><ele>213.0</ele><time>2026-03-22T13:54:02.011Z</time></trkpt><trkpt lat="43.4578117" lon="10.5673583"><ele>213.0</ele><time>2026-03-22T13:54:03.01Z</time></trkpt><trkpt lat="43.4577383" lon="10.5673217"><ele>213.0</ele><time>2026-03-22T13:54:04.011Z</time></trkpt><trkpt lat="43.45766" lon="10.5673583"><ele>213.0</ele><time>2026-03-22T13:54:05.012Z</time></trkpt><trkpt lat="43.4575717" lon="10.5674633"><ele>212.5</ele><time>2026-03-22T13:54:06.01Z</time></trkpt><trkpt lat="43.4575533" lon="10.567565"><ele>212.0</ele><time>2026-03-22T13:54:07.011Z</time></trkpt><trkpt lat="43.4574867" lon="10.5676683"><ele>211.5</ele><time>2026-03-22T13:54:08.011Z</time></trkpt><trkpt lat="43.4574367" lon="10.56775"><ele>211.0</ele><time>2026-03-22T13:54:09.011Z</time></trkpt><trkpt lat="43.4573717" lon="10.5677917"><ele>210.5</ele><time>2026-03-22T13:54:10.011Z</time></trkpt><trkpt lat="43.4573033" lon="10.5678067"><ele>210.0</ele><time>2026-03-22T13:54:11.011Z</time></trkpt><trkpt lat="43.4572167" lon="10.5676967"><ele>210.0</ele><time>2026-03-22T13:54:12.011Z</time></trkpt><trkpt lat="43.4571433" lon="10.5675783"><ele>210.0</ele><time>2026-03-22T13:54:13.011Z</time></trkpt><trkpt lat="43.4570667" lon="10.567455"><ele>210.0</ele><time>2026-03-22T13:54:14.011Z</time></trkpt><trkpt lat="43.4569967" lon="10.5673267"><ele>210.0</ele><time>2026-03-22T13:54:15.01Z</time></trkpt><trkpt lat="43.4569" lon="10.5672283"><ele>208.75</ele><time>2026-03-22T13:54:16.011Z</time></trkpt><trkpt lat="43.456795" lon="10.5671433"><ele>207.5</ele><time>2026-03-22T13:54:17.011Z</time></trkpt><trkpt lat="43.45668" lon="10.5670833"><ele>206.25</ele><time>2026-03-22T13:54:18.011Z</time></trkpt><trkpt lat="43.4565683" lon="10.5670417"><ele>205.0</ele><time>2026-03-22T13:54:19.011Z</time></trkpt><trkpt lat="43.4564683" lon="10.567005"><ele>205.0</ele><time>2026-03-22T13:54:20.012Z</time></trkpt><trkpt lat="43.4563717" lon="10.566965"><ele>205.0</ele><time>2026-03-22T13:54:21.011Z</time></trkpt><trkpt lat="43.45628" lon="10.566915"><ele>205.0</ele><time>2026-03-22T13:54:22.011Z</time></trkpt><trkpt lat="43.4561933" lon="10.5668483"><ele>205.0</ele><time>2026-03-22T13:54:23.011Z</time></trkpt><trkpt lat="43.4561133" lon="10.56676"><ele>205.0</ele><time>2026-03-22T13:54:24.012Z</time></trkpt><trkpt lat="43.4560433" lon="10.5666633"><ele>206.4</ele><time>2026-03-22T13:54:25.012Z</time></trkpt><trkpt lat="43.455975" lon="10.5665683"><ele>207.8</ele><time>2026-03-22T13:54:26.012Z</time></trkpt><trkpt lat="43.4559" lon="10.56649"><ele>209.2</ele><time>2026-03-22T13:54:27.012Z</time></trkpt><trkpt lat="43.4558117" lon="10.5664383"><ele>210.6</ele><time>2026-03-22T13:54:28.013Z</time></trkpt><trkpt lat="43.4557067" lon="10.5663967"><ele>212.0</ele><time>2026-03-22T13:54:29.012Z</time></trkpt><trkpt lat="43.455575" lon="10.5663617"><ele>214.66666666666669</ele><time>2026-03-22T13:54:30.012Z</time></trkpt><trkpt lat="43.4554217" lon="10.5663233"><ele>217.33333333333331</ele><time>2026-03-22T13:54:31.012Z</time></trkpt><trkpt lat="43.455265" lon="10.5662783"><ele>220.0</ele><time>2026-03-22T13:54:32.012Z</time></trkpt><trkpt lat="43.4551083" lon="10.5662233"><ele>214.33333333333331</ele><time>2026-03-22T13:54:33.01Z</time></trkpt><trkpt lat="43.45496" lon="10.56617"><ele>208.66666666666669</ele><time>2026-03-22T13:54:34.011Z</time></trkpt><trkpt lat="43.454815" lon="10.5661017"><ele>203.0</ele><time>2026-03-22T13:54:35.011Z</time></trkpt><trkpt lat="43.4546817" lon="10.5660017"><ele>205.0</ele><time>2026-03-22T13:54:36.011Z</time></trkpt><trkpt lat="43.4545667" lon="10.5658867"><ele>207.0</ele><time>2026-03-22T13:54:37.011Z</time></trkpt><trkpt lat="43.4544583" lon="10.5657683"><ele>209.0</ele><time>2026-03-22T13:54:38.011Z</time></trkpt><trkpt lat="43.4543517" lon="10.56566"><ele>211.0</ele><time>2026-03-22T13:54:39.011Z</time></trkpt><trkpt lat="43.4542233" lon="10.5655817"><ele>211.0</ele><time>2026-03-22T13:54:40.012Z</time></trkpt><trkpt lat="43.45409" lon="10.56553"><ele>211.0</ele><time>2026-03-22T13:54:41.011Z</time></trkpt><trkpt lat="43.45394" lon="10.565515"><ele>211.0</ele><time>2026-03-22T13:54:42.012Z</time></trkpt><trkpt lat="43.4538" lon="10.56552"><ele>211.0</ele><time>2026-03-22T13:54:43.011Z</time></trkpt><trkpt lat="43.4536617" lon="10.5655433"><ele>208.75</ele><time>2026-03-22T13:54:44.012Z</time></trkpt><trkpt lat="43.4535333" lon="10.5655767"><ele>206.5</ele><time>2026-03-22T13:54:45.012Z</time></trkpt><trkpt lat="43.45341" lon="10.5656183"><ele>204.25</ele><time>2026-03-22T13:54:46.012Z</time></trkpt><trkpt lat="43.4533067" lon="10.5656817"><ele>202.0</ele><time>2026-03-22T13:54:47.012Z</time></trkpt><trkpt lat="43.453215" lon="10.565765"><ele>202.0</ele><time>2026-03-22T13:54:48.012Z</time></trkpt><trkpt lat="43.4531333" lon="10.5659"><ele>202.0</ele><time>2026-03-22T13:54:49.012Z</time></trkpt><trkpt lat="43.4530683" lon="10.56606"><ele>202.0</ele><time>2026-03-22T13:54:50.011Z</time></trkpt><trkpt lat="43.4530033" lon="10.5662383"><ele>202.0</ele><time>2026-03-22T13:54:51.012Z</time></trkpt><trkpt lat="43.4529417" lon="10.56641"><ele>201.75</ele><time>2026-03-22T13:54:52.011Z</time></trkpt><trkpt lat="43.4528833" lon="10.5665767"><ele>201.5</ele><time>2026-03-22T13:54:53.011Z</time></trkpt><trkpt lat="43.452835" lon="10.5667417"><ele>201.25</ele><time>2026-03-22T13:54:54.012Z</time></trkpt><trkpt lat="43.452785" lon="10.5669017"><ele>201.0</ele><time>2026-03-22T13:54:55.012Z</time></trkpt><trkpt lat="43.4527433" lon="10.56705"><ele>202.33333333333334</ele><time>2026-03-22T13:54:56.011Z</time></trkpt><trkpt lat="43.4526833" lon="10.5671683"><ele>203.66666666666669</ele><time>2026-03-22T13:54:57.01Z</time></trkpt><trkpt lat="43.4526167" lon="10.5672467"><ele>205.0</ele><time>2026-03-22T13:54:58.011Z</time></trkpt><trkpt lat="43.4525533" lon="10.567305"><ele>206.33333333333334</ele><time>2026-03-22T13:54:59.01Z</time></trkpt><trkpt lat="43.452485" lon="10.5673367"><ele>207.66666666666669</ele><time>2026-03-22T13:55:00.011Z</time></trkpt><trkpt lat="43.4524117" lon="10.56733"><ele>209.0</ele><time>2026-03-22T13:55:01.011Z</time></trkpt><trkpt lat="43.452355" lon="10.5672833"><ele>209.0</ele><time>2026-03-22T13:55:02.012Z</time></trkpt><trkpt lat="43.4522867" lon="10.5672417"><ele>209.0</ele><time>2026-03-22T13:55:03.011Z</time></trkpt><trkpt lat="43.4522567" lon="10.567125"><ele>209.0</ele><time>2026-03-22T13:55:04.009Z</time></trkpt><trkpt lat="43.4522833" lon="10.56695"><ele>209.0</ele><time>2026-03-22T13:55:05.011Z</time></trkpt><trkpt lat="43.4523733" lon="10.5666333"><ele>207.0</ele><time>2026-03-22T13:55:06.01Z</time></trkpt><trkpt lat="43.452365" lon="10.56645"><ele>205.0</ele><time>2026-03-22T13:55:07.009Z</time></trkpt><trkpt lat="43.4523483" lon="10.5662917"><ele>203.0</ele><time>2026-03-22T13:55:08.01Z</time></trkpt><trkpt lat="43.452305" lon="10.5661583"><ele>201.0</ele><time>2026-03-22T13:55:09.009Z</time></trkpt><trkpt lat="43.4522433" lon="10.56605"><ele>201.25</ele><time>2026-03-22T13:55:10.01Z</time></trkpt><trkpt lat="43.45215" lon="10.5659883"><ele>201.5</ele><time>2026-03-22T13:55:11.009Z</time></trkpt><trkpt lat="43.4520417" lon="10.5659583"><ele>201.75</ele><time>2026-03-22T13:55:12.009Z</time></trkpt><trkpt lat="43.4519133" lon="10.56595"><ele>202.0</ele><time>2026-03-22T13:55:13.009Z</time></trkpt><trkpt lat="43.4517983" lon="10.5659167"><ele>202.0</ele><time>2026-03-22T13:55:14.009Z</time></trkpt><trkpt lat="43.4517017" lon="10.5658367"><ele>202.0</ele><time>2026-03-22T13:55:15.009Z</time></trkpt><trkpt lat="43.4516333" lon="10.5657117"><ele>202.0</ele><time>2026-03-22T13:55:16.009Z</time></trkpt><trkpt lat="43.4515983" lon="10.5655617"><ele>202.0</ele><time>2026-03-22T13:55:17.009Z</time></trkpt><trkpt lat="43.4515917" lon="10.565385"><ele>200.0</ele><time>2026-03-22T13:55:18.009Z</time></trkpt><trkpt lat="43.4516183" lon="10.56519"><ele>198.0</ele><time>2026-03-22T13:55:19.011Z</time></trkpt><trkpt lat="43.4516733" lon="10.5649883"><ele>196.0</ele><time>2026-03-22T13:55:20.011Z</time></trkpt><trkpt lat="43.4517333" lon="10.5647833"><ele>196.0</ele><time>2026-03-22T13:55:21.01Z</time></trkpt><trkpt lat="43.4517917" lon="10.5645717"><ele>196.0</ele><time>2026-03-22T13:55:22.011Z</time></trkpt><trkpt lat="43.4518217" lon="10.5643583"><ele>196.0</ele><time>2026-03-22T13:55:23.01Z</time></trkpt><trkpt lat="43.4518183" lon="10.5641567"><ele>195.0</ele><time>2026-03-22T13:55:24.01Z</time></trkpt><trkpt lat="43.4517967" lon="10.563985"><ele>194.0</ele><time>2026-03-22T13:55:25.011Z</time></trkpt><trkpt lat="43.4517517" lon="10.563855"><ele>193.0</ele><time>2026-03-22T13:55:26.011Z</time></trkpt><trkpt lat="43.4516767" lon="10.56377"><ele>192.0</ele><time>2026-03-22T13:55:27.01Z</time></trkpt><trkpt lat="43.4515817" lon="10.5637467"><ele>191.0</ele><time>2026-03-22T13:55:28.012Z</time></trkpt><trkpt lat="43.4514867" lon="10.56378"><ele>191.0</ele><time>2026-03-22T13:55:29.011Z</time></trkpt><trkpt lat="43.4513733" lon="10.5638617"><ele>191.0</ele><time>2026-03-22T13:55:30.011Z</time></trkpt><trkpt lat="43.4512417" lon="10.5639983"><ele>191.0</ele><time>2026-03-22T13:55:31.011Z</time></trkpt><trkpt lat="43.4510733" lon="10.5641967"><ele>189.66666666666666</ele><time>2026-03-22T13:55:32.011Z</time></trkpt><trkpt lat="43.4509067" lon="10.56437"><ele>188.33333333333334</ele><time>2026-03-22T13:55:33.011Z</time></trkpt><trkpt lat="43.4507533" lon="10.56454"><ele>187.0</ele><time>2026-03-22T13:55:34.012Z</time></trkpt><trkpt lat="43.4505983" lon="10.5647067"><ele>187.66666666666669</ele><time>2026-03-22T13:55:35.01Z</time></trkpt><trkpt lat="43.4504417" lon="10.5648617"><ele>188.33333333333334</ele><time>2026-03-22T13:55:36.009Z</time></trkpt><trkpt lat="43.4502767" lon="10.5649917"><ele>189.0</ele><time>2026-03-22T13:55:37.01Z</time></trkpt><trkpt lat="43.4500983" lon="10.565095"><ele>189.0</ele><time>2026-03-22T13:55:38.011Z</time></trkpt><trkpt lat="43.4499183" lon="10.56518"><ele>189.0</ele><time>2026-03-22T13:55:39.01Z</time></trkpt><trkpt lat="43.44974" lon="10.5652483"><ele>189.0</ele><time>2026-03-22T13:55:40.009Z</time></trkpt><trkpt lat="43.4495717" lon="10.5653167"><ele>192.66666666666669</ele><time>2026-03-22T13:55:41.01Z</time></trkpt><trkpt lat="43.4494167" lon="10.5654117"><ele>196.33333333333334</ele><time>2026-03-22T13:55:42.01Z</time></trkpt><trkpt lat="43.4492817" lon="10.565535"><ele>200.0</ele><time>2026-03-22T13:55:43.011Z</time></trkpt><trkpt lat="43.449155" lon="10.5656517"><ele>200.0</ele><time>2026-03-22T13:55:44.011Z</time></trkpt><trkpt lat="43.4490233" lon="10.5657183"><ele>200.0</ele><time>2026-03-22T13:55:45.009Z</time></trkpt><trkpt lat="43.448885" lon="10.5657283"><ele>200.0</ele><time>2026-03-22T13:55:46.01Z</time></trkpt><trkpt lat="43.4487617" lon="10.5656867"><ele>200.0</ele><time>2026-03-22T13:55:47.01Z</time></trkpt><trkpt lat="43.44865" lon="10.56558"><ele>199.33333333333334</ele><time>2026-03-22T13:55:48.011Z</time></trkpt><trkpt lat="43.4485433" lon="10.5654267"><ele>198.66666666666669</ele><time>2026-03-22T13:55:49.01Z</time></trkpt><trkpt lat="43.4484433" lon="10.5652483"><ele>198.0</ele><time>2026-03-22T13:55:50.011Z</time></trkpt><trkpt lat="43.44835" lon="10.565075"><ele>196.4</ele><time>2026-03-22T13:55:51.011Z</time></trkpt><trkpt lat="43.4482617" lon="10.5649283"><ele>194.8</ele><time>2026-03-22T13:55:52.009Z</time></trkpt><trkpt lat="43.4481767" lon="10.5648233"><ele>193.2</ele><time>2026-03-22T13:55:53.01Z</time></trkpt><trkpt lat="43.44808" lon="10.564785"><ele>191.6</ele><time>2026-03-22T13:55:54.013Z</time></trkpt><trkpt lat="43.44799" lon="10.5647983"><ele>190.0</ele><time>2026-03-22T13:55:55.01Z</time></trkpt><trkpt lat="43.4479117" lon="10.56487"><ele>189.25</ele><time>2026-03-22T13:55:56.012Z</time></trkpt><trkpt lat="43.44783" lon="10.565005"><ele>188.5</ele><time>2026-03-22T13:55:57.011Z</time></trkpt><trkpt lat="43.44776" lon="10.5651833"><ele>187.75</ele><time>2026-03-22T13:55:58.01Z</time></trkpt><trkpt lat="43.4477083" lon="10.56538"><ele>187.0</ele><time>2026-03-22T13:55:59.01Z</time></trkpt><trkpt lat="43.4476783" lon="10.5655883"><ele>187.0</ele><time>2026-03-22T13:56:00.01Z</time></trkpt><trkpt lat="43.4476583" lon="10.5657833"><ele>187.0</ele><time>2026-03-22T13:56:01.01Z</time></trkpt><trkpt lat="43.4476133" lon="10.5659717"><ele>187.0</ele><time>2026-03-22T13:56:02.011Z</time></trkpt><trkpt lat="43.447525" lon="10.56615"><ele>187.0</ele><time>2026-03-22T13:56:03.01Z</time></trkpt><trkpt lat="43.4474083" lon="10.5663133"><ele>189.33333333333334</ele><time>2026-03-22T13:56:04.011Z</time></trkpt><trkpt lat="43.4472833" lon="10.5664633"><ele>191.66666666666669</ele><time>2026-03-22T13:56:05.01Z</time></trkpt><trkpt lat="43.4471733" lon="10.56661"><ele>194.0</ele><time>2026-03-22T13:56:06.011Z</time></trkpt><trkpt lat="43.4470883" lon="10.566755"><ele>191.75</ele><time>2026-03-22T13:56:07.009Z</time></trkpt><trkpt lat="43.4470317" lon="10.5669217"><ele>189.5</ele><time>2026-03-22T13:56:08.011Z</time></trkpt><trkpt lat="43.447005" lon="10.5671117"><ele>187.25</ele><time>2026-03-22T13:56:09.011Z</time></trkpt><trkpt lat="43.4470233" lon="10.5673133"><ele>185.0</ele><time>2026-03-22T13:56:10.01Z</time></trkpt><trkpt lat="43.447075" lon="10.567505"><ele>185.4</ele><time>2026-03-22T13:56:11.011Z</time></trkpt><trkpt lat="43.4471433" lon="10.5676683"><ele>185.8</ele><time>2026-03-22T13:56:12.011Z</time></trkpt><trkpt lat="43.4472067" lon="10.5678017"><ele>186.2</ele><time>2026-03-22T13:56:13.011Z</time></trkpt><trkpt lat="43.447245" lon="10.5679083"><ele>186.6</ele><time>2026-03-22T13:56:14.012Z</time></trkpt><trkpt lat="43.4472567" lon="10.5680117"><ele>187.0</ele><time>2026-03-22T13:56:15.01Z</time></trkpt><trkpt lat="43.4472367" lon="10.5681167"><ele>187.0</ele><time>2026-03-22T13:56:16.009Z</time></trkpt><trkpt lat="43.4471933" lon="10.5682217"><ele>187.0</ele><time>2026-03-22T13:56:17.01Z</time></trkpt><trkpt lat="43.4471167" lon="10.5682983"><ele>187.0</ele><time>2026-03-22T13:56:18.009Z</time></trkpt><trkpt lat="43.4470217" lon="10.568325"><ele>187.0</ele><time>2026-03-22T13:56:19.01Z</time></trkpt><trkpt lat="43.4469133" lon="10.568315"><ele>187.0</ele><time>2026-03-22T13:56:20.01Z</time></trkpt><trkpt lat="43.4467883" lon="10.56825"><ele>186.5</ele><time>2026-03-22T13:56:21.01Z</time></trkpt><trkpt lat="43.4466683" lon="10.5681433"><ele>186.0</ele><time>2026-03-22T13:56:22.01Z</time></trkpt><trkpt lat="43.44655" lon="10.56802"><ele>185.5</ele><time>2026-03-22T13:56:23.011Z</time></trkpt><trkpt lat="43.4464333" lon="10.567885"><ele>185.0</ele><time>2026-03-22T13:56:24.01Z</time></trkpt><trkpt lat="43.4463133" lon="10.567765"><ele>186.33333333333331</ele><time>2026-03-22T13:56:25.01Z</time></trkpt><trkpt lat="43.4461767" lon="10.5676767"><ele>187.66666666666666</ele><time>2026-03-22T13:56:26.011Z</time></trkpt><trkpt lat="43.4460333" lon="10.5676067"><ele>189.0</ele><time>2026-03-22T13:56:27.01Z</time></trkpt><trkpt lat="43.445885" lon="10.5676"><ele>189.0</ele><time>2026-03-22T13:56:28.01Z</time></trkpt><trkpt lat="43.4457417" lon="10.5676133"><ele>189.0</ele><time>2026-03-22T13:56:29.011Z</time></trkpt><trkpt lat="43.445605" lon="10.56769"><ele>189.0</ele><time>2026-03-22T13:56:30.011Z</time></trkpt><trkpt lat="43.4454983" lon="10.5677917"><ele>189.0</ele><time>2026-03-22T13:56:31.011Z</time></trkpt><trkpt lat="43.4454067" lon="10.567915"><ele>188.0</ele><time>2026-03-22T13:56:32.011Z</time></trkpt><trkpt lat="43.4453317" lon="10.5680633"><ele>187.0</ele><time>2026-03-22T13:56:33.011Z</time></trkpt><trkpt lat="43.4452467" lon="10.56822"><ele>186.0</ele><time>2026-03-22T13:56:34.011Z</time></trkpt><trkpt lat="43.4451533" lon="10.56838"><ele>185.0</ele><time>2026-03-22T13:56:35.011Z</time></trkpt><trkpt lat="43.4450483" lon="10.56853"><ele>185.0</ele><time>2026-03-22T13:56:36.011Z</time></trkpt><trkpt lat="43.4449317" lon="10.5686583"><ele>185.0</ele><time>2026-03-22T13:56:37.011Z</time></trkpt><trkpt lat="43.444795" lon="10.56876"><ele>185.0</ele><time>2026-03-22T13:56:38.011Z</time></trkpt><trkpt lat="43.4446517" lon="10.56885"><ele>182.33333333333331</ele><time>2026-03-22T13:56:39.011Z</time></trkpt><trkpt lat="43.4445017" lon="10.5689467"><ele>179.66666666666666</ele><time>2026-03-22T13:56:40.009Z</time></trkpt><trkpt lat="43.4443617" lon="10.5690617"><ele>177.0</ele><time>2026-03-22T13:56:41.011Z</time></trkpt><trkpt lat="43.4442283" lon="10.5691917"><ele>177.0</ele><time>2026-03-22T13:56:42.011Z</time></trkpt><trkpt lat="43.4440933" lon="10.5693183"><ele>177.0</ele><time>2026-03-22T13:56:43.01Z</time></trkpt><trkpt lat="43.4439567" lon="10.5694133"><ele>177.0</ele><time>2026-03-22T13:56:44.013Z</time></trkpt><trkpt lat="43.4438083" lon="10.5694667"><ele>173.5</ele><time>2026-03-22T13:56:45.01Z</time></trkpt><trkpt lat="43.4436517" lon="10.5694817"><ele>170.0</ele><time>2026-03-22T13:56:46.011Z</time></trkpt><trkpt lat="43.443505" lon="10.5694783"><ele>166.5</ele><time>2026-03-22T13:56:47.01Z</time></trkpt><trkpt lat="43.44337" lon="10.569475"><ele>163.0</ele><time>2026-03-22T13:56:48.01Z</time></trkpt><trkpt lat="43.4432517" lon="10.569515"><ele>165.75</ele><time>2026-03-22T13:56:49.011Z</time></trkpt><trkpt lat="43.4431617" lon="10.5696083"><ele>168.5</ele><time>2026-03-22T13:56:50.011Z</time></trkpt><trkpt lat="43.443105" lon="10.5697567"><ele>171.25</ele><time>2026-03-22T13:56:51.011Z</time></trkpt><trkpt lat="43.44308" lon="10.569925"><ele>174.0</ele><time>2026-03-22T13:56:52.012Z</time></trkpt><trkpt lat="43.4430617" lon="10.5700817"><ele>174.0</ele><time>2026-03-22T13:56:53.011Z</time></trkpt><trkpt lat="43.4430333" lon="10.570215"><ele>174.0</ele><time>2026-03-22T13:56:54.011Z</time></trkpt><trkpt lat="43.4429783" lon="10.5703083"><ele>174.0</ele><time>2026-03-22T13:56:55.013Z</time></trkpt><trkpt lat="43.4429133" lon="10.5703667"><ele>174.0</ele><time>2026-03-22T13:56:56.012Z</time></trkpt><trkpt lat="43.4428433" lon="10.5704067"><ele>174.0</ele><time>2026-03-22T13:56:57.011Z</time></trkpt><trkpt lat="43.44276" lon="10.57041"><ele>174.0</ele><time>2026-03-22T13:56:58.012Z</time></trkpt><trkpt lat="43.4426817" lon="10.57036"><ele>180.33333333333331</ele><time>2026-03-22T13:56:59.012Z</time></trkpt><trkpt lat="43.4425983" lon="10.5702767"><ele>186.66666666666666</ele><time>2026-03-22T13:57:00.011Z</time></trkpt><trkpt lat="43.44264" lon="10.57"><ele>193.0</ele><time>2026-03-22T13:57:01.012Z</time></trkpt><trkpt lat="43.4426433" lon="10.5697833"><ele>193.0</ele><time>2026-03-22T13:57:02.012Z</time></trkpt><trkpt lat="43.442615" lon="10.569615"><ele>193.0</ele><time>2026-03-22T13:57:03.01Z</time></trkpt><trkpt lat="43.44257" lon="10.5694583"><ele>193.0</ele><time>2026-03-22T13:57:04.012Z</time></trkpt><trkpt lat="43.4425183" lon="10.5693267"><ele>193.0</ele><time>2026-03-22T13:57:05.012Z</time></trkpt><trkpt lat="43.4424467" lon="10.5692317"><ele>192.75</ele><time>2026-03-22T13:57:06.012Z</time></trkpt><trkpt lat="43.44236" lon="10.569155"><ele>192.5</ele><time>2026-03-22T13:57:07.012Z</time></trkpt><trkpt lat="43.442265" lon="10.5691083"><ele>192.25</ele><time>2026-03-22T13:57:08.01Z</time></trkpt><trkpt lat="43.4421267" lon="10.5691167"><ele>192.0</ele><time>2026-03-22T13:57:09.011Z</time></trkpt><trkpt lat="43.4419967" lon="10.569075"><ele>192.0</ele><time>2026-03-22T13:57:10.01Z</time></trkpt><trkpt lat="43.44187" lon="10.569"><ele>192.0</ele><time>2026-03-22T13:57:11.012Z</time></trkpt><trkpt lat="43.44175" lon="10.5689083"><ele>192.0</ele><time>2026-03-22T13:57:12.011Z</time></trkpt><trkpt lat="43.44166" lon="10.56877"><ele>192.0</ele><time>2026-03-22T13:57:13.012Z</time></trkpt><trkpt lat="43.4415717" lon="10.5686167"><ele>191.5</ele><time>2026-03-22T13:57:14.011Z</time></trkpt><trkpt lat="43.4414883" lon="10.5684433"><ele>191.0</ele><time>2026-03-22T13:57:15.011Z</time></trkpt><trkpt lat="43.4414067" lon="10.5682783"><ele>190.5</ele><time>2026-03-22T13:57:16.01Z</time></trkpt><trkpt lat="43.44132" lon="10.5681367"><ele>190.0</ele><time>2026-03-22T13:57:17.01Z</time></trkpt><trkpt lat="43.4412233" lon="10.5680233"><ele>190.0</ele><time>2026-03-22T13:57:18.011Z</time></trkpt><trkpt lat="43.4411133" lon="10.5679567"><ele>190.0</ele><time>2026-03-22T13:57:19.011Z</time></trkpt><trkpt lat="43.4409933" lon="10.5679433"><ele>190.0</ele><time>2026-03-22T13:57:20.011Z</time></trkpt><trkpt lat="43.44087" lon="10.56798"><ele>190.0</ele><time>2026-03-22T13:57:21.01Z</time></trkpt><trkpt lat="43.44075" lon="10.5680417"><ele>190.0</ele><time>2026-03-22T13:57:22.012Z</time></trkpt><trkpt lat="43.4406267" lon="10.56809"><ele>190.0</ele><time>2026-03-22T13:57:23.01Z</time></trkpt><trkpt lat="43.4405017" lon="10.5680983"><ele>190.0</ele><time>2026-03-22T13:57:24.01Z</time></trkpt><trkpt lat="43.4403733" lon="10.5680533"><ele>190.0</ele><time>2026-03-22T13:57:25.01Z</time></trkpt><trkpt lat="43.44024" lon="10.5679633"><ele>189.33333333333334</ele><time>2026-03-22T13:57:26.012Z</time></trkpt><trkpt lat="43.44009" lon="10.5678467"><ele>188.66666666666666</ele><time>2026-03-22T13:57:27.01Z</time></trkpt><trkpt lat="43.439925" lon="10.5677233"><ele>188.0</ele><time>2026-03-22T13:57:28.011Z</time></trkpt><trkpt lat="43.4397567" lon="10.5676067"><ele>191.66666666666666</ele><time>2026-03-22T13:57:29.011Z</time></trkpt><trkpt lat="43.43961" lon="10.5674883"><ele>195.33333333333331</ele><time>2026-03-22T13:57:30.01Z</time></trkpt><trkpt lat="43.439485" lon="10.5673617"><ele>199.0</ele><time>2026-03-22T13:57:31.01Z</time></trkpt><trkpt lat="43.4393817" lon="10.5672233"><ele>199.0</ele><time>2026-03-22T13:57:32.011Z</time></trkpt><trkpt lat="43.4392883" lon="10.567085"><ele>199.0</ele><time>2026-03-22T13:57:33.01Z</time></trkpt><trkpt lat="43.43919" lon="10.5669583"><ele>199.0</ele><time>2026-03-22T13:57:34.011Z</time></trkpt><trkpt lat="43.439075" lon="10.5668517"><ele>199.0</ele><time>2026-03-22T13:57:35.01Z</time></trkpt><trkpt lat="43.4389433" lon="10.5667817"><ele>198.25</ele><time>2026-03-22T13:57:36.01Z</time></trkpt><trkpt lat="43.4388" lon="10.5667417"><ele>197.5</ele><time>2026-03-22T13:57:37.01Z</time></trkpt><trkpt lat="43.43865" lon="10.5667283"><ele>196.75</ele><time>2026-03-22T13:57:38.011Z</time></trkpt><trkpt lat="43.438505" lon="10.5667283"><ele>196.0</ele><time>2026-03-22T13:57:39.01Z</time></trkpt><trkpt lat="43.43836" lon="10.5667267"><ele>196.0</ele><time>2026-03-22T13:57:40.01Z</time></trkpt><trkpt lat="43.4382183" lon="10.56673"><ele>196.0</ele><time>2026-03-22T13:57:41.009Z</time></trkpt><trkpt lat="43.4380833" lon="10.566745"><ele>196.0</ele><time>2026-03-22T13:57:42.01Z</time></trkpt><trkpt lat="43.4379617" lon="10.5667733"><ele>196.0</ele><time>2026-03-22T13:57:43.011Z</time></trkpt><trkpt lat="43.4378567" lon="10.5668283"><ele>194.60000000000002</ele><time>2026-03-22T13:57:44.011Z</time></trkpt><trkpt lat="43.43777" lon="10.5669217"><ele>193.2</ele><time>2026-03-22T13:57:45.01Z</time></trkpt><trkpt lat="43.4377167" lon="10.5670483"><ele>191.8</ele><time>2026-03-22T13:57:46.011Z</time></trkpt><trkpt lat="43.4376967" lon="10.56719"><ele>190.39999999999998</ele><time>2026-03-22T13:57:47.009Z</time></trkpt><trkpt lat="43.4376833" lon="10.5673283"><ele>189.0</ele><time>2026-03-22T13:57:48.011Z</time></trkpt><trkpt lat="43.4376533" lon="10.5674533"><ele>189.0</ele><time>2026-03-22T13:57:49.01Z</time></trkpt><trkpt lat="43.4375933" lon="10.5675533"><ele>189.0</ele><time>2026-03-22T13:57:50.011Z</time></trkpt><trkpt lat="43.4375" lon="10.56762"><ele>189.0</ele><time>2026-03-22T13:57:51.011Z</time></trkpt><trkpt lat="43.4373767" lon="10.567655"><ele>189.0</ele><time>2026-03-22T13:57:52.01Z</time></trkpt><trkpt lat="43.4372417" lon="10.567665"><ele>188.25</ele><time>2026-03-22T13:57:53.009Z</time></trkpt><trkpt lat="43.4371083" lon="10.5676333"><ele>187.5</ele><time>2026-03-22T13:57:54.01Z</time></trkpt><trkpt lat="43.4369883" lon="10.56756"><ele>186.75</ele><time>2026-03-22T13:57:55.011Z</time></trkpt><trkpt lat="43.43688" lon="10.5674733"><ele>186.0</ele><time>2026-03-22T13:57:56.011Z</time></trkpt><trkpt lat="43.43678" lon="10.5674083"><ele>186.0</ele><time>2026-03-22T13:57:57.011Z</time></trkpt><trkpt lat="43.4366783" lon="10.5673683"><ele>186.0</ele><time>2026-03-22T13:57:58.011Z</time></trkpt><trkpt lat="43.4365733" lon="10.5673783"><ele>186.0</ele><time>2026-03-22T13:57:59.011Z</time></trkpt><trkpt lat="43.436465" lon="10.5674283"><ele>186.0</ele><time>2026-03-22T13:58:00.011Z</time></trkpt><trkpt lat="43.43635" lon="10.5675133"><ele>185.5</ele><time>2026-03-22T13:58:01.011Z</time></trkpt><trkpt lat="43.436235" lon="10.567605"><ele>185.0</ele><time>2026-03-22T13:58:02.012Z</time></trkpt><trkpt lat="43.4361183" lon="10.5676717"><ele>184.5</ele><time>2026-03-22T13:58:03.011Z</time></trkpt><trkpt lat="43.4360083" lon="10.5677117"><ele>184.0</ele><time>2026-03-22T13:58:04.01Z</time></trkpt><trkpt lat="43.4359017" lon="10.5677267"><ele>184.0</ele><time>2026-03-22T13:58:05.011Z</time></trkpt><trkpt lat="43.4357917" lon="10.5677217"><ele>184.0</ele><time>2026-03-22T13:58:06.012Z</time></trkpt><trkpt lat="43.4356817" lon="10.567705"><ele>184.0</ele><time>2026-03-22T13:58:07.011Z</time></trkpt><trkpt lat="43.4355717" lon="10.5676783"><ele>184.0</ele><time>2026-03-22T13:58:08.013Z</time></trkpt><trkpt lat="43.4354633" lon="10.5676417"><ele>184.0</ele><time>2026-03-22T13:58:09.01Z</time></trkpt><trkpt lat="43.4353533" lon="10.5675883"><ele>184.25</ele><time>2026-03-22T13:58:10.01Z</time></trkpt><trkpt lat="43.435245" lon="10.5675267"><ele>184.5</ele><time>2026-03-22T13:58:11.011Z</time></trkpt><trkpt lat="43.4351433" lon="10.567465"><ele>184.75</ele><time>2026-03-22T13:58:12.01Z</time></trkpt><trkpt lat="43.4350433" lon="10.567395"><ele>185.0</ele><time>2026-03-22T13:58:13.01Z</time></trkpt><trkpt lat="43.434945" lon="10.56733"><ele>185.0</ele><time>2026-03-22T13:58:14.01Z</time></trkpt><trkpt lat="43.43485" lon="10.56727"><ele>185.0</ele><time>2026-03-22T13:58:15.011Z</time></trkpt><trkpt lat="43.43476" lon="10.5672083"><ele>185.0</ele><time>2026-03-22T13:58:16.012Z</time></trkpt><trkpt lat="43.4346683" lon="10.567145"><ele>185.0</ele><time>2026-03-22T13:58:17.012Z</time></trkpt><trkpt lat="43.4345833" lon="10.5670733"><ele>185.0</ele><time>2026-03-22T13:58:18.012Z</time></trkpt><trkpt lat="43.4345083" lon="10.5669917"><ele>184.0</ele><time>2026-03-22T13:58:19.011Z</time></trkpt><trkpt lat="43.4344417" lon="10.5668983"><ele>183.0</ele><time>2026-03-22T13:58:20.011Z</time></trkpt><trkpt lat="43.4343783" lon="10.5668017"><ele>182.0</ele><time>2026-03-22T13:58:21.01Z</time></trkpt><trkpt lat="43.4343233" lon="10.5666967"><ele>181.0</ele><time>2026-03-22T13:58:22.011Z</time></trkpt><trkpt lat="43.43427" lon="10.5665933"><ele>180.0</ele><time>2026-03-22T13:58:23.01Z</time></trkpt><trkpt lat="43.4342267" lon="10.5665083"><ele>180.0</ele><time>2026-03-22T13:58:24.011Z</time></trkpt><trkpt lat="43.4341833" lon="10.5664417"><ele>180.0</ele><time>2026-03-22T13:58:25.012Z</time></trkpt><trkpt lat="43.4341033" lon="10.5663083"><ele>180.0</ele><time>2026-03-22T13:58:27.01Z</time></trkpt><trkpt lat="43.434045" lon="10.56619"><ele>180.0</ele><time>2026-03-22T13:58:29.012Z</time></trkpt><trkpt lat="43.433995" lon="10.5660817"><ele>180.0</ele><time>2026-03-22T13:58:31.011Z</time></trkpt><trkpt lat="43.433955" lon="10.5659867"><ele>179.33333333333334</ele><time>2026-03-22T13:58:33.01Z</time></trkpt><trkpt lat="43.4339183" lon="10.5658867"><ele>178.66666666666666</ele><time>2026-03-22T13:58:35.011Z</time></trkpt><trkpt lat="43.4338717" lon="10.5657833"><ele>178.0</ele><time>2026-03-22T13:58:37.011Z</time></trkpt><trkpt lat="43.43382" lon="10.5657267"><ele>177.33333333333331</ele><time>2026-03-22T13:58:39.01Z</time></trkpt><trkpt lat="43.4337533" lon="10.5656983"><ele>176.66666666666666</ele><time>2026-03-22T13:58:41.011Z</time></trkpt><trkpt lat="43.43367" lon="10.5656917"><ele>176.0</ele><time>2026-03-22T13:58:43.012Z</time></trkpt><trkpt lat="43.43359" lon="10.5657333"><ele>176.0</ele><time>2026-03-22T13:58:46.012Z</time></trkpt><trkpt lat="43.4335183" lon="10.5657717"><ele>176.0</ele><time>2026-03-22T13:58:49.012Z</time></trkpt><trkpt lat="43.4334567" lon="10.5658"><ele>176.0</ele><time>2026-03-22T13:58:51.012Z</time></trkpt><trkpt lat="43.4333933" lon="10.565845"><ele>176.0</ele><time>2026-03-22T13:58:53.01Z</time></trkpt><trkpt lat="43.4333283" lon="10.5658883"><ele>176.0</ele><time>2026-03-22T13:58:55.009Z</time></trkpt><trkpt lat="43.43325" lon="10.5659333"><ele>176.0</ele><time>2026-03-22T13:58:57.009Z</time></trkpt><trkpt lat="43.4331633" lon="10.56599"><ele>176.0</ele><time>2026-03-22T13:58:59.009Z</time></trkpt><trkpt lat="43.4330867" lon="10.566045"><ele>176.0</ele><time>2026-03-22T13:59:01.01Z</time></trkpt><trkpt lat="43.4330167" lon="10.56611"><ele>176.0</ele><time>2026-03-22T13:59:03.01Z</time></trkpt><trkpt lat="43.432955" lon="10.566175"><ele>176.0</ele><time>2026-03-22T13:59:05.013Z</time></trkpt><trkpt lat="43.43289" lon="10.5662533"><ele>176.0</ele><time>2026-03-22T13:59:07.009Z</time></trkpt><trkpt lat="43.4328067" lon="10.5663383"><ele>176.0</ele><time>2026-03-22T13:59:09.01Z</time></trkpt><trkpt lat="43.4327267" lon="10.5664167"><ele>176.4</ele><time>2026-03-22T13:59:11.01Z</time></trkpt><trkpt lat="43.4326367" lon="10.566495"><ele>176.8</ele><time>2026-03-22T13:59:13.009Z</time></trkpt><trkpt lat="43.4325517" lon="10.5665633"><ele>177.20000000000002</ele><time>2026-03-22T13:59:15.01Z</time></trkpt><trkpt lat="43.4324717" lon="10.5666417"><ele>177.60000000000002</ele><time>2026-03-22T13:59:17.01Z</time></trkpt><trkpt lat="43.432395" lon="10.56672"><ele>178.0</ele><time>2026-03-22T13:59:19.01Z</time></trkpt><trkpt lat="43.4323217" lon="10.5668067"><ele>178.0</ele><time>2026-03-22T13:59:21.009Z</time></trkpt><trkpt lat="43.4322383" lon="10.56689"><ele>178.0</ele><time>2026-03-22T13:59:23.009Z</time></trkpt><trkpt lat="43.4321583" lon="10.5669933"><ele>178.0</ele><time>2026-03-22T13:59:25.01Z</time></trkpt><trkpt lat="43.4321083" lon="10.5671367"><ele>178.0</ele><time>2026-03-22T13:59:27.01Z</time></trkpt><trkpt lat="43.4321117" lon="10.5672983"><ele>178.0</ele><time>2026-03-22T13:59:29.01Z</time></trkpt><trkpt lat="43.4321233" lon="10.567385"><ele>178.33333333333334</ele><time>2026-03-22T13:59:30.01Z</time></trkpt><trkpt lat="43.4321367" lon="10.567475"><ele>178.66666666666669</ele><time>2026-03-22T13:59:31.01Z</time></trkpt><trkpt lat="43.432165" lon="10.56764"><ele>179.0</ele><time>2026-03-22T13:59:33.01Z</time></trkpt><trkpt lat="43.4321867" lon="10.567725"><ele>179.33333333333334</ele><time>2026-03-22T13:59:34.01Z</time></trkpt><trkpt lat="43.4322083" lon="10.56781"><ele>179.66666666666666</ele><time>2026-03-22T13:59:35.01Z</time></trkpt><trkpt lat="43.4322417" lon="10.567895"><ele>180.0</ele><time>2026-03-22T13:59:36.01Z</time></trkpt><trkpt lat="43.432275" lon="10.5679867"><ele>179.33333333333334</ele><time>2026-03-22T13:59:37.01Z</time></trkpt><trkpt lat="43.4323133" lon="10.568085"><ele>178.66666666666666</ele><time>2026-03-22T13:59:38.009Z</time></trkpt><trkpt lat="43.4323683" lon="10.5681933"><ele>178.0</ele><time>2026-03-22T13:59:39.01Z</time></trkpt><trkpt lat="43.4324267" lon="10.5683"><ele>177.33333333333331</ele><time>2026-03-22T13:59:40.01Z</time></trkpt><trkpt lat="43.43248" lon="10.5684"><ele>176.66666666666666</ele><time>2026-03-22T13:59:41.01Z</time></trkpt><trkpt lat="43.4325217" lon="10.5684983"><ele>176.0</ele><time>2026-03-22T13:59:42.01Z</time></trkpt><trkpt lat="43.432555" lon="10.5686017"><ele>174.33333333333331</ele><time>2026-03-22T13:59:43.01Z</time></trkpt><trkpt lat="43.4325783" lon="10.5687117"><ele>172.66666666666666</ele><time>2026-03-22T13:59:44.01Z</time></trkpt><trkpt lat="43.432605" lon="10.568815"><ele>171.0</ele><time>2026-03-22T13:59:45.01Z</time></trkpt><trkpt lat="43.4326333" lon="10.568925"><ele>169.33333333333334</ele><time>2026-03-22T13:59:46.009Z</time></trkpt><trkpt lat="43.4326617" lon="10.5690283"><ele>167.66666666666669</ele><time>2026-03-22T13:59:47.01Z</time></trkpt><trkpt lat="43.432695" lon="10.5691317"><ele>166.0</ele><time>2026-03-22T13:59:48.01Z</time></trkpt><trkpt lat="43.432725" lon="10.5692317"><ele>166.0</ele><time>2026-03-22T13:59:49.01Z</time></trkpt><trkpt lat="43.4327483" lon="10.56934"><ele>166.0</ele><time>2026-03-22T13:59:50.01Z</time></trkpt><trkpt lat="43.4327717" lon="10.56945"><ele>166.0</ele><time>2026-03-22T13:59:51.01Z</time></trkpt><trkpt lat="43.4327933" lon="10.5695583"><ele>166.0</ele><time>2026-03-22T13:59:52.01Z</time></trkpt><trkpt lat="43.4328133" lon="10.569655"><ele>166.0</ele><time>2026-03-22T13:59:53.009Z</time></trkpt><trkpt lat="43.4328417" lon="10.56974"><ele>166.0</ele><time>2026-03-22T13:59:54.009Z</time></trkpt><trkpt lat="43.432875" lon="10.5698183"><ele>164.60000000000002</ele><time>2026-03-22T13:59:55.01Z</time></trkpt><trkpt lat="43.4329167" lon="10.5698867"><ele>163.20000000000002</ele><time>2026-03-22T13:59:56.01Z</time></trkpt><trkpt lat="43.4330167" lon="10.5699783"><ele>161.8</ele><time>2026-03-22T13:59:58.01Z</time></trkpt><trkpt lat="43.43311" lon="10.570075"><ele>160.4</ele><time>2026-03-22T14:00:00.01Z</time></trkpt><trkpt lat="43.4331817" lon="10.5702067"><ele>159.0</ele><time>2026-03-22T14:00:02.01Z</time></trkpt><trkpt lat="43.4332033" lon="10.5702917"><ele>163.0</ele><time>2026-03-22T14:00:03.01Z</time></trkpt><trkpt lat="43.433215" lon="10.5703883"><ele>167.0</ele><time>2026-03-22T14:00:04.01Z</time></trkpt><trkpt lat="43.43321" lon="10.570485"><ele>171.0</ele><time>2026-03-22T14:00:05.011Z</time></trkpt><trkpt lat="43.4331967" lon="10.5705733"><ele>175.0</ele><time>2026-03-22T14:00:06.01Z</time></trkpt><trkpt lat="43.4331283" lon="10.5707283"><ele>179.0</ele><time>2026-03-22T14:00:08.011Z</time></trkpt><trkpt lat="43.4330783" lon="10.5708167"><ele>183.0</ele><time>2026-03-22T14:00:09.01Z</time></trkpt><trkpt lat="43.4330083" lon="10.5709167"><ele>180.0</ele><time>2026-03-22T14:00:10.01Z</time></trkpt><trkpt lat="43.4328983" lon="10.5710433"><ele>177.0</ele><time>2026-03-22T14:00:11.01Z</time></trkpt><trkpt lat="43.4327867" lon="10.57119"><ele>174.0</ele><time>2026-03-22T14:00:12.011Z</time></trkpt><trkpt lat="43.4326767" lon="10.571335"><ele>174.0</ele><time>2026-03-22T14:00:13.011Z</time></trkpt><trkpt lat="43.43257" lon="10.57148"><ele>174.0</ele><time>2026-03-22T14:00:14.01Z</time></trkpt><trkpt lat="43.43248" lon="10.5716017"><ele>174.0</ele><time>2026-03-22T14:00:15.01Z</time></trkpt><trkpt lat="43.4323983" lon="10.5716917"><ele>174.0</ele><time>2026-03-22T14:00:16.011Z</time></trkpt><trkpt lat="43.432295" lon="10.5717417"><ele>174.0</ele><time>2026-03-22T14:00:17.01Z</time></trkpt><trkpt lat="43.432165" lon="10.5717583"><ele>174.0</ele><time>2026-03-22T14:00:18.009Z</time></trkpt><trkpt lat="43.4320467" lon="10.571745"><ele>174.0</ele><time>2026-03-22T14:00:19.01Z</time></trkpt><trkpt lat="43.4319367" lon="10.5717167"><ele>174.0</ele><time>2026-03-22T14:00:20.011Z</time></trkpt><trkpt lat="43.4318533" lon="10.5716633"><ele>173.2</ele><time>2026-03-22T14:00:21.01Z</time></trkpt><trkpt lat="43.4317883" lon="10.5715583"><ele>172.39999999999998</ele><time>2026-03-22T14:00:22.01Z</time></trkpt><trkpt lat="43.4317467" lon="10.571425"><ele>171.6</ele><time>2026-03-22T14:00:23.011Z</time></trkpt><trkpt lat="43.431735" lon="10.5712733"><ele>170.8</ele><time>2026-03-22T14:00:24.012Z</time></trkpt><trkpt lat="43.4317367" lon="10.5711033"><ele>170.0</ele><time>2026-03-22T14:00:25.01Z</time></trkpt><trkpt lat="43.4317333" lon="10.5709167"><ele>170.0</ele><time>2026-03-22T14:00:26.012Z</time></trkpt><trkpt lat="43.4316967" lon="10.5707067"><ele>170.0</ele><time>2026-03-22T14:00:27.01Z</time></trkpt><trkpt lat="43.43165" lon="10.570505"><ele>170.0</ele><time>2026-03-22T14:00:28.01Z</time></trkpt><trkpt lat="43.431585" lon="10.5703133"><ele>168.66666666666666</ele><time>2026-03-22T14:00:29.01Z</time></trkpt><trkpt lat="43.4315033" lon="10.57013"><ele>167.33333333333334</ele><time>2026-03-22T14:00:30.008Z</time></trkpt><trkpt lat="43.4314167" lon="10.5699583"><ele>166.0</ele><time>2026-03-22T14:00:31.011Z</time></trkpt><trkpt lat="43.43132" lon="10.5697783"><ele>167.5</ele><time>2026-03-22T14:00:32.011Z</time></trkpt><trkpt lat="43.4312433" lon="10.5695917"><ele>169.0</ele><time>2026-03-22T14:00:33.011Z</time></trkpt><trkpt lat="43.431185" lon="10.5694217"><ele>170.5</ele><time>2026-03-22T14:00:34.01Z</time></trkpt><trkpt lat="43.4311283" lon="10.5692783"><ele>172.0</ele><time>2026-03-22T14:00:35.01Z</time></trkpt><trkpt lat="43.4310483" lon="10.5691817"><ele>172.0</ele><time>2026-03-22T14:00:36.011Z</time></trkpt><trkpt lat="43.4309533" lon="10.56914"><ele>172.0</ele><time>2026-03-22T14:00:37.011Z</time></trkpt><trkpt lat="43.43085" lon="10.5691583"><ele>172.0</ele><time>2026-03-22T14:00:38.012Z</time></trkpt><trkpt lat="43.430715" lon="10.5692383"><ele>172.0</ele><time>2026-03-22T14:00:39.009Z</time></trkpt><trkpt lat="43.430585" lon="10.5692967"><ele>174.0</ele><time>2026-03-22T14:00:40.01Z</time></trkpt><trkpt lat="43.4304617" lon="10.5693167"><ele>176.0</ele><time>2026-03-22T14:00:41.01Z</time></trkpt><trkpt lat="43.4303567" lon="10.5693083"><ele>178.0</ele><time>2026-03-22T14:00:42.01Z</time></trkpt><trkpt lat="43.4302783" lon="10.56925"><ele>180.0</ele><time>2026-03-22T14:00:43.011Z</time></trkpt><trkpt lat="43.43024" lon="10.569135"><ele>182.0</ele><time>2026-03-22T14:00:44.009Z</time></trkpt><trkpt lat="43.4302417" lon="10.5689733"><ele>182.0</ele><time>2026-03-22T14:00:45.011Z</time></trkpt><trkpt lat="43.43025" lon="10.568795"><ele>182.0</ele><time>2026-03-22T14:00:46.01Z</time></trkpt><trkpt lat="43.43024" lon="10.568615"><ele>182.0</ele><time>2026-03-22T14:00:47.009Z</time></trkpt><trkpt lat="43.4302083" lon="10.568445"><ele>182.0</ele><time>2026-03-22T14:00:48.01Z</time></trkpt><trkpt lat="43.430135" lon="10.5682867"><ele>179.33333333333331</ele><time>2026-03-22T14:00:49.009Z</time></trkpt><trkpt lat="43.4300133" lon="10.5681433"><ele>176.66666666666666</ele><time>2026-03-22T14:00:50.012Z</time></trkpt><trkpt lat="43.4298767" lon="10.5680017"><ele>174.0</ele><time>2026-03-22T14:00:51.01Z</time></trkpt><trkpt lat="43.42974" lon="10.567875"><ele>174.0</ele><time>2026-03-22T14:00:52.01Z</time></trkpt><trkpt lat="43.4296033" lon="10.5677717"><ele>174.0</ele><time>2026-03-22T14:00:53.009Z</time></trkpt><trkpt lat="43.42945" lon="10.567705"><ele>174.0</ele><time>2026-03-22T14:00:54.009Z</time></trkpt><trkpt lat="43.4292833" lon="10.5676667"><ele>174.0</ele><time>2026-03-22T14:00:55.011Z</time></trkpt><trkpt lat="43.42912" lon="10.56765"><ele>174.0</ele><time>2026-03-22T14:00:56.01Z</time></trkpt><trkpt lat="43.42896" lon="10.56769"><ele>174.0</ele><time>2026-03-22T14:00:57.009Z</time></trkpt><trkpt lat="43.4288083" lon="10.56777"><ele>177.5</ele><time>2026-03-22T14:00:58.01Z</time></trkpt><trkpt lat="43.4286767" lon="10.5678633"><ele>181.0</ele><time>2026-03-22T14:00:59.009Z</time></trkpt><trkpt lat="43.4285567" lon="10.5679417"><ele>184.5</ele><time>2026-03-22T14:01:00.011Z</time></trkpt><trkpt lat="43.428455" lon="10.5679817"><ele>188.0</ele><time>2026-03-22T14:01:01.01Z</time></trkpt><trkpt lat="43.4283683" lon="10.5679717"><ele>188.0</ele><time>2026-03-22T14:01:02.01Z</time></trkpt><trkpt lat="43.4282967" lon="10.56791"><ele>188.0</ele><time>2026-03-22T14:01:03.01Z</time></trkpt><trkpt lat="43.4282367" lon="10.5678183"><ele>188.0</ele><time>2026-03-22T14:01:04.01Z</time></trkpt><trkpt lat="43.4282033" lon="10.5676517"><ele>188.0</ele><time>2026-03-22T14:01:05.01Z</time></trkpt><trkpt lat="43.4281567" lon="10.5674633"><ele>188.0</ele><time>2026-03-22T14:01:06.01Z</time></trkpt><trkpt lat="43.4280983" lon="10.5672733"><ele>187.66666666666666</ele><time>2026-03-22T14:01:07.01Z</time></trkpt><trkpt lat="43.4280033" lon="10.5671017"><ele>187.33333333333334</ele><time>2026-03-22T14:01:08.01Z</time></trkpt><trkpt lat="43.4278783" lon="10.5669617"><ele>187.0</ele><time>2026-03-22T14:01:09.01Z</time></trkpt><trkpt lat="43.4277517" lon="10.5668717"><ele>187.0</ele><time>2026-03-22T14:01:10.01Z</time></trkpt><trkpt lat="43.4276417" lon="10.5668033"><ele>187.0</ele><time>2026-03-22T14:01:11.01Z</time></trkpt><trkpt lat="43.427555" lon="10.56673"><ele>187.0</ele><time>2026-03-22T14:01:12.01Z</time></trkpt><trkpt lat="43.427505" lon="10.5666483"><ele>187.0</ele><time>2026-03-22T14:01:13.009Z</time></trkpt><trkpt lat="43.4274867" lon="10.566565"><ele>187.0</ele><time>2026-03-22T14:01:14.01Z</time></trkpt><trkpt lat="43.42751" lon="10.5664733"><ele>187.0</ele><time>2026-03-22T14:01:15.01Z</time></trkpt><trkpt lat="43.4275767" lon="10.5664033"><ele>187.0</ele><time>2026-03-22T14:01:16.01Z</time></trkpt><trkpt lat="43.4276533" lon="10.5663433"><ele>187.0</ele><time>2026-03-22T14:01:17.01Z</time></trkpt><trkpt lat="43.4277217" lon="10.56628"><ele>187.0</ele><time>2026-03-22T14:01:18.01Z</time></trkpt><trkpt lat="43.427765" lon="10.566205"><ele>187.0</ele><time>2026-03-22T14:01:19.011Z</time></trkpt><trkpt lat="43.42766" lon="10.56601"><ele>187.0</ele><time>2026-03-22T14:01:21.009Z</time></trkpt><trkpt lat="43.42756" lon="10.5658767"><ele>187.66666666666669</ele><time>2026-03-22T14:01:22.01Z</time></trkpt><trkpt lat="43.4274417" lon="10.5657317"><ele>188.33333333333334</ele><time>2026-03-22T14:01:23.01Z</time></trkpt><trkpt lat="43.427315" lon="10.5655683"><ele>189.0</ele><time>2026-03-22T14:01:24.01Z</time></trkpt><trkpt lat="43.4271867" lon="10.5653983"><ele>191.33333333333331</ele><time>2026-03-22T14:01:25.01Z</time></trkpt><trkpt lat="43.4270667" lon="10.5652433"><ele>193.66666666666666</ele><time>2026-03-22T14:01:26.01Z</time></trkpt><trkpt lat="43.4269483" lon="10.5651167"><ele>196.0</ele><time>2026-03-22T14:01:27.009Z</time></trkpt><trkpt lat="43.426835" lon="10.5650017"><ele>196.0</ele><time>2026-03-22T14:01:28.01Z</time></trkpt><trkpt lat="43.42673" lon="10.5649133"><ele>196.0</ele><time>2026-03-22T14:01:29.01Z</time></trkpt><trkpt lat="43.4266317" lon="10.564855"><ele>196.0</ele><time>2026-03-22T14:01:30.01Z</time></trkpt><trkpt lat="43.4265283" lon="10.564845"><ele>196.0</ele><time>2026-03-22T14:01:31.01Z</time></trkpt><trkpt lat="43.426415" lon="10.5648917"><ele>197.75</ele><time>2026-03-22T14:01:32.01Z</time></trkpt><trkpt lat="43.426295" lon="10.564955"><ele>199.5</ele><time>2026-03-22T14:01:33.011Z</time></trkpt><trkpt lat="43.4261633" lon="10.5649983"><ele>201.25</ele><time>2026-03-22T14:01:34.01Z</time></trkpt><trkpt lat="43.4260317" lon="10.5649983"><ele>203.0</ele><time>2026-03-22T14:01:35.01Z</time></trkpt><trkpt lat="43.4259017" lon="10.5649717"><ele>203.0</ele><time>2026-03-22T14:01:36.01Z</time></trkpt><trkpt lat="43.4257783" lon="10.5649483"><ele>203.0</ele><time>2026-03-22T14:01:37.01Z</time></trkpt><trkpt lat="43.4256667" lon="10.564945"><ele>203.0</ele><time>2026-03-22T14:01:38.012Z</time></trkpt><trkpt lat="43.4255733" lon="10.56499"><ele>203.0</ele><time>2026-03-22T14:01:39.011Z</time></trkpt><trkpt lat="43.42547" lon="10.56507"><ele>203.75</ele><time>2026-03-22T14:01:40.011Z</time></trkpt><trkpt lat="43.42539" lon="10.5651783"><ele>204.5</ele><time>2026-03-22T14:01:41.012Z</time></trkpt><trkpt lat="43.4253133" lon="10.565325"><ele>205.25</ele><time>2026-03-22T14:01:42.01Z</time></trkpt><trkpt lat="43.425295" lon="10.5654783"><ele>206.0</ele><time>2026-03-22T14:01:43.012Z</time></trkpt><trkpt lat="43.4252833" lon="10.5656283"><ele>207.20000000000002</ele><time>2026-03-22T14:01:44.011Z</time></trkpt><trkpt lat="43.4252767" lon="10.565765"><ele>208.4</ele><time>2026-03-22T14:01:45.011Z</time></trkpt><trkpt lat="43.4253217" lon="10.5659"><ele>209.6</ele><time>2026-03-22T14:01:46.011Z</time></trkpt><trkpt lat="43.4253733" lon="10.5660667"><ele>210.8</ele><time>2026-03-22T14:01:47.011Z</time></trkpt><trkpt lat="43.4253933" lon="10.5662117"><ele>212.0</ele><time>2026-03-22T14:01:48.014Z</time></trkpt><trkpt lat="43.4253917" lon="10.5663233"><ele>214.39999999999998</ele><time>2026-03-22T14:01:49.014Z</time></trkpt><trkpt lat="43.425375" lon="10.56642"><ele>216.79999999999998</ele><time>2026-03-22T14:01:50.015Z</time></trkpt><trkpt lat="43.4253017" lon="10.5665567"><ele>219.2</ele><time>2026-03-22T14:01:52.012Z</time></trkpt><trkpt lat="43.4252033" lon="10.5665683"><ele>221.6</ele><time>2026-03-22T14:01:53.012Z</time></trkpt><trkpt lat="43.4251233" lon="10.5665767"><ele>224.0</ele><time>2026-03-22T14:01:54.011Z</time></trkpt><trkpt lat="43.4250183" lon="10.5665333"><ele>224.0</ele><time>2026-03-22T14:01:55.012Z</time></trkpt><trkpt lat="43.4249217" lon="10.5664967"><ele>224.0</ele><time>2026-03-22T14:01:56.011Z</time></trkpt><trkpt lat="43.424835" lon="10.566395"><ele>224.0</ele><time>2026-03-22T14:01:57.011Z</time></trkpt><trkpt lat="43.4247583" lon="10.5662517"><ele>224.0</ele><time>2026-03-22T14:01:58.014Z</time></trkpt><trkpt lat="43.4246567" lon="10.5660033"><ele>225.33333333333334</ele><time>2026-03-22T14:01:59.011Z</time></trkpt><trkpt lat="43.4245983" lon="10.56572"><ele>226.66666666666669</ele><time>2026-03-22T14:02:00.011Z</time></trkpt><trkpt lat="43.4245117" lon="10.5655217"><ele>228.0</ele><time>2026-03-22T14:02:01.011Z</time></trkpt><trkpt lat="43.4243933" lon="10.5653267"><ele>226.0</ele><time>2026-03-22T14:02:02.012Z</time></trkpt><trkpt lat="43.4242817" lon="10.5651983"><ele>224.0</ele><time>2026-03-22T14:02:03.011Z</time></trkpt><trkpt lat="43.4241483" lon="10.565095"><ele>222.0</ele><time>2026-03-22T14:02:04.011Z</time></trkpt><trkpt lat="43.4240517" lon="10.5650617"><ele>220.0</ele><time>2026-03-22T14:02:05.012Z</time></trkpt><trkpt lat="43.4239533" lon="10.5650567"><ele>220.0</ele><time>2026-03-22T14:02:06.012Z</time></trkpt><trkpt lat="43.4238883" lon="10.5650883"><ele>220.0</ele><time>2026-03-22T14:02:07.011Z</time></trkpt><trkpt lat="43.4238533" lon="10.5651767"><ele>220.0</ele><time>2026-03-22T14:02:08.011Z</time></trkpt><trkpt lat="43.42393" lon="10.5654283"><ele>220.0</ele><time>2026-03-22T14:02:09.01Z</time></trkpt><trkpt lat="43.4239883" lon="10.56565"><ele>222.66666666666666</ele><time>2026-03-22T14:02:10.011Z</time></trkpt><trkpt lat="43.4240433" lon="10.5658533"><ele>225.33333333333331</ele><time>2026-03-22T14:02:11.011Z</time></trkpt><trkpt lat="43.4241183" lon="10.5660433"><ele>228.0</ele><time>2026-03-22T14:02:12.011Z</time></trkpt><trkpt lat="43.4241867" lon="10.566225"><ele>228.66666666666666</ele><time>2026-03-22T14:02:13.011Z</time></trkpt><trkpt lat="43.42423" lon="10.5663767"><ele>229.33333333333331</ele><time>2026-03-22T14:02:14.011Z</time></trkpt><trkpt lat="43.424245" lon="10.5665067"><ele>230.0</ele><time>2026-03-22T14:02:15.011Z</time></trkpt><trkpt lat="43.424245" lon="10.5666133"><ele>230.66666666666666</ele><time>2026-03-22T14:02:16.01Z</time></trkpt><trkpt lat="43.424205" lon="10.5666833"><ele>231.33333333333331</ele><time>2026-03-22T14:02:17.009Z</time></trkpt><trkpt lat="43.424135" lon="10.5667"><ele>232.0</ele><time>2026-03-22T14:02:18.009Z</time></trkpt><trkpt lat="43.424045" lon="10.5666833"><ele>232.0</ele><time>2026-03-22T14:02:19.01Z</time></trkpt><trkpt lat="43.4239317" lon="10.56663"><ele>232.0</ele><time>2026-03-22T14:02:20.01Z</time></trkpt><trkpt lat="43.4238067" lon="10.5665733"><ele>232.0</ele><time>2026-03-22T14:02:21.01Z</time></trkpt><trkpt lat="43.42368" lon="10.5665567"><ele>232.0</ele><time>2026-03-22T14:02:22.01Z</time></trkpt><trkpt lat="43.4235483" lon="10.56659"><ele>233.33333333333331</ele><time>2026-03-22T14:02:23.009Z</time></trkpt><trkpt lat="43.4233867" lon="10.5666483"><ele>234.66666666666669</ele><time>2026-03-22T14:02:24.01Z</time></trkpt><trkpt lat="43.423215" lon="10.5667067"><ele>236.0</ele><time>2026-03-22T14:02:25.01Z</time></trkpt><trkpt lat="43.423055" lon="10.56674"><ele>237.66666666666669</ele><time>2026-03-22T14:02:26.01Z</time></trkpt><trkpt lat="43.4228917" lon="10.5667333"><ele>239.33333333333331</ele><time>2026-03-22T14:02:27.01Z</time></trkpt><trkpt lat="43.4227317" lon="10.5666933"><ele>241.0</ele><time>2026-03-22T14:02:28.01Z</time></trkpt><trkpt lat="43.4225783" lon="10.5666467"><ele>241.0</ele><time>2026-03-22T14:02:29.01Z</time></trkpt><trkpt lat="43.4224217" lon="10.566615"><ele>241.0</ele><time>2026-03-22T14:02:30.01Z</time></trkpt><trkpt lat="43.42227" lon="10.566615"><ele>241.0</ele><time>2026-03-22T14:02:31.01Z</time></trkpt><trkpt lat="43.422135" lon="10.566615"><ele>241.0</ele><time>2026-03-22T14:02:32.01Z</time></trkpt><trkpt lat="43.42201" lon="10.5666683"><ele>241.0</ele><time>2026-03-22T14:02:33.01Z</time></trkpt><trkpt lat="43.42188" lon="10.56674"><ele>241.0</ele><time>2026-03-22T14:02:34.01Z</time></trkpt><trkpt lat="43.421745" lon="10.5668367"><ele>241.0</ele><time>2026-03-22T14:02:35.01Z</time></trkpt><trkpt lat="43.4216017" lon="10.56693"><ele>241.0</ele><time>2026-03-22T14:02:36.01Z</time></trkpt><trkpt lat="43.4214617" lon="10.5670167"><ele>241.0</ele><time>2026-03-22T14:02:37.01Z</time></trkpt><trkpt lat="43.4213367" lon="10.5671083"><ele>241.0</ele><time>2026-03-22T14:02:38.013Z</time></trkpt><trkpt lat="43.4212283" lon="10.567215"><ele>241.0</ele><time>2026-03-22T14:02:39.009Z</time></trkpt><trkpt lat="43.421155" lon="10.5673433"><ele>247.0</ele><time>2026-03-22T14:02:40.01Z</time></trkpt><trkpt lat="43.4211267" lon="10.5674883"><ele>253.0</ele><time>2026-03-22T14:02:41.012Z</time></trkpt><trkpt lat="43.4211317" lon="10.5676433"><ele>259.0</ele><time>2026-03-22T14:02:42.012Z</time></trkpt><trkpt lat="43.42118" lon="10.5678017"><ele>265.0</ele><time>2026-03-22T14:02:43.014Z</time></trkpt><trkpt lat="43.4212583" lon="10.5679633"><ele>261.66666666666663</ele><time>2026-03-22T14:02:44.014Z</time></trkpt><trkpt lat="43.42137" lon="10.5681133"><ele>258.3333333333333</ele><time>2026-03-22T14:02:45.013Z</time></trkpt><trkpt lat="43.4214967" lon="10.5682367"><ele>255.0</ele><time>2026-03-22T14:02:46.013Z</time></trkpt><trkpt lat="43.421635" lon="10.5683233"><ele>255.0</ele><time>2026-03-22T14:02:47.011Z</time></trkpt><trkpt lat="43.4217817" lon="10.56836"><ele>255.0</ele><time>2026-03-22T14:02:48.011Z</time></trkpt><trkpt lat="43.4219417" lon="10.5683483"><ele>255.0</ele><time>2026-03-22T14:02:49.011Z</time></trkpt><trkpt lat="43.4220867" lon="10.5683317"><ele>254.75</ele><time>2026-03-22T14:02:50.01Z</time></trkpt><trkpt lat="43.4222167" lon="10.5683317"><ele>254.5</ele><time>2026-03-22T14:02:51.01Z</time></trkpt><trkpt lat="43.422335" lon="10.5683783"><ele>254.25</ele><time>2026-03-22T14:02:52.01Z</time></trkpt><trkpt lat="43.422445" lon="10.5684767"><ele>254.0</ele><time>2026-03-22T14:02:53.01Z</time></trkpt><trkpt lat="43.4225433" lon="10.568605"><ele>255.75</ele><time>2026-03-22T14:02:54.01Z</time></trkpt><trkpt lat="43.4226433" lon="10.5687283"><ele>257.5</ele><time>2026-03-22T14:02:55.01Z</time></trkpt><trkpt lat="43.422755" lon="10.5688117"><ele>259.25</ele><time>2026-03-22T14:02:56.01Z</time></trkpt><trkpt lat="43.422885" lon="10.5688467"><ele>261.0</ele><time>2026-03-22T14:02:57.011Z</time></trkpt><trkpt lat="43.42302" lon="10.5688467"><ele>261.0</ele><time>2026-03-22T14:02:58.01Z</time></trkpt><trkpt lat="43.4231517" lon="10.5688583"><ele>261.0</ele><time>2026-03-22T14:02:59.01Z</time></trkpt><trkpt lat="43.42327" lon="10.5689"><ele>261.0</ele><time>2026-03-22T14:03:00.01Z</time></trkpt><trkpt lat="43.423375" lon="10.568985"><ele>261.0</ele><time>2026-03-22T14:03:01.01Z</time></trkpt><trkpt lat="43.4234683" lon="10.5691167"><ele>261.0</ele><time>2026-03-22T14:03:02.01Z</time></trkpt><trkpt lat="43.423555" lon="10.5692767"><ele>261.0</ele><time>2026-03-22T14:03:03.01Z</time></trkpt><trkpt lat="43.4236367" lon="10.569445"><ele>261.0</ele><time>2026-03-22T14:03:04.01Z</time></trkpt><trkpt lat="43.4237217" lon="10.56959"><ele>261.0</ele><time>2026-03-22T14:03:05.01Z</time></trkpt><trkpt lat="43.4238183" lon="10.5696983"><ele>262.25</ele><time>2026-03-22T14:03:06.01Z</time></trkpt><trkpt lat="43.42393" lon="10.569765"><ele>263.5</ele><time>2026-03-22T14:03:07.011Z</time></trkpt><trkpt lat="43.4240567" lon="10.5698033"><ele>264.75</ele><time>2026-03-22T14:03:08.01Z</time></trkpt><trkpt lat="43.4242" lon="10.56983"><ele>266.0</ele><time>2026-03-22T14:03:09.01Z</time></trkpt><trkpt lat="43.4243483" lon="10.5698567"><ele>266.0</ele><time>2026-03-22T14:03:10.01Z</time></trkpt><trkpt lat="43.4244883" lon="10.5698783"><ele>266.0</ele><time>2026-03-22T14:03:11.01Z</time></trkpt><trkpt lat="43.42461" lon="10.5699"><ele>266.0</ele><time>2026-03-22T14:03:12.01Z</time></trkpt><trkpt lat="43.4247133" lon="10.56992"><ele>266.0</ele><time>2026-03-22T14:03:13.01Z</time></trkpt><trkpt lat="43.4248117" lon="10.569955"><ele>266.2</ele><time>2026-03-22T14:03:14.01Z</time></trkpt><trkpt lat="43.4248983" lon="10.57001"><ele>266.40000000000003</ele><time>2026-03-22T14:03:15.01Z</time></trkpt><trkpt lat="43.42496" lon="10.5701"><ele>266.6</ele><time>2026-03-22T14:03:16.01Z</time></trkpt><trkpt lat="43.4249867" lon="10.5702233"><ele>266.8</ele><time>2026-03-22T14:03:17.01Z</time></trkpt><trkpt lat="43.425" lon="10.5703433"><ele>267.0</ele><time>2026-03-22T14:03:18.009Z</time></trkpt><trkpt lat="43.424985" lon="10.5704633"><ele>267.0</ele><time>2026-03-22T14:03:19.01Z</time></trkpt><trkpt lat="43.4249233" lon="10.570585"><ele>267.0</ele><time>2026-03-22T14:03:20.01Z</time></trkpt><trkpt lat="43.42483" lon="10.5707267"><ele>267.0</ele><time>2026-03-22T14:03:21.01Z</time></trkpt><trkpt lat="43.42464" lon="10.5708517"><ele>268.75</ele><time>2026-03-22T14:03:22.011Z</time></trkpt><trkpt lat="43.42451" lon="10.570975"><ele>270.5</ele><time>2026-03-22T14:03:23.009Z</time></trkpt><trkpt lat="43.4243783" lon="10.571065"><ele>272.25</ele><time>2026-03-22T14:03:24.01Z</time></trkpt><trkpt lat="43.42424" lon="10.57111"><ele>274.0</ele><time>2026-03-22T14:03:25.01Z</time></trkpt><trkpt lat="43.42407" lon="10.5711117"><ele>274.0</ele><time>2026-03-22T14:03:26.011Z</time></trkpt><trkpt lat="43.4239067" lon="10.5710733"><ele>274.0</ele><time>2026-03-22T14:03:27.01Z</time></trkpt><trkpt lat="43.4237583" lon="10.5710333"><ele>274.0</ele><time>2026-03-22T14:03:28.009Z</time></trkpt><trkpt lat="43.423605" lon="10.5710017"><ele>275.25</ele><time>2026-03-22T14:03:29.01Z</time></trkpt><trkpt lat="43.4234533" lon="10.5710133"><ele>276.5</ele><time>2026-03-22T14:03:30.01Z</time></trkpt><trkpt lat="43.4233217" lon="10.57104"><ele>277.75</ele><time>2026-03-22T14:03:31.011Z</time></trkpt><trkpt lat="43.4231967" lon="10.571065"><ele>279.0</ele><time>2026-03-22T14:03:32.011Z</time></trkpt><trkpt lat="43.42308" lon="10.5710717"><ele>280.2</ele><time>2026-03-22T14:03:33.01Z</time></trkpt><trkpt lat="43.4229783" lon="10.57105"><ele>281.4</ele><time>2026-03-22T14:03:34.01Z</time></trkpt><trkpt lat="43.4228833" lon="10.571"><ele>282.6</ele><time>2026-03-22T14:03:35.01Z</time></trkpt><trkpt lat="43.4227783" lon="10.5709283"><ele>283.8</ele><time>2026-03-22T14:03:36.009Z</time></trkpt><trkpt lat="43.4226617" lon="10.5708617"><ele>285.0</ele><time>2026-03-22T14:03:37.01Z</time></trkpt><trkpt lat="43.4225433" lon="10.5708067"><ele>285.0</ele><time>2026-03-22T14:03:38.01Z</time></trkpt><trkpt lat="43.422425" lon="10.5707783"><ele>285.0</ele><time>2026-03-22T14:03:39.01Z</time></trkpt><trkpt lat="43.4223" lon="10.5708083"><ele>285.0</ele><time>2026-03-22T14:03:40.01Z</time></trkpt><trkpt lat="43.4221783" lon="10.57087"><ele>285.0</ele><time>2026-03-22T14:03:41.011Z</time></trkpt><trkpt lat="43.4220683" lon="10.570965"><ele>287.25</ele><time>2026-03-22T14:03:42.01Z</time></trkpt><trkpt lat="43.4219633" lon="10.571045"><ele>289.5</ele><time>2026-03-22T14:03:43.009Z</time></trkpt><trkpt lat="43.4218467" lon="10.5710933"><ele>291.75</ele><time>2026-03-22T14:03:44.01Z</time></trkpt><trkpt lat="43.4217233" lon="10.5711033"><ele>294.0</ele><time>2026-03-22T14:03:45.01Z</time></trkpt><trkpt lat="43.4215833" lon="10.5710783"><ele>294.0</ele><time>2026-03-22T14:03:46.011Z</time></trkpt><trkpt lat="43.4214433" lon="10.5710217"><ele>294.0</ele><time>2026-03-22T14:03:47.01Z</time></trkpt><trkpt lat="43.4213267" lon="10.57092"><ele>294.0</ele><time>2026-03-22T14:03:48.011Z</time></trkpt><trkpt lat="43.421225" lon="10.5708083"><ele>294.0</ele><time>2026-03-22T14:03:49.009Z</time></trkpt><trkpt lat="43.4211383" lon="10.57069"><ele>296.5</ele><time>2026-03-22T14:03:50.01Z</time></trkpt><trkpt lat="43.4210467" lon="10.5705883"><ele>299.0</ele><time>2026-03-22T14:03:51.01Z</time></trkpt><trkpt lat="43.4209333" lon="10.57051"><ele>301.5</ele><time>2026-03-22T14:03:52.011Z</time></trkpt><trkpt lat="43.4208067" lon="10.570455"><ele>304.0</ele><time>2026-03-22T14:03:53.012Z</time></trkpt><trkpt lat="43.4206667" lon="10.570415"><ele>304.0</ele><time>2026-03-22T14:03:54.012Z</time></trkpt><trkpt lat="43.4205283" lon="10.570385"><ele>304.0</ele><time>2026-03-22T14:03:55.012Z</time></trkpt><trkpt lat="43.4203783" lon="10.5703467"><ele>304.0</ele><time>2026-03-22T14:03:56.011Z</time></trkpt><trkpt lat="43.4202333" lon="10.57029"><ele>304.0</ele><time>2026-03-22T14:03:57.012Z</time></trkpt><trkpt lat="43.4200967" lon="10.570205"><ele>303.3333333333333</ele><time>2026-03-22T14:03:58.012Z</time></trkpt><trkpt lat="43.41997" lon="10.57008"><ele>302.6666666666667</ele><time>2026-03-22T14:03:59.012Z</time></trkpt><trkpt lat="43.4198483" lon="10.5699283"><ele>302.0</ele><time>2026-03-22T14:04:00.01Z</time></trkpt><trkpt lat="43.419735" lon="10.5697667"><ele>303.5</ele><time>2026-03-22T14:04:01.01Z</time></trkpt><trkpt lat="43.4196383" lon="10.5696033"><ele>305.0</ele><time>2026-03-22T14:04:02.012Z</time></trkpt><trkpt lat="43.4195517" lon="10.5694483"><ele>306.5</ele><time>2026-03-22T14:04:03.01Z</time></trkpt><trkpt lat="43.4194683" lon="10.569325"><ele>308.0</ele><time>2026-03-22T14:04:04.01Z</time></trkpt><trkpt lat="43.4193733" lon="10.569235"><ele>308.0</ele><time>2026-03-22T14:04:05.012Z</time></trkpt><trkpt lat="43.419255" lon="10.5691867"><ele>308.0</ele><time>2026-03-22T14:04:06.012Z</time></trkpt><trkpt lat="43.4191233" lon="10.5691633"><ele>308.0</ele><time>2026-03-22T14:04:07.012Z</time></trkpt><trkpt lat="43.4189833" lon="10.5691517"><ele>308.0</ele><time>2026-03-22T14:04:08.011Z</time></trkpt><trkpt lat="43.4188483" lon="10.5691567"><ele>308.0</ele><time>2026-03-22T14:04:09.01Z</time></trkpt><trkpt lat="43.4187317" lon="10.569185"><ele>308.0</ele><time>2026-03-22T14:04:10.009Z</time></trkpt><trkpt lat="43.4186167" lon="10.5692467"><ele>308.0</ele><time>2026-03-22T14:04:11.011Z</time></trkpt><trkpt lat="43.4185067" lon="10.569355"><ele>308.0</ele><time>2026-03-22T14:04:12.011Z</time></trkpt><trkpt lat="43.4184283" lon="10.5694867"><ele>310.0</ele><time>2026-03-22T14:04:13.01Z</time></trkpt><trkpt lat="43.41835" lon="10.5695983"><ele>312.0</ele><time>2026-03-22T14:04:14.011Z</time></trkpt><trkpt lat="43.418265" lon="10.5696717"><ele>314.0</ele><time>2026-03-22T14:04:15.01Z</time></trkpt><trkpt lat="43.4181717" lon="10.569695"><ele>316.0</ele><time>2026-03-22T14:04:16.009Z</time></trkpt><trkpt lat="43.4180717" lon="10.5696683"><ele>318.0</ele><time>2026-03-22T14:04:17.011Z</time></trkpt><trkpt lat="43.417955" lon="10.569615"><ele>318.5</ele><time>2026-03-22T14:04:18.011Z</time></trkpt><trkpt lat="43.417825" lon="10.5695567"><ele>319.0</ele><time>2026-03-22T14:04:19.01Z</time></trkpt><trkpt lat="43.4176967" lon="10.5695133"><ele>319.5</ele><time>2026-03-22T14:04:20.01Z</time></trkpt><trkpt lat="43.41758" lon="10.5694583"><ele>320.0</ele><time>2026-03-22T14:04:21.01Z</time></trkpt><trkpt lat="43.4174783" lon="10.5693717"><ele>320.0</ele><time>2026-03-22T14:04:22.01Z</time></trkpt><trkpt lat="43.4174067" lon="10.5692383"><ele>320.0</ele><time>2026-03-22T14:04:23.011Z</time></trkpt><trkpt lat="43.417365" lon="10.569065"><ele>320.0</ele><time>2026-03-22T14:04:24.01Z</time></trkpt><trkpt lat="43.417345" lon="10.5688817"><ele>320.0</ele><time>2026-03-22T14:04:25.01Z</time></trkpt><trkpt lat="43.41732" lon="10.5687133"><ele>319.5</ele><time>2026-03-22T14:04:26.011Z</time></trkpt><trkpt lat="43.4172767" lon="10.568565"><ele>319.0</ele><time>2026-03-22T14:04:27.01Z</time></trkpt><trkpt lat="43.4172133" lon="10.5684317"><ele>318.5</ele><time>2026-03-22T14:04:28.011Z</time></trkpt><trkpt lat="43.4171283" lon="10.5683333"><ele>318.0</ele><time>2026-03-22T14:04:29.011Z</time></trkpt><trkpt lat="43.4170167" lon="10.5682683"><ele>319.6666666666667</ele><time>2026-03-22T14:04:30.01Z</time></trkpt><trkpt lat="43.4168833" lon="10.5682433"><ele>321.33333333333337</ele><time>2026-03-22T14:04:31.01Z</time></trkpt><trkpt lat="43.4167283" lon="10.5682567"><ele>323.0</ele><time>2026-03-22T14:04:32.011Z</time></trkpt><trkpt lat="43.4165683" lon="10.5682717"><ele>323.0</ele><time>2026-03-22T14:04:33.01Z</time></trkpt><trkpt lat="43.4164217" lon="10.5682767"><ele>323.0</ele><time>2026-03-22T14:04:34.01Z</time></trkpt><trkpt lat="43.41629" lon="10.5683017"><ele>323.0</ele><time>2026-03-22T14:04:35.01Z</time></trkpt><trkpt lat="43.41618" lon="10.56835"><ele>323.0</ele><time>2026-03-22T14:04:36.01Z</time></trkpt><trkpt lat="43.4160933" lon="10.5684417"><ele>322.5</ele><time>2026-03-22T14:04:37.011Z</time></trkpt><trkpt lat="43.41604" lon="10.56857"><ele>322.0</ele><time>2026-03-22T14:04:38.01Z</time></trkpt><trkpt lat="43.416005" lon="10.5687133"><ele>321.5</ele><time>2026-03-22T14:04:39.011Z</time></trkpt><trkpt lat="43.4160233" lon="10.5688567"><ele>321.0</ele><time>2026-03-22T14:04:40.01Z</time></trkpt><trkpt lat="43.416105" lon="10.56899"><ele>321.0</ele><time>2026-03-22T14:04:41.01Z</time></trkpt><trkpt lat="43.4162067" lon="10.5691"><ele>321.0</ele><time>2026-03-22T14:04:42.01Z</time></trkpt><trkpt lat="43.4163283" lon="10.5691883"><ele>321.0</ele><time>2026-03-22T14:04:43.01Z</time></trkpt><trkpt lat="43.4164483" lon="10.5692717"><ele>321.0</ele><time>2026-03-22T14:04:44.01Z</time></trkpt><trkpt lat="43.41655" lon="10.5693683"><ele>323.75</ele><time>2026-03-22T14:04:45.01Z</time></trkpt><trkpt lat="43.4166233" lon="10.5694883"><ele>326.5</ele><time>2026-03-22T14:04:46.01Z</time></trkpt><trkpt lat="43.4166717" lon="10.5696367"><ele>329.25</ele><time>2026-03-22T14:04:47.01Z</time></trkpt><trkpt lat="43.4167083" lon="10.5698017"><ele>332.0</ele><time>2026-03-22T14:04:48.01Z</time></trkpt><trkpt lat="43.416735" lon="10.5699867"><ele>333.0</ele><time>2026-03-22T14:04:49.01Z</time></trkpt><trkpt lat="43.41675" lon="10.5701833"><ele>334.0</ele><time>2026-03-22T14:04:50.01Z</time></trkpt><trkpt lat="43.4167633" lon="10.570375"><ele>335.0</ele><time>2026-03-22T14:04:51.01Z</time></trkpt><trkpt lat="43.4167683" lon="10.57056"><ele>336.0</ele><time>2026-03-22T14:04:52.011Z</time></trkpt><trkpt lat="43.4167633" lon="10.5707417"><ele>336.5</ele><time>2026-03-22T14:04:53.01Z</time></trkpt><trkpt lat="43.4167517" lon="10.5709183"><ele>337.0</ele><time>2026-03-22T14:04:54.01Z</time></trkpt><trkpt lat="43.41674" lon="10.5710867"><ele>337.5</ele><time>2026-03-22T14:04:55.01Z</time></trkpt><trkpt lat="43.4167233" lon="10.5712483"><ele>338.0</ele><time>2026-03-22T14:04:56.01Z</time></trkpt><trkpt lat="43.4166967" lon="10.5714"><ele>339.4</ele><time>2026-03-22T14:04:57.01Z</time></trkpt><trkpt lat="43.4166567" lon="10.571535"><ele>340.79999999999995</ele><time>2026-03-22T14:04:58.01Z</time></trkpt><trkpt lat="43.4165933" lon="10.5716533"><ele>342.2</ele><time>2026-03-22T14:04:59.01Z</time></trkpt><trkpt lat="43.416525" lon="10.57175"><ele>343.6</ele><time>2026-03-22T14:05:00.01Z</time></trkpt><trkpt lat="43.416455" lon="10.5718183"><ele>345.0</ele><time>2026-03-22T14:05:01.011Z</time></trkpt><trkpt lat="43.4163883" lon="10.57187"><ele>345.0</ele><time>2026-03-22T14:05:02.01Z</time></trkpt><trkpt lat="43.4163217" lon="10.571915"><ele>345.0</ele><time>2026-03-22T14:05:03.01Z</time></trkpt><trkpt lat="43.41626" lon="10.57195"><ele>345.0</ele><time>2026-03-22T14:05:04.01Z</time></trkpt><trkpt lat="43.4161817" lon="10.571995"><ele>345.0</ele><time>2026-03-22T14:05:06.011Z</time></trkpt><trkpt lat="43.4161317" lon="10.5721133"><ele>345.0</ele><time>2026-03-22T14:05:30.011Z</time></trkpt><trkpt lat="43.4160817" lon="10.5722567"><ele>345.0</ele><time>2026-03-22T14:05:32.011Z</time></trkpt><trkpt lat="43.416055" lon="10.5723433"><ele>345.3333333333333</ele><time>2026-03-22T14:05:33.01Z</time></trkpt><trkpt lat="43.41603" lon="10.5724417"><ele>345.6666666666667</ele><time>2026-03-22T14:05:34.01Z</time></trkpt><trkpt lat="43.416005" lon="10.572545"><ele>346.0</ele><time>2026-03-22T14:05:35.01Z</time></trkpt><trkpt lat="43.4159783" lon="10.572655"><ele>346.33333333333337</ele><time>2026-03-22T14:05:36.011Z</time></trkpt><trkpt lat="43.4159483" lon="10.5727717"><ele>346.6666666666667</ele><time>2026-03-22T14:05:37.011Z</time></trkpt><trkpt lat="43.4159167" lon="10.5728967"><ele>347.0</ele><time>2026-03-22T14:05:38.011Z</time></trkpt><trkpt lat="43.4158867" lon="10.5730333"><ele>348.5</ele><time>2026-03-22T14:05:39.011Z</time></trkpt><trkpt lat="43.4158567" lon="10.5731783"><ele>350.0</ele><time>2026-03-22T14:05:40.011Z</time></trkpt><trkpt lat="43.41582" lon="10.5733283"><ele>351.5</ele><time>2026-03-22T14:05:41.011Z</time></trkpt><trkpt lat="43.41579" lon="10.5734817"><ele>353.0</ele><time>2026-03-22T14:05:42.012Z</time></trkpt><trkpt lat="43.4157583" lon="10.5736283"><ele>353.5</ele><time>2026-03-22T14:05:43.01Z</time></trkpt><trkpt lat="43.415725" lon="10.5737617"><ele>354.0</ele><time>2026-03-22T14:05:44.011Z</time></trkpt><trkpt lat="43.4156883" lon="10.5738717"><ele>354.5</ele><time>2026-03-22T14:05:45.01Z</time></trkpt><trkpt lat="43.4156417" lon="10.57397"><ele>355.0</ele><time>2026-03-22T14:05:46.01Z</time></trkpt><trkpt lat="43.4156" lon="10.5740667"><ele>355.5</ele><time>2026-03-22T14:05:47.011Z</time></trkpt><trkpt lat="43.4155367" lon="10.574155"><ele>356.0</ele><time>2026-03-22T14:05:48.01Z</time></trkpt><trkpt lat="43.4154733" lon="10.5742433"><ele>356.0</ele><time>2026-03-22T14:05:49.01Z</time></trkpt><trkpt lat="43.4153883" lon="10.5743233"><ele>356.0</ele><time>2026-03-22T14:05:50.011Z</time></trkpt><trkpt lat="43.4153017" lon="10.5744017"><ele>356.0</ele><time>2026-03-22T14:05:51.01Z</time></trkpt><trkpt lat="43.4152117" lon="10.5744717"><ele>356.0</ele><time>2026-03-22T14:05:52.011Z</time></trkpt><trkpt lat="43.4151417" lon="10.5745517"><ele>356.0</ele><time>2026-03-22T14:05:53.01Z</time></trkpt><trkpt lat="43.41508" lon="10.5746483"><ele>357.6</ele><time>2026-03-22T14:05:54.01Z</time></trkpt><trkpt lat="43.4150167" lon="10.5747567"><ele>359.20000000000005</ele><time>2026-03-22T14:05:55.012Z</time></trkpt><trkpt lat="43.4149667" lon="10.5748833"><ele>360.79999999999995</ele><time>2026-03-22T14:05:56.01Z</time></trkpt><trkpt lat="43.4149217" lon="10.5750167"><ele>362.4</ele><time>2026-03-22T14:05:57.009Z</time></trkpt><trkpt lat="43.4148633" lon="10.5751533"><ele>364.0</ele><time>2026-03-22T14:05:58.01Z</time></trkpt><trkpt lat="43.4147933" lon="10.5752833"><ele>365.75</ele><time>2026-03-22T14:05:59.011Z</time></trkpt><trkpt lat="43.41471" lon="10.5753983"><ele>367.5</ele><time>2026-03-22T14:06:00.01Z</time></trkpt><trkpt lat="43.4146183" lon="10.5754967"><ele>369.25</ele><time>2026-03-22T14:06:01.009Z</time></trkpt><trkpt lat="43.4145217" lon="10.5755833"><ele>371.0</ele><time>2026-03-22T14:06:02.011Z</time></trkpt><trkpt lat="43.41442" lon="10.5756617"><ele>371.0</ele><time>2026-03-22T14:06:03.012Z</time></trkpt><trkpt lat="43.4143217" lon="10.57574"><ele>371.0</ele><time>2026-03-22T14:06:04.012Z</time></trkpt><trkpt lat="43.4142267" lon="10.5758133"><ele>371.0</ele><time>2026-03-22T14:06:05.012Z</time></trkpt><trkpt lat="43.4141483" lon="10.5758817"><ele>371.0</ele><time>2026-03-22T14:06:06.01Z</time></trkpt><trkpt lat="43.4140783" lon="10.5759533"><ele>371.0</ele><time>2026-03-22T14:06:07.01Z</time></trkpt><trkpt lat="43.4140017" lon="10.576035"><ele>371.0</ele><time>2026-03-22T14:06:08.011Z</time></trkpt><trkpt lat="43.4139233" lon="10.5761283"><ele>371.0</ele><time>2026-03-22T14:06:09.01Z</time></trkpt><trkpt lat="43.4138483" lon="10.5762183"><ele>371.0</ele><time>2026-03-22T14:06:10.01Z</time></trkpt><trkpt lat="43.41376" lon="10.5762933"><ele>371.0</ele><time>2026-03-22T14:06:11.008Z</time></trkpt><trkpt lat="43.4136683" lon="10.57635"><ele>371.0</ele><time>2026-03-22T14:06:12.01Z</time></trkpt><trkpt lat="43.41359" lon="10.5763967"><ele>371.1666666666667</ele><time>2026-03-22T14:06:13.011Z</time></trkpt><trkpt lat="43.4135133" lon="10.5764433"><ele>371.33333333333337</ele><time>2026-03-22T14:06:14.011Z</time></trkpt><trkpt lat="43.4134433" lon="10.5764917"><ele>371.5</ele><time>2026-03-22T14:06:15.01Z</time></trkpt><trkpt lat="43.4133733" lon="10.5765433"><ele>371.6666666666667</ele><time>2026-03-22T14:06:16.01Z</time></trkpt><trkpt lat="43.4133017" lon="10.5765867"><ele>371.8333333333333</ele><time>2026-03-22T14:06:17.01Z</time></trkpt><trkpt lat="43.4132317" lon="10.57663"><ele>372.0</ele><time>2026-03-22T14:06:18.01Z</time></trkpt><trkpt lat="43.413155" lon="10.5766633"><ele>372.0</ele><time>2026-03-22T14:06:19.01Z</time></trkpt><trkpt lat="43.413065" lon="10.576675"><ele>372.0</ele><time>2026-03-22T14:06:20.012Z</time></trkpt><trkpt lat="43.412985" lon="10.5766833"><ele>372.0</ele><time>2026-03-22T14:06:21.01Z</time></trkpt><trkpt lat="43.412905" lon="10.57669"><ele>372.0</ele><time>2026-03-22T14:06:22.01Z</time></trkpt><trkpt lat="43.4128333" lon="10.576705"><ele>372.0</ele><time>2026-03-22T14:06:23.011Z</time></trkpt><trkpt lat="43.4127733" lon="10.5767333"><ele>372.0</ele><time>2026-03-22T14:06:24.01Z</time></trkpt><trkpt lat="43.4126533" lon="10.5767817"><ele>372.3333333333333</ele><time>2026-03-22T14:06:26.009Z</time></trkpt><trkpt lat="43.4125867" lon="10.57683"><ele>372.6666666666667</ele><time>2026-03-22T14:06:27.01Z</time></trkpt><trkpt lat="43.4125183" lon="10.5768817"><ele>373.0</ele><time>2026-03-22T14:06:28.01Z</time></trkpt><trkpt lat="43.41245" lon="10.576935"><ele>373.33333333333337</ele><time>2026-03-22T14:06:29.014Z</time></trkpt><trkpt lat="43.4123817" lon="10.5769867"><ele>373.6666666666667</ele><time>2026-03-22T14:06:30.01Z</time></trkpt><trkpt lat="43.4123133" lon="10.5770467"><ele>374.0</ele><time>2026-03-22T14:06:31.01Z</time></trkpt><trkpt lat="43.4122517" lon="10.577115"><ele>373.6666666666667</ele><time>2026-03-22T14:06:32.01Z</time></trkpt><trkpt lat="43.4121933" lon="10.5771883"><ele>373.33333333333337</ele><time>2026-03-22T14:06:33.01Z</time></trkpt><trkpt lat="43.4121283" lon="10.57727"><ele>373.0</ele><time>2026-03-22T14:06:34.01Z</time></trkpt><trkpt lat="43.4120683" lon="10.5773567"><ele>372.6666666666667</ele><time>2026-03-22T14:06:35.011Z</time></trkpt><trkpt lat="43.4120133" lon="10.5774483"><ele>372.3333333333333</ele><time>2026-03-22T14:06:36.009Z</time></trkpt><trkpt lat="43.4119533" lon="10.5775567"><ele>372.0</ele><time>2026-03-22T14:06:37.01Z</time></trkpt><trkpt lat="43.4118867" lon="10.5776633"><ele>372.0</ele><time>2026-03-22T14:06:38.011Z</time></trkpt><trkpt lat="43.4118267" lon="10.577765"><ele>372.0</ele><time>2026-03-22T14:06:39.01Z</time></trkpt><trkpt lat="43.4117733" lon="10.5778767"><ele>372.0</ele><time>2026-03-22T14:06:40.01Z</time></trkpt><trkpt lat="43.4117217" lon="10.577995"><ele>372.0</ele><time>2026-03-22T14:06:41.011Z</time></trkpt><trkpt lat="43.4116733" lon="10.5781283"><ele>372.0</ele><time>2026-03-22T14:06:42.01Z</time></trkpt><trkpt lat="43.4116267" lon="10.5782583"><ele>373.40000000000003</ele><time>2026-03-22T14:06:43.01Z</time></trkpt><trkpt lat="43.41159" lon="10.5783817"><ele>374.8</ele><time>2026-03-22T14:06:44.01Z</time></trkpt><trkpt lat="43.4115433" lon="10.57849"><ele>376.2</ele><time>2026-03-22T14:06:45.011Z</time></trkpt><trkpt lat="43.4114817" lon="10.5785867"><ele>377.6</ele><time>2026-03-22T14:06:46.012Z</time></trkpt><trkpt lat="43.4113933" lon="10.5786767"><ele>379.0</ele><time>2026-03-22T14:06:47.012Z</time></trkpt><trkpt lat="43.4113067" lon="10.5787433"><ele>379.79999999999995</ele><time>2026-03-22T14:06:48.012Z</time></trkpt><trkpt lat="43.4111967" lon="10.5788"><ele>380.59999999999997</ele><time>2026-03-22T14:06:49.012Z</time></trkpt><trkpt lat="43.4111067" lon="10.5788367"><ele>381.4</ele><time>2026-03-22T14:06:50.012Z</time></trkpt><trkpt lat="43.4110133" lon="10.5788517"><ele>382.2</ele><time>2026-03-22T14:06:51.012Z</time></trkpt><trkpt lat="43.410895" lon="10.5788483"><ele>383.0</ele><time>2026-03-22T14:06:52.012Z</time></trkpt><trkpt lat="43.4107817" lon="10.5788167"><ele>383.0</ele><time>2026-03-22T14:06:53.01Z</time></trkpt><trkpt lat="43.4106917" lon="10.578755"><ele>383.0</ele><time>2026-03-22T14:06:54.011Z</time></trkpt><trkpt lat="43.4105783" lon="10.5786783"><ele>383.0</ele><time>2026-03-22T14:06:55.01Z</time></trkpt><trkpt lat="43.410475" lon="10.578635"><ele>383.0</ele><time>2026-03-22T14:06:56.012Z</time></trkpt><trkpt lat="43.4103767" lon="10.5786017"><ele>383.0</ele><time>2026-03-22T14:06:57.01Z</time></trkpt><trkpt lat="43.4102667" lon="10.5785783"><ele>381.75</ele><time>2026-03-22T14:06:58.012Z</time></trkpt><trkpt lat="43.41015" lon="10.578565"><ele>380.5</ele><time>2026-03-22T14:06:59.01Z</time></trkpt><trkpt lat="43.410025" lon="10.578565"><ele>379.25</ele><time>2026-03-22T14:07:00.015Z</time></trkpt><trkpt lat="43.40991" lon="10.5785717"><ele>378.0</ele><time>2026-03-22T14:07:01.01Z</time></trkpt><trkpt lat="43.4097933" lon="10.578575"><ele>378.0</ele><time>2026-03-22T14:07:02.011Z</time></trkpt><trkpt lat="43.409675" lon="10.5785817"><ele>378.0</ele><time>2026-03-22T14:07:03.011Z</time></trkpt><trkpt lat="43.4095617" lon="10.5785883"><ele>378.0</ele><time>2026-03-22T14:07:04.01Z</time></trkpt><trkpt lat="43.4094533" lon="10.57859"><ele>378.0</ele><time>2026-03-22T14:07:05.011Z</time></trkpt><trkpt lat="43.40935" lon="10.5785767"><ele>378.0</ele><time>2026-03-22T14:07:06.01Z</time></trkpt><trkpt lat="43.4092433" lon="10.5785617"><ele>378.59999999999997</ele><time>2026-03-22T14:07:07.011Z</time></trkpt><trkpt lat="43.4091433" lon="10.5785467"><ele>379.2</ele><time>2026-03-22T14:07:08.012Z</time></trkpt><trkpt lat="43.40904" lon="10.5785433"><ele>379.8</ele><time>2026-03-22T14:07:09.011Z</time></trkpt><trkpt lat="43.4089333" lon="10.5785383"><ele>380.4</ele><time>2026-03-22T14:07:10.011Z</time></trkpt><trkpt lat="43.4088217" lon="10.5785467"><ele>381.0</ele><time>2026-03-22T14:07:11.01Z</time></trkpt><trkpt lat="43.4087033" lon="10.57856"><ele>381.0</ele><time>2026-03-22T14:07:12.01Z</time></trkpt><trkpt lat="43.4085833" lon="10.5785733"><ele>381.0</ele><time>2026-03-22T14:07:13.009Z</time></trkpt><trkpt lat="43.4084667" lon="10.5785817"><ele>381.0</ele><time>2026-03-22T14:07:14.013Z</time></trkpt><trkpt lat="43.408335" lon="10.5785833"><ele>381.0</ele><time>2026-03-22T14:07:15.011Z</time></trkpt><trkpt lat="43.4082133" lon="10.5785883"><ele>381.0</ele><time>2026-03-22T14:07:16.01Z</time></trkpt><trkpt lat="43.408095" lon="10.5785883"><ele>381.0</ele><time>2026-03-22T14:07:17.014Z</time></trkpt><trkpt lat="43.40798" lon="10.5785933"><ele>381.0</ele><time>2026-03-22T14:07:18.012Z</time></trkpt><trkpt lat="43.4078617" lon="10.5785967"><ele>381.0</ele><time>2026-03-22T14:07:19.012Z</time></trkpt><trkpt lat="43.4077467" lon="10.57859"><ele>381.25</ele><time>2026-03-22T14:07:20.012Z</time></trkpt><trkpt lat="43.4076367" lon="10.5785817"><ele>381.5</ele><time>2026-03-22T14:07:21.01Z</time></trkpt><trkpt lat="43.407525" lon="10.5785483"><ele>381.75</ele><time>2026-03-22T14:07:22.01Z</time></trkpt><trkpt lat="43.407415" lon="10.57849"><ele>382.0</ele><time>2026-03-22T14:07:23.01Z</time></trkpt><trkpt lat="43.40731" lon="10.5784"><ele>382.0</ele><time>2026-03-22T14:07:24.011Z</time></trkpt><trkpt lat="43.40721" lon="10.57829"><ele>382.0</ele><time>2026-03-22T14:07:25.011Z</time></trkpt><trkpt lat="43.4071233" lon="10.5781533"><ele>382.0</ele><time>2026-03-22T14:07:26.01Z</time></trkpt><trkpt lat="43.4070533" lon="10.57799"><ele>382.0</ele><time>2026-03-22T14:07:27.01Z</time></trkpt><trkpt lat="43.4070033" lon="10.5778083"><ele>383.25</ele><time>2026-03-22T14:07:28.009Z</time></trkpt><trkpt lat="43.40696" lon="10.5776267"><ele>384.5</ele><time>2026-03-22T14:07:29.01Z</time></trkpt><trkpt lat="43.4069067" lon="10.5774583"><ele>385.75</ele><time>2026-03-22T14:07:30.01Z</time></trkpt><trkpt lat="43.4068383" lon="10.5772967"><ele>387.0</ele><time>2026-03-22T14:07:31.011Z</time></trkpt><trkpt lat="43.4067483" lon="10.57715"><ele>388.25</ele><time>2026-03-22T14:07:32.01Z</time></trkpt><trkpt lat="43.4066417" lon="10.5770183"><ele>389.5</ele><time>2026-03-22T14:07:33.01Z</time></trkpt><trkpt lat="43.406525" lon="10.5769017"><ele>390.75</ele><time>2026-03-22T14:07:34.01Z</time></trkpt><trkpt lat="43.406405" lon="10.5767883"><ele>392.0</ele><time>2026-03-22T14:07:35.011Z</time></trkpt><trkpt lat="43.40629" lon="10.576665"><ele>392.0</ele><time>2026-03-22T14:07:36.01Z</time></trkpt><trkpt lat="43.4061933" lon="10.5765233"><ele>392.0</ele><time>2026-03-22T14:07:37.01Z</time></trkpt><trkpt lat="43.4061067" lon="10.5763717"><ele>392.0</ele><time>2026-03-22T14:07:38.011Z</time></trkpt><trkpt lat="43.4060133" lon="10.5762267"><ele>392.0</ele><time>2026-03-22T14:07:39.01Z</time></trkpt><trkpt lat="43.4059167" lon="10.5760833"><ele>389.75</ele><time>2026-03-22T14:07:40.01Z</time></trkpt><trkpt lat="43.4058117" lon="10.57594"><ele>387.5</ele><time>2026-03-22T14:07:41.011Z</time></trkpt><trkpt lat="43.405715" lon="10.5757867"><ele>385.25</ele><time>2026-03-22T14:07:42.01Z</time></trkpt><trkpt lat="43.4056333" lon="10.5756217"><ele>383.0</ele><time>2026-03-22T14:07:43.01Z</time></trkpt><trkpt lat="43.4055633" lon="10.5754467"><ele>383.2</ele><time>2026-03-22T14:07:44.011Z</time></trkpt><trkpt lat="43.4054967" lon="10.5752833"><ele>383.4</ele><time>2026-03-22T14:07:45.01Z</time></trkpt><trkpt lat="43.405415" lon="10.5751717"><ele>383.59999999999997</ele><time>2026-03-22T14:07:46.01Z</time></trkpt><trkpt lat="43.4053217" lon="10.5751067"><ele>383.79999999999995</ele><time>2026-03-22T14:07:47.011Z</time></trkpt><trkpt lat="43.405235" lon="10.57507"><ele>384.0</ele><time>2026-03-22T14:07:48.011Z</time></trkpt><trkpt lat="43.4051433" lon="10.5750783"><ele>384.0</ele><time>2026-03-22T14:07:49.01Z</time></trkpt><trkpt lat="43.40505" lon="10.575115"><ele>384.0</ele><time>2026-03-22T14:07:50.011Z</time></trkpt><trkpt lat="43.4049417" lon="10.57522"><ele>384.0</ele><time>2026-03-22T14:07:51.011Z</time></trkpt><trkpt lat="43.4048317" lon="10.5753783"><ele>384.0</ele><time>2026-03-22T14:07:52.011Z</time></trkpt><trkpt lat="43.4047317" lon="10.5754983"><ele>386.2</ele><time>2026-03-22T14:07:53.011Z</time></trkpt><trkpt lat="43.4046517" lon="10.5755967"><ele>388.4</ele><time>2026-03-22T14:07:54.011Z</time></trkpt><trkpt lat="43.4045717" lon="10.575665"><ele>390.6</ele><time>2026-03-22T14:07:55.009Z</time></trkpt><trkpt lat="43.4044833" lon="10.5756983"><ele>392.8</ele><time>2026-03-22T14:07:56.011Z</time></trkpt><trkpt lat="43.4043867" lon="10.5757017"><ele>395.0</ele><time>2026-03-22T14:07:57.01Z</time></trkpt><trkpt lat="43.4043017" lon="10.5756417"><ele>395.0</ele><time>2026-03-22T14:07:58.01Z</time></trkpt><trkpt lat="43.4042217" lon="10.5755317"><ele>395.0</ele><time>2026-03-22T14:07:59.011Z</time></trkpt><trkpt lat="43.404145" lon="10.5753883"><ele>395.0</ele><time>2026-03-22T14:08:00.01Z</time></trkpt><trkpt lat="43.4040933" lon="10.5751917"><ele>395.0</ele><time>2026-03-22T14:08:01.011Z</time></trkpt><trkpt lat="43.4040417" lon="10.57497"><ele>393.3333333333333</ele><time>2026-03-22T14:08:02.011Z</time></trkpt><trkpt lat="43.4039883" lon="10.57475"><ele>391.66666666666663</ele><time>2026-03-22T14:08:03.01Z</time></trkpt><trkpt lat="43.40394" lon="10.5745167"><ele>390.0</ele><time>2026-03-22T14:08:04.011Z</time></trkpt><trkpt lat="43.403875" lon="10.5743067"><ele>392.33333333333337</ele><time>2026-03-22T14:08:05.012Z</time></trkpt><trkpt lat="43.4038" lon="10.57412"><ele>394.6666666666667</ele><time>2026-03-22T14:08:06.01Z</time></trkpt><trkpt lat="43.40373" lon="10.573935"><ele>397.0</ele><time>2026-03-22T14:08:07.01Z</time></trkpt><trkpt lat="43.4036817" lon="10.57374"><ele>395.6666666666667</ele><time>2026-03-22T14:08:08.011Z</time></trkpt><trkpt lat="43.4036667" lon="10.5735317"><ele>394.33333333333337</ele><time>2026-03-22T14:08:09.01Z</time></trkpt><trkpt lat="43.4036817" lon="10.5733283"><ele>393.0</ele><time>2026-03-22T14:08:10.011Z</time></trkpt><trkpt lat="43.4037317" lon="10.5731333"><ele>393.0</ele><time>2026-03-22T14:08:11.01Z</time></trkpt><trkpt lat="43.4038017" lon="10.57294"><ele>393.0</ele><time>2026-03-22T14:08:12.01Z</time></trkpt><trkpt lat="43.40387" lon="10.5727567"><ele>393.0</ele><time>2026-03-22T14:08:13.01Z</time></trkpt><trkpt lat="43.4039317" lon="10.5725867"><ele>393.0</ele><time>2026-03-22T14:08:14.011Z</time></trkpt><trkpt lat="43.403975" lon="10.5724167"><ele>390.25</ele><time>2026-03-22T14:08:15.01Z</time></trkpt><trkpt lat="43.4039867" lon="10.5722517"><ele>387.5</ele><time>2026-03-22T14:08:16.011Z</time></trkpt><trkpt lat="43.4039633" lon="10.5720867"><ele>384.75</ele><time>2026-03-22T14:08:17.01Z</time></trkpt><trkpt lat="43.40391" lon="10.5719333"><ele>382.0</ele><time>2026-03-22T14:08:18.01Z</time></trkpt><trkpt lat="43.4038317" lon="10.571795"><ele>383.5</ele><time>2026-03-22T14:08:19.011Z</time></trkpt><trkpt lat="43.4037283" lon="10.5716783"><ele>385.0</ele><time>2026-03-22T14:08:20.012Z</time></trkpt><trkpt lat="43.4035983" lon="10.5715967"><ele>386.5</ele><time>2026-03-22T14:08:21.011Z</time></trkpt><trkpt lat="43.4034467" lon="10.571585"><ele>388.0</ele><time>2026-03-22T14:08:22.011Z</time></trkpt><trkpt lat="43.4033067" lon="10.5715533"><ele>388.0</ele><time>2026-03-22T14:08:23.011Z</time></trkpt><trkpt lat="43.4031783" lon="10.5714967"><ele>388.0</ele><time>2026-03-22T14:08:24.011Z</time></trkpt><trkpt lat="43.40307" lon="10.5714017"><ele>388.0</ele><time>2026-03-22T14:08:25.012Z</time></trkpt><trkpt lat="43.4029833" lon="10.5712767"><ele>388.0</ele><time>2026-03-22T14:08:26.011Z</time></trkpt><trkpt lat="43.4029167" lon="10.5711233"><ele>387.75</ele><time>2026-03-22T14:08:27.011Z</time></trkpt><trkpt lat="43.402855" lon="10.570965"><ele>387.5</ele><time>2026-03-22T14:08:28.01Z</time></trkpt><trkpt lat="43.4027967" lon="10.57082"><ele>387.25</ele><time>2026-03-22T14:08:29.011Z</time></trkpt><trkpt lat="43.4027267" lon="10.5707117"><ele>387.0</ele><time>2026-03-22T14:08:30.011Z</time></trkpt><trkpt lat="43.4026433" lon="10.5706483"><ele>387.0</ele><time>2026-03-22T14:08:31.011Z</time></trkpt><trkpt lat="43.40254" lon="10.57065"><ele>387.0</ele><time>2026-03-22T14:08:32.01Z</time></trkpt><trkpt lat="43.4024433" lon="10.5707233"><ele>387.0</ele><time>2026-03-22T14:08:33.011Z</time></trkpt><trkpt lat="43.40234" lon="10.5708283"><ele>387.0</ele><time>2026-03-22T14:08:34.01Z</time></trkpt><trkpt lat="43.402245" lon="10.5709517"><ele>386.0</ele><time>2026-03-22T14:08:35.01Z</time></trkpt><trkpt lat="43.40214" lon="10.5710767"><ele>385.0</ele><time>2026-03-22T14:08:36.011Z</time></trkpt><trkpt lat="43.40203" lon="10.571175"><ele>384.0</ele><time>2026-03-22T14:08:37.011Z</time></trkpt><trkpt lat="43.4019067" lon="10.5711917"><ele>383.0</ele><time>2026-03-22T14:08:38.012Z</time></trkpt><trkpt lat="43.4017833" lon="10.57116"><ele>383.0</ele><time>2026-03-22T14:08:39.01Z</time></trkpt><trkpt lat="43.4016533" lon="10.57109"><ele>383.0</ele><time>2026-03-22T14:08:40.011Z</time></trkpt><trkpt lat="43.4015233" lon="10.5710283"><ele>383.0</ele><time>2026-03-22T14:08:41.01Z</time></trkpt><trkpt lat="43.4013967" lon="10.5709933"><ele>383.0</ele><time>2026-03-22T14:08:42.01Z</time></trkpt><trkpt lat="43.401275" lon="10.5709983"><ele>381.75</ele><time>2026-03-22T14:08:43.01Z</time></trkpt><trkpt lat="43.4011517" lon="10.571035"><ele>380.5</ele><time>2026-03-22T14:08:44.011Z</time></trkpt><trkpt lat="43.4010433" lon="10.57111"><ele>379.25</ele><time>2026-03-22T14:08:45.01Z</time></trkpt><trkpt lat="43.40095" lon="10.5712283"><ele>378.0</ele><time>2026-03-22T14:08:46.01Z</time></trkpt><trkpt lat="43.4008767" lon="10.5713867"><ele>381.33333333333337</ele><time>2026-03-22T14:08:47.01Z</time></trkpt><trkpt lat="43.40079" lon="10.5715417"><ele>384.6666666666667</ele><time>2026-03-22T14:08:48.01Z</time></trkpt><trkpt lat="43.4006733" lon="10.5716867"><ele>388.0</ele><time>2026-03-22T14:08:49.01Z</time></trkpt><trkpt lat="43.400545" lon="10.57181"><ele>387.6666666666667</ele><time>2026-03-22T14:08:50.01Z</time></trkpt><trkpt lat="43.4004133" lon="10.571925"><ele>387.33333333333337</ele><time>2026-03-22T14:08:51.01Z</time></trkpt><trkpt lat="43.400285" lon="10.5720417"><ele>387.0</ele><time>2026-03-22T14:08:52.01Z</time></trkpt><trkpt lat="43.40017" lon="10.572175"><ele>387.0</ele><time>2026-03-22T14:08:53.01Z</time></trkpt><trkpt lat="43.400065" lon="10.5723383"><ele>387.0</ele><time>2026-03-22T14:08:54.011Z</time></trkpt><trkpt lat="43.39998" lon="10.572525"><ele>387.0</ele><time>2026-03-22T14:08:55.01Z</time></trkpt><trkpt lat="43.3999083" lon="10.5727183"><ele>387.0</ele><time>2026-03-22T14:08:56.012Z</time></trkpt><trkpt lat="43.3998317" lon="10.57291"><ele>387.0</ele><time>2026-03-22T14:08:57.01Z</time></trkpt><trkpt lat="43.3997333" lon="10.5730933"><ele>387.0</ele><time>2026-03-22T14:08:58.01Z</time></trkpt><trkpt lat="43.3996233" lon="10.5732533"><ele>387.0</ele><time>2026-03-22T14:08:59.011Z</time></trkpt><trkpt lat="43.399495" lon="10.5733883"><ele>387.0</ele><time>2026-03-22T14:09:00.011Z</time></trkpt><trkpt lat="43.3993583" lon="10.5734933"><ele>387.0</ele><time>2026-03-22T14:09:01.011Z</time></trkpt><trkpt lat="43.3991917" lon="10.5735583"><ele>387.0</ele><time>2026-03-22T14:09:02.01Z</time></trkpt><trkpt lat="43.3990133" lon="10.5735983"><ele>387.0</ele><time>2026-03-22T14:09:03.01Z</time></trkpt><trkpt lat="43.3988233" lon="10.573635"><ele>387.0</ele><time>2026-03-22T14:09:04.011Z</time></trkpt><trkpt lat="43.3986367" lon="10.57368"><ele>390.66666666666663</ele><time>2026-03-22T14:09:05.01Z</time></trkpt><trkpt lat="43.39845" lon="10.57372"><ele>394.3333333333333</ele><time>2026-03-22T14:09:06.01Z</time></trkpt><trkpt lat="43.39827" lon="10.5737417"><ele>398.0</ele><time>2026-03-22T14:09:07.011Z</time></trkpt><trkpt lat="43.3981067" lon="10.573745"><ele>399.3333333333333</ele><time>2026-03-22T14:09:08.011Z</time></trkpt><trkpt lat="43.3979383" lon="10.5737117"><ele>400.66666666666663</ele><time>2026-03-22T14:09:09.011Z</time></trkpt><trkpt lat="43.3977967" lon="10.5736317"><ele>402.0</ele><time>2026-03-22T14:09:10.01Z</time></trkpt><trkpt lat="43.3976683" lon="10.5735067"><ele>398.0</ele><time>2026-03-22T14:09:11.011Z</time></trkpt><trkpt lat="43.39756" lon="10.573345"><ele>394.0</ele><time>2026-03-22T14:09:12.011Z</time></trkpt><trkpt lat="43.3974233" lon="10.573225"><ele>390.0</ele><time>2026-03-22T14:09:13.011Z</time></trkpt><trkpt lat="43.3972783" lon="10.57313"><ele>392.66666666666663</ele><time>2026-03-22T14:09:14.011Z</time></trkpt><trkpt lat="43.3971167" lon="10.573055"><ele>395.3333333333333</ele><time>2026-03-22T14:09:15.01Z</time></trkpt><trkpt lat="43.3969333" lon="10.5730067"><ele>398.0</ele><time>2026-03-22T14:09:16.01Z</time></trkpt><trkpt lat="43.3967467" lon="10.5729583"><ele>398.0</ele><time>2026-03-22T14:09:17.011Z</time></trkpt><trkpt lat="43.39656" lon="10.5729083"><ele>398.0</ele><time>2026-03-22T14:09:18.011Z</time></trkpt><trkpt lat="43.396375" lon="10.5728583"><ele>398.0</ele><time>2026-03-22T14:09:19.011Z</time></trkpt><trkpt lat="43.3962017" lon="10.5728033"><ele>393.66666666666663</ele><time>2026-03-22T14:09:20.01Z</time></trkpt><trkpt lat="43.396025" lon="10.5727633"><ele>389.33333333333337</ele><time>2026-03-22T14:09:21.011Z</time></trkpt><trkpt lat="43.3958467" lon="10.57274"><ele>385.0</ele><time>2026-03-22T14:09:22.011Z</time></trkpt><trkpt lat="43.3956667" lon="10.5727467"><ele>384.33333333333337</ele><time>2026-03-22T14:09:23.01Z</time></trkpt><trkpt lat="43.3954917" lon="10.5727817"><ele>383.6666666666667</ele><time>2026-03-22T14:09:24.01Z</time></trkpt><trkpt lat="43.395315" lon="10.5728383"><ele>383.0</ele><time>2026-03-22T14:09:25.01Z</time></trkpt><trkpt lat="43.39515" lon="10.5729117"><ele>385.0</ele><time>2026-03-22T14:09:26.011Z</time></trkpt><trkpt lat="43.395005" lon="10.5729883"><ele>387.0</ele><time>2026-03-22T14:09:27.01Z</time></trkpt><trkpt lat="43.3948767" lon="10.5730567"><ele>389.0</ele><time>2026-03-22T14:09:28.01Z</time></trkpt><trkpt lat="43.3947383" lon="10.5731283"><ele>391.0</ele><time>2026-03-22T14:09:29.01Z</time></trkpt><trkpt lat="43.39459" lon="10.57321"><ele>391.0</ele><time>2026-03-22T14:09:30.01Z</time></trkpt><trkpt lat="43.3944417" lon="10.57329"><ele>391.0</ele><time>2026-03-22T14:09:31.011Z</time></trkpt><trkpt lat="43.394295" lon="10.5733733"><ele>391.0</ele><time>2026-03-22T14:09:32.011Z</time></trkpt><trkpt lat="43.3941433" lon="10.573465"><ele>391.0</ele><time>2026-03-22T14:09:33.011Z</time></trkpt><trkpt lat="43.3939833" lon="10.5735617"><ele>391.0</ele><time>2026-03-22T14:09:34.011Z</time></trkpt><trkpt lat="43.3938133" lon="10.5736567"><ele>391.0</ele><time>2026-03-22T14:09:35.01Z</time></trkpt><trkpt lat="43.39365" lon="10.57378"><ele>392.0</ele><time>2026-03-22T14:09:36.011Z</time></trkpt><trkpt lat="43.3934867" lon="10.5739017"><ele>393.0</ele><time>2026-03-22T14:09:37.011Z</time></trkpt><trkpt lat="43.393325" lon="10.5740217"><ele>394.0</ele><time>2026-03-22T14:09:38.01Z</time></trkpt><trkpt lat="43.39317" lon="10.5741433"><ele>394.0</ele><time>2026-03-22T14:09:39.01Z</time></trkpt><trkpt lat="43.3930317" lon="10.5742717"><ele>394.0</ele><time>2026-03-22T14:09:40.01Z</time></trkpt><trkpt lat="43.3929133" lon="10.5744133"><ele>394.0</ele><time>2026-03-22T14:09:41.009Z</time></trkpt><trkpt lat="43.392825" lon="10.5745883"><ele>393.0</ele><time>2026-03-22T14:09:42.011Z</time></trkpt><trkpt lat="43.3927433" lon="10.5747867"><ele>392.0</ele><time>2026-03-22T14:09:43.01Z</time></trkpt><trkpt lat="43.3926767" lon="10.5749883"><ele>391.0</ele><time>2026-03-22T14:09:44.012Z</time></trkpt><trkpt lat="43.3926167" lon="10.57517"><ele>391.0</ele><time>2026-03-22T14:09:45.012Z</time></trkpt><trkpt lat="43.3925433" lon="10.5753217"><ele>391.0</ele><time>2026-03-22T14:09:46.011Z</time></trkpt><trkpt lat="43.3924883" lon="10.5754683"><ele>391.0</ele><time>2026-03-22T14:09:47.011Z</time></trkpt><trkpt lat="43.39241" lon="10.5755667"><ele>391.0</ele><time>2026-03-22T14:09:48.011Z</time></trkpt><trkpt lat="43.392325" lon="10.57564"><ele>392.75</ele><time>2026-03-22T14:09:49.011Z</time></trkpt><trkpt lat="43.3921883" lon="10.575665"><ele>394.5</ele><time>2026-03-22T14:09:50.011Z</time></trkpt><trkpt lat="43.3920717" lon="10.5756817"><ele>396.25</ele><time>2026-03-22T14:09:51.01Z</time></trkpt><trkpt lat="43.3919533" lon="10.5756683"><ele>398.0</ele><time>2026-03-22T14:09:52.01Z</time></trkpt><trkpt lat="43.3918233" lon="10.5756133"><ele>398.25</ele><time>2026-03-22T14:09:53.01Z</time></trkpt><trkpt lat="43.39173" lon="10.5755267"><ele>398.5</ele><time>2026-03-22T14:09:54.01Z</time></trkpt><trkpt lat="43.3916383" lon="10.5754067"><ele>398.75</ele><time>2026-03-22T14:09:55.01Z</time></trkpt><trkpt lat="43.391565" lon="10.5752717"><ele>399.0</ele><time>2026-03-22T14:09:56.01Z</time></trkpt><trkpt lat="43.3915" lon="10.575105"><ele>398.0</ele><time>2026-03-22T14:09:57.009Z</time></trkpt><trkpt lat="43.3914217" lon="10.5749267"><ele>397.0</ele><time>2026-03-22T14:09:58.011Z</time></trkpt><trkpt lat="43.3913417" lon="10.5747417"><ele>396.0</ele><time>2026-03-22T14:09:59.012Z</time></trkpt><trkpt lat="43.3912717" lon="10.574535"><ele>398.0</ele><time>2026-03-22T14:10:00.01Z</time></trkpt><trkpt lat="43.39122" lon="10.5743233"><ele>400.0</ele><time>2026-03-22T14:10:01.011Z</time></trkpt><trkpt lat="43.3911833" lon="10.5741"><ele>402.0</ele><time>2026-03-22T14:10:02.01Z</time></trkpt><trkpt lat="43.3911517" lon="10.5738767"><ele>401.25</ele><time>2026-03-22T14:10:03.011Z</time></trkpt><trkpt lat="43.391125" lon="10.5736717"><ele>400.5</ele><time>2026-03-22T14:10:04.01Z</time></trkpt><trkpt lat="43.3911" lon="10.5734883"><ele>399.75</ele><time>2026-03-22T14:10:05.01Z</time></trkpt><trkpt lat="43.3910617" lon="10.5733317"><ele>399.0</ele><time>2026-03-22T14:10:06.011Z</time></trkpt><trkpt lat="43.3909967" lon="10.573215"><ele>399.0</ele><time>2026-03-22T14:10:07.01Z</time></trkpt><trkpt lat="43.3909217" lon="10.5731367"><ele>399.0</ele><time>2026-03-22T14:10:08.011Z</time></trkpt><trkpt lat="43.390835" lon="10.5730967"><ele>399.0</ele><time>2026-03-22T14:10:09.011Z</time></trkpt><trkpt lat="43.3907383" lon="10.5730933"><ele>399.0</ele><time>2026-03-22T14:10:10.011Z</time></trkpt><trkpt lat="43.3906333" lon="10.573115"><ele>399.0</ele><time>2026-03-22T14:10:11.011Z</time></trkpt><trkpt lat="43.3905" lon="10.57319"><ele>398.33333333333337</ele><time>2026-03-22T14:10:12.01Z</time></trkpt><trkpt lat="43.3903433" lon="10.5732717"><ele>397.6666666666667</ele><time>2026-03-22T14:10:13.011Z</time></trkpt><trkpt lat="43.39019" lon="10.573315"><ele>397.0</ele><time>2026-03-22T14:10:14.012Z</time></trkpt><trkpt lat="43.39005" lon="10.5733467"><ele>397.0</ele><time>2026-03-22T14:10:15.011Z</time></trkpt><trkpt lat="43.38991" lon="10.5733967"><ele>397.0</ele><time>2026-03-22T14:10:16.01Z</time></trkpt><trkpt lat="43.3897733" lon="10.57347"><ele>397.0</ele><time>2026-03-22T14:10:17.011Z</time></trkpt><trkpt lat="43.38966" lon="10.5735733"><ele>397.0</ele><time>2026-03-22T14:10:18.012Z</time></trkpt><trkpt lat="43.38957" lon="10.5737"><ele>394.5</ele><time>2026-03-22T14:10:19.011Z</time></trkpt><trkpt lat="43.3895267" lon="10.573875"><ele>392.0</ele><time>2026-03-22T14:10:20.01Z</time></trkpt><trkpt lat="43.3895067" lon="10.5740767"><ele>389.5</ele><time>2026-03-22T14:10:21.012Z</time></trkpt><trkpt lat="43.3894567" lon="10.5742617"><ele>387.0</ele><time>2026-03-22T14:10:22.01Z</time></trkpt><trkpt lat="43.3893633" lon="10.5744267"><ele>390.0</ele><time>2026-03-22T14:10:23.011Z</time></trkpt><trkpt lat="43.3892517" lon="10.5745767"><ele>393.0</ele><time>2026-03-22T14:10:24.011Z</time></trkpt><trkpt lat="43.38913" lon="10.5747183"><ele>396.0</ele><time>2026-03-22T14:10:25.011Z</time></trkpt><trkpt lat="43.3890117" lon="10.5748483"><ele>396.0</ele><time>2026-03-22T14:10:26.014Z</time></trkpt><trkpt lat="43.38889" lon="10.5749533"><ele>396.0</ele><time>2026-03-22T14:10:27.01Z</time></trkpt><trkpt lat="43.388755" lon="10.5750167"><ele>396.0</ele><time>2026-03-22T14:10:28.011Z</time></trkpt><trkpt lat="43.3886133" lon="10.575045"><ele>396.0</ele><time>2026-03-22T14:10:29.01Z</time></trkpt><trkpt lat="43.3884583" lon="10.5750533"><ele>393.33333333333337</ele><time>2026-03-22T14:10:30.011Z</time></trkpt><trkpt lat="43.3882983" lon="10.5750567"><ele>390.6666666666667</ele><time>2026-03-22T14:10:31.01Z</time></trkpt><trkpt lat="43.38814" lon="10.5750583"><ele>388.0</ele><time>2026-03-22T14:10:32.011Z</time></trkpt><trkpt lat="43.3879883" lon="10.5750567"><ele>388.0</ele><time>2026-03-22T14:10:33.01Z</time></trkpt><trkpt lat="43.3878417" lon="10.5750533"><ele>388.0</ele><time>2026-03-22T14:10:34.01Z</time></trkpt><trkpt lat="43.3877083" lon="10.575035"><ele>388.0</ele><time>2026-03-22T14:10:35.011Z</time></trkpt><trkpt lat="43.3875833" lon="10.5749967"><ele>388.0</ele><time>2026-03-22T14:10:36.01Z</time></trkpt><trkpt lat="43.387465" lon="10.574945"><ele>388.0</ele><time>2026-03-22T14:10:37.011Z</time></trkpt><trkpt lat="43.3873367" lon="10.57489"><ele>388.0</ele><time>2026-03-22T14:10:38.011Z</time></trkpt><trkpt lat="43.3871983" lon="10.57483"><ele>388.0</ele><time>2026-03-22T14:10:39.01Z</time></trkpt><trkpt lat="43.38705" lon="10.574785"><ele>388.0</ele><time>2026-03-22T14:10:40.011Z</time></trkpt><trkpt lat="43.3868983" lon="10.5747467"><ele>389.0</ele><time>2026-03-22T14:10:41.01Z</time></trkpt><trkpt lat="43.3867483" lon="10.57471"><ele>390.0</ele><time>2026-03-22T14:10:42.01Z</time></trkpt><trkpt lat="43.3866067" lon="10.57467"><ele>391.0</ele><time>2026-03-22T14:10:43.01Z</time></trkpt><trkpt lat="43.38647" lon="10.5746217"><ele>392.0</ele><time>2026-03-22T14:10:44.011Z</time></trkpt><trkpt lat="43.3863367" lon="10.57458"><ele>388.75</ele><time>2026-03-22T14:10:45.011Z</time></trkpt><trkpt lat="43.38621" lon="10.5745583"><ele>385.5</ele><time>2026-03-22T14:10:46.011Z</time></trkpt><trkpt lat="43.3861033" lon="10.57457"><ele>382.25</ele><time>2026-03-22T14:10:47.01Z</time></trkpt><trkpt lat="43.3859733" lon="10.5746317"><ele>379.0</ele><time>2026-03-22T14:10:48.012Z</time></trkpt><trkpt lat="43.3858483" lon="10.57473"><ele>379.0</ele><time>2026-03-22T14:10:49.011Z</time></trkpt><trkpt lat="43.3857117" lon="10.5748433"><ele>379.0</ele><time>2026-03-22T14:10:50.01Z</time></trkpt><trkpt lat="43.3855817" lon="10.5749833"><ele>379.0</ele><time>2026-03-22T14:10:51.01Z</time></trkpt><trkpt lat="43.3854617" lon="10.575135"><ele>378.0</ele><time>2026-03-22T14:10:52.01Z</time></trkpt><trkpt lat="43.3853417" lon="10.5752933"><ele>377.0</ele><time>2026-03-22T14:10:53.011Z</time></trkpt><trkpt lat="43.38523" lon="10.5754617"><ele>376.0</ele><time>2026-03-22T14:10:54.01Z</time></trkpt><trkpt lat="43.385125" lon="10.5756217"><ele>376.0</ele><time>2026-03-22T14:10:55.01Z</time></trkpt><trkpt lat="43.3850233" lon="10.5757567"><ele>376.0</ele><time>2026-03-22T14:10:56.011Z</time></trkpt><trkpt lat="43.3849183" lon="10.575865"><ele>376.0</ele><time>2026-03-22T14:10:57.01Z</time></trkpt><trkpt lat="43.384795" lon="10.57594"><ele>376.0</ele><time>2026-03-22T14:10:58.009Z</time></trkpt><trkpt lat="43.384665" lon="10.5759683"><ele>372.75</ele><time>2026-03-22T14:10:59.01Z</time></trkpt><trkpt lat="43.3845367" lon="10.575955"><ele>369.5</ele><time>2026-03-22T14:11:00.01Z</time></trkpt><trkpt lat="43.384415" lon="10.5759067"><ele>366.25</ele><time>2026-03-22T14:11:01.01Z</time></trkpt><trkpt lat="43.3843067" lon="10.5758333"><ele>363.0</ele><time>2026-03-22T14:11:02.011Z</time></trkpt><trkpt lat="43.3842033" lon="10.5757483"><ele>363.0</ele><time>2026-03-22T14:11:03.012Z</time></trkpt><trkpt lat="43.384095" lon="10.57569"><ele>363.0</ele><time>2026-03-22T14:11:04.011Z</time></trkpt><trkpt lat="43.383985" lon="10.5756567"><ele>363.0</ele><time>2026-03-22T14:11:05.01Z</time></trkpt><trkpt lat="43.3838717" lon="10.5756667"><ele>363.0</ele><time>2026-03-22T14:11:06.013Z</time></trkpt><trkpt lat="43.3837883" lon="10.5757067"><ele>363.0</ele><time>2026-03-22T14:11:07.01Z</time></trkpt><trkpt lat="43.3837217" lon="10.5757867"><ele>359.79999999999995</ele><time>2026-03-22T14:11:08.012Z</time></trkpt><trkpt lat="43.3836867" lon="10.5759217"><ele>356.6</ele><time>2026-03-22T14:11:09.01Z</time></trkpt><trkpt lat="43.3836767" lon="10.5760733"><ele>353.4</ele><time>2026-03-22T14:11:10.011Z</time></trkpt><trkpt lat="43.3836967" lon="10.57623"><ele>350.20000000000005</ele><time>2026-03-22T14:11:11.012Z</time></trkpt><trkpt lat="43.3837367" lon="10.5763817"><ele>347.0</ele><time>2026-03-22T14:11:12.012Z</time></trkpt><trkpt lat="43.3838117" lon="10.5765383"><ele>350.5</ele><time>2026-03-22T14:11:13.011Z</time></trkpt><trkpt lat="43.3838967" lon="10.5766983"><ele>354.0</ele><time>2026-03-22T14:11:14.011Z</time></trkpt><trkpt lat="43.383955" lon="10.57687"><ele>357.5</ele><time>2026-03-22T14:11:15.011Z</time></trkpt><trkpt lat="43.3839783" lon="10.5770433"><ele>361.0</ele><time>2026-03-22T14:11:16.014Z</time></trkpt><trkpt lat="43.383975" lon="10.5772233"><ele>361.0</ele><time>2026-03-22T14:11:17.011Z</time></trkpt><trkpt lat="43.3839517" lon="10.5774067"><ele>361.0</ele><time>2026-03-22T14:11:18.011Z</time></trkpt><trkpt lat="43.3839067" lon="10.577595"><ele>361.0</ele><time>2026-03-22T14:11:19.011Z</time></trkpt><trkpt lat="43.3838433" lon="10.5777767"><ele>361.0</ele><time>2026-03-22T14:11:20.011Z</time></trkpt><trkpt lat="43.383755" lon="10.5779483"><ele>356.0</ele><time>2026-03-22T14:11:21.011Z</time></trkpt><trkpt lat="43.3836483" lon="10.578105"><ele>351.0</ele><time>2026-03-22T14:11:22.011Z</time></trkpt><trkpt lat="43.3835383" lon="10.5782633"><ele>346.0</ele><time>2026-03-22T14:11:23.011Z</time></trkpt><trkpt lat="43.383435" lon="10.57843"><ele>346.0</ele><time>2026-03-22T14:11:24.011Z</time></trkpt><trkpt lat="43.38334" lon="10.578615"><ele>346.0</ele><time>2026-03-22T14:11:25.011Z</time></trkpt><trkpt lat="43.383255" lon="10.5788133"><ele>346.0</ele><time>2026-03-22T14:11:26.012Z</time></trkpt><trkpt lat="43.38317" lon="10.579"><ele>344.3333333333333</ele><time>2026-03-22T14:11:27.011Z</time></trkpt><trkpt lat="43.38307" lon="10.5791683"><ele>342.6666666666667</ele><time>2026-03-22T14:11:28.01Z</time></trkpt><trkpt lat="43.3829533" lon="10.5793233"><ele>341.0</ele><time>2026-03-22T14:11:29.011Z</time></trkpt><trkpt lat="43.3828267" lon="10.5794683"><ele>344.6666666666667</ele><time>2026-03-22T14:11:30.011Z</time></trkpt><trkpt lat="43.382685" lon="10.5796117"><ele>348.3333333333333</ele><time>2026-03-22T14:11:31.011Z</time></trkpt><trkpt lat="43.382545" lon="10.5797567"><ele>352.0</ele><time>2026-03-22T14:11:32.011Z</time></trkpt><trkpt lat="43.3824033" lon="10.5799017"><ele>352.0</ele><time>2026-03-22T14:11:33.01Z</time></trkpt><trkpt lat="43.38227" lon="10.58004"><ele>352.0</ele><time>2026-03-22T14:11:34.01Z</time></trkpt><trkpt lat="43.382135" lon="10.5801733"><ele>352.0</ele><time>2026-03-22T14:11:35.011Z</time></trkpt><trkpt lat="43.382" lon="10.5803167"><ele>350.3333333333333</ele><time>2026-03-22T14:11:36.011Z</time></trkpt><trkpt lat="43.3818833" lon="10.5804667"><ele>348.6666666666667</ele><time>2026-03-22T14:11:37.011Z</time></trkpt><trkpt lat="43.3817717" lon="10.580615"><ele>347.0</ele><time>2026-03-22T14:11:38.011Z</time></trkpt><trkpt lat="43.381675" lon="10.580755"><ele>347.0</ele><time>2026-03-22T14:11:39.011Z</time></trkpt><trkpt lat="43.381585" lon="10.5808833"><ele>347.0</ele><time>2026-03-22T14:11:40.011Z</time></trkpt><trkpt lat="43.381515" lon="10.5810117"><ele>347.0</ele><time>2026-03-22T14:11:41.011Z</time></trkpt><trkpt lat="43.381475" lon="10.58115"><ele>347.0</ele><time>2026-03-22T14:11:42.011Z</time></trkpt><trkpt lat="43.3814483" lon="10.581305"><ele>346.75</ele><time>2026-03-22T14:11:43.01Z</time></trkpt><trkpt lat="43.38147" lon="10.5814733"><ele>346.5</ele><time>2026-03-22T14:11:44.011Z</time></trkpt><trkpt lat="43.3815067" lon="10.5816533"><ele>346.25</ele><time>2026-03-22T14:11:45.011Z</time></trkpt><trkpt lat="43.3815617" lon="10.58184"><ele>346.0</ele><time>2026-03-22T14:11:46.011Z</time></trkpt><trkpt lat="43.3816183" lon="10.5820233"><ele>344.5</ele><time>2026-03-22T14:11:47.01Z</time></trkpt><trkpt lat="43.3816733" lon="10.5821917"><ele>343.0</ele><time>2026-03-22T14:11:48.01Z</time></trkpt><trkpt lat="43.3817317" lon="10.5823383"><ele>341.5</ele><time>2026-03-22T14:11:49.011Z</time></trkpt><trkpt lat="43.3818067" lon="10.5824683"><ele>340.0</ele><time>2026-03-22T14:11:50.011Z</time></trkpt><trkpt lat="43.3818983" lon="10.582585"><ele>340.0</ele><time>2026-03-22T14:11:51.01Z</time></trkpt><trkpt lat="43.3820117" lon="10.5826817"><ele>340.0</ele><time>2026-03-22T14:11:52.01Z</time></trkpt><trkpt lat="43.3821383" lon="10.5827667"><ele>340.0</ele><time>2026-03-22T14:11:53.011Z</time></trkpt><trkpt lat="43.3822683" lon="10.5828433"><ele>340.0</ele><time>2026-03-22T14:11:54.01Z</time></trkpt><trkpt lat="43.3823967" lon="10.582935"><ele>340.0</ele><time>2026-03-22T14:11:55.011Z</time></trkpt><trkpt lat="43.38252" lon="10.58305"><ele>340.0</ele><time>2026-03-22T14:11:56.012Z</time></trkpt><trkpt lat="43.3826317" lon="10.5831867"><ele>340.0</ele><time>2026-03-22T14:11:57.011Z</time></trkpt><trkpt lat="43.3827233" lon="10.5833467"><ele>340.0</ele><time>2026-03-22T14:11:58.011Z</time></trkpt><trkpt lat="43.3827933" lon="10.5835233"><ele>338.5</ele><time>2026-03-22T14:11:59.01Z</time></trkpt><trkpt lat="43.382845" lon="10.5837083"><ele>337.0</ele><time>2026-03-22T14:12:00.01Z</time></trkpt><trkpt lat="43.3828717" lon="10.5838917"><ele>335.5</ele><time>2026-03-22T14:12:01.011Z</time></trkpt><trkpt lat="43.382885" lon="10.5840833"><ele>334.0</ele><time>2026-03-22T14:12:02.01Z</time></trkpt><trkpt lat="43.3829083" lon="10.5842767"><ele>334.0</ele><time>2026-03-22T14:12:03.01Z</time></trkpt><trkpt lat="43.3829483" lon="10.5844683"><ele>334.0</ele><time>2026-03-22T14:12:04.01Z</time></trkpt><trkpt lat="43.383015" lon="10.5846667"><ele>334.0</ele><time>2026-03-22T14:12:05.011Z</time></trkpt><trkpt lat="43.38307" lon="10.584865"><ele>337.25</ele><time>2026-03-22T14:12:06.01Z</time></trkpt><trkpt lat="43.3831017" lon="10.5850617"><ele>340.5</ele><time>2026-03-22T14:12:07.011Z</time></trkpt><trkpt lat="43.3831217" lon="10.5852667"><ele>343.75</ele><time>2026-03-22T14:12:08.013Z</time></trkpt><trkpt lat="43.3831517" lon="10.5854683"><ele>347.0</ele><time>2026-03-22T14:12:09.01Z</time></trkpt><trkpt lat="43.38319" lon="10.5856667"><ele>347.0</ele><time>2026-03-22T14:12:10.01Z</time></trkpt><trkpt lat="43.383205" lon="10.58587"><ele>347.0</ele><time>2026-03-22T14:12:11.011Z</time></trkpt><trkpt lat="43.383195" lon="10.58607"><ele>347.0</ele><time>2026-03-22T14:12:12.011Z</time></trkpt><trkpt lat="43.38316" lon="10.58627"><ele>347.0</ele><time>2026-03-22T14:12:13.009Z</time></trkpt><trkpt lat="43.38313" lon="10.5864583"><ele>346.25</ele><time>2026-03-22T14:12:14.01Z</time></trkpt><trkpt lat="43.383105" lon="10.5866417"><ele>345.5</ele><time>2026-03-22T14:12:15.01Z</time></trkpt><trkpt lat="43.383115" lon="10.5868267"><ele>344.75</ele><time>2026-03-22T14:12:16.01Z</time></trkpt><trkpt lat="43.3831417" lon="10.587025"><ele>344.0</ele><time>2026-03-22T14:12:17.01Z</time></trkpt><trkpt lat="43.3831767" lon="10.5872317"><ele>343.0</ele><time>2026-03-22T14:12:18.01Z</time></trkpt><trkpt lat="43.3832167" lon="10.5874367"><ele>342.0</ele><time>2026-03-22T14:12:19.01Z</time></trkpt><trkpt lat="43.3832567" lon="10.5876383"><ele>341.0</ele><time>2026-03-22T14:12:20.01Z</time></trkpt><trkpt lat="43.383305" lon="10.5878333"><ele>338.6666666666667</ele><time>2026-03-22T14:12:21.01Z</time></trkpt><trkpt lat="43.38337" lon="10.5880317"><ele>336.3333333333333</ele><time>2026-03-22T14:12:22.011Z</time></trkpt><trkpt lat="43.3834483" lon="10.588225"><ele>334.0</ele><time>2026-03-22T14:12:23.011Z</time></trkpt><trkpt lat="43.383525" lon="10.5884217"><ele>334.0</ele><time>2026-03-22T14:12:24.011Z</time></trkpt><trkpt lat="43.38358" lon="10.5886317"><ele>334.0</ele><time>2026-03-22T14:12:25.011Z</time></trkpt><trkpt lat="43.3836167" lon="10.588845"><ele>334.0</ele><time>2026-03-22T14:12:26.011Z</time></trkpt><trkpt lat="43.3836467" lon="10.58905"><ele>333.0</ele><time>2026-03-22T14:12:27.011Z</time></trkpt><trkpt lat="43.3836833" lon="10.5892267"><ele>332.0</ele><time>2026-03-22T14:12:28.011Z</time></trkpt><trkpt lat="43.3837283" lon="10.58938"><ele>331.0</ele><time>2026-03-22T14:12:29.01Z</time></trkpt><trkpt lat="43.383795" lon="10.5895167"><ele>330.0</ele><time>2026-03-22T14:12:30.011Z</time></trkpt><trkpt lat="43.3838783" lon="10.5896533"><ele>330.0</ele><time>2026-03-22T14:12:31.01Z</time></trkpt><trkpt lat="43.3839717" lon="10.5897933"><ele>330.0</ele><time>2026-03-22T14:12:32.01Z</time></trkpt><trkpt lat="43.3840733" lon="10.5899433"><ele>330.0</ele><time>2026-03-22T14:12:33.01Z</time></trkpt><trkpt lat="43.384175" lon="10.590095"><ele>330.0</ele><time>2026-03-22T14:12:34.009Z</time></trkpt><trkpt lat="43.38427" lon="10.5902783"><ele>327.6666666666667</ele><time>2026-03-22T14:12:35.01Z</time></trkpt><trkpt lat="43.3843533" lon="10.5904733"><ele>325.33333333333337</ele><time>2026-03-22T14:12:36.01Z</time></trkpt><trkpt lat="43.38443" lon="10.5906683"><ele>323.0</ele><time>2026-03-22T14:12:37.012Z</time></trkpt><trkpt lat="43.3844967" lon="10.5908633"><ele>323.0</ele><time>2026-03-22T14:12:38.01Z</time></trkpt><trkpt lat="43.3845567" lon="10.5910483"><ele>323.0</ele><time>2026-03-22T14:12:39.011Z</time></trkpt><trkpt lat="43.384625" lon="10.5912167"><ele>323.0</ele><time>2026-03-22T14:12:40.01Z</time></trkpt><trkpt lat="43.3847217" lon="10.59137"><ele>323.0</ele><time>2026-03-22T14:12:41.01Z</time></trkpt><trkpt lat="43.384835" lon="10.5915067"><ele>323.6666666666667</ele><time>2026-03-22T14:12:42.01Z</time></trkpt><trkpt lat="43.3849667" lon="10.5916167"><ele>324.3333333333333</ele><time>2026-03-22T14:12:43.011Z</time></trkpt><trkpt lat="43.385115" lon="10.5916967"><ele>325.0</ele><time>2026-03-22T14:12:44.01Z</time></trkpt><trkpt lat="43.3852767" lon="10.59174"><ele>325.0</ele><time>2026-03-22T14:12:45.011Z</time></trkpt><trkpt lat="43.3854383" lon="10.5917583"><ele>325.0</ele><time>2026-03-22T14:12:46.012Z</time></trkpt><trkpt lat="43.3855917" lon="10.5917683"><ele>325.0</ele><time>2026-03-22T14:12:47.011Z</time></trkpt><trkpt lat="43.385735" lon="10.5917867"><ele>324.0</ele><time>2026-03-22T14:12:48.011Z</time></trkpt><trkpt lat="43.3858583" lon="10.5918233"><ele>323.0</ele><time>2026-03-22T14:12:49.01Z</time></trkpt><trkpt lat="43.3859583" lon="10.591895"><ele>322.0</ele><time>2026-03-22T14:12:50.01Z</time></trkpt><trkpt lat="43.3860367" lon="10.591995"><ele>321.0</ele><time>2026-03-22T14:12:51.01Z</time></trkpt><trkpt lat="43.386095" lon="10.5921217"><ele>321.0</ele><time>2026-03-22T14:12:52.01Z</time></trkpt><trkpt lat="43.386135" lon="10.5922717"><ele>321.0</ele><time>2026-03-22T14:12:53.011Z</time></trkpt><trkpt lat="43.3861617" lon="10.59244"><ele>321.0</ele><time>2026-03-22T14:12:54.013Z</time></trkpt><trkpt lat="43.3861817" lon="10.5926167"><ele>321.0</ele><time>2026-03-22T14:12:55.01Z</time></trkpt><trkpt lat="43.3861917" lon="10.5928033"><ele>319.5</ele><time>2026-03-22T14:12:56.009Z</time></trkpt><trkpt lat="43.3861983" lon="10.5929817"><ele>318.0</ele><time>2026-03-22T14:12:57.011Z</time></trkpt><trkpt lat="43.3862083" lon="10.5931467"><ele>316.5</ele><time>2026-03-22T14:12:58.011Z</time></trkpt><trkpt lat="43.38622" lon="10.5933033"><ele>315.0</ele><time>2026-03-22T14:12:59.011Z</time></trkpt><trkpt lat="43.3862433" lon="10.5934417"><ele>315.0</ele><time>2026-03-22T14:13:00.009Z</time></trkpt><trkpt lat="43.3862933" lon="10.593565"><ele>315.0</ele><time>2026-03-22T14:13:01.011Z</time></trkpt><trkpt lat="43.3863683" lon="10.59367"><ele>315.0</ele><time>2026-03-22T14:13:02.01Z</time></trkpt><trkpt lat="43.3864733" lon="10.593765"><ele>315.0</ele><time>2026-03-22T14:13:03.01Z</time></trkpt><trkpt lat="43.386595" lon="10.5938533"><ele>316.0</ele><time>2026-03-22T14:13:04.01Z</time></trkpt><trkpt lat="43.3867217" lon="10.5939533"><ele>317.0</ele><time>2026-03-22T14:13:05.011Z</time></trkpt><trkpt lat="43.3868533" lon="10.5940767"><ele>318.0</ele><time>2026-03-22T14:13:06.01Z</time></trkpt><trkpt lat="43.3869883" lon="10.594185"><ele>318.0</ele><time>2026-03-22T14:13:07.011Z</time></trkpt><trkpt lat="43.3871283" lon="10.594285"><ele>318.0</ele><time>2026-03-22T14:13:08.011Z</time></trkpt><trkpt lat="43.3872633" lon="10.5943833"><ele>318.0</ele><time>2026-03-22T14:13:09.011Z</time></trkpt><trkpt lat="43.3873833" lon="10.59449"><ele>318.4</ele><time>2026-03-22T14:13:10.011Z</time></trkpt><trkpt lat="43.3874883" lon="10.5946017"><ele>318.8</ele><time>2026-03-22T14:13:11.011Z</time></trkpt><trkpt lat="43.3875817" lon="10.5947033"><ele>319.2</ele><time>2026-03-22T14:13:12.01Z</time></trkpt><trkpt lat="43.3876583" lon="10.5947917"><ele>319.6</ele><time>2026-03-22T14:13:13.011Z</time></trkpt><trkpt lat="43.3877133" lon="10.5948767"><ele>320.0</ele><time>2026-03-22T14:13:14.011Z</time></trkpt><trkpt lat="43.3877483" lon="10.5949567"><ele>320.0</ele><time>2026-03-22T14:13:15.009Z</time></trkpt><trkpt lat="43.38776" lon="10.5950467"><ele>320.0</ele><time>2026-03-22T14:13:16.011Z</time></trkpt><trkpt lat="43.3877433" lon="10.5951383"><ele>320.0</ele><time>2026-03-22T14:13:17.01Z</time></trkpt><trkpt lat="43.3877067" lon="10.595235"><ele>320.0</ele><time>2026-03-22T14:13:18.01Z</time></trkpt><trkpt lat="43.3876567" lon="10.595325"><ele>320.0</ele><time>2026-03-22T14:13:19.011Z</time></trkpt><trkpt lat="43.3875833" lon="10.595405"><ele>320.0</ele><time>2026-03-22T14:13:20.011Z</time></trkpt><trkpt lat="43.3874867" lon="10.5954783"><ele>322.75</ele><time>2026-03-22T14:13:21.01Z</time></trkpt><trkpt lat="43.3873517" lon="10.5955483"><ele>325.5</ele><time>2026-03-22T14:13:22.01Z</time></trkpt><trkpt lat="43.38721" lon="10.59563"><ele>328.25</ele><time>2026-03-22T14:13:23.011Z</time></trkpt><trkpt lat="43.3871117" lon="10.59575"><ele>331.0</ele><time>2026-03-22T14:13:24.011Z</time></trkpt><trkpt lat="43.3870117" lon="10.5958833"><ele>324.0</ele><time>2026-03-22T14:13:25.012Z</time></trkpt><trkpt lat="43.386945" lon="10.59607"><ele>317.0</ele><time>2026-03-22T14:13:26.01Z</time></trkpt><trkpt lat="43.38689" lon="10.59628"><ele>310.0</ele><time>2026-03-22T14:13:27.009Z</time></trkpt><trkpt lat="43.3868483" lon="10.5964967"><ele>310.0</ele><time>2026-03-22T14:13:28.01Z</time></trkpt><trkpt lat="43.3868067" lon="10.5967017"><ele>310.0</ele><time>2026-03-22T14:13:29.011Z</time></trkpt><trkpt lat="43.386775" lon="10.596915"><ele>310.0</ele><time>2026-03-22T14:13:30.011Z</time></trkpt><trkpt lat="43.3867433" lon="10.5971283"><ele>311.3333333333333</ele><time>2026-03-22T14:13:31.011Z</time></trkpt><trkpt lat="43.3867083" lon="10.5973433"><ele>312.6666666666667</ele><time>2026-03-22T14:13:32.011Z</time></trkpt><trkpt lat="43.3866717" lon="10.5975567"><ele>314.0</ele><time>2026-03-22T14:13:33.011Z</time></trkpt><trkpt lat="43.3866417" lon="10.597765"><ele>314.25</ele><time>2026-03-22T14:13:34.013Z</time></trkpt><trkpt lat="43.3866183" lon="10.597965"><ele>314.5</ele><time>2026-03-22T14:13:35.008Z</time></trkpt><trkpt lat="43.38661" lon="10.59817"><ele>314.75</ele><time>2026-03-22T14:13:36.011Z</time></trkpt><trkpt lat="43.3866317" lon="10.5983667"><ele>315.0</ele><time>2026-03-22T14:13:37.01Z</time></trkpt><trkpt lat="43.3866667" lon="10.5985683"><ele>314.0</ele><time>2026-03-22T14:13:38.011Z</time></trkpt><trkpt lat="43.3867133" lon="10.598765"><ele>313.0</ele><time>2026-03-22T14:13:39.01Z</time></trkpt><trkpt lat="43.3867633" lon="10.59895"><ele>312.0</ele><time>2026-03-22T14:13:40.01Z</time></trkpt><trkpt lat="43.3868067" lon="10.5991233"><ele>311.0</ele><time>2026-03-22T14:13:41.01Z</time></trkpt><trkpt lat="43.386845" lon="10.5992867"><ele>311.0</ele><time>2026-03-22T14:13:42.01Z</time></trkpt><trkpt lat="43.3868733" lon="10.59944"><ele>311.0</ele><time>2026-03-22T14:13:43.011Z</time></trkpt><trkpt lat="43.3868883" lon="10.599575"><ele>311.0</ele><time>2026-03-22T14:13:44.011Z</time></trkpt><trkpt lat="43.3868833" lon="10.5997017"><ele>311.0</ele><time>2026-03-22T14:13:45.011Z</time></trkpt><trkpt lat="43.386865" lon="10.5998167"><ele>311.0</ele><time>2026-03-22T14:13:46.01Z</time></trkpt><trkpt lat="43.3868267" lon="10.5999217"><ele>311.0</ele><time>2026-03-22T14:13:47.011Z</time></trkpt><trkpt lat="43.3867633" lon="10.6000267"><ele>311.0</ele><time>2026-03-22T14:13:48.01Z</time></trkpt><trkpt lat="43.38668" lon="10.6001333"><ele>311.0</ele><time>2026-03-22T14:13:49.01Z</time></trkpt><trkpt lat="43.3865667" lon="10.6002417"><ele>311.0</ele><time>2026-03-22T14:13:50.011Z</time></trkpt><trkpt lat="43.38644" lon="10.6003583"><ele>311.6666666666667</ele><time>2026-03-22T14:13:51.011Z</time></trkpt><trkpt lat="43.3862717" lon="10.6004867"><ele>312.3333333333333</ele><time>2026-03-22T14:13:52.01Z</time></trkpt><trkpt lat="43.386105" lon="10.6006117"><ele>313.0</ele><time>2026-03-22T14:13:53.01Z</time></trkpt><trkpt lat="43.3859433" lon="10.6007367"><ele>313.0</ele><time>2026-03-22T14:13:54.011Z</time></trkpt><trkpt lat="43.3857833" lon="10.6008617"><ele>313.0</ele><time>2026-03-22T14:13:55.011Z</time></trkpt><trkpt lat="43.3856333" lon="10.600995"><ele>313.0</ele><time>2026-03-22T14:13:56.012Z</time></trkpt><trkpt lat="43.3854933" lon="10.60113"><ele>311.3333333333333</ele><time>2026-03-22T14:13:57.011Z</time></trkpt><trkpt lat="43.3853567" lon="10.6012883"><ele>309.6666666666667</ele><time>2026-03-22T14:13:58.011Z</time></trkpt><trkpt lat="43.3852317" lon="10.6014633"><ele>308.0</ele><time>2026-03-22T14:13:59.011Z</time></trkpt><trkpt lat="43.38512" lon="10.6016433"><ele>308.0</ele><time>2026-03-22T14:14:00.011Z</time></trkpt><trkpt lat="43.3850117" lon="10.6018233"><ele>308.0</ele><time>2026-03-22T14:14:01.011Z</time></trkpt><trkpt lat="43.3848933" lon="10.6020017"><ele>308.0</ele><time>2026-03-22T14:14:02.01Z</time></trkpt><trkpt lat="43.3847617" lon="10.602165"><ele>306.0</ele><time>2026-03-22T14:14:03.011Z</time></trkpt><trkpt lat="43.3846283" lon="10.60232"><ele>304.0</ele><time>2026-03-22T14:14:04.011Z</time></trkpt><trkpt lat="43.384495" lon="10.6024717"><ele>302.0</ele><time>2026-03-22T14:14:05.01Z</time></trkpt><trkpt lat="43.3843467" lon="10.6026217"><ele>302.0</ele><time>2026-03-22T14:14:06.011Z</time></trkpt><trkpt lat="43.3841967" lon="10.6027733"><ele>302.0</ele><time>2026-03-22T14:14:07.011Z</time></trkpt><trkpt lat="43.3840567" lon="10.6029367"><ele>302.0</ele><time>2026-03-22T14:14:08.011Z</time></trkpt><trkpt lat="43.3839233" lon="10.6031017"><ele>301.0</ele><time>2026-03-22T14:14:09.011Z</time></trkpt><trkpt lat="43.3838" lon="10.6032667"><ele>300.0</ele><time>2026-03-22T14:14:10.011Z</time></trkpt><trkpt lat="43.383685" lon="10.6034283"><ele>299.0</ele><time>2026-03-22T14:14:11.01Z</time></trkpt><trkpt lat="43.383575" lon="10.603585"><ele>302.0</ele><time>2026-03-22T14:14:12.01Z</time></trkpt><trkpt lat="43.3834767" lon="10.6037283"><ele>305.0</ele><time>2026-03-22T14:14:13.01Z</time></trkpt><trkpt lat="43.3833767" lon="10.603855"><ele>308.0</ele><time>2026-03-22T14:14:14.011Z</time></trkpt><trkpt lat="43.38327" lon="10.6039517"><ele>311.0</ele><time>2026-03-22T14:14:15.009Z</time></trkpt><trkpt lat="43.383145" lon="10.60401"><ele>311.0</ele><time>2026-03-22T14:14:16.01Z</time></trkpt><trkpt lat="43.3830167" lon="10.6040467"><ele>311.0</ele><time>2026-03-22T14:14:17.01Z</time></trkpt><trkpt lat="43.38287" lon="10.6040467"><ele>311.0</ele><time>2026-03-22T14:14:18.01Z</time></trkpt><trkpt lat="43.382705" lon="10.60404"><ele>311.0</ele><time>2026-03-22T14:14:19.01Z</time></trkpt><trkpt lat="43.3825433" lon="10.6040383"><ele>308.33333333333337</ele><time>2026-03-22T14:14:20.011Z</time></trkpt><trkpt lat="43.3823833" lon="10.6040417"><ele>305.6666666666667</ele><time>2026-03-22T14:14:21.009Z</time></trkpt><trkpt lat="43.38223" lon="10.604045"><ele>303.0</ele><time>2026-03-22T14:14:22.01Z</time></trkpt><trkpt lat="43.3820833" lon="10.60404"><ele>302.6666666666667</ele><time>2026-03-22T14:14:23.01Z</time></trkpt><trkpt lat="43.3819367" lon="10.604"><ele>302.33333333333337</ele><time>2026-03-22T14:14:24.009Z</time></trkpt><trkpt lat="43.3817917" lon="10.6039167"><ele>302.0</ele><time>2026-03-22T14:14:25.01Z</time></trkpt><trkpt lat="43.3816567" lon="10.603805"><ele>302.0</ele><time>2026-03-22T14:14:26.011Z</time></trkpt><trkpt lat="43.3815283" lon="10.6036867"><ele>302.0</ele><time>2026-03-22T14:14:27.01Z</time></trkpt><trkpt lat="43.3814" lon="10.6035633"><ele>302.0</ele><time>2026-03-22T14:14:28.01Z</time></trkpt><trkpt lat="43.3812667" lon="10.603455"><ele>298.75</ele><time>2026-03-22T14:14:29.01Z</time></trkpt><trkpt lat="43.3811233" lon="10.60338"><ele>295.5</ele><time>2026-03-22T14:14:30.011Z</time></trkpt><trkpt lat="43.3809817" lon="10.6033067"><ele>292.25</ele><time>2026-03-22T14:14:31.009Z</time></trkpt><trkpt lat="43.3808633" lon="10.6031983"><ele>289.0</ele><time>2026-03-22T14:14:32.01Z</time></trkpt><trkpt lat="43.380775" lon="10.60307"><ele>289.0</ele><time>2026-03-22T14:14:33.01Z</time></trkpt><trkpt lat="43.3807033" lon="10.602905"><ele>289.0</ele><time>2026-03-22T14:14:34.01Z</time></trkpt><trkpt lat="43.3806367" lon="10.60272"><ele>289.0</ele><time>2026-03-22T14:14:35.009Z</time></trkpt><trkpt lat="43.380555" lon="10.6025233"><ele>288.3333333333333</ele><time>2026-03-22T14:14:36.009Z</time></trkpt><trkpt lat="43.38046" lon="10.6023183"><ele>287.6666666666667</ele><time>2026-03-22T14:14:37.01Z</time></trkpt><trkpt lat="43.3803517" lon="10.6021017"><ele>287.0</ele><time>2026-03-22T14:14:38.01Z</time></trkpt><trkpt lat="43.380245" lon="10.6018867"><ele>287.0</ele><time>2026-03-22T14:14:39.009Z</time></trkpt><trkpt lat="43.3801517" lon="10.6016733"><ele>287.0</ele><time>2026-03-22T14:14:40.01Z</time></trkpt><trkpt lat="43.3800717" lon="10.60147"><ele>287.0</ele><time>2026-03-22T14:14:41.01Z</time></trkpt><trkpt lat="43.3800017" lon="10.601275"><ele>285.0</ele><time>2026-03-22T14:14:42.01Z</time></trkpt><trkpt lat="43.379935" lon="10.6010867"><ele>283.0</ele><time>2026-03-22T14:14:43.01Z</time></trkpt><trkpt lat="43.37986" lon="10.600925"><ele>281.0</ele><time>2026-03-22T14:14:44.01Z</time></trkpt><trkpt lat="43.37977" lon="10.6007883"><ele>279.0</ele><time>2026-03-22T14:14:45.009Z</time></trkpt><trkpt lat="43.379665" lon="10.6006933"><ele>279.0</ele><time>2026-03-22T14:14:46.009Z</time></trkpt><trkpt lat="43.379535" lon="10.6006367"><ele>279.0</ele><time>2026-03-22T14:14:47.01Z</time></trkpt><trkpt lat="43.3793933" lon="10.6006167"><ele>279.0</ele><time>2026-03-22T14:14:48.01Z</time></trkpt><trkpt lat="43.3792383" lon="10.6006117"><ele>279.0</ele><time>2026-03-22T14:14:49.014Z</time></trkpt><trkpt lat="43.37907" lon="10.6006"><ele>279.0</ele><time>2026-03-22T14:14:50.009Z</time></trkpt><trkpt lat="43.3789033" lon="10.6005583"><ele>279.0</ele><time>2026-03-22T14:14:51.009Z</time></trkpt><trkpt lat="43.3787483" lon="10.600495"><ele>279.0</ele><time>2026-03-22T14:14:52.01Z</time></trkpt><trkpt lat="43.3786017" lon="10.6004"><ele>275.6666666666667</ele><time>2026-03-22T14:14:53.011Z</time></trkpt><trkpt lat="43.378465" lon="10.6002883"><ele>272.33333333333337</ele><time>2026-03-22T14:14:54.012Z</time></trkpt><trkpt lat="43.37834" lon="10.6001667"><ele>269.0</ele><time>2026-03-22T14:14:55.01Z</time></trkpt><trkpt lat="43.3782217" lon="10.6000517"><ele>269.0</ele><time>2026-03-22T14:14:56.011Z</time></trkpt><trkpt lat="43.378095" lon="10.5999617"><ele>269.0</ele><time>2026-03-22T14:14:57.011Z</time></trkpt><trkpt lat="43.3779567" lon="10.5999083"><ele>269.0</ele><time>2026-03-22T14:14:58.01Z</time></trkpt><trkpt lat="43.3778033" lon="10.599875"><ele>269.0</ele><time>2026-03-22T14:14:59.01Z</time></trkpt><trkpt lat="43.37764" lon="10.5998633"><ele>270.0</ele><time>2026-03-22T14:15:00.01Z</time></trkpt><trkpt lat="43.3774783" lon="10.5998533"><ele>271.0</ele><time>2026-03-22T14:15:01.01Z</time></trkpt><trkpt lat="43.37731" lon="10.5998417"><ele>272.0</ele><time>2026-03-22T14:15:02.011Z</time></trkpt><trkpt lat="43.37714" lon="10.5998317"><ele>272.0</ele><time>2026-03-22T14:15:03.009Z</time></trkpt><trkpt lat="43.376965" lon="10.5998283"><ele>272.0</ele><time>2026-03-22T14:15:04.01Z</time></trkpt><trkpt lat="43.37679" lon="10.5998183"><ele>272.0</ele><time>2026-03-22T14:15:05.01Z</time></trkpt><trkpt lat="43.3766133" lon="10.5997967"><ele>272.0</ele><time>2026-03-22T14:15:06.01Z</time></trkpt><trkpt lat="43.3764433" lon="10.5997533"><ele>272.0</ele><time>2026-03-22T14:15:07.009Z</time></trkpt><trkpt lat="43.376275" lon="10.59969"><ele>272.0</ele><time>2026-03-22T14:15:08.011Z</time></trkpt><trkpt lat="43.3761083" lon="10.5996033"><ele>270.0</ele><time>2026-03-22T14:15:09.01Z</time></trkpt><trkpt lat="43.375945" lon="10.59951"><ele>268.0</ele><time>2026-03-22T14:15:10.009Z</time></trkpt><trkpt lat="43.37578" lon="10.59941"><ele>266.0</ele><time>2026-03-22T14:15:11.01Z</time></trkpt><trkpt lat="43.3756217" lon="10.5993017"><ele>268.33333333333337</ele><time>2026-03-22T14:15:12.01Z</time></trkpt><trkpt lat="43.3754683" lon="10.5991983"><ele>270.6666666666667</ele><time>2026-03-22T14:15:13.009Z</time></trkpt><trkpt lat="43.375325" lon="10.599105"><ele>273.0</ele><time>2026-03-22T14:15:14.011Z</time></trkpt><trkpt lat="43.3751817" lon="10.5990367"><ele>273.0</ele><time>2026-03-22T14:15:15.01Z</time></trkpt><trkpt lat="43.3750333" lon="10.5989917"><ele>273.0</ele><time>2026-03-22T14:15:16.008Z</time></trkpt><trkpt lat="43.374885" lon="10.598965"><ele>273.0</ele><time>2026-03-22T14:15:17.011Z</time></trkpt><trkpt lat="43.374745" lon="10.5989483"><ele>273.0</ele><time>2026-03-22T14:15:18.011Z</time></trkpt><trkpt lat="43.3746167" lon="10.598905"><ele>273.5</ele><time>2026-03-22T14:15:19.011Z</time></trkpt><trkpt lat="43.374505" lon="10.5988283"><ele>274.0</ele><time>2026-03-22T14:15:20.011Z</time></trkpt><trkpt lat="43.3743967" lon="10.5987433"><ele>274.5</ele><time>2026-03-22T14:15:21.011Z</time></trkpt><trkpt lat="43.3742967" lon="10.5986617"><ele>275.0</ele><time>2026-03-22T14:15:22.011Z</time></trkpt><trkpt lat="43.3742017" lon="10.5985883"><ele>273.0</ele><time>2026-03-22T14:15:23.011Z</time></trkpt><trkpt lat="43.3741067" lon="10.598545"><ele>271.0</ele><time>2026-03-22T14:15:24.011Z</time></trkpt><trkpt lat="43.3740133" lon="10.5985333"><ele>269.0</ele><time>2026-03-22T14:15:25.012Z</time></trkpt><trkpt lat="43.373915" lon="10.5985667"><ele>267.0</ele><time>2026-03-22T14:15:26.011Z</time></trkpt><trkpt lat="43.3738233" lon="10.5986233"><ele>265.0</ele><time>2026-03-22T14:15:27.014Z</time></trkpt><trkpt lat="43.3737433" lon="10.5987367"><ele>265.0</ele><time>2026-03-22T14:15:28.013Z</time></trkpt><trkpt lat="43.3736733" lon="10.598875"><ele>265.0</ele><time>2026-03-22T14:15:29.014Z</time></trkpt><trkpt lat="43.373595" lon="10.59902"><ele>265.0</ele><time>2026-03-22T14:15:30.01Z</time></trkpt><trkpt lat="43.373495" lon="10.5991367"><ele>265.0</ele><time>2026-03-22T14:15:31.012Z</time></trkpt><trkpt lat="43.3733783" lon="10.599215"><ele>265.0</ele><time>2026-03-22T14:15:32.01Z</time></trkpt><trkpt lat="43.3732517" lon="10.599255"><ele>265.0</ele><time>2026-03-22T14:15:33.01Z</time></trkpt><trkpt lat="43.37312" lon="10.599245"><ele>265.0</ele><time>2026-03-22T14:15:34.01Z</time></trkpt><trkpt lat="43.372985" lon="10.5991983"><ele>265.0</ele><time>2026-03-22T14:15:35.008Z</time></trkpt><trkpt lat="43.3728483" lon="10.59913"><ele>264.5</ele><time>2026-03-22T14:15:36.01Z</time></trkpt><trkpt lat="43.3727167" lon="10.5990583"><ele>264.0</ele><time>2026-03-22T14:15:37.01Z</time></trkpt><trkpt lat="43.372595" lon="10.59898"><ele>263.5</ele><time>2026-03-22T14:15:38.01Z</time></trkpt><trkpt lat="43.3724783" lon="10.5988883"><ele>263.0</ele><time>2026-03-22T14:15:39.01Z</time></trkpt><trkpt lat="43.372375" lon="10.5987717"><ele>261.5</ele><time>2026-03-22T14:15:40.01Z</time></trkpt><trkpt lat="43.3722917" lon="10.59864"><ele>260.0</ele><time>2026-03-22T14:15:41.01Z</time></trkpt><trkpt lat="43.37224" lon="10.5984717"><ele>258.5</ele><time>2026-03-22T14:15:42.01Z</time></trkpt><trkpt lat="43.372215" lon="10.5982917"><ele>257.0</ele><time>2026-03-22T14:15:43.008Z</time></trkpt><trkpt lat="43.3721983" lon="10.598115"><ele>256.5</ele><time>2026-03-22T14:15:44.01Z</time></trkpt><trkpt lat="43.3721783" lon="10.597935"><ele>256.0</ele><time>2026-03-22T14:15:45.01Z</time></trkpt><trkpt lat="43.3721483" lon="10.5977617"><ele>255.5</ele><time>2026-03-22T14:15:46.01Z</time></trkpt><trkpt lat="43.3721033" lon="10.597605"><ele>255.0</ele><time>2026-03-22T14:15:47.009Z</time></trkpt><trkpt lat="43.3720483" lon="10.5974767"><ele>255.0</ele><time>2026-03-22T14:15:48.01Z</time></trkpt><trkpt lat="43.3719833" lon="10.5973783"><ele>255.0</ele><time>2026-03-22T14:15:49.01Z</time></trkpt><trkpt lat="43.371915" lon="10.5973167"><ele>255.0</ele><time>2026-03-22T14:15:50.01Z</time></trkpt><trkpt lat="43.3718467" lon="10.5973017"><ele>255.0</ele><time>2026-03-22T14:15:51.009Z</time></trkpt><trkpt lat="43.3717783" lon="10.5973083"><ele>255.0</ele><time>2026-03-22T14:15:52.013Z</time></trkpt><trkpt lat="43.37171" lon="10.5973583"><ele>255.0</ele><time>2026-03-22T14:15:53.01Z</time></trkpt><trkpt lat="43.3716233" lon="10.5974733"><ele>255.0</ele><time>2026-03-22T14:15:54.009Z</time></trkpt><trkpt lat="43.3715417" lon="10.5975967"><ele>255.0</ele><time>2026-03-22T14:15:55.009Z</time></trkpt><trkpt lat="43.3714967" lon="10.597755"><ele>255.0</ele><time>2026-03-22T14:15:56.009Z</time></trkpt><trkpt lat="43.371505" lon="10.5978783"><ele>255.0</ele><time>2026-03-22T14:15:57.009Z</time></trkpt><trkpt lat="43.3715167" lon="10.5980117"><ele>255.0</ele><time>2026-03-22T14:15:58.01Z</time></trkpt><trkpt lat="43.371515" lon="10.598135"><ele>255.0</ele><time>2026-03-22T14:15:59.009Z</time></trkpt><trkpt lat="43.3716417" lon="10.59837"><ele>255.0</ele><time>2026-03-22T14:16:00.01Z</time></trkpt><trkpt lat="43.3716733" lon="10.5986067"><ele>255.0</ele><time>2026-03-22T14:16:01.01Z</time></trkpt><trkpt lat="43.3716733" lon="10.5987983"><ele>254.75</ele><time>2026-03-22T14:16:02.01Z</time></trkpt><trkpt lat="43.3716567" lon="10.5989667"><ele>254.5</ele><time>2026-03-22T14:16:03.009Z</time></trkpt><trkpt lat="43.3716083" lon="10.5991083"><ele>254.25</ele><time>2026-03-22T14:16:04.01Z</time></trkpt><trkpt lat="43.37153" lon="10.5992367"><ele>254.0</ele><time>2026-03-22T14:16:05.01Z</time></trkpt><trkpt lat="43.3714517" lon="10.5993467"><ele>254.0</ele><time>2026-03-22T14:16:06.01Z</time></trkpt><trkpt lat="43.37137" lon="10.59946"><ele>254.0</ele><time>2026-03-22T14:16:07.01Z</time></trkpt><trkpt lat="43.3713033" lon="10.5995833"><ele>254.0</ele><time>2026-03-22T14:16:08.009Z</time></trkpt><trkpt lat="43.371245" lon="10.5997233"><ele>254.0</ele><time>2026-03-22T14:16:09.01Z</time></trkpt><trkpt lat="43.3712117" lon="10.5998817"><ele>249.75</ele><time>2026-03-22T14:16:10.01Z</time></trkpt><trkpt lat="43.3712067" lon="10.6000583"><ele>245.5</ele><time>2026-03-22T14:16:11.012Z</time></trkpt><trkpt lat="43.371195" lon="10.6002433"><ele>241.25</ele><time>2026-03-22T14:16:12.01Z</time></trkpt><trkpt lat="43.3711883" lon="10.6004233"><ele>237.0</ele><time>2026-03-22T14:16:13.01Z</time></trkpt><trkpt lat="43.371185" lon="10.600605"><ele>237.0</ele><time>2026-03-22T14:16:14.01Z</time></trkpt><trkpt lat="43.3711783" lon="10.6007833"><ele>237.0</ele><time>2026-03-22T14:16:15.01Z</time></trkpt><trkpt lat="43.371165" lon="10.6009533"><ele>237.0</ele><time>2026-03-22T14:16:16.009Z</time></trkpt><trkpt lat="43.3711433" lon="10.6011067"><ele>237.0</ele><time>2026-03-22T14:16:17.01Z</time></trkpt><trkpt lat="43.3711217" lon="10.6012467"><ele>237.8</ele><time>2026-03-22T14:16:18.01Z</time></trkpt><trkpt lat="43.3710833" lon="10.60137"><ele>238.6</ele><time>2026-03-22T14:16:19.01Z</time></trkpt><trkpt lat="43.3710217" lon="10.60148"><ele>239.40000000000003</ele><time>2026-03-22T14:16:20.01Z</time></trkpt><trkpt lat="43.3709383" lon="10.6015817"><ele>240.20000000000002</ele><time>2026-03-22T14:16:21.01Z</time></trkpt><trkpt lat="43.3708367" lon="10.6016767"><ele>241.0</ele><time>2026-03-22T14:16:22.01Z</time></trkpt><trkpt lat="43.3707267" lon="10.601765"><ele>241.0</ele><time>2026-03-22T14:16:23.01Z</time></trkpt><trkpt lat="43.370605" lon="10.601835"><ele>241.0</ele><time>2026-03-22T14:16:24.01Z</time></trkpt><trkpt lat="43.3704833" lon="10.6018917"><ele>241.0</ele><time>2026-03-22T14:16:25.01Z</time></trkpt><trkpt lat="43.3703667" lon="10.6019417"><ele>241.0</ele><time>2026-03-22T14:16:26.01Z</time></trkpt><trkpt lat="43.3702583" lon="10.6019867"><ele>241.60000000000002</ele><time>2026-03-22T14:16:27.01Z</time></trkpt><trkpt lat="43.3701567" lon="10.60203"><ele>242.20000000000002</ele><time>2026-03-22T14:16:28.009Z</time></trkpt><trkpt lat="43.37006" lon="10.60208"><ele>242.79999999999998</ele><time>2026-03-22T14:16:29.009Z</time></trkpt><trkpt lat="43.3699633" lon="10.60214"><ele>243.39999999999998</ele><time>2026-03-22T14:16:30.01Z</time></trkpt><trkpt lat="43.3698633" lon="10.6022"><ele>244.0</ele><time>2026-03-22T14:16:31.009Z</time></trkpt><trkpt lat="43.369755" lon="10.6022633"><ele>241.25</ele><time>2026-03-22T14:16:32.01Z</time></trkpt><trkpt lat="43.3696467" lon="10.60233"><ele>238.5</ele><time>2026-03-22T14:16:33.01Z</time></trkpt><trkpt lat="43.3695567" lon="10.6024217"><ele>235.75</ele><time>2026-03-22T14:16:34.009Z</time></trkpt><trkpt lat="43.3694767" lon="10.602525"><ele>233.0</ele><time>2026-03-22T14:16:35.01Z</time></trkpt><trkpt lat="43.3693933" lon="10.602625"><ele>233.0</ele><time>2026-03-22T14:16:36.01Z</time></trkpt><trkpt lat="43.3693167" lon="10.6027233"><ele>233.0</ele><time>2026-03-22T14:16:37.013Z</time></trkpt><trkpt lat="43.3692383" lon="10.6028033"><ele>233.0</ele><time>2026-03-22T14:16:38.013Z</time></trkpt><trkpt lat="43.3691617" lon="10.6028683"><ele>233.0</ele><time>2026-03-22T14:16:39.009Z</time></trkpt><trkpt lat="43.3690717" lon="10.6029183"><ele>233.0</ele><time>2026-03-22T14:16:40.01Z</time></trkpt><trkpt lat="43.3689783" lon="10.6029483"><ele>232.60000000000002</ele><time>2026-03-22T14:16:41.009Z</time></trkpt><trkpt lat="43.3688767" lon="10.6029467"><ele>232.20000000000002</ele><time>2026-03-22T14:16:42.01Z</time></trkpt><trkpt lat="43.368775" lon="10.6029117"><ele>231.8</ele><time>2026-03-22T14:16:43.009Z</time></trkpt><trkpt lat="43.368675" lon="10.6028717"><ele>231.4</ele><time>2026-03-22T14:16:44.01Z</time></trkpt><trkpt lat="43.36857" lon="10.6028133"><ele>231.0</ele><time>2026-03-22T14:16:45.01Z</time></trkpt><trkpt lat="43.3684633" lon="10.602755"><ele>231.0</ele><time>2026-03-22T14:16:46.01Z</time></trkpt><trkpt lat="43.3683667" lon="10.6026883"><ele>231.00000000000003</ele><time>2026-03-22T14:16:47.009Z</time></trkpt><trkpt lat="43.36827" lon="10.6026217"><ele>231.00000000000003</ele><time>2026-03-22T14:16:48.01Z</time></trkpt><trkpt lat="43.3681733" lon="10.6025517"><ele>231.0</ele><time>2026-03-22T14:16:49.01Z</time></trkpt><trkpt lat="43.36808" lon="10.60248"><ele>231.0</ele><time>2026-03-22T14:16:50.01Z</time></trkpt><trkpt lat="43.3679917" lon="10.6024067"><ele>231.60000000000002</ele><time>2026-03-22T14:16:51.01Z</time></trkpt><trkpt lat="43.3678983" lon="10.60234"><ele>232.20000000000002</ele><time>2026-03-22T14:16:52.011Z</time></trkpt><trkpt lat="43.36781" lon="10.6022767"><ele>232.79999999999998</ele><time>2026-03-22T14:16:53.01Z</time></trkpt><trkpt lat="43.3677117" lon="10.6022133"><ele>233.39999999999998</ele><time>2026-03-22T14:16:54.01Z</time></trkpt><trkpt lat="43.36761" lon="10.6021533"><ele>234.0</ele><time>2026-03-22T14:16:55.01Z</time></trkpt><trkpt lat="43.3675083" lon="10.602095"><ele>234.0</ele><time>2026-03-22T14:16:56.01Z</time></trkpt><trkpt lat="43.3674083" lon="10.6020317"><ele>233.99999999999997</ele><time>2026-03-22T14:16:57.011Z</time></trkpt><trkpt lat="43.3673117" lon="10.6019683"><ele>233.99999999999997</ele><time>2026-03-22T14:16:58.01Z</time></trkpt><trkpt lat="43.3672133" lon="10.6019083"><ele>234.0</ele><time>2026-03-22T14:16:59.01Z</time></trkpt><trkpt lat="43.3671233" lon="10.60184"><ele>234.0</ele><time>2026-03-22T14:17:00.011Z</time></trkpt><trkpt lat="43.3670317" lon="10.6017667"><ele>232.6</ele><time>2026-03-22T14:17:01.01Z</time></trkpt><trkpt lat="43.3669417" lon="10.6016867"><ele>231.2</ele><time>2026-03-22T14:17:02.01Z</time></trkpt><trkpt lat="43.3668533" lon="10.6016033"><ele>229.79999999999998</ele><time>2026-03-22T14:17:03.01Z</time></trkpt><trkpt lat="43.3667633" lon="10.6015233"><ele>228.39999999999998</ele><time>2026-03-22T14:17:04.01Z</time></trkpt><trkpt lat="43.3666717" lon="10.6014483"><ele>227.0</ele><time>2026-03-22T14:17:05.01Z</time></trkpt><trkpt lat="43.3665817" lon="10.60137"><ele>227.0</ele><time>2026-03-22T14:17:06.01Z</time></trkpt><trkpt lat="43.366485" lon="10.6013033"><ele>227.0</ele><time>2026-03-22T14:17:07.01Z</time></trkpt><trkpt lat="43.3663867" lon="10.6012417"><ele>227.0</ele><time>2026-03-22T14:17:08.011Z</time></trkpt><trkpt lat="43.3662883" lon="10.60118"><ele>227.0</ele><time>2026-03-22T14:17:09.01Z</time></trkpt><trkpt lat="43.3661983" lon="10.6011133"><ele>227.0</ele><time>2026-03-22T14:17:10.01Z</time></trkpt><trkpt lat="43.3661083" lon="10.6010467"><ele>225.39999999999998</ele><time>2026-03-22T14:17:11.01Z</time></trkpt><trkpt lat="43.3660217" lon="10.6009733"><ele>223.79999999999998</ele><time>2026-03-22T14:17:12.01Z</time></trkpt><trkpt lat="43.3659383" lon="10.6009"><ele>222.2</ele><time>2026-03-22T14:17:13.01Z</time></trkpt><trkpt lat="43.3658567" lon="10.600825"><ele>220.6</ele><time>2026-03-22T14:17:14.01Z</time></trkpt><trkpt lat="43.365775" lon="10.6007667"><ele>219.0</ele><time>2026-03-22T14:17:15.01Z</time></trkpt><trkpt lat="43.36569" lon="10.600715"><ele>219.0</ele><time>2026-03-22T14:17:16.009Z</time></trkpt><trkpt lat="43.3656067" lon="10.60065"><ele>218.99999999999997</ele><time>2026-03-22T14:17:17.01Z</time></trkpt><trkpt lat="43.3655183" lon="10.600585"><ele>218.99999999999997</ele><time>2026-03-22T14:17:18.008Z</time></trkpt><trkpt lat="43.3654317" lon="10.6005167"><ele>219.0</ele><time>2026-03-22T14:17:19.011Z</time></trkpt><trkpt lat="43.3653483" lon="10.6004483"><ele>219.0</ele><time>2026-03-22T14:17:20.012Z</time></trkpt><trkpt lat="43.3652667" lon="10.6003783"><ele>219.16666666666666</ele><time>2026-03-22T14:17:21.009Z</time></trkpt><trkpt lat="43.365185" lon="10.6003033"><ele>219.33333333333331</ele><time>2026-03-22T14:17:22.01Z</time></trkpt><trkpt lat="43.36511" lon="10.600235"><ele>219.5</ele><time>2026-03-22T14:17:23.009Z</time></trkpt><trkpt lat="43.3650367" lon="10.6001767"><ele>219.66666666666666</ele><time>2026-03-22T14:17:24.01Z</time></trkpt><trkpt lat="43.364975" lon="10.60012"><ele>219.83333333333331</ele><time>2026-03-22T14:17:25.01Z</time></trkpt><trkpt lat="43.36492" lon="10.6000667"><ele>220.0</ele><time>2026-03-22T14:17:26.011Z</time></trkpt><trkpt lat="43.3648733" lon="10.5999967"><ele>219.99999999999997</ele><time>2026-03-22T14:17:27.01Z</time></trkpt><trkpt lat="43.3648267" lon="10.5999233"><ele>220.0</ele><time>2026-03-22T14:17:28.01Z</time></trkpt><trkpt lat="43.364785" lon="10.599855"><ele>220.0</ele><time>2026-03-22T14:17:29.01Z</time></trkpt><trkpt lat="43.3647433" lon="10.5997867"><ele>220.0</ele><time>2026-03-22T14:17:30.01Z</time></trkpt><trkpt lat="43.3647017" lon="10.5997183"><ele>220.0</ele><time>2026-03-22T14:17:31.011Z</time></trkpt><trkpt lat="43.3646567" lon="10.59965"><ele>219.99999999999997</ele><time>2026-03-22T14:17:32.012Z</time></trkpt><trkpt lat="43.3646133" lon="10.5995767"><ele>220.0</ele><time>2026-03-22T14:17:33.012Z</time></trkpt><trkpt lat="43.3645817" lon="10.59949"><ele>218.49999999999997</ele><time>2026-03-22T14:17:34.01Z</time></trkpt><trkpt lat="43.36455" lon="10.5994"><ele>217.0</ele><time>2026-03-22T14:17:35.009Z</time></trkpt><trkpt lat="43.3645333" lon="10.5992867"><ele>215.5</ele><time>2026-03-22T14:17:36.014Z</time></trkpt><trkpt lat="43.3645083" lon="10.599185"><ele>214.0</ele><time>2026-03-22T14:17:37.012Z</time></trkpt><trkpt lat="43.3644733" lon="10.5990833"><ele>212.49999999999997</ele><time>2026-03-22T14:17:38.011Z</time></trkpt><trkpt lat="43.3644383" lon="10.5989783"><ele>211.0</ele><time>2026-03-22T14:17:39.009Z</time></trkpt><trkpt lat="43.3644067" lon="10.598875"><ele>211.0</ele><time>2026-03-22T14:17:40.009Z</time></trkpt><trkpt lat="43.364375" lon="10.5987783"><ele>211.0</ele><time>2026-03-22T14:17:41.012Z</time></trkpt><trkpt lat="43.3643533" lon="10.598685"><ele>211.0</ele><time>2026-03-22T14:17:42.011Z</time></trkpt><trkpt lat="43.36433" lon="10.5986"><ele>211.0</ele><time>2026-03-22T14:17:43.009Z</time></trkpt><trkpt lat="43.3643" lon="10.59851"><ele>211.0</ele><time>2026-03-22T14:17:44.01Z</time></trkpt><trkpt lat="43.3642667" lon="10.598425"><ele>211.0</ele><time>2026-03-22T14:17:45.011Z</time></trkpt><trkpt lat="43.364235" lon="10.5983267"><ele>211.0</ele><time>2026-03-22T14:17:46.009Z</time></trkpt><trkpt lat="43.364205" lon="10.5982283"><ele>210.66666666666666</ele><time>2026-03-22T14:17:47.01Z</time></trkpt><trkpt lat="43.364175" lon="10.5981233"><ele>210.33333333333331</ele><time>2026-03-22T14:17:48.01Z</time></trkpt><trkpt lat="43.36414" lon="10.598025"><ele>210.0</ele><time>2026-03-22T14:17:49.01Z</time></trkpt><trkpt lat="43.3641117" lon="10.5979233"><ele>209.66666666666669</ele><time>2026-03-22T14:17:50.01Z</time></trkpt><trkpt lat="43.3640967" lon="10.59781"><ele>209.33333333333334</ele><time>2026-03-22T14:17:51.009Z</time></trkpt><trkpt lat="43.3640767" lon="10.5977"><ele>209.0</ele><time>2026-03-22T14:17:52.009Z</time></trkpt><trkpt lat="43.3640283" lon="10.5975533"><ele>207.0</ele><time>2026-03-22T14:17:54.009Z</time></trkpt><trkpt lat="43.36402" lon="10.59738"><ele>205.0</ele><time>2026-03-22T14:17:56.01Z</time></trkpt><trkpt lat="43.36403" lon="10.597275"><ele>203.0</ele><time>2026-03-22T14:17:57.01Z</time></trkpt><trkpt lat="43.36405" lon="10.5971617"><ele>201.0</ele><time>2026-03-22T14:17:58.011Z</time></trkpt><trkpt lat="43.3640683" lon="10.5970417"><ele>199.0</ele><time>2026-03-22T14:17:59.01Z</time></trkpt><trkpt lat="43.36409" lon="10.5969167"><ele>198.0</ele><time>2026-03-22T14:18:00.01Z</time></trkpt><trkpt lat="43.364115" lon="10.5967833"><ele>197.0</ele><time>2026-03-22T14:18:01.01Z</time></trkpt><trkpt lat="43.36413" lon="10.5966417"><ele>196.0</ele><time>2026-03-22T14:18:02.01Z</time></trkpt><trkpt lat="43.364145" lon="10.5965067"><ele>195.0</ele><time>2026-03-22T14:18:03.009Z</time></trkpt><trkpt lat="43.36415" lon="10.59636"><ele>194.0</ele><time>2026-03-22T14:18:04.009Z</time></trkpt><trkpt lat="43.36414" lon="10.5961933"><ele>194.25</ele><time>2026-03-22T14:18:05.01Z</time></trkpt><trkpt lat="43.3641183" lon="10.5960033"><ele>194.5</ele><time>2026-03-22T14:18:06.01Z</time></trkpt><trkpt lat="43.3640983" lon="10.5958083"><ele>194.75</ele><time>2026-03-22T14:18:07.01Z</time></trkpt><trkpt lat="43.36409" lon="10.5956017"><ele>195.0</ele><time>2026-03-22T14:18:08.01Z</time></trkpt><trkpt lat="43.3640917" lon="10.595395"><ele>193.33333333333334</ele><time>2026-03-22T14:18:09.01Z</time></trkpt><trkpt lat="43.3640967" lon="10.59518"><ele>191.66666666666669</ele><time>2026-03-22T14:18:10.01Z</time></trkpt><trkpt lat="43.3640967" lon="10.59496"><ele>190.0</ele><time>2026-03-22T14:18:11.01Z</time></trkpt><trkpt lat="43.36409" lon="10.59474"><ele>190.0</ele><time>2026-03-22T14:18:12.01Z</time></trkpt><trkpt lat="43.364085" lon="10.5945233"><ele>190.0</ele><time>2026-03-22T14:18:13.009Z</time></trkpt><trkpt lat="43.36408" lon="10.5943133"><ele>190.0</ele><time>2026-03-22T14:18:14.01Z</time></trkpt><trkpt lat="43.3640733" lon="10.594105"><ele>188.5</ele><time>2026-03-22T14:18:15.01Z</time></trkpt><trkpt lat="43.36406" lon="10.5939033"><ele>187.0</ele><time>2026-03-22T14:18:16.008Z</time></trkpt><trkpt lat="43.3640267" lon="10.59371"><ele>185.5</ele><time>2026-03-22T14:18:17.011Z</time></trkpt><trkpt lat="43.3639733" lon="10.593535"><ele>184.0</ele><time>2026-03-22T14:18:18.01Z</time></trkpt><trkpt lat="43.3638967" lon="10.59338"><ele>183.75</ele><time>2026-03-22T14:18:19.01Z</time></trkpt><trkpt lat="43.363805" lon="10.59325"><ele>183.5</ele><time>2026-03-22T14:18:20.009Z</time></trkpt><trkpt lat="43.3636967" lon="10.593155"><ele>183.25</ele><time>2026-03-22T14:18:21.009Z</time></trkpt><trkpt lat="43.3635633" lon="10.5931167"><ele>183.0</ele><time>2026-03-22T14:18:22.01Z</time></trkpt><trkpt lat="43.3634217" lon="10.5931067"><ele>183.0</ele><time>2026-03-22T14:18:23.01Z</time></trkpt><trkpt lat="43.36327" lon="10.5930817"><ele>183.0</ele><time>2026-03-22T14:18:24.011Z</time></trkpt><trkpt lat="43.36311" lon="10.5930283"><ele>183.0</ele><time>2026-03-22T14:18:25.01Z</time></trkpt><trkpt lat="43.36295" lon="10.5929417"><ele>178.66666666666666</ele><time>2026-03-22T14:18:26.011Z</time></trkpt><trkpt lat="43.3628" lon="10.5928383"><ele>174.33333333333331</ele><time>2026-03-22T14:18:27.008Z</time></trkpt><trkpt lat="43.362665" lon="10.5927183"><ele>170.0</ele><time>2026-03-22T14:18:28.008Z</time></trkpt><trkpt lat="43.3625517" lon="10.5925867"><ele>170.0</ele><time>2026-03-22T14:18:29.01Z</time></trkpt><trkpt lat="43.362455" lon="10.592445"><ele>170.0</ele><time>2026-03-22T14:18:30.01Z</time></trkpt><trkpt lat="43.3623617" lon="10.5923067"><ele>170.0</ele><time>2026-03-22T14:18:31.008Z</time></trkpt><trkpt lat="43.3622567" lon="10.5921967"><ele>170.0</ele><time>2026-03-22T14:18:32.011Z</time></trkpt><trkpt lat="43.3621467" lon="10.5921333"><ele>170.5</ele><time>2026-03-22T14:18:33.011Z</time></trkpt><trkpt lat="43.3620217" lon="10.5921117"><ele>171.0</ele><time>2026-03-22T14:18:34.009Z</time></trkpt><trkpt lat="43.3618817" lon="10.5921333"><ele>171.5</ele><time>2026-03-22T14:18:35.011Z</time></trkpt><trkpt lat="43.3617333" lon="10.5921683"><ele>172.0</ele><time>2026-03-22T14:18:36.009Z</time></trkpt><trkpt lat="43.3615767" lon="10.5922"><ele>172.0</ele><time>2026-03-22T14:18:37.009Z</time></trkpt><trkpt lat="43.36142" lon="10.5922017"><ele>172.0</ele><time>2026-03-22T14:18:38.01Z</time></trkpt><trkpt lat="43.3612633" lon="10.5921733"><ele>172.0</ele><time>2026-03-22T14:18:39.012Z</time></trkpt><trkpt lat="43.361105" lon="10.5921033"><ele>170.0</ele><time>2026-03-22T14:18:40.011Z</time></trkpt><trkpt lat="43.3609367" lon="10.5920233"><ele>168.0</ele><time>2026-03-22T14:18:41.107Z</time></trkpt><trkpt lat="43.36077" lon="10.5919333"><ele>166.0</ele><time>2026-03-22T14:18:42.009Z</time></trkpt><trkpt lat="43.3606083" lon="10.5918567"><ele>156.0</ele><time>2026-03-22T14:18:43.011Z</time></trkpt><trkpt lat="43.360455" lon="10.5918033"><ele>146.0</ele><time>2026-03-22T14:18:44.012Z</time></trkpt><trkpt lat="43.3603017" lon="10.591795"><ele>136.0</ele><time>2026-03-22T14:18:45.012Z</time></trkpt><trkpt lat="43.3601467" lon="10.5918417"><ele>136.0</ele><time>2026-03-22T14:18:46.011Z</time></trkpt><trkpt lat="43.35999" lon="10.5919233"><ele>136.0</ele><time>2026-03-22T14:18:47.012Z</time></trkpt><trkpt lat="43.3598433" lon="10.5920167"><ele>136.0</ele><time>2026-03-22T14:18:48.012Z</time></trkpt><trkpt lat="43.359705" lon="10.5921"><ele>133.25</ele><time>2026-03-22T14:18:49.011Z</time></trkpt><trkpt lat="43.359585" lon="10.5921783"><ele>130.5</ele><time>2026-03-22T14:18:50.013Z</time></trkpt><trkpt lat="43.3594933" lon="10.5922617"><ele>127.75</ele><time>2026-03-22T14:18:51.01Z</time></trkpt><trkpt lat="43.359405" lon="10.5923633"><ele>125.0</ele><time>2026-03-22T14:18:52.011Z</time></trkpt><trkpt lat="43.3593467" lon="10.592475"><ele>125.0</ele><time>2026-03-22T14:18:53.011Z</time></trkpt><trkpt lat="43.3593583" lon="10.5926133"><ele>125.0</ele><time>2026-03-22T14:18:54.012Z</time></trkpt><trkpt lat="43.3593967" lon="10.5927617"><ele>125.0</ele><time>2026-03-22T14:18:55.012Z</time></trkpt><trkpt lat="43.35946" lon="10.5929283"><ele>125.0</ele><time>2026-03-22T14:18:56.012Z</time></trkpt><trkpt lat="43.359525" lon="10.5931067"><ele>126.0</ele><time>2026-03-22T14:18:57.011Z</time></trkpt><trkpt lat="43.3595967" lon="10.5932717"><ele>127.0</ele><time>2026-03-22T14:18:58.011Z</time></trkpt><trkpt lat="43.359665" lon="10.593435"><ele>128.0</ele><time>2026-03-22T14:18:59.011Z</time></trkpt><trkpt lat="43.3597367" lon="10.593585"><ele>129.0</ele><time>2026-03-22T14:19:00.012Z</time></trkpt><trkpt lat="43.3598383" lon="10.59373"><ele>129.0</ele><time>2026-03-22T14:19:01.01Z</time></trkpt><trkpt lat="43.3599617" lon="10.593845"><ele>129.0</ele><time>2026-03-22T14:19:02.011Z</time></trkpt><trkpt lat="43.36009" lon="10.59394"><ele>129.0</ele><time>2026-03-22T14:19:03.012Z</time></trkpt><trkpt lat="43.3602033" lon="10.5940467"><ele>129.0</ele><time>2026-03-22T14:19:04.012Z</time></trkpt><trkpt lat="43.3603017" lon="10.5941783"><ele>129.0</ele><time>2026-03-22T14:19:05.012Z</time></trkpt><trkpt lat="43.3603733" lon="10.5943383"><ele>129.0</ele><time>2026-03-22T14:19:06.011Z</time></trkpt><trkpt lat="43.3603983" lon="10.5945083"><ele>129.0</ele><time>2026-03-22T14:19:07.01Z</time></trkpt><trkpt lat="43.36039" lon="10.5946917"><ele>129.0</ele><time>2026-03-22T14:19:08.011Z</time></trkpt><trkpt lat="43.36036" lon="10.5948683"><ele>127.2</ele><time>2026-03-22T14:19:09.011Z</time></trkpt><trkpt lat="43.3603167" lon="10.5950233"><ele>125.4</ele><time>2026-03-22T14:19:10.011Z</time></trkpt><trkpt lat="43.36025" lon="10.5951467"><ele>123.6</ele><time>2026-03-22T14:19:11.01Z</time></trkpt><trkpt lat="43.360185" lon="10.5952317"><ele>121.8</ele><time>2026-03-22T14:19:12.01Z</time></trkpt><trkpt lat="43.360105" lon="10.5952817"><ele>120.0</ele><time>2026-03-22T14:19:13.01Z</time></trkpt><trkpt lat="43.3600233" lon="10.595275"><ele>120.0</ele><time>2026-03-22T14:19:14.01Z</time></trkpt><trkpt lat="43.3599517" lon="10.5952283"><ele>120.0</ele><time>2026-03-22T14:19:15.009Z</time></trkpt><trkpt lat="43.3598983" lon="10.5951367"><ele>120.0</ele><time>2026-03-22T14:19:16.009Z</time></trkpt><trkpt lat="43.35986" lon="10.5950183"><ele>120.0</ele><time>2026-03-22T14:19:17.011Z</time></trkpt><trkpt lat="43.3598067" lon="10.5949083"><ele>120.0</ele><time>2026-03-22T14:19:18.011Z</time></trkpt><trkpt lat="43.35975" lon="10.594725"><ele>116.25</ele><time>2026-03-22T14:19:19.011Z</time></trkpt><trkpt lat="43.3596567" lon="10.59459"><ele>112.5</ele><time>2026-03-22T14:19:20.012Z</time></trkpt><trkpt lat="43.3595567" lon="10.59444"><ele>108.75</ele><time>2026-03-22T14:19:21.011Z</time></trkpt><trkpt lat="43.3594617" lon="10.5942633"><ele>105.0</ele><time>2026-03-22T14:19:22.012Z</time></trkpt><trkpt lat="43.3593583" lon="10.5940867"><ele>105.0</ele><time>2026-03-22T14:19:23.012Z</time></trkpt><trkpt lat="43.3592617" lon="10.5938983"><ele>105.0</ele><time>2026-03-22T14:19:24.012Z</time></trkpt><trkpt lat="43.35916" lon="10.5937117"><ele>105.0</ele><time>2026-03-22T14:19:25.011Z</time></trkpt><trkpt lat="43.3590467" lon="10.5935233"><ele>109.33333333333334</ele><time>2026-03-22T14:19:26.011Z</time></trkpt><trkpt lat="43.35893" lon="10.5933417"><ele>113.66666666666667</ele><time>2026-03-22T14:19:27.011Z</time></trkpt><trkpt lat="43.35881" lon="10.5931783"><ele>118.0</ele><time>2026-03-22T14:19:28.01Z</time></trkpt><trkpt lat="43.3587133" lon="10.593005"><ele>107.66666666666667</ele><time>2026-03-22T14:19:29.011Z</time></trkpt><trkpt lat="43.3586467" lon="10.5928133"><ele>97.33333333333334</ele><time>2026-03-22T14:19:30.011Z</time></trkpt><trkpt lat="43.3586133" lon="10.5926"><ele>87.0</ele><time>2026-03-22T14:19:31.012Z</time></trkpt><trkpt lat="43.3586133" lon="10.59237"><ele>87.0</ele><time>2026-03-22T14:19:32.012Z</time></trkpt><trkpt lat="43.3586033" lon="10.5921517"><ele>87.0</ele><time>2026-03-22T14:19:33.011Z</time></trkpt><trkpt lat="43.3585617" lon="10.5919367"><ele>87.0</ele><time>2026-03-22T14:19:34.01Z</time></trkpt><trkpt lat="43.3584983" lon="10.591725"><ele>87.33333333333333</ele><time>2026-03-22T14:19:35.01Z</time></trkpt><trkpt lat="43.35843" lon="10.5914983"><ele>87.66666666666666</ele><time>2026-03-22T14:19:36.009Z</time></trkpt><trkpt lat="43.3583767" lon="10.591265"><ele>88.0</ele><time>2026-03-22T14:19:37.008Z</time></trkpt><trkpt lat="43.358335" lon="10.59103"><ele>88.0</ele><time>2026-03-22T14:19:38.01Z</time></trkpt><trkpt lat="43.3583017" lon="10.5908033"><ele>88.0</ele><time>2026-03-22T14:19:39.009Z</time></trkpt><trkpt lat="43.3582667" lon="10.5906083"><ele>88.0</ele><time>2026-03-22T14:19:40.01Z</time></trkpt><trkpt lat="43.3582183" lon="10.5904433"><ele>88.0</ele><time>2026-03-22T14:19:41.01Z</time></trkpt><trkpt lat="43.3581617" lon="10.5903117"><ele>86.0</ele><time>2026-03-22T14:19:42.009Z</time></trkpt><trkpt lat="43.3580933" lon="10.590205"><ele>84.0</ele><time>2026-03-22T14:19:43.01Z</time></trkpt><trkpt lat="43.3580117" lon="10.5901533"><ele>82.0</ele><time>2026-03-22T14:19:44.01Z</time></trkpt><trkpt lat="43.3579233" lon="10.5901667"><ele>80.0</ele><time>2026-03-22T14:19:45.009Z</time></trkpt><trkpt lat="43.3578417" lon="10.5902233"><ele>78.0</ele><time>2026-03-22T14:19:46.009Z</time></trkpt><trkpt lat="43.3577717" lon="10.5902967"><ele>77.75</ele><time>2026-03-22T14:19:47.01Z</time></trkpt><trkpt lat="43.3577383" lon="10.5904183"><ele>77.5</ele><time>2026-03-22T14:19:48.01Z</time></trkpt><trkpt lat="43.3577467" lon="10.5906233"><ele>77.25</ele><time>2026-03-22T14:19:49.01Z</time></trkpt><trkpt lat="43.3577933" lon="10.5908217"><ele>77.0</ele><time>2026-03-22T14:19:50.011Z</time></trkpt><trkpt lat="43.3577783" lon="10.5909867"><ele>77.0</ele><time>2026-03-22T14:19:51.009Z</time></trkpt><trkpt lat="43.3577467" lon="10.5911017"><ele>77.0</ele><time>2026-03-22T14:19:52.007Z</time></trkpt><trkpt lat="43.3576917" lon="10.5911767"><ele>77.0</ele><time>2026-03-22T14:19:53.009Z</time></trkpt><trkpt lat="43.357605" lon="10.5912033"><ele>77.0</ele><time>2026-03-22T14:19:54.009Z</time></trkpt><trkpt lat="43.35745" lon="10.5911533"><ele>77.0</ele><time>2026-03-22T14:19:55.01Z</time></trkpt><trkpt lat="43.3572967" lon="10.5910983"><ele>73.66666666666667</ele><time>2026-03-22T14:19:56.012Z</time></trkpt><trkpt lat="43.3571167" lon="10.591065"><ele>70.33333333333333</ele><time>2026-03-22T14:19:57.012Z</time></trkpt><trkpt lat="43.3569367" lon="10.591045"><ele>67.0</ele><time>2026-03-22T14:19:58.011Z</time></trkpt><trkpt lat="43.3567533" lon="10.5910433"><ele>67.0</ele><time>2026-03-22T14:19:59.012Z</time></trkpt><trkpt lat="43.35659" lon="10.5910583"><ele>67.0</ele><time>2026-03-22T14:20:00.012Z</time></trkpt><trkpt lat="43.3564333" lon="10.5910567"><ele>67.0</ele><time>2026-03-22T14:20:01.011Z</time></trkpt><trkpt lat="43.3562833" lon="10.5910183"><ele>70.0</ele><time>2026-03-22T14:20:02.011Z</time></trkpt><trkpt lat="43.3561267" lon="10.5909433"><ele>73.0</ele><time>2026-03-22T14:20:03.01Z</time></trkpt><trkpt lat="43.3559767" lon="10.5908367"><ele>76.0</ele><time>2026-03-22T14:20:04.011Z</time></trkpt><trkpt lat="43.3558317" lon="10.5907117"><ele>76.0</ele><time>2026-03-22T14:20:05.009Z</time></trkpt><trkpt lat="43.3556833" lon="10.5905833"><ele>76.0</ele><time>2026-03-22T14:20:06.01Z</time></trkpt><trkpt lat="43.355535" lon="10.590435"><ele>76.0</ele><time>2026-03-22T14:20:07.012Z</time></trkpt><trkpt lat="43.3553983" lon="10.5902633"><ele>76.0</ele><time>2026-03-22T14:20:08.01Z</time></trkpt><trkpt lat="43.3552867" lon="10.5900667"><ele>76.0</ele><time>2026-03-22T14:20:09.01Z</time></trkpt><trkpt lat="43.355195" lon="10.5898633"><ele>76.0</ele><time>2026-03-22T14:20:10.009Z</time></trkpt><trkpt lat="43.3551283" lon="10.58966"><ele>72.0</ele><time>2026-03-22T14:20:11.01Z</time></trkpt><trkpt lat="43.3550683" lon="10.5894667"><ele>68.0</ele><time>2026-03-22T14:20:12.01Z</time></trkpt><trkpt lat="43.3549883" lon="10.5893033"><ele>64.0</ele><time>2026-03-22T14:20:13.009Z</time></trkpt><trkpt lat="43.35487" lon="10.589175"><ele>60.0</ele><time>2026-03-22T14:20:14.01Z</time></trkpt><trkpt lat="43.35473" lon="10.5890683"><ele>61.66666666666667</ele><time>2026-03-22T14:20:15.009Z</time></trkpt><trkpt lat="43.35457" lon="10.5889817"><ele>63.333333333333336</ele><time>2026-03-22T14:20:16.01Z</time></trkpt><trkpt lat="43.35439" lon="10.5889067"><ele>65.0</ele><time>2026-03-22T14:20:17.009Z</time></trkpt><trkpt lat="43.3542167" lon="10.58883"><ele>65.0</ele><time>2026-03-22T14:20:18.01Z</time></trkpt><trkpt lat="43.354065" lon="10.5887483"><ele>65.0</ele><time>2026-03-22T14:20:19.009Z</time></trkpt><trkpt lat="43.3539033" lon="10.588715"><ele>65.0</ele><time>2026-03-22T14:20:20.009Z</time></trkpt><trkpt lat="43.3537533" lon="10.5887217"><ele>64.33333333333334</ele><time>2026-03-22T14:20:21.011Z</time></trkpt><trkpt lat="43.3535983" lon="10.5887583"><ele>63.66666666666667</ele><time>2026-03-22T14:20:22.008Z</time></trkpt><trkpt lat="43.3534467" lon="10.5888367"><ele>63.0</ele><time>2026-03-22T14:20:23.01Z</time></trkpt><trkpt lat="43.3532733" lon="10.5888983"><ele>63.0</ele><time>2026-03-22T14:20:24.01Z</time></trkpt><trkpt lat="43.3531033" lon="10.5889583"><ele>63.0</ele><time>2026-03-22T14:20:25.009Z</time></trkpt><trkpt lat="43.352925" lon="10.5890033"><ele>63.0</ele><time>2026-03-22T14:20:26.009Z</time></trkpt><trkpt lat="43.35274" lon="10.5890333"><ele>62.66666666666667</ele><time>2026-03-22T14:20:27.01Z</time></trkpt><trkpt lat="43.3525417" lon="10.5890217"><ele>62.333333333333336</ele><time>2026-03-22T14:20:28.011Z</time></trkpt><trkpt lat="43.3523483" lon="10.5889867"><ele>62.0</ele><time>2026-03-22T14:20:29.01Z</time></trkpt><trkpt lat="43.3521633" lon="10.588925"><ele>62.0</ele><time>2026-03-22T14:20:30.009Z</time></trkpt><trkpt lat="43.3519667" lon="10.588845"><ele>62.0</ele><time>2026-03-22T14:20:31.012Z</time></trkpt><trkpt lat="43.3517683" lon="10.5887533"><ele>62.0</ele><time>2026-03-22T14:20:32.013Z</time></trkpt><trkpt lat="43.35157" lon="10.5886617"><ele>57.0</ele><time>2026-03-22T14:20:33.011Z</time></trkpt><trkpt lat="43.3513817" lon="10.5885417"><ele>52.0</ele><time>2026-03-22T14:20:34.009Z</time></trkpt><trkpt lat="43.3511983" lon="10.58841"><ele>47.0</ele><time>2026-03-22T14:20:35.01Z</time></trkpt><trkpt lat="43.3510167" lon="10.5882767"><ele>47.0</ele><time>2026-03-22T14:20:36.01Z</time></trkpt><trkpt lat="43.3508383" lon="10.5881367"><ele>47.0</ele><time>2026-03-22T14:20:37.011Z</time></trkpt><trkpt lat="43.3506617" lon="10.5880017"><ele>47.0</ele><time>2026-03-22T14:20:38.012Z</time></trkpt><trkpt lat="43.3504817" lon="10.5878733"><ele>45.0</ele><time>2026-03-22T14:20:39.009Z</time></trkpt><trkpt lat="43.3503017" lon="10.5877483"><ele>43.0</ele><time>2026-03-22T14:20:40.01Z</time></trkpt><trkpt lat="43.3501333" lon="10.5876217"><ele>41.0</ele><time>2026-03-22T14:20:41.01Z</time></trkpt><trkpt lat="43.3499717" lon="10.5874933"><ele>41.0</ele><time>2026-03-22T14:20:42.011Z</time></trkpt><trkpt lat="43.3498117" lon="10.5873633"><ele>41.0</ele><time>2026-03-22T14:20:43.01Z</time></trkpt><trkpt lat="43.349645" lon="10.587245"><ele>41.0</ele><time>2026-03-22T14:20:44.01Z</time></trkpt><trkpt lat="43.3494767" lon="10.587125"><ele>39.666666666666664</ele><time>2026-03-22T14:20:45.01Z</time></trkpt><trkpt lat="43.349305" lon="10.5870017"><ele>38.333333333333336</ele><time>2026-03-22T14:20:46.01Z</time></trkpt><trkpt lat="43.3491333" lon="10.5868867"><ele>37.0</ele><time>2026-03-22T14:20:47.009Z</time></trkpt><trkpt lat="43.3489683" lon="10.5867633"><ele>36.0</ele><time>2026-03-22T14:20:48.01Z</time></trkpt><trkpt lat="43.348805" lon="10.58664"><ele>35.0</ele><time>2026-03-22T14:20:49.009Z</time></trkpt><trkpt lat="43.34864" lon="10.586515"><ele>34.0</ele><time>2026-03-22T14:20:50.01Z</time></trkpt><trkpt lat="43.3484733" lon="10.5863933"><ele>34.0</ele><time>2026-03-22T14:20:51.01Z</time></trkpt><trkpt lat="43.3483083" lon="10.586275"><ele>34.0</ele><time>2026-03-22T14:20:52.01Z</time></trkpt><trkpt lat="43.3481433" lon="10.5861517"><ele>34.0</ele><time>2026-03-22T14:20:53.009Z</time></trkpt><trkpt lat="43.3479783" lon="10.58603"><ele>33.333333333333336</ele><time>2026-03-22T14:20:54.009Z</time></trkpt><trkpt lat="43.34781" lon="10.5859083"><ele>32.666666666666664</ele><time>2026-03-22T14:20:55.011Z</time></trkpt><trkpt lat="43.3476433" lon="10.585785"><ele>32.0</ele><time>2026-03-22T14:20:56.009Z</time></trkpt><trkpt lat="43.3474767" lon="10.58566"><ele>32.0</ele><time>2026-03-22T14:20:57.01Z</time></trkpt><trkpt lat="43.3473117" lon="10.5855333"><ele>32.0</ele><time>2026-03-22T14:20:58.01Z</time></trkpt><trkpt lat="43.34715" lon="10.5854117"><ele>32.0</ele><time>2026-03-22T14:20:59.01Z</time></trkpt><trkpt lat="43.34699" lon="10.5852967"><ele>31.666666666666664</ele><time>2026-03-22T14:21:00.01Z</time></trkpt><trkpt lat="43.3468317" lon="10.5851817"><ele>31.333333333333336</ele><time>2026-03-22T14:21:01.01Z</time></trkpt><trkpt lat="43.3466683" lon="10.585065"><ele>31.0</ele><time>2026-03-22T14:21:02.01Z</time></trkpt><trkpt lat="43.3465033" lon="10.5849467"><ele>30.0</ele><time>2026-03-22T14:21:03.01Z</time></trkpt><trkpt lat="43.3463333" lon="10.5848233"><ele>29.0</ele><time>2026-03-22T14:21:04.01Z</time></trkpt><trkpt lat="43.3461633" lon="10.584695"><ele>28.0</ele><time>2026-03-22T14:21:05.01Z</time></trkpt><trkpt lat="43.3459883" lon="10.5845633"><ele>27.666666666666668</ele><time>2026-03-22T14:21:06.01Z</time></trkpt><trkpt lat="43.3458133" lon="10.5844333"><ele>27.333333333333336</ele><time>2026-03-22T14:21:07.01Z</time></trkpt><trkpt lat="43.3456367" lon="10.5843083"><ele>27.0</ele><time>2026-03-22T14:21:08.01Z</time></trkpt><trkpt lat="43.3454633" lon="10.5841783"><ele>27.0</ele><time>2026-03-22T14:21:09.01Z</time></trkpt><trkpt lat="43.3453" lon="10.5840533"><ele>27.0</ele><time>2026-03-22T14:21:10.009Z</time></trkpt><trkpt lat="43.3451483" lon="10.583935"><ele>27.0</ele><time>2026-03-22T14:21:11.01Z</time></trkpt><trkpt lat="43.345" lon="10.58383"><ele>27.0</ele><time>2026-03-22T14:21:12.011Z</time></trkpt><trkpt lat="43.3448617" lon="10.5837317"><ele>27.0</ele><time>2026-03-22T14:21:13.01Z</time></trkpt><trkpt lat="43.344735" lon="10.583635"><ele>27.0</ele><time>2026-03-22T14:21:14.01Z</time></trkpt><trkpt lat="43.3446117" lon="10.58354"><ele>27.0</ele><time>2026-03-22T14:21:15.01Z</time></trkpt><trkpt lat="43.3444867" lon="10.58345"><ele>27.25</ele><time>2026-03-22T14:21:16.01Z</time></trkpt><trkpt lat="43.3443633" lon="10.5833583"><ele>27.5</ele><time>2026-03-22T14:21:17.009Z</time></trkpt><trkpt lat="43.3442433" lon="10.583265"><ele>27.75</ele><time>2026-03-22T14:21:18.01Z</time></trkpt><trkpt lat="43.34412" lon="10.5831783"><ele>28.0</ele><time>2026-03-22T14:21:19.009Z</time></trkpt><trkpt lat="43.3439983" lon="10.5830883"><ele>28.0</ele><time>2026-03-22T14:21:20.01Z</time></trkpt><trkpt lat="43.3438817" lon="10.5829983"><ele>28.0</ele><time>2026-03-22T14:21:21.01Z</time></trkpt><trkpt lat="43.3437783" lon="10.5829083"><ele>28.0</ele><time>2026-03-22T14:21:22.01Z</time></trkpt><trkpt lat="43.3436867" lon="10.5828217"><ele>28.0</ele><time>2026-03-22T14:21:23.01Z</time></trkpt><trkpt lat="43.3436117" lon="10.5827467"><ele>27.500000000000004</ele><time>2026-03-22T14:21:24.011Z</time></trkpt><trkpt lat="43.3435517" lon="10.5826867"><ele>27.0</ele><time>2026-03-22T14:21:25.011Z</time></trkpt><trkpt lat="43.3434817" lon="10.5826133"><ele>26.5</ele><time>2026-03-22T14:21:27.01Z</time></trkpt><trkpt lat="43.34341" lon="10.582525"><ele>26.0</ele><time>2026-03-22T14:21:29.009Z</time></trkpt><trkpt lat="43.3433633" lon="10.5824567"><ele>25.500000000000004</ele><time>2026-03-22T14:21:30.009Z</time></trkpt><trkpt lat="43.3433083" lon="10.582395"><ele>25.0</ele><time>2026-03-22T14:21:31.01Z</time></trkpt><trkpt lat="43.343245" lon="10.5823617"><ele>25.0</ele><time>2026-03-22T14:21:32.011Z</time></trkpt><trkpt lat="43.3431383" lon="10.5824183"><ele>25.0</ele><time>2026-03-22T14:21:34.012Z</time></trkpt><trkpt lat="43.3431117" lon="10.5826383"><ele>25.0</ele><time>2026-03-22T14:21:36.012Z</time></trkpt><trkpt lat="43.343115" lon="10.5828333"><ele>25.0</ele><time>2026-03-22T14:21:37.012Z</time></trkpt><trkpt lat="43.343105" lon="10.583075"><ele>24.666666666666668</ele><time>2026-03-22T14:21:38.011Z</time></trkpt><trkpt lat="43.3430533" lon="10.5832667"><ele>24.333333333333336</ele><time>2026-03-22T14:21:39.01Z</time></trkpt><trkpt lat="43.3429833" lon="10.5834517"><ele>24.0</ele><time>2026-03-22T14:21:40.01Z</time></trkpt><trkpt lat="43.3428983" lon="10.5836333"><ele>23.666666666666668</ele><time>2026-03-22T14:21:41.01Z</time></trkpt><trkpt lat="43.3428" lon="10.583815"><ele>23.333333333333336</ele><time>2026-03-22T14:21:42.01Z</time></trkpt><trkpt lat="43.3427033" lon="10.5839883"><ele>23.0</ele><time>2026-03-22T14:21:43.011Z</time></trkpt><trkpt lat="43.3426117" lon="10.5841533"><ele>23.0</ele><time>2026-03-22T14:21:44.01Z</time></trkpt><trkpt lat="43.3425133" lon="10.5843133"><ele>23.0</ele><time>2026-03-22T14:21:45.009Z</time></trkpt><trkpt lat="43.3424083" lon="10.5844733"><ele>23.0</ele><time>2026-03-22T14:21:46.011Z</time></trkpt><trkpt lat="43.342305" lon="10.5846383"><ele>22.666666666666668</ele><time>2026-03-22T14:21:47.01Z</time></trkpt><trkpt lat="43.3421967" lon="10.5848133"><ele>22.333333333333332</ele><time>2026-03-22T14:21:48.008Z</time></trkpt><trkpt lat="43.3420783" lon="10.5850083"><ele>22.0</ele><time>2026-03-22T14:21:49.01Z</time></trkpt><trkpt lat="43.34194" lon="10.585225"><ele>22.666666666666664</ele><time>2026-03-22T14:21:50.012Z</time></trkpt><trkpt lat="43.3417933" lon="10.58545"><ele>23.333333333333332</ele><time>2026-03-22T14:21:51.01Z</time></trkpt><trkpt lat="43.341645" lon="10.5856783"><ele>24.0</ele><time>2026-03-22T14:21:52.01Z</time></trkpt><trkpt lat="43.3415" lon="10.5859117"><ele>23.333333333333332</ele><time>2026-03-22T14:21:53.011Z</time></trkpt><trkpt lat="43.341365" lon="10.5861567"><ele>22.666666666666664</ele><time>2026-03-22T14:21:54.01Z</time></trkpt><trkpt lat="43.341245" lon="10.58641"><ele>22.0</ele><time>2026-03-22T14:21:55.01Z</time></trkpt><trkpt lat="43.3411317" lon="10.5866683"><ele>22.0</ele><time>2026-03-22T14:21:56.01Z</time></trkpt><trkpt lat="43.341035" lon="10.58693"><ele>22.0</ele><time>2026-03-22T14:21:57.011Z</time></trkpt><trkpt lat="43.3409567" lon="10.5872"><ele>22.0</ele><time>2026-03-22T14:21:58.01Z</time></trkpt><trkpt lat="43.34089" lon="10.58747"><ele>22.333333333333332</ele><time>2026-03-22T14:21:59.009Z</time></trkpt><trkpt lat="43.34083" lon="10.5877417"><ele>22.666666666666668</ele><time>2026-03-22T14:22:00.01Z</time></trkpt><trkpt lat="43.3407783" lon="10.588005"><ele>23.0</ele><time>2026-03-22T14:22:01.009Z</time></trkpt><trkpt lat="43.340735" lon="10.5882633"><ele>23.0</ele><time>2026-03-22T14:22:02.009Z</time></trkpt><trkpt lat="43.3406917" lon="10.58852"><ele>23.0</ele><time>2026-03-22T14:22:03.01Z</time></trkpt><trkpt lat="43.3406483" lon="10.5887783"><ele>23.0</ele><time>2026-03-22T14:22:04.011Z</time></trkpt><trkpt lat="43.3406017" lon="10.5890383"><ele>23.666666666666668</ele><time>2026-03-22T14:22:05.01Z</time></trkpt><trkpt lat="43.3405533" lon="10.5893"><ele>24.333333333333336</ele><time>2026-03-22T14:22:06.011Z</time></trkpt><trkpt lat="43.3405083" lon="10.5895617"><ele>25.0</ele><time>2026-03-22T14:22:07.01Z</time></trkpt><trkpt lat="43.3404633" lon="10.58982"><ele>23.333333333333336</ele><time>2026-03-22T14:22:08.01Z</time></trkpt><trkpt lat="43.3404183" lon="10.5900817"><ele>21.666666666666668</ele><time>2026-03-22T14:22:09.01Z</time></trkpt><trkpt lat="43.3403767" lon="10.5903417"><ele>20.0</ele><time>2026-03-22T14:22:10.012Z</time></trkpt><trkpt lat="43.3403317" lon="10.5906017"><ele>20.0</ele><time>2026-03-22T14:22:11.011Z</time></trkpt><trkpt lat="43.3402933" lon="10.590865"><ele>20.0</ele><time>2026-03-22T14:22:12.009Z</time></trkpt><trkpt lat="43.3402633" lon="10.59113"><ele>20.0</ele><time>2026-03-22T14:22:13.01Z</time></trkpt><trkpt lat="43.3402433" lon="10.5913983"><ele>21.0</ele><time>2026-03-22T14:22:14.011Z</time></trkpt><trkpt lat="43.3402233" lon="10.5916683"><ele>22.0</ele><time>2026-03-22T14:22:15.01Z</time></trkpt><trkpt lat="43.3402233" lon="10.5919383"><ele>23.0</ele><time>2026-03-22T14:22:16.01Z</time></trkpt><trkpt lat="43.34023" lon="10.59221"><ele>22.666666666666668</ele><time>2026-03-22T14:22:17.01Z</time></trkpt><trkpt lat="43.340245" lon="10.5924767"><ele>22.333333333333332</ele><time>2026-03-22T14:22:18.009Z</time></trkpt><trkpt lat="43.34027" lon="10.592745"><ele>22.0</ele><time>2026-03-22T14:22:19.01Z</time></trkpt><trkpt lat="43.3403033" lon="10.5930133"><ele>22.0</ele><time>2026-03-22T14:22:20.01Z</time></trkpt><trkpt lat="43.3403483" lon="10.5932817"><ele>22.0</ele><time>2026-03-22T14:22:21.01Z</time></trkpt><trkpt lat="43.3404033" lon="10.593545"><ele>22.0</ele><time>2026-03-22T14:22:22.011Z</time></trkpt><trkpt lat="43.340465" lon="10.59381"><ele>21.0</ele><time>2026-03-22T14:22:23.011Z</time></trkpt><trkpt lat="43.3405383" lon="10.5940683"><ele>20.0</ele><time>2026-03-22T14:22:24.011Z</time></trkpt><trkpt lat="43.3406217" lon="10.5943233"><ele>19.0</ele><time>2026-03-22T14:22:25.011Z</time></trkpt><trkpt lat="43.3407083" lon="10.5945767"><ele>23.0</ele><time>2026-03-22T14:22:26.01Z</time></trkpt><trkpt lat="43.3407967" lon="10.5948267"><ele>27.0</ele><time>2026-03-22T14:22:27.01Z</time></trkpt><trkpt lat="43.340885" lon="10.5950767"><ele>31.0</ele><time>2026-03-22T14:22:28.01Z</time></trkpt><trkpt lat="43.3409733" lon="10.5953233"><ele>29.0</ele><time>2026-03-22T14:22:29.009Z</time></trkpt><trkpt lat="43.3410567" lon="10.59557"><ele>27.0</ele><time>2026-03-22T14:22:30.01Z</time></trkpt><trkpt lat="43.3411383" lon="10.5958167"><ele>25.0</ele><time>2026-03-22T14:22:31.011Z</time></trkpt><trkpt lat="43.3412233" lon="10.596065"><ele>23.666666666666668</ele><time>2026-03-22T14:22:32.012Z</time></trkpt><trkpt lat="43.341305" lon="10.5963133"><ele>22.333333333333336</ele><time>2026-03-22T14:22:33.009Z</time></trkpt><trkpt lat="43.3413917" lon="10.5965567"><ele>21.0</ele><time>2026-03-22T14:22:34.01Z</time></trkpt><trkpt lat="43.34148" lon="10.596805"><ele>24.0</ele><time>2026-03-22T14:22:35.011Z</time></trkpt><trkpt lat="43.3415683" lon="10.59706"><ele>27.0</ele><time>2026-03-22T14:22:36.009Z</time></trkpt><trkpt lat="43.3416583" lon="10.597315"><ele>30.0</ele><time>2026-03-22T14:22:37.01Z</time></trkpt><trkpt lat="43.3417483" lon="10.59758"><ele>27.333333333333332</ele><time>2026-03-22T14:22:38.009Z</time></trkpt><trkpt lat="43.3418417" lon="10.5978433"><ele>24.666666666666664</ele><time>2026-03-22T14:22:39.009Z</time></trkpt><trkpt lat="43.3419367" lon="10.598105"><ele>22.0</ele><time>2026-03-22T14:22:40.01Z</time></trkpt><trkpt lat="43.3420383" lon="10.5983567"><ele>22.0</ele><time>2026-03-22T14:22:41.009Z</time></trkpt><trkpt lat="43.3421417" lon="10.598595"><ele>22.0</ele><time>2026-03-22T14:22:42.01Z</time></trkpt><trkpt lat="43.34225" lon="10.5988117"><ele>22.0</ele><time>2026-03-22T14:22:43.01Z</time></trkpt><trkpt lat="43.3423633" lon="10.5990083"><ele>22.0</ele><time>2026-03-22T14:22:44.01Z</time></trkpt><trkpt lat="43.3424867" lon="10.5991967"><ele>22.0</ele><time>2026-03-22T14:22:45.01Z</time></trkpt><trkpt lat="43.3426167" lon="10.5993733"><ele>22.0</ele><time>2026-03-22T14:22:46.011Z</time></trkpt><trkpt lat="43.3427567" lon="10.5995333"><ele>22.0</ele><time>2026-03-22T14:22:47.01Z</time></trkpt><trkpt lat="43.3429" lon="10.5996833"><ele>22.0</ele><time>2026-03-22T14:22:48.01Z</time></trkpt><trkpt lat="43.34305" lon="10.5998233"><ele>22.0</ele><time>2026-03-22T14:22:49.01Z</time></trkpt><trkpt lat="43.3432017" lon="10.5999533"><ele>23.666666666666664</ele><time>2026-03-22T14:22:50.01Z</time></trkpt><trkpt lat="43.34336" lon="10.6000767"><ele>25.333333333333332</ele><time>2026-03-22T14:22:51.01Z</time></trkpt><trkpt lat="43.3435217" lon="10.6001983"><ele>27.0</ele><time>2026-03-22T14:22:52.011Z</time></trkpt><trkpt lat="43.343685" lon="10.60033"><ele>25.333333333333332</ele><time>2026-03-22T14:22:53.011Z</time></trkpt><trkpt lat="43.3438483" lon="10.6004583"><ele>23.666666666666664</ele><time>2026-03-22T14:22:54.01Z</time></trkpt><trkpt lat="43.3440133" lon="10.60058"><ele>22.0</ele><time>2026-03-22T14:22:55.01Z</time></trkpt><trkpt lat="43.344175" lon="10.6007033"><ele>22.0</ele><time>2026-03-22T14:22:56.01Z</time></trkpt><trkpt lat="43.3443317" lon="10.6008183"><ele>22.0</ele><time>2026-03-22T14:22:57.01Z</time></trkpt><trkpt lat="43.3444867" lon="10.6009333"><ele>22.0</ele><time>2026-03-22T14:22:58.011Z</time></trkpt><trkpt lat="43.3446317" lon="10.601045"><ele>22.666666666666664</ele><time>2026-03-22T14:22:59.01Z</time></trkpt><trkpt lat="43.344765" lon="10.601155"><ele>23.333333333333332</ele><time>2026-03-22T14:23:00.01Z</time></trkpt><trkpt lat="43.344895" lon="10.6012733"><ele>24.0</ele><time>2026-03-22T14:23:01.009Z</time></trkpt><trkpt lat="43.3450167" lon="10.6014017"><ele>24.0</ele><time>2026-03-22T14:23:02.01Z</time></trkpt><trkpt lat="43.3451383" lon="10.6015517"><ele>24.0</ele><time>2026-03-22T14:23:03.01Z</time></trkpt><trkpt lat="43.3452567" lon="10.6017083"><ele>24.0</ele><time>2026-03-22T14:23:04.01Z</time></trkpt><trkpt lat="43.3453717" lon="10.6018833"><ele>22.333333333333332</ele><time>2026-03-22T14:23:05.01Z</time></trkpt><trkpt lat="43.34548" lon="10.6020783"><ele>20.666666666666664</ele><time>2026-03-22T14:23:06.009Z</time></trkpt><trkpt lat="43.3455817" lon="10.6022867"><ele>19.0</ele><time>2026-03-22T14:23:07.01Z</time></trkpt><trkpt lat="43.3456717" lon="10.6025067"><ele>20.666666666666664</ele><time>2026-03-22T14:23:08.01Z</time></trkpt><trkpt lat="43.34575" lon="10.6027283"><ele>22.333333333333332</ele><time>2026-03-22T14:23:09.01Z</time></trkpt><trkpt lat="43.3458233" lon="10.6029367"><ele>24.0</ele><time>2026-03-22T14:23:10.011Z</time></trkpt><trkpt lat="43.34589" lon="10.6031383"><ele>24.0</ele><time>2026-03-22T14:23:11.01Z</time></trkpt><trkpt lat="43.3459517" lon="10.60334"><ele>24.0</ele><time>2026-03-22T14:23:12.01Z</time></trkpt><trkpt lat="43.3460117" lon="10.60354"><ele>24.0</ele><time>2026-03-22T14:23:13.01Z</time></trkpt><trkpt lat="43.3460733" lon="10.6037433"><ele>23.0</ele><time>2026-03-22T14:23:14.011Z</time></trkpt><trkpt lat="43.346135" lon="10.6039483"><ele>22.0</ele><time>2026-03-22T14:23:15.01Z</time></trkpt><trkpt lat="43.3462" lon="10.604155"><ele>21.0</ele><time>2026-03-22T14:23:16.01Z</time></trkpt><trkpt lat="43.3462667" lon="10.604365"><ele>20.0</ele><time>2026-03-22T14:23:17.01Z</time></trkpt><trkpt lat="43.3463333" lon="10.6045767"><ele>19.0</ele><time>2026-03-22T14:23:18.01Z</time></trkpt><trkpt lat="43.3464" lon="10.6047917"><ele>18.0</ele><time>2026-03-22T14:23:19.009Z</time></trkpt><trkpt lat="43.3464683" lon="10.605005"><ele>21.0</ele><time>2026-03-22T14:23:20.01Z</time></trkpt><trkpt lat="43.3465367" lon="10.60522"><ele>24.0</ele><time>2026-03-22T14:23:21.01Z</time></trkpt><trkpt lat="43.3466033" lon="10.6054367"><ele>27.0</ele><time>2026-03-22T14:23:22.009Z</time></trkpt><trkpt lat="43.3466717" lon="10.6056533"><ele>27.0</ele><time>2026-03-22T14:23:23.01Z</time></trkpt><trkpt lat="43.346745" lon="10.60587"><ele>27.0</ele><time>2026-03-22T14:23:24.011Z</time></trkpt><trkpt lat="43.3468133" lon="10.6060917"><ele>27.0</ele><time>2026-03-22T14:23:25.01Z</time></trkpt><trkpt lat="43.34688" lon="10.6063167"><ele>25.666666666666668</ele><time>2026-03-22T14:23:26.01Z</time></trkpt><trkpt lat="43.3469467" lon="10.6065333"><ele>24.333333333333336</ele><time>2026-03-22T14:23:27.01Z</time></trkpt><trkpt lat="43.3470083" lon="10.6067533"><ele>23.0</ele><time>2026-03-22T14:23:28.01Z</time></trkpt><trkpt lat="43.3470617" lon="10.6069667"><ele>22.666666666666668</ele><time>2026-03-22T14:23:29.01Z</time></trkpt><trkpt lat="43.3471067" lon="10.6071917"><ele>22.333333333333332</ele><time>2026-03-22T14:23:30.009Z</time></trkpt><trkpt lat="43.347145" lon="10.6074183"><ele>22.0</ele><time>2026-03-22T14:23:31.01Z</time></trkpt><trkpt lat="43.3471667" lon="10.60765"><ele>22.333333333333332</ele><time>2026-03-22T14:23:32.01Z</time></trkpt><trkpt lat="43.34719" lon="10.6078733"><ele>22.666666666666668</ele><time>2026-03-22T14:23:33.01Z</time></trkpt><trkpt lat="43.3472117" lon="10.6080883"><ele>23.0</ele><time>2026-03-22T14:23:34.01Z</time></trkpt><trkpt lat="43.347225" lon="10.6083017"><ele>26.0</ele><time>2026-03-22T14:23:35.01Z</time></trkpt><trkpt lat="43.34724" lon="10.608515"><ele>29.0</ele><time>2026-03-22T14:23:36.01Z</time></trkpt><trkpt lat="43.3472533" lon="10.6087317"><ele>32.0</ele><time>2026-03-22T14:23:37.011Z</time></trkpt><trkpt lat="43.34727" lon="10.6089517"><ele>32.0</ele><time>2026-03-22T14:23:38.011Z</time></trkpt><trkpt lat="43.3472833" lon="10.609175"><ele>32.0</ele><time>2026-03-22T14:23:39.009Z</time></trkpt><trkpt lat="43.3473" lon="10.6094"><ele>32.0</ele><time>2026-03-22T14:23:40.01Z</time></trkpt><trkpt lat="43.347315" lon="10.6096283"><ele>31.333333333333332</ele><time>2026-03-22T14:23:41.011Z</time></trkpt><trkpt lat="43.34733" lon="10.6098567"><ele>30.666666666666664</ele><time>2026-03-22T14:23:42.01Z</time></trkpt><trkpt lat="43.347345" lon="10.610085"><ele>30.0</ele><time>2026-03-22T14:23:43.011Z</time></trkpt><trkpt lat="43.347355" lon="10.6103133"><ele>31.0</ele><time>2026-03-22T14:23:44.01Z</time></trkpt><trkpt lat="43.3473583" lon="10.6105417"><ele>32.0</ele><time>2026-03-22T14:23:45.011Z</time></trkpt><trkpt lat="43.3473567" lon="10.61077"><ele>33.0</ele><time>2026-03-22T14:23:46.01Z</time></trkpt><trkpt lat="43.3473467" lon="10.6110017"><ele>35.333333333333336</ele><time>2026-03-22T14:23:47.01Z</time></trkpt><trkpt lat="43.3473283" lon="10.61123"><ele>37.66666666666667</ele><time>2026-03-22T14:23:48.009Z</time></trkpt><trkpt lat="43.3473017" lon="10.6114583"><ele>40.0</ele><time>2026-03-22T14:23:49.01Z</time></trkpt><trkpt lat="43.3472667" lon="10.6116833"><ele>40.0</ele><time>2026-03-22T14:23:50.01Z</time></trkpt><trkpt lat="43.347225" lon="10.6119033"><ele>40.0</ele><time>2026-03-22T14:23:51.01Z</time></trkpt><trkpt lat="43.3471783" lon="10.6121183"><ele>40.0</ele><time>2026-03-22T14:23:52.008Z</time></trkpt><trkpt lat="43.3471233" lon="10.6123333"><ele>36.333333333333336</ele><time>2026-03-22T14:23:53.01Z</time></trkpt><trkpt lat="43.3470633" lon="10.61255"><ele>32.666666666666664</ele><time>2026-03-22T14:23:54.011Z</time></trkpt><trkpt lat="43.347" lon="10.6127717"><ele>29.0</ele><time>2026-03-22T14:23:55.01Z</time></trkpt><trkpt lat="43.346935" lon="10.6129933"><ele>29.0</ele><time>2026-03-22T14:23:56.01Z</time></trkpt><trkpt lat="43.3468667" lon="10.6132167"><ele>29.0</ele><time>2026-03-22T14:23:57.01Z</time></trkpt><trkpt lat="43.3468" lon="10.6134433"><ele>29.0</ele><time>2026-03-22T14:23:58.009Z</time></trkpt><trkpt lat="43.346735" lon="10.6136717"><ele>30.333333333333332</ele><time>2026-03-22T14:23:59.008Z</time></trkpt><trkpt lat="43.34667" lon="10.6138967"><ele>31.666666666666664</ele><time>2026-03-22T14:24:00.01Z</time></trkpt><trkpt lat="43.3466033" lon="10.6141133"><ele>33.0</ele><time>2026-03-22T14:24:01.01Z</time></trkpt><trkpt lat="43.346535" lon="10.6143317"><ele>36.333333333333336</ele><time>2026-03-22T14:24:02.01Z</time></trkpt><trkpt lat="43.346465" lon="10.6145533"><ele>39.66666666666667</ele><time>2026-03-22T14:24:03.01Z</time></trkpt><trkpt lat="43.346395" lon="10.6147783"><ele>43.0</ele><time>2026-03-22T14:24:04.011Z</time></trkpt><trkpt lat="43.3463267" lon="10.615005"><ele>37.0</ele><time>2026-03-22T14:24:05.011Z</time></trkpt><trkpt lat="43.3462617" lon="10.6152317"><ele>31.0</ele><time>2026-03-22T14:24:06.01Z</time></trkpt><trkpt lat="43.346195" lon="10.61546"><ele>25.0</ele><time>2026-03-22T14:24:07.01Z</time></trkpt><trkpt lat="43.3461283" lon="10.6156917"><ele>25.0</ele><time>2026-03-22T14:24:08.012Z</time></trkpt><trkpt lat="43.34606" lon="10.6159217"><ele>25.0</ele><time>2026-03-22T14:24:09.011Z</time></trkpt><trkpt lat="43.3459933" lon="10.6161483"><ele>25.0</ele><time>2026-03-22T14:24:10.011Z</time></trkpt><trkpt lat="43.3459267" lon="10.61637"><ele>27.333333333333336</ele><time>2026-03-22T14:24:11.012Z</time></trkpt><trkpt lat="43.3458633" lon="10.6165867"><ele>29.666666666666664</ele><time>2026-03-22T14:24:12.011Z</time></trkpt><trkpt lat="43.345805" lon="10.6168033"><ele>32.0</ele><time>2026-03-22T14:24:13.009Z</time></trkpt><trkpt lat="43.3457483" lon="10.6170183"><ele>34.0</ele><time>2026-03-22T14:24:14.009Z</time></trkpt><trkpt lat="43.3456967" lon="10.6172367"><ele>36.0</ele><time>2026-03-22T14:24:15.012Z</time></trkpt><trkpt lat="43.3456617" lon="10.617455"><ele>38.0</ele><time>2026-03-22T14:24:16.01Z</time></trkpt><trkpt lat="43.3456383" lon="10.617675"><ele>37.33333333333333</ele><time>2026-03-22T14:24:17.01Z</time></trkpt><trkpt lat="43.345625" lon="10.617895"><ele>36.666666666666664</ele><time>2026-03-22T14:24:18.01Z</time></trkpt><trkpt lat="43.3456217" lon="10.618115"><ele>36.0</ele><time>2026-03-22T14:24:19.009Z</time></trkpt><trkpt lat="43.3456267" lon="10.6183317"><ele>36.0</ele><time>2026-03-22T14:24:20.01Z</time></trkpt><trkpt lat="43.3456433" lon="10.618545"><ele>36.0</ele><time>2026-03-22T14:24:21.01Z</time></trkpt><trkpt lat="43.34567" lon="10.6187583"><ele>36.0</ele><time>2026-03-22T14:24:22.01Z</time></trkpt><trkpt lat="43.3456933" lon="10.6189783"><ele>34.666666666666664</ele><time>2026-03-22T14:24:23.011Z</time></trkpt><trkpt lat="43.3457167" lon="10.6191967"><ele>33.33333333333333</ele><time>2026-03-22T14:24:24.01Z</time></trkpt><trkpt lat="43.3457383" lon="10.6194217"><ele>32.0</ele><time>2026-03-22T14:24:25.011Z</time></trkpt><trkpt lat="43.34576" lon="10.61965"><ele>31.333333333333332</ele><time>2026-03-22T14:24:26.01Z</time></trkpt><trkpt lat="43.3457883" lon="10.6198767"><ele>30.666666666666664</ele><time>2026-03-22T14:24:27.01Z</time></trkpt><trkpt lat="43.3458167" lon="10.6201033"><ele>30.0</ele><time>2026-03-22T14:24:28.011Z</time></trkpt><trkpt lat="43.3458483" lon="10.6203333"><ele>30.0</ele><time>2026-03-22T14:24:29.01Z</time></trkpt><trkpt lat="43.34589" lon="10.6205567"><ele>30.0</ele><time>2026-03-22T14:24:30.01Z</time></trkpt><trkpt lat="43.3459417" lon="10.620775"><ele>30.0</ele><time>2026-03-22T14:24:31.011Z</time></trkpt><trkpt lat="43.346005" lon="10.6209833"><ele>29.333333333333336</ele><time>2026-03-22T14:24:32.01Z</time></trkpt><trkpt lat="43.3460783" lon="10.6211833"><ele>28.666666666666668</ele><time>2026-03-22T14:24:33.01Z</time></trkpt><trkpt lat="43.3461617" lon="10.62137"><ele>28.0</ele><time>2026-03-22T14:24:34.01Z</time></trkpt><trkpt lat="43.3462533" lon="10.6215533"><ele>28.0</ele><time>2026-03-22T14:24:35.01Z</time></trkpt><trkpt lat="43.3463467" lon="10.6217267"><ele>28.0</ele><time>2026-03-22T14:24:36.011Z</time></trkpt><trkpt lat="43.3464517" lon="10.6218933"><ele>28.0</ele><time>2026-03-22T14:24:37.01Z</time></trkpt><trkpt lat="43.3465617" lon="10.6220533"><ele>28.666666666666668</ele><time>2026-03-22T14:24:38.011Z</time></trkpt><trkpt lat="43.346675" lon="10.6222067"><ele>29.333333333333336</ele><time>2026-03-22T14:24:39.009Z</time></trkpt><trkpt lat="43.3467883" lon="10.6223567"><ele>30.0</ele><time>2026-03-22T14:24:40.009Z</time></trkpt><trkpt lat="43.3469067" lon="10.6225117"><ele>30.0</ele><time>2026-03-22T14:24:41.012Z</time></trkpt><trkpt lat="43.3470233" lon="10.6226583"><ele>30.0</ele><time>2026-03-22T14:24:42.01Z</time></trkpt><trkpt lat="43.34714" lon="10.6228067"><ele>30.0</ele><time>2026-03-22T14:24:43.011Z</time></trkpt><trkpt lat="43.34726" lon="10.6229583"><ele>31.0</ele><time>2026-03-22T14:24:44.01Z</time></trkpt><trkpt lat="43.3473817" lon="10.6231083"><ele>32.0</ele><time>2026-03-22T14:24:45.01Z</time></trkpt><trkpt lat="43.3475033" lon="10.62326"><ele>33.0</ele><time>2026-03-22T14:24:46.01Z</time></trkpt><trkpt lat="43.347625" lon="10.6234067"><ele>33.0</ele><time>2026-03-22T14:24:47.011Z</time></trkpt><trkpt lat="43.3477417" lon="10.6235517"><ele>33.0</ele><time>2026-03-22T14:24:48.01Z</time></trkpt><trkpt lat="43.347855" lon="10.623695"><ele>33.0</ele><time>2026-03-22T14:24:49.01Z</time></trkpt><trkpt lat="43.3479583" lon="10.6238267"><ele>33.0</ele><time>2026-03-22T14:24:50.011Z</time></trkpt><trkpt lat="43.348055" lon="10.62395"><ele>33.0</ele><time>2026-03-22T14:24:51.01Z</time></trkpt><trkpt lat="43.3481383" lon="10.6240567"><ele>33.0</ele><time>2026-03-22T14:24:52.011Z</time></trkpt><trkpt lat="43.348205" lon="10.6241517"><ele>33.0</ele><time>2026-03-22T14:24:53.01Z</time></trkpt><trkpt lat="43.34826" lon="10.6242433"><ele>33.0</ele><time>2026-03-22T14:24:54.01Z</time></trkpt><trkpt lat="43.3482967" lon="10.624325"><ele>33.0</ele><time>2026-03-22T14:24:55.009Z</time></trkpt><trkpt lat="43.3483383" lon="10.6244233"><ele>33.0</ele><time>2026-03-22T14:24:57.01Z</time></trkpt><trkpt lat="43.3484" lon="10.6244783"><ele>33.0</ele><time>2026-03-22T14:26:12.011Z</time></trkpt><trkpt lat="43.3484567" lon="10.624535"><ele>33.0</ele><time>2026-03-22T14:26:18.01Z</time></trkpt><trkpt lat="43.34849" lon="10.6246133"><ele>33.0</ele><time>2026-03-22T14:26:24.01Z</time></trkpt><trkpt lat="43.3483992" lon="10.6245309"><ele>33.0</ele><time>2026-03-22T14:27:41.038Z</time></trkpt><trkpt lat="43.3483488" lon="10.6244714"><ele>32.8</ele><time>2026-03-22T14:27:48.052Z</time></trkpt><trkpt lat="43.348454" lon="10.6245432"><ele>32.599999999999994</ele><time>2026-03-22T14:29:05.009Z</time></trkpt><trkpt lat="43.3485095" lon="10.6245899"><ele>32.400000000000006</ele><time>2026-03-22T14:29:06.011Z</time></trkpt><trkpt lat="43.3485749" lon="10.6246602"><ele>32.2</ele><time>2026-03-22T14:29:07.01Z</time></trkpt><trkpt lat="43.3486548" lon="10.6247505"><ele>32.0</ele><time>2026-03-22T14:29:08.011Z</time></trkpt><trkpt lat="43.3487473" lon="10.6248532"><ele>32.0</ele><time>2026-03-22T14:29:09.011Z</time></trkpt><trkpt lat="43.3488461" lon="10.624961"><ele>32.0</ele><time>2026-03-22T14:29:10.01Z</time></trkpt><trkpt lat="43.348955" lon="10.625073"><ele>32.0</ele><time>2026-03-22T14:29:11.009Z</time></trkpt><trkpt lat="43.3490646" lon="10.6251892"><ele>32.0</ele><time>2026-03-22T14:29:12.009Z</time></trkpt><trkpt lat="43.3491697" lon="10.6252966"><ele>32.0</ele><time>2026-03-22T14:29:13.009Z</time></trkpt><trkpt lat="43.349281" lon="10.6254007"><ele>32.0</ele><time>2026-03-22T14:29:14.009Z</time></trkpt><trkpt lat="43.3493967" lon="10.6255026"><ele>32.0</ele><time>2026-03-22T14:29:15.009Z</time></trkpt><trkpt lat="43.3495149" lon="10.6255992"><ele>32.0</ele><time>2026-03-22T14:29:16.01Z</time></trkpt><trkpt lat="43.3496393" lon="10.62569"><ele>34.0</ele><time>2026-03-22T14:29:17.01Z</time></trkpt><trkpt lat="43.3497617" lon="10.6257735"><ele>36.0</ele><time>2026-03-22T14:29:18.01Z</time></trkpt><trkpt lat="43.3498834" lon="10.6258467"><ele>38.0</ele><time>2026-03-22T14:29:19.01Z</time></trkpt><trkpt lat="43.3499973" lon="10.6259144"><ele>40.0</ele><time>2026-03-22T14:29:20.01Z</time></trkpt><trkpt lat="43.3501006" lon="10.6259767"><ele>40.0</ele><time>2026-03-22T14:29:21.009Z</time></trkpt><trkpt lat="43.3501937" lon="10.6260379"><ele>40.0</ele><time>2026-03-22T14:29:22.008Z</time></trkpt><trkpt lat="43.3502717" lon="10.6261083"><ele>40.0</ele><time>2026-03-22T14:29:23.008Z</time></trkpt><trkpt lat="43.3503333" lon="10.626195"><ele>40.0</ele><time>2026-03-22T14:29:24.009Z</time></trkpt><trkpt lat="43.3503667" lon="10.6262917"><ele>40.0</ele><time>2026-03-22T14:29:25.008Z</time></trkpt><trkpt lat="43.3503717" lon="10.6264033"><ele>40.0</ele><time>2026-03-22T14:29:26.009Z</time></trkpt><trkpt lat="43.350325" lon="10.6265383"><ele>38.75</ele><time>2026-03-22T14:29:27.008Z</time></trkpt><trkpt lat="43.3502733" lon="10.6266767"><ele>37.5</ele><time>2026-03-22T14:29:28.008Z</time></trkpt><trkpt lat="43.3502033" lon="10.6268333"><ele>36.25</ele><time>2026-03-22T14:29:29.008Z</time></trkpt><trkpt lat="43.3501217" lon="10.6270133"><ele>35.0</ele><time>2026-03-22T14:29:30.01Z</time></trkpt><trkpt lat="43.3500317" lon="10.62721"><ele>35.0</ele><time>2026-03-22T14:29:31.009Z</time></trkpt><trkpt lat="43.34994" lon="10.6274067"><ele>35.0</ele><time>2026-03-22T14:29:32.009Z</time></trkpt><trkpt lat="43.349845" lon="10.6276033"><ele>35.0</ele><time>2026-03-22T14:29:33.009Z</time></trkpt><trkpt lat="43.349745" lon="10.6278067"><ele>34.666666666666664</ele><time>2026-03-22T14:29:34.011Z</time></trkpt><trkpt lat="43.3496467" lon="10.6280167"><ele>34.333333333333336</ele><time>2026-03-22T14:29:35.011Z</time></trkpt><trkpt lat="43.3495483" lon="10.6282333"><ele>34.0</ele><time>2026-03-22T14:29:36.01Z</time></trkpt><trkpt lat="43.349445" lon="10.628455"><ele>33.66666666666667</ele><time>2026-03-22T14:29:37.009Z</time></trkpt><trkpt lat="43.3493367" lon="10.6286767"><ele>33.333333333333336</ele><time>2026-03-22T14:29:38.009Z</time></trkpt><trkpt lat="43.3492283" lon="10.6288967"><ele>33.0</ele><time>2026-03-22T14:29:39.009Z</time></trkpt><trkpt lat="43.3491167" lon="10.629115"><ele>33.0</ele><time>2026-03-22T14:29:40.009Z</time></trkpt><trkpt lat="43.349005" lon="10.6293317"><ele>33.0</ele><time>2026-03-22T14:29:41.01Z</time></trkpt><trkpt lat="43.3488867" lon="10.629545"><ele>33.0</ele><time>2026-03-22T14:29:42.01Z</time></trkpt><trkpt lat="43.348765" lon="10.6297583"><ele>32.0</ele><time>2026-03-22T14:29:43.009Z</time></trkpt><trkpt lat="43.3486417" lon="10.6299767"><ele>31.0</ele><time>2026-03-22T14:29:44.009Z</time></trkpt><trkpt lat="43.34852" lon="10.6302067"><ele>30.0</ele><time>2026-03-22T14:29:45.008Z</time></trkpt><trkpt lat="43.3483933" lon="10.63045"><ele>29.5</ele><time>2026-03-22T14:29:46.009Z</time></trkpt><trkpt lat="43.3482517" lon="10.6307117"><ele>29.0</ele><time>2026-03-22T14:29:47.011Z</time></trkpt><trkpt lat="43.3480967" lon="10.6309817"><ele>30.5</ele><time>2026-03-22T14:29:48.01Z</time></trkpt><trkpt lat="43.3479317" lon="10.6312517"><ele>32.0</ele><time>2026-03-22T14:29:49.011Z</time></trkpt><trkpt lat="43.3477617" lon="10.63152"><ele>32.0</ele><time>2026-03-22T14:29:50.01Z</time></trkpt><trkpt lat="43.3475917" lon="10.631785"><ele>32.0</ele><time>2026-03-22T14:29:51.009Z</time></trkpt><trkpt lat="43.3474217" lon="10.6320483"><ele>33.5</ele><time>2026-03-22T14:29:52.01Z</time></trkpt><trkpt lat="43.3472567" lon="10.63231"><ele>35.0</ele><time>2026-03-22T14:29:53.012Z</time></trkpt><trkpt lat="43.3470933" lon="10.63257"><ele>34.0</ele><time>2026-03-22T14:29:54.01Z</time></trkpt><trkpt lat="43.3469317" lon="10.63282"><ele>33.0</ele><time>2026-03-22T14:29:55.009Z</time></trkpt><trkpt lat="43.3467733" lon="10.6330733"><ele>33.0</ele><time>2026-03-22T14:29:56.01Z</time></trkpt><trkpt lat="43.3466133" lon="10.6333217"><ele>33.0</ele><time>2026-03-22T14:29:57.009Z</time></trkpt><trkpt lat="43.3464583" lon="10.6335683"><ele>31.5</ele><time>2026-03-22T14:29:58.01Z</time></trkpt><trkpt lat="43.34631" lon="10.6338183"><ele>30.0</ele><time>2026-03-22T14:29:59.011Z</time></trkpt><trkpt lat="43.3461683" lon="10.63406"><ele>30.0</ele><time>2026-03-22T14:30:00.01Z</time></trkpt><trkpt lat="43.3460233" lon="10.6343017"><ele>30.0</ele><time>2026-03-22T14:30:01.01Z</time></trkpt><trkpt lat="43.345885" lon="10.6345417"><ele>35.0</ele><time>2026-03-22T14:30:02.011Z</time></trkpt><trkpt lat="43.34574" lon="10.6347833"><ele>40.0</ele><time>2026-03-22T14:30:03.013Z</time></trkpt><trkpt lat="43.3456" lon="10.6350267"><ele>38.66666666666667</ele><time>2026-03-22T14:30:04.009Z</time></trkpt><trkpt lat="43.34546" lon="10.6352617"><ele>37.333333333333336</ele><time>2026-03-22T14:30:05.011Z</time></trkpt><trkpt lat="43.3453233" lon="10.6354917"><ele>36.0</ele><time>2026-03-22T14:30:06.012Z</time></trkpt><trkpt lat="43.3451867" lon="10.6357183"><ele>36.0</ele><time>2026-03-22T14:30:07.01Z</time></trkpt><trkpt lat="43.34506" lon="10.635945"><ele>36.0</ele><time>2026-03-22T14:30:08.012Z</time></trkpt><trkpt lat="43.3449367" lon="10.6361733"><ele>36.0</ele><time>2026-03-22T14:30:09.01Z</time></trkpt><trkpt lat="43.344815" lon="10.636405"><ele>35.0</ele><time>2026-03-22T14:30:10.009Z</time></trkpt><trkpt lat="43.3446933" lon="10.6366383"><ele>34.0</ele><time>2026-03-22T14:30:11.011Z</time></trkpt><trkpt lat="43.3445767" lon="10.636875"><ele>33.0</ele><time>2026-03-22T14:30:12.008Z</time></trkpt><trkpt lat="43.3444633" lon="10.6371167"><ele>33.0</ele><time>2026-03-22T14:30:13.009Z</time></trkpt><trkpt lat="43.3443517" lon="10.6373617"><ele>33.0</ele><time>2026-03-22T14:30:14.009Z</time></trkpt><trkpt lat="43.3442383" lon="10.63761"><ele>33.0</ele><time>2026-03-22T14:30:15.009Z</time></trkpt><trkpt lat="43.3441233" lon="10.6378583"><ele>31.666666666666664</ele><time>2026-03-22T14:30:16.011Z</time></trkpt><trkpt lat="43.3440117" lon="10.63811"><ele>30.333333333333332</ele><time>2026-03-22T14:30:17.008Z</time></trkpt><trkpt lat="43.3438967" lon="10.6383633"><ele>29.0</ele><time>2026-03-22T14:30:18.01Z</time></trkpt><trkpt lat="43.3437833" lon="10.6386167"><ele>30.333333333333332</ele><time>2026-03-22T14:30:19.009Z</time></trkpt><trkpt lat="43.34366" lon="10.638865"><ele>31.666666666666664</ele><time>2026-03-22T14:30:20.011Z</time></trkpt><trkpt lat="43.34353" lon="10.6391067"><ele>33.0</ele><time>2026-03-22T14:30:21.009Z</time></trkpt><trkpt lat="43.34339" lon="10.6393367"><ele>33.0</ele><time>2026-03-22T14:30:22.009Z</time></trkpt><trkpt lat="43.34325" lon="10.6395583"><ele>33.0</ele><time>2026-03-22T14:30:23.01Z</time></trkpt><trkpt lat="43.3430983" lon="10.639775"><ele>33.0</ele><time>2026-03-22T14:30:24.01Z</time></trkpt><trkpt lat="43.3429417" lon="10.6399867"><ele>33.0</ele><time>2026-03-22T14:30:25.009Z</time></trkpt><trkpt lat="43.3427817" lon="10.640195"><ele>33.0</ele><time>2026-03-22T14:30:26.011Z</time></trkpt><trkpt lat="43.3426217" lon="10.6404"><ele>33.0</ele><time>2026-03-22T14:30:27.009Z</time></trkpt><trkpt lat="43.3424583" lon="10.6406"><ele>32.666666666666664</ele><time>2026-03-22T14:30:28.011Z</time></trkpt><trkpt lat="43.3422933" lon="10.6407983"><ele>32.33333333333333</ele><time>2026-03-22T14:30:29.011Z</time></trkpt><trkpt lat="43.3421267" lon="10.6409933"><ele>32.0</ele><time>2026-03-22T14:30:30.011Z</time></trkpt><trkpt lat="43.341965" lon="10.64119"><ele>32.666666666666664</ele><time>2026-03-22T14:30:31.01Z</time></trkpt><trkpt lat="43.3418017" lon="10.6413867"><ele>33.333333333333336</ele><time>2026-03-22T14:30:32.01Z</time></trkpt><trkpt lat="43.34164" lon="10.6415833"><ele>34.0</ele><time>2026-03-22T14:30:33.012Z</time></trkpt><trkpt lat="43.3414817" lon="10.64178"><ele>32.66666666666667</ele><time>2026-03-22T14:30:34.01Z</time></trkpt><trkpt lat="43.3413183" lon="10.6419733"><ele>31.333333333333336</ele><time>2026-03-22T14:30:35.01Z</time></trkpt><trkpt lat="43.34116" lon="10.64217"><ele>30.0</ele><time>2026-03-22T14:30:36.01Z</time></trkpt><trkpt lat="43.3410017" lon="10.642365"><ele>30.0</ele><time>2026-03-22T14:30:37.012Z</time></trkpt><trkpt lat="43.3408417" lon="10.6425583"><ele>30.0</ele><time>2026-03-22T14:30:38.013Z</time></trkpt><trkpt lat="43.3406867" lon="10.642755"><ele>30.0</ele><time>2026-03-22T14:30:39.009Z</time></trkpt><trkpt lat="43.3405383" lon="10.642955"><ele>30.333333333333336</ele><time>2026-03-22T14:30:40.009Z</time></trkpt><trkpt lat="43.340395" lon="10.6431617"><ele>30.666666666666668</ele><time>2026-03-22T14:30:41.009Z</time></trkpt><trkpt lat="43.3402633" lon="10.6433783"><ele>31.0</ele><time>2026-03-22T14:30:42.008Z</time></trkpt><trkpt lat="43.3401483" lon="10.6436117"><ele>31.333333333333336</ele><time>2026-03-22T14:30:43.009Z</time></trkpt><trkpt lat="43.3400483" lon="10.6438583"><ele>31.666666666666664</ele><time>2026-03-22T14:30:44.009Z</time></trkpt><trkpt lat="43.3399617" lon="10.64411"><ele>32.0</ele><time>2026-03-22T14:30:45.009Z</time></trkpt><trkpt lat="43.3398917" lon="10.6443683"><ele>31.666666666666664</ele><time>2026-03-22T14:30:46.01Z</time></trkpt><trkpt lat="43.3398283" lon="10.644635"><ele>31.333333333333336</ele><time>2026-03-22T14:30:47.009Z</time></trkpt><trkpt lat="43.3397633" lon="10.6449"><ele>31.0</ele><time>2026-03-22T14:30:48.009Z</time></trkpt><trkpt lat="43.3397" lon="10.6451617"><ele>31.0</ele><time>2026-03-22T14:30:49.009Z</time></trkpt><trkpt lat="43.339635" lon="10.6454217"><ele>31.0</ele><time>2026-03-22T14:30:50.01Z</time></trkpt><trkpt lat="43.3395683" lon="10.645695"><ele>31.0</ele><time>2026-03-22T14:30:51.01Z</time></trkpt><trkpt lat="43.3395" lon="10.6459917"><ele>31.5</ele><time>2026-03-22T14:30:52.009Z</time></trkpt><trkpt lat="43.3394283" lon="10.6463017"><ele>32.0</ele><time>2026-03-22T14:30:53.01Z</time></trkpt><trkpt lat="43.3393483" lon="10.6466217"><ele>32.0</ele><time>2026-03-22T14:30:54.008Z</time></trkpt><trkpt lat="43.3392667" lon="10.6469433"><ele>32.0</ele><time>2026-03-22T14:30:55.009Z</time></trkpt><trkpt lat="43.339185" lon="10.647265"><ele>32.0</ele><time>2026-03-22T14:30:56.01Z</time></trkpt><trkpt lat="43.3391067" lon="10.64758"><ele>32.0</ele><time>2026-03-22T14:30:57.009Z</time></trkpt><trkpt lat="43.339025" lon="10.6478933"><ele>32.0</ele><time>2026-03-22T14:30:58.01Z</time></trkpt><trkpt lat="43.338945" lon="10.6482017"><ele>32.0</ele><time>2026-03-22T14:30:59.01Z</time></trkpt><trkpt lat="43.3388617" lon="10.648505"><ele>32.0</ele><time>2026-03-22T14:31:00.009Z</time></trkpt><trkpt lat="43.3387733" lon="10.6487983"><ele>32.0</ele><time>2026-03-22T14:31:01.01Z</time></trkpt><trkpt lat="43.3386783" lon="10.6490867"><ele>32.0</ele><time>2026-03-22T14:31:02.01Z</time></trkpt><trkpt lat="43.3385683" lon="10.649365"><ele>32.0</ele><time>2026-03-22T14:31:03.009Z</time></trkpt><trkpt lat="43.33845" lon="10.6496317"><ele>32.0</ele><time>2026-03-22T14:31:04.01Z</time></trkpt><trkpt lat="43.3383233" lon="10.6498883"><ele>32.0</ele><time>2026-03-22T14:31:05.01Z</time></trkpt><trkpt lat="43.3381883" lon="10.6501367"><ele>31.666666666666664</ele><time>2026-03-22T14:31:06.01Z</time></trkpt><trkpt lat="43.338045" lon="10.6503717"><ele>31.333333333333336</ele><time>2026-03-22T14:31:07.01Z</time></trkpt><trkpt lat="43.3378983" lon="10.6506"><ele>31.0</ele><time>2026-03-22T14:31:08.009Z</time></trkpt><trkpt lat="43.3377483" lon="10.6508233"><ele>31.0</ele><time>2026-03-22T14:31:09.01Z</time></trkpt><trkpt lat="43.337595" lon="10.651045"><ele>31.0</ele><time>2026-03-22T14:31:10.01Z</time></trkpt><trkpt lat="43.3374383" lon="10.6512617"><ele>31.0</ele><time>2026-03-22T14:31:11.009Z</time></trkpt><trkpt lat="43.337295" lon="10.6514683"><ele>31.333333333333336</ele><time>2026-03-22T14:31:12.011Z</time></trkpt><trkpt lat="43.3371567" lon="10.65166"><ele>31.666666666666664</ele><time>2026-03-22T14:31:13.01Z</time></trkpt><trkpt lat="43.3370283" lon="10.65184"><ele>32.0</ele><time>2026-03-22T14:31:14.01Z</time></trkpt><trkpt lat="43.3369083" lon="10.6520083"><ele>32.25</ele><time>2026-03-22T14:31:15.01Z</time></trkpt><trkpt lat="43.3368033" lon="10.652165"><ele>32.5</ele><time>2026-03-22T14:31:16.01Z</time></trkpt><trkpt lat="43.3367117" lon="10.6523017"><ele>32.75</ele><time>2026-03-22T14:31:17.009Z</time></trkpt><trkpt lat="43.3366283" lon="10.6524183"><ele>33.0</ele><time>2026-03-22T14:31:18.009Z</time></trkpt><trkpt lat="43.33654" lon="10.6525117"><ele>33.0</ele><time>2026-03-22T14:31:19.011Z</time></trkpt><trkpt lat="43.336445" lon="10.6525933"><ele>33.0</ele><time>2026-03-22T14:31:20.01Z</time></trkpt><trkpt lat="43.3363583" lon="10.6526883"><ele>33.0</ele><time>2026-03-22T14:31:21.009Z</time></trkpt><trkpt lat="43.3362867" lon="10.6528183"><ele>33.0</ele><time>2026-03-22T14:31:22.009Z</time></trkpt><trkpt lat="43.3362283" lon="10.6529733"><ele>33.0</ele><time>2026-03-22T14:31:23.01Z</time></trkpt><trkpt lat="43.33616" lon="10.65314"><ele>33.0</ele><time>2026-03-22T14:31:24.01Z</time></trkpt><trkpt lat="43.33606" lon="10.653315"><ele>33.0</ele><time>2026-03-22T14:31:25.01Z</time></trkpt><trkpt lat="43.3359467" lon="10.6534967"><ele>34.666666666666664</ele><time>2026-03-22T14:31:26.01Z</time></trkpt><trkpt lat="43.33583" lon="10.6536817"><ele>36.33333333333333</ele><time>2026-03-22T14:31:27.01Z</time></trkpt><trkpt lat="43.335715" lon="10.6538733"><ele>38.0</ele><time>2026-03-22T14:31:28.009Z</time></trkpt><trkpt lat="43.3356" lon="10.6540717"><ele>36.33333333333333</ele><time>2026-03-22T14:31:29.012Z</time></trkpt><trkpt lat="43.335485" lon="10.654275"><ele>34.666666666666664</ele><time>2026-03-22T14:31:30.01Z</time></trkpt><trkpt lat="43.3353667" lon="10.6544817"><ele>33.0</ele><time>2026-03-22T14:31:31.012Z</time></trkpt><trkpt lat="43.3352533" lon="10.6546883"><ele>33.0</ele><time>2026-03-22T14:31:32.01Z</time></trkpt><trkpt lat="43.335135" lon="10.6549017"><ele>33.0</ele><time>2026-03-22T14:31:33.01Z</time></trkpt><trkpt lat="43.33502" lon="10.6551183"><ele>33.0</ele><time>2026-03-22T14:31:34.01Z</time></trkpt><trkpt lat="43.3349033" lon="10.6553417"><ele>32.333333333333336</ele><time>2026-03-22T14:31:35.01Z</time></trkpt><trkpt lat="43.334785" lon="10.6555683"><ele>31.666666666666668</ele><time>2026-03-22T14:31:36.009Z</time></trkpt><trkpt lat="43.3346683" lon="10.655795"><ele>31.0</ele><time>2026-03-22T14:31:37.01Z</time></trkpt><trkpt lat="43.3345517" lon="10.65602"><ele>31.666666666666668</ele><time>2026-03-22T14:31:38.01Z</time></trkpt><trkpt lat="43.3344317" lon="10.6562467"><ele>32.333333333333336</ele><time>2026-03-22T14:31:39.009Z</time></trkpt><trkpt lat="43.33431" lon="10.65647"><ele>33.0</ele><time>2026-03-22T14:31:40.01Z</time></trkpt><trkpt lat="43.334185" lon="10.656695"><ele>33.0</ele><time>2026-03-22T14:31:41.009Z</time></trkpt><trkpt lat="43.3340567" lon="10.6569233"><ele>33.0</ele><time>2026-03-22T14:31:42.011Z</time></trkpt><trkpt lat="43.3339333" lon="10.6571483"><ele>33.0</ele><time>2026-03-22T14:31:43.01Z</time></trkpt><trkpt lat="43.3338083" lon="10.6573717"><ele>32.666666666666664</ele><time>2026-03-22T14:31:44.009Z</time></trkpt><trkpt lat="43.3336867" lon="10.657595"><ele>32.33333333333333</ele><time>2026-03-22T14:31:45.009Z</time></trkpt><trkpt lat="43.3335683" lon="10.65782"><ele>32.0</ele><time>2026-03-22T14:31:46.01Z</time></trkpt><trkpt lat="43.333445" lon="10.6580467"><ele>32.0</ele><time>2026-03-22T14:31:47.01Z</time></trkpt><trkpt lat="43.3333167" lon="10.658275"><ele>32.0</ele><time>2026-03-22T14:31:48.009Z</time></trkpt><trkpt lat="43.33319" lon="10.6585017"><ele>32.0</ele><time>2026-03-22T14:31:49.01Z</time></trkpt><trkpt lat="43.333065" lon="10.65873"><ele>33.0</ele><time>2026-03-22T14:31:50.012Z</time></trkpt><trkpt lat="43.3329417" lon="10.65896"><ele>34.0</ele><time>2026-03-22T14:31:51.01Z</time></trkpt><trkpt lat="43.3328183" lon="10.65919"><ele>35.0</ele><time>2026-03-22T14:31:52.01Z</time></trkpt><trkpt lat="43.3326933" lon="10.6594183"><ele>36.33333333333333</ele><time>2026-03-22T14:31:53.011Z</time></trkpt><trkpt lat="43.332565" lon="10.6596433"><ele>37.666666666666664</ele><time>2026-03-22T14:31:54.009Z</time></trkpt><trkpt lat="43.3324317" lon="10.65987"><ele>39.0</ele><time>2026-03-22T14:31:55.009Z</time></trkpt><trkpt lat="43.332295" lon="10.6600933"><ele>38.0</ele><time>2026-03-22T14:31:56.01Z</time></trkpt><trkpt lat="43.3321533" lon="10.6603133"><ele>37.0</ele><time>2026-03-22T14:31:57.011Z</time></trkpt><trkpt lat="43.3320067" lon="10.6605283"><ele>36.0</ele><time>2026-03-22T14:31:58.01Z</time></trkpt><trkpt lat="43.3318567" lon="10.6607333"><ele>36.0</ele><time>2026-03-22T14:31:59.01Z</time></trkpt><trkpt lat="43.3316967" lon="10.660925"><ele>36.0</ele><time>2026-03-22T14:32:00.01Z</time></trkpt><trkpt lat="43.3315317" lon="10.661105"><ele>36.0</ele><time>2026-03-22T14:32:01.01Z</time></trkpt><trkpt lat="43.3313567" lon="10.6612717"><ele>37.333333333333336</ele><time>2026-03-22T14:32:02.013Z</time></trkpt><trkpt lat="43.3311783" lon="10.6614267"><ele>38.66666666666667</ele><time>2026-03-22T14:32:03.01Z</time></trkpt><trkpt lat="43.3309967" lon="10.661575"><ele>40.0</ele><time>2026-03-22T14:32:04.01Z</time></trkpt><trkpt lat="43.3308117" lon="10.66171"><ele>40.0</ele><time>2026-03-22T14:32:05.012Z</time></trkpt><trkpt lat="43.3306267" lon="10.6618283"><ele>40.0</ele><time>2026-03-22T14:32:06.011Z</time></trkpt><trkpt lat="43.3304383" lon="10.6619317"><ele>40.0</ele><time>2026-03-22T14:32:07.01Z</time></trkpt><trkpt lat="43.3302433" lon="10.662025"><ele>39.333333333333336</ele><time>2026-03-22T14:32:08.011Z</time></trkpt><trkpt lat="43.3300583" lon="10.662115"><ele>38.666666666666664</ele><time>2026-03-22T14:32:09.009Z</time></trkpt><trkpt lat="43.3298733" lon="10.6621967"><ele>38.0</ele><time>2026-03-22T14:32:10.011Z</time></trkpt><trkpt lat="43.3296933" lon="10.6622767"><ele>37.0</ele><time>2026-03-22T14:32:11.01Z</time></trkpt><trkpt lat="43.3295183" lon="10.6623567"><ele>36.0</ele><time>2026-03-22T14:32:12.01Z</time></trkpt><trkpt lat="43.329355" lon="10.6624517"><ele>35.0</ele><time>2026-03-22T14:32:13.01Z</time></trkpt><trkpt lat="43.3292033" lon="10.662555"><ele>35.0</ele><time>2026-03-22T14:32:14.01Z</time></trkpt><trkpt lat="43.3290667" lon="10.66267"><ele>35.0</ele><time>2026-03-22T14:32:15.009Z</time></trkpt><trkpt lat="43.3289433" lon="10.6628067"><ele>35.0</ele><time>2026-03-22T14:32:16.009Z</time></trkpt><trkpt lat="43.3288267" lon="10.6629633"><ele>35.0</ele><time>2026-03-22T14:32:17.009Z</time></trkpt><trkpt lat="43.328725" lon="10.66314"><ele>35.0</ele><time>2026-03-22T14:32:18.01Z</time></trkpt><trkpt lat="43.3286367" lon="10.6633317"><ele>35.0</ele><time>2026-03-22T14:32:19.01Z</time></trkpt><trkpt lat="43.3285667" lon="10.6635317"><ele>35.0</ele><time>2026-03-22T14:32:20.009Z</time></trkpt><trkpt lat="43.3285117" lon="10.6637383"><ele>35.0</ele><time>2026-03-22T14:32:21.009Z</time></trkpt><trkpt lat="43.328475" lon="10.6639367"><ele>35.0</ele><time>2026-03-22T14:32:22.01Z</time></trkpt><trkpt lat="43.3284567" lon="10.6641217"><ele>35.0</ele><time>2026-03-22T14:32:23.008Z</time></trkpt><trkpt lat="43.3284533" lon="10.6642983"><ele>35.75</ele><time>2026-03-22T14:32:24.01Z</time></trkpt><trkpt lat="43.328465" lon="10.664465"><ele>36.5</ele><time>2026-03-22T14:32:25.01Z</time></trkpt><trkpt lat="43.328475" lon="10.664635"><ele>37.25</ele><time>2026-03-22T14:32:26.009Z</time></trkpt><trkpt lat="43.3284867" lon="10.6648017"><ele>38.0</ele><time>2026-03-22T14:32:27.01Z</time></trkpt><trkpt lat="43.3284983" lon="10.6649683"><ele>38.0</ele><time>2026-03-22T14:32:28.01Z</time></trkpt><trkpt lat="43.3285083" lon="10.665135"><ele>38.0</ele><time>2026-03-22T14:32:29.013Z</time></trkpt><trkpt lat="43.3285167" lon="10.6653067"><ele>38.0</ele><time>2026-03-22T14:32:30.01Z</time></trkpt><trkpt lat="43.3285283" lon="10.6654833"><ele>38.0</ele><time>2026-03-22T14:32:31.012Z</time></trkpt><trkpt lat="43.3285433" lon="10.66566"><ele>38.0</ele><time>2026-03-22T14:32:32.011Z</time></trkpt><trkpt lat="43.32856" lon="10.6658333"><ele>38.0</ele><time>2026-03-22T14:32:33.01Z</time></trkpt><trkpt lat="43.3285867" lon="10.6660033"><ele>38.0</ele><time>2026-03-22T14:32:34.01Z</time></trkpt><trkpt lat="43.328615" lon="10.6661783"><ele>38.0</ele><time>2026-03-22T14:32:35.009Z</time></trkpt><trkpt lat="43.3286433" lon="10.6663583"><ele>37.75</ele><time>2026-03-22T14:32:36.01Z</time></trkpt><trkpt lat="43.3286717" lon="10.6665383"><ele>37.5</ele><time>2026-03-22T14:32:37.011Z</time></trkpt><trkpt lat="43.3286983" lon="10.6667183"><ele>37.25</ele><time>2026-03-22T14:32:38.011Z</time></trkpt><trkpt lat="43.328725" lon="10.6669017"><ele>37.0</ele><time>2026-03-22T14:32:39.011Z</time></trkpt><trkpt lat="43.3287533" lon="10.6670833"><ele>37.0</ele><time>2026-03-22T14:32:40.01Z</time></trkpt><trkpt lat="43.3287817" lon="10.6672633"><ele>37.0</ele><time>2026-03-22T14:32:41.01Z</time></trkpt><trkpt lat="43.3288083" lon="10.6674483"><ele>37.0</ele><time>2026-03-22T14:32:42.009Z</time></trkpt><trkpt lat="43.328835" lon="10.6676317"><ele>37.0</ele><time>2026-03-22T14:32:43.01Z</time></trkpt><trkpt lat="43.32887" lon="10.6678183"><ele>36.75</ele><time>2026-03-22T14:32:44.01Z</time></trkpt><trkpt lat="43.3289017" lon="10.66801"><ele>36.5</ele><time>2026-03-22T14:32:45.009Z</time></trkpt><trkpt lat="43.3289333" lon="10.668205"><ele>36.25</ele><time>2026-03-22T14:32:46.008Z</time></trkpt><trkpt lat="43.3289667" lon="10.6683933"><ele>36.0</ele><time>2026-03-22T14:32:47.009Z</time></trkpt><trkpt lat="43.3290017" lon="10.66859"><ele>35.5</ele><time>2026-03-22T14:32:48.009Z</time></trkpt><trkpt lat="43.329035" lon="10.6687867"><ele>35.0</ele><time>2026-03-22T14:32:49.01Z</time></trkpt><trkpt lat="43.329065" lon="10.6689817"><ele>34.5</ele><time>2026-03-22T14:32:50.01Z</time></trkpt><trkpt lat="43.3290933" lon="10.6691733"><ele>34.0</ele><time>2026-03-22T14:32:51.01Z</time></trkpt><trkpt lat="43.3291167" lon="10.6693567"><ele>34.2</ele><time>2026-03-22T14:32:52.012Z</time></trkpt><trkpt lat="43.329135" lon="10.669525"><ele>34.4</ele><time>2026-03-22T14:32:53.01Z</time></trkpt><trkpt lat="43.329155" lon="10.6696767"><ele>34.6</ele><time>2026-03-22T14:32:54.009Z</time></trkpt><trkpt lat="43.329175" lon="10.6698217"><ele>34.8</ele><time>2026-03-22T14:32:55.011Z</time></trkpt><trkpt lat="43.3291867" lon="10.6699633"><ele>35.0</ele><time>2026-03-22T14:32:56.01Z</time></trkpt><trkpt lat="43.3291717" lon="10.6701067"><ele>35.0</ele><time>2026-03-22T14:32:57.009Z</time></trkpt><trkpt lat="43.3291367" lon="10.6702333"><ele>35.0</ele><time>2026-03-22T14:32:58.01Z</time></trkpt><trkpt lat="43.3291033" lon="10.67035"><ele>35.0</ele><time>2026-03-22T14:32:59.01Z</time></trkpt><trkpt lat="43.329095" lon="10.67047"><ele>35.0</ele><time>2026-03-22T14:33:00.009Z</time></trkpt><trkpt lat="43.3291167" lon="10.6705917"><ele>35.0</ele><time>2026-03-22T14:33:01.011Z</time></trkpt><trkpt lat="43.32917" lon="10.6707033"><ele>35.5</ele><time>2026-03-22T14:33:02.01Z</time></trkpt><trkpt lat="43.3292367" lon="10.6708117"><ele>36.0</ele><time>2026-03-22T14:33:03.011Z</time></trkpt><trkpt lat="43.3293033" lon="10.6709533"><ele>36.5</ele><time>2026-03-22T14:33:04.01Z</time></trkpt><trkpt lat="43.329355" lon="10.6711317"><ele>37.0</ele><time>2026-03-22T14:33:05.011Z</time></trkpt><trkpt lat="43.3293917" lon="10.6713333"><ele>37.333333333333336</ele><time>2026-03-22T14:33:06.01Z</time></trkpt><trkpt lat="43.329425" lon="10.6715533"><ele>37.666666666666664</ele><time>2026-03-22T14:33:07.011Z</time></trkpt><trkpt lat="43.3294583" lon="10.6717783"><ele>38.0</ele><time>2026-03-22T14:33:08.01Z</time></trkpt><trkpt lat="43.32949" lon="10.672"><ele>38.0</ele><time>2026-03-22T14:33:09.011Z</time></trkpt><trkpt lat="43.3295217" lon="10.67223"><ele>38.0</ele><time>2026-03-22T14:33:10.01Z</time></trkpt><trkpt lat="43.3295533" lon="10.6724617"><ele>38.0</ele><time>2026-03-22T14:33:11.009Z</time></trkpt><trkpt lat="43.3295883" lon="10.672695"><ele>37.666666666666664</ele><time>2026-03-22T14:33:12.012Z</time></trkpt><trkpt lat="43.32962" lon="10.67293"><ele>37.333333333333336</ele><time>2026-03-22T14:33:13.009Z</time></trkpt><trkpt lat="43.3296533" lon="10.6731667"><ele>37.0</ele><time>2026-03-22T14:33:14.008Z</time></trkpt><trkpt lat="43.329685" lon="10.6734217"><ele>37.333333333333336</ele><time>2026-03-22T14:33:15.01Z</time></trkpt><trkpt lat="43.3297117" lon="10.6736767"><ele>37.666666666666664</ele><time>2026-03-22T14:33:16.01Z</time></trkpt><trkpt lat="43.3297333" lon="10.6739267"><ele>38.0</ele><time>2026-03-22T14:33:17.009Z</time></trkpt><trkpt lat="43.329755" lon="10.67419"><ele>38.0</ele><time>2026-03-22T14:33:18.009Z</time></trkpt><trkpt lat="43.329775" lon="10.674465"><ele>38.0</ele><time>2026-03-22T14:33:19.009Z</time></trkpt><trkpt lat="43.3297917" lon="10.6747483"><ele>38.0</ele><time>2026-03-22T14:33:20.011Z</time></trkpt><trkpt lat="43.3298033" lon="10.6750417"><ele>38.0</ele><time>2026-03-22T14:33:21.01Z</time></trkpt><trkpt lat="43.3298083" lon="10.6753317"><ele>38.0</ele><time>2026-03-22T14:33:22.01Z</time></trkpt><trkpt lat="43.3298133" lon="10.6756217"><ele>38.0</ele><time>2026-03-22T14:33:23.011Z</time></trkpt><trkpt lat="43.3298183" lon="10.6759117"><ele>37.666666666666664</ele><time>2026-03-22T14:33:24.01Z</time></trkpt><trkpt lat="43.3298233" lon="10.6762"><ele>37.333333333333336</ele><time>2026-03-22T14:33:25.01Z</time></trkpt><trkpt lat="43.329825" lon="10.67649"><ele>37.0</ele><time>2026-03-22T14:33:26.01Z</time></trkpt><trkpt lat="43.329825" lon="10.6767783"><ele>38.333333333333336</ele><time>2026-03-22T14:33:27.009Z</time></trkpt><trkpt lat="43.3298217" lon="10.6770667"><ele>39.666666666666664</ele><time>2026-03-22T14:33:28.01Z</time></trkpt><trkpt lat="43.3298167" lon="10.6773567"><ele>41.0</ele><time>2026-03-22T14:33:29.01Z</time></trkpt><trkpt lat="43.32981" lon="10.6776467"><ele>43.666666666666664</ele><time>2026-03-22T14:33:30.01Z</time></trkpt><trkpt lat="43.3298017" lon="10.6779383"><ele>46.33333333333333</ele><time>2026-03-22T14:33:31.011Z</time></trkpt><trkpt lat="43.3297883" lon="10.678225"><ele>49.0</ele><time>2026-03-22T14:33:32.012Z</time></trkpt><trkpt lat="43.329775" lon="10.6785133"><ele>48.666666666666664</ele><time>2026-03-22T14:33:33.009Z</time></trkpt><trkpt lat="43.3297583" lon="10.6787983"><ele>48.33333333333333</ele><time>2026-03-22T14:33:34.009Z</time></trkpt><trkpt lat="43.3297417" lon="10.6790867"><ele>48.0</ele><time>2026-03-22T14:33:35.01Z</time></trkpt><trkpt lat="43.329725" lon="10.6793733"><ele>45.0</ele><time>2026-03-22T14:33:36.012Z</time></trkpt><trkpt lat="43.3297017" lon="10.6796433"><ele>42.0</ele><time>2026-03-22T14:33:37.01Z</time></trkpt><trkpt lat="43.32967" lon="10.6798983"><ele>39.0</ele><time>2026-03-22T14:33:38.013Z</time></trkpt><trkpt lat="43.3296383" lon="10.6801467"><ele>38.666666666666664</ele><time>2026-03-22T14:33:39.011Z</time></trkpt><trkpt lat="43.3296033" lon="10.68039"><ele>38.33333333333333</ele><time>2026-03-22T14:33:40.01Z</time></trkpt><trkpt lat="43.32957" lon="10.68063"><ele>38.0</ele><time>2026-03-22T14:33:41.01Z</time></trkpt><trkpt lat="43.3295317" lon="10.680865"><ele>38.0</ele><time>2026-03-22T14:33:42.012Z</time></trkpt><trkpt lat="43.3294933" lon="10.681105"><ele>38.0</ele><time>2026-03-22T14:33:43.009Z</time></trkpt><trkpt lat="43.3294567" lon="10.6813567"><ele>38.0</ele><time>2026-03-22T14:33:44.01Z</time></trkpt><trkpt lat="43.3294117" lon="10.6816267"><ele>38.0</ele><time>2026-03-22T14:33:45.009Z</time></trkpt><trkpt lat="43.3293567" lon="10.6819133"><ele>38.0</ele><time>2026-03-22T14:33:46.01Z</time></trkpt><trkpt lat="43.3292967" lon="10.6822117"><ele>38.0</ele><time>2026-03-22T14:33:47.009Z</time></trkpt><trkpt lat="43.3292333" lon="10.682515"><ele>40.0</ele><time>2026-03-22T14:33:48.01Z</time></trkpt><trkpt lat="43.3291683" lon="10.68282"><ele>42.0</ele><time>2026-03-22T14:33:49.011Z</time></trkpt><trkpt lat="43.3291017" lon="10.6831283"><ele>42.0</ele><time>2026-03-22T14:33:50.01Z</time></trkpt><trkpt lat="43.3290317" lon="10.6834433"><ele>42.0</ele><time>2026-03-22T14:33:51.01Z</time></trkpt><trkpt lat="43.328955" lon="10.68376"><ele>42.0</ele><time>2026-03-22T14:33:52.01Z</time></trkpt><trkpt lat="43.32887" lon="10.6840767"><ele>42.0</ele><time>2026-03-22T14:33:53.01Z</time></trkpt><trkpt lat="43.32878" lon="10.6843867"><ele>43.0</ele><time>2026-03-22T14:33:54.009Z</time></trkpt><trkpt lat="43.3286967" lon="10.6846883"><ele>44.0</ele><time>2026-03-22T14:33:55.01Z</time></trkpt><trkpt lat="43.32862" lon="10.6849883"><ele>44.5</ele><time>2026-03-22T14:33:56.01Z</time></trkpt><trkpt lat="43.3285483" lon="10.6852867"><ele>45.0</ele><time>2026-03-22T14:33:57.009Z</time></trkpt><trkpt lat="43.3284817" lon="10.685585"><ele>45.0</ele><time>2026-03-22T14:33:58.011Z</time></trkpt><trkpt lat="43.32843" lon="10.6858833"><ele>45.0</ele><time>2026-03-22T14:33:59.01Z</time></trkpt><trkpt lat="43.3283917" lon="10.686185"><ele>45.0</ele><time>2026-03-22T14:34:00.009Z</time></trkpt><trkpt lat="43.3283683" lon="10.6864867"><ele>45.0</ele><time>2026-03-22T14:34:01.009Z</time></trkpt><trkpt lat="43.328355" lon="10.6867867"><ele>45.0</ele><time>2026-03-22T14:34:02.009Z</time></trkpt><trkpt lat="43.3283567" lon="10.6870883"><ele>45.0</ele><time>2026-03-22T14:34:03.009Z</time></trkpt><trkpt lat="43.328375" lon="10.6873867"><ele>44.666666666666664</ele><time>2026-03-22T14:34:04.009Z</time></trkpt><trkpt lat="43.3284133" lon="10.687685"><ele>44.33333333333333</ele><time>2026-03-22T14:34:05.01Z</time></trkpt><trkpt lat="43.3284633" lon="10.6879817"><ele>44.0</ele><time>2026-03-22T14:34:06.01Z</time></trkpt><trkpt lat="43.3285283" lon="10.6882733"><ele>43.666666666666664</ele><time>2026-03-22T14:34:07.01Z</time></trkpt><trkpt lat="43.3286117" lon="10.6885533"><ele>43.333333333333336</ele><time>2026-03-22T14:34:08.011Z</time></trkpt><trkpt lat="43.3286983" lon="10.6888367"><ele>43.0</ele><time>2026-03-22T14:34:09.011Z</time></trkpt><trkpt lat="43.3287917" lon="10.689115"><ele>42.66666666666667</ele><time>2026-03-22T14:34:10.009Z</time></trkpt><trkpt lat="43.3288917" lon="10.6893883"><ele>42.333333333333336</ele><time>2026-03-22T14:34:11.009Z</time></trkpt><trkpt lat="43.3290017" lon="10.6896583"><ele>42.0</ele><time>2026-03-22T14:34:12.011Z</time></trkpt><trkpt lat="43.3291117" lon="10.6899283"><ele>42.0</ele><time>2026-03-22T14:34:13.01Z</time></trkpt><trkpt lat="43.3292217" lon="10.6902"><ele>42.0</ele><time>2026-03-22T14:34:14.011Z</time></trkpt><trkpt lat="43.3293317" lon="10.6904667"><ele>42.0</ele><time>2026-03-22T14:34:15.011Z</time></trkpt><trkpt lat="43.3294417" lon="10.6907317"><ele>42.0</ele><time>2026-03-22T14:34:16.01Z</time></trkpt><trkpt lat="43.3295483" lon="10.69099"><ele>42.0</ele><time>2026-03-22T14:34:17.009Z</time></trkpt><trkpt lat="43.32965" lon="10.6912467"><ele>42.0</ele><time>2026-03-22T14:34:18.01Z</time></trkpt><trkpt lat="43.32974" lon="10.6915033"><ele>42.0</ele><time>2026-03-22T14:34:19.009Z</time></trkpt><trkpt lat="43.3298217" lon="10.6917617"><ele>42.0</ele><time>2026-03-22T14:34:20.01Z</time></trkpt><trkpt lat="43.3298883" lon="10.69202"><ele>42.0</ele><time>2026-03-22T14:34:21.01Z</time></trkpt><trkpt lat="43.329945" lon="10.6922767"><ele>43.333333333333336</ele><time>2026-03-22T14:34:22.009Z</time></trkpt><trkpt lat="43.3299967" lon="10.6925317"><ele>44.66666666666667</ele><time>2026-03-22T14:34:23.01Z</time></trkpt><trkpt lat="43.3300467" lon="10.6927817"><ele>46.0</ele><time>2026-03-22T14:34:24.009Z</time></trkpt><trkpt lat="43.3300933" lon="10.69303"><ele>46.0</ele><time>2026-03-22T14:34:25.01Z</time></trkpt><trkpt lat="43.33014" lon="10.693275"><ele>46.0</ele><time>2026-03-22T14:34:26.01Z</time></trkpt><trkpt lat="43.330185" lon="10.693525"><ele>46.0</ele><time>2026-03-22T14:34:27.01Z</time></trkpt><trkpt lat="43.3302267" lon="10.6937783"><ele>46.0</ele><time>2026-03-22T14:34:28.01Z</time></trkpt><trkpt lat="43.330265" lon="10.69403"><ele>46.0</ele><time>2026-03-22T14:34:29.009Z</time></trkpt><trkpt lat="43.330295" lon="10.694295"><ele>46.0</ele><time>2026-03-22T14:34:30.011Z</time></trkpt><trkpt lat="43.3303133" lon="10.6945617"><ele>45.333333333333336</ele><time>2026-03-22T14:34:31.01Z</time></trkpt><trkpt lat="43.3303183" lon="10.6948317"><ele>44.666666666666664</ele><time>2026-03-22T14:34:32.01Z</time></trkpt><trkpt lat="43.3303067" lon="10.6951067"><ele>44.0</ele><time>2026-03-22T14:34:33.009Z</time></trkpt><trkpt lat="43.3302867" lon="10.6953817"><ele>44.0</ele><time>2026-03-22T14:34:34.01Z</time></trkpt><trkpt lat="43.33026" lon="10.6956567"><ele>44.0</ele><time>2026-03-22T14:34:35.01Z</time></trkpt><trkpt lat="43.3302283" lon="10.6959333"><ele>44.0</ele><time>2026-03-22T14:34:36.009Z</time></trkpt><trkpt lat="43.3301967" lon="10.6962083"><ele>43.666666666666664</ele><time>2026-03-22T14:34:37.01Z</time></trkpt><trkpt lat="43.3301583" lon="10.6964833"><ele>43.333333333333336</ele><time>2026-03-22T14:34:38.01Z</time></trkpt><trkpt lat="43.33011" lon="10.69676"><ele>43.0</ele><time>2026-03-22T14:34:39.01Z</time></trkpt><trkpt lat="43.330055" lon="10.6970417"><ele>43.0</ele><time>2026-03-22T14:34:40.011Z</time></trkpt><trkpt lat="43.3299917" lon="10.6973183"><ele>43.0</ele><time>2026-03-22T14:34:41.009Z</time></trkpt><trkpt lat="43.3299217" lon="10.6975817"><ele>43.0</ele><time>2026-03-22T14:34:42.01Z</time></trkpt><trkpt lat="43.3298333" lon="10.6978433"><ele>43.333333333333336</ele><time>2026-03-22T14:34:43.01Z</time></trkpt><trkpt lat="43.32974" lon="10.6981017"><ele>43.666666666666664</ele><time>2026-03-22T14:34:44.015Z</time></trkpt><trkpt lat="43.3296483" lon="10.6983517"><ele>44.0</ele><time>2026-03-22T14:34:45.012Z</time></trkpt><trkpt lat="43.329555" lon="10.6986033"><ele>44.666666666666664</ele><time>2026-03-22T14:34:46.01Z</time></trkpt><trkpt lat="43.329465" lon="10.6988517"><ele>45.333333333333336</ele><time>2026-03-22T14:34:47.01Z</time></trkpt><trkpt lat="43.3293783" lon="10.6991"><ele>46.0</ele><time>2026-03-22T14:34:48.01Z</time></trkpt><trkpt lat="43.3292967" lon="10.699355"><ele>48.0</ele><time>2026-03-22T14:34:49.01Z</time></trkpt><trkpt lat="43.329225" lon="10.6996117"><ele>50.0</ele><time>2026-03-22T14:34:50.011Z</time></trkpt><trkpt lat="43.32917" lon="10.6998717"><ele>52.0</ele><time>2026-03-22T14:34:51.011Z</time></trkpt><trkpt lat="43.3291283" lon="10.7001383"><ele>52.0</ele><time>2026-03-22T14:34:52.01Z</time></trkpt><trkpt lat="43.3291" lon="10.7004083"><ele>52.0</ele><time>2026-03-22T14:34:53.011Z</time></trkpt><trkpt lat="43.329085" lon="10.70068"><ele>52.0</ele><time>2026-03-22T14:34:54.011Z</time></trkpt><trkpt lat="43.3290867" lon="10.7009517"><ele>51.0</ele><time>2026-03-22T14:34:55.012Z</time></trkpt><trkpt lat="43.3291083" lon="10.7012217"><ele>50.0</ele><time>2026-03-22T14:34:56.012Z</time></trkpt><trkpt lat="43.3291483" lon="10.7014883"><ele>49.0</ele><time>2026-03-22T14:34:57.011Z</time></trkpt><trkpt lat="43.3291967" lon="10.7017583"><ele>48.0</ele><time>2026-03-22T14:34:58.01Z</time></trkpt><trkpt lat="43.3292583" lon="10.70203"><ele>47.0</ele><time>2026-03-22T14:34:59.012Z</time></trkpt><trkpt lat="43.3293283" lon="10.7023033"><ele>46.0</ele><time>2026-03-22T14:35:00.011Z</time></trkpt><trkpt lat="43.3294" lon="10.7025733"><ele>45.66666666666667</ele><time>2026-03-22T14:35:01.008Z</time></trkpt><trkpt lat="43.329475" lon="10.7028467"><ele>45.333333333333336</ele><time>2026-03-22T14:35:02.01Z</time></trkpt><trkpt lat="43.3295483" lon="10.7031217"><ele>45.0</ele><time>2026-03-22T14:35:03.01Z</time></trkpt><trkpt lat="43.3296217" lon="10.7033983"><ele>45.0</ele><time>2026-03-22T14:35:04.01Z</time></trkpt><trkpt lat="43.3296883" lon="10.7036783"><ele>45.0</ele><time>2026-03-22T14:35:05.011Z</time></trkpt><trkpt lat="43.32975" lon="10.7039633"><ele>45.0</ele><time>2026-03-22T14:35:06.011Z</time></trkpt><trkpt lat="43.3297967" lon="10.7042433"><ele>47.0</ele><time>2026-03-22T14:35:07.01Z</time></trkpt><trkpt lat="43.329825" lon="10.7045183"><ele>49.0</ele><time>2026-03-22T14:35:08.011Z</time></trkpt><trkpt lat="43.32984" lon="10.7047883"><ele>51.0</ele><time>2026-03-22T14:35:09.009Z</time></trkpt><trkpt lat="43.329845" lon="10.7050583"><ele>52.33333333333333</ele><time>2026-03-22T14:35:10.01Z</time></trkpt><trkpt lat="43.3298483" lon="10.7053267"><ele>53.666666666666664</ele><time>2026-03-22T14:35:11.009Z</time></trkpt><trkpt lat="43.32985" lon="10.7055933"><ele>55.0</ele><time>2026-03-22T14:35:12.01Z</time></trkpt><trkpt lat="43.3298517" lon="10.7058633"><ele>55.0</ele><time>2026-03-22T14:35:13.01Z</time></trkpt><trkpt lat="43.3298517" lon="10.7061383"><ele>55.0</ele><time>2026-03-22T14:35:14.01Z</time></trkpt><trkpt lat="43.3298533" lon="10.7064133"><ele>55.0</ele><time>2026-03-22T14:35:15.012Z</time></trkpt><trkpt lat="43.3298567" lon="10.7066867"><ele>54.0</ele><time>2026-03-22T14:35:16.01Z</time></trkpt><trkpt lat="43.3298733" lon="10.7069567"><ele>53.0</ele><time>2026-03-22T14:35:17.01Z</time></trkpt><trkpt lat="43.329905" lon="10.7072283"><ele>52.0</ele><time>2026-03-22T14:35:18.01Z</time></trkpt><trkpt lat="43.3299483" lon="10.7075033"><ele>51.0</ele><time>2026-03-22T14:35:19.01Z</time></trkpt><trkpt lat="43.3300017" lon="10.70778"><ele>50.0</ele><time>2026-03-22T14:35:20.01Z</time></trkpt><trkpt lat="43.3300633" lon="10.708055"><ele>49.0</ele><time>2026-03-22T14:35:21.009Z</time></trkpt><trkpt lat="43.3301267" lon="10.7083283"><ele>48.33333333333333</ele><time>2026-03-22T14:35:22.009Z</time></trkpt><trkpt lat="43.3301917" lon="10.708605"><ele>47.666666666666664</ele><time>2026-03-22T14:35:23.01Z</time></trkpt><trkpt lat="43.33026" lon="10.7088867"><ele>47.0</ele><time>2026-03-22T14:35:24.01Z</time></trkpt><trkpt lat="43.33033" lon="10.7091667"><ele>46.666666666666664</ele><time>2026-03-22T14:35:25.009Z</time></trkpt><trkpt lat="43.3304017" lon="10.7094417"><ele>46.333333333333336</ele><time>2026-03-22T14:35:26.01Z</time></trkpt><trkpt lat="43.33048" lon="10.7097167"><ele>46.0</ele><time>2026-03-22T14:35:27.008Z</time></trkpt><trkpt lat="43.330575" lon="10.7099833"><ele>47.0</ele><time>2026-03-22T14:35:28.01Z</time></trkpt><trkpt lat="43.33069" lon="10.7102317"><ele>48.0</ele><time>2026-03-22T14:35:29.009Z</time></trkpt><trkpt lat="43.3308183" lon="10.71047"><ele>49.0</ele><time>2026-03-22T14:35:30.01Z</time></trkpt><trkpt lat="43.3309533" lon="10.710705"><ele>49.0</ele><time>2026-03-22T14:35:31.01Z</time></trkpt><trkpt lat="43.3310933" lon="10.7109333"><ele>49.0</ele><time>2026-03-22T14:35:32.01Z</time></trkpt><trkpt lat="43.3312317" lon="10.7111583"><ele>49.0</ele><time>2026-03-22T14:35:33.01Z</time></trkpt><trkpt lat="43.33137" lon="10.7113833"><ele>48.666666666666664</ele><time>2026-03-22T14:35:34.011Z</time></trkpt><trkpt lat="43.3315067" lon="10.7116033"><ele>48.33333333333333</ele><time>2026-03-22T14:35:35.011Z</time></trkpt><trkpt lat="43.331645" lon="10.7118233"><ele>48.0</ele><time>2026-03-22T14:35:36.011Z</time></trkpt><trkpt lat="43.3317833" lon="10.7120417"><ele>48.0</ele><time>2026-03-22T14:35:37.011Z</time></trkpt><trkpt lat="43.3319217" lon="10.71226"><ele>48.0</ele><time>2026-03-22T14:35:38.012Z</time></trkpt><trkpt lat="43.332055" lon="10.7124867"><ele>48.0</ele><time>2026-03-22T14:35:39.011Z</time></trkpt><trkpt lat="43.3321767" lon="10.7127267"><ele>48.0</ele><time>2026-03-22T14:35:40.01Z</time></trkpt><trkpt lat="43.332285" lon="10.7129817"><ele>48.0</ele><time>2026-03-22T14:35:41.01Z</time></trkpt><trkpt lat="43.332375" lon="10.713255"><ele>48.0</ele><time>2026-03-22T14:35:42.01Z</time></trkpt><trkpt lat="43.3324433" lon="10.713545"><ele>47.333333333333336</ele><time>2026-03-22T14:35:43.009Z</time></trkpt><trkpt lat="43.33249" lon="10.7138383"><ele>46.66666666666667</ele><time>2026-03-22T14:35:44.01Z</time></trkpt><trkpt lat="43.332515" lon="10.71414"><ele>46.0</ele><time>2026-03-22T14:35:45.01Z</time></trkpt><trkpt lat="43.3325367" lon="10.71445"><ele>46.0</ele><time>2026-03-22T14:35:46.009Z</time></trkpt><trkpt lat="43.3325567" lon="10.7147583"><ele>46.0</ele><time>2026-03-22T14:35:47.009Z</time></trkpt><trkpt lat="43.33258" lon="10.7150683"><ele>49.5</ele><time>2026-03-22T14:35:48.01Z</time></trkpt><trkpt lat="43.332605" lon="10.71538"><ele>53.0</ele><time>2026-03-22T14:35:49.01Z</time></trkpt><trkpt lat="43.33263" lon="10.7156867"><ele>53.0</ele><time>2026-03-22T14:35:50.011Z</time></trkpt><trkpt lat="43.3326533" lon="10.7159883"><ele>53.0</ele><time>2026-03-22T14:35:51.011Z</time></trkpt><trkpt lat="43.332675" lon="10.71629"><ele>53.0</ele><time>2026-03-22T14:35:52.011Z</time></trkpt><trkpt lat="43.3326933" lon="10.7165867"><ele>53.0</ele><time>2026-03-22T14:35:53.009Z</time></trkpt><trkpt lat="43.3327117" lon="10.7168833"><ele>53.0</ele><time>2026-03-22T14:35:54.011Z</time></trkpt><trkpt lat="43.3327283" lon="10.71717"><ele>53.0</ele><time>2026-03-22T14:35:55.009Z</time></trkpt><trkpt lat="43.3327467" lon="10.717455"><ele>52.66666666666667</ele><time>2026-03-22T14:35:56.01Z</time></trkpt><trkpt lat="43.3327583" lon="10.7177383"><ele>52.33333333333333</ele><time>2026-03-22T14:35:57.01Z</time></trkpt><trkpt lat="43.3327717" lon="10.718025"><ele>52.0</ele><time>2026-03-22T14:35:58.01Z</time></trkpt><trkpt lat="43.3328017" lon="10.7183067"><ele>50.33333333333333</ele><time>2026-03-22T14:35:59.01Z</time></trkpt><trkpt lat="43.33283" lon="10.7185967"><ele>48.666666666666664</ele><time>2026-03-22T14:36:00.012Z</time></trkpt><trkpt lat="43.3328633" lon="10.7188867"><ele>47.0</ele><time>2026-03-22T14:36:01.01Z</time></trkpt><trkpt lat="43.3329133" lon="10.7191833"><ele>46.5</ele><time>2026-03-22T14:36:02.01Z</time></trkpt><trkpt lat="43.3329783" lon="10.71949"><ele>46.0</ele><time>2026-03-22T14:36:03.012Z</time></trkpt><trkpt lat="43.3330467" lon="10.7197967"><ele>47.5</ele><time>2026-03-22T14:36:04.01Z</time></trkpt><trkpt lat="43.33312" lon="10.7201"><ele>49.0</ele><time>2026-03-22T14:36:05.009Z</time></trkpt><trkpt lat="43.33319" lon="10.7204067"><ele>49.0</ele><time>2026-03-22T14:36:06.011Z</time></trkpt><trkpt lat="43.33326" lon="10.7207117"><ele>49.0</ele><time>2026-03-22T14:36:07.009Z</time></trkpt><trkpt lat="43.333325" lon="10.7210133"><ele>49.5</ele><time>2026-03-22T14:36:08.01Z</time></trkpt><trkpt lat="43.33339" lon="10.7213133"><ele>50.0</ele><time>2026-03-22T14:36:09.009Z</time></trkpt><trkpt lat="43.33346" lon="10.7216067"><ele>50.0</ele><time>2026-03-22T14:36:10.01Z</time></trkpt><trkpt lat="43.3335233" lon="10.7218917"><ele>50.0</ele><time>2026-03-22T14:36:11.01Z</time></trkpt><trkpt lat="43.3335833" lon="10.7221733"><ele>50.0</ele><time>2026-03-22T14:36:12.01Z</time></trkpt><trkpt lat="43.333645" lon="10.72245"><ele>50.0</ele><time>2026-03-22T14:36:13.01Z</time></trkpt><trkpt lat="43.3337067" lon="10.7227217"><ele>50.0</ele><time>2026-03-22T14:36:14.01Z</time></trkpt><trkpt lat="43.3337683" lon="10.7229917"><ele>50.0</ele><time>2026-03-22T14:36:15.01Z</time></trkpt><trkpt lat="43.3338267" lon="10.72326"><ele>50.0</ele><time>2026-03-22T14:36:16.01Z</time></trkpt><trkpt lat="43.3338817" lon="10.72352"><ele>50.0</ele><time>2026-03-22T14:36:17.012Z</time></trkpt><trkpt lat="43.33394" lon="10.7237717"><ele>50.0</ele><time>2026-03-22T14:36:18.01Z</time></trkpt><trkpt lat="43.3340083" lon="10.724015"><ele>51.0</ele><time>2026-03-22T14:36:19.01Z</time></trkpt><trkpt lat="43.3341017" lon="10.7242417"><ele>52.0</ele><time>2026-03-22T14:36:20.01Z</time></trkpt><trkpt lat="43.3342083" lon="10.7244417"><ele>53.0</ele><time>2026-03-22T14:36:21.01Z</time></trkpt><trkpt lat="43.3343167" lon="10.7246267"><ele>53.0</ele><time>2026-03-22T14:36:22.01Z</time></trkpt><trkpt lat="43.3344233" lon="10.7248067"><ele>53.0</ele><time>2026-03-22T14:36:23.009Z</time></trkpt><trkpt lat="43.3345233" lon="10.7249917"><ele>53.0</ele><time>2026-03-22T14:36:24.01Z</time></trkpt><trkpt lat="43.3346033" lon="10.7251883"><ele>52.0</ele><time>2026-03-22T14:36:25.01Z</time></trkpt><trkpt lat="43.334665" lon="10.7254167"><ele>51.0</ele><time>2026-03-22T14:36:26.01Z</time></trkpt><trkpt lat="43.3347183" lon="10.7256783"><ele>50.0</ele><time>2026-03-22T14:36:27.012Z</time></trkpt><trkpt lat="43.3347583" lon="10.725965"><ele>53.333333333333336</ele><time>2026-03-22T14:36:28.01Z</time></trkpt><trkpt lat="43.334785" lon="10.7262667"><ele>56.66666666666667</ele><time>2026-03-22T14:36:29.01Z</time></trkpt><trkpt lat="43.3348133" lon="10.7265717"><ele>60.0</ele><time>2026-03-22T14:36:30.009Z</time></trkpt><trkpt lat="43.3348467" lon="10.72687"><ele>59.33333333333333</ele><time>2026-03-22T14:36:31.008Z</time></trkpt><trkpt lat="43.3348833" lon="10.7271617"><ele>58.666666666666664</ele><time>2026-03-22T14:36:32.01Z</time></trkpt><trkpt lat="43.3349217" lon="10.72746"><ele>58.0</ele><time>2026-03-22T14:36:33.01Z</time></trkpt><trkpt lat="43.33496" lon="10.727755"><ele>57.666666666666664</ele><time>2026-03-22T14:36:34.009Z</time></trkpt><trkpt lat="43.3349967" lon="10.7280367"><ele>57.33333333333333</ele><time>2026-03-22T14:36:35.01Z</time></trkpt><trkpt lat="43.3350333" lon="10.72831"><ele>57.0</ele><time>2026-03-22T14:36:36.01Z</time></trkpt><trkpt lat="43.3350683" lon="10.7285817"><ele>56.66666666666667</ele><time>2026-03-22T14:36:37.009Z</time></trkpt><trkpt lat="43.3350983" lon="10.72884"><ele>56.333333333333336</ele><time>2026-03-22T14:36:38.01Z</time></trkpt><trkpt lat="43.3351283" lon="10.7291017"><ele>56.0</ele><time>2026-03-22T14:36:39.009Z</time></trkpt><trkpt lat="43.3351617" lon="10.729375"><ele>55.66666666666667</ele><time>2026-03-22T14:36:40.009Z</time></trkpt><trkpt lat="43.335185" lon="10.729655"><ele>55.33333333333333</ele><time>2026-03-22T14:36:41.009Z</time></trkpt><trkpt lat="43.3351917" lon="10.7299367"><ele>55.0</ele><time>2026-03-22T14:36:42.01Z</time></trkpt><trkpt lat="43.335185" lon="10.7302267"><ele>55.0</ele><time>2026-03-22T14:36:43.008Z</time></trkpt><trkpt lat="43.3351633" lon="10.73053"><ele>55.0</ele><time>2026-03-22T14:36:44.01Z</time></trkpt><trkpt lat="43.3351517" lon="10.7308367"><ele>55.0</ele><time>2026-03-22T14:36:45.01Z</time></trkpt><trkpt lat="43.3351367" lon="10.7311383"><ele>55.0</ele><time>2026-03-22T14:36:46.01Z</time></trkpt><trkpt lat="43.3351117" lon="10.7314367"><ele>55.0</ele><time>2026-03-22T14:36:47.01Z</time></trkpt><trkpt lat="43.3350867" lon="10.7317333"><ele>55.0</ele><time>2026-03-22T14:36:48.009Z</time></trkpt><trkpt lat="43.3350683" lon="10.7320183"><ele>55.0</ele><time>2026-03-22T14:36:49.01Z</time></trkpt><trkpt lat="43.3350633" lon="10.7322833"><ele>55.0</ele><time>2026-03-22T14:36:50.01Z</time></trkpt><trkpt lat="43.33508" lon="10.7325333"><ele>55.0</ele><time>2026-03-22T14:36:51.012Z</time></trkpt><trkpt lat="43.3351383" lon="10.73278"><ele>53.33333333333333</ele><time>2026-03-22T14:36:52.011Z</time></trkpt><trkpt lat="43.3352267" lon="10.733035"><ele>51.66666666666667</ele><time>2026-03-22T14:36:53.01Z</time></trkpt><trkpt lat="43.335315" lon="10.7332917"><ele>50.0</ele><time>2026-03-22T14:36:54.011Z</time></trkpt><trkpt lat="43.3354067" lon="10.7335417"><ele>49.0</ele><time>2026-03-22T14:36:55.009Z</time></trkpt><trkpt lat="43.335515" lon="10.7337917"><ele>48.0</ele><time>2026-03-22T14:36:56.01Z</time></trkpt><trkpt lat="43.3356317" lon="10.734035"><ele>47.0</ele><time>2026-03-22T14:36:57.01Z</time></trkpt><trkpt lat="43.3357467" lon="10.7342817"><ele>49.0</ele><time>2026-03-22T14:36:58.01Z</time></trkpt><trkpt lat="43.33586" lon="10.734525"><ele>51.0</ele><time>2026-03-22T14:36:59.01Z</time></trkpt><trkpt lat="43.335975" lon="10.73477"><ele>53.0</ele><time>2026-03-22T14:37:00.009Z</time></trkpt><trkpt lat="43.3360917" lon="10.7350133"><ele>51.333333333333336</ele><time>2026-03-22T14:37:01.013Z</time></trkpt><trkpt lat="43.3361967" lon="10.7352467"><ele>49.66666666666667</ele><time>2026-03-22T14:37:02.011Z</time></trkpt><trkpt lat="43.3362867" lon="10.735475"><ele>48.0</ele><time>2026-03-22T14:37:03.01Z</time></trkpt><trkpt lat="43.33635" lon="10.73572"><ele>52.66666666666667</ele><time>2026-03-22T14:37:04.01Z</time></trkpt><trkpt lat="43.33639" lon="10.7359867"><ele>57.333333333333336</ele><time>2026-03-22T14:37:05.009Z</time></trkpt><trkpt lat="43.3364133" lon="10.7362717"><ele>62.0</ele><time>2026-03-22T14:37:06.009Z</time></trkpt><trkpt lat="43.3364317" lon="10.736565"><ele>62.0</ele><time>2026-03-22T14:37:07.009Z</time></trkpt><trkpt lat="43.3364417" lon="10.7368683"><ele>62.0</ele><time>2026-03-22T14:37:08.01Z</time></trkpt><trkpt lat="43.3364417" lon="10.737175"><ele>62.0</ele><time>2026-03-22T14:37:09.009Z</time></trkpt><trkpt lat="43.336435" lon="10.737485"><ele>64.0</ele><time>2026-03-22T14:37:10.011Z</time></trkpt><trkpt lat="43.3364233" lon="10.7377983"><ele>66.0</ele><time>2026-03-22T14:37:11.01Z</time></trkpt><trkpt lat="43.3364" lon="10.7381017"><ele>61.0</ele><time>2026-03-22T14:37:12.01Z</time></trkpt><trkpt lat="43.3363617" lon="10.7383867"><ele>56.0</ele><time>2026-03-22T14:37:13.01Z</time></trkpt><trkpt lat="43.3363217" lon="10.738655"><ele>51.0</ele><time>2026-03-22T14:37:14.01Z</time></trkpt><trkpt lat="43.33627" lon="10.7388917"><ele>51.0</ele><time>2026-03-22T14:37:15.01Z</time></trkpt><trkpt lat="43.33621" lon="10.7391183"><ele>51.0</ele><time>2026-03-22T14:37:16.01Z</time></trkpt><trkpt lat="43.3361617" lon="10.739325"><ele>51.0</ele><time>2026-03-22T14:37:17.01Z</time></trkpt><trkpt lat="43.3361167" lon="10.7395217"><ele>51.5</ele><time>2026-03-22T14:37:18.009Z</time></trkpt><trkpt lat="43.336075" lon="10.73971"><ele>52.0</ele><time>2026-03-22T14:37:19.011Z</time></trkpt><trkpt lat="43.3360317" lon="10.739895"><ele>52.5</ele><time>2026-03-22T14:37:20.01Z</time></trkpt><trkpt lat="43.3359967" lon="10.7400733"><ele>53.0</ele><time>2026-03-22T14:37:21.01Z</time></trkpt><trkpt lat="43.3359667" lon="10.74024"><ele>53.5</ele><time>2026-03-22T14:37:22.012Z</time></trkpt><trkpt lat="43.3359283" lon="10.740405"><ele>54.0</ele><time>2026-03-22T14:37:23.012Z</time></trkpt><trkpt lat="43.335895" lon="10.7405717"><ele>54.5</ele><time>2026-03-22T14:37:24.011Z</time></trkpt><trkpt lat="43.335865" lon="10.74074"><ele>55.0</ele><time>2026-03-22T14:37:25.009Z</time></trkpt><trkpt lat="43.3358333" lon="10.7409017"><ele>56.2</ele><time>2026-03-22T14:37:26.01Z</time></trkpt><trkpt lat="43.3358" lon="10.7410517"><ele>57.4</ele><time>2026-03-22T14:37:27.009Z</time></trkpt><trkpt lat="43.3357717" lon="10.74119"><ele>58.599999999999994</ele><time>2026-03-22T14:37:28.011Z</time></trkpt><trkpt lat="43.3357417" lon="10.7413267"><ele>59.8</ele><time>2026-03-22T14:37:29.01Z</time></trkpt><trkpt lat="43.3357183" lon="10.7414683"><ele>61.0</ele><time>2026-03-22T14:37:30.01Z</time></trkpt><trkpt lat="43.3356967" lon="10.7416117"><ele>61.0</ele><time>2026-03-22T14:37:31.01Z</time></trkpt><trkpt lat="43.335665" lon="10.7417533"><ele>60.99999999999999</ele><time>2026-03-22T14:37:32.013Z</time></trkpt><trkpt lat="43.3356383" lon="10.7418983"><ele>60.99999999999999</ele><time>2026-03-22T14:37:33.011Z</time></trkpt><trkpt lat="43.3356283" lon="10.7420533"><ele>61.0</ele><time>2026-03-22T14:37:34.011Z</time></trkpt><trkpt lat="43.3356033" lon="10.7422017"><ele>61.0</ele><time>2026-03-22T14:37:35.01Z</time></trkpt><trkpt lat="43.3355867" lon="10.7423617"><ele>61.0</ele><time>2026-03-22T14:37:36.009Z</time></trkpt><trkpt lat="43.3355717" lon="10.7425233"><ele>61.0</ele><time>2026-03-22T14:37:37.011Z</time></trkpt><trkpt lat="43.3355433" lon="10.742675"><ele>61.0</ele><time>2026-03-22T14:37:38.01Z</time></trkpt><trkpt lat="43.3355183" lon="10.74283"><ele>61.0</ele><time>2026-03-22T14:37:39.011Z</time></trkpt><trkpt lat="43.3355" lon="10.7429867"><ele>59.25</ele><time>2026-03-22T14:37:40.01Z</time></trkpt><trkpt lat="43.3354883" lon="10.7431417"><ele>57.5</ele><time>2026-03-22T14:37:41.009Z</time></trkpt><trkpt lat="43.3354917" lon="10.7433"><ele>55.75</ele><time>2026-03-22T14:37:42.012Z</time></trkpt><trkpt lat="43.3355067" lon="10.7434583"><ele>54.0</ele><time>2026-03-22T14:37:43.01Z</time></trkpt><trkpt lat="43.3355433" lon="10.7436117"><ele>56.5</ele><time>2026-03-22T14:37:44.01Z</time></trkpt><trkpt lat="43.3355767" lon="10.7437533"><ele>59.0</ele><time>2026-03-22T14:37:45.01Z</time></trkpt><trkpt lat="43.3356233" lon="10.743905"><ele>61.5</ele><time>2026-03-22T14:37:46.011Z</time></trkpt><trkpt lat="43.33567" lon="10.7440583"><ele>64.0</ele><time>2026-03-22T14:37:47.01Z</time></trkpt><trkpt lat="43.3356967" lon="10.7442167"><ele>64.0</ele><time>2026-03-22T14:37:48.01Z</time></trkpt><trkpt lat="43.335735" lon="10.7443767"><ele>64.0</ele><time>2026-03-22T14:37:49.011Z</time></trkpt><trkpt lat="43.33578" lon="10.744535"><ele>64.0</ele><time>2026-03-22T14:37:50.011Z</time></trkpt><trkpt lat="43.3358233" lon="10.7446933"><ele>64.0</ele><time>2026-03-22T14:37:51.009Z</time></trkpt><trkpt lat="43.3358733" lon="10.7448517"><ele>62.5</ele><time>2026-03-22T14:37:52.01Z</time></trkpt><trkpt lat="43.3359117" lon="10.7450133"><ele>61.0</ele><time>2026-03-22T14:37:53.011Z</time></trkpt><trkpt lat="43.33595" lon="10.7451733"><ele>59.5</ele><time>2026-03-22T14:37:54.01Z</time></trkpt><trkpt lat="43.3359967" lon="10.74533"><ele>58.0</ele><time>2026-03-22T14:37:55.01Z</time></trkpt><trkpt lat="43.33604" lon="10.7454883"><ele>57.25</ele><time>2026-03-22T14:37:56.01Z</time></trkpt><trkpt lat="43.3360833" lon="10.745655"><ele>56.5</ele><time>2026-03-22T14:37:57.009Z</time></trkpt><trkpt lat="43.3361267" lon="10.7458217"><ele>55.75</ele><time>2026-03-22T14:37:58.009Z</time></trkpt><trkpt lat="43.3361667" lon="10.7459867"><ele>55.0</ele><time>2026-03-22T14:37:59.011Z</time></trkpt><trkpt lat="43.3362167" lon="10.7461483"><ele>54.75</ele><time>2026-03-22T14:38:00.011Z</time></trkpt><trkpt lat="43.33627" lon="10.7463067"><ele>54.5</ele><time>2026-03-22T14:38:01.009Z</time></trkpt><trkpt lat="43.33633" lon="10.7464667"><ele>54.25</ele><time>2026-03-22T14:38:02.011Z</time></trkpt><trkpt lat="43.336405" lon="10.7466217"><ele>54.0</ele><time>2026-03-22T14:38:03.012Z</time></trkpt><trkpt lat="43.336495" lon="10.7467667"><ele>54.66666666666667</ele><time>2026-03-22T14:38:04.01Z</time></trkpt><trkpt lat="43.3366017" lon="10.74692"><ele>55.333333333333336</ele><time>2026-03-22T14:38:05.01Z</time></trkpt><trkpt lat="43.336715" lon="10.7470633"><ele>56.0</ele><time>2026-03-22T14:38:06.011Z</time></trkpt><trkpt lat="43.3368283" lon="10.747205"><ele>56.0</ele><time>2026-03-22T14:38:07.012Z</time></trkpt><trkpt lat="43.3369383" lon="10.7473533"><ele>56.0</ele><time>2026-03-22T14:38:08.011Z</time></trkpt><trkpt lat="43.337055" lon="10.7474867"><ele>56.0</ele><time>2026-03-22T14:38:09.01Z</time></trkpt><trkpt lat="43.337175" lon="10.747615"><ele>55.0</ele><time>2026-03-22T14:38:10.01Z</time></trkpt><trkpt lat="43.3373083" lon="10.7477183"><ele>54.0</ele><time>2026-03-22T14:38:11.011Z</time></trkpt><trkpt lat="43.3374583" lon="10.7477967"><ele>53.0</ele><time>2026-03-22T14:38:12.011Z</time></trkpt><trkpt lat="43.3376217" lon="10.7478483"><ele>53.0</ele><time>2026-03-22T14:38:13.011Z</time></trkpt><trkpt lat="43.3377917" lon="10.7478733"><ele>53.0</ele><time>2026-03-22T14:38:14.011Z</time></trkpt><trkpt lat="43.3379633" lon="10.7478767"><ele>53.0</ele><time>2026-03-22T14:38:15.01Z</time></trkpt><trkpt lat="43.3381383" lon="10.7478667"><ele>52.66666666666667</ele><time>2026-03-22T14:38:16.01Z</time></trkpt><trkpt lat="43.3383133" lon="10.7478517"><ele>52.33333333333333</ele><time>2026-03-22T14:38:17.01Z</time></trkpt><trkpt lat="43.338495" lon="10.74784"><ele>52.0</ele><time>2026-03-22T14:38:18.01Z</time></trkpt><trkpt lat="43.3386817" lon="10.7478267"><ele>52.0</ele><time>2026-03-22T14:38:19.011Z</time></trkpt><trkpt lat="43.3388733" lon="10.74783"><ele>52.0</ele><time>2026-03-22T14:38:20.009Z</time></trkpt><trkpt lat="43.33906" lon="10.7478517"><ele>52.0</ele><time>2026-03-22T14:38:21.01Z</time></trkpt><trkpt lat="43.3392483" lon="10.7479"><ele>53.0</ele><time>2026-03-22T14:38:22.01Z</time></trkpt><trkpt lat="43.33944" lon="10.7479683"><ele>54.0</ele><time>2026-03-22T14:38:23.01Z</time></trkpt><trkpt lat="43.339635" lon="10.74805"><ele>55.0</ele><time>2026-03-22T14:38:24.01Z</time></trkpt><trkpt lat="43.3398367" lon="10.748135"><ele>55.0</ele><time>2026-03-22T14:38:25.011Z</time></trkpt><trkpt lat="43.3400383" lon="10.7482333"><ele>55.0</ele><time>2026-03-22T14:38:26.012Z</time></trkpt><trkpt lat="43.3402383" lon="10.7483367"><ele>55.0</ele><time>2026-03-22T14:38:27.01Z</time></trkpt><trkpt lat="43.3404417" lon="10.7484417"><ele>54.666666666666664</ele><time>2026-03-22T14:38:28.01Z</time></trkpt><trkpt lat="43.3406417" lon="10.7485617"><ele>54.33333333333333</ele><time>2026-03-22T14:38:29.012Z</time></trkpt><trkpt lat="43.340835" lon="10.7487033"><ele>54.0</ele><time>2026-03-22T14:38:30.009Z</time></trkpt><trkpt lat="43.34102" lon="10.748845"><ele>54.0</ele><time>2026-03-22T14:38:31.012Z</time></trkpt><trkpt lat="43.3412" lon="10.748995"><ele>54.0</ele><time>2026-03-22T14:38:32.01Z</time></trkpt><trkpt lat="43.3413733" lon="10.7491533"><ele>54.0</ele><time>2026-03-22T14:38:33.01Z</time></trkpt><trkpt lat="43.3415367" lon="10.749315"><ele>54.33333333333333</ele><time>2026-03-22T14:38:34.01Z</time></trkpt><trkpt lat="43.3416883" lon="10.7495067"><ele>54.666666666666664</ele><time>2026-03-22T14:38:35.01Z</time></trkpt><trkpt lat="43.3418283" lon="10.7497117"><ele>55.0</ele><time>2026-03-22T14:38:36.01Z</time></trkpt><trkpt lat="43.34197" lon="10.74993"><ele>55.0</ele><time>2026-03-22T14:38:37.01Z</time></trkpt><trkpt lat="43.342115" lon="10.7501533"><ele>55.0</ele><time>2026-03-22T14:38:38.009Z</time></trkpt><trkpt lat="43.3422667" lon="10.750375"><ele>55.0</ele><time>2026-03-22T14:38:39.01Z</time></trkpt><trkpt lat="43.34241" lon="10.7505833"><ele>55.0</ele><time>2026-03-22T14:38:40.01Z</time></trkpt><trkpt lat="43.342555" lon="10.7507933"><ele>55.0</ele><time>2026-03-22T14:38:41.009Z</time></trkpt><trkpt lat="43.3426983" lon="10.7510017"><ele>55.0</ele><time>2026-03-22T14:38:42.01Z</time></trkpt><trkpt lat="43.3428433" lon="10.7512067"><ele>55.0</ele><time>2026-03-22T14:38:43.011Z</time></trkpt><trkpt lat="43.3429883" lon="10.751415"><ele>55.0</ele><time>2026-03-22T14:38:44.011Z</time></trkpt><trkpt lat="43.34313" lon="10.751625"><ele>55.0</ele><time>2026-03-22T14:38:45.01Z</time></trkpt><trkpt lat="43.343275" lon="10.75184"><ele>55.33333333333333</ele><time>2026-03-22T14:38:46.009Z</time></trkpt><trkpt lat="43.3434167" lon="10.7520483"><ele>55.66666666666667</ele><time>2026-03-22T14:38:47.01Z</time></trkpt><trkpt lat="43.3435567" lon="10.7522533"><ele>56.0</ele><time>2026-03-22T14:38:48.011Z</time></trkpt><trkpt lat="43.3436983" lon="10.7524533"><ele>56.0</ele><time>2026-03-22T14:38:49.009Z</time></trkpt><trkpt lat="43.34384" lon="10.7526517"><ele>56.0</ele><time>2026-03-22T14:38:50.01Z</time></trkpt><trkpt lat="43.3439817" lon="10.7528533"><ele>56.0</ele><time>2026-03-22T14:38:51.01Z</time></trkpt><trkpt lat="43.344125" lon="10.753055"><ele>56.333333333333336</ele><time>2026-03-22T14:38:52.008Z</time></trkpt><trkpt lat="43.344265" lon="10.7532583"><ele>56.66666666666667</ele><time>2026-03-22T14:38:53.009Z</time></trkpt><trkpt lat="43.344405" lon="10.7534683"><ele>57.0</ele><time>2026-03-22T14:38:54.01Z</time></trkpt><trkpt lat="43.344535" lon="10.7536867"><ele>57.0</ele><time>2026-03-22T14:38:55.011Z</time></trkpt><trkpt lat="43.3446467" lon="10.753915"><ele>57.0</ele><time>2026-03-22T14:38:56.01Z</time></trkpt><trkpt lat="43.3447317" lon="10.7541417"><ele>57.0</ele><time>2026-03-22T14:38:57.009Z</time></trkpt><trkpt lat="43.344795" lon="10.75436"><ele>56.75</ele><time>2026-03-22T14:38:58.012Z</time></trkpt><trkpt lat="43.34485" lon="10.7545583"><ele>56.5</ele><time>2026-03-22T14:38:59.011Z</time></trkpt><trkpt lat="43.3448983" lon="10.7547467"><ele>56.25</ele><time>2026-03-22T14:39:00.009Z</time></trkpt><trkpt lat="43.3449383" lon="10.7549233"><ele>56.0</ele><time>2026-03-22T14:39:01.01Z</time></trkpt><trkpt lat="43.344975" lon="10.7550867"><ele>56.0</ele><time>2026-03-22T14:39:02.011Z</time></trkpt><trkpt lat="43.3450067" lon="10.7552367"><ele>56.0</ele><time>2026-03-22T14:39:03.012Z</time></trkpt><trkpt lat="43.345035" lon="10.7553967"><ele>56.0</ele><time>2026-03-22T14:39:04.01Z</time></trkpt><trkpt lat="43.3450617" lon="10.75556"><ele>56.0</ele><time>2026-03-22T14:39:05.009Z</time></trkpt><trkpt lat="43.3451" lon="10.755725"><ele>56.0</ele><time>2026-03-22T14:39:06.009Z</time></trkpt><trkpt lat="43.3451717" lon="10.7558833"><ele>56.0</ele><time>2026-03-22T14:39:07.01Z</time></trkpt><trkpt lat="43.34526" lon="10.756045"><ele>56.0</ele><time>2026-03-22T14:39:08.009Z</time></trkpt><trkpt lat="43.3453683" lon="10.7562033"><ele>56.0</ele><time>2026-03-22T14:39:09.009Z</time></trkpt><trkpt lat="43.34549" lon="10.7563567"><ele>56.333333333333336</ele><time>2026-03-22T14:39:10.01Z</time></trkpt><trkpt lat="43.3456117" lon="10.756505"><ele>56.66666666666667</ele><time>2026-03-22T14:39:11.01Z</time></trkpt><trkpt lat="43.3457367" lon="10.7566583"><ele>57.0</ele><time>2026-03-22T14:39:12.01Z</time></trkpt><trkpt lat="43.3458667" lon="10.756825"><ele>57.0</ele><time>2026-03-22T14:39:13.012Z</time></trkpt><trkpt lat="43.3459933" lon="10.7570017"><ele>57.0</ele><time>2026-03-22T14:39:14.01Z</time></trkpt><trkpt lat="43.3461167" lon="10.7571967"><ele>57.0</ele><time>2026-03-22T14:39:15.009Z</time></trkpt><trkpt lat="43.3462367" lon="10.75741"><ele>57.0</ele><time>2026-03-22T14:39:16.01Z</time></trkpt><trkpt lat="43.3463533" lon="10.7576283"><ele>57.0</ele><time>2026-03-22T14:39:17.01Z</time></trkpt><trkpt lat="43.34647" lon="10.7578417"><ele>57.0</ele><time>2026-03-22T14:39:18.009Z</time></trkpt><trkpt lat="43.346585" lon="10.7580533"><ele>57.0</ele><time>2026-03-22T14:39:19.011Z</time></trkpt><trkpt lat="43.3467017" lon="10.7582633"><ele>57.0</ele><time>2026-03-22T14:39:20.011Z</time></trkpt><trkpt lat="43.34682" lon="10.7584767"><ele>57.0</ele><time>2026-03-22T14:39:21.009Z</time></trkpt><trkpt lat="43.34694" lon="10.7586967"><ele>57.0</ele><time>2026-03-22T14:39:22.01Z</time></trkpt><trkpt lat="43.3470567" lon="10.7589217"><ele>57.0</ele><time>2026-03-22T14:39:23.011Z</time></trkpt><trkpt lat="43.3471717" lon="10.7591567"><ele>57.0</ele><time>2026-03-22T14:39:24.012Z</time></trkpt><trkpt lat="43.34728" lon="10.7594017"><ele>56.66666666666667</ele><time>2026-03-22T14:39:25.011Z</time></trkpt><trkpt lat="43.3473767" lon="10.759655"><ele>56.333333333333336</ele><time>2026-03-22T14:39:26.01Z</time></trkpt><trkpt lat="43.34746" lon="10.7599217"><ele>56.0</ele><time>2026-03-22T14:39:27.01Z</time></trkpt><trkpt lat="43.3475233" lon="10.7602017"><ele>56.66666666666667</ele><time>2026-03-22T14:39:28.01Z</time></trkpt><trkpt lat="43.3475617" lon="10.7604917"><ele>57.33333333333333</ele><time>2026-03-22T14:39:29.011Z</time></trkpt><trkpt lat="43.347595" lon="10.7607783"><ele>58.0</ele><time>2026-03-22T14:39:30.009Z</time></trkpt><trkpt lat="43.3476217" lon="10.761065"><ele>58.0</ele><time>2026-03-22T14:39:31.009Z</time></trkpt><trkpt lat="43.347645" lon="10.761355"><ele>58.0</ele><time>2026-03-22T14:39:32.01Z</time></trkpt><trkpt lat="43.3476717" lon="10.7616467"><ele>58.0</ele><time>2026-03-22T14:39:33.01Z</time></trkpt><trkpt lat="43.3477083" lon="10.7619383"><ele>58.0</ele><time>2026-03-22T14:39:34.01Z</time></trkpt><trkpt lat="43.3477567" lon="10.7622267"><ele>58.0</ele><time>2026-03-22T14:39:35.008Z</time></trkpt><trkpt lat="43.3478217" lon="10.76251"><ele>58.0</ele><time>2026-03-22T14:39:36.008Z</time></trkpt><trkpt lat="43.3478983" lon="10.7627883"><ele>58.33333333333333</ele><time>2026-03-22T14:39:37.007Z</time></trkpt><trkpt lat="43.347985" lon="10.763065"><ele>58.66666666666667</ele><time>2026-03-22T14:39:38.009Z</time></trkpt><trkpt lat="43.3480717" lon="10.7633433"><ele>59.0</ele><time>2026-03-22T14:39:39.009Z</time></trkpt><trkpt lat="43.34816" lon="10.7636183"><ele>59.333333333333336</ele><time>2026-03-22T14:39:40.009Z</time></trkpt><trkpt lat="43.3482467" lon="10.7638883"><ele>59.66666666666667</ele><time>2026-03-22T14:39:41.009Z</time></trkpt><trkpt lat="43.3483283" lon="10.7641467"><ele>60.0</ele><time>2026-03-22T14:39:42.01Z</time></trkpt><trkpt lat="43.3484067" lon="10.7643883"><ele>60.0</ele><time>2026-03-22T14:39:43.009Z</time></trkpt><trkpt lat="43.3484867" lon="10.7646183"><ele>60.0</ele><time>2026-03-22T14:39:44.011Z</time></trkpt><trkpt lat="43.348575" lon="10.7648383"><ele>60.0</ele><time>2026-03-22T14:39:45.01Z</time></trkpt><trkpt lat="43.3486733" lon="10.765055"><ele>60.33333333333333</ele><time>2026-03-22T14:39:46.01Z</time></trkpt><trkpt lat="43.348775" lon="10.7652667"><ele>60.666666666666664</ele><time>2026-03-22T14:39:47.011Z</time></trkpt><trkpt lat="43.3488833" lon="10.7654683"><ele>61.0</ele><time>2026-03-22T14:39:48.009Z</time></trkpt><trkpt lat="43.348995" lon="10.7656617"><ele>61.0</ele><time>2026-03-22T14:39:49.01Z</time></trkpt><trkpt lat="43.3491067" lon="10.76585"><ele>61.0</ele><time>2026-03-22T14:39:50.01Z</time></trkpt><trkpt lat="43.3492167" lon="10.7660133"><ele>61.0</ele><time>2026-03-22T14:39:51.011Z</time></trkpt><trkpt lat="43.3493183" lon="10.7661667"><ele>59.75</ele><time>2026-03-22T14:39:52.01Z</time></trkpt><trkpt lat="43.3494017" lon="10.7663167"><ele>58.5</ele><time>2026-03-22T14:39:53.01Z</time></trkpt><trkpt lat="43.3494633" lon="10.766475"><ele>57.25</ele><time>2026-03-22T14:39:54.01Z</time></trkpt><trkpt lat="43.3495017" lon="10.766645"><ele>56.0</ele><time>2026-03-22T14:39:55.01Z</time></trkpt><trkpt lat="43.34951" lon="10.7668317"><ele>55.66666666666667</ele><time>2026-03-22T14:39:56.011Z</time></trkpt><trkpt lat="43.3495017" lon="10.767035"><ele>55.33333333333333</ele><time>2026-03-22T14:39:57.01Z</time></trkpt><trkpt lat="43.3494983" lon="10.767255"><ele>55.0</ele><time>2026-03-22T14:39:58.011Z</time></trkpt><trkpt lat="43.3495133" lon="10.7674967"><ele>55.0</ele><time>2026-03-22T14:39:59.012Z</time></trkpt><trkpt lat="43.349545" lon="10.76775"><ele>55.0</ele><time>2026-03-22T14:40:00.009Z</time></trkpt><trkpt lat="43.3495917" lon="10.7680133"><ele>55.0</ele><time>2026-03-22T14:40:01.009Z</time></trkpt><trkpt lat="43.3496583" lon="10.76828"><ele>55.33333333333333</ele><time>2026-03-22T14:40:02.009Z</time></trkpt><trkpt lat="43.3497467" lon="10.7685383"><ele>55.66666666666667</ele><time>2026-03-22T14:40:03.008Z</time></trkpt><trkpt lat="43.3498517" lon="10.7687817"><ele>56.0</ele><time>2026-03-22T14:40:04.009Z</time></trkpt><trkpt lat="43.3499717" lon="10.769025"><ele>56.0</ele><time>2026-03-22T14:40:05.009Z</time></trkpt><trkpt lat="43.350095" lon="10.7692667"><ele>56.0</ele><time>2026-03-22T14:40:06.008Z</time></trkpt><trkpt lat="43.35022" lon="10.7695133"><ele>56.0</ele><time>2026-03-22T14:40:07.01Z</time></trkpt><trkpt lat="43.3503483" lon="10.7697633"><ele>56.0</ele><time>2026-03-22T14:40:08.01Z</time></trkpt><trkpt lat="43.3504717" lon="10.7700083"><ele>56.0</ele><time>2026-03-22T14:40:09.009Z</time></trkpt><trkpt lat="43.3505933" lon="10.77025"><ele>56.0</ele><time>2026-03-22T14:40:10.009Z</time></trkpt><trkpt lat="43.35072" lon="10.7704917"><ele>56.333333333333336</ele><time>2026-03-22T14:40:11.009Z</time></trkpt><trkpt lat="43.3508417" lon="10.7707383"><ele>56.66666666666667</ele><time>2026-03-22T14:40:12.01Z</time></trkpt><trkpt lat="43.35097" lon="10.7709817"><ele>57.0</ele><time>2026-03-22T14:40:13.009Z</time></trkpt><trkpt lat="43.3511033" lon="10.771225"><ele>56.66666666666667</ele><time>2026-03-22T14:40:14.01Z</time></trkpt><trkpt lat="43.3512433" lon="10.7714633"><ele>56.333333333333336</ele><time>2026-03-22T14:40:15.01Z</time></trkpt><trkpt lat="43.3513817" lon="10.7716917"><ele>56.0</ele><time>2026-03-22T14:40:16.008Z</time></trkpt><trkpt lat="43.3515167" lon="10.7719217"><ele>55.66666666666667</ele><time>2026-03-22T14:40:17.01Z</time></trkpt><trkpt lat="43.3516483" lon="10.77215"><ele>55.33333333333333</ele><time>2026-03-22T14:40:18.01Z</time></trkpt><trkpt lat="43.35178" lon="10.7723767"><ele>55.0</ele><time>2026-03-22T14:40:19.009Z</time></trkpt><trkpt lat="43.3519117" lon="10.772605"><ele>54.666666666666664</ele><time>2026-03-22T14:40:20.012Z</time></trkpt><trkpt lat="43.3520417" lon="10.7728317"><ele>54.33333333333333</ele><time>2026-03-22T14:40:21.01Z</time></trkpt><trkpt lat="43.35217" lon="10.7730533"><ele>54.0</ele><time>2026-03-22T14:40:22.011Z</time></trkpt><trkpt lat="43.352295" lon="10.7732733"><ele>54.66666666666667</ele><time>2026-03-22T14:40:23.011Z</time></trkpt><trkpt lat="43.35242" lon="10.7734933"><ele>55.333333333333336</ele><time>2026-03-22T14:40:24.01Z</time></trkpt><trkpt lat="43.352545" lon="10.7737117"><ele>56.0</ele><time>2026-03-22T14:40:25.011Z</time></trkpt><trkpt lat="43.3526683" lon="10.7739267"><ele>56.0</ele><time>2026-03-22T14:40:26.011Z</time></trkpt><trkpt lat="43.3527917" lon="10.77414"><ele>56.0</ele><time>2026-03-22T14:40:27.01Z</time></trkpt><trkpt lat="43.3529133" lon="10.7743467"><ele>56.0</ele><time>2026-03-22T14:40:28.008Z</time></trkpt><trkpt lat="43.3530333" lon="10.7745517"><ele>56.333333333333336</ele><time>2026-03-22T14:40:29.012Z</time></trkpt><trkpt lat="43.3531517" lon="10.7747533"><ele>56.66666666666667</ele><time>2026-03-22T14:40:30.01Z</time></trkpt><trkpt lat="43.3532717" lon="10.77496"><ele>57.0</ele><time>2026-03-22T14:40:31.012Z</time></trkpt><trkpt lat="43.35339" lon="10.7751617"><ele>56.66666666666667</ele><time>2026-03-22T14:40:32.009Z</time></trkpt><trkpt lat="43.3535067" lon="10.7753617"><ele>56.333333333333336</ele><time>2026-03-22T14:40:33.01Z</time></trkpt><trkpt lat="43.3536283" lon="10.7755617"><ele>56.0</ele><time>2026-03-22T14:40:34.01Z</time></trkpt><trkpt lat="43.3537683" lon="10.77574"><ele>56.333333333333336</ele><time>2026-03-22T14:40:35.011Z</time></trkpt><trkpt lat="43.3539233" lon="10.7758833"><ele>56.66666666666667</ele><time>2026-03-22T14:40:36.01Z</time></trkpt><trkpt lat="43.3540833" lon="10.7759983"><ele>57.0</ele><time>2026-03-22T14:40:37.011Z</time></trkpt><trkpt lat="43.3542483" lon="10.7761017"><ele>57.0</ele><time>2026-03-22T14:40:38.01Z</time></trkpt><trkpt lat="43.3544067" lon="10.7761967"><ele>57.0</ele><time>2026-03-22T14:40:39.009Z</time></trkpt><trkpt lat="43.3545617" lon="10.7762933"><ele>57.0</ele><time>2026-03-22T14:40:40.01Z</time></trkpt><trkpt lat="43.3547283" lon="10.776395"><ele>57.66666666666667</ele><time>2026-03-22T14:40:41.01Z</time></trkpt><trkpt lat="43.3549017" lon="10.7765"><ele>58.333333333333336</ele><time>2026-03-22T14:40:42.01Z</time></trkpt><trkpt lat="43.3550767" lon="10.7766067"><ele>59.0</ele><time>2026-03-22T14:40:43.009Z</time></trkpt><trkpt lat="43.3552517" lon="10.776725"><ele>58.333333333333336</ele><time>2026-03-22T14:40:44.01Z</time></trkpt><trkpt lat="43.35542" lon="10.7768617"><ele>57.66666666666667</ele><time>2026-03-22T14:40:45.01Z</time></trkpt><trkpt lat="43.35558" lon="10.7770267"><ele>57.0</ele><time>2026-03-22T14:40:46.01Z</time></trkpt><trkpt lat="43.35573" lon="10.7772133"><ele>57.33333333333333</ele><time>2026-03-22T14:40:47.013Z</time></trkpt><trkpt lat="43.3558717" lon="10.7774233"><ele>57.666666666666664</ele><time>2026-03-22T14:40:48.01Z</time></trkpt><trkpt lat="43.355995" lon="10.7776517"><ele>58.0</ele><time>2026-03-22T14:40:49.01Z</time></trkpt><trkpt lat="43.3561017" lon="10.7778967"><ele>58.0</ele><time>2026-03-22T14:40:50.01Z</time></trkpt><trkpt lat="43.3561917" lon="10.7781533"><ele>58.0</ele><time>2026-03-22T14:40:51.01Z</time></trkpt><trkpt lat="43.3562667" lon="10.7784267"><ele>58.0</ele><time>2026-03-22T14:40:52.01Z</time></trkpt><trkpt lat="43.3563217" lon="10.7787117"><ele>57.666666666666664</ele><time>2026-03-22T14:40:53.01Z</time></trkpt><trkpt lat="43.3563633" lon="10.779005"><ele>57.33333333333333</ele><time>2026-03-22T14:40:54.009Z</time></trkpt><trkpt lat="43.35639" lon="10.779305"><ele>57.0</ele><time>2026-03-22T14:40:55.01Z</time></trkpt><trkpt lat="43.3564117" lon="10.7796167"><ele>58.5</ele><time>2026-03-22T14:40:56.011Z</time></trkpt><trkpt lat="43.3564217" lon="10.7799333"><ele>60.0</ele><time>2026-03-22T14:40:57.01Z</time></trkpt><trkpt lat="43.356435" lon="10.7802533"><ele>60.0</ele><time>2026-03-22T14:40:58.009Z</time></trkpt><trkpt lat="43.356445" lon="10.7805733"><ele>60.0</ele><time>2026-03-22T14:40:59.01Z</time></trkpt><trkpt lat="43.3564517" lon="10.7809017"><ele>59.5</ele><time>2026-03-22T14:41:00.011Z</time></trkpt><trkpt lat="43.35646" lon="10.7812267"><ele>59.0</ele><time>2026-03-22T14:41:01.008Z</time></trkpt><trkpt lat="43.35647" lon="10.7815567"><ele>58.5</ele><time>2026-03-22T14:41:02.01Z</time></trkpt><trkpt lat="43.3564833" lon="10.78189"><ele>58.0</ele><time>2026-03-22T14:41:03.01Z</time></trkpt><trkpt lat="43.3564983" lon="10.78222"><ele>58.0</ele><time>2026-03-22T14:41:04.009Z</time></trkpt><trkpt lat="43.3565217" lon="10.7825517"><ele>58.0</ele><time>2026-03-22T14:41:05.008Z</time></trkpt><trkpt lat="43.3565583" lon="10.7828767"><ele>58.5</ele><time>2026-03-22T14:41:06.01Z</time></trkpt><trkpt lat="43.3566033" lon="10.7831967"><ele>59.0</ele><time>2026-03-22T14:41:07.011Z</time></trkpt><trkpt lat="43.3566533" lon="10.7835217"><ele>59.5</ele><time>2026-03-22T14:41:08.011Z</time></trkpt><trkpt lat="43.3567017" lon="10.783845"><ele>60.0</ele><time>2026-03-22T14:41:09.01Z</time></trkpt><trkpt lat="43.3567517" lon="10.784165"><ele>60.0</ele><time>2026-03-22T14:41:10.008Z</time></trkpt><trkpt lat="43.3568" lon="10.7844817"><ele>60.0</ele><time>2026-03-22T14:41:11.01Z</time></trkpt><trkpt lat="43.35685" lon="10.7848"><ele>60.0</ele><time>2026-03-22T14:41:12.01Z</time></trkpt><trkpt lat="43.3569017" lon="10.7851183"><ele>60.0</ele><time>2026-03-22T14:41:13.012Z</time></trkpt><trkpt lat="43.356955" lon="10.785435"><ele>60.0</ele><time>2026-03-22T14:41:14.011Z</time></trkpt><trkpt lat="43.3570067" lon="10.7857533"><ele>60.0</ele><time>2026-03-22T14:41:15.01Z</time></trkpt><trkpt lat="43.3570533" lon="10.786075"><ele>60.0</ele><time>2026-03-22T14:41:16.009Z</time></trkpt><trkpt lat="43.3570983" lon="10.7863983"><ele>60.0</ele><time>2026-03-22T14:41:17.01Z</time></trkpt><trkpt lat="43.3571383" lon="10.7867233"><ele>59.5</ele><time>2026-03-22T14:41:18.01Z</time></trkpt><trkpt lat="43.357175" lon="10.787045"><ele>59.0</ele><time>2026-03-22T14:41:19.011Z</time></trkpt><trkpt lat="43.3572083" lon="10.78736"><ele>62.5</ele><time>2026-03-22T14:41:20.01Z</time></trkpt><trkpt lat="43.3572367" lon="10.7876783"><ele>66.0</ele><time>2026-03-22T14:41:21.009Z</time></trkpt><trkpt lat="43.3572617" lon="10.7879917"><ele>66.0</ele><time>2026-03-22T14:41:22.012Z</time></trkpt><trkpt lat="43.3572833" lon="10.7883067"><ele>66.0</ele><time>2026-03-22T14:41:23.011Z</time></trkpt><trkpt lat="43.3573" lon="10.788625"><ele>67.5</ele><time>2026-03-22T14:41:24.01Z</time></trkpt><trkpt lat="43.3573133" lon="10.7889417"><ele>69.0</ele><time>2026-03-22T14:41:25.008Z</time></trkpt><trkpt lat="43.357315" lon="10.7892617"><ele>66.0</ele><time>2026-03-22T14:41:26.01Z</time></trkpt><trkpt lat="43.357305" lon="10.78958"><ele>63.0</ele><time>2026-03-22T14:41:27.01Z</time></trkpt><trkpt lat="43.35729" lon="10.7898967"><ele>62.0</ele><time>2026-03-22T14:41:28.009Z</time></trkpt><trkpt lat="43.3572617" lon="10.7902133"><ele>61.0</ele><time>2026-03-22T14:41:29.011Z</time></trkpt><trkpt lat="43.3572233" lon="10.7905283"><ele>60.5</ele><time>2026-03-22T14:41:30.009Z</time></trkpt><trkpt lat="43.3571817" lon="10.7908467"><ele>60.0</ele><time>2026-03-22T14:41:31.011Z</time></trkpt><trkpt lat="43.3571367" lon="10.79116"><ele>60.0</ele><time>2026-03-22T14:41:32.012Z</time></trkpt><trkpt lat="43.3570867" lon="10.791475"><ele>60.0</ele><time>2026-03-22T14:41:33.01Z</time></trkpt><trkpt lat="43.3570317" lon="10.7917883"><ele>59.0</ele><time>2026-03-22T14:41:34.012Z</time></trkpt><trkpt lat="43.3569683" lon="10.7920983"><ele>58.0</ele><time>2026-03-22T14:41:35.01Z</time></trkpt><trkpt lat="43.3569067" lon="10.792405"><ele>59.0</ele><time>2026-03-22T14:41:36.01Z</time></trkpt><trkpt lat="43.3568383" lon="10.7927133"><ele>60.0</ele><time>2026-03-22T14:41:37.01Z</time></trkpt><trkpt lat="43.3567667" lon="10.7930217"><ele>60.0</ele><time>2026-03-22T14:41:38.011Z</time></trkpt><trkpt lat="43.3566933" lon="10.7933283"><ele>60.0</ele><time>2026-03-22T14:41:39.01Z</time></trkpt><trkpt lat="43.3566217" lon="10.7936383"><ele>60.5</ele><time>2026-03-22T14:41:40.011Z</time></trkpt><trkpt lat="43.3565517" lon="10.7939533"><ele>61.0</ele><time>2026-03-22T14:41:41.01Z</time></trkpt><trkpt lat="43.3564883" lon="10.794265"><ele>62.0</ele><time>2026-03-22T14:41:42.01Z</time></trkpt><trkpt lat="43.3564283" lon="10.79458"><ele>63.0</ele><time>2026-03-22T14:41:43.008Z</time></trkpt><trkpt lat="43.3563817" lon="10.7949033"><ele>62.5</ele><time>2026-03-22T14:41:44.011Z</time></trkpt><trkpt lat="43.3563467" lon="10.795225"><ele>62.0</ele><time>2026-03-22T14:41:45.01Z</time></trkpt><trkpt lat="43.3563333" lon="10.79555"><ele>62.0</ele><time>2026-03-22T14:41:46.009Z</time></trkpt><trkpt lat="43.3563333" lon="10.7958783"><ele>62.0</ele><time>2026-03-22T14:41:47.011Z</time></trkpt><trkpt lat="43.3563533" lon="10.7962017"><ele>68.0</ele><time>2026-03-22T14:41:48.01Z</time></trkpt><trkpt lat="43.3563933" lon="10.79652"><ele>74.0</ele><time>2026-03-22T14:41:49.011Z</time></trkpt><trkpt lat="43.3564467" lon="10.796835"><ele>72.66666666666667</ele><time>2026-03-22T14:41:50.011Z</time></trkpt><trkpt lat="43.3565133" lon="10.7971367"><ele>71.33333333333333</ele><time>2026-03-22T14:41:51.012Z</time></trkpt><trkpt lat="43.3565983" lon="10.7974117"><ele>70.0</ele><time>2026-03-22T14:41:52.01Z</time></trkpt><trkpt lat="43.3566917" lon="10.7976717"><ele>68.33333333333333</ele><time>2026-03-22T14:41:53.011Z</time></trkpt><trkpt lat="43.3568" lon="10.797915"><ele>66.66666666666667</ele><time>2026-03-22T14:41:54.01Z</time></trkpt><trkpt lat="43.35692" lon="10.79815"><ele>65.0</ele><time>2026-03-22T14:41:55.009Z</time></trkpt><trkpt lat="43.35705" lon="10.7983767"><ele>64.33333333333334</ele><time>2026-03-22T14:41:56.009Z</time></trkpt><trkpt lat="43.357185" lon="10.7985967"><ele>63.66666666666667</ele><time>2026-03-22T14:41:57.01Z</time></trkpt><trkpt lat="43.357325" lon="10.7988117"><ele>63.0</ele><time>2026-03-22T14:41:58.009Z</time></trkpt><trkpt lat="43.35746" lon="10.7990167"><ele>63.66666666666667</ele><time>2026-03-22T14:41:59.01Z</time></trkpt><trkpt lat="43.3575817" lon="10.7992217"><ele>64.33333333333334</ele><time>2026-03-22T14:42:00.01Z</time></trkpt><trkpt lat="43.35769" lon="10.799435"><ele>65.0</ele><time>2026-03-22T14:42:01.009Z</time></trkpt><trkpt lat="43.35778" lon="10.799655"><ele>65.0</ele><time>2026-03-22T14:42:02.01Z</time></trkpt><trkpt lat="43.3578483" lon="10.7998617"><ele>65.0</ele><time>2026-03-22T14:42:03.009Z</time></trkpt><trkpt lat="43.3579117" lon="10.8000517"><ele>65.0</ele><time>2026-03-22T14:42:04.01Z</time></trkpt><trkpt lat="43.3579717" lon="10.800235"><ele>64.75</ele><time>2026-03-22T14:42:05.011Z</time></trkpt><trkpt lat="43.3580283" lon="10.8004183"><ele>64.5</ele><time>2026-03-22T14:42:06.01Z</time></trkpt><trkpt lat="43.3580817" lon="10.8005933"><ele>64.25</ele><time>2026-03-22T14:42:07.01Z</time></trkpt><trkpt lat="43.358135" lon="10.800765"><ele>64.0</ele><time>2026-03-22T14:42:08.009Z</time></trkpt><trkpt lat="43.3581983" lon="10.8009433"><ele>64.75</ele><time>2026-03-22T14:42:09.01Z</time></trkpt><trkpt lat="43.3582617" lon="10.801115"><ele>65.5</ele><time>2026-03-22T14:42:10.012Z</time></trkpt><trkpt lat="43.3583333" lon="10.801285"><ele>66.25</ele><time>2026-03-22T14:42:11.01Z</time></trkpt><trkpt lat="43.35842" lon="10.8014483"><ele>67.0</ele><time>2026-03-22T14:42:12.01Z</time></trkpt><trkpt lat="43.3585133" lon="10.801605"><ele>67.0</ele><time>2026-03-22T14:42:13.009Z</time></trkpt><trkpt lat="43.358615" lon="10.8017567"><ele>67.0</ele><time>2026-03-22T14:42:14.011Z</time></trkpt><trkpt lat="43.3587167" lon="10.8019067"><ele>67.0</ele><time>2026-03-22T14:42:15.009Z</time></trkpt><trkpt lat="43.35881" lon="10.8020533"><ele>67.0</ele><time>2026-03-22T14:42:16.009Z</time></trkpt><trkpt lat="43.3589017" lon="10.802195"><ele>66.75</ele><time>2026-03-22T14:42:17.009Z</time></trkpt><trkpt lat="43.358995" lon="10.8023383"><ele>66.5</ele><time>2026-03-22T14:42:18.009Z</time></trkpt><trkpt lat="43.3590917" lon="10.8024817"><ele>66.25</ele><time>2026-03-22T14:42:19.01Z</time></trkpt><trkpt lat="43.3591817" lon="10.8026417"><ele>66.0</ele><time>2026-03-22T14:42:20.01Z</time></trkpt><trkpt lat="43.3592617" lon="10.8028233"><ele>66.0</ele><time>2026-03-22T14:42:21.01Z</time></trkpt><trkpt lat="43.359325" lon="10.8030117"><ele>66.0</ele><time>2026-03-22T14:42:22.01Z</time></trkpt><trkpt lat="43.3593717" lon="10.80321"><ele>66.0</ele><time>2026-03-22T14:42:23.01Z</time></trkpt><trkpt lat="43.35941" lon="10.803425"><ele>65.66666666666667</ele><time>2026-03-22T14:42:24.01Z</time></trkpt><trkpt lat="43.359435" lon="10.803645"><ele>65.33333333333334</ele><time>2026-03-22T14:42:25.009Z</time></trkpt><trkpt lat="43.3594533" lon="10.8038633"><ele>65.0</ele><time>2026-03-22T14:42:26.01Z</time></trkpt><trkpt lat="43.3594567" lon="10.8040783"><ele>65.0</ele><time>2026-03-22T14:42:27.01Z</time></trkpt><trkpt lat="43.3594483" lon="10.8042917"><ele>65.0</ele><time>2026-03-22T14:42:28.01Z</time></trkpt><trkpt lat="43.3594283" lon="10.8045017"><ele>65.0</ele><time>2026-03-22T14:42:29.01Z</time></trkpt><trkpt lat="43.3594067" lon="10.804705"><ele>65.5</ele><time>2026-03-22T14:42:30.009Z</time></trkpt><trkpt lat="43.3593867" lon="10.8049067"><ele>66.0</ele><time>2026-03-22T14:42:31.01Z</time></trkpt><trkpt lat="43.3593633" lon="10.80511"><ele>66.5</ele><time>2026-03-22T14:42:32.01Z</time></trkpt><trkpt lat="43.359345" lon="10.8053083"><ele>67.0</ele><time>2026-03-22T14:42:33.01Z</time></trkpt><trkpt lat="43.3593233" lon="10.805505"><ele>67.5</ele><time>2026-03-22T14:42:34.011Z</time></trkpt><trkpt lat="43.3592983" lon="10.8056983"><ele>68.0</ele><time>2026-03-22T14:42:35.012Z</time></trkpt><trkpt lat="43.3592767" lon="10.80589"><ele>68.5</ele><time>2026-03-22T14:42:36.01Z</time></trkpt><trkpt lat="43.3592583" lon="10.806075"><ele>69.0</ele><time>2026-03-22T14:42:37.011Z</time></trkpt><trkpt lat="43.359245" lon="10.8062483"><ele>69.0</ele><time>2026-03-22T14:42:38.009Z</time></trkpt><trkpt lat="43.3592483" lon="10.8064217"><ele>69.0</ele><time>2026-03-22T14:42:39.009Z</time></trkpt><trkpt lat="43.3592767" lon="10.8065983"><ele>69.0</ele><time>2026-03-22T14:42:40.011Z</time></trkpt><trkpt lat="43.3593217" lon="10.8067767"><ele>69.0</ele><time>2026-03-22T14:42:41.009Z</time></trkpt><trkpt lat="43.3593767" lon="10.806955"><ele>69.25</ele><time>2026-03-22T14:42:42.009Z</time></trkpt><trkpt lat="43.3594383" lon="10.80714"><ele>69.5</ele><time>2026-03-22T14:42:43.01Z</time></trkpt><trkpt lat="43.3594983" lon="10.80733"><ele>69.75</ele><time>2026-03-22T14:42:44.009Z</time></trkpt><trkpt lat="43.35955" lon="10.807515"><ele>70.0</ele><time>2026-03-22T14:42:45.009Z</time></trkpt><trkpt lat="43.359605" lon="10.807705"><ele>70.0</ele><time>2026-03-22T14:42:46.011Z</time></trkpt><trkpt lat="43.3596583" lon="10.8078933"><ele>70.0</ele><time>2026-03-22T14:42:47.008Z</time></trkpt><trkpt lat="43.3597117" lon="10.8080817"><ele>70.0</ele><time>2026-03-22T14:42:48.009Z</time></trkpt><trkpt lat="43.3597617" lon="10.808265"><ele>70.0</ele><time>2026-03-22T14:42:49.011Z</time></trkpt><trkpt lat="43.359815" lon="10.80845"><ele>71.0</ele><time>2026-03-22T14:42:50.009Z</time></trkpt><trkpt lat="43.359875" lon="10.8086267"><ele>72.0</ele><time>2026-03-22T14:42:51.009Z</time></trkpt><trkpt lat="43.359935" lon="10.8088133"><ele>73.0</ele><time>2026-03-22T14:42:52.01Z</time></trkpt><trkpt lat="43.3599883" lon="10.8089917"><ele>74.0</ele><time>2026-03-22T14:42:53.01Z</time></trkpt><trkpt lat="43.360045" lon="10.8091767"><ele>73.5</ele><time>2026-03-22T14:42:54.011Z</time></trkpt><trkpt lat="43.360105" lon="10.80936"><ele>73.0</ele><time>2026-03-22T14:42:55.01Z</time></trkpt><trkpt lat="43.3601683" lon="10.8095417"><ele>72.5</ele><time>2026-03-22T14:42:56.009Z</time></trkpt><trkpt lat="43.3602267" lon="10.8097283"><ele>72.0</ele><time>2026-03-22T14:42:57.009Z</time></trkpt><trkpt lat="43.3602883" lon="10.8099183"><ele>72.0</ele><time>2026-03-22T14:42:58.009Z</time></trkpt><trkpt lat="43.3603533" lon="10.81011"><ele>72.0</ele><time>2026-03-22T14:42:59.011Z</time></trkpt><trkpt lat="43.360415" lon="10.8103017"><ele>72.0</ele><time>2026-03-22T14:43:00.009Z</time></trkpt><trkpt lat="43.3604783" lon="10.8104933"><ele>72.75</ele><time>2026-03-22T14:43:01.01Z</time></trkpt><trkpt lat="43.36054" lon="10.8106817"><ele>73.5</ele><time>2026-03-22T14:43:02.012Z</time></trkpt><trkpt lat="43.3606" lon="10.810855"><ele>74.25</ele><time>2026-03-22T14:43:03.011Z</time></trkpt><trkpt lat="43.360665" lon="10.8110283"><ele>75.0</ele><time>2026-03-22T14:43:04.011Z</time></trkpt><trkpt lat="43.3607433" lon="10.811195"><ele>75.0</ele><time>2026-03-22T14:43:05.009Z</time></trkpt><trkpt lat="43.3608267" lon="10.8113567"><ele>75.0</ele><time>2026-03-22T14:43:06.009Z</time></trkpt><trkpt lat="43.36091" lon="10.8115133"><ele>75.0</ele><time>2026-03-22T14:43:07.011Z</time></trkpt><trkpt lat="43.3609917" lon="10.8116667"><ele>75.0</ele><time>2026-03-22T14:43:08.01Z</time></trkpt><trkpt lat="43.3610683" lon="10.8118033"><ele>75.25</ele><time>2026-03-22T14:43:09.01Z</time></trkpt><trkpt lat="43.361145" lon="10.8119367"><ele>75.5</ele><time>2026-03-22T14:43:10.01Z</time></trkpt><trkpt lat="43.36123" lon="10.8120667"><ele>75.75</ele><time>2026-03-22T14:43:11.009Z</time></trkpt><trkpt lat="43.3613167" lon="10.8121883"><ele>76.0</ele><time>2026-03-22T14:43:12.01Z</time></trkpt><trkpt lat="43.3614117" lon="10.8122933"><ele>76.0</ele><time>2026-03-22T14:43:13.012Z</time></trkpt><trkpt lat="43.3615167" lon="10.8123783"><ele>76.0</ele><time>2026-03-22T14:43:14.011Z</time></trkpt><trkpt lat="43.3616233" lon="10.8124567"><ele>76.0</ele><time>2026-03-22T14:43:15.01Z</time></trkpt><trkpt lat="43.36172" lon="10.812515"><ele>76.0</ele><time>2026-03-22T14:43:16.01Z</time></trkpt><trkpt lat="43.3618233" lon="10.81256"><ele>76.0</ele><time>2026-03-22T14:43:17.012Z</time></trkpt><trkpt lat="43.361925" lon="10.8125817"><ele>76.0</ele><time>2026-03-22T14:43:18.011Z</time></trkpt><trkpt lat="43.3620267" lon="10.8126017"><ele>76.0</ele><time>2026-03-22T14:43:19.009Z</time></trkpt><trkpt lat="43.3621317" lon="10.81262"><ele>76.0</ele><time>2026-03-22T14:43:20.012Z</time></trkpt><trkpt lat="43.3622383" lon="10.812625"><ele>76.0</ele><time>2026-03-22T14:43:21.01Z</time></trkpt><trkpt lat="43.3623483" lon="10.8126283"><ele>76.6</ele><time>2026-03-22T14:43:22.01Z</time></trkpt><trkpt lat="43.3624517" lon="10.8126333"><ele>77.19999999999999</ele><time>2026-03-22T14:43:23.009Z</time></trkpt><trkpt lat="43.3625517" lon="10.8126333"><ele>77.80000000000001</ele><time>2026-03-22T14:43:24.009Z</time></trkpt><trkpt lat="43.362655" lon="10.8126383"><ele>78.4</ele><time>2026-03-22T14:43:25.01Z</time></trkpt><trkpt lat="43.3627633" lon="10.8126467"><ele>79.0</ele><time>2026-03-22T14:43:26.01Z</time></trkpt><trkpt lat="43.3628767" lon="10.8126467"><ele>79.0</ele><time>2026-03-22T14:43:27.009Z</time></trkpt><trkpt lat="43.36299" lon="10.8126517"><ele>79.0</ele><time>2026-03-22T14:43:28.01Z</time></trkpt><trkpt lat="43.363105" lon="10.812655"><ele>79.0</ele><time>2026-03-22T14:43:29.012Z</time></trkpt><trkpt lat="43.3632167" lon="10.8126533"><ele>79.0</ele><time>2026-03-22T14:43:30.01Z</time></trkpt><trkpt lat="43.3633283" lon="10.8126567"><ele>78.0</ele><time>2026-03-22T14:43:31.011Z</time></trkpt><trkpt lat="43.363435" lon="10.81266"><ele>77.0</ele><time>2026-03-22T14:43:32.01Z</time></trkpt><trkpt lat="43.363535" lon="10.8126683"><ele>76.0</ele><time>2026-03-22T14:43:33.009Z</time></trkpt><trkpt lat="43.3636317" lon="10.8126883"><ele>75.0</ele><time>2026-03-22T14:43:34.009Z</time></trkpt><trkpt lat="43.36373" lon="10.8127217"><ele>74.0</ele><time>2026-03-22T14:43:35.011Z</time></trkpt><trkpt lat="43.3638283" lon="10.8127733"><ele>75.0</ele><time>2026-03-22T14:43:36.009Z</time></trkpt><trkpt lat="43.3639317" lon="10.8128467"><ele>76.0</ele><time>2026-03-22T14:43:37.009Z</time></trkpt><trkpt lat="43.3640317" lon="10.812935"><ele>77.0</ele><time>2026-03-22T14:43:38.01Z</time></trkpt><trkpt lat="43.3641267" lon="10.8130217"><ele>78.0</ele><time>2026-03-22T14:43:39.01Z</time></trkpt><trkpt lat="43.3642233" lon="10.81311"><ele>78.0</ele><time>2026-03-22T14:43:40.009Z</time></trkpt><trkpt lat="43.3643183" lon="10.8131983"><ele>78.0</ele><time>2026-03-22T14:43:41.01Z</time></trkpt><trkpt lat="43.3644083" lon="10.81329"><ele>78.0</ele><time>2026-03-22T14:43:42.011Z</time></trkpt><trkpt lat="43.3645" lon="10.8133733"><ele>78.0</ele><time>2026-03-22T14:43:43.009Z</time></trkpt><trkpt lat="43.3645883" lon="10.81346"><ele>78.0</ele><time>2026-03-22T14:43:44.011Z</time></trkpt><trkpt lat="43.3646833" lon="10.81355"><ele>78.25</ele><time>2026-03-22T14:43:45.011Z</time></trkpt><trkpt lat="43.364785" lon="10.8136483"><ele>78.5</ele><time>2026-03-22T14:43:46.009Z</time></trkpt><trkpt lat="43.364905" lon="10.8137567"><ele>78.75</ele><time>2026-03-22T14:43:47.01Z</time></trkpt><trkpt lat="43.3650267" lon="10.8138667"><ele>79.0</ele><time>2026-03-22T14:43:48.009Z</time></trkpt><trkpt lat="43.3651517" lon="10.8139917"><ele>79.0</ele><time>2026-03-22T14:43:49.009Z</time></trkpt><trkpt lat="43.3652783" lon="10.81411"><ele>79.0</ele><time>2026-03-22T14:43:50.012Z</time></trkpt><trkpt lat="43.3654017" lon="10.8142317"><ele>79.0</ele><time>2026-03-22T14:43:51.012Z</time></trkpt><trkpt lat="43.3655267" lon="10.81435"><ele>80.33333333333333</ele><time>2026-03-22T14:43:52.01Z</time></trkpt><trkpt lat="43.3656583" lon="10.8144733"><ele>81.66666666666667</ele><time>2026-03-22T14:43:53.012Z</time></trkpt><trkpt lat="43.3657967" lon="10.8145917"><ele>83.0</ele><time>2026-03-22T14:43:54.01Z</time></trkpt><trkpt lat="43.3659383" lon="10.8147083"><ele>83.0</ele><time>2026-03-22T14:43:55.011Z</time></trkpt><trkpt lat="43.3660917" lon="10.814815"><ele>83.0</ele><time>2026-03-22T14:43:56.013Z</time></trkpt><trkpt lat="43.36625" lon="10.8149067"><ele>83.0</ele><time>2026-03-22T14:43:57.01Z</time></trkpt><trkpt lat="43.3664133" lon="10.81499"><ele>86.0</ele><time>2026-03-22T14:43:58.012Z</time></trkpt><trkpt lat="43.3665717" lon="10.815065"><ele>89.0</ele><time>2026-03-22T14:43:59.01Z</time></trkpt><trkpt lat="43.366735" lon="10.815135"><ele>92.0</ele><time>2026-03-22T14:44:00.012Z</time></trkpt><trkpt lat="43.3669017" lon="10.81517"><ele>92.66666666666667</ele><time>2026-03-22T14:44:01.01Z</time></trkpt><trkpt lat="43.3670717" lon="10.815165"><ele>93.33333333333333</ele><time>2026-03-22T14:44:02.011Z</time></trkpt><trkpt lat="43.3672433" lon="10.8151217"><ele>94.0</ele><time>2026-03-22T14:44:03.012Z</time></trkpt><trkpt lat="43.367415" lon="10.8150567"><ele>94.0</ele><time>2026-03-22T14:44:04.011Z</time></trkpt><trkpt lat="43.3675883" lon="10.8149833"><ele>94.0</ele><time>2026-03-22T14:44:05.012Z</time></trkpt><trkpt lat="43.36776" lon="10.81491"><ele>94.0</ele><time>2026-03-22T14:44:06.01Z</time></trkpt><trkpt lat="43.3679267" lon="10.8148617"><ele>94.5</ele><time>2026-03-22T14:44:07.011Z</time></trkpt><trkpt lat="43.3680817" lon="10.81484"><ele>95.0</ele><time>2026-03-22T14:44:08.011Z</time></trkpt><trkpt lat="43.368215" lon="10.8148433"><ele>95.5</ele><time>2026-03-22T14:44:09.01Z</time></trkpt><trkpt lat="43.3683317" lon="10.8148917"><ele>96.0</ele><time>2026-03-22T14:44:10.01Z</time></trkpt><trkpt lat="43.3684267" lon="10.81499"><ele>96.0</ele><time>2026-03-22T14:44:11.012Z</time></trkpt><trkpt lat="43.3684983" lon="10.8151333"><ele>96.0</ele><time>2026-03-22T14:44:12.012Z</time></trkpt><trkpt lat="43.3685317" lon="10.8153217"><ele>96.0</ele><time>2026-03-22T14:44:13.01Z</time></trkpt><trkpt lat="43.3685333" lon="10.8155317"><ele>96.0</ele><time>2026-03-22T14:44:14.01Z</time></trkpt><trkpt lat="43.3685233" lon="10.8157617"><ele>99.33333333333334</ele><time>2026-03-22T14:44:15.011Z</time></trkpt><trkpt lat="43.3685317" lon="10.8159983"><ele>102.66666666666667</ele><time>2026-03-22T14:44:16.01Z</time></trkpt><trkpt lat="43.36858" lon="10.8162017"><ele>106.0</ele><time>2026-03-22T14:44:17.011Z</time></trkpt><trkpt lat="43.3686483" lon="10.81638"><ele>106.0</ele><time>2026-03-22T14:44:18.011Z</time></trkpt><trkpt lat="43.3687633" lon="10.816515"><ele>106.0</ele><time>2026-03-22T14:44:19.011Z</time></trkpt><trkpt lat="43.3688817" lon="10.816635"><ele>106.0</ele><time>2026-03-22T14:44:20.013Z</time></trkpt><trkpt lat="43.36898" lon="10.81679"><ele>106.0</ele><time>2026-03-22T14:44:21.01Z</time></trkpt><trkpt lat="43.369055" lon="10.817"><ele>107.66666666666667</ele><time>2026-03-22T14:44:22.011Z</time></trkpt><trkpt lat="43.3691317" lon="10.8172433"><ele>109.33333333333334</ele><time>2026-03-22T14:44:23.011Z</time></trkpt><trkpt lat="43.3692117" lon="10.8174967"><ele>111.0</ele><time>2026-03-22T14:44:24.011Z</time></trkpt><trkpt lat="43.3692933" lon="10.81776"><ele>113.66666666666666</ele><time>2026-03-22T14:44:25.011Z</time></trkpt><trkpt lat="43.3693767" lon="10.8180283"><ele>116.33333333333333</ele><time>2026-03-22T14:44:26.011Z</time></trkpt><trkpt lat="43.3694617" lon="10.818305"><ele>119.0</ele><time>2026-03-22T14:44:27.009Z</time></trkpt><trkpt lat="43.3695617" lon="10.8185783"><ele>117.0</ele><time>2026-03-22T14:44:28.012Z</time></trkpt><trkpt lat="43.3696767" lon="10.8188433"><ele>115.0</ele><time>2026-03-22T14:44:29.011Z</time></trkpt><trkpt lat="43.3698083" lon="10.8191033"><ele>117.66666666666667</ele><time>2026-03-22T14:44:30.01Z</time></trkpt><trkpt lat="43.369945" lon="10.8193517"><ele>120.33333333333334</ele><time>2026-03-22T14:44:31.011Z</time></trkpt><trkpt lat="43.3700767" lon="10.8195883"><ele>123.0</ele><time>2026-03-22T14:44:32.011Z</time></trkpt><trkpt lat="43.370205" lon="10.819815"><ele>123.0</ele><time>2026-03-22T14:44:33.012Z</time></trkpt><trkpt lat="43.370335" lon="10.8200317"><ele>123.0</ele><time>2026-03-22T14:44:34.01Z</time></trkpt><trkpt lat="43.3704767" lon="10.82022"><ele>123.0</ele><time>2026-03-22T14:44:35.011Z</time></trkpt><trkpt lat="43.3706317" lon="10.8203883"><ele>123.0</ele><time>2026-03-22T14:44:36.012Z</time></trkpt><trkpt lat="43.3707983" lon="10.8205417"><ele>123.0</ele><time>2026-03-22T14:44:37.011Z</time></trkpt><trkpt lat="43.3709717" lon="10.8206967"><ele>123.0</ele><time>2026-03-22T14:44:38.011Z</time></trkpt><trkpt lat="43.3711433" lon="10.8208517"><ele>123.33333333333334</ele><time>2026-03-22T14:44:39.01Z</time></trkpt><trkpt lat="43.3713167" lon="10.8210017"><ele>123.66666666666667</ele><time>2026-03-22T14:44:40.01Z</time></trkpt><trkpt lat="43.37149" lon="10.8211617"><ele>124.0</ele><time>2026-03-22T14:44:41.01Z</time></trkpt><trkpt lat="43.3716533" lon="10.8213117"><ele>124.0</ele><time>2026-03-22T14:44:42.011Z</time></trkpt><trkpt lat="43.3718067" lon="10.8214483"><ele>124.0</ele><time>2026-03-22T14:44:43.01Z</time></trkpt><trkpt lat="43.3719467" lon="10.8215733"><ele>124.0</ele><time>2026-03-22T14:44:44.014Z</time></trkpt><trkpt lat="43.3720767" lon="10.821675"><ele>124.0</ele><time>2026-03-22T14:44:45.01Z</time></trkpt><trkpt lat="43.3722067" lon="10.8217617"><ele>124.0</ele><time>2026-03-22T14:44:46.012Z</time></trkpt><trkpt lat="43.37234" lon="10.8218017"><ele>124.0</ele><time>2026-03-22T14:44:47.01Z</time></trkpt><trkpt lat="43.3724883" lon="10.821805"><ele>124.0</ele><time>2026-03-22T14:44:48.01Z</time></trkpt><trkpt lat="43.3726483" lon="10.8217917"><ele>124.0</ele><time>2026-03-22T14:44:49.011Z</time></trkpt><trkpt lat="43.37281" lon="10.82181"><ele>124.0</ele><time>2026-03-22T14:44:50.01Z</time></trkpt><trkpt lat="43.3729583" lon="10.82189"><ele>124.0</ele><time>2026-03-22T14:44:51.01Z</time></trkpt><trkpt lat="43.3730917" lon="10.8220367"><ele>124.66666666666667</ele><time>2026-03-22T14:44:52.01Z</time></trkpt><trkpt lat="43.3732117" lon="10.8222117"><ele>125.33333333333334</ele><time>2026-03-22T14:44:53.012Z</time></trkpt><trkpt lat="43.3733367" lon="10.8223717"><ele>126.0</ele><time>2026-03-22T14:44:54.01Z</time></trkpt><trkpt lat="43.3734733" lon="10.8224933"><ele>126.0</ele><time>2026-03-22T14:44:55.012Z</time></trkpt><trkpt lat="43.3736333" lon="10.822565"><ele>126.0</ele><time>2026-03-22T14:44:56.011Z</time></trkpt><trkpt lat="43.3738133" lon="10.8225917"><ele>126.0</ele><time>2026-03-22T14:44:57.012Z</time></trkpt><trkpt lat="43.3740017" lon="10.8225933"><ele>128.33333333333334</ele><time>2026-03-22T14:44:58.011Z</time></trkpt><trkpt lat="43.3742" lon="10.8225467"><ele>130.66666666666669</ele><time>2026-03-22T14:44:59.012Z</time></trkpt><trkpt lat="43.3743967" lon="10.8224733"><ele>133.0</ele><time>2026-03-22T14:45:00.011Z</time></trkpt><trkpt lat="43.3745767" lon="10.8223817"><ele>133.0</ele><time>2026-03-22T14:45:01.013Z</time></trkpt><trkpt lat="43.3747383" lon="10.8222967"><ele>133.0</ele><time>2026-03-22T14:45:02.011Z</time></trkpt><trkpt lat="43.3748933" lon="10.8222417"><ele>133.0</ele><time>2026-03-22T14:45:03.01Z</time></trkpt><trkpt lat="43.3750517" lon="10.8222383"><ele>133.0</ele><time>2026-03-22T14:45:04.011Z</time></trkpt><trkpt lat="43.3752217" lon="10.82228"><ele>133.0</ele><time>2026-03-22T14:45:05.011Z</time></trkpt><trkpt lat="43.37541" lon="10.8223317"><ele>133.0</ele><time>2026-03-22T14:45:06.014Z</time></trkpt><trkpt lat="43.3756133" lon="10.8223767"><ele>131.66666666666669</ele><time>2026-03-22T14:45:07.015Z</time></trkpt><trkpt lat="43.375825" lon="10.8224133"><ele>130.33333333333334</ele><time>2026-03-22T14:45:08.012Z</time></trkpt><trkpt lat="43.37604" lon="10.8224433"><ele>129.0</ele><time>2026-03-22T14:45:09.011Z</time></trkpt><trkpt lat="43.3762633" lon="10.822465"><ele>129.0</ele><time>2026-03-22T14:45:10.01Z</time></trkpt><trkpt lat="43.3764883" lon="10.8224833"><ele>129.0</ele><time>2026-03-22T14:45:11.01Z</time></trkpt><trkpt lat="43.3767083" lon="10.822495"><ele>129.0</ele><time>2026-03-22T14:45:12.012Z</time></trkpt><trkpt lat="43.37692" lon="10.8225067"><ele>129.0</ele><time>2026-03-22T14:45:13.011Z</time></trkpt><trkpt lat="43.3771117" lon="10.82253"><ele>129.0</ele><time>2026-03-22T14:45:14.011Z</time></trkpt><trkpt lat="43.3772883" lon="10.8225817"><ele>129.0</ele><time>2026-03-22T14:45:15.013Z</time></trkpt><trkpt lat="43.377445" lon="10.8226817"><ele>129.66666666666666</ele><time>2026-03-22T14:45:16.009Z</time></trkpt><trkpt lat="43.3775817" lon="10.8228433"><ele>130.33333333333331</ele><time>2026-03-22T14:45:17.011Z</time></trkpt><trkpt lat="43.3776917" lon="10.82304"><ele>131.0</ele><time>2026-03-22T14:45:18.01Z</time></trkpt><trkpt lat="43.37779" lon="10.823245"><ele>131.0</ele><time>2026-03-22T14:45:19.011Z</time></trkpt><trkpt lat="43.3778967" lon="10.82344"><ele>131.0</ele><time>2026-03-22T14:45:20.012Z</time></trkpt><trkpt lat="43.3780433" lon="10.8235767"><ele>131.0</ele><time>2026-03-22T14:45:21.01Z</time></trkpt><trkpt lat="43.3782233" lon="10.8236733"><ele>133.0</ele><time>2026-03-22T14:45:22.011Z</time></trkpt><trkpt lat="43.3784233" lon="10.8237383"><ele>135.0</ele><time>2026-03-22T14:45:23.01Z</time></trkpt><trkpt lat="43.3786217" lon="10.8238083"><ele>137.0</ele><time>2026-03-22T14:45:24.012Z</time></trkpt><trkpt lat="43.3788133" lon="10.8239133"><ele>139.33333333333331</ele><time>2026-03-22T14:45:25.011Z</time></trkpt><trkpt lat="43.3789917" lon="10.8240617"><ele>141.66666666666666</ele><time>2026-03-22T14:45:26.011Z</time></trkpt><trkpt lat="43.3791567" lon="10.82424"><ele>144.0</ele><time>2026-03-22T14:45:27.011Z</time></trkpt><trkpt lat="43.3793267" lon="10.82442"><ele>146.0</ele><time>2026-03-22T14:45:28.01Z</time></trkpt><trkpt lat="43.3795167" lon="10.82458"><ele>148.0</ele><time>2026-03-22T14:45:29.01Z</time></trkpt><trkpt lat="43.3797133" lon="10.8247117"><ele>150.0</ele><time>2026-03-22T14:45:30.012Z</time></trkpt><trkpt lat="43.379895" lon="10.8248367"><ele>151.0</ele><time>2026-03-22T14:45:31.011Z</time></trkpt><trkpt lat="43.38005" lon="10.8249667"><ele>152.0</ele><time>2026-03-22T14:45:32.01Z</time></trkpt><trkpt lat="43.38017" lon="10.8251183"><ele>153.0</ele><time>2026-03-22T14:45:33.009Z</time></trkpt><trkpt lat="43.3802533" lon="10.825295"><ele>154.66666666666666</ele><time>2026-03-22T14:45:34.011Z</time></trkpt><trkpt lat="43.3802983" lon="10.82551"><ele>156.33333333333331</ele><time>2026-03-22T14:45:35.011Z</time></trkpt><trkpt lat="43.38031" lon="10.8257517"><ele>158.0</ele><time>2026-03-22T14:45:36.012Z</time></trkpt><trkpt lat="43.380315" lon="10.8260083"><ele>158.0</ele><time>2026-03-22T14:45:37.01Z</time></trkpt><trkpt lat="43.38032" lon="10.826265"><ele>158.0</ele><time>2026-03-22T14:45:38.011Z</time></trkpt><trkpt lat="43.3803317" lon="10.8264917"><ele>158.0</ele><time>2026-03-22T14:45:39.011Z</time></trkpt><trkpt lat="43.380365" lon="10.8266967"><ele>158.33333333333331</ele><time>2026-03-22T14:45:40.012Z</time></trkpt><trkpt lat="43.3804367" lon="10.82687"><ele>158.66666666666666</ele><time>2026-03-22T14:45:41.011Z</time></trkpt><trkpt lat="43.3805383" lon="10.82702"><ele>159.0</ele><time>2026-03-22T14:45:42.01Z</time></trkpt><trkpt lat="43.380675" lon="10.827145"><ele>160.0</ele><time>2026-03-22T14:45:43.011Z</time></trkpt><trkpt lat="43.380795" lon="10.8272883"><ele>161.0</ele><time>2026-03-22T14:45:44.01Z</time></trkpt><trkpt lat="43.380885" lon="10.8274533"><ele>162.0</ele><time>2026-03-22T14:45:45.01Z</time></trkpt><trkpt lat="43.3809583" lon="10.827655"><ele>162.0</ele><time>2026-03-22T14:45:46.011Z</time></trkpt><trkpt lat="43.3810183" lon="10.827875"><ele>162.0</ele><time>2026-03-22T14:45:47.011Z</time></trkpt><trkpt lat="43.3810567" lon="10.828095"><ele>162.0</ele><time>2026-03-22T14:45:48.01Z</time></trkpt><trkpt lat="43.3810617" lon="10.8283367"><ele>160.66666666666666</ele><time>2026-03-22T14:45:49.011Z</time></trkpt><trkpt lat="43.3810417" lon="10.8285983"><ele>159.33333333333331</ele><time>2026-03-22T14:45:50.011Z</time></trkpt><trkpt lat="43.3810117" lon="10.8288633"><ele>158.0</ele><time>2026-03-22T14:45:51.01Z</time></trkpt><trkpt lat="43.3809817" lon="10.829135"><ele>158.66666666666666</ele><time>2026-03-22T14:45:52.011Z</time></trkpt><trkpt lat="43.3809517" lon="10.82942"><ele>159.33333333333334</ele><time>2026-03-22T14:45:53.011Z</time></trkpt><trkpt lat="43.3809217" lon="10.829715"><ele>160.0</ele><time>2026-03-22T14:45:54.01Z</time></trkpt><trkpt lat="43.38089" lon="10.8300117"><ele>160.33333333333334</ele><time>2026-03-22T14:45:55.013Z</time></trkpt><trkpt lat="43.38086" lon="10.830305"><ele>160.66666666666666</ele><time>2026-03-22T14:45:56.012Z</time></trkpt><trkpt lat="43.38083" lon="10.8305983"><ele>161.0</ele><time>2026-03-22T14:45:57.012Z</time></trkpt><trkpt lat="43.3808133" lon="10.8308917"><ele>162.33333333333331</ele><time>2026-03-22T14:45:58.01Z</time></trkpt><trkpt lat="43.38082" lon="10.8311817"><ele>163.66666666666666</ele><time>2026-03-22T14:45:59.011Z</time></trkpt><trkpt lat="43.3808633" lon="10.83147"><ele>165.0</ele><time>2026-03-22T14:46:00.01Z</time></trkpt><trkpt lat="43.38092" lon="10.8317617"><ele>165.0</ele><time>2026-03-22T14:46:01.012Z</time></trkpt><trkpt lat="43.380985" lon="10.832055"><ele>165.0</ele><time>2026-03-22T14:46:02.013Z</time></trkpt><trkpt lat="43.3810617" lon="10.8323433"><ele>165.0</ele><time>2026-03-22T14:46:03.01Z</time></trkpt><trkpt lat="43.38115" lon="10.8326233"><ele>165.0</ele><time>2026-03-22T14:46:04.011Z</time></trkpt><trkpt lat="43.381265" lon="10.8328883"><ele>165.0</ele><time>2026-03-22T14:46:05.011Z</time></trkpt><trkpt lat="43.3813933" lon="10.833145"><ele>166.5</ele><time>2026-03-22T14:46:06.012Z</time></trkpt><trkpt lat="43.3815283" lon="10.83339"><ele>168.0</ele><time>2026-03-22T14:46:07.013Z</time></trkpt><trkpt lat="43.3816717" lon="10.8336333"><ele>171.5</ele><time>2026-03-22T14:46:08.012Z</time></trkpt><trkpt lat="43.38182" lon="10.8338733"><ele>175.0</ele><time>2026-03-22T14:46:09.011Z</time></trkpt><trkpt lat="43.3819633" lon="10.8341183"><ele>174.33333333333334</ele><time>2026-03-22T14:46:10.01Z</time></trkpt><trkpt lat="43.3820983" lon="10.83436"><ele>173.66666666666666</ele><time>2026-03-22T14:46:11.011Z</time></trkpt><trkpt lat="43.3822367" lon="10.8345933"><ele>173.0</ele><time>2026-03-22T14:46:12.01Z</time></trkpt><trkpt lat="43.3823833" lon="10.83482"><ele>174.5</ele><time>2026-03-22T14:46:13.011Z</time></trkpt><trkpt lat="43.3825417" lon="10.8350417"><ele>176.0</ele><time>2026-03-22T14:46:14.01Z</time></trkpt><trkpt lat="43.3827033" lon="10.8352633"><ele>176.0</ele><time>2026-03-22T14:46:15.013Z</time></trkpt><trkpt lat="43.3828633" lon="10.835485"><ele>176.0</ele><time>2026-03-22T14:46:16.011Z</time></trkpt><trkpt lat="43.383015" lon="10.8357017"><ele>176.0</ele><time>2026-03-22T14:46:17.01Z</time></trkpt><trkpt lat="43.38316" lon="10.835905"><ele>176.66666666666666</ele><time>2026-03-22T14:46:18.011Z</time></trkpt><trkpt lat="43.3832983" lon="10.8360833"><ele>177.33333333333334</ele><time>2026-03-22T14:46:19.01Z</time></trkpt><trkpt lat="43.3834417" lon="10.8362483"><ele>178.0</ele><time>2026-03-22T14:46:20.011Z</time></trkpt><trkpt lat="43.383585" lon="10.83641"><ele>178.0</ele><time>2026-03-22T14:46:21.012Z</time></trkpt><trkpt lat="43.3837317" lon="10.8365733"><ele>178.0</ele><time>2026-03-22T14:46:22.01Z</time></trkpt><trkpt lat="43.3838767" lon="10.8367333"><ele>178.0</ele><time>2026-03-22T14:46:23.011Z</time></trkpt><trkpt lat="43.3840183" lon="10.8368883"><ele>178.66666666666669</ele><time>2026-03-22T14:46:24.01Z</time></trkpt><trkpt lat="43.3841583" lon="10.8370383"><ele>179.33333333333334</ele><time>2026-03-22T14:46:25.01Z</time></trkpt><trkpt lat="43.3842917" lon="10.8371917"><ele>180.0</ele><time>2026-03-22T14:46:26.01Z</time></trkpt><trkpt lat="43.384425" lon="10.8373433"><ele>180.0</ele><time>2026-03-22T14:46:27.012Z</time></trkpt><trkpt lat="43.3845583" lon="10.8374833"><ele>180.0</ele><time>2026-03-22T14:46:28.012Z</time></trkpt><trkpt lat="43.3847017" lon="10.8376017"><ele>180.0</ele><time>2026-03-22T14:46:29.01Z</time></trkpt><trkpt lat="43.3848683" lon="10.837675"><ele>183.33333333333334</ele><time>2026-03-22T14:46:30.012Z</time></trkpt><trkpt lat="43.38505" lon="10.8377067"><ele>186.66666666666669</ele><time>2026-03-22T14:46:31.01Z</time></trkpt><trkpt lat="43.3852467" lon="10.83771"><ele>190.0</ele><time>2026-03-22T14:46:32.011Z</time></trkpt><trkpt lat="43.385445" lon="10.8377167"><ele>192.66666666666669</ele><time>2026-03-22T14:46:33.012Z</time></trkpt><trkpt lat="43.38565" lon="10.83776"><ele>195.33333333333334</ele><time>2026-03-22T14:46:34.011Z</time></trkpt><trkpt lat="43.3858517" lon="10.8378383"><ele>198.0</ele><time>2026-03-22T14:46:35.01Z</time></trkpt><trkpt lat="43.3860483" lon="10.8379383"><ele>198.0</ele><time>2026-03-22T14:46:36.011Z</time></trkpt><trkpt lat="43.386245" lon="10.8380533"><ele>198.0</ele><time>2026-03-22T14:46:37.012Z</time></trkpt><trkpt lat="43.3864417" lon="10.8381767"><ele>198.0</ele><time>2026-03-22T14:46:38.013Z</time></trkpt><trkpt lat="43.38663" lon="10.8383017"><ele>199.33333333333331</ele><time>2026-03-22T14:46:39.012Z</time></trkpt><trkpt lat="43.3867967" lon="10.8384167"><ele>200.66666666666666</ele><time>2026-03-22T14:46:40.011Z</time></trkpt><trkpt lat="43.38693" lon="10.8385367"><ele>202.0</ele><time>2026-03-22T14:46:41.011Z</time></trkpt><trkpt lat="43.38703" lon="10.838685"><ele>202.33333333333331</ele><time>2026-03-22T14:46:42.01Z</time></trkpt><trkpt lat="43.387105" lon="10.8388767"><ele>202.66666666666669</ele><time>2026-03-22T14:46:43.011Z</time></trkpt><trkpt lat="43.38718" lon="10.839085"><ele>203.0</ele><time>2026-03-22T14:46:44.01Z</time></trkpt><trkpt lat="43.3872917" lon="10.8392767"><ele>208.0</ele><time>2026-03-22T14:46:45.011Z</time></trkpt><trkpt lat="43.3874417" lon="10.8394567"><ele>213.0</ele><time>2026-03-22T14:46:46.011Z</time></trkpt><trkpt lat="43.3876117" lon="10.8396317"><ele>218.0</ele><time>2026-03-22T14:46:47.011Z</time></trkpt><trkpt lat="43.3877783" lon="10.8398133"><ele>218.0</ele><time>2026-03-22T14:46:48.011Z</time></trkpt><trkpt lat="43.3879467" lon="10.8400083"><ele>218.0</ele><time>2026-03-22T14:46:49.011Z</time></trkpt><trkpt lat="43.3881133" lon="10.8401983"><ele>218.0</ele><time>2026-03-22T14:46:50.011Z</time></trkpt><trkpt lat="43.388275" lon="10.840395"><ele>219.0</ele><time>2026-03-22T14:46:51.011Z</time></trkpt><trkpt lat="43.388425" lon="10.840595"><ele>220.0</ele><time>2026-03-22T14:46:52.011Z</time></trkpt><trkpt lat="43.388565" lon="10.840795"><ele>221.0</ele><time>2026-03-22T14:46:53.011Z</time></trkpt><trkpt lat="43.3886983" lon="10.8409883"><ele>222.66666666666669</ele><time>2026-03-22T14:46:54.011Z</time></trkpt><trkpt lat="43.3888133" lon="10.84117"><ele>224.33333333333331</ele><time>2026-03-22T14:46:55.011Z</time></trkpt><trkpt lat="43.3889017" lon="10.8413583"><ele>226.0</ele><time>2026-03-22T14:46:56.011Z</time></trkpt><trkpt lat="43.3889767" lon="10.8415417"><ele>226.0</ele><time>2026-03-22T14:46:57.01Z</time></trkpt><trkpt lat="43.3890667" lon="10.84169"><ele>226.0</ele><time>2026-03-22T14:46:58.011Z</time></trkpt><trkpt lat="43.3891917" lon="10.8417867"><ele>226.0</ele><time>2026-03-22T14:46:59.009Z</time></trkpt><trkpt lat="43.3893417" lon="10.8418333"><ele>226.0</ele><time>2026-03-22T14:47:00.011Z</time></trkpt><trkpt lat="43.3895117" lon="10.8418367"><ele>230.66666666666666</ele><time>2026-03-22T14:47:01.012Z</time></trkpt><trkpt lat="43.3896983" lon="10.8418267"><ele>235.33333333333331</ele><time>2026-03-22T14:47:02.012Z</time></trkpt><trkpt lat="43.3898917" lon="10.84182"><ele>240.0</ele><time>2026-03-22T14:47:03.01Z</time></trkpt><trkpt lat="43.39008" lon="10.84181"><ele>240.33333333333331</ele><time>2026-03-22T14:47:04.012Z</time></trkpt><trkpt lat="43.3902517" lon="10.8417983"><ele>240.66666666666666</ele><time>2026-03-22T14:47:05.011Z</time></trkpt><trkpt lat="43.390405" lon="10.8417933"><ele>241.0</ele><time>2026-03-22T14:47:06.012Z</time></trkpt><trkpt lat="43.39054" lon="10.8418"><ele>241.0</ele><time>2026-03-22T14:47:07.011Z</time></trkpt><trkpt lat="43.3906633" lon="10.84183"><ele>241.0</ele><time>2026-03-22T14:47:08.01Z</time></trkpt><trkpt lat="43.3907683" lon="10.8418783"><ele>241.0</ele><time>2026-03-22T14:47:09.011Z</time></trkpt><trkpt lat="43.39087" lon="10.8419417"><ele>241.0</ele><time>2026-03-22T14:47:10.011Z</time></trkpt><trkpt lat="43.3909717" lon="10.8420483"><ele>241.0</ele><time>2026-03-22T14:47:11.012Z</time></trkpt><trkpt lat="43.391065" lon="10.842165"><ele>241.00000000000003</ele><time>2026-03-22T14:47:12.012Z</time></trkpt><trkpt lat="43.39114" lon="10.84227"><ele>241.00000000000003</ele><time>2026-03-22T14:47:13.01Z</time></trkpt><trkpt lat="43.391205" lon="10.8423567"><ele>241.0</ele><time>2026-03-22T14:47:14.012Z</time></trkpt><trkpt lat="43.3912567" lon="10.84244"><ele>241.0</ele><time>2026-03-22T14:47:15.009Z</time></trkpt><trkpt lat="43.39129" lon="10.8425267"><ele>240.99999999999997</ele><time>2026-03-22T14:47:16.009Z</time></trkpt><trkpt lat="43.3913033" lon="10.8426233"><ele>241.0</ele><time>2026-03-22T14:47:17.011Z</time></trkpt><trkpt lat="43.39125" lon="10.84278"><ele>241.0</ele><time>2026-03-22T14:47:19.012Z</time></trkpt><trkpt lat="43.39118" lon="10.84281"><ele>241.0</ele><time>2026-03-22T14:47:20.012Z</time></trkpt><trkpt lat="43.39111" lon="10.8428183"><ele>240.99999999999997</ele><time>2026-03-22T14:47:21.011Z</time></trkpt><trkpt lat="43.391025" lon="10.8427967"><ele>241.0</ele><time>2026-03-22T14:47:22.011Z</time></trkpt><trkpt lat="43.390875" lon="10.8426967"><ele>241.0</ele><time>2026-03-22T14:47:23.01Z</time></trkpt><trkpt lat="43.3907333" lon="10.8426"><ele>241.0</ele><time>2026-03-22T14:47:24.01Z</time></trkpt><trkpt lat="43.3906083" lon="10.84254"><ele>241.0</ele><time>2026-03-22T14:47:25.012Z</time></trkpt><trkpt lat="43.3904917" lon="10.8425633"><ele>241.0</ele><time>2026-03-22T14:47:26.012Z</time></trkpt><trkpt lat="43.3903917" lon="10.84263"><ele>244.5</ele><time>2026-03-22T14:47:27.011Z</time></trkpt><trkpt lat="43.3903083" lon="10.84274"><ele>248.0</ele><time>2026-03-22T14:47:28.011Z</time></trkpt><trkpt lat="43.3902667" lon="10.842905"><ele>251.5</ele><time>2026-03-22T14:47:29.011Z</time></trkpt><trkpt lat="43.3902517" lon="10.8431083"><ele>255.0</ele><time>2026-03-22T14:47:30.01Z</time></trkpt><trkpt lat="43.3902783" lon="10.843305"><ele>256.6666666666667</ele><time>2026-03-22T14:47:31.011Z</time></trkpt><trkpt lat="43.390365" lon="10.843485"><ele>258.33333333333337</ele><time>2026-03-22T14:47:32.014Z</time></trkpt><trkpt lat="43.39053" lon="10.8436217"><ele>260.0</ele><time>2026-03-22T14:47:33.011Z</time></trkpt><trkpt lat="43.3906883" lon="10.8437317"><ele>260.0</ele><time>2026-03-22T14:47:34.01Z</time></trkpt><trkpt lat="43.3908083" lon="10.8438483"><ele>260.0</ele><time>2026-03-22T14:47:35.01Z</time></trkpt><trkpt lat="43.3908933" lon="10.84396"><ele>260.0</ele><time>2026-03-22T14:47:36.011Z</time></trkpt><trkpt lat="43.3909317" lon="10.8440867"><ele>260.0</ele><time>2026-03-22T14:47:37.012Z</time></trkpt><trkpt lat="43.3909217" lon="10.8442167"><ele>262.25</ele><time>2026-03-22T14:47:38.011Z</time></trkpt><trkpt lat="43.3908733" lon="10.8443317"><ele>264.5</ele><time>2026-03-22T14:47:39.011Z</time></trkpt><trkpt lat="43.3908017" lon="10.844405"><ele>266.75</ele><time>2026-03-22T14:47:40.011Z</time></trkpt><trkpt lat="43.3906283" lon="10.8443667"><ele>269.0</ele><time>2026-03-22T14:47:41.011Z</time></trkpt><trkpt lat="43.39045" lon="10.8443133"><ele>267.6666666666667</ele><time>2026-03-22T14:47:42.01Z</time></trkpt><trkpt lat="43.390245" lon="10.8442483"><ele>266.3333333333333</ele><time>2026-03-22T14:47:43.01Z</time></trkpt><trkpt lat="43.39005" lon="10.8442"><ele>265.0</ele><time>2026-03-22T14:47:44.011Z</time></trkpt><trkpt lat="43.389855" lon="10.8441933"><ele>265.0</ele><time>2026-03-22T14:47:45.01Z</time></trkpt><trkpt lat="43.3896567" lon="10.84423"><ele>265.0</ele><time>2026-03-22T14:47:46.014Z</time></trkpt><trkpt lat="43.389455" lon="10.844285"><ele>265.0</ele><time>2026-03-22T14:47:47.01Z</time></trkpt><trkpt lat="43.38927" lon="10.8443417"><ele>268.66666666666663</ele><time>2026-03-22T14:47:48.01Z</time></trkpt><trkpt lat="43.3891067" lon="10.8444"><ele>272.3333333333333</ele><time>2026-03-22T14:47:49.011Z</time></trkpt><trkpt lat="43.38897" lon="10.8444733"><ele>276.0</ele><time>2026-03-22T14:47:50.01Z</time></trkpt><trkpt lat="43.388855" lon="10.8445917"><ele>272.0</ele><time>2026-03-22T14:47:51.012Z</time></trkpt><trkpt lat="43.3887583" lon="10.8447517"><ele>268.0</ele><time>2026-03-22T14:47:52.011Z</time></trkpt><trkpt lat="43.3887017" lon="10.8449567"><ele>264.0</ele><time>2026-03-22T14:47:53.01Z</time></trkpt><trkpt lat="43.38867" lon="10.84519"><ele>264.0</ele><time>2026-03-22T14:47:54.01Z</time></trkpt><trkpt lat="43.388665" lon="10.8454317"><ele>264.0</ele><time>2026-03-22T14:47:55.012Z</time></trkpt><trkpt lat="43.3886767" lon="10.8456667"><ele>264.0</ele><time>2026-03-22T14:47:56.012Z</time></trkpt><trkpt lat="43.38872" lon="10.8458633"><ele>261.6666666666667</ele><time>2026-03-22T14:47:57.011Z</time></trkpt><trkpt lat="43.3888067" lon="10.8460233"><ele>259.33333333333337</ele><time>2026-03-22T14:47:58.011Z</time></trkpt><trkpt lat="43.388935" lon="10.8461567"><ele>257.0</ele><time>2026-03-22T14:47:59.01Z</time></trkpt><trkpt lat="43.3891" lon="10.8462617"><ele>263.6666666666667</ele><time>2026-03-22T14:48:00.011Z</time></trkpt><trkpt lat="43.38927" lon="10.84635"><ele>270.3333333333333</ele><time>2026-03-22T14:48:01.01Z</time></trkpt><trkpt lat="43.38943" lon="10.8463983"><ele>277.0</ele><time>2026-03-22T14:48:02.011Z</time></trkpt><trkpt lat="43.3895883" lon="10.8464017"><ele>281.3333333333333</ele><time>2026-03-22T14:48:03.011Z</time></trkpt><trkpt lat="43.38975" lon="10.846335"><ele>285.6666666666667</ele><time>2026-03-22T14:48:04.01Z</time></trkpt><trkpt lat="43.3899133" lon="10.8462083"><ele>290.0</ele><time>2026-03-22T14:48:05.011Z</time></trkpt><trkpt lat="43.3900733" lon="10.8461"><ele>290.0</ele><time>2026-03-22T14:48:06.01Z</time></trkpt><trkpt lat="43.3902317" lon="10.8460467"><ele>290.0</ele><time>2026-03-22T14:48:07.01Z</time></trkpt><trkpt lat="43.39038" lon="10.8460517"><ele>290.0</ele><time>2026-03-22T14:48:08.01Z</time></trkpt><trkpt lat="43.390515" lon="10.8461117"><ele>290.33333333333337</ele><time>2026-03-22T14:48:09.01Z</time></trkpt><trkpt lat="43.39063" lon="10.8462317"><ele>290.6666666666667</ele><time>2026-03-22T14:48:10.011Z</time></trkpt><trkpt lat="43.39073" lon="10.8464017"><ele>291.0</ele><time>2026-03-22T14:48:11.01Z</time></trkpt><trkpt lat="43.39083" lon="10.8466067"><ele>291.6666666666667</ele><time>2026-03-22T14:48:12.01Z</time></trkpt><trkpt lat="43.3909333" lon="10.8468283"><ele>292.33333333333337</ele><time>2026-03-22T14:48:13.015Z</time></trkpt><trkpt lat="43.3910367" lon="10.8470567"><ele>293.0</ele><time>2026-03-22T14:48:14.014Z</time></trkpt><trkpt lat="43.39114" lon="10.84729"><ele>293.0</ele><time>2026-03-22T14:48:15.012Z</time></trkpt><trkpt lat="43.3912433" lon="10.84753"><ele>293.0</ele><time>2026-03-22T14:48:16.011Z</time></trkpt><trkpt lat="43.3913567" lon="10.8477633"><ele>293.0</ele><time>2026-03-22T14:48:17.01Z</time></trkpt><trkpt lat="43.3914933" lon="10.8479733"><ele>292.33333333333337</ele><time>2026-03-22T14:48:18.01Z</time></trkpt><trkpt lat="43.3916533" lon="10.8481633"><ele>291.6666666666667</ele><time>2026-03-22T14:48:19.011Z</time></trkpt><trkpt lat="43.3918183" lon="10.8483417"><ele>291.0</ele><time>2026-03-22T14:48:20.012Z</time></trkpt><trkpt lat="43.3919883" lon="10.8485183"><ele>293.6666666666667</ele><time>2026-03-22T14:48:21.011Z</time></trkpt><trkpt lat="43.3921633" lon="10.8486933"><ele>296.33333333333337</ele><time>2026-03-22T14:48:22.011Z</time></trkpt><trkpt lat="43.39234" lon="10.8488533"><ele>299.0</ele><time>2026-03-22T14:48:23.011Z</time></trkpt><trkpt lat="43.3925233" lon="10.8489833"><ele>299.0</ele><time>2026-03-22T14:48:24.01Z</time></trkpt><trkpt lat="43.3927033" lon="10.84908"><ele>299.0</ele><time>2026-03-22T14:48:25.012Z</time></trkpt><trkpt lat="43.3928733" lon="10.84914"><ele>299.0</ele><time>2026-03-22T14:48:26.01Z</time></trkpt><trkpt lat="43.3930333" lon="10.8491617"><ele>301.75</ele><time>2026-03-22T14:48:27.01Z</time></trkpt><trkpt lat="43.3931783" lon="10.8491517"><ele>304.5</ele><time>2026-03-22T14:48:28.011Z</time></trkpt><trkpt lat="43.39331" lon="10.8491233"><ele>307.25</ele><time>2026-03-22T14:48:29.01Z</time></trkpt><trkpt lat="43.3934333" lon="10.8490967"><ele>310.0</ele><time>2026-03-22T14:48:30.011Z</time></trkpt><trkpt lat="43.39356" lon="10.8490783"><ele>310.0</ele><time>2026-03-22T14:48:31.01Z</time></trkpt><trkpt lat="43.3937033" lon="10.8490667"><ele>310.0</ele><time>2026-03-22T14:48:32.009Z</time></trkpt><trkpt lat="43.3938617" lon="10.8490783"><ele>310.0</ele><time>2026-03-22T14:48:33.01Z</time></trkpt><trkpt lat="43.3940267" lon="10.849125"><ele>311.3333333333333</ele><time>2026-03-22T14:48:34.01Z</time></trkpt><trkpt lat="43.3941833" lon="10.8491833"><ele>312.6666666666667</ele><time>2026-03-22T14:48:35.01Z</time></trkpt><trkpt lat="43.39433" lon="10.84921"><ele>314.0</ele><time>2026-03-22T14:48:36.01Z</time></trkpt><trkpt lat="43.3944683" lon="10.8491767"><ele>314.0</ele><time>2026-03-22T14:48:37.012Z</time></trkpt><trkpt lat="43.394585" lon="10.849065"><ele>314.0</ele><time>2026-03-22T14:48:38.01Z</time></trkpt><trkpt lat="43.3946733" lon="10.8488733"><ele>314.0</ele><time>2026-03-22T14:48:39.011Z</time></trkpt><trkpt lat="43.3947383" lon="10.8486483"><ele>315.6666666666667</ele><time>2026-03-22T14:48:40.011Z</time></trkpt><trkpt lat="43.3948" lon="10.848435"><ele>317.3333333333333</ele><time>2026-03-22T14:48:41.011Z</time></trkpt><trkpt lat="43.3948883" lon="10.84827"><ele>319.0</ele><time>2026-03-22T14:48:42.011Z</time></trkpt><trkpt lat="43.3949983" lon="10.84816"><ele>319.0</ele><time>2026-03-22T14:48:43.01Z</time></trkpt><trkpt lat="43.3951067" lon="10.84811"><ele>319.0</ele><time>2026-03-22T14:48:44.012Z</time></trkpt><trkpt lat="43.3951967" lon="10.84813"><ele>319.0</ele><time>2026-03-22T14:48:45.011Z</time></trkpt><trkpt lat="43.3952667" lon="10.848215"><ele>319.0</ele><time>2026-03-22T14:48:46.01Z</time></trkpt><trkpt lat="43.3952983" lon="10.8483583"><ele>319.0</ele><time>2026-03-22T14:48:47.01Z</time></trkpt><trkpt lat="43.39529" lon="10.84854"><ele>321.0</ele><time>2026-03-22T14:48:48.01Z</time></trkpt><trkpt lat="43.3952583" lon="10.848755"><ele>323.0</ele><time>2026-03-22T14:48:49.01Z</time></trkpt><trkpt lat="43.3951883" lon="10.84902"><ele>325.0</ele><time>2026-03-22T14:48:50.011Z</time></trkpt><trkpt lat="43.3951233" lon="10.849285"><ele>328.0</ele><time>2026-03-22T14:48:51.01Z</time></trkpt><trkpt lat="43.3950417" lon="10.8495333"><ele>331.0</ele><time>2026-03-22T14:48:52.01Z</time></trkpt><trkpt lat="43.3949583" lon="10.8497533"><ele>334.0</ele><time>2026-03-22T14:48:53.011Z</time></trkpt><trkpt lat="43.3948833" lon="10.8499517"><ele>333.79999999999995</ele><time>2026-03-22T14:48:54.011Z</time></trkpt><trkpt lat="43.3948183" lon="10.8501317"><ele>333.59999999999997</ele><time>2026-03-22T14:48:55.01Z</time></trkpt><trkpt lat="43.3947667" lon="10.8502817"><ele>333.4</ele><time>2026-03-22T14:48:56.011Z</time></trkpt><trkpt lat="43.3947533" lon="10.8504083"><ele>333.2</ele><time>2026-03-22T14:48:57.01Z</time></trkpt><trkpt lat="43.39476" lon="10.8505233"><ele>333.0</ele><time>2026-03-22T14:48:58.012Z</time></trkpt><trkpt lat="43.3948433" lon="10.8506117"><ele>333.0</ele><time>2026-03-22T14:49:00.013Z</time></trkpt><trkpt lat="43.3949433" lon="10.8505317"><ele>333.0</ele><time>2026-03-22T14:49:02.01Z</time></trkpt><trkpt lat="43.3949817" lon="10.8504483"><ele>333.0</ele><time>2026-03-22T14:49:03.01Z</time></trkpt><trkpt lat="43.3950117" lon="10.8503333"><ele>333.0</ele><time>2026-03-22T14:49:04.011Z</time></trkpt><trkpt lat="43.3950533" lon="10.85021"><ele>333.0</ele><time>2026-03-22T14:49:05.012Z</time></trkpt><trkpt lat="43.3951067" lon="10.8500917"><ele>333.25</ele><time>2026-03-22T14:49:06.01Z</time></trkpt><trkpt lat="43.3951767" lon="10.8499667"><ele>333.5</ele><time>2026-03-22T14:49:07.01Z</time></trkpt><trkpt lat="43.3952733" lon="10.8498317"><ele>333.75</ele><time>2026-03-22T14:49:08.01Z</time></trkpt><trkpt lat="43.3953983" lon="10.8496933"><ele>334.0</ele><time>2026-03-22T14:49:09.011Z</time></trkpt><trkpt lat="43.3955383" lon="10.8495733"><ele>338.3333333333333</ele><time>2026-03-22T14:49:10.009Z</time></trkpt><trkpt lat="43.3956817" lon="10.84947"><ele>342.6666666666667</ele><time>2026-03-22T14:49:11.011Z</time></trkpt><trkpt lat="43.395825" lon="10.84938"><ele>347.0</ele><time>2026-03-22T14:49:12.009Z</time></trkpt><trkpt lat="43.395975" lon="10.84931"><ele>347.75</ele><time>2026-03-22T14:49:13.011Z</time></trkpt><trkpt lat="43.396125" lon="10.8492483"><ele>348.5</ele><time>2026-03-22T14:49:14.011Z</time></trkpt><trkpt lat="43.3962617" lon="10.8491717"><ele>349.25</ele><time>2026-03-22T14:49:15.012Z</time></trkpt><trkpt lat="43.3963783" lon="10.84907"><ele>350.0</ele><time>2026-03-22T14:49:16.011Z</time></trkpt><trkpt lat="43.3964783" lon="10.8489617"><ele>350.0</ele><time>2026-03-22T14:49:17.009Z</time></trkpt><trkpt lat="43.396565" lon="10.8488567"><ele>350.0</ele><time>2026-03-22T14:49:18.01Z</time></trkpt><trkpt lat="43.3966367" lon="10.848755"><ele>350.0</ele><time>2026-03-22T14:49:19.011Z</time></trkpt><trkpt lat="43.396705" lon="10.8486633"><ele>350.0</ele><time>2026-03-22T14:49:20.01Z</time></trkpt><trkpt lat="43.39677" lon="10.8485783"><ele>350.0</ele><time>2026-03-22T14:49:21.011Z</time></trkpt><trkpt lat="43.3968317" lon="10.8485033"><ele>349.0</ele><time>2026-03-22T14:49:22.01Z</time></trkpt><trkpt lat="43.39689" lon="10.848435"><ele>348.0</ele><time>2026-03-22T14:49:23.011Z</time></trkpt><trkpt lat="43.396945" lon="10.8483767"><ele>347.0</ele><time>2026-03-22T14:49:24.01Z</time></trkpt><trkpt lat="43.3969967" lon="10.8483267"><ele>346.0</ele><time>2026-03-22T14:49:25.01Z</time></trkpt><trkpt lat="43.397115" lon="10.8483"><ele>345.0</ele><time>2026-03-22T14:49:27.01Z</time></trkpt><trkpt lat="43.3971717" lon="10.8483383"><ele>344.0</ele><time>2026-03-22T14:49:28.01Z</time></trkpt><trkpt lat="43.3972183" lon="10.8484117"><ele>345.2</ele><time>2026-03-22T14:49:29.009Z</time></trkpt><trkpt lat="43.39724" lon="10.8485067"><ele>346.4</ele><time>2026-03-22T14:49:30.01Z</time></trkpt><trkpt lat="43.397245" lon="10.84862"><ele>347.6</ele><time>2026-03-22T14:49:31.01Z</time></trkpt><trkpt lat="43.3972" lon="10.84877"><ele>348.8</ele><time>2026-03-22T14:49:32.01Z</time></trkpt><trkpt lat="43.397145" lon="10.8489467"><ele>350.0</ele><time>2026-03-22T14:49:33.01Z</time></trkpt><trkpt lat="43.397065" lon="10.84916"><ele>353.33333333333337</ele><time>2026-03-22T14:49:34.011Z</time></trkpt><trkpt lat="43.3969783" lon="10.8493767"><ele>356.6666666666667</ele><time>2026-03-22T14:49:35.011Z</time></trkpt><trkpt lat="43.3968867" lon="10.8495717"><ele>360.0</ele><time>2026-03-22T14:49:36.011Z</time></trkpt><trkpt lat="43.3968017" lon="10.849755"><ele>360.0</ele><time>2026-03-22T14:49:37.011Z</time></trkpt><trkpt lat="43.396735" lon="10.849955"><ele>360.0</ele><time>2026-03-22T14:49:38.011Z</time></trkpt><trkpt lat="43.3966767" lon="10.8501717"><ele>360.0</ele><time>2026-03-22T14:49:39.012Z</time></trkpt><trkpt lat="43.3966183" lon="10.8503817"><ele>362.6666666666667</ele><time>2026-03-22T14:49:40.01Z</time></trkpt><trkpt lat="43.3965717" lon="10.8505783"><ele>365.33333333333337</ele><time>2026-03-22T14:49:41.012Z</time></trkpt><trkpt lat="43.3965333" lon="10.8507817"><ele>368.0</ele><time>2026-03-22T14:49:42.01Z</time></trkpt><trkpt lat="43.396495" lon="10.85101"><ele>370.0</ele><time>2026-03-22T14:49:43.011Z</time></trkpt><trkpt lat="43.3964483" lon="10.85126"><ele>372.0</ele><time>2026-03-22T14:49:44.01Z</time></trkpt><trkpt lat="43.3964133" lon="10.8515067"><ele>374.0</ele><time>2026-03-22T14:49:45.01Z</time></trkpt><trkpt lat="43.3963883" lon="10.85173"><ele>376.0</ele><time>2026-03-22T14:49:46.013Z</time></trkpt><trkpt lat="43.39636" lon="10.8519317"><ele>378.0</ele><time>2026-03-22T14:49:47.01Z</time></trkpt><trkpt lat="43.3963383" lon="10.8521083"><ele>380.0</ele><time>2026-03-22T14:49:48.01Z</time></trkpt><trkpt lat="43.3963217" lon="10.85226"><ele>382.0</ele><time>2026-03-22T14:49:49.011Z</time></trkpt><trkpt lat="43.3962933" lon="10.8523933"><ele>380.0</ele><time>2026-03-22T14:49:50.01Z</time></trkpt><trkpt lat="43.396255" lon="10.8525217"><ele>378.0</ele><time>2026-03-22T14:49:51.01Z</time></trkpt><trkpt lat="43.3962017" lon="10.8526367"><ele>376.0</ele><time>2026-03-22T14:49:52.01Z</time></trkpt><trkpt lat="43.3961367" lon="10.8527433"><ele>374.0</ele><time>2026-03-22T14:49:53.01Z</time></trkpt><trkpt lat="43.3960617" lon="10.8528317"><ele>372.0</ele><time>2026-03-22T14:49:54.009Z</time></trkpt><trkpt lat="43.39599" lon="10.852905"><ele>372.0</ele><time>2026-03-22T14:49:55.01Z</time></trkpt><trkpt lat="43.39592" lon="10.8529733"><ele>372.0</ele><time>2026-03-22T14:49:56.012Z</time></trkpt><trkpt lat="43.3958517" lon="10.85304"><ele>372.0</ele><time>2026-03-22T14:49:57.01Z</time></trkpt><trkpt lat="43.3957967" lon="10.8531117"><ele>372.0</ele><time>2026-03-22T14:49:58.01Z</time></trkpt><trkpt lat="43.3957517" lon="10.8531933"><ele>372.0</ele><time>2026-03-22T14:49:59.012Z</time></trkpt><trkpt lat="43.3957183" lon="10.8532783"><ele>372.0</ele><time>2026-03-22T14:50:00.012Z</time></trkpt><trkpt lat="43.3957017" lon="10.8534317"><ele>372.0</ele><time>2026-03-22T14:50:02.009Z</time></trkpt><trkpt lat="43.3957583" lon="10.8535517"><ele>372.0</ele><time>2026-03-22T14:50:04.01Z</time></trkpt><trkpt lat="43.3958617" lon="10.853575"><ele>372.0</ele><time>2026-03-22T14:50:06.012Z</time></trkpt><trkpt lat="43.395955" lon="10.8534833"><ele>372.0</ele><time>2026-03-22T14:50:07.01Z</time></trkpt><trkpt lat="43.396075" lon="10.8533617"><ele>372.0</ele><time>2026-03-22T14:50:08.01Z</time></trkpt><trkpt lat="43.3962033" lon="10.8532517"><ele>372.0</ele><time>2026-03-22T14:50:09.011Z</time></trkpt><trkpt lat="43.39634" lon="10.853145"><ele>372.0</ele><time>2026-03-22T14:50:10.012Z</time></trkpt><trkpt lat="43.396485" lon="10.853035"><ele>377.33333333333337</ele><time>2026-03-22T14:50:11.009Z</time></trkpt><trkpt lat="43.3966267" lon="10.8529217"><ele>382.6666666666667</ele><time>2026-03-22T14:50:12.012Z</time></trkpt><trkpt lat="43.396755" lon="10.8528133"><ele>388.0</ele><time>2026-03-22T14:50:13.01Z</time></trkpt><trkpt lat="43.3968733" lon="10.8526783"><ele>386.0</ele><time>2026-03-22T14:50:14.011Z</time></trkpt><trkpt lat="43.3969917" lon="10.8525033"><ele>384.0</ele><time>2026-03-22T14:50:15.01Z</time></trkpt><trkpt lat="43.3971117" lon="10.85231"><ele>382.0</ele><time>2026-03-22T14:50:16.009Z</time></trkpt><trkpt lat="43.3972367" lon="10.8521167"><ele>384.0</ele><time>2026-03-22T14:50:17.01Z</time></trkpt><trkpt lat="43.397355" lon="10.8519367"><ele>386.0</ele><time>2026-03-22T14:50:18.011Z</time></trkpt><trkpt lat="43.3974767" lon="10.851765"><ele>388.0</ele><time>2026-03-22T14:50:19.012Z</time></trkpt><trkpt lat="43.3976083" lon="10.8516233"><ele>388.0</ele><time>2026-03-22T14:50:20.011Z</time></trkpt><trkpt lat="43.3977483" lon="10.8515133"><ele>388.0</ele><time>2026-03-22T14:50:21.01Z</time></trkpt><trkpt lat="43.397885" lon="10.851415"><ele>388.0</ele><time>2026-03-22T14:50:22.009Z</time></trkpt><trkpt lat="43.3980033" lon="10.851325"><ele>390.0</ele><time>2026-03-22T14:50:23.012Z</time></trkpt><trkpt lat="43.3981117" lon="10.8512583"><ele>392.0</ele><time>2026-03-22T14:50:24.01Z</time></trkpt><trkpt lat="43.3982133" lon="10.8512283"><ele>394.0</ele><time>2026-03-22T14:50:25.009Z</time></trkpt><trkpt lat="43.3983083" lon="10.8512417"><ele>396.0</ele><time>2026-03-22T14:50:26.01Z</time></trkpt><trkpt lat="43.3984017" lon="10.8513017"><ele>398.0</ele><time>2026-03-22T14:50:27.011Z</time></trkpt><trkpt lat="43.39848" lon="10.8514267"><ele>398.0</ele><time>2026-03-22T14:50:28.01Z</time></trkpt><trkpt lat="43.398535" lon="10.851615"><ele>398.0</ele><time>2026-03-22T14:50:29.009Z</time></trkpt><trkpt lat="43.3985817" lon="10.8518267"><ele>398.0</ele><time>2026-03-22T14:50:30.012Z</time></trkpt><trkpt lat="43.39863" lon="10.8520467"><ele>399.0</ele><time>2026-03-22T14:50:31.01Z</time></trkpt><trkpt lat="43.3986867" lon="10.8522567"><ele>400.0</ele><time>2026-03-22T14:50:32.013Z</time></trkpt><trkpt lat="43.3987733" lon="10.8524433"><ele>401.0</ele><time>2026-03-22T14:50:33.01Z</time></trkpt><trkpt lat="43.3988883" lon="10.8526083"><ele>404.0</ele><time>2026-03-22T14:50:34.011Z</time></trkpt><trkpt lat="43.3990117" lon="10.8527583"><ele>407.0</ele><time>2026-03-22T14:50:35.011Z</time></trkpt><trkpt lat="43.399135" lon="10.852905"><ele>410.0</ele><time>2026-03-22T14:50:36.011Z</time></trkpt><trkpt lat="43.3992483" lon="10.853035"><ele>410.0</ele><time>2026-03-22T14:50:37.01Z</time></trkpt><trkpt lat="43.3993583" lon="10.85313"><ele>410.0</ele><time>2026-03-22T14:50:38.01Z</time></trkpt><trkpt lat="43.39948" lon="10.85318"><ele>410.0</ele><time>2026-03-22T14:50:39.012Z</time></trkpt><trkpt lat="43.3995967" lon="10.8531633"><ele>410.0</ele><time>2026-03-22T14:50:40.01Z</time></trkpt><trkpt lat="43.3996967" lon="10.8530717"><ele>410.25</ele><time>2026-03-22T14:50:41.01Z</time></trkpt><trkpt lat="43.3997717" lon="10.852925"><ele>410.5</ele><time>2026-03-22T14:50:42.009Z</time></trkpt><trkpt lat="43.3998433" lon="10.852755"><ele>410.75</ele><time>2026-03-22T14:50:43.01Z</time></trkpt><trkpt lat="43.3999333" lon="10.8525917"><ele>411.0</ele><time>2026-03-22T14:50:44.011Z</time></trkpt><trkpt lat="43.4000483" lon="10.852455"><ele>411.0</ele><time>2026-03-22T14:50:45.01Z</time></trkpt><trkpt lat="43.40018" lon="10.8523417"><ele>411.0</ele><time>2026-03-22T14:50:46.011Z</time></trkpt><trkpt lat="43.40032" lon="10.852225"><ele>411.0</ele><time>2026-03-22T14:50:47.011Z</time></trkpt><trkpt lat="43.40046" lon="10.8521083"><ele>411.66666666666663</ele><time>2026-03-22T14:50:48.01Z</time></trkpt><trkpt lat="43.4005983" lon="10.8519817"><ele>412.3333333333333</ele><time>2026-03-22T14:50:49.01Z</time></trkpt><trkpt lat="43.4007317" lon="10.85185"><ele>413.0</ele><time>2026-03-22T14:50:50.01Z</time></trkpt><trkpt lat="43.4008583" lon="10.8517367"><ele>413.0</ele><time>2026-03-22T14:50:51.011Z</time></trkpt><trkpt lat="43.400995" lon="10.8516567"><ele>413.0</ele><time>2026-03-22T14:50:52.01Z</time></trkpt><trkpt lat="43.4011417" lon="10.851595"><ele>413.0</ele><time>2026-03-22T14:50:53.011Z</time></trkpt><trkpt lat="43.4012967" lon="10.851545"><ele>416.25</ele><time>2026-03-22T14:50:54.01Z</time></trkpt><trkpt lat="43.40145" lon="10.8514867"><ele>419.5</ele><time>2026-03-22T14:50:55.01Z</time></trkpt><trkpt lat="43.4015967" lon="10.8514267"><ele>422.75</ele><time>2026-03-22T14:50:56.011Z</time></trkpt><trkpt lat="43.4017217" lon="10.8513717"><ele>426.0</ele><time>2026-03-22T14:50:57.01Z</time></trkpt><trkpt lat="43.40183" lon="10.8513367"><ele>426.0</ele><time>2026-03-22T14:50:58.012Z</time></trkpt><trkpt lat="43.4019117" lon="10.8513317"><ele>426.0</ele><time>2026-03-22T14:50:59.011Z</time></trkpt><trkpt lat="43.401985" lon="10.8513533"><ele>426.0</ele><time>2026-03-22T14:51:00.01Z</time></trkpt><trkpt lat="43.4020217" lon="10.851425"><ele>426.0</ele><time>2026-03-22T14:51:01.01Z</time></trkpt><trkpt lat="43.40197" lon="10.85159"><ele>426.0</ele><time>2026-03-22T14:51:03.01Z</time></trkpt><trkpt lat="43.4018717" lon="10.8516717"><ele>426.0</ele><time>2026-03-22T14:51:04.011Z</time></trkpt><trkpt lat="43.4017567" lon="10.851755"><ele>426.0</ele><time>2026-03-22T14:51:05.011Z</time></trkpt><trkpt lat="43.4016383" lon="10.85185"><ele>426.0</ele><time>2026-03-22T14:51:06.01Z</time></trkpt><trkpt lat="43.4015183" lon="10.8519467"><ele>426.0</ele><time>2026-03-22T14:51:07.012Z</time></trkpt><trkpt lat="43.4014" lon="10.8520617"><ele>425.25</ele><time>2026-03-22T14:51:08.011Z</time></trkpt><trkpt lat="43.40128" lon="10.8521933"><ele>424.5</ele><time>2026-03-22T14:51:09.009Z</time></trkpt><trkpt lat="43.4011717" lon="10.8523283"><ele>423.75</ele><time>2026-03-22T14:51:10.011Z</time></trkpt><trkpt lat="43.4010833" lon="10.852475"><ele>423.0</ele><time>2026-03-22T14:51:11.01Z</time></trkpt><trkpt lat="43.40102" lon="10.8526417"><ele>425.66666666666663</ele><time>2026-03-22T14:51:12.01Z</time></trkpt><trkpt lat="43.4009933" lon="10.8528433"><ele>428.3333333333333</ele><time>2026-03-22T14:51:13.012Z</time></trkpt><trkpt lat="43.4009667" lon="10.8530483"><ele>431.0</ele><time>2026-03-22T14:51:14.012Z</time></trkpt><trkpt lat="43.4009283" lon="10.85325"><ele>431.0</ele><time>2026-03-22T14:51:15.009Z</time></trkpt><trkpt lat="43.4008733" lon="10.853445"><ele>431.0</ele><time>2026-03-22T14:51:16.01Z</time></trkpt><trkpt lat="43.40081" lon="10.8536333"><ele>431.0</ele><time>2026-03-22T14:51:17.011Z</time></trkpt><trkpt lat="43.4007567" lon="10.853815"><ele>431.0</ele><time>2026-03-22T14:51:18.012Z</time></trkpt><trkpt lat="43.40072" lon="10.8539983"><ele>433.0</ele><time>2026-03-22T14:51:19.01Z</time></trkpt><trkpt lat="43.4006983" lon="10.8541867"><ele>435.0</ele><time>2026-03-22T14:51:20.011Z</time></trkpt><trkpt lat="43.4006667" lon="10.854375"><ele>437.0</ele><time>2026-03-22T14:51:21.012Z</time></trkpt><trkpt lat="43.4006183" lon="10.8545467"><ele>439.0</ele><time>2026-03-22T14:51:22.013Z</time></trkpt><trkpt lat="43.400545" lon="10.8547033"><ele>439.25</ele><time>2026-03-22T14:51:23.01Z</time></trkpt><trkpt lat="43.40045" lon="10.8548367"><ele>439.5</ele><time>2026-03-22T14:51:24.011Z</time></trkpt><trkpt lat="43.40033" lon="10.854945"><ele>439.75</ele><time>2026-03-22T14:51:25.011Z</time></trkpt><trkpt lat="43.4001983" lon="10.855045"><ele>440.0</ele><time>2026-03-22T14:51:26.012Z</time></trkpt><trkpt lat="43.40006" lon="10.85515"><ele>444.0</ele><time>2026-03-22T14:51:27.01Z</time></trkpt><trkpt lat="43.39991" lon="10.85526"><ele>448.0</ele><time>2026-03-22T14:51:28.01Z</time></trkpt><trkpt lat="43.3997633" lon="10.85537"><ele>452.0</ele><time>2026-03-22T14:51:29.01Z</time></trkpt><trkpt lat="43.3996067" lon="10.855455"><ele>452.0</ele><time>2026-03-22T14:51:30.009Z</time></trkpt><trkpt lat="43.3994467" lon="10.85551"><ele>452.0</ele><time>2026-03-22T14:51:31.011Z</time></trkpt><trkpt lat="43.3992867" lon="10.85554"><ele>452.0</ele><time>2026-03-22T14:51:32.011Z</time></trkpt><trkpt lat="43.3991433" lon="10.855565"><ele>452.0</ele><time>2026-03-22T14:51:33.01Z</time></trkpt><trkpt lat="43.399005" lon="10.8556017"><ele>452.0</ele><time>2026-03-22T14:51:34.01Z</time></trkpt><trkpt lat="43.3989067" lon="10.8556767"><ele>452.0</ele><time>2026-03-22T14:51:35.011Z</time></trkpt><trkpt lat="43.3988383" lon="10.8557933"><ele>452.0</ele><time>2026-03-22T14:51:36.012Z</time></trkpt><trkpt lat="43.398805" lon="10.8559667"><ele>450.66666666666663</ele><time>2026-03-22T14:51:37.01Z</time></trkpt><trkpt lat="43.3988033" lon="10.8561783"><ele>449.33333333333337</ele><time>2026-03-22T14:51:38.01Z</time></trkpt><trkpt lat="43.3988" lon="10.8563983"><ele>448.0</ele><time>2026-03-22T14:51:39.01Z</time></trkpt><trkpt lat="43.3987967" lon="10.8566317"><ele>450.0</ele><time>2026-03-22T14:51:40.011Z</time></trkpt><trkpt lat="43.398805" lon="10.8568533"><ele>452.0</ele><time>2026-03-22T14:51:41.01Z</time></trkpt><trkpt lat="43.3988067" lon="10.857055"><ele>454.0</ele><time>2026-03-22T14:51:42.01Z</time></trkpt><trkpt lat="43.39879" lon="10.85726"><ele>454.0</ele><time>2026-03-22T14:51:43.01Z</time></trkpt><trkpt lat="43.398755" lon="10.8574633"><ele>454.0</ele><time>2026-03-22T14:51:44.01Z</time></trkpt><trkpt lat="43.3986967" lon="10.8576583"><ele>454.0</ele><time>2026-03-22T14:51:45.012Z</time></trkpt><trkpt lat="43.3986367" lon="10.8578433"><ele>454.5</ele><time>2026-03-22T14:51:46.011Z</time></trkpt><trkpt lat="43.3985917" lon="10.858025"><ele>455.0</ele><time>2026-03-22T14:51:47.01Z</time></trkpt><trkpt lat="43.3985667" lon="10.85821"><ele>455.5</ele><time>2026-03-22T14:51:48.01Z</time></trkpt><trkpt lat="43.3985767" lon="10.8583983"><ele>456.0</ele><time>2026-03-22T14:51:49.011Z</time></trkpt><trkpt lat="43.3986067" lon="10.8585967"><ele>456.25</ele><time>2026-03-22T14:51:50.01Z</time></trkpt><trkpt lat="43.3986333" lon="10.858805"><ele>456.5</ele><time>2026-03-22T14:51:51.012Z</time></trkpt><trkpt lat="43.3986483" lon="10.859005"><ele>456.75</ele><time>2026-03-22T14:51:52.012Z</time></trkpt><trkpt lat="43.3986567" lon="10.8591783"><ele>457.0</ele><time>2026-03-22T14:51:53.011Z</time></trkpt><trkpt lat="43.39867" lon="10.8593133"><ele>457.6</ele><time>2026-03-22T14:51:54.013Z</time></trkpt><trkpt lat="43.3986917" lon="10.85941"><ele>458.20000000000005</ele><time>2026-03-22T14:51:55.011Z</time></trkpt><trkpt lat="43.398775" lon="10.8594433"><ele>458.8</ele><time>2026-03-22T14:51:57.01Z</time></trkpt><trkpt lat="43.39885" lon="10.85929"><ele>459.4</ele><time>2026-03-22T14:51:59.011Z</time></trkpt><trkpt lat="43.398895" lon="10.8591167"><ele>460.0</ele><time>2026-03-22T14:52:00.01Z</time></trkpt><trkpt lat="43.3989617" lon="10.85896"><ele>465.0</ele><time>2026-03-22T14:52:01.01Z</time></trkpt><trkpt lat="43.399035" lon="10.8588217"><ele>470.0</ele><time>2026-03-22T14:52:02.01Z</time></trkpt><trkpt lat="43.399125" lon="10.8586967"><ele>475.0</ele><time>2026-03-22T14:52:03.009Z</time></trkpt><trkpt lat="43.3992383" lon="10.8585833"><ele>480.0</ele><time>2026-03-22T14:52:04.011Z</time></trkpt><trkpt lat="43.3993633" lon="10.8584933"><ele>481.5</ele><time>2026-03-22T14:52:05.01Z</time></trkpt><trkpt lat="43.39949" lon="10.85843"><ele>483.0</ele><time>2026-03-22T14:52:06.011Z</time></trkpt><trkpt lat="43.39962" lon="10.858385"><ele>484.5</ele><time>2026-03-22T14:52:07.011Z</time></trkpt><trkpt lat="43.39975" lon="10.8583433"><ele>486.0</ele><time>2026-03-22T14:52:08.01Z</time></trkpt><trkpt lat="43.3998767" lon="10.8582983"><ele>486.0</ele><time>2026-03-22T14:52:09.01Z</time></trkpt><trkpt lat="43.39999" lon="10.85825"><ele>486.0</ele><time>2026-03-22T14:52:10.011Z</time></trkpt><trkpt lat="43.4001" lon="10.858205"><ele>486.0</ele><time>2026-03-22T14:52:11.011Z</time></trkpt><trkpt lat="43.4001967" lon="10.8581667"><ele>486.0</ele><time>2026-03-22T14:52:12.009Z</time></trkpt><trkpt lat="43.40028" lon="10.8581267"><ele>486.0</ele><time>2026-03-22T14:52:13.01Z</time></trkpt><trkpt lat="43.4003483" lon="10.858105"><ele>486.0</ele><time>2026-03-22T14:52:14.012Z</time></trkpt><trkpt lat="43.40044" lon="10.85816"><ele>486.0</ele><time>2026-03-22T14:52:16.01Z</time></trkpt><trkpt lat="43.40044" lon="10.8582917"><ele>486.0</ele><time>2026-03-22T14:52:18.012Z</time></trkpt><trkpt lat="43.40038" lon="10.8583883"><ele>486.0</ele><time>2026-03-22T14:52:19.012Z</time></trkpt><trkpt lat="43.4002867" lon="10.8585"><ele>486.0</ele><time>2026-03-22T14:52:20.011Z</time></trkpt><trkpt lat="43.4002017" lon="10.8586133"><ele>489.25</ele><time>2026-03-22T14:52:21.009Z</time></trkpt><trkpt lat="43.4001117" lon="10.8587333"><ele>492.5</ele><time>2026-03-22T14:52:22.01Z</time></trkpt><trkpt lat="43.4000183" lon="10.858855"><ele>495.75</ele><time>2026-03-22T14:52:23.011Z</time></trkpt><trkpt lat="43.3999383" lon="10.8589733"><ele>499.0</ele><time>2026-03-22T14:52:24.01Z</time></trkpt><trkpt lat="43.3998567" lon="10.8590833"><ele>499.0</ele><time>2026-03-22T14:52:25.011Z</time></trkpt><trkpt lat="43.3997783" lon="10.85919"><ele>499.0</ele><time>2026-03-22T14:52:26.01Z</time></trkpt><trkpt lat="43.3996967" lon="10.8592983"><ele>499.0</ele><time>2026-03-22T14:52:27.01Z</time></trkpt><trkpt lat="43.399625" lon="10.8594183"><ele>499.0</ele><time>2026-03-22T14:52:28.011Z</time></trkpt><trkpt lat="43.399575" lon="10.8595517"><ele>499.0</ele><time>2026-03-22T14:52:29.012Z</time></trkpt><trkpt lat="43.3995433" lon="10.8596983"><ele>496.75</ele><time>2026-03-22T14:52:30.012Z</time></trkpt><trkpt lat="43.3995317" lon="10.8598483"><ele>494.5</ele><time>2026-03-22T14:52:31.011Z</time></trkpt><trkpt lat="43.3995267" lon="10.8600133"><ele>492.25</ele><time>2026-03-22T14:52:32.011Z</time></trkpt><trkpt lat="43.3995117" lon="10.86018"><ele>490.0</ele><time>2026-03-22T14:52:33.01Z</time></trkpt><trkpt lat="43.399505" lon="10.8603533"><ele>490.0</ele><time>2026-03-22T14:52:34.01Z</time></trkpt><trkpt lat="43.3994967" lon="10.860525"><ele>490.0</ele><time>2026-03-22T14:52:35.011Z</time></trkpt><trkpt lat="43.3994917" lon="10.8607"><ele>490.0</ele><time>2026-03-22T14:52:36.01Z</time></trkpt><trkpt lat="43.3994817" lon="10.8608717"><ele>490.0</ele><time>2026-03-22T14:52:37.01Z</time></trkpt><trkpt lat="43.399475" lon="10.8610483"><ele>491.25</ele><time>2026-03-22T14:52:38.01Z</time></trkpt><trkpt lat="43.3994717" lon="10.861225"><ele>492.5</ele><time>2026-03-22T14:52:39.009Z</time></trkpt><trkpt lat="43.3994633" lon="10.861395"><ele>493.75</ele><time>2026-03-22T14:52:40.011Z</time></trkpt><trkpt lat="43.3994517" lon="10.86157"><ele>495.0</ele><time>2026-03-22T14:52:41.01Z</time></trkpt><trkpt lat="43.3994333" lon="10.86174"><ele>497.0</ele><time>2026-03-22T14:52:42.011Z</time></trkpt><trkpt lat="43.3994083" lon="10.8619067"><ele>499.0</ele><time>2026-03-22T14:52:43.01Z</time></trkpt><trkpt lat="43.3994" lon="10.8620783"><ele>501.0</ele><time>2026-03-22T14:52:44.009Z</time></trkpt><trkpt lat="43.3994017" lon="10.8622567"><ele>503.0</ele><time>2026-03-22T14:52:45.01Z</time></trkpt><trkpt lat="43.399395" lon="10.8624333"><ele>503.0</ele><time>2026-03-22T14:52:46.01Z</time></trkpt><trkpt lat="43.3993833" lon="10.862605"><ele>503.0</ele><time>2026-03-22T14:52:47.01Z</time></trkpt><trkpt lat="43.3993683" lon="10.86278"><ele>503.0</ele><time>2026-03-22T14:52:48.011Z</time></trkpt><trkpt lat="43.3993533" lon="10.862955"><ele>503.0</ele><time>2026-03-22T14:52:49.01Z</time></trkpt><trkpt lat="43.3993417" lon="10.8631283"><ele>504.75</ele><time>2026-03-22T14:52:50.01Z</time></trkpt><trkpt lat="43.39933" lon="10.8633033"><ele>506.5</ele><time>2026-03-22T14:52:51.013Z</time></trkpt><trkpt lat="43.3993183" lon="10.8634767"><ele>508.25</ele><time>2026-03-22T14:52:52.01Z</time></trkpt><trkpt lat="43.3993117" lon="10.8636533"><ele>510.0</ele><time>2026-03-22T14:52:53.012Z</time></trkpt><trkpt lat="43.3992983" lon="10.8638233"><ele>511.25</ele><time>2026-03-22T14:52:54.012Z</time></trkpt><trkpt lat="43.3992833" lon="10.8639917"><ele>512.5</ele><time>2026-03-22T14:52:55.01Z</time></trkpt><trkpt lat="43.399275" lon="10.8641617"><ele>513.75</ele><time>2026-03-22T14:52:56.01Z</time></trkpt><trkpt lat="43.3992617" lon="10.8643267"><ele>515.0</ele><time>2026-03-22T14:52:57.01Z</time></trkpt><trkpt lat="43.3992683" lon="10.8645017"><ele>515.5</ele><time>2026-03-22T14:52:58.01Z</time></trkpt><trkpt lat="43.39928" lon="10.8646717"><ele>516.0</ele><time>2026-03-22T14:52:59.01Z</time></trkpt><trkpt lat="43.3992767" lon="10.8648383"><ele>516.5</ele><time>2026-03-22T14:53:00.011Z</time></trkpt><trkpt lat="43.3992683" lon="10.865005"><ele>517.0</ele><time>2026-03-22T14:53:01.012Z</time></trkpt><trkpt lat="43.3992433" lon="10.8651633"><ele>517.2</ele><time>2026-03-22T14:53:02.011Z</time></trkpt><trkpt lat="43.3992283" lon="10.86532"><ele>517.4000000000001</ele><time>2026-03-22T14:53:03.01Z</time></trkpt><trkpt lat="43.3992383" lon="10.8654633"><ele>517.5999999999999</ele><time>2026-03-22T14:53:04.012Z</time></trkpt><trkpt lat="43.39926" lon="10.8655983"><ele>517.8</ele><time>2026-03-22T14:53:05.012Z</time></trkpt><trkpt lat="43.3992767" lon="10.86574"><ele>518.0</ele><time>2026-03-22T14:53:06.011Z</time></trkpt><trkpt lat="43.3992883" lon="10.8658933"><ele>517.0</ele><time>2026-03-22T14:53:07.012Z</time></trkpt><trkpt lat="43.399285" lon="10.866065"><ele>516.0</ele><time>2026-03-22T14:53:08.01Z</time></trkpt><trkpt lat="43.39928" lon="10.8662433"><ele>515.0</ele><time>2026-03-22T14:53:09.01Z</time></trkpt><trkpt lat="43.3992733" lon="10.8664267"><ele>514.0</ele><time>2026-03-22T14:53:10.01Z</time></trkpt><trkpt lat="43.3992617" lon="10.8666117"><ele>512.25</ele><time>2026-03-22T14:53:11.01Z</time></trkpt><trkpt lat="43.3992583" lon="10.866805"><ele>510.5</ele><time>2026-03-22T14:53:12.01Z</time></trkpt><trkpt lat="43.3992567" lon="10.8670033"><ele>508.75</ele><time>2026-03-22T14:53:13.011Z</time></trkpt><trkpt lat="43.399255" lon="10.8672017"><ele>507.0</ele><time>2026-03-22T14:53:14.011Z</time></trkpt><trkpt lat="43.3992583" lon="10.867395"><ele>507.0</ele><time>2026-03-22T14:53:15.01Z</time></trkpt><trkpt lat="43.3992733" lon="10.8675883"><ele>507.0</ele><time>2026-03-22T14:53:16.01Z</time></trkpt><trkpt lat="43.3992933" lon="10.8677783"><ele>507.0</ele><time>2026-03-22T14:53:17.011Z</time></trkpt><trkpt lat="43.3993233" lon="10.8679683"><ele>507.0</ele><time>2026-03-22T14:53:18.01Z</time></trkpt><trkpt lat="43.3993517" lon="10.8681633"><ele>505.5</ele><time>2026-03-22T14:53:19.011Z</time></trkpt><trkpt lat="43.3993833" lon="10.8683517"><ele>504.0</ele><time>2026-03-22T14:53:20.011Z</time></trkpt><trkpt lat="43.3994183" lon="10.8685367"><ele>502.5</ele><time>2026-03-22T14:53:21.009Z</time></trkpt><trkpt lat="43.3994533" lon="10.868725"><ele>501.0</ele><time>2026-03-22T14:53:22.01Z</time></trkpt><trkpt lat="43.39949" lon="10.8689117"><ele>501.0</ele><time>2026-03-22T14:53:23.011Z</time></trkpt><trkpt lat="43.39953" lon="10.8690917"><ele>501.0</ele><time>2026-03-22T14:53:24.01Z</time></trkpt><trkpt lat="43.3995683" lon="10.8692617"><ele>501.0</ele><time>2026-03-22T14:53:25.012Z</time></trkpt><trkpt lat="43.3996" lon="10.869425"><ele>501.0</ele><time>2026-03-22T14:53:26.011Z</time></trkpt><trkpt lat="43.39962" lon="10.869585"><ele>500.8</ele><time>2026-03-22T14:53:27.01Z</time></trkpt><trkpt lat="43.39963" lon="10.8697367"><ele>500.6</ele><time>2026-03-22T14:53:28.01Z</time></trkpt><trkpt lat="43.3996367" lon="10.8698667"><ele>500.4</ele><time>2026-03-22T14:53:29.008Z</time></trkpt><trkpt lat="43.399645" lon="10.86997"><ele>500.2</ele><time>2026-03-22T14:53:30.01Z</time></trkpt><trkpt lat="43.3996533" lon="10.8700567"><ele>500.0</ele><time>2026-03-22T14:53:31.012Z</time></trkpt><trkpt lat="43.3996683" lon="10.87021"><ele>499.4</ele><time>2026-03-22T14:53:33.01Z</time></trkpt><trkpt lat="43.3996767" lon="10.8703017"><ele>498.8</ele><time>2026-03-22T14:53:34.01Z</time></trkpt><trkpt lat="43.39969" lon="10.870415"><ele>498.20000000000005</ele><time>2026-03-22T14:53:35.01Z</time></trkpt><trkpt lat="43.399705" lon="10.8705567"><ele>497.6</ele><time>2026-03-22T14:53:36.01Z</time></trkpt><trkpt lat="43.3997133" lon="10.8707183"><ele>497.0</ele><time>2026-03-22T14:53:37.011Z</time></trkpt><trkpt lat="43.3997017" lon="10.8708967"><ele>497.75</ele><time>2026-03-22T14:53:38.011Z</time></trkpt><trkpt lat="43.3996883" lon="10.8710667"><ele>498.5</ele><time>2026-03-22T14:53:39.011Z</time></trkpt><trkpt lat="43.3996533" lon="10.8712267"><ele>499.25</ele><time>2026-03-22T14:53:40.01Z</time></trkpt><trkpt lat="43.3996183" lon="10.8713717"><ele>500.0</ele><time>2026-03-22T14:53:41.01Z</time></trkpt><trkpt lat="43.3995717" lon="10.8715217"><ele>498.4</ele><time>2026-03-22T14:53:42.011Z</time></trkpt><trkpt lat="43.3995467" lon="10.8716683"><ele>496.8</ele><time>2026-03-22T14:53:43.011Z</time></trkpt><trkpt lat="43.399525" lon="10.87181"><ele>495.20000000000005</ele><time>2026-03-22T14:53:44.011Z</time></trkpt><trkpt lat="43.3994867" lon="10.8719367"><ele>493.6</ele><time>2026-03-22T14:53:45.01Z</time></trkpt><trkpt lat="43.39944" lon="10.8720633"><ele>492.0</ele><time>2026-03-22T14:53:46.01Z</time></trkpt><trkpt lat="43.3993817" lon="10.87219"><ele>491.5</ele><time>2026-03-22T14:53:47.01Z</time></trkpt><trkpt lat="43.3993067" lon="10.8723233"><ele>491.0</ele><time>2026-03-22T14:53:48.01Z</time></trkpt><trkpt lat="43.3992033" lon="10.8724667"><ele>490.5</ele><time>2026-03-22T14:53:49.011Z</time></trkpt><trkpt lat="43.3991" lon="10.8726067"><ele>490.0</ele><time>2026-03-22T14:53:50.011Z</time></trkpt><trkpt lat="43.3990133" lon="10.8727517"><ele>491.6666666666667</ele><time>2026-03-22T14:53:51.01Z</time></trkpt><trkpt lat="43.3989233" lon="10.8729067"><ele>493.33333333333337</ele><time>2026-03-22T14:53:52.01Z</time></trkpt><trkpt lat="43.3988083" lon="10.873055"><ele>495.0</ele><time>2026-03-22T14:53:53.01Z</time></trkpt><trkpt lat="43.39871" lon="10.8732133"><ele>491.5</ele><time>2026-03-22T14:53:54.011Z</time></trkpt><trkpt lat="43.3986183" lon="10.8733817"><ele>488.0</ele><time>2026-03-22T14:53:55.01Z</time></trkpt><trkpt lat="43.3985367" lon="10.873555"><ele>484.5</ele><time>2026-03-22T14:53:56.01Z</time></trkpt><trkpt lat="43.3984517" lon="10.873715"><ele>481.0</ele><time>2026-03-22T14:53:57.009Z</time></trkpt><trkpt lat="43.3983583" lon="10.87387"><ele>481.0</ele><time>2026-03-22T14:53:58.01Z</time></trkpt><trkpt lat="43.398245" lon="10.8740167"><ele>481.0</ele><time>2026-03-22T14:53:59.009Z</time></trkpt><trkpt lat="43.3981233" lon="10.8741583"><ele>481.0</ele><time>2026-03-22T14:54:00.01Z</time></trkpt><trkpt lat="43.398015" lon="10.874305"><ele>476.75</ele><time>2026-03-22T14:54:01.01Z</time></trkpt><trkpt lat="43.39793" lon="10.8744533"><ele>472.5</ele><time>2026-03-22T14:54:02.01Z</time></trkpt><trkpt lat="43.3978367" lon="10.8746117"><ele>468.25</ele><time>2026-03-22T14:54:03.01Z</time></trkpt><trkpt lat="43.3977583" lon="10.8748"><ele>464.0</ele><time>2026-03-22T14:54:04.012Z</time></trkpt><trkpt lat="43.3976867" lon="10.8750017"><ele>465.0</ele><time>2026-03-22T14:54:05.011Z</time></trkpt><trkpt lat="43.3976217" lon="10.875205"><ele>466.0</ele><time>2026-03-22T14:54:06.01Z</time></trkpt><trkpt lat="43.39755" lon="10.8754033"><ele>467.0</ele><time>2026-03-22T14:54:07.012Z</time></trkpt><trkpt lat="43.39747" lon="10.8755983"><ele>467.0</ele><time>2026-03-22T14:54:08.012Z</time></trkpt><trkpt lat="43.3973833" lon="10.875785"><ele>467.0</ele><time>2026-03-22T14:54:09.01Z</time></trkpt><trkpt lat="43.3973067" lon="10.87598"><ele>467.0</ele><time>2026-03-22T14:54:10.011Z</time></trkpt><trkpt lat="43.3972383" lon="10.8761733"><ele>467.0</ele><time>2026-03-22T14:54:11.012Z</time></trkpt><trkpt lat="43.3971833" lon="10.876375"><ele>467.0</ele><time>2026-03-22T14:54:12.01Z</time></trkpt><trkpt lat="43.39715" lon="10.8765883"><ele>467.0</ele><time>2026-03-22T14:54:13.01Z</time></trkpt><trkpt lat="43.3971233" lon="10.8768183"><ele>457.66666666666663</ele><time>2026-03-22T14:54:14.012Z</time></trkpt><trkpt lat="43.3970983" lon="10.8770617"><ele>448.33333333333337</ele><time>2026-03-22T14:54:15.011Z</time></trkpt><trkpt lat="43.3970667" lon="10.8773133"><ele>439.0</ele><time>2026-03-22T14:54:16.01Z</time></trkpt><trkpt lat="43.397035" lon="10.877565"><ele>439.0</ele><time>2026-03-22T14:54:17.009Z</time></trkpt><trkpt lat="43.397" lon="10.8778133"><ele>439.0</ele><time>2026-03-22T14:54:18.01Z</time></trkpt><trkpt lat="43.3969583" lon="10.8780467"><ele>439.0</ele><time>2026-03-22T14:54:19.01Z</time></trkpt><trkpt lat="43.3969033" lon="10.8782617"><ele>439.33333333333337</ele><time>2026-03-22T14:54:20.01Z</time></trkpt><trkpt lat="43.3968233" lon="10.8784467"><ele>439.66666666666663</ele><time>2026-03-22T14:54:21.01Z</time></trkpt><trkpt lat="43.3967533" lon="10.8786317"><ele>440.0</ele><time>2026-03-22T14:54:22.011Z</time></trkpt><trkpt lat="43.3967067" lon="10.8788367"><ele>440.0</ele><time>2026-03-22T14:54:23.011Z</time></trkpt><trkpt lat="43.3966867" lon="10.87906"><ele>440.0</ele><time>2026-03-22T14:54:24.012Z</time></trkpt><trkpt lat="43.39669" lon="10.8792883"><ele>440.0</ele><time>2026-03-22T14:54:25.01Z</time></trkpt><trkpt lat="43.3967083" lon="10.8795267"><ele>437.66666666666663</ele><time>2026-03-22T14:54:26.012Z</time></trkpt><trkpt lat="43.39675" lon="10.87977"><ele>435.33333333333337</ele><time>2026-03-22T14:54:27.011Z</time></trkpt><trkpt lat="43.3967933" lon="10.880015"><ele>433.0</ele><time>2026-03-22T14:54:28.01Z</time></trkpt><trkpt lat="43.3968233" lon="10.8802667"><ele>430.0</ele><time>2026-03-22T14:54:29.01Z</time></trkpt><trkpt lat="43.3968467" lon="10.8805233"><ele>427.0</ele><time>2026-03-22T14:54:30.009Z</time></trkpt><trkpt lat="43.3968767" lon="10.8807833"><ele>424.0</ele><time>2026-03-22T14:54:31.01Z</time></trkpt><trkpt lat="43.3969217" lon="10.8810483"><ele>420.6666666666667</ele><time>2026-03-22T14:54:32.012Z</time></trkpt><trkpt lat="43.3969717" lon="10.8813133"><ele>417.33333333333337</ele><time>2026-03-22T14:54:33.012Z</time></trkpt><trkpt lat="43.3970267" lon="10.8815767"><ele>414.0</ele><time>2026-03-22T14:54:34.01Z</time></trkpt><trkpt lat="43.3970783" lon="10.8818333"><ele>410.0</ele><time>2026-03-22T14:54:35.011Z</time></trkpt><trkpt lat="43.39712" lon="10.8820817"><ele>406.0</ele><time>2026-03-22T14:54:36.01Z</time></trkpt><trkpt lat="43.3971517" lon="10.8823317"><ele>402.0</ele><time>2026-03-22T14:54:37.011Z</time></trkpt><trkpt lat="43.3971683" lon="10.882595"><ele>406.66666666666663</ele><time>2026-03-22T14:54:38.012Z</time></trkpt><trkpt lat="43.3971717" lon="10.8828617"><ele>411.3333333333333</ele><time>2026-03-22T14:54:39.01Z</time></trkpt><trkpt lat="43.39719" lon="10.8831283"><ele>416.0</ele><time>2026-03-22T14:54:40.01Z</time></trkpt><trkpt lat="43.3972317" lon="10.8833817"><ele>413.66666666666663</ele><time>2026-03-22T14:54:41.01Z</time></trkpt><trkpt lat="43.3972733" lon="10.8836133"><ele>411.33333333333337</ele><time>2026-03-22T14:54:42.01Z</time></trkpt><trkpt lat="43.3972967" lon="10.8838233"><ele>409.0</ele><time>2026-03-22T14:54:43.011Z</time></trkpt><trkpt lat="43.39729" lon="10.8840267"><ele>409.0</ele><time>2026-03-22T14:54:44.01Z</time></trkpt><trkpt lat="43.39724" lon="10.8842167"><ele>409.0</ele><time>2026-03-22T14:54:45.012Z</time></trkpt><trkpt lat="43.397155" lon="10.88439"><ele>409.0</ele><time>2026-03-22T14:54:46.011Z</time></trkpt><trkpt lat="43.3970567" lon="10.8845617"><ele>408.0</ele><time>2026-03-22T14:54:47.012Z</time></trkpt><trkpt lat="43.3969417" lon="10.8847267"><ele>407.0</ele><time>2026-03-22T14:54:48.011Z</time></trkpt><trkpt lat="43.3968267" lon="10.8849033"><ele>406.0</ele><time>2026-03-22T14:54:49.01Z</time></trkpt><trkpt lat="43.3967117" lon="10.885085"><ele>407.0</ele><time>2026-03-22T14:54:50.01Z</time></trkpt><trkpt lat="43.3965967" lon="10.8852733"><ele>408.0</ele><time>2026-03-22T14:54:51.01Z</time></trkpt><trkpt lat="43.3964833" lon="10.885465"><ele>409.0</ele><time>2026-03-22T14:54:52.008Z</time></trkpt><trkpt lat="43.3963633" lon="10.885655"><ele>406.0</ele><time>2026-03-22T14:54:53.01Z</time></trkpt><trkpt lat="43.3962483" lon="10.8858383"><ele>403.0</ele><time>2026-03-22T14:54:54.01Z</time></trkpt><trkpt lat="43.39614" lon="10.886015"><ele>400.0</ele><time>2026-03-22T14:54:55.01Z</time></trkpt><trkpt lat="43.3960417" lon="10.8861883"><ele>400.0</ele><time>2026-03-22T14:54:56.01Z</time></trkpt><trkpt lat="43.395965" lon="10.8863767"><ele>400.0</ele><time>2026-03-22T14:54:57.011Z</time></trkpt><trkpt lat="43.3959267" lon="10.8865767"><ele>400.0</ele><time>2026-03-22T14:54:58.011Z</time></trkpt><trkpt lat="43.3959267" lon="10.886785"><ele>399.0</ele><time>2026-03-22T14:54:59.01Z</time></trkpt><trkpt lat="43.3959533" lon="10.8870033"><ele>398.0</ele><time>2026-03-22T14:55:00.01Z</time></trkpt><trkpt lat="43.3960017" lon="10.887215"><ele>397.0</ele><time>2026-03-22T14:55:01.01Z</time></trkpt><trkpt lat="43.3960467" lon="10.887415"><ele>395.5</ele><time>2026-03-22T14:55:02.009Z</time></trkpt><trkpt lat="43.396055" lon="10.8876067"><ele>394.0</ele><time>2026-03-22T14:55:03.01Z</time></trkpt><trkpt lat="43.3960117" lon="10.8877733"><ele>392.5</ele><time>2026-03-22T14:55:04.011Z</time></trkpt><trkpt lat="43.3959217" lon="10.8879017"><ele>391.0</ele><time>2026-03-22T14:55:05.011Z</time></trkpt><trkpt lat="43.3958" lon="10.888"><ele>391.0</ele><time>2026-03-22T14:55:06.009Z</time></trkpt><trkpt lat="43.3956783" lon="10.8881133"><ele>391.0</ele><time>2026-03-22T14:55:07.009Z</time></trkpt><trkpt lat="43.3955783" lon="10.8882717"><ele>391.0</ele><time>2026-03-22T14:55:08.01Z</time></trkpt><trkpt lat="43.3954967" lon="10.88847"><ele>388.6666666666667</ele><time>2026-03-22T14:55:09.01Z</time></trkpt><trkpt lat="43.3954167" lon="10.8886833"><ele>386.33333333333337</ele><time>2026-03-22T14:55:10.01Z</time></trkpt><trkpt lat="43.395335" lon="10.888885"><ele>384.0</ele><time>2026-03-22T14:55:11.01Z</time></trkpt><trkpt lat="43.3952567" lon="10.8890733"><ele>384.0</ele><time>2026-03-22T14:55:12.01Z</time></trkpt><trkpt lat="43.395185" lon="10.8892217"><ele>384.0</ele><time>2026-03-22T14:55:13.011Z</time></trkpt><trkpt lat="43.3951083" lon="10.8893367"><ele>384.0</ele><time>2026-03-22T14:55:14.011Z</time></trkpt><trkpt lat="43.3950167" lon="10.88937"><ele>384.0</ele><time>2026-03-22T14:55:15.01Z</time></trkpt><trkpt lat="43.3949283" lon="10.8893333"><ele>384.0</ele><time>2026-03-22T14:55:16.009Z</time></trkpt><trkpt lat="43.3948717" lon="10.88922"><ele>384.0</ele><time>2026-03-22T14:55:17.012Z</time></trkpt><trkpt lat="43.3948533" lon="10.88905"><ele>384.0</ele><time>2026-03-22T14:55:18.01Z</time></trkpt><trkpt lat="43.3948617" lon="10.888845"><ele>384.0</ele><time>2026-03-22T14:55:19.009Z</time></trkpt><trkpt lat="43.3948833" lon="10.8886367"><ele>384.0</ele><time>2026-03-22T14:55:20.01Z</time></trkpt><trkpt lat="43.3948883" lon="10.8884483"><ele>383.4</ele><time>2026-03-22T14:55:21.01Z</time></trkpt><trkpt lat="43.39486" lon="10.8882933"><ele>382.79999999999995</ele><time>2026-03-22T14:55:22.011Z</time></trkpt><trkpt lat="43.3948067" lon="10.8881767"><ele>382.20000000000005</ele><time>2026-03-22T14:55:23.01Z</time></trkpt><trkpt lat="43.3947383" lon="10.8881133"><ele>381.6</ele><time>2026-03-22T14:55:24.012Z</time></trkpt><trkpt lat="43.394665" lon="10.888125"><ele>381.0</ele><time>2026-03-22T14:55:25.012Z</time></trkpt><trkpt lat="43.3946017" lon="10.888205"><ele>379.75</ele><time>2026-03-22T14:55:26.011Z</time></trkpt><trkpt lat="43.394545" lon="10.8883483"><ele>378.5</ele><time>2026-03-22T14:55:27.01Z</time></trkpt><trkpt lat="43.39448" lon="10.8885333"><ele>377.25</ele><time>2026-03-22T14:55:28.009Z</time></trkpt><trkpt lat="43.394385" lon="10.8887233"><ele>376.0</ele><time>2026-03-22T14:55:29.01Z</time></trkpt><trkpt lat="43.394245" lon="10.8888833"><ele>376.0</ele><time>2026-03-22T14:55:30.012Z</time></trkpt><trkpt lat="43.3940833" lon="10.8890067"><ele>376.0</ele><time>2026-03-22T14:55:31.01Z</time></trkpt><trkpt lat="43.39392" lon="10.889115"><ele>376.0</ele><time>2026-03-22T14:55:32.011Z</time></trkpt><trkpt lat="43.3937733" lon="10.8892283"><ele>372.3333333333333</ele><time>2026-03-22T14:55:33.01Z</time></trkpt><trkpt lat="43.3936433" lon="10.8893617"><ele>368.6666666666667</ele><time>2026-03-22T14:55:34.01Z</time></trkpt><trkpt lat="43.3935317" lon="10.8895333"><ele>365.0</ele><time>2026-03-22T14:55:35.01Z</time></trkpt><trkpt lat="43.39343" lon="10.8897333"><ele>365.0</ele><time>2026-03-22T14:55:36.009Z</time></trkpt><trkpt lat="43.3933333" lon="10.8899633"><ele>365.0</ele><time>2026-03-22T14:55:37.01Z</time></trkpt><trkpt lat="43.3932367" lon="10.8901917"><ele>365.0</ele><time>2026-03-22T14:55:38.01Z</time></trkpt><trkpt lat="43.3931467" lon="10.8904"><ele>365.5</ele><time>2026-03-22T14:55:39.01Z</time></trkpt><trkpt lat="43.3930767" lon="10.8905933"><ele>366.0</ele><time>2026-03-22T14:55:40.01Z</time></trkpt><trkpt lat="43.3930467" lon="10.8907783"><ele>366.5</ele><time>2026-03-22T14:55:41.012Z</time></trkpt><trkpt lat="43.3930633" lon="10.8909633"><ele>367.0</ele><time>2026-03-22T14:55:42.009Z</time></trkpt><trkpt lat="43.3931283" lon="10.891155"><ele>362.3333333333333</ele><time>2026-03-22T14:55:43.012Z</time></trkpt><trkpt lat="43.3932283" lon="10.89135"><ele>357.6666666666667</ele><time>2026-03-22T14:55:44.01Z</time></trkpt><trkpt lat="43.3933167" lon="10.8915483"><ele>353.0</ele><time>2026-03-22T14:55:45.012Z</time></trkpt><trkpt lat="43.3934083" lon="10.89172"><ele>349.5</ele><time>2026-03-22T14:55:46.01Z</time></trkpt><trkpt lat="43.39351" lon="10.8918667"><ele>346.0</ele><time>2026-03-22T14:55:47.01Z</time></trkpt><trkpt lat="43.3936083" lon="10.8919933"><ele>342.5</ele><time>2026-03-22T14:55:48.01Z</time></trkpt><trkpt lat="43.3937" lon="10.8921133"><ele>339.0</ele><time>2026-03-22T14:55:49.009Z</time></trkpt><trkpt lat="43.3937817" lon="10.8922233"><ele>339.4</ele><time>2026-03-22T14:55:50.01Z</time></trkpt><trkpt lat="43.3938517" lon="10.8923317"><ele>339.79999999999995</ele><time>2026-03-22T14:55:51.01Z</time></trkpt><trkpt lat="43.3939067" lon="10.8924533"><ele>340.20000000000005</ele><time>2026-03-22T14:55:52.01Z</time></trkpt><trkpt lat="43.3939333" lon="10.8925983"><ele>340.6</ele><time>2026-03-22T14:55:53.009Z</time></trkpt><trkpt lat="43.3939333" lon="10.8927567"><ele>341.0</ele><time>2026-03-22T14:55:54.008Z</time></trkpt><trkpt lat="43.393915" lon="10.8929083"><ele>341.0</ele><time>2026-03-22T14:55:55.01Z</time></trkpt><trkpt lat="43.39387" lon="10.8930633"><ele>341.0</ele><time>2026-03-22T14:55:56.01Z</time></trkpt><trkpt lat="43.3938017" lon="10.8932167"><ele>341.0</ele><time>2026-03-22T14:55:57.011Z</time></trkpt><trkpt lat="43.39373" lon="10.89337"><ele>341.0</ele><time>2026-03-22T14:55:58.01Z</time></trkpt><trkpt lat="43.393655" lon="10.8935017"><ele>342.75</ele><time>2026-03-22T14:55:59.009Z</time></trkpt><trkpt lat="43.3935633" lon="10.8936167"><ele>344.5</ele><time>2026-03-22T14:56:00.009Z</time></trkpt><trkpt lat="43.393465" lon="10.8937117"><ele>346.25</ele><time>2026-03-22T14:56:01.009Z</time></trkpt><trkpt lat="43.3933617" lon="10.8937933"><ele>348.0</ele><time>2026-03-22T14:56:02.01Z</time></trkpt><trkpt lat="43.3932567" lon="10.8938717"><ele>348.0</ele><time>2026-03-22T14:56:03.009Z</time></trkpt><trkpt lat="43.3931533" lon="10.8939517"><ele>348.0</ele><time>2026-03-22T14:56:04.01Z</time></trkpt><trkpt lat="43.393055" lon="10.8940333"><ele>348.0</ele><time>2026-03-22T14:56:05.01Z</time></trkpt><trkpt lat="43.3929667" lon="10.894125"><ele>348.0</ele><time>2026-03-22T14:56:06.012Z</time></trkpt><trkpt lat="43.3928933" lon="10.8942317"><ele>345.79999999999995</ele><time>2026-03-22T14:56:07.009Z</time></trkpt><trkpt lat="43.3928217" lon="10.8943433"><ele>343.6</ele><time>2026-03-22T14:56:08.009Z</time></trkpt><trkpt lat="43.3927517" lon="10.8944567"><ele>341.4</ele><time>2026-03-22T14:56:09.01Z</time></trkpt><trkpt lat="43.39268" lon="10.894575"><ele>339.20000000000005</ele><time>2026-03-22T14:56:10.01Z</time></trkpt><trkpt lat="43.3926167" lon="10.8947033"><ele>337.0</ele><time>2026-03-22T14:56:11.009Z</time></trkpt><trkpt lat="43.3925617" lon="10.8948483"><ele>337.0</ele><time>2026-03-22T14:56:12.01Z</time></trkpt><trkpt lat="43.392535" lon="10.8950117"><ele>337.0</ele><time>2026-03-22T14:56:13.011Z</time></trkpt><trkpt lat="43.3925167" lon="10.8951717"><ele>337.0</ele><time>2026-03-22T14:56:14.011Z</time></trkpt><trkpt lat="43.3925033" lon="10.8953267"><ele>337.0</ele><time>2026-03-22T14:56:15.01Z</time></trkpt><trkpt lat="43.39248" lon="10.8954933"><ele>335.66666666666663</ele><time>2026-03-22T14:56:16.009Z</time></trkpt><trkpt lat="43.3924533" lon="10.8956767"><ele>334.3333333333333</ele><time>2026-03-22T14:56:17.01Z</time></trkpt><trkpt lat="43.392415" lon="10.8958783"><ele>333.0</ele><time>2026-03-22T14:56:18.009Z</time></trkpt><trkpt lat="43.392365" lon="10.8961083"><ele>331.6666666666667</ele><time>2026-03-22T14:56:19.01Z</time></trkpt><trkpt lat="43.3922933" lon="10.89634"><ele>330.33333333333337</ele><time>2026-03-22T14:56:20.009Z</time></trkpt><trkpt lat="43.39219" lon="10.8965767"><ele>329.0</ele><time>2026-03-22T14:56:21.009Z</time></trkpt><trkpt lat="43.39207" lon="10.8968083"><ele>328.33333333333337</ele><time>2026-03-22T14:56:22.009Z</time></trkpt><trkpt lat="43.3919367" lon="10.897035"><ele>327.6666666666667</ele><time>2026-03-22T14:56:23.012Z</time></trkpt><trkpt lat="43.391795" lon="10.8972533"><ele>327.0</ele><time>2026-03-22T14:56:24.011Z</time></trkpt><trkpt lat="43.3916417" lon="10.897465"><ele>327.0</ele><time>2026-03-22T14:56:25.009Z</time></trkpt><trkpt lat="43.391485" lon="10.8976733"><ele>327.0</ele><time>2026-03-22T14:56:26.009Z</time></trkpt><trkpt lat="43.3913283" lon="10.8978783"><ele>327.0</ele><time>2026-03-22T14:56:27.01Z</time></trkpt><trkpt lat="43.3911717" lon="10.8980767"><ele>328.3333333333333</ele><time>2026-03-22T14:56:28.009Z</time></trkpt><trkpt lat="43.3910133" lon="10.8982667"><ele>329.66666666666663</ele><time>2026-03-22T14:56:29.01Z</time></trkpt><trkpt lat="43.3908567" lon="10.8984433"><ele>331.0</ele><time>2026-03-22T14:56:30.01Z</time></trkpt><trkpt lat="43.3907" lon="10.8986117"><ele>332.66666666666663</ele><time>2026-03-22T14:56:31.008Z</time></trkpt><trkpt lat="43.3905533" lon="10.8987883"><ele>334.3333333333333</ele><time>2026-03-22T14:56:32.01Z</time></trkpt><trkpt lat="43.390415" lon="10.8989867"><ele>336.0</ele><time>2026-03-22T14:56:33.009Z</time></trkpt><trkpt lat="43.3902767" lon="10.8991967"><ele>337.0</ele><time>2026-03-22T14:56:34.01Z</time></trkpt><trkpt lat="43.3901433" lon="10.89942"><ele>338.0</ele><time>2026-03-22T14:56:35.01Z</time></trkpt><trkpt lat="43.3900017" lon="10.8996433"><ele>339.0</ele><time>2026-03-22T14:56:36.01Z</time></trkpt><trkpt lat="43.38985" lon="10.8998583"><ele>339.0</ele><time>2026-03-22T14:56:37.011Z</time></trkpt><trkpt lat="43.3897067" lon="10.900065"><ele>339.0</ele><time>2026-03-22T14:56:38.01Z</time></trkpt><trkpt lat="43.3895617" lon="10.9002633"><ele>339.0</ele><time>2026-03-22T14:56:39.01Z</time></trkpt><trkpt lat="43.3894133" lon="10.9004617"><ele>340.0</ele><time>2026-03-22T14:56:40.01Z</time></trkpt><trkpt lat="43.3892717" lon="10.9006717"><ele>341.0</ele><time>2026-03-22T14:56:41.011Z</time></trkpt><trkpt lat="43.3891267" lon="10.900885"><ele>342.0</ele><time>2026-03-22T14:56:42.01Z</time></trkpt><trkpt lat="43.3889717" lon="10.9011"><ele>344.3333333333333</ele><time>2026-03-22T14:56:43.011Z</time></trkpt><trkpt lat="43.3888183" lon="10.9013183"><ele>346.66666666666663</ele><time>2026-03-22T14:56:44.01Z</time></trkpt><trkpt lat="43.38867" lon="10.9015367"><ele>349.0</ele><time>2026-03-22T14:56:45.011Z</time></trkpt><trkpt lat="43.3885267" lon="10.9017533"><ele>349.0</ele><time>2026-03-22T14:56:46.01Z</time></trkpt><trkpt lat="43.3883783" lon="10.90196"><ele>349.0</ele><time>2026-03-22T14:56:47.009Z</time></trkpt><trkpt lat="43.3882133" lon="10.902145"><ele>349.0</ele><time>2026-03-22T14:56:48.01Z</time></trkpt><trkpt lat="43.388045" lon="10.9023233"><ele>351.3333333333333</ele><time>2026-03-22T14:56:49.01Z</time></trkpt><trkpt lat="43.3878867" lon="10.9024867"><ele>353.6666666666667</ele><time>2026-03-22T14:56:50.01Z</time></trkpt><trkpt lat="43.3877417" lon="10.9026333"><ele>356.0</ele><time>2026-03-22T14:56:51.01Z</time></trkpt><trkpt lat="43.387595" lon="10.9027617"><ele>356.0</ele><time>2026-03-22T14:56:52.01Z</time></trkpt><trkpt lat="43.38744" lon="10.9028683"><ele>356.0</ele><time>2026-03-22T14:56:53.01Z</time></trkpt><trkpt lat="43.3872783" lon="10.902945"><ele>356.0</ele><time>2026-03-22T14:56:54.011Z</time></trkpt><trkpt lat="43.3871117" lon="10.903015"><ele>359.0</ele><time>2026-03-22T14:56:55.012Z</time></trkpt><trkpt lat="43.38694" lon="10.9030717"><ele>362.0</ele><time>2026-03-22T14:56:56.01Z</time></trkpt><trkpt lat="43.386785" lon="10.9030917"><ele>365.0</ele><time>2026-03-22T14:56:57.011Z</time></trkpt><trkpt lat="43.3866467" lon="10.9030983"><ele>365.0</ele><time>2026-03-22T14:56:58.009Z</time></trkpt><trkpt lat="43.3865283" lon="10.9031383"><ele>365.0</ele><time>2026-03-22T14:56:59.01Z</time></trkpt><trkpt lat="43.386435" lon="10.9032183"><ele>365.0</ele><time>2026-03-22T14:57:00.01Z</time></trkpt><trkpt lat="43.38639" lon="10.9033633"><ele>365.0</ele><time>2026-03-22T14:57:01.01Z</time></trkpt><trkpt lat="43.386395" lon="10.9035467"><ele>365.6666666666667</ele><time>2026-03-22T14:57:02.01Z</time></trkpt><trkpt lat="43.386425" lon="10.9037533"><ele>366.3333333333333</ele><time>2026-03-22T14:57:03.009Z</time></trkpt><trkpt lat="43.3864633" lon="10.903995"><ele>367.0</ele><time>2026-03-22T14:57:04.01Z</time></trkpt><trkpt lat="43.3864817" lon="10.904225"><ele>368.0</ele><time>2026-03-22T14:57:05.01Z</time></trkpt><trkpt lat="43.3864783" lon="10.90441"><ele>369.0</ele><time>2026-03-22T14:57:06.012Z</time></trkpt><trkpt lat="43.3864367" lon="10.9045767"><ele>370.0</ele><time>2026-03-22T14:57:07.012Z</time></trkpt><trkpt lat="43.3863567" lon="10.9047267"><ele>371.0</ele><time>2026-03-22T14:57:08.01Z</time></trkpt><trkpt lat="43.3862567" lon="10.9048583"><ele>372.75</ele><time>2026-03-22T14:57:09.011Z</time></trkpt><trkpt lat="43.3861667" lon="10.9050033"><ele>374.5</ele><time>2026-03-22T14:57:10.009Z</time></trkpt><trkpt lat="43.3861267" lon="10.9051867"><ele>376.25</ele><time>2026-03-22T14:57:11.009Z</time></trkpt><trkpt lat="43.3861333" lon="10.9053883"><ele>378.0</ele><time>2026-03-22T14:57:12.011Z</time></trkpt><trkpt lat="43.386165" lon="10.9056"><ele>379.5</ele><time>2026-03-22T14:57:13.01Z</time></trkpt><trkpt lat="43.3861883" lon="10.9058017"><ele>381.0</ele><time>2026-03-22T14:57:14.01Z</time></trkpt><trkpt lat="43.3861983" lon="10.9059883"><ele>382.5</ele><time>2026-03-22T14:57:15.01Z</time></trkpt><trkpt lat="43.3861967" lon="10.9061633"><ele>384.0</ele><time>2026-03-22T14:57:16.01Z</time></trkpt><trkpt lat="43.3861917" lon="10.906325"><ele>385.2</ele><time>2026-03-22T14:57:17.01Z</time></trkpt><trkpt lat="43.3861767" lon="10.9064767"><ele>386.4</ele><time>2026-03-22T14:57:18.008Z</time></trkpt><trkpt lat="43.3861617" lon="10.9066183"><ele>387.6</ele><time>2026-03-22T14:57:19.01Z</time></trkpt><trkpt lat="43.38615" lon="10.9067533"><ele>388.8</ele><time>2026-03-22T14:57:20.01Z</time></trkpt><trkpt lat="43.3861483" lon="10.90687"><ele>390.0</ele><time>2026-03-22T14:57:21.01Z</time></trkpt><trkpt lat="43.38615" lon="10.9069683"><ele>390.6666666666667</ele><time>2026-03-22T14:57:22.01Z</time></trkpt><trkpt lat="43.3861533" lon="10.9071067"><ele>391.33333333333337</ele><time>2026-03-22T14:57:24.009Z</time></trkpt><trkpt lat="43.3861367" lon="10.9071933"><ele>392.0</ele><time>2026-03-22T14:58:31.01Z</time></trkpt><trkpt lat="43.386165" lon="10.9073367"><ele>392.6666666666667</ele><time>2026-03-22T14:58:33.009Z</time></trkpt><trkpt lat="43.38618" lon="10.9074433"><ele>393.33333333333337</ele><time>2026-03-22T14:58:34.009Z</time></trkpt><trkpt lat="43.3861933" lon="10.90756"><ele>394.0</ele><time>2026-03-22T14:58:35.008Z</time></trkpt><trkpt lat="43.3861967" lon="10.9076767"><ele>394.79999999999995</ele><time>2026-03-22T14:58:36.009Z</time></trkpt><trkpt lat="43.3861883" lon="10.9077883"><ele>395.59999999999997</ele><time>2026-03-22T14:58:37.008Z</time></trkpt><trkpt lat="43.3861617" lon="10.907895"><ele>396.4</ele><time>2026-03-22T14:58:38.009Z</time></trkpt><trkpt lat="43.38611" lon="10.9079933"><ele>397.2</ele><time>2026-03-22T14:58:39.009Z</time></trkpt><trkpt lat="43.38604" lon="10.9080867"><ele>398.0</ele><time>2026-03-22T14:58:40.008Z</time></trkpt><trkpt lat="43.385945" lon="10.9081867"><ele>398.0</ele><time>2026-03-22T14:58:41.01Z</time></trkpt><trkpt lat="43.3858383" lon="10.9082967"><ele>398.0</ele><time>2026-03-22T14:58:42.01Z</time></trkpt><trkpt lat="43.3857267" lon="10.90842"><ele>398.0</ele><time>2026-03-22T14:58:43.009Z</time></trkpt><trkpt lat="43.3856117" lon="10.9085633"><ele>398.0</ele><time>2026-03-22T14:58:44.009Z</time></trkpt><trkpt lat="43.385505" lon="10.9087217"><ele>400.25</ele><time>2026-03-22T14:58:45.01Z</time></trkpt><trkpt lat="43.38541" lon="10.9088883"><ele>402.5</ele><time>2026-03-22T14:58:46.012Z</time></trkpt><trkpt lat="43.38533" lon="10.90906"><ele>404.75</ele><time>2026-03-22T14:58:47.01Z</time></trkpt><trkpt lat="43.385265" lon="10.9092417"><ele>407.0</ele><time>2026-03-22T14:58:48.01Z</time></trkpt><trkpt lat="43.3852117" lon="10.909435"><ele>407.0</ele><time>2026-03-22T14:58:49.01Z</time></trkpt><trkpt lat="43.3851567" lon="10.9096267"><ele>407.0</ele><time>2026-03-22T14:58:50.01Z</time></trkpt><trkpt lat="43.3851067" lon="10.9098083"><ele>407.0</ele><time>2026-03-22T14:58:51.011Z</time></trkpt><trkpt lat="43.3850783" lon="10.9099917"><ele>407.0</ele><time>2026-03-22T14:58:52.01Z</time></trkpt><trkpt lat="43.3850867" lon="10.91017"><ele>408.5</ele><time>2026-03-22T14:58:53.012Z</time></trkpt><trkpt lat="43.385125" lon="10.910335"><ele>410.0</ele><time>2026-03-22T14:58:54.01Z</time></trkpt><trkpt lat="43.3851917" lon="10.91048"><ele>411.5</ele><time>2026-03-22T14:58:55.01Z</time></trkpt><trkpt lat="43.3852867" lon="10.9106117"><ele>413.0</ele><time>2026-03-22T14:58:56.01Z</time></trkpt><trkpt lat="43.3854067" lon="10.9107533"><ele>411.66666666666663</ele><time>2026-03-22T14:58:57.008Z</time></trkpt><trkpt lat="43.385545" lon="10.9109083"><ele>410.33333333333337</ele><time>2026-03-22T14:58:58.008Z</time></trkpt><trkpt lat="43.3856883" lon="10.9110767"><ele>409.0</ele><time>2026-03-22T14:58:59.008Z</time></trkpt><trkpt lat="43.3858233" lon="10.9112667"><ele>409.0</ele><time>2026-03-22T14:59:00.01Z</time></trkpt><trkpt lat="43.3859517" lon="10.9115"><ele>409.0</ele><time>2026-03-22T14:59:01.009Z</time></trkpt><trkpt lat="43.3860883" lon="10.9117283"><ele>409.0</ele><time>2026-03-22T14:59:02.01Z</time></trkpt><trkpt lat="43.3862467" lon="10.9119467"><ele>407.0</ele><time>2026-03-22T14:59:03.009Z</time></trkpt><trkpt lat="43.3864267" lon="10.91215"><ele>405.0</ele><time>2026-03-22T14:59:04.01Z</time></trkpt><trkpt lat="43.3866067" lon="10.9123417"><ele>405.0</ele><time>2026-03-22T14:59:05.01Z</time></trkpt><trkpt lat="43.3867717" lon="10.9125133"><ele>405.0</ele><time>2026-03-22T14:59:06.01Z</time></trkpt><trkpt lat="43.3869183" lon="10.912685"><ele>405.0</ele><time>2026-03-22T14:59:07.01Z</time></trkpt><trkpt lat="43.3870367" lon="10.91286"><ele>405.33333333333337</ele><time>2026-03-22T14:59:08.01Z</time></trkpt><trkpt lat="43.3871317" lon="10.913055"><ele>405.6666666666667</ele><time>2026-03-22T14:59:09.011Z</time></trkpt><trkpt lat="43.387205" lon="10.91327"><ele>406.0</ele><time>2026-03-22T14:59:10.009Z</time></trkpt><trkpt lat="43.3872633" lon="10.91351"><ele>406.0</ele><time>2026-03-22T14:59:11.008Z</time></trkpt><trkpt lat="43.3873183" lon="10.9137517"><ele>406.0</ele><time>2026-03-22T14:59:12.011Z</time></trkpt><trkpt lat="43.3873867" lon="10.91397"><ele>406.0</ele><time>2026-03-22T14:59:13.01Z</time></trkpt><trkpt lat="43.3874617" lon="10.9141583"><ele>405.5</ele><time>2026-03-22T14:59:14.009Z</time></trkpt><trkpt lat="43.387525" lon="10.9143217"><ele>405.0</ele><time>2026-03-22T14:59:15.009Z</time></trkpt><trkpt lat="43.3875483" lon="10.914495"><ele>404.5</ele><time>2026-03-22T14:59:16.01Z</time></trkpt><trkpt lat="43.3875317" lon="10.9146917"><ele>404.0</ele><time>2026-03-22T14:59:17.01Z</time></trkpt><trkpt lat="43.3874867" lon="10.91491"><ele>400.66666666666663</ele><time>2026-03-22T14:59:18.01Z</time></trkpt><trkpt lat="43.3874133" lon="10.9151433"><ele>397.33333333333337</ele><time>2026-03-22T14:59:19.01Z</time></trkpt><trkpt lat="43.3873133" lon="10.9153767"><ele>394.0</ele><time>2026-03-22T14:59:20.01Z</time></trkpt><trkpt lat="43.3871933" lon="10.9156133"><ele>396.33333333333337</ele><time>2026-03-22T14:59:21.01Z</time></trkpt><trkpt lat="43.38707" lon="10.9158533"><ele>398.66666666666663</ele><time>2026-03-22T14:59:22.009Z</time></trkpt><trkpt lat="43.3869583" lon="10.9160717"><ele>401.0</ele><time>2026-03-22T14:59:23.013Z</time></trkpt><trkpt lat="43.38685" lon="10.9162967"><ele>401.0</ele><time>2026-03-22T14:59:24.011Z</time></trkpt><trkpt lat="43.3867683" lon="10.9165317"><ele>401.0</ele><time>2026-03-22T14:59:25.009Z</time></trkpt><trkpt lat="43.386725" lon="10.916755"><ele>401.0</ele><time>2026-03-22T14:59:26.009Z</time></trkpt><trkpt lat="43.3867083" lon="10.9169667"><ele>400.0</ele><time>2026-03-22T14:59:27.009Z</time></trkpt><trkpt lat="43.38673" lon="10.9171683"><ele>399.0</ele><time>2026-03-22T14:59:28.01Z</time></trkpt><trkpt lat="43.3867933" lon="10.91737"><ele>398.0</ele><time>2026-03-22T14:59:29.012Z</time></trkpt><trkpt lat="43.3869183" lon="10.9175467"><ele>397.0</ele><time>2026-03-22T14:59:30.01Z</time></trkpt><trkpt lat="43.3870667" lon="10.91773"><ele>396.0</ele><time>2026-03-22T14:59:31.009Z</time></trkpt><trkpt lat="43.3872067" lon="10.917915"><ele>395.0</ele><time>2026-03-22T14:59:32.01Z</time></trkpt><trkpt lat="43.387345" lon="10.918085"><ele>393.66666666666663</ele><time>2026-03-22T14:59:33.01Z</time></trkpt><trkpt lat="43.387475" lon="10.9182383"><ele>392.33333333333337</ele><time>2026-03-22T14:59:34.01Z</time></trkpt><trkpt lat="43.3875867" lon="10.918395"><ele>391.0</ele><time>2026-03-22T14:59:35.011Z</time></trkpt><trkpt lat="43.3876783" lon="10.9185767"><ele>389.6666666666667</ele><time>2026-03-22T14:59:36.009Z</time></trkpt><trkpt lat="43.38774" lon="10.918785"><ele>388.33333333333337</ele><time>2026-03-22T14:59:37.01Z</time></trkpt><trkpt lat="43.3877767" lon="10.9189883"><ele>387.0</ele><time>2026-03-22T14:59:38.012Z</time></trkpt><trkpt lat="43.3878" lon="10.91917"><ele>384.25</ele><time>2026-03-22T14:59:39.01Z</time></trkpt><trkpt lat="43.3877917" lon="10.9193333"><ele>381.5</ele><time>2026-03-22T14:59:40.01Z</time></trkpt><trkpt lat="43.3877433" lon="10.9194783"><ele>378.75</ele><time>2026-03-22T14:59:41.01Z</time></trkpt><trkpt lat="43.38765" lon="10.9196017"><ele>376.0</ele><time>2026-03-22T14:59:42.009Z</time></trkpt><trkpt lat="43.3875217" lon="10.9197133"><ele>376.0</ele><time>2026-03-22T14:59:43.01Z</time></trkpt><trkpt lat="43.3873667" lon="10.919825"><ele>376.0</ele><time>2026-03-22T14:59:44.01Z</time></trkpt><trkpt lat="43.3872033" lon="10.91991"><ele>376.0</ele><time>2026-03-22T14:59:45.009Z</time></trkpt><trkpt lat="43.387025" lon="10.919955"><ele>374.66666666666663</ele><time>2026-03-22T14:59:46.01Z</time></trkpt><trkpt lat="43.3868383" lon="10.9199533"><ele>373.3333333333333</ele><time>2026-03-22T14:59:47.01Z</time></trkpt><trkpt lat="43.3866467" lon="10.91991"><ele>372.0</ele><time>2026-03-22T14:59:48.01Z</time></trkpt><trkpt lat="43.3864717" lon="10.91983"><ele>369.3333333333333</ele><time>2026-03-22T14:59:49.009Z</time></trkpt><trkpt lat="43.3863117" lon="10.9197333"><ele>366.66666666666663</ele><time>2026-03-22T14:59:50.01Z</time></trkpt><trkpt lat="43.3861733" lon="10.9196"><ele>364.0</ele><time>2026-03-22T14:59:51.009Z</time></trkpt><trkpt lat="43.3860667" lon="10.9194583"><ele>364.0</ele><time>2026-03-22T14:59:52.009Z</time></trkpt><trkpt lat="43.3859683" lon="10.91934"><ele>364.0</ele><time>2026-03-22T14:59:53.009Z</time></trkpt><trkpt lat="43.38586" lon="10.9192783"><ele>364.0</ele><time>2026-03-22T14:59:54.01Z</time></trkpt><trkpt lat="43.385755" lon="10.919285"><ele>364.0</ele><time>2026-03-22T14:59:55.01Z</time></trkpt><trkpt lat="43.3856583" lon="10.9193583"><ele>364.0</ele><time>2026-03-22T14:59:56.011Z</time></trkpt><trkpt lat="43.3856067" lon="10.919515"><ele>364.0</ele><time>2026-03-22T14:59:57.01Z</time></trkpt><trkpt lat="43.3856167" lon="10.9197267"><ele>364.0</ele><time>2026-03-22T14:59:58.01Z</time></trkpt><trkpt lat="43.3856383" lon="10.9199667"><ele>361.3333333333333</ele><time>2026-03-22T14:59:59.012Z</time></trkpt><trkpt lat="43.3856567" lon="10.92023"><ele>358.6666666666667</ele><time>2026-03-22T15:00:00.011Z</time></trkpt><trkpt lat="43.3856433" lon="10.9205167"><ele>356.0</ele><time>2026-03-22T15:00:01.01Z</time></trkpt><trkpt lat="43.3856067" lon="10.9208133"><ele>354.0</ele><time>2026-03-22T15:00:02.01Z</time></trkpt><trkpt lat="43.3855583" lon="10.9210917"><ele>352.0</ele><time>2026-03-22T15:00:03.009Z</time></trkpt><trkpt lat="43.3854983" lon="10.92134"><ele>350.0</ele><time>2026-03-22T15:00:04.01Z</time></trkpt><trkpt lat="43.3854083" lon="10.9215617"><ele>349.6666666666667</ele><time>2026-03-22T15:00:05.01Z</time></trkpt><trkpt lat="43.3852683" lon="10.9217583"><ele>349.3333333333333</ele><time>2026-03-22T15:00:06.01Z</time></trkpt><trkpt lat="43.3850733" lon="10.9219633"><ele>349.0</ele><time>2026-03-22T15:00:07.01Z</time></trkpt><trkpt lat="43.3848867" lon="10.9221783"><ele>349.0</ele><time>2026-03-22T15:00:08.01Z</time></trkpt><trkpt lat="43.3847117" lon="10.922385"><ele>349.0</ele><time>2026-03-22T15:00:09.011Z</time></trkpt><trkpt lat="43.3845533" lon="10.92257"><ele>349.0</ele><time>2026-03-22T15:00:10.009Z</time></trkpt><trkpt lat="43.3844033" lon="10.92273"><ele>350.3333333333333</ele><time>2026-03-22T15:00:11.01Z</time></trkpt><trkpt lat="43.3842433" lon="10.922865"><ele>351.6666666666667</ele><time>2026-03-22T15:00:12.01Z</time></trkpt><trkpt lat="43.3840567" lon="10.922985"><ele>353.0</ele><time>2026-03-22T15:00:13.01Z</time></trkpt><trkpt lat="43.3838617" lon="10.9231167"><ele>353.0</ele><time>2026-03-22T15:00:14.01Z</time></trkpt><trkpt lat="43.3836683" lon="10.92327"><ele>353.0</ele><time>2026-03-22T15:00:15.01Z</time></trkpt><trkpt lat="43.383485" lon="10.92344"><ele>353.0</ele><time>2026-03-22T15:00:16.009Z</time></trkpt><trkpt lat="43.3833217" lon="10.9236367"><ele>352.0</ele><time>2026-03-22T15:00:17.01Z</time></trkpt><trkpt lat="43.383175" lon="10.92386"><ele>351.0</ele><time>2026-03-22T15:00:18.01Z</time></trkpt><trkpt lat="43.3830633" lon="10.9241117"><ele>350.0</ele><time>2026-03-22T15:00:19.012Z</time></trkpt><trkpt lat="43.3829883" lon="10.9243917"><ele>354.33333333333337</ele><time>2026-03-22T15:00:20.01Z</time></trkpt><trkpt lat="43.3829333" lon="10.9246833"><ele>358.6666666666667</ele><time>2026-03-22T15:00:21.009Z</time></trkpt><trkpt lat="43.3828817" lon="10.9249717"><ele>363.0</ele><time>2026-03-22T15:00:22.009Z</time></trkpt><trkpt lat="43.382835" lon="10.925235"><ele>364.0</ele><time>2026-03-22T15:00:23.009Z</time></trkpt><trkpt lat="43.3827783" lon="10.925465"><ele>365.0</ele><time>2026-03-22T15:00:24.01Z</time></trkpt><trkpt lat="43.382705" lon="10.9256767"><ele>366.0</ele><time>2026-03-22T15:00:25.01Z</time></trkpt><trkpt lat="43.3826133" lon="10.925875"><ele>364.0</ele><time>2026-03-22T15:00:26.008Z</time></trkpt><trkpt lat="43.3825117" lon="10.9260667"><ele>362.0</ele><time>2026-03-22T15:00:27.01Z</time></trkpt><trkpt lat="43.3824133" lon="10.926265"><ele>360.0</ele><time>2026-03-22T15:00:28.01Z</time></trkpt><trkpt lat="43.3823483" lon="10.9264833"><ele>360.0</ele><time>2026-03-22T15:00:29.01Z</time></trkpt><trkpt lat="43.3823083" lon="10.926715"><ele>360.0</ele><time>2026-03-22T15:00:30.009Z</time></trkpt><trkpt lat="43.3822883" lon="10.9269583"><ele>360.0</ele><time>2026-03-22T15:00:31.01Z</time></trkpt><trkpt lat="43.382295" lon="10.9272117"><ele>361.0</ele><time>2026-03-22T15:00:32.01Z</time></trkpt><trkpt lat="43.3823367" lon="10.92746"><ele>362.0</ele><time>2026-03-22T15:00:33.01Z</time></trkpt><trkpt lat="43.3824017" lon="10.9277067"><ele>363.0</ele><time>2026-03-22T15:00:34.009Z</time></trkpt><trkpt lat="43.382485" lon="10.9279333"><ele>363.0</ele><time>2026-03-22T15:00:35.011Z</time></trkpt><trkpt lat="43.38256" lon="10.9281417"><ele>363.0</ele><time>2026-03-22T15:00:36.01Z</time></trkpt><trkpt lat="43.382615" lon="10.9283633"><ele>363.0</ele><time>2026-03-22T15:00:37.01Z</time></trkpt><trkpt lat="43.3826433" lon="10.928605"><ele>363.0</ele><time>2026-03-22T15:00:38.011Z</time></trkpt><trkpt lat="43.38266" lon="10.9288633"><ele>363.0</ele><time>2026-03-22T15:00:39.01Z</time></trkpt><trkpt lat="43.3826717" lon="10.9291333"><ele>363.0</ele><time>2026-03-22T15:00:40.01Z</time></trkpt><trkpt lat="43.3826783" lon="10.9294167"><ele>359.6666666666667</ele><time>2026-03-22T15:00:41.01Z</time></trkpt><trkpt lat="43.38267" lon="10.9297017"><ele>356.33333333333337</ele><time>2026-03-22T15:00:42.01Z</time></trkpt><trkpt lat="43.3826333" lon="10.92998"><ele>353.0</ele><time>2026-03-22T15:00:43.008Z</time></trkpt><trkpt lat="43.3825633" lon="10.930245"><ele>350.33333333333337</ele><time>2026-03-22T15:00:44.01Z</time></trkpt><trkpt lat="43.38246" lon="10.9304967"><ele>347.6666666666667</ele><time>2026-03-22T15:00:45.01Z</time></trkpt><trkpt lat="43.3823383" lon="10.93074"><ele>345.0</ele><time>2026-03-22T15:00:46.009Z</time></trkpt><trkpt lat="43.3822117" lon="10.9309867"><ele>343.3333333333333</ele><time>2026-03-22T15:00:47.009Z</time></trkpt><trkpt lat="43.3821067" lon="10.9312483"><ele>341.66666666666663</ele><time>2026-03-22T15:00:48.009Z</time></trkpt><trkpt lat="43.3820283" lon="10.9315283"><ele>340.0</ele><time>2026-03-22T15:00:49.01Z</time></trkpt><trkpt lat="43.382005" lon="10.931835"><ele>338.66666666666663</ele><time>2026-03-22T15:00:50.01Z</time></trkpt><trkpt lat="43.3820217" lon="10.9321417"><ele>337.3333333333333</ele><time>2026-03-22T15:00:51.009Z</time></trkpt><trkpt lat="43.382075" lon="10.9324383"><ele>336.0</ele><time>2026-03-22T15:00:52.011Z</time></trkpt><trkpt lat="43.3821533" lon="10.9327333"><ele>339.0</ele><time>2026-03-22T15:00:53.008Z</time></trkpt><trkpt lat="43.3822517" lon="10.9330217"><ele>342.0</ele><time>2026-03-22T15:00:54.009Z</time></trkpt><trkpt lat="43.3823617" lon="10.9332983"><ele>343.0</ele><time>2026-03-22T15:00:55.009Z</time></trkpt><trkpt lat="43.38247" lon="10.93358"><ele>344.0</ele><time>2026-03-22T15:00:56.009Z</time></trkpt><trkpt lat="43.3825667" lon="10.9338617"><ele>344.0</ele><time>2026-03-22T15:00:57.009Z</time></trkpt><trkpt lat="43.382645" lon="10.9341433"><ele>344.0</ele><time>2026-03-22T15:00:58.01Z</time></trkpt><trkpt lat="43.3827017" lon="10.9344333"><ele>344.0</ele><time>2026-03-22T15:00:59.01Z</time></trkpt><trkpt lat="43.3827417" lon="10.9347317"><ele>343.5</ele><time>2026-03-22T15:01:00.01Z</time></trkpt><trkpt lat="43.3827817" lon="10.9350333"><ele>343.0</ele><time>2026-03-22T15:01:01.009Z</time></trkpt><trkpt lat="43.382845" lon="10.9353333"><ele>343.0</ele><time>2026-03-22T15:01:02.01Z</time></trkpt><trkpt lat="43.3829333" lon="10.9356233"><ele>343.0</ele><time>2026-03-22T15:01:03.01Z</time></trkpt><trkpt lat="43.3830367" lon="10.9359083"><ele>344.0</ele><time>2026-03-22T15:01:04.01Z</time></trkpt><trkpt lat="43.383165" lon="10.9361817"><ele>345.0</ele><time>2026-03-22T15:01:05.01Z</time></trkpt><trkpt lat="43.3833083" lon="10.9364367"><ele>345.0</ele><time>2026-03-22T15:01:06.009Z</time></trkpt><trkpt lat="43.3834633" lon="10.9366783"><ele>345.0</ele><time>2026-03-22T15:01:07.01Z</time></trkpt><trkpt lat="43.3836267" lon="10.9369067"><ele>346.0</ele><time>2026-03-22T15:01:08.01Z</time></trkpt><trkpt lat="43.3838" lon="10.9371233"><ele>347.0</ele><time>2026-03-22T15:01:09.01Z</time></trkpt><trkpt lat="43.3839733" lon="10.937325"><ele>351.0</ele><time>2026-03-22T15:01:10.01Z</time></trkpt><trkpt lat="43.3841483" lon="10.9375317"><ele>355.0</ele><time>2026-03-22T15:01:11.009Z</time></trkpt><trkpt lat="43.3843233" lon="10.9377333"><ele>358.0</ele><time>2026-03-22T15:01:12.009Z</time></trkpt><trkpt lat="43.384495" lon="10.9379317"><ele>361.0</ele><time>2026-03-22T15:01:13.01Z</time></trkpt><trkpt lat="43.384665" lon="10.9381367"><ele>361.0</ele><time>2026-03-22T15:01:14.01Z</time></trkpt><trkpt lat="43.3848367" lon="10.9383417"><ele>361.0</ele><time>2026-03-22T15:01:15.01Z</time></trkpt><trkpt lat="43.38501" lon="10.9385433"><ele>364.5</ele><time>2026-03-22T15:01:16.009Z</time></trkpt><trkpt lat="43.3851833" lon="10.9387417"><ele>368.0</ele><time>2026-03-22T15:01:17.009Z</time></trkpt><trkpt lat="43.385355" lon="10.9389417"><ele>367.0</ele><time>2026-03-22T15:01:18.009Z</time></trkpt><trkpt lat="43.3855217" lon="10.9391483"><ele>366.0</ele><time>2026-03-22T15:01:19.009Z</time></trkpt><trkpt lat="43.3856867" lon="10.9393617"><ele>368.5</ele><time>2026-03-22T15:01:20.009Z</time></trkpt><trkpt lat="43.3858467" lon="10.9395867"><ele>371.0</ele><time>2026-03-22T15:01:21.01Z</time></trkpt><trkpt lat="43.3859967" lon="10.93982"><ele>367.5</ele><time>2026-03-22T15:01:22.008Z</time></trkpt><trkpt lat="43.3861417" lon="10.940065"><ele>364.0</ele><time>2026-03-22T15:01:23.009Z</time></trkpt><trkpt lat="43.3862833" lon="10.9403167"><ele>371.5</ele><time>2026-03-22T15:01:24.009Z</time></trkpt><trkpt lat="43.3864167" lon="10.9405833"><ele>379.0</ele><time>2026-03-22T15:01:25.01Z</time></trkpt><trkpt lat="43.3865467" lon="10.94085"><ele>375.0</ele><time>2026-03-22T15:01:26.011Z</time></trkpt><trkpt lat="43.3866783" lon="10.9411167"><ele>371.0</ele><time>2026-03-22T15:01:27.01Z</time></trkpt><trkpt lat="43.3868133" lon="10.94138"><ele>371.0</ele><time>2026-03-22T15:01:28.01Z</time></trkpt><trkpt lat="43.3869517" lon="10.9416433"><ele>371.0</ele><time>2026-03-22T15:01:29.01Z</time></trkpt><trkpt lat="43.3870867" lon="10.9419067"><ele>377.5</ele><time>2026-03-22T15:01:30.009Z</time></trkpt><trkpt lat="43.3872117" lon="10.9421717"><ele>384.0</ele><time>2026-03-22T15:01:31.01Z</time></trkpt><trkpt lat="43.3873317" lon="10.9424467"><ele>382.0</ele><time>2026-03-22T15:01:32.01Z</time></trkpt><trkpt lat="43.387445" lon="10.942735"><ele>380.0</ele><time>2026-03-22T15:01:33.01Z</time></trkpt><trkpt lat="43.3875467" lon="10.9430317"><ele>380.0</ele><time>2026-03-22T15:01:34.01Z</time></trkpt><trkpt lat="43.3876333" lon="10.9433333"><ele>380.0</ele><time>2026-03-22T15:01:35.01Z</time></trkpt><trkpt lat="43.3877117" lon="10.943635"><ele>379.5</ele><time>2026-03-22T15:01:36.01Z</time></trkpt><trkpt lat="43.3877833" lon="10.9439333"><ele>379.0</ele><time>2026-03-22T15:01:37.011Z</time></trkpt><trkpt lat="43.387855" lon="10.94423"><ele>378.5</ele><time>2026-03-22T15:01:38.011Z</time></trkpt><trkpt lat="43.38792" lon="10.9445283"><ele>378.0</ele><time>2026-03-22T15:01:39.011Z</time></trkpt><trkpt lat="43.3879817" lon="10.944825"><ele>385.5</ele><time>2026-03-22T15:01:40.01Z</time></trkpt><trkpt lat="43.3880467" lon="10.9451233"><ele>393.0</ele><time>2026-03-22T15:01:41.011Z</time></trkpt><trkpt lat="43.3881117" lon="10.9454267"><ele>393.0</ele><time>2026-03-22T15:01:42.01Z</time></trkpt><trkpt lat="43.3881783" lon="10.9457217"><ele>393.0</ele><time>2026-03-22T15:01:43.011Z</time></trkpt><trkpt lat="43.3882483" lon="10.9460233"><ele>395.0</ele><time>2026-03-22T15:01:44.01Z</time></trkpt><trkpt lat="43.3883183" lon="10.9463233"><ele>397.0</ele><time>2026-03-22T15:01:45.011Z</time></trkpt><trkpt lat="43.3883883" lon="10.9466267"><ele>397.5</ele><time>2026-03-22T15:01:46.01Z</time></trkpt><trkpt lat="43.3884517" lon="10.9469367"><ele>398.0</ele><time>2026-03-22T15:01:47.01Z</time></trkpt><trkpt lat="43.3885217" lon="10.9472433"><ele>396.0</ele><time>2026-03-22T15:01:48.01Z</time></trkpt><trkpt lat="43.3885917" lon="10.9475517"><ele>394.0</ele><time>2026-03-22T15:01:49.011Z</time></trkpt><trkpt lat="43.388665" lon="10.9478633"><ele>394.0</ele><time>2026-03-22T15:01:50.011Z</time></trkpt><trkpt lat="43.388735" lon="10.9481783"><ele>394.0</ele><time>2026-03-22T15:01:51.01Z</time></trkpt><trkpt lat="43.388805" lon="10.9484883"><ele>399.0</ele><time>2026-03-22T15:01:52.01Z</time></trkpt><trkpt lat="43.3888783" lon="10.9487983"><ele>404.0</ele><time>2026-03-22T15:01:53.01Z</time></trkpt><trkpt lat="43.38895" lon="10.949105"><ele>406.5</ele><time>2026-03-22T15:01:54.011Z</time></trkpt><trkpt lat="43.389025" lon="10.94941"><ele>409.0</ele><time>2026-03-22T15:01:55.011Z</time></trkpt><trkpt lat="43.3891117" lon="10.9497167"><ele>409.0</ele><time>2026-03-22T15:01:56.011Z</time></trkpt><trkpt lat="43.3892117" lon="10.9500117"><ele>409.0</ele><time>2026-03-22T15:01:57.011Z</time></trkpt><trkpt lat="43.3893233" lon="10.9503"><ele>413.5</ele><time>2026-03-22T15:01:58.011Z</time></trkpt><trkpt lat="43.389445" lon="10.950575"><ele>418.0</ele><time>2026-03-22T15:01:59.009Z</time></trkpt><trkpt lat="43.3895733" lon="10.9508383"><ele>417.33333333333337</ele><time>2026-03-22T15:02:00.011Z</time></trkpt><trkpt lat="43.3897117" lon="10.9510817"><ele>416.66666666666663</ele><time>2026-03-22T15:02:01.01Z</time></trkpt><trkpt lat="43.389855" lon="10.9513133"><ele>416.0</ele><time>2026-03-22T15:02:02.01Z</time></trkpt><trkpt lat="43.39" lon="10.951535"><ele>415.66666666666663</ele><time>2026-03-22T15:02:03.01Z</time></trkpt><trkpt lat="43.3901533" lon="10.951755"><ele>415.33333333333337</ele><time>2026-03-22T15:02:04.009Z</time></trkpt><trkpt lat="43.3903083" lon="10.951975"><ele>415.0</ele><time>2026-03-22T15:02:05.011Z</time></trkpt><trkpt lat="43.390465" lon="10.95219"><ele>416.6666666666667</ele><time>2026-03-22T15:02:06.01Z</time></trkpt><trkpt lat="43.390625" lon="10.9524067"><ele>418.33333333333337</ele><time>2026-03-22T15:02:07.012Z</time></trkpt><trkpt lat="43.390785" lon="10.952615"><ele>420.0</ele><time>2026-03-22T15:02:08.012Z</time></trkpt><trkpt lat="43.390955" lon="10.95282"><ele>422.5</ele><time>2026-03-22T15:02:09.01Z</time></trkpt><trkpt lat="43.3911283" lon="10.9530183"><ele>425.0</ele><time>2026-03-22T15:02:10.01Z</time></trkpt><trkpt lat="43.3913017" lon="10.953215"><ele>427.0</ele><time>2026-03-22T15:02:11.01Z</time></trkpt><trkpt lat="43.39148" lon="10.9534017"><ele>429.0</ele><time>2026-03-22T15:02:12.01Z</time></trkpt><trkpt lat="43.3916633" lon="10.9535717"><ele>431.0</ele><time>2026-03-22T15:02:13.01Z</time></trkpt><trkpt lat="43.391855" lon="10.953735"><ele>431.0</ele><time>2026-03-22T15:02:14.011Z</time></trkpt><trkpt lat="43.39205" lon="10.9538883"><ele>431.0</ele><time>2026-03-22T15:02:15.009Z</time></trkpt><trkpt lat="43.3922533" lon="10.95403"><ele>428.0</ele><time>2026-03-22T15:02:16.012Z</time></trkpt><trkpt lat="43.3924583" lon="10.95417"><ele>425.0</ele><time>2026-03-22T15:02:17.01Z</time></trkpt><trkpt lat="43.3926633" lon="10.9542967"><ele>428.5</ele><time>2026-03-22T15:02:18.011Z</time></trkpt><trkpt lat="43.3928667" lon="10.9544317"><ele>432.0</ele><time>2026-03-22T15:02:19.01Z</time></trkpt><trkpt lat="43.3930733" lon="10.9545583"><ele>432.0</ele><time>2026-03-22T15:02:20.011Z</time></trkpt><trkpt lat="43.3932783" lon="10.954685"><ele>432.0</ele><time>2026-03-22T15:02:21.011Z</time></trkpt><trkpt lat="43.39348" lon="10.95481"><ele>432.0</ele><time>2026-03-22T15:02:22.008Z</time></trkpt><trkpt lat="43.3936833" lon="10.9549517"><ele>431.0</ele><time>2026-03-22T15:02:23.013Z</time></trkpt><trkpt lat="43.3938733" lon="10.9551033"><ele>430.0</ele><time>2026-03-22T15:02:24.011Z</time></trkpt><trkpt lat="43.3940533" lon="10.955275"><ele>429.0</ele><time>2026-03-22T15:02:25.011Z</time></trkpt><trkpt lat="43.3942267" lon="10.9554667"><ele>429.0</ele><time>2026-03-22T15:02:26.013Z</time></trkpt><trkpt lat="43.39438" lon="10.95567"><ele>429.0</ele><time>2026-03-22T15:02:27.01Z</time></trkpt><trkpt lat="43.39452" lon="10.9558833"><ele>429.0</ele><time>2026-03-22T15:02:28.01Z</time></trkpt><trkpt lat="43.3946433" lon="10.95611"><ele>426.66666666666663</ele><time>2026-03-22T15:02:29.01Z</time></trkpt><trkpt lat="43.394755" lon="10.9563467"><ele>424.3333333333333</ele><time>2026-03-22T15:02:30.01Z</time></trkpt><trkpt lat="43.3948583" lon="10.9566033"><ele>422.0</ele><time>2026-03-22T15:02:31.01Z</time></trkpt><trkpt lat="43.3949533" lon="10.9568717"><ele>422.0</ele><time>2026-03-22T15:02:32.011Z</time></trkpt><trkpt lat="43.3950467" lon="10.9571433"><ele>422.0</ele><time>2026-03-22T15:02:33.011Z</time></trkpt><trkpt lat="43.3951433" lon="10.9574217"><ele>422.0</ele><time>2026-03-22T15:02:34.011Z</time></trkpt><trkpt lat="43.3952483" lon="10.9577"><ele>423.5</ele><time>2026-03-22T15:02:35.01Z</time></trkpt><trkpt lat="43.3953567" lon="10.9579817"><ele>425.0</ele><time>2026-03-22T15:02:36.01Z</time></trkpt><trkpt lat="43.3954667" lon="10.9582683"><ele>416.0</ele><time>2026-03-22T15:02:37.011Z</time></trkpt><trkpt lat="43.3955733" lon="10.9585583"><ele>407.0</ele><time>2026-03-22T15:02:38.011Z</time></trkpt><trkpt lat="43.3956817" lon="10.95885"><ele>407.0</ele><time>2026-03-22T15:02:39.012Z</time></trkpt><trkpt lat="43.395795" lon="10.9591333"><ele>407.0</ele><time>2026-03-22T15:02:40.01Z</time></trkpt><trkpt lat="43.3959183" lon="10.9594117"><ele>407.5</ele><time>2026-03-22T15:02:41.01Z</time></trkpt><trkpt lat="43.396045" lon="10.9596867"><ele>408.0</ele><time>2026-03-22T15:02:42.01Z</time></trkpt><trkpt lat="43.396185" lon="10.9599483"><ele>407.5</ele><time>2026-03-22T15:02:43.011Z</time></trkpt><trkpt lat="43.3963367" lon="10.9601933"><ele>407.0</ele><time>2026-03-22T15:02:44.011Z</time></trkpt><trkpt lat="43.3965" lon="10.960425"><ele>407.0</ele><time>2026-03-22T15:02:45.011Z</time></trkpt><trkpt lat="43.3966617" lon="10.9606483"><ele>407.0</ele><time>2026-03-22T15:02:46.013Z</time></trkpt><trkpt lat="43.3968333" lon="10.960865"><ele>406.5</ele><time>2026-03-22T15:02:47.011Z</time></trkpt><trkpt lat="43.3970117" lon="10.9610817"><ele>406.0</ele><time>2026-03-22T15:02:48.01Z</time></trkpt><trkpt lat="43.3971867" lon="10.9612967"><ele>409.0</ele><time>2026-03-22T15:02:49.011Z</time></trkpt><trkpt lat="43.3973567" lon="10.9615083"><ele>412.0</ele><time>2026-03-22T15:02:50.012Z</time></trkpt><trkpt lat="43.3975233" lon="10.9617183"><ele>413.5</ele><time>2026-03-22T15:02:51.011Z</time></trkpt><trkpt lat="43.3976917" lon="10.9619267"><ele>415.0</ele><time>2026-03-22T15:02:52.012Z</time></trkpt><trkpt lat="43.39786" lon="10.9621383"><ele>415.0</ele><time>2026-03-22T15:02:53.01Z</time></trkpt><trkpt lat="43.39803" lon="10.9623517"><ele>415.0</ele><time>2026-03-22T15:02:54.011Z</time></trkpt><trkpt lat="43.3981967" lon="10.9625633"><ele>415.0</ele><time>2026-03-22T15:02:55.01Z</time></trkpt><trkpt lat="43.3983667" lon="10.9627767"><ele>415.0</ele><time>2026-03-22T15:02:56.011Z</time></trkpt><trkpt lat="43.3985383" lon="10.9629867"><ele>415.0</ele><time>2026-03-22T15:02:57.01Z</time></trkpt><trkpt lat="43.39871" lon="10.9632"><ele>415.0</ele><time>2026-03-22T15:02:58.01Z</time></trkpt><trkpt lat="43.3988833" lon="10.9634233"><ele>417.0</ele><time>2026-03-22T15:02:59.01Z</time></trkpt><trkpt lat="43.39905" lon="10.96364"><ele>419.0</ele><time>2026-03-22T15:03:00.01Z</time></trkpt><trkpt lat="43.3992183" lon="10.9638533"><ele>419.0</ele><time>2026-03-22T15:03:01.012Z</time></trkpt><trkpt lat="43.39938" lon="10.9640783"><ele>419.0</ele><time>2026-03-22T15:03:02.01Z</time></trkpt><trkpt lat="43.399535" lon="10.9643033"><ele>419.0</ele><time>2026-03-22T15:03:03.01Z</time></trkpt><trkpt lat="43.39968" lon="10.9645367"><ele>419.0</ele><time>2026-03-22T15:03:04.011Z</time></trkpt><trkpt lat="43.39982" lon="10.964775"><ele>419.0</ele><time>2026-03-22T15:03:05.011Z</time></trkpt><trkpt lat="43.3999517" lon="10.96502"><ele>420.3333333333333</ele><time>2026-03-22T15:03:06.011Z</time></trkpt><trkpt lat="43.4000767" lon="10.9652717"><ele>421.66666666666663</ele><time>2026-03-22T15:03:07.01Z</time></trkpt><trkpt lat="43.4001983" lon="10.9655283"><ele>423.0</ele><time>2026-03-22T15:03:08.012Z</time></trkpt><trkpt lat="43.40032" lon="10.9657833"><ele>424.5</ele><time>2026-03-22T15:03:09.01Z</time></trkpt><trkpt lat="43.4004417" lon="10.96604"><ele>426.0</ele><time>2026-03-22T15:03:10.01Z</time></trkpt><trkpt lat="43.400565" lon="10.9663117"><ele>426.5</ele><time>2026-03-22T15:03:11.01Z</time></trkpt><trkpt lat="43.40068" lon="10.9665767"><ele>427.0</ele><time>2026-03-22T15:03:12.01Z</time></trkpt><trkpt lat="43.400795" lon="10.96685"><ele>428.5</ele><time>2026-03-22T15:03:13.01Z</time></trkpt><trkpt lat="43.4009033" lon="10.9671367"><ele>430.0</ele><time>2026-03-22T15:03:14.01Z</time></trkpt><trkpt lat="43.401005" lon="10.9674283"><ele>431.0</ele><time>2026-03-22T15:03:15.01Z</time></trkpt><trkpt lat="43.40111" lon="10.967725"><ele>432.0</ele><time>2026-03-22T15:03:16.009Z</time></trkpt><trkpt lat="43.4012167" lon="10.968025"><ele>432.0</ele><time>2026-03-22T15:03:17.01Z</time></trkpt><trkpt lat="43.4013217" lon="10.968325"><ele>432.0</ele><time>2026-03-22T15:03:18.011Z</time></trkpt><trkpt lat="43.4014233" lon="10.9686317"><ele>436.5</ele><time>2026-03-22T15:03:19.012Z</time></trkpt><trkpt lat="43.4015283" lon="10.9689417"><ele>441.0</ele><time>2026-03-22T15:03:20.011Z</time></trkpt><trkpt lat="43.4016383" lon="10.969245"><ele>443.5</ele><time>2026-03-22T15:03:21.011Z</time></trkpt><trkpt lat="43.4017533" lon="10.969545"><ele>446.0</ele><time>2026-03-22T15:03:22.011Z</time></trkpt><trkpt lat="43.4018717" lon="10.96984"><ele>444.5</ele><time>2026-03-22T15:03:23.012Z</time></trkpt><trkpt lat="43.402005" lon="10.970125"><ele>443.0</ele><time>2026-03-22T15:03:24.01Z</time></trkpt><trkpt lat="43.402145" lon="10.9703967"><ele>445.0</ele><time>2026-03-22T15:03:25.012Z</time></trkpt><trkpt lat="43.4022917" lon="10.9706617"><ele>447.0</ele><time>2026-03-22T15:03:26.011Z</time></trkpt><trkpt lat="43.4024417" lon="10.970925"><ele>452.0</ele><time>2026-03-22T15:03:27.013Z</time></trkpt><trkpt lat="43.4025933" lon="10.97119"><ele>457.0</ele><time>2026-03-22T15:03:28.012Z</time></trkpt><trkpt lat="43.40274" lon="10.9714567"><ele>458.0</ele><time>2026-03-22T15:03:29.01Z</time></trkpt><trkpt lat="43.40288" lon="10.9717217"><ele>459.0</ele><time>2026-03-22T15:03:30.01Z</time></trkpt><trkpt lat="43.4030117" lon="10.97199"><ele>459.0</ele><time>2026-03-22T15:03:31.01Z</time></trkpt><trkpt lat="43.4031333" lon="10.9722583"><ele>459.0</ele><time>2026-03-22T15:03:32.012Z</time></trkpt><trkpt lat="43.40325" lon="10.9725217"><ele>460.66666666666663</ele><time>2026-03-22T15:03:33.011Z</time></trkpt><trkpt lat="43.4033617" lon="10.9727733"><ele>462.3333333333333</ele><time>2026-03-22T15:03:34.011Z</time></trkpt><trkpt lat="43.4034583" lon="10.9730017"><ele>464.0</ele><time>2026-03-22T15:03:35.011Z</time></trkpt><trkpt lat="43.4035483" lon="10.97321"><ele>462.66666666666663</ele><time>2026-03-22T15:03:36.012Z</time></trkpt><trkpt lat="43.4036333" lon="10.9734017"><ele>461.33333333333337</ele><time>2026-03-22T15:03:37.011Z</time></trkpt><trkpt lat="43.403715" lon="10.9735867"><ele>460.0</ele><time>2026-03-22T15:03:38.01Z</time></trkpt><trkpt lat="43.403795" lon="10.9737667"><ele>461.25</ele><time>2026-03-22T15:03:39.009Z</time></trkpt><trkpt lat="43.4038733" lon="10.97394"><ele>462.5</ele><time>2026-03-22T15:03:40.01Z</time></trkpt><trkpt lat="43.403945" lon="10.9741083"><ele>463.75</ele><time>2026-03-22T15:03:41.011Z</time></trkpt><trkpt lat="43.4040117" lon="10.9742667"><ele>465.0</ele><time>2026-03-22T15:03:42.01Z</time></trkpt><trkpt lat="43.4040667" lon="10.97441"><ele>465.8333333333333</ele><time>2026-03-22T15:03:43.012Z</time></trkpt><trkpt lat="43.4041067" lon="10.9745383"><ele>466.66666666666663</ele><time>2026-03-22T15:03:44.012Z</time></trkpt><trkpt lat="43.4041433" lon="10.97465"><ele>467.5</ele><time>2026-03-22T15:03:45.012Z</time></trkpt><trkpt lat="43.40419" lon="10.97474"><ele>468.3333333333333</ele><time>2026-03-22T15:03:46.01Z</time></trkpt><trkpt lat="43.4042483" lon="10.97481"><ele>469.16666666666663</ele><time>2026-03-22T15:03:47.012Z</time></trkpt><trkpt lat="43.4043333" lon="10.9748267"><ele>470.0</ele><time>2026-03-22T15:03:48.01Z</time></trkpt><trkpt lat="43.4044283" lon="10.9748133"><ele>470.0</ele><time>2026-03-22T15:03:49.011Z</time></trkpt><trkpt lat="43.4045617" lon="10.9747817"><ele>470.0</ele><time>2026-03-22T15:03:50.011Z</time></trkpt><trkpt lat="43.4047067" lon="10.9747383"><ele>470.0</ele><time>2026-03-22T15:03:51.011Z</time></trkpt><trkpt lat="43.4048567" lon="10.97467"><ele>470.0</ele><time>2026-03-22T15:03:52.01Z</time></trkpt><trkpt lat="43.404995" lon="10.9745667"><ele>472.0</ele><time>2026-03-22T15:03:53.012Z</time></trkpt><trkpt lat="43.405125" lon="10.9744767"><ele>474.0</ele><time>2026-03-22T15:03:54.01Z</time></trkpt><trkpt lat="43.40525" lon="10.9744333"><ele>476.0</ele><time>2026-03-22T15:03:55.014Z</time></trkpt><trkpt lat="43.4053717" lon="10.974455"><ele>478.0</ele><time>2026-03-22T15:03:56.011Z</time></trkpt><trkpt lat="43.4055017" lon="10.9745267"><ele>478.0</ele><time>2026-03-22T15:03:57.01Z</time></trkpt><trkpt lat="43.40565" lon="10.9746467"><ele>478.0</ele><time>2026-03-22T15:03:58.011Z</time></trkpt><trkpt lat="43.4058167" lon="10.97478"><ele>478.0</ele><time>2026-03-22T15:03:59.011Z</time></trkpt><trkpt lat="43.4059967" lon="10.9749067"><ele>479.6666666666667</ele><time>2026-03-22T15:04:00.012Z</time></trkpt><trkpt lat="43.4061833" lon="10.9750333"><ele>481.33333333333337</ele><time>2026-03-22T15:04:01.01Z</time></trkpt><trkpt lat="43.4063767" lon="10.9751583"><ele>483.0</ele><time>2026-03-22T15:04:02.01Z</time></trkpt><trkpt lat="43.4065733" lon="10.975275"><ele>483.0</ele><time>2026-03-22T15:04:03.012Z</time></trkpt><trkpt lat="43.4067633" lon="10.9753917"><ele>483.0</ele><time>2026-03-22T15:04:04.011Z</time></trkpt><trkpt lat="43.406955" lon="10.9755283"><ele>483.0</ele><time>2026-03-22T15:04:05.011Z</time></trkpt><trkpt lat="43.4071417" lon="10.9756683"><ele>482.66666666666663</ele><time>2026-03-22T15:04:06.01Z</time></trkpt><trkpt lat="43.4073333" lon="10.9758067"><ele>482.3333333333333</ele><time>2026-03-22T15:04:07.009Z</time></trkpt><trkpt lat="43.407525" lon="10.9759417"><ele>482.0</ele><time>2026-03-22T15:04:08.011Z</time></trkpt><trkpt lat="43.407715" lon="10.976055"><ele>484.66666666666663</ele><time>2026-03-22T15:04:09.011Z</time></trkpt><trkpt lat="43.40789" lon="10.9761567"><ele>487.33333333333337</ele><time>2026-03-22T15:04:10.011Z</time></trkpt><trkpt lat="43.4080583" lon="10.9762733"><ele>490.0</ele><time>2026-03-22T15:04:11.01Z</time></trkpt><trkpt lat="43.408215" lon="10.976425"><ele>490.0</ele><time>2026-03-22T15:04:12.01Z</time></trkpt><trkpt lat="43.4083533" lon="10.9766033"><ele>490.0</ele><time>2026-03-22T15:04:13.01Z</time></trkpt><trkpt lat="43.4084783" lon="10.976775"><ele>490.0</ele><time>2026-03-22T15:04:14.011Z</time></trkpt><trkpt lat="43.40859" lon="10.9769167"><ele>492.5</ele><time>2026-03-22T15:04:15.01Z</time></trkpt><trkpt lat="43.40871" lon="10.9770083"><ele>495.0</ele><time>2026-03-22T15:04:16.01Z</time></trkpt><trkpt lat="43.4088433" lon="10.9770367"><ele>497.5</ele><time>2026-03-22T15:04:17.01Z</time></trkpt><trkpt lat="43.408985" lon="10.97701"><ele>500.0</ele><time>2026-03-22T15:04:18.011Z</time></trkpt><trkpt lat="43.4091333" lon="10.97698"><ele>500.3333333333333</ele><time>2026-03-22T15:04:19.01Z</time></trkpt><trkpt lat="43.4093033" lon="10.9769983"><ele>500.66666666666663</ele><time>2026-03-22T15:04:20.011Z</time></trkpt><trkpt lat="43.4094733" lon="10.977045"><ele>501.0</ele><time>2026-03-22T15:04:21.011Z</time></trkpt><trkpt lat="43.4096333" lon="10.9771267"><ele>500.0</ele><time>2026-03-22T15:04:22.01Z</time></trkpt><trkpt lat="43.4097667" lon="10.97723"><ele>499.0</ele><time>2026-03-22T15:04:23.011Z</time></trkpt><trkpt lat="43.40987" lon="10.97737"><ele>498.0</ele><time>2026-03-22T15:04:24.01Z</time></trkpt><trkpt lat="43.409955" lon="10.977555"><ele>500.0</ele><time>2026-03-22T15:04:25.009Z</time></trkpt><trkpt lat="43.4100383" lon="10.9777583"><ele>502.0</ele><time>2026-03-22T15:04:26.01Z</time></trkpt><trkpt lat="43.4101317" lon="10.9779483"><ele>504.0</ele><time>2026-03-22T15:04:27.011Z</time></trkpt><trkpt lat="43.410235" lon="10.9781"><ele>504.0</ele><time>2026-03-22T15:04:28.01Z</time></trkpt><trkpt lat="43.410345" lon="10.978215"><ele>504.0</ele><time>2026-03-22T15:04:29.01Z</time></trkpt><trkpt lat="43.4104733" lon="10.97826"><ele>504.0</ele><time>2026-03-22T15:04:30.01Z</time></trkpt><trkpt lat="43.41061" lon="10.9782467"><ele>504.0</ele><time>2026-03-22T15:04:31.01Z</time></trkpt><trkpt lat="43.410745" lon="10.97816"><ele>506.33333333333337</ele><time>2026-03-22T15:04:32.01Z</time></trkpt><trkpt lat="43.4108683" lon="10.9780167"><ele>508.6666666666667</ele><time>2026-03-22T15:04:33.01Z</time></trkpt><trkpt lat="43.41099" lon="10.977855"><ele>511.0</ele><time>2026-03-22T15:04:34.012Z</time></trkpt><trkpt lat="43.4111083" lon="10.977695"><ele>511.0</ele><time>2026-03-22T15:04:35.01Z</time></trkpt><trkpt lat="43.4112267" lon="10.9775433"><ele>511.0</ele><time>2026-03-22T15:04:36.012Z</time></trkpt><trkpt lat="43.4113367" lon="10.97742"><ele>511.0</ele><time>2026-03-22T15:04:37.011Z</time></trkpt><trkpt lat="43.4114517" lon="10.9773317"><ele>511.0</ele><time>2026-03-22T15:04:38.011Z</time></trkpt><trkpt lat="43.4115783" lon="10.97729"><ele>513.0</ele><time>2026-03-22T15:04:39.011Z</time></trkpt><trkpt lat="43.411715" lon="10.9773"><ele>515.0</ele><time>2026-03-22T15:04:40.01Z</time></trkpt><trkpt lat="43.4118667" lon="10.9773567"><ele>517.0</ele><time>2026-03-22T15:04:41.01Z</time></trkpt><trkpt lat="43.4120267" lon="10.9774283"><ele>519.3333333333334</ele><time>2026-03-22T15:04:42.011Z</time></trkpt><trkpt lat="43.4121933" lon="10.9774883"><ele>521.6666666666666</ele><time>2026-03-22T15:04:43.01Z</time></trkpt><trkpt lat="43.4123517" lon="10.9775033"><ele>524.0</ele><time>2026-03-22T15:04:44.01Z</time></trkpt><trkpt lat="43.4125133" lon="10.9774667"><ele>524.0</ele><time>2026-03-22T15:04:45.01Z</time></trkpt><trkpt lat="43.4126717" lon="10.9773867"><ele>524.0</ele><time>2026-03-22T15:04:46.01Z</time></trkpt><trkpt lat="43.4128267" lon="10.9772833"><ele>524.0</ele><time>2026-03-22T15:04:47.011Z</time></trkpt><trkpt lat="43.4129767" lon="10.9771933"><ele>526.25</ele><time>2026-03-22T15:04:48.011Z</time></trkpt><trkpt lat="43.4131133" lon="10.9771267"><ele>528.5</ele><time>2026-03-22T15:04:49.012Z</time></trkpt><trkpt lat="43.4132383" lon="10.9770983"><ele>530.75</ele><time>2026-03-22T15:04:50.011Z</time></trkpt><trkpt lat="43.4133633" lon="10.9770917"><ele>533.0</ele><time>2026-03-22T15:04:51.01Z</time></trkpt><trkpt lat="43.4135083" lon="10.9771517"><ele>533.0</ele><time>2026-03-22T15:04:52.01Z</time></trkpt><trkpt lat="43.4136633" lon="10.9772417"><ele>533.0</ele><time>2026-03-22T15:04:53.011Z</time></trkpt><trkpt lat="43.4138183" lon="10.977315"><ele>533.0</ele><time>2026-03-22T15:04:54.01Z</time></trkpt><trkpt lat="43.4139817" lon="10.9773583"><ele>533.3333333333333</ele><time>2026-03-22T15:04:55.012Z</time></trkpt><trkpt lat="43.414145" lon="10.9773617"><ele>533.6666666666666</ele><time>2026-03-22T15:04:56.012Z</time></trkpt><trkpt lat="43.4143233" lon="10.9773367"><ele>534.0</ele><time>2026-03-22T15:04:57.011Z</time></trkpt><trkpt lat="43.4144933" lon="10.977285"><ele>534.0</ele><time>2026-03-22T15:04:58.01Z</time></trkpt><trkpt lat="43.4146533" lon="10.9772317"><ele>534.0</ele><time>2026-03-22T15:04:59.012Z</time></trkpt><trkpt lat="43.4148" lon="10.9771917"><ele>534.0</ele><time>2026-03-22T15:05:00.01Z</time></trkpt><trkpt lat="43.4149317" lon="10.977175"><ele>534.0</ele><time>2026-03-22T15:05:01.01Z</time></trkpt><trkpt lat="43.41505" lon="10.977195"><ele>533.5</ele><time>2026-03-22T15:05:02.01Z</time></trkpt><trkpt lat="43.4151567" lon="10.9772683"><ele>533.0</ele><time>2026-03-22T15:05:03.009Z</time></trkpt><trkpt lat="43.4152583" lon="10.9773733"><ele>532.5</ele><time>2026-03-22T15:05:04.01Z</time></trkpt><trkpt lat="43.4153767" lon="10.9774583"><ele>532.0</ele><time>2026-03-22T15:05:05.011Z</time></trkpt><trkpt lat="43.4155217" lon="10.9775083"><ele>530.75</ele><time>2026-03-22T15:05:06.01Z</time></trkpt><trkpt lat="43.41567" lon="10.9775217"><ele>529.5</ele><time>2026-03-22T15:05:07.011Z</time></trkpt><trkpt lat="43.4157983" lon="10.97752"><ele>528.25</ele><time>2026-03-22T15:05:08.01Z</time></trkpt><trkpt lat="43.4159083" lon="10.9774733"><ele>527.0</ele><time>2026-03-22T15:05:09.01Z</time></trkpt><trkpt lat="43.4160033" lon="10.9773733"><ele>527.0</ele><time>2026-03-22T15:05:10.01Z</time></trkpt><trkpt lat="43.4160817" lon="10.9772167"><ele>527.0</ele><time>2026-03-22T15:05:11.011Z</time></trkpt><trkpt lat="43.4161483" lon="10.9770283"><ele>527.0</ele><time>2026-03-22T15:05:12.011Z</time></trkpt><trkpt lat="43.4161983" lon="10.976835"><ele>527.0</ele><time>2026-03-22T15:05:13.01Z</time></trkpt><trkpt lat="43.4162533" lon="10.9766617"><ele>526.25</ele><time>2026-03-22T15:05:14.012Z</time></trkpt><trkpt lat="43.4163367" lon="10.9765183"><ele>525.5</ele><time>2026-03-22T15:05:15.012Z</time></trkpt><trkpt lat="43.416445" lon="10.9764067"><ele>524.75</ele><time>2026-03-22T15:05:16.01Z</time></trkpt><trkpt lat="43.416575" lon="10.9763333"><ele>524.0</ele><time>2026-03-22T15:05:17.01Z</time></trkpt><trkpt lat="43.4167217" lon="10.9763017"><ele>524.0</ele><time>2026-03-22T15:05:18.011Z</time></trkpt><trkpt lat="43.4168683" lon="10.9763167"><ele>524.0</ele><time>2026-03-22T15:05:19.011Z</time></trkpt><trkpt lat="43.4170033" lon="10.9763617"><ele>524.0</ele><time>2026-03-22T15:05:20.012Z</time></trkpt><trkpt lat="43.417125" lon="10.9763983"><ele>524.0</ele><time>2026-03-22T15:05:21.012Z</time></trkpt><trkpt lat="43.41724" lon="10.9763833"><ele>524.75</ele><time>2026-03-22T15:05:22.011Z</time></trkpt><trkpt lat="43.41736" lon="10.97632"><ele>525.5</ele><time>2026-03-22T15:05:23.01Z</time></trkpt><trkpt lat="43.417485" lon="10.9762233"><ele>526.25</ele><time>2026-03-22T15:05:24.01Z</time></trkpt><trkpt lat="43.41763" lon="10.9761433"><ele>527.0</ele><time>2026-03-22T15:05:25.01Z</time></trkpt><trkpt lat="43.4177983" lon="10.9760917"><ele>527.0</ele><time>2026-03-22T15:05:26.011Z</time></trkpt><trkpt lat="43.4179633" lon="10.9760433"><ele>527.0</ele><time>2026-03-22T15:05:27.01Z</time></trkpt><trkpt lat="43.4181167" lon="10.9760133"><ele>527.0</ele><time>2026-03-22T15:05:28.009Z</time></trkpt><trkpt lat="43.4182683" lon="10.9760083"><ele>526.25</ele><time>2026-03-22T15:05:29.01Z</time></trkpt><trkpt lat="43.4184133" lon="10.9760433"><ele>525.5</ele><time>2026-03-22T15:05:30.01Z</time></trkpt><trkpt lat="43.4185467" lon="10.9761267"><ele>524.75</ele><time>2026-03-22T15:05:31.011Z</time></trkpt><trkpt lat="43.4186633" lon="10.9762117"><ele>524.0</ele><time>2026-03-22T15:05:32.01Z</time></trkpt><trkpt lat="43.4187783" lon="10.97627"><ele>522.3333333333333</ele><time>2026-03-22T15:05:33.01Z</time></trkpt><trkpt lat="43.418905" lon="10.976285"><ele>520.6666666666666</ele><time>2026-03-22T15:05:34.011Z</time></trkpt><trkpt lat="43.4190433" lon="10.9762267"><ele>519.0</ele><time>2026-03-22T15:05:35.01Z</time></trkpt><trkpt lat="43.419215" lon="10.97611"><ele>519.0</ele><time>2026-03-22T15:05:36.01Z</time></trkpt><trkpt lat="43.4193817" lon="10.9759867"><ele>519.0</ele><time>2026-03-22T15:05:37.01Z</time></trkpt><trkpt lat="43.4195483" lon="10.9758883"><ele>519.0</ele><time>2026-03-22T15:05:38.009Z</time></trkpt><trkpt lat="43.4197083" lon="10.975805"><ele>518.3333333333334</ele><time>2026-03-22T15:05:39.01Z</time></trkpt><trkpt lat="43.41987" lon="10.975735"><ele>517.6666666666667</ele><time>2026-03-22T15:05:40.012Z</time></trkpt><trkpt lat="43.4200433" lon="10.9756867"><ele>517.0</ele><time>2026-03-22T15:05:41.01Z</time></trkpt><trkpt lat="43.42022" lon="10.9756633"><ele>517.0</ele><time>2026-03-22T15:05:42.01Z</time></trkpt><trkpt lat="43.420395" lon="10.9756567"><ele>517.0</ele><time>2026-03-22T15:05:43.01Z</time></trkpt><trkpt lat="43.42059" lon="10.9756983"><ele>517.0</ele><time>2026-03-22T15:05:44.01Z</time></trkpt><trkpt lat="43.4207667" lon="10.9757517"><ele>518.0</ele><time>2026-03-22T15:05:45.01Z</time></trkpt><trkpt lat="43.4209233" lon="10.97581"><ele>519.0</ele><time>2026-03-22T15:05:46.012Z</time></trkpt><trkpt lat="43.42108" lon="10.9758667"><ele>520.0</ele><time>2026-03-22T15:05:47.01Z</time></trkpt><trkpt lat="43.42125" lon="10.9759117"><ele>515.6666666666667</ele><time>2026-03-22T15:05:48.01Z</time></trkpt><trkpt lat="43.4214133" lon="10.9759117"><ele>511.33333333333337</ele><time>2026-03-22T15:05:49.012Z</time></trkpt><trkpt lat="43.4215733" lon="10.975885"><ele>507.0</ele><time>2026-03-22T15:05:50.012Z</time></trkpt><trkpt lat="43.4217217" lon="10.975845"><ele>507.0</ele><time>2026-03-22T15:05:51.011Z</time></trkpt><trkpt lat="43.4218583" lon="10.9758317"><ele>507.0</ele><time>2026-03-22T15:05:52.011Z</time></trkpt><trkpt lat="43.4219783" lon="10.975855"><ele>507.0</ele><time>2026-03-22T15:05:53.01Z</time></trkpt><trkpt lat="43.42209" lon="10.9759317"><ele>507.0</ele><time>2026-03-22T15:05:54.01Z</time></trkpt><trkpt lat="43.422195" lon="10.9760583"><ele>503.33333333333337</ele><time>2026-03-22T15:05:55.01Z</time></trkpt><trkpt lat="43.42231" lon="10.9761917"><ele>499.6666666666667</ele><time>2026-03-22T15:05:56.01Z</time></trkpt><trkpt lat="43.42244" lon="10.9762917"><ele>496.0</ele><time>2026-03-22T15:05:57.011Z</time></trkpt><trkpt lat="43.42261" lon="10.9763283"><ele>496.0</ele><time>2026-03-22T15:05:58.01Z</time></trkpt><trkpt lat="43.42279" lon="10.9763067"><ele>496.0</ele><time>2026-03-22T15:05:59.011Z</time></trkpt><trkpt lat="43.4229733" lon="10.9762367"><ele>496.0</ele><time>2026-03-22T15:06:00.01Z</time></trkpt><trkpt lat="43.4231533" lon="10.9761267"><ele>495.33333333333337</ele><time>2026-03-22T15:06:01.01Z</time></trkpt><trkpt lat="43.4233283" lon="10.97599"><ele>494.66666666666663</ele><time>2026-03-22T15:06:02.01Z</time></trkpt><trkpt lat="43.4234967" lon="10.9758533"><ele>494.0</ele><time>2026-03-22T15:06:03.01Z</time></trkpt><trkpt lat="43.4236667" lon="10.9757233"><ele>493.66666666666663</ele><time>2026-03-22T15:06:04.01Z</time></trkpt><trkpt lat="43.4238467" lon="10.9756083"><ele>493.33333333333337</ele><time>2026-03-22T15:06:05.011Z</time></trkpt><trkpt lat="43.4240383" lon="10.9755117"><ele>493.0</ele><time>2026-03-22T15:06:06.01Z</time></trkpt><trkpt lat="43.4242217" lon="10.975425"><ele>493.0</ele><time>2026-03-22T15:06:07.01Z</time></trkpt><trkpt lat="43.4243917" lon="10.9753417"><ele>493.0</ele><time>2026-03-22T15:06:08.01Z</time></trkpt><trkpt lat="43.4245383" lon="10.975245"><ele>493.0</ele><time>2026-03-22T15:06:09.011Z</time></trkpt><trkpt lat="43.424665" lon="10.9751217"><ele>493.33333333333337</ele><time>2026-03-22T15:06:10.011Z</time></trkpt><trkpt lat="43.4247667" lon="10.9749483"><ele>493.66666666666663</ele><time>2026-03-22T15:06:11.011Z</time></trkpt><trkpt lat="43.42486" lon="10.974735"><ele>494.0</ele><time>2026-03-22T15:06:12.01Z</time></trkpt><trkpt lat="43.424945" lon="10.974505"><ele>494.0</ele><time>2026-03-22T15:06:13.01Z</time></trkpt><trkpt lat="43.425005" lon="10.9742683"><ele>494.0</ele><time>2026-03-22T15:06:14.01Z</time></trkpt><trkpt lat="43.425035" lon="10.97404"><ele>494.0</ele><time>2026-03-22T15:06:15.011Z</time></trkpt><trkpt lat="43.4250533" lon="10.9738333"><ele>495.0</ele><time>2026-03-22T15:06:16.01Z</time></trkpt><trkpt lat="43.4250817" lon="10.9736467"><ele>496.0</ele><time>2026-03-22T15:06:17.013Z</time></trkpt><trkpt lat="43.425135" lon="10.9734933"><ele>497.0</ele><time>2026-03-22T15:06:18.01Z</time></trkpt><trkpt lat="43.4252133" lon="10.9733717"><ele>498.0</ele><time>2026-03-22T15:06:19.01Z</time></trkpt><trkpt lat="43.4253317" lon="10.97332"><ele>498.0</ele><time>2026-03-22T15:06:20.01Z</time></trkpt><trkpt lat="43.4254733" lon="10.9733267"><ele>498.0</ele><time>2026-03-22T15:06:21.011Z</time></trkpt><trkpt lat="43.42562" lon="10.97338"><ele>498.0</ele><time>2026-03-22T15:06:22.01Z</time></trkpt><trkpt lat="43.42575" lon="10.97348"><ele>498.0</ele><time>2026-03-22T15:06:23.01Z</time></trkpt><trkpt lat="43.425865" lon="10.9736133"><ele>501.33333333333337</ele><time>2026-03-22T15:06:24.01Z</time></trkpt><trkpt lat="43.4259867" lon="10.97373"><ele>504.6666666666667</ele><time>2026-03-22T15:06:25.01Z</time></trkpt><trkpt lat="43.4261317" lon="10.97379"><ele>508.0</ele><time>2026-03-22T15:06:26.01Z</time></trkpt><trkpt lat="43.4263033" lon="10.97379"><ele>508.6666666666667</ele><time>2026-03-22T15:06:27.01Z</time></trkpt><trkpt lat="43.4264883" lon="10.973745"><ele>509.33333333333337</ele><time>2026-03-22T15:06:28.01Z</time></trkpt><trkpt lat="43.426665" lon="10.9736783"><ele>510.0</ele><time>2026-03-22T15:06:29.01Z</time></trkpt><trkpt lat="43.4268333" lon="10.9735733"><ele>510.0</ele><time>2026-03-22T15:06:30.01Z</time></trkpt><trkpt lat="43.4269883" lon="10.97342"><ele>510.0</ele><time>2026-03-22T15:06:31.01Z</time></trkpt><trkpt lat="43.4271433" lon="10.97324"><ele>510.0</ele><time>2026-03-22T15:06:32.01Z</time></trkpt><trkpt lat="43.427295" lon="10.9730433"><ele>510.66666666666663</ele><time>2026-03-22T15:06:33.01Z</time></trkpt><trkpt lat="43.4274467" lon="10.9728367"><ele>511.3333333333333</ele><time>2026-03-22T15:06:34.013Z</time></trkpt><trkpt lat="43.4276" lon="10.9726217"><ele>512.0</ele><time>2026-03-22T15:06:35.012Z</time></trkpt><trkpt lat="43.4277433" lon="10.9723967"><ele>512.3333333333333</ele><time>2026-03-22T15:06:36.012Z</time></trkpt><trkpt lat="43.4278717" lon="10.972175"><ele>512.6666666666666</ele><time>2026-03-22T15:06:37.01Z</time></trkpt><trkpt lat="43.4279817" lon="10.9719667"><ele>513.0</ele><time>2026-03-22T15:06:38.012Z</time></trkpt><trkpt lat="43.4280683" lon="10.9717683"><ele>516.6666666666666</ele><time>2026-03-22T15:06:39.01Z</time></trkpt><trkpt lat="43.4281117" lon="10.9715617"><ele>520.3333333333333</ele><time>2026-03-22T15:06:40.011Z</time></trkpt><trkpt lat="43.428115" lon="10.97134"><ele>524.0</ele><time>2026-03-22T15:06:41.01Z</time></trkpt><trkpt lat="43.4280983" lon="10.9711117"><ele>524.0</ele><time>2026-03-22T15:06:42.01Z</time></trkpt><trkpt lat="43.4280917" lon="10.9708983"><ele>524.0</ele><time>2026-03-22T15:06:43.01Z</time></trkpt><trkpt lat="43.4280967" lon="10.97072"><ele>524.0</ele><time>2026-03-22T15:06:44.01Z</time></trkpt><trkpt lat="43.428135" lon="10.97058"><ele>524.0</ele><time>2026-03-22T15:06:45.01Z</time></trkpt><trkpt lat="43.42821" lon="10.97048"><ele>525.0</ele><time>2026-03-22T15:06:46.012Z</time></trkpt><trkpt lat="43.4283267" lon="10.9704117"><ele>526.0</ele><time>2026-03-22T15:06:47.01Z</time></trkpt><trkpt lat="43.4284717" lon="10.9703667"><ele>527.0</ele><time>2026-03-22T15:06:48.01Z</time></trkpt><trkpt lat="43.4286483" lon="10.9703283"><ele>528.6666666666666</ele><time>2026-03-22T15:06:49.011Z</time></trkpt><trkpt lat="43.4288217" lon="10.970295"><ele>530.3333333333334</ele><time>2026-03-22T15:06:50.01Z</time></trkpt><trkpt lat="43.4289717" lon="10.970245"><ele>532.0</ele><time>2026-03-22T15:06:51.012Z</time></trkpt><trkpt lat="43.4291067" lon="10.9701517"><ele>531.6666666666667</ele><time>2026-03-22T15:06:52.012Z</time></trkpt><trkpt lat="43.4292217" lon="10.9700083"><ele>531.3333333333334</ele><time>2026-03-22T15:06:53.011Z</time></trkpt><trkpt lat="43.42932" lon="10.969825"><ele>531.0</ele><time>2026-03-22T15:06:54.011Z</time></trkpt><trkpt lat="43.4294183" lon="10.9696133"><ele>531.0</ele><time>2026-03-22T15:06:55.011Z</time></trkpt><trkpt lat="43.4295267" lon="10.9693883"><ele>531.0</ele><time>2026-03-22T15:06:56.011Z</time></trkpt><trkpt lat="43.42964" lon="10.96916"><ele>531.0</ele><time>2026-03-22T15:06:57.01Z</time></trkpt><trkpt lat="43.429765" lon="10.96895"><ele>533.3333333333334</ele><time>2026-03-22T15:06:58.011Z</time></trkpt><trkpt lat="43.4299083" lon="10.96876"><ele>535.6666666666667</ele><time>2026-03-22T15:06:59.01Z</time></trkpt><trkpt lat="43.4300583" lon="10.9685867"><ele>538.0</ele><time>2026-03-22T15:07:00.01Z</time></trkpt><trkpt lat="43.4302067" lon="10.9684283"><ele>538.0</ele><time>2026-03-22T15:07:01.011Z</time></trkpt><trkpt lat="43.4303467" lon="10.9682933"><ele>538.0</ele><time>2026-03-22T15:07:02.011Z</time></trkpt><trkpt lat="43.4304883" lon="10.968185"><ele>538.0</ele><time>2026-03-22T15:07:03.009Z</time></trkpt><trkpt lat="43.4306433" lon="10.9681317"><ele>541.3333333333334</ele><time>2026-03-22T15:07:04.01Z</time></trkpt><trkpt lat="43.430815" lon="10.96813"><ele>544.6666666666666</ele><time>2026-03-22T15:07:05.01Z</time></trkpt><trkpt lat="43.4309967" lon="10.9681717"><ele>548.0</ele><time>2026-03-22T15:07:06.01Z</time></trkpt><trkpt lat="43.4311833" lon="10.9682433"><ele>548.6666666666666</ele><time>2026-03-22T15:07:07.009Z</time></trkpt><trkpt lat="43.4313667" lon="10.9683367"><ele>549.3333333333334</ele><time>2026-03-22T15:07:08.01Z</time></trkpt><trkpt lat="43.4315517" lon="10.9684267"><ele>550.0</ele><time>2026-03-22T15:07:09.01Z</time></trkpt><trkpt lat="43.43174" lon="10.968485"><ele>550.0</ele><time>2026-03-22T15:07:10.01Z</time></trkpt><trkpt lat="43.4319133" lon="10.9685233"><ele>550.0</ele><time>2026-03-22T15:07:11.011Z</time></trkpt><trkpt lat="43.432065" lon="10.96853"><ele>550.0</ele><time>2026-03-22T15:07:12.01Z</time></trkpt><trkpt lat="43.4322017" lon="10.9685033"><ele>549.75</ele><time>2026-03-22T15:07:13.012Z</time></trkpt><trkpt lat="43.432285" lon="10.9684017"><ele>549.5</ele><time>2026-03-22T15:07:14.01Z</time></trkpt><trkpt lat="43.4323867" lon="10.9682767"><ele>549.25</ele><time>2026-03-22T15:07:15.01Z</time></trkpt><trkpt lat="43.4325067" lon="10.9681217"><ele>549.0</ele><time>2026-03-22T15:07:16.009Z</time></trkpt><trkpt lat="43.4326367" lon="10.967995"><ele>552.0</ele><time>2026-03-22T15:07:17.01Z</time></trkpt><trkpt lat="43.4327883" lon="10.96791"><ele>555.0</ele><time>2026-03-22T15:07:18.01Z</time></trkpt><trkpt lat="43.43296" lon="10.96782"><ele>558.0</ele><time>2026-03-22T15:07:19.01Z</time></trkpt><trkpt lat="43.4331483" lon="10.9676983"><ele>558.0</ele><time>2026-03-22T15:07:20.012Z</time></trkpt><trkpt lat="43.43334" lon="10.96756"><ele>558.0</ele><time>2026-03-22T15:07:21.01Z</time></trkpt><trkpt lat="43.4335283" lon="10.96742"><ele>558.0</ele><time>2026-03-22T15:07:22.01Z</time></trkpt><trkpt lat="43.43372" lon="10.9672867"><ele>559.6666666666666</ele><time>2026-03-22T15:07:23.01Z</time></trkpt><trkpt lat="43.4339067" lon="10.9671533"><ele>561.3333333333333</ele><time>2026-03-22T15:07:24.01Z</time></trkpt><trkpt lat="43.43408" lon="10.9670033"><ele>563.0</ele><time>2026-03-22T15:07:25.011Z</time></trkpt><trkpt lat="43.4342233" lon="10.9668067"><ele>564.6666666666666</ele><time>2026-03-22T15:07:26.01Z</time></trkpt><trkpt lat="43.4343617" lon="10.9665983"><ele>566.3333333333334</ele><time>2026-03-22T15:07:27.01Z</time></trkpt><trkpt lat="43.4344883" lon="10.9663917"><ele>568.0</ele><time>2026-03-22T15:07:28.013Z</time></trkpt><trkpt lat="43.4346217" lon="10.9662017"><ele>567.0</ele><time>2026-03-22T15:07:29.01Z</time></trkpt><trkpt lat="43.4347617" lon="10.96603"><ele>566.0</ele><time>2026-03-22T15:07:30.01Z</time></trkpt><trkpt lat="43.4348983" lon="10.9658533"><ele>565.0</ele><time>2026-03-22T15:07:31.01Z</time></trkpt><trkpt lat="43.43501" lon="10.9656433"><ele>568.6666666666667</ele><time>2026-03-22T15:07:32.011Z</time></trkpt><trkpt lat="43.4351133" lon="10.96541"><ele>572.3333333333334</ele><time>2026-03-22T15:07:33.011Z</time></trkpt><trkpt lat="43.4352283" lon="10.9651683"><ele>576.0</ele><time>2026-03-22T15:07:34.011Z</time></trkpt><trkpt lat="43.4353567" lon="10.9649417"><ele>575.3333333333334</ele><time>2026-03-22T15:07:35.01Z</time></trkpt><trkpt lat="43.43547" lon="10.9647433"><ele>574.6666666666667</ele><time>2026-03-22T15:07:36.01Z</time></trkpt><trkpt lat="43.4355683" lon="10.9645417"><ele>574.0</ele><time>2026-03-22T15:07:37.01Z</time></trkpt><trkpt lat="43.43565" lon="10.96433"><ele>578.0</ele><time>2026-03-22T15:07:38.01Z</time></trkpt><trkpt lat="43.43573" lon="10.9641"><ele>582.0</ele><time>2026-03-22T15:07:39.01Z</time></trkpt><trkpt lat="43.435825" lon="10.9638667"><ele>586.0</ele><time>2026-03-22T15:07:40.01Z</time></trkpt><trkpt lat="43.43594" lon="10.9636433"><ele>586.0</ele><time>2026-03-22T15:07:41.01Z</time></trkpt><trkpt lat="43.4360667" lon="10.9634483"><ele>586.0</ele><time>2026-03-22T15:07:42.012Z</time></trkpt><trkpt lat="43.4361933" lon="10.9632833"><ele>586.0</ele><time>2026-03-22T15:07:43.01Z</time></trkpt><trkpt lat="43.436315" lon="10.96314"><ele>586.3333333333334</ele><time>2026-03-22T15:07:44.01Z</time></trkpt><trkpt lat="43.4364433" lon="10.9630133"><ele>586.6666666666666</ele><time>2026-03-22T15:07:45.011Z</time></trkpt><trkpt lat="43.4365733" lon="10.9628983"><ele>587.0</ele><time>2026-03-22T15:07:46.01Z</time></trkpt><trkpt lat="43.43669" lon="10.962775"><ele>587.0</ele><time>2026-03-22T15:07:47.01Z</time></trkpt><trkpt lat="43.4367633" lon="10.96258"><ele>587.0</ele><time>2026-03-22T15:07:48.01Z</time></trkpt><trkpt lat="43.4368133" lon="10.9623417"><ele>587.0</ele><time>2026-03-22T15:07:49.01Z</time></trkpt><trkpt lat="43.4368533" lon="10.962095"><ele>586.6666666666666</ele><time>2026-03-22T15:07:50.011Z</time></trkpt><trkpt lat="43.4369017" lon="10.96185"><ele>586.3333333333334</ele><time>2026-03-22T15:07:51.01Z</time></trkpt><trkpt lat="43.4369733" lon="10.9616283"><ele>586.0</ele><time>2026-03-22T15:07:52.01Z</time></trkpt><trkpt lat="43.4370667" lon="10.9614317"><ele>588.3333333333334</ele><time>2026-03-22T15:07:53.009Z</time></trkpt><trkpt lat="43.437195" lon="10.961265"><ele>590.6666666666666</ele><time>2026-03-22T15:07:54.01Z</time></trkpt><trkpt lat="43.4373533" lon="10.9611317"><ele>593.0</ele><time>2026-03-22T15:07:55.01Z</time></trkpt><trkpt lat="43.4375367" lon="10.9610217"><ele>593.0</ele><time>2026-03-22T15:07:56.01Z</time></trkpt><trkpt lat="43.4377383" lon="10.9609033"><ele>593.0</ele><time>2026-03-22T15:07:57.011Z</time></trkpt><trkpt lat="43.437945" lon="10.9607567"><ele>592.0</ele><time>2026-03-22T15:07:58.01Z</time></trkpt><trkpt lat="43.4381567" lon="10.9605833"><ele>591.0</ele><time>2026-03-22T15:07:59.011Z</time></trkpt><trkpt lat="43.4383667" lon="10.9604083"><ele>591.0</ele><time>2026-03-22T15:08:00.01Z</time></trkpt><trkpt lat="43.438575" lon="10.9602383"><ele>591.0</ele><time>2026-03-22T15:08:01.009Z</time></trkpt><trkpt lat="43.4387683" lon="10.9600783"><ele>590.6666666666666</ele><time>2026-03-22T15:08:02.011Z</time></trkpt><trkpt lat="43.4389483" lon="10.95992"><ele>590.3333333333333</ele><time>2026-03-22T15:08:03.011Z</time></trkpt><trkpt lat="43.43911" lon="10.9597483"><ele>590.0</ele><time>2026-03-22T15:08:04.011Z</time></trkpt><trkpt lat="43.4392533" lon="10.9595417"><ele>590.0</ele><time>2026-03-22T15:08:05.011Z</time></trkpt><trkpt lat="43.439385" lon="10.9593117"><ele>590.0</ele><time>2026-03-22T15:08:06.01Z</time></trkpt><trkpt lat="43.4395183" lon="10.9590767"><ele>590.0</ele><time>2026-03-22T15:08:07.01Z</time></trkpt><trkpt lat="43.4396467" lon="10.958855"><ele>590.6666666666666</ele><time>2026-03-22T15:08:08.009Z</time></trkpt><trkpt lat="43.4397683" lon="10.958645"><ele>591.3333333333334</ele><time>2026-03-22T15:08:09.01Z</time></trkpt><trkpt lat="43.439875" lon="10.9584533"><ele>592.0</ele><time>2026-03-22T15:08:10.01Z</time></trkpt><trkpt lat="43.439965" lon="10.9582883"><ele>593.2</ele><time>2026-03-22T15:08:11.009Z</time></trkpt><trkpt lat="43.440045" lon="10.958155"><ele>594.4000000000001</ele><time>2026-03-22T15:08:12.01Z</time></trkpt><trkpt lat="43.4401067" lon="10.9580583"><ele>595.5999999999999</ele><time>2026-03-22T15:08:13.01Z</time></trkpt><trkpt lat="43.4401583" lon="10.957985"><ele>596.8</ele><time>2026-03-22T15:08:14.01Z</time></trkpt><trkpt lat="43.440205" lon="10.9579033"><ele>598.0</ele><time>2026-03-22T15:08:15.009Z</time></trkpt><trkpt lat="43.4402633" lon="10.9577933"><ele>598.0</ele><time>2026-03-22T15:08:16.01Z</time></trkpt><trkpt lat="43.44036" lon="10.957635"><ele>598.0</ele><time>2026-03-22T15:08:17.009Z</time></trkpt><trkpt lat="43.440465" lon="10.9574667"><ele>598.0</ele><time>2026-03-22T15:08:18.011Z</time></trkpt><trkpt lat="43.440585" lon="10.9572767"><ele>598.3333333333334</ele><time>2026-03-22T15:08:19.01Z</time></trkpt><trkpt lat="43.44072" lon="10.9570833"><ele>598.6666666666666</ele><time>2026-03-22T15:08:20.011Z</time></trkpt><trkpt lat="43.4408533" lon="10.9568817"><ele>599.0</ele><time>2026-03-22T15:08:21.012Z</time></trkpt><trkpt lat="43.4409933" lon="10.956675"><ele>599.0</ele><time>2026-03-22T15:08:22.01Z</time></trkpt><trkpt lat="43.4411283" lon="10.9564667"><ele>599.0</ele><time>2026-03-22T15:08:23.012Z</time></trkpt><trkpt lat="43.4412533" lon="10.9562483"><ele>599.0</ele><time>2026-03-22T15:08:24.01Z</time></trkpt><trkpt lat="43.4413667" lon="10.9560267"><ele>599.6666666666666</ele><time>2026-03-22T15:08:25.01Z</time></trkpt><trkpt lat="43.4414567" lon="10.9557983"><ele>600.3333333333334</ele><time>2026-03-22T15:08:26.011Z</time></trkpt><trkpt lat="43.441525" lon="10.9555917"><ele>601.0</ele><time>2026-03-22T15:08:27.011Z</time></trkpt><trkpt lat="43.4415667" lon="10.9554033"><ele>601.0</ele><time>2026-03-22T15:08:28.011Z</time></trkpt><trkpt lat="43.4415983" lon="10.95521"><ele>601.0</ele><time>2026-03-22T15:08:29.011Z</time></trkpt><trkpt lat="43.4416333" lon="10.9549933"><ele>601.0</ele><time>2026-03-22T15:08:30.01Z</time></trkpt><trkpt lat="43.4416683" lon="10.9547683"><ele>601.6666666666667</ele><time>2026-03-22T15:08:31.01Z</time></trkpt><trkpt lat="43.4417" lon="10.954535"><ele>602.3333333333334</ele><time>2026-03-22T15:08:32.01Z</time></trkpt><trkpt lat="43.44172" lon="10.9542933"><ele>603.0</ele><time>2026-03-22T15:08:33.011Z</time></trkpt><trkpt lat="43.44172" lon="10.95405"><ele>603.3333333333334</ele><time>2026-03-22T15:08:34.01Z</time></trkpt><trkpt lat="43.441705" lon="10.9538067"><ele>603.6666666666667</ele><time>2026-03-22T15:08:35.01Z</time></trkpt><trkpt lat="43.4416867" lon="10.9535717"><ele>604.0</ele><time>2026-03-22T15:08:36.012Z</time></trkpt><trkpt lat="43.44167" lon="10.9533483"><ele>604.0</ele><time>2026-03-22T15:08:37.012Z</time></trkpt><trkpt lat="43.4416617" lon="10.9531383"><ele>604.0</ele><time>2026-03-22T15:08:38.011Z</time></trkpt><trkpt lat="43.4416667" lon="10.9529517"><ele>604.0</ele><time>2026-03-22T15:08:39.01Z</time></trkpt><trkpt lat="43.4416933" lon="10.9527867"><ele>604.0</ele><time>2026-03-22T15:08:40.01Z</time></trkpt><trkpt lat="43.4417433" lon="10.9526483"><ele>604.0</ele><time>2026-03-22T15:08:41.012Z</time></trkpt><trkpt lat="43.4418117" lon="10.9525483"><ele>604.0</ele><time>2026-03-22T15:08:42.01Z</time></trkpt><trkpt lat="43.4418967" lon="10.9524833"><ele>604.0</ele><time>2026-03-22T15:08:43.01Z</time></trkpt><trkpt lat="43.4419933" lon="10.952445"><ele>604.0</ele><time>2026-03-22T15:08:44.01Z</time></trkpt><trkpt lat="43.4421017" lon="10.9524217"><ele>604.0</ele><time>2026-03-22T15:08:45.009Z</time></trkpt><trkpt lat="43.4422167" lon="10.952395"><ele>603.25</ele><time>2026-03-22T15:08:46.01Z</time></trkpt><trkpt lat="43.4423433" lon="10.952375"><ele>602.5</ele><time>2026-03-22T15:08:47.009Z</time></trkpt><trkpt lat="43.4424783" lon="10.9523433"><ele>601.75</ele><time>2026-03-22T15:08:48.01Z</time></trkpt><trkpt lat="43.442625" lon="10.9522983"><ele>601.0</ele><time>2026-03-22T15:08:49.01Z</time></trkpt><trkpt lat="43.4427817" lon="10.952245"><ele>601.0</ele><time>2026-03-22T15:08:50.01Z</time></trkpt><trkpt lat="43.4429433" lon="10.95219"><ele>601.0</ele><time>2026-03-22T15:08:51.011Z</time></trkpt><trkpt lat="43.4431133" lon="10.9521533"><ele>601.0</ele><time>2026-03-22T15:08:52.01Z</time></trkpt><trkpt lat="43.44329" lon="10.9521383"><ele>599.0</ele><time>2026-03-22T15:08:53.01Z</time></trkpt><trkpt lat="43.4434733" lon="10.952145"><ele>597.0</ele><time>2026-03-22T15:08:54.011Z</time></trkpt><trkpt lat="43.4436467" lon="10.952155"><ele>595.0</ele><time>2026-03-22T15:08:55.011Z</time></trkpt><trkpt lat="43.4438217" lon="10.9521517"><ele>594.3333333333334</ele><time>2026-03-22T15:08:56.01Z</time></trkpt><trkpt lat="43.4440017" lon="10.952125"><ele>593.6666666666666</ele><time>2026-03-22T15:08:57.009Z</time></trkpt><trkpt lat="43.4441867" lon="10.9520867"><ele>593.0</ele><time>2026-03-22T15:08:58.01Z</time></trkpt><trkpt lat="43.444385" lon="10.9520683"><ele>593.0</ele><time>2026-03-22T15:08:59.01Z</time></trkpt><trkpt lat="43.444595" lon="10.9520833"><ele>593.0</ele><time>2026-03-22T15:09:00.01Z</time></trkpt><trkpt lat="43.444805" lon="10.9521217"><ele>593.0</ele><time>2026-03-22T15:09:01.009Z</time></trkpt><trkpt lat="43.44502" lon="10.9521683"><ele>592.6666666666666</ele><time>2026-03-22T15:09:02.01Z</time></trkpt><trkpt lat="43.4452317" lon="10.9522217"><ele>592.3333333333334</ele><time>2026-03-22T15:09:03.01Z</time></trkpt><trkpt lat="43.4454433" lon="10.9522867"><ele>592.0</ele><time>2026-03-22T15:09:04.009Z</time></trkpt><trkpt lat="43.44564" lon="10.952375"><ele>591.6666666666667</ele><time>2026-03-22T15:09:05.01Z</time></trkpt><trkpt lat="43.445835" lon="10.9524867"><ele>591.3333333333334</ele><time>2026-03-22T15:09:06.009Z</time></trkpt><trkpt lat="43.4460317" lon="10.9525983"><ele>591.0</ele><time>2026-03-22T15:09:07.009Z</time></trkpt><trkpt lat="43.4462367" lon="10.95268"><ele>589.0</ele><time>2026-03-22T15:09:08.011Z</time></trkpt><trkpt lat="43.4464433" lon="10.9527167"><ele>587.0</ele><time>2026-03-22T15:09:09.01Z</time></trkpt><trkpt lat="43.4466517" lon="10.9527117"><ele>585.0</ele><time>2026-03-22T15:09:10.01Z</time></trkpt><trkpt lat="43.44686" lon="10.95268"><ele>585.0</ele><time>2026-03-22T15:09:11.01Z</time></trkpt><trkpt lat="43.4470533" lon="10.9526267"><ele>585.0</ele><time>2026-03-22T15:09:12.01Z</time></trkpt><trkpt lat="43.4472333" lon="10.9525783"><ele>585.0</ele><time>2026-03-22T15:09:13.01Z</time></trkpt><trkpt lat="43.44738" lon="10.9525117"><ele>588.3333333333334</ele><time>2026-03-22T15:09:14.012Z</time></trkpt><trkpt lat="43.4474983" lon="10.95242"><ele>591.6666666666667</ele><time>2026-03-22T15:09:15.009Z</time></trkpt><trkpt lat="43.44759" lon="10.952265"><ele>595.0</ele><time>2026-03-22T15:09:16.01Z</time></trkpt><trkpt lat="43.4476633" lon="10.952055"><ele>595.0</ele><time>2026-03-22T15:09:17.01Z</time></trkpt><trkpt lat="43.4477433" lon="10.9518233"><ele>595.0</ele><time>2026-03-22T15:09:18.01Z</time></trkpt><trkpt lat="43.4478433" lon="10.9515833"><ele>595.0</ele><time>2026-03-22T15:09:19.011Z</time></trkpt><trkpt lat="43.44796" lon="10.9513483"><ele>597.0</ele><time>2026-03-22T15:09:20.011Z</time></trkpt><trkpt lat="43.4480983" lon="10.9510983"><ele>599.0</ele><time>2026-03-22T15:09:21.01Z</time></trkpt><trkpt lat="43.44824" lon="10.9508567"><ele>600.6666666666666</ele><time>2026-03-22T15:09:22.01Z</time></trkpt><trkpt lat="43.4483733" lon="10.9506317"><ele>602.3333333333334</ele><time>2026-03-22T15:09:23.01Z</time></trkpt><trkpt lat="43.448495" lon="10.9504317"><ele>604.0</ele><time>2026-03-22T15:09:24.008Z</time></trkpt><trkpt lat="43.4486217" lon="10.9502633"><ele>604.0</ele><time>2026-03-22T15:09:25.01Z</time></trkpt><trkpt lat="43.44875" lon="10.9501417"><ele>604.0</ele><time>2026-03-22T15:09:26.01Z</time></trkpt><trkpt lat="43.448875" lon="10.9500817"><ele>604.0</ele><time>2026-03-22T15:09:27.009Z</time></trkpt><trkpt lat="43.449015" lon="10.9500833"><ele>604.0</ele><time>2026-03-22T15:09:28.011Z</time></trkpt><trkpt lat="43.4491667" lon="10.9501317"><ele>606.0</ele><time>2026-03-22T15:09:29.01Z</time></trkpt><trkpt lat="43.449315" lon="10.9501933"><ele>608.0</ele><time>2026-03-22T15:09:30.01Z</time></trkpt><trkpt lat="43.4494567" lon="10.9502017"><ele>610.0</ele><time>2026-03-22T15:09:31.01Z</time></trkpt><trkpt lat="43.4496033" lon="10.9501467"><ele>612.0</ele><time>2026-03-22T15:09:32.01Z</time></trkpt><trkpt lat="43.4497467" lon="10.9500433"><ele>612.0</ele><time>2026-03-22T15:09:33.01Z</time></trkpt><trkpt lat="43.4498783" lon="10.94995"><ele>612.0</ele><time>2026-03-22T15:09:34.009Z</time></trkpt><trkpt lat="43.4500033" lon="10.9498933"><ele>612.0</ele><time>2026-03-22T15:09:35.011Z</time></trkpt><trkpt lat="43.450125" lon="10.9498917"><ele>612.0</ele><time>2026-03-22T15:09:36.011Z</time></trkpt><trkpt lat="43.4502433" lon="10.94993"><ele>612.0</ele><time>2026-03-22T15:09:37.01Z</time></trkpt><trkpt lat="43.4503483" lon="10.9500317"><ele>612.0</ele><time>2026-03-22T15:09:38.011Z</time></trkpt><trkpt lat="43.450445" lon="10.9501267"><ele>612.0</ele><time>2026-03-22T15:09:39.009Z</time></trkpt><trkpt lat="43.4505517" lon="10.9501717"><ele>612.0</ele><time>2026-03-22T15:09:40.01Z</time></trkpt><trkpt lat="43.4506717" lon="10.950165"><ele>610.6666666666666</ele><time>2026-03-22T15:09:41.01Z</time></trkpt><trkpt lat="43.4507983" lon="10.9501"><ele>609.3333333333333</ele><time>2026-03-22T15:09:42.01Z</time></trkpt><trkpt lat="43.450935" lon="10.9500033"><ele>608.0</ele><time>2026-03-22T15:09:43.01Z</time></trkpt><trkpt lat="43.451085" lon="10.9498983"><ele>608.0</ele><time>2026-03-22T15:09:44.01Z</time></trkpt><trkpt lat="43.4512333" lon="10.94978"><ele>608.0</ele><time>2026-03-22T15:09:45.01Z</time></trkpt><trkpt lat="43.4513717" lon="10.949645"><ele>608.0</ele><time>2026-03-22T15:09:46.009Z</time></trkpt><trkpt lat="43.4515083" lon="10.9495217"><ele>608.3333333333333</ele><time>2026-03-22T15:09:47.009Z</time></trkpt><trkpt lat="43.45165" lon="10.9494183"><ele>608.6666666666666</ele><time>2026-03-22T15:09:48.01Z</time></trkpt><trkpt lat="43.4517883" lon="10.949315"><ele>609.0</ele><time>2026-03-22T15:09:49.01Z</time></trkpt><trkpt lat="43.4519283" lon="10.9492367"><ele>604.5</ele><time>2026-03-22T15:09:50.01Z</time></trkpt><trkpt lat="43.4520683" lon="10.9491883"><ele>600.0</ele><time>2026-03-22T15:09:51.01Z</time></trkpt><trkpt lat="43.4522017" lon="10.94916"><ele>595.5</ele><time>2026-03-22T15:09:52.01Z</time></trkpt><trkpt lat="43.45233" lon="10.9491133"><ele>591.0</ele><time>2026-03-22T15:09:53.013Z</time></trkpt><trkpt lat="43.45244" lon="10.9490117"><ele>591.0</ele><time>2026-03-22T15:09:54.012Z</time></trkpt><trkpt lat="43.4525417" lon="10.9488783"><ele>591.0</ele><time>2026-03-22T15:09:55.01Z</time></trkpt><trkpt lat="43.4526367" lon="10.9487333"><ele>591.0</ele><time>2026-03-22T15:09:56.01Z</time></trkpt><trkpt lat="43.45273" lon="10.9486067"><ele>591.0</ele><time>2026-03-22T15:09:57.01Z</time></trkpt><trkpt lat="43.4528217" lon="10.9485167"><ele>591.0</ele><time>2026-03-22T15:09:58.01Z</time></trkpt><trkpt lat="43.452905" lon="10.9484483"><ele>591.0</ele><time>2026-03-22T15:09:59.01Z</time></trkpt><trkpt lat="43.4529783" lon="10.9484133"><ele>591.0</ele><time>2026-03-22T15:10:00.01Z</time></trkpt><trkpt lat="43.4530567" lon="10.948455"><ele>591.0</ele><time>2026-03-22T15:10:01.01Z</time></trkpt><trkpt lat="43.4531217" lon="10.9485567"><ele>591.0</ele><time>2026-03-22T15:10:02.01Z</time></trkpt><trkpt lat="43.45319" lon="10.94867"><ele>589.0</ele><time>2026-03-22T15:10:03.01Z</time></trkpt><trkpt lat="43.453295" lon="10.94878"><ele>587.0</ele><time>2026-03-22T15:10:04.01Z</time></trkpt><trkpt lat="43.45343" lon="10.9488567"><ele>585.0</ele><time>2026-03-22T15:10:05.01Z</time></trkpt><trkpt lat="43.4535983" lon="10.9489317"><ele>585.0</ele><time>2026-03-22T15:10:06.01Z</time></trkpt><trkpt lat="43.4537683" lon="10.949015"><ele>585.0</ele><time>2026-03-22T15:10:07.01Z</time></trkpt><trkpt lat="43.453925" lon="10.9491167"><ele>585.0</ele><time>2026-03-22T15:10:08.01Z</time></trkpt><trkpt lat="43.45408" lon="10.94924"><ele>582.5</ele><time>2026-03-22T15:10:09.009Z</time></trkpt><trkpt lat="43.4542283" lon="10.94933"><ele>580.0</ele><time>2026-03-22T15:10:10.01Z</time></trkpt><trkpt lat="43.454365" lon="10.949385"><ele>577.5</ele><time>2026-03-22T15:10:11.01Z</time></trkpt><trkpt lat="43.4544783" lon="10.9494483"><ele>575.0</ele><time>2026-03-22T15:10:12.01Z</time></trkpt><trkpt lat="43.4545667" lon="10.9495483"><ele>575.25</ele><time>2026-03-22T15:10:13.01Z</time></trkpt><trkpt lat="43.4546317" lon="10.9496933"><ele>575.5</ele><time>2026-03-22T15:10:14.01Z</time></trkpt><trkpt lat="43.45465" lon="10.9498817"><ele>575.75</ele><time>2026-03-22T15:10:15.01Z</time></trkpt><trkpt lat="43.45464" lon="10.9500883"><ele>576.0</ele><time>2026-03-22T15:10:16.01Z</time></trkpt><trkpt lat="43.45462" lon="10.9502917"><ele>576.0</ele><time>2026-03-22T15:10:17.01Z</time></trkpt><trkpt lat="43.4546017" lon="10.9504633"><ele>576.0</ele><time>2026-03-22T15:10:18.01Z</time></trkpt><trkpt lat="43.4546" lon="10.950605"><ele>576.0</ele><time>2026-03-22T15:10:19.01Z</time></trkpt><trkpt lat="43.454625" lon="10.9507317"><ele>576.0</ele><time>2026-03-22T15:10:20.01Z</time></trkpt><trkpt lat="43.454675" lon="10.950815"><ele>576.0</ele><time>2026-03-22T15:10:21.009Z</time></trkpt><trkpt lat="43.454755" lon="10.9508233"><ele>571.6</ele><time>2026-03-22T15:10:22.01Z</time></trkpt><trkpt lat="43.454845" lon="10.950755"><ele>567.2</ele><time>2026-03-22T15:10:23.01Z</time></trkpt><trkpt lat="43.4549183" lon="10.950645"><ele>562.8</ele><time>2026-03-22T15:10:24.01Z</time></trkpt><trkpt lat="43.4549983" lon="10.9505667"><ele>558.4</ele><time>2026-03-22T15:10:25.011Z</time></trkpt><trkpt lat="43.4550833" lon="10.950525"><ele>554.0</ele><time>2026-03-22T15:10:26.008Z</time></trkpt><trkpt lat="43.455175" lon="10.9505483"><ele>554.0</ele><time>2026-03-22T15:10:27.009Z</time></trkpt><trkpt lat="43.4552683" lon="10.9506033"><ele>554.0</ele><time>2026-03-22T15:10:28.01Z</time></trkpt><trkpt lat="43.4553783" lon="10.9506233"><ele>554.0</ele><time>2026-03-22T15:10:29.011Z</time></trkpt><trkpt lat="43.4555067" lon="10.9505867"><ele>554.0</ele><time>2026-03-22T15:10:30.009Z</time></trkpt><trkpt lat="43.4556567" lon="10.9505133"><ele>549.6666666666666</ele><time>2026-03-22T15:10:31.01Z</time></trkpt><trkpt lat="43.4558133" lon="10.9504233"><ele>545.3333333333334</ele><time>2026-03-22T15:10:32.01Z</time></trkpt><trkpt lat="43.4559933" lon="10.9503433"><ele>541.0</ele><time>2026-03-22T15:10:33.009Z</time></trkpt><trkpt lat="43.456175" lon="10.95028"><ele>539.3333333333334</ele><time>2026-03-22T15:10:34.009Z</time></trkpt><trkpt lat="43.4563633" lon="10.9502467"><ele>537.6666666666666</ele><time>2026-03-22T15:10:35.01Z</time></trkpt><trkpt lat="43.4565633" lon="10.9502317"><ele>536.0</ele><time>2026-03-22T15:10:36.01Z</time></trkpt><trkpt lat="43.4567717" lon="10.950225"><ele>536.0</ele><time>2026-03-22T15:10:37.01Z</time></trkpt><trkpt lat="43.4569833" lon="10.9502133"><ele>536.0</ele><time>2026-03-22T15:10:38.011Z</time></trkpt><trkpt lat="43.4571983" lon="10.9501967"><ele>536.0</ele><time>2026-03-22T15:10:39.01Z</time></trkpt><trkpt lat="43.4574133" lon="10.9501833"><ele>535.6666666666666</ele><time>2026-03-22T15:10:40.01Z</time></trkpt><trkpt lat="43.4576267" lon="10.9501767"><ele>535.3333333333334</ele><time>2026-03-22T15:10:41.009Z</time></trkpt><trkpt lat="43.4578383" lon="10.950175"><ele>535.0</ele><time>2026-03-22T15:10:42.009Z</time></trkpt><trkpt lat="43.4580483" lon="10.9501717"><ele>534.0</ele><time>2026-03-22T15:10:43.009Z</time></trkpt><trkpt lat="43.4582533" lon="10.9501667"><ele>533.0</ele><time>2026-03-22T15:10:44.01Z</time></trkpt><trkpt lat="43.4584583" lon="10.9501917"><ele>532.0</ele><time>2026-03-22T15:10:45.01Z</time></trkpt><trkpt lat="43.458655" lon="10.95024"><ele>533.6666666666667</ele><time>2026-03-22T15:10:46.01Z</time></trkpt><trkpt lat="43.458845" lon="10.95028"><ele>535.3333333333334</ele><time>2026-03-22T15:10:47.012Z</time></trkpt><trkpt lat="43.4590367" lon="10.9503067"><ele>537.0</ele><time>2026-03-22T15:10:48.01Z</time></trkpt><trkpt lat="43.4592333" lon="10.95032"><ele>537.0</ele><time>2026-03-22T15:10:49.01Z</time></trkpt><trkpt lat="43.4594317" lon="10.95033"><ele>537.0</ele><time>2026-03-22T15:10:50.01Z</time></trkpt><trkpt lat="43.4596333" lon="10.9503333"><ele>537.0</ele><time>2026-03-22T15:10:51.01Z</time></trkpt><trkpt lat="43.4598383" lon="10.9503333"><ele>537.0</ele><time>2026-03-22T15:10:52.01Z</time></trkpt><trkpt lat="43.46005" lon="10.9503533"><ele>537.0</ele><time>2026-03-22T15:10:53.01Z</time></trkpt><trkpt lat="43.4602517" lon="10.9503883"><ele>537.0</ele><time>2026-03-22T15:10:54.01Z</time></trkpt><trkpt lat="43.4604383" lon="10.9504483"><ele>535.0</ele><time>2026-03-22T15:10:55.01Z</time></trkpt><trkpt lat="43.4606183" lon="10.9505217"><ele>533.0</ele><time>2026-03-22T15:10:56.011Z</time></trkpt><trkpt lat="43.460795" lon="10.9505733"><ele>531.0</ele><time>2026-03-22T15:10:57.01Z</time></trkpt><trkpt lat="43.4609717" lon="10.9505767"><ele>531.0</ele><time>2026-03-22T15:10:58.011Z</time></trkpt><trkpt lat="43.4611433" lon="10.9505483"><ele>531.0</ele><time>2026-03-22T15:10:59.009Z</time></trkpt><trkpt lat="43.4613067" lon="10.9505"><ele>531.0</ele><time>2026-03-22T15:11:00.01Z</time></trkpt><trkpt lat="43.4614533" lon="10.9504783"><ele>530.0</ele><time>2026-03-22T15:11:01.009Z</time></trkpt><trkpt lat="43.4615917" lon="10.9505033"><ele>529.0</ele><time>2026-03-22T15:11:02.01Z</time></trkpt><trkpt lat="43.4617167" lon="10.9505767"><ele>528.0</ele><time>2026-03-22T15:11:03.01Z</time></trkpt><trkpt lat="43.4618367" lon="10.9506917"><ele>527.0</ele><time>2026-03-22T15:11:04.008Z</time></trkpt><trkpt lat="43.4619467" lon="10.9508333"><ele>523.6666666666666</ele><time>2026-03-22T15:11:05.101Z</time></trkpt><trkpt lat="43.462065" lon="10.9509617"><ele>520.3333333333334</ele><time>2026-03-22T15:11:06.01Z</time></trkpt><trkpt lat="43.4622183" lon="10.9510633"><ele>517.0</ele><time>2026-03-22T15:11:07.01Z</time></trkpt><trkpt lat="43.46238" lon="10.9511433"><ele>517.0</ele><time>2026-03-22T15:11:08.01Z</time></trkpt><trkpt lat="43.46254" lon="10.95121"><ele>517.0</ele><time>2026-03-22T15:11:09.01Z</time></trkpt><trkpt lat="43.46269" lon="10.95127"><ele>517.0</ele><time>2026-03-22T15:11:10.013Z</time></trkpt><trkpt lat="43.46283" lon="10.951345"><ele>517.25</ele><time>2026-03-22T15:11:11.009Z</time></trkpt><trkpt lat="43.4629517" lon="10.95143"><ele>517.5</ele><time>2026-03-22T15:11:12.01Z</time></trkpt><trkpt lat="43.4630533" lon="10.951555"><ele>517.75</ele><time>2026-03-22T15:11:13.01Z</time></trkpt><trkpt lat="43.4631283" lon="10.9517067"><ele>518.0</ele><time>2026-03-22T15:11:14.009Z</time></trkpt><trkpt lat="43.4632" lon="10.9518617"><ele>515.25</ele><time>2026-03-22T15:11:15.01Z</time></trkpt><trkpt lat="43.463295" lon="10.9519967"><ele>512.5</ele><time>2026-03-22T15:11:16.012Z</time></trkpt><trkpt lat="43.4634083" lon="10.9520867"><ele>509.75</ele><time>2026-03-22T15:11:17.011Z</time></trkpt><trkpt lat="43.4635467" lon="10.9521217"><ele>507.0</ele><time>2026-03-22T15:11:18.01Z</time></trkpt><trkpt lat="43.4637017" lon="10.9521083"><ele>504.33333333333337</ele><time>2026-03-22T15:11:19.01Z</time></trkpt><trkpt lat="43.463875" lon="10.952065"><ele>501.6666666666667</ele><time>2026-03-22T15:11:20.011Z</time></trkpt><trkpt lat="43.4640633" lon="10.9520083"><ele>499.0</ele><time>2026-03-22T15:11:21.01Z</time></trkpt><trkpt lat="43.4642483" lon="10.9519383"><ele>499.0</ele><time>2026-03-22T15:11:22.01Z</time></trkpt><trkpt lat="43.4644383" lon="10.9518717"><ele>499.0</ele><time>2026-03-22T15:11:23.01Z</time></trkpt><trkpt lat="43.4646333" lon="10.9518067"><ele>499.0</ele><time>2026-03-22T15:11:24.009Z</time></trkpt><trkpt lat="43.4648333" lon="10.9517367"><ele>500.33333333333337</ele><time>2026-03-22T15:11:25.01Z</time></trkpt><trkpt lat="43.465025" lon="10.9516683"><ele>501.66666666666663</ele><time>2026-03-22T15:11:26.01Z</time></trkpt><trkpt lat="43.4652217" lon="10.9516133"><ele>503.0</ele><time>2026-03-22T15:11:27.01Z</time></trkpt><trkpt lat="43.4654067" lon="10.9515633"><ele>501.0</ele><time>2026-03-22T15:11:28.01Z</time></trkpt><trkpt lat="43.46559" lon="10.9515167"><ele>499.0</ele><time>2026-03-22T15:11:29.01Z</time></trkpt><trkpt lat="43.4657617" lon="10.9514667"><ele>497.0</ele><time>2026-03-22T15:11:30.01Z</time></trkpt><trkpt lat="43.4659233" lon="10.9514183"><ele>497.0</ele><time>2026-03-22T15:11:31.01Z</time></trkpt><trkpt lat="43.4660717" lon="10.9513583"><ele>497.0</ele><time>2026-03-22T15:11:32.009Z</time></trkpt><trkpt lat="43.4662167" lon="10.951275"><ele>497.0</ele><time>2026-03-22T15:11:33.009Z</time></trkpt><trkpt lat="43.4663583" lon="10.9511617"><ele>497.66666666666663</ele><time>2026-03-22T15:11:34.009Z</time></trkpt><trkpt lat="43.4665067" lon="10.9510383"><ele>498.33333333333337</ele><time>2026-03-22T15:11:35.008Z</time></trkpt><trkpt lat="43.4666617" lon="10.950895"><ele>499.0</ele><time>2026-03-22T15:11:36.01Z</time></trkpt><trkpt lat="43.46682" lon="10.95074"><ele>499.0</ele><time>2026-03-22T15:11:37.009Z</time></trkpt><trkpt lat="43.4669833" lon="10.950575"><ele>499.0</ele><time>2026-03-22T15:11:38.009Z</time></trkpt><trkpt lat="43.4671533" lon="10.9504133"><ele>499.0</ele><time>2026-03-22T15:11:39.009Z</time></trkpt><trkpt lat="43.4673267" lon="10.950265"><ele>496.0</ele><time>2026-03-22T15:11:40.009Z</time></trkpt><trkpt lat="43.4674967" lon="10.950135"><ele>493.0</ele><time>2026-03-22T15:11:41.01Z</time></trkpt><trkpt lat="43.4676633" lon="10.95002"><ele>490.0</ele><time>2026-03-22T15:11:42.009Z</time></trkpt><trkpt lat="43.4678233" lon="10.9499233"><ele>488.33333333333337</ele><time>2026-03-22T15:11:43.009Z</time></trkpt><trkpt lat="43.46798" lon="10.9498583"><ele>486.66666666666663</ele><time>2026-03-22T15:11:44.009Z</time></trkpt><trkpt lat="43.468135" lon="10.94983"><ele>485.0</ele><time>2026-03-22T15:11:45.01Z</time></trkpt><trkpt lat="43.4682917" lon="10.949835"><ele>485.0</ele><time>2026-03-22T15:11:46.009Z</time></trkpt><trkpt lat="43.4684417" lon="10.94987"><ele>485.0</ele><time>2026-03-22T15:11:47.009Z</time></trkpt><trkpt lat="43.4685833" lon="10.9499267"><ele>485.0</ele><time>2026-03-22T15:11:48.009Z</time></trkpt><trkpt lat="43.4687067" lon="10.950025"><ele>485.0</ele><time>2026-03-22T15:11:49.009Z</time></trkpt><trkpt lat="43.4688133" lon="10.9501833"><ele>483.0</ele><time>2026-03-22T15:11:50.01Z</time></trkpt><trkpt lat="43.4689117" lon="10.9503667"><ele>481.0</ele><time>2026-03-22T15:11:51.009Z</time></trkpt><trkpt lat="43.4690083" lon="10.9505517"><ele>479.0</ele><time>2026-03-22T15:11:52.01Z</time></trkpt><trkpt lat="43.4691167" lon="10.95071"><ele>479.0</ele><time>2026-03-22T15:11:53.01Z</time></trkpt><trkpt lat="43.4692367" lon="10.950845"><ele>479.0</ele><time>2026-03-22T15:11:54.011Z</time></trkpt><trkpt lat="43.4693783" lon="10.95094"><ele>479.0</ele><time>2026-03-22T15:11:55.01Z</time></trkpt><trkpt lat="43.469545" lon="10.9509967"><ele>474.66666666666663</ele><time>2026-03-22T15:11:56.01Z</time></trkpt><trkpt lat="43.4697267" lon="10.9510217"><ele>470.33333333333337</ele><time>2026-03-22T15:11:57.01Z</time></trkpt><trkpt lat="43.46992" lon="10.9510417"><ele>466.0</ele><time>2026-03-22T15:11:58.01Z</time></trkpt><trkpt lat="43.4701317" lon="10.9510683"><ele>466.0</ele><time>2026-03-22T15:11:59.01Z</time></trkpt><trkpt lat="43.4703383" lon="10.9511"><ele>466.0</ele><time>2026-03-22T15:12:00.01Z</time></trkpt><trkpt lat="43.4705417" lon="10.951145"><ele>466.0</ele><time>2026-03-22T15:12:01.01Z</time></trkpt><trkpt lat="43.4707433" lon="10.9512033"><ele>464.0</ele><time>2026-03-22T15:12:02.01Z</time></trkpt><trkpt lat="43.4709317" lon="10.9512667"><ele>462.0</ele><time>2026-03-22T15:12:03.01Z</time></trkpt><trkpt lat="43.471105" lon="10.9513317"><ele>460.0</ele><time>2026-03-22T15:12:04.01Z</time></trkpt><trkpt lat="43.4712817" lon="10.9513517"><ele>460.0</ele><time>2026-03-22T15:12:05.012Z</time></trkpt><trkpt lat="43.4714633" lon="10.9513133"><ele>460.0</ele><time>2026-03-22T15:12:06.012Z</time></trkpt><trkpt lat="43.4716417" lon="10.9512517"><ele>460.0</ele><time>2026-03-22T15:12:07.011Z</time></trkpt><trkpt lat="43.471815" lon="10.951195"><ele>460.0</ele><time>2026-03-22T15:12:08.011Z</time></trkpt><trkpt lat="43.4719817" lon="10.9511633"><ele>460.0</ele><time>2026-03-22T15:12:09.01Z</time></trkpt><trkpt lat="43.472145" lon="10.951165"><ele>460.0</ele><time>2026-03-22T15:12:10.012Z</time></trkpt><trkpt lat="43.4723033" lon="10.9512167"><ele>460.6666666666667</ele><time>2026-03-22T15:12:11.011Z</time></trkpt><trkpt lat="43.4724583" lon="10.9512983"><ele>461.33333333333337</ele><time>2026-03-22T15:12:12.01Z</time></trkpt><trkpt lat="43.4726183" lon="10.9513967"><ele>462.0</ele><time>2026-03-22T15:12:13.009Z</time></trkpt><trkpt lat="43.47278" lon="10.9514817"><ele>464.0</ele><time>2026-03-22T15:12:14.01Z</time></trkpt><trkpt lat="43.472945" lon="10.9515383"><ele>466.0</ele><time>2026-03-22T15:12:15.01Z</time></trkpt><trkpt lat="43.4731133" lon="10.9515683"><ele>468.0</ele><time>2026-03-22T15:12:16.011Z</time></trkpt><trkpt lat="43.4732683" lon="10.9516083"><ele>468.0</ele><time>2026-03-22T15:12:17.009Z</time></trkpt><trkpt lat="43.4734217" lon="10.9516883"><ele>468.0</ele><time>2026-03-22T15:12:18.009Z</time></trkpt><trkpt lat="43.4735667" lon="10.9517933"><ele>468.0</ele><time>2026-03-22T15:12:19.01Z</time></trkpt><trkpt lat="43.4736883" lon="10.9519283"><ele>466.5</ele><time>2026-03-22T15:12:20.01Z</time></trkpt><trkpt lat="43.4738" lon="10.952055"><ele>465.0</ele><time>2026-03-22T15:12:21.009Z</time></trkpt><trkpt lat="43.4739067" lon="10.95217"><ele>463.5</ele><time>2026-03-22T15:12:22.01Z</time></trkpt><trkpt lat="43.4740167" lon="10.9522717"><ele>462.0</ele><time>2026-03-22T15:12:23.01Z</time></trkpt><trkpt lat="43.4741417" lon="10.9523533"><ele>462.0</ele><time>2026-03-22T15:12:24.009Z</time></trkpt><trkpt lat="43.474285" lon="10.9523933"><ele>462.0</ele><time>2026-03-22T15:12:25.01Z</time></trkpt><trkpt lat="43.474435" lon="10.9524167"><ele>462.0</ele><time>2026-03-22T15:12:26.01Z</time></trkpt><trkpt lat="43.47461" lon="10.952425"><ele>462.66666666666663</ele><time>2026-03-22T15:12:27.009Z</time></trkpt><trkpt lat="43.4747833" lon="10.952475"><ele>463.3333333333333</ele><time>2026-03-22T15:12:28.009Z</time></trkpt><trkpt lat="43.4749683" lon="10.952545"><ele>464.0</ele><time>2026-03-22T15:12:29.009Z</time></trkpt><trkpt lat="43.4751633" lon="10.9526433"><ele>461.66666666666663</ele><time>2026-03-22T15:12:30.008Z</time></trkpt><trkpt lat="43.4753667" lon="10.9527283"><ele>459.33333333333337</ele><time>2026-03-22T15:12:31.009Z</time></trkpt><trkpt lat="43.4755717" lon="10.9528183"><ele>457.0</ele><time>2026-03-22T15:12:32.01Z</time></trkpt><trkpt lat="43.475775" lon="10.9529067"><ele>457.0</ele><time>2026-03-22T15:12:33.009Z</time></trkpt><trkpt lat="43.47596" lon="10.953005"><ele>457.0</ele><time>2026-03-22T15:12:34.009Z</time></trkpt><trkpt lat="43.47613" lon="10.9531167"><ele>457.0</ele><time>2026-03-22T15:12:35.011Z</time></trkpt><trkpt lat="43.476285" lon="10.9532383"><ele>459.0</ele><time>2026-03-22T15:12:36.011Z</time></trkpt><trkpt lat="43.4764383" lon="10.9533667"><ele>461.0</ele><time>2026-03-22T15:12:37.01Z</time></trkpt><trkpt lat="43.4766" lon="10.9535"><ele>463.0</ele><time>2026-03-22T15:12:38.01Z</time></trkpt><trkpt lat="43.4767717" lon="10.9536333"><ele>463.0</ele><time>2026-03-22T15:12:39.009Z</time></trkpt><trkpt lat="43.47695" lon="10.9537767"><ele>463.0</ele><time>2026-03-22T15:12:40.009Z</time></trkpt><trkpt lat="43.47713" lon="10.95393"><ele>463.0</ele><time>2026-03-22T15:12:41.009Z</time></trkpt><trkpt lat="43.4773067" lon="10.954075"><ele>462.33333333333337</ele><time>2026-03-22T15:12:42.01Z</time></trkpt><trkpt lat="43.4774717" lon="10.95421"><ele>461.66666666666663</ele><time>2026-03-22T15:12:43.01Z</time></trkpt><trkpt lat="43.477625" lon="10.95433"><ele>461.0</ele><time>2026-03-22T15:12:44.01Z</time></trkpt><trkpt lat="43.477775" lon="10.954435"><ele>461.0</ele><time>2026-03-22T15:12:45.009Z</time></trkpt><trkpt lat="43.4779267" lon="10.9544783"><ele>461.0</ele><time>2026-03-22T15:12:46.008Z</time></trkpt><trkpt lat="43.4780833" lon="10.9544667"><ele>461.0</ele><time>2026-03-22T15:12:47.01Z</time></trkpt><trkpt lat="43.47824" lon="10.9544517"><ele>465.66666666666663</ele><time>2026-03-22T15:12:48.01Z</time></trkpt><trkpt lat="43.4783983" lon="10.954465"><ele>470.33333333333337</ele><time>2026-03-22T15:12:49.009Z</time></trkpt><trkpt lat="43.4785483" lon="10.9544833"><ele>475.0</ele><time>2026-03-22T15:12:50.011Z</time></trkpt><trkpt lat="43.4786933" lon="10.9544817"><ele>474.75</ele><time>2026-03-22T15:12:51.01Z</time></trkpt><trkpt lat="43.4788367" lon="10.9544633"><ele>474.5</ele><time>2026-03-22T15:12:52.009Z</time></trkpt><trkpt lat="43.47898" lon="10.9544283"><ele>474.25</ele><time>2026-03-22T15:12:53.008Z</time></trkpt><trkpt lat="43.4791283" lon="10.9543967"><ele>474.0</ele><time>2026-03-22T15:12:54.011Z</time></trkpt><trkpt lat="43.4792717" lon="10.9543433"><ele>474.0</ele><time>2026-03-22T15:12:55.009Z</time></trkpt><trkpt lat="43.4794233" lon="10.95427"><ele>474.0</ele><time>2026-03-22T15:12:56.01Z</time></trkpt><trkpt lat="43.47958" lon="10.9541983"><ele>474.0</ele><time>2026-03-22T15:12:57.009Z</time></trkpt><trkpt lat="43.4797417" lon="10.9541217"><ele>472.33333333333337</ele><time>2026-03-22T15:12:58.01Z</time></trkpt><trkpt lat="43.4799" lon="10.9540517"><ele>470.6666666666667</ele><time>2026-03-22T15:12:59.01Z</time></trkpt><trkpt lat="43.480055" lon="10.9539917"><ele>469.0</ele><time>2026-03-22T15:13:00.009Z</time></trkpt><trkpt lat="43.4802017" lon="10.9539383"><ele>469.0</ele><time>2026-03-22T15:13:01.01Z</time></trkpt><trkpt lat="43.48033" lon="10.9538817"><ele>469.0</ele><time>2026-03-22T15:13:02.01Z</time></trkpt><trkpt lat="43.4804367" lon="10.9538283"><ele>469.0</ele><time>2026-03-22T15:13:03.01Z</time></trkpt><trkpt lat="43.4805283" lon="10.9537883"><ele>469.0</ele><time>2026-03-22T15:13:04.009Z</time></trkpt><trkpt lat="43.4805967" lon="10.953765"><ele>469.0</ele><time>2026-03-22T15:13:05.009Z</time></trkpt><trkpt lat="43.480685" lon="10.9537567"><ele>469.0</ele><time>2026-03-22T15:13:07.01Z</time></trkpt><trkpt lat="43.4807483" lon="10.9536567"><ele>469.0</ele><time>2026-03-22T15:13:15.009Z</time></trkpt><trkpt lat="43.48082" lon="10.9535717"><ele>469.0</ele><time>2026-03-22T15:13:16.01Z</time></trkpt><trkpt lat="43.4809333" lon="10.9534767"><ele>469.0</ele><time>2026-03-22T15:13:17.011Z</time></trkpt><trkpt lat="43.4810483" lon="10.95338"><ele>469.0</ele><time>2026-03-22T15:13:18.011Z</time></trkpt><trkpt lat="43.4811617" lon="10.95327"><ele>469.0</ele><time>2026-03-22T15:13:19.013Z</time></trkpt><trkpt lat="43.4812767" lon="10.9531483"><ele>469.0</ele><time>2026-03-22T15:13:20.011Z</time></trkpt><trkpt lat="43.48139" lon="10.953015"><ele>469.0</ele><time>2026-03-22T15:13:21.011Z</time></trkpt><trkpt lat="43.4815" lon="10.952875"><ele>469.0</ele><time>2026-03-22T15:13:22.011Z</time></trkpt><trkpt lat="43.4816067" lon="10.95275"><ele>469.0</ele><time>2026-03-22T15:13:23.011Z</time></trkpt><trkpt lat="43.481735" lon="10.9526733"><ele>469.0</ele><time>2026-03-22T15:13:24.01Z</time></trkpt><trkpt lat="43.481855" lon="10.9526433"><ele>469.0</ele><time>2026-03-22T15:13:25.009Z</time></trkpt><trkpt lat="43.4819817" lon="10.952675"><ele>470.0</ele><time>2026-03-22T15:13:26.011Z</time></trkpt><trkpt lat="43.4821083" lon="10.9527483"><ele>471.0</ele><time>2026-03-22T15:13:27.01Z</time></trkpt><trkpt lat="43.4822483" lon="10.9528317"><ele>472.0</ele><time>2026-03-22T15:13:28.01Z</time></trkpt><trkpt lat="43.482395" lon="10.952875"><ele>473.0</ele><time>2026-03-22T15:13:29.01Z</time></trkpt><trkpt lat="43.4825433" lon="10.952875"><ele>473.0</ele><time>2026-03-22T15:13:30.009Z</time></trkpt><trkpt lat="43.48272" lon="10.952855"><ele>473.0</ele><time>2026-03-22T15:13:31.01Z</time></trkpt><trkpt lat="43.48292" lon="10.952835"><ele>473.0</ele><time>2026-03-22T15:13:32.011Z</time></trkpt><trkpt lat="43.483125" lon="10.95282"><ele>470.66666666666663</ele><time>2026-03-22T15:13:33.01Z</time></trkpt><trkpt lat="43.4833317" lon="10.9528133"><ele>468.33333333333337</ele><time>2026-03-22T15:13:34.011Z</time></trkpt><trkpt lat="43.48352" lon="10.9527967"><ele>466.0</ele><time>2026-03-22T15:13:35.01Z</time></trkpt><trkpt lat="43.4836983" lon="10.9527833"><ele>466.6666666666667</ele><time>2026-03-22T15:13:36.01Z</time></trkpt><trkpt lat="43.48386" lon="10.9527617"><ele>467.33333333333337</ele><time>2026-03-22T15:13:37.01Z</time></trkpt><trkpt lat="43.484015" lon="10.9527417"><ele>468.0</ele><time>2026-03-22T15:13:38.01Z</time></trkpt><trkpt lat="43.4841567" lon="10.9527117"><ele>468.0</ele><time>2026-03-22T15:13:39.01Z</time></trkpt><trkpt lat="43.484295" lon="10.9526517"><ele>468.0</ele><time>2026-03-22T15:13:40.011Z</time></trkpt><trkpt lat="43.48441" lon="10.9525483"><ele>468.0</ele><time>2026-03-22T15:13:41.01Z</time></trkpt><trkpt lat="43.484525" lon="10.9524117"><ele>468.0</ele><time>2026-03-22T15:13:42.011Z</time></trkpt><trkpt lat="43.4846267" lon="10.952245"><ele>467.66666666666663</ele><time>2026-03-22T15:13:43.01Z</time></trkpt><trkpt lat="43.4847133" lon="10.9520683"><ele>467.3333333333333</ele><time>2026-03-22T15:13:44.009Z</time></trkpt><trkpt lat="43.4847917" lon="10.9518917"><ele>467.0</ele><time>2026-03-22T15:13:45.011Z</time></trkpt><trkpt lat="43.4848517" lon="10.9517067"><ele>467.0</ele><time>2026-03-22T15:13:46.012Z</time></trkpt><trkpt lat="43.4848967" lon="10.9515133"><ele>467.0</ele><time>2026-03-22T15:13:47.012Z</time></trkpt><trkpt lat="43.4849017" lon="10.9513083"><ele>467.0</ele><time>2026-03-22T15:13:48.011Z</time></trkpt><trkpt lat="43.4848767" lon="10.9511033"><ele>467.0</ele><time>2026-03-22T15:13:49.011Z</time></trkpt><trkpt lat="43.4848583" lon="10.9509217"><ele>465.8</ele><time>2026-03-22T15:13:50.012Z</time></trkpt><trkpt lat="43.4848583" lon="10.95076"><ele>464.6</ele><time>2026-03-22T15:13:51.011Z</time></trkpt><trkpt lat="43.4848783" lon="10.9506217"><ele>463.40000000000003</ele><time>2026-03-22T15:13:52.01Z</time></trkpt><trkpt lat="43.4849317" lon="10.9505083"><ele>462.20000000000005</ele><time>2026-03-22T15:13:53.011Z</time></trkpt><trkpt lat="43.4850083" lon="10.950425"><ele>461.0</ele><time>2026-03-22T15:13:54.009Z</time></trkpt><trkpt lat="43.485095" lon="10.950355"><ele>461.0</ele><time>2026-03-22T15:13:55.01Z</time></trkpt><trkpt lat="43.4851917" lon="10.9502917"><ele>461.0</ele><time>2026-03-22T15:13:56.011Z</time></trkpt><trkpt lat="43.4852783" lon="10.9502067"><ele>461.0</ele><time>2026-03-22T15:13:57.01Z</time></trkpt><trkpt lat="43.48534" lon="10.9501"><ele>461.0</ele><time>2026-03-22T15:13:58.01Z</time></trkpt><trkpt lat="43.4853867" lon="10.9499733"><ele>461.0</ele><time>2026-03-22T15:13:59.011Z</time></trkpt><trkpt lat="43.4854033" lon="10.9498033"><ele>456.0</ele><time>2026-03-22T15:14:00.011Z</time></trkpt><trkpt lat="43.4854" lon="10.9496"><ele>451.0</ele><time>2026-03-22T15:14:01.01Z</time></trkpt><trkpt lat="43.4853817" lon="10.949335"><ele>446.0</ele><time>2026-03-22T15:14:02.01Z</time></trkpt><trkpt lat="43.4853767" lon="10.9490583"><ele>443.3333333333333</ele><time>2026-03-22T15:14:03.011Z</time></trkpt><trkpt lat="43.4853767" lon="10.9487717"><ele>440.66666666666663</ele><time>2026-03-22T15:14:04.01Z</time></trkpt><trkpt lat="43.4853933" lon="10.9484917"><ele>438.0</ele><time>2026-03-22T15:14:05.011Z</time></trkpt><trkpt lat="43.48542" lon="10.9482133"><ele>440.0</ele><time>2026-03-22T15:14:06.011Z</time></trkpt><trkpt lat="43.4854783" lon="10.94795"><ele>442.0</ele><time>2026-03-22T15:14:07.009Z</time></trkpt><trkpt lat="43.485545" lon="10.947695"><ele>444.0</ele><time>2026-03-22T15:14:08.01Z</time></trkpt><trkpt lat="43.4856083" lon="10.947445"><ele>444.0</ele><time>2026-03-22T15:14:09.01Z</time></trkpt><trkpt lat="43.4856733" lon="10.9472"><ele>444.0</ele><time>2026-03-22T15:14:10.011Z</time></trkpt><trkpt lat="43.4857317" lon="10.946975"><ele>444.0</ele><time>2026-03-22T15:14:11.011Z</time></trkpt><trkpt lat="43.4857883" lon="10.9467633"><ele>443.66666666666663</ele><time>2026-03-22T15:14:12.01Z</time></trkpt><trkpt lat="43.4858483" lon="10.9465617"><ele>443.3333333333333</ele><time>2026-03-22T15:14:13.01Z</time></trkpt><trkpt lat="43.4859133" lon="10.946365"><ele>443.0</ele><time>2026-03-22T15:14:14.011Z</time></trkpt><trkpt lat="43.4859917" lon="10.94617"><ele>443.0</ele><time>2026-03-22T15:14:15.01Z</time></trkpt><trkpt lat="43.4860967" lon="10.9459833"><ele>443.0</ele><time>2026-03-22T15:14:16.01Z</time></trkpt><trkpt lat="43.4862167" lon="10.9457983"><ele>443.0</ele><time>2026-03-22T15:14:17.01Z</time></trkpt><trkpt lat="43.4863467" lon="10.9456233"><ele>443.3333333333333</ele><time>2026-03-22T15:14:18.01Z</time></trkpt><trkpt lat="43.4864683" lon="10.9454517"><ele>443.66666666666663</ele><time>2026-03-22T15:14:19.01Z</time></trkpt><trkpt lat="43.486575" lon="10.94527"><ele>444.0</ele><time>2026-03-22T15:14:20.01Z</time></trkpt><trkpt lat="43.486665" lon="10.9450517"><ele>443.66666666666663</ele><time>2026-03-22T15:14:21.01Z</time></trkpt><trkpt lat="43.486735" lon="10.94479"><ele>443.3333333333333</ele><time>2026-03-22T15:14:22.01Z</time></trkpt><trkpt lat="43.486805" lon="10.944525"><ele>443.0</ele><time>2026-03-22T15:14:23.01Z</time></trkpt><trkpt lat="43.4868783" lon="10.944275"><ele>443.0</ele><time>2026-03-22T15:14:24.01Z</time></trkpt><trkpt lat="43.48694" lon="10.9440383"><ele>443.0</ele><time>2026-03-22T15:14:25.01Z</time></trkpt><trkpt lat="43.48699" lon="10.943825"><ele>443.0</ele><time>2026-03-22T15:14:26.011Z</time></trkpt><trkpt lat="43.4870483" lon="10.9436317"><ele>448.3333333333333</ele><time>2026-03-22T15:14:27.011Z</time></trkpt><trkpt lat="43.4871267" lon="10.9434517"><ele>453.66666666666663</ele><time>2026-03-22T15:14:28.01Z</time></trkpt><trkpt lat="43.4872333" lon="10.94328"><ele>459.0</ele><time>2026-03-22T15:14:29.011Z</time></trkpt><trkpt lat="43.48736" lon="10.9431083"><ele>459.0</ele><time>2026-03-22T15:14:30.01Z</time></trkpt><trkpt lat="43.4874967" lon="10.9429317"><ele>459.0</ele><time>2026-03-22T15:14:31.01Z</time></trkpt><trkpt lat="43.4876367" lon="10.94276"><ele>459.0</ele><time>2026-03-22T15:14:32.011Z</time></trkpt><trkpt lat="43.487775" lon="10.9425917"><ele>459.66666666666663</ele><time>2026-03-22T15:14:33.01Z</time></trkpt><trkpt lat="43.4878917" lon="10.9424067"><ele>460.3333333333333</ele><time>2026-03-22T15:14:34.01Z</time></trkpt><trkpt lat="43.4879883" lon="10.9421867"><ele>461.0</ele><time>2026-03-22T15:14:35.012Z</time></trkpt><trkpt lat="43.4880667" lon="10.9419417"><ele>459.3333333333333</ele><time>2026-03-22T15:14:36.011Z</time></trkpt><trkpt lat="43.4881217" lon="10.9416917"><ele>457.66666666666663</ele><time>2026-03-22T15:14:37.011Z</time></trkpt><trkpt lat="43.4881583" lon="10.941475"><ele>456.0</ele><time>2026-03-22T15:14:38.011Z</time></trkpt><trkpt lat="43.4882033" lon="10.9412817"><ele>456.0</ele><time>2026-03-22T15:14:39.01Z</time></trkpt><trkpt lat="43.4882733" lon="10.94112"><ele>456.0</ele><time>2026-03-22T15:14:40.011Z</time></trkpt><trkpt lat="43.48838" lon="10.9409883"><ele>456.0</ele><time>2026-03-22T15:14:41.011Z</time></trkpt><trkpt lat="43.4885283" lon="10.940895"><ele>456.0</ele><time>2026-03-22T15:14:42.01Z</time></trkpt><trkpt lat="43.488675" lon="10.9408"><ele>454.0</ele><time>2026-03-22T15:14:43.01Z</time></trkpt><trkpt lat="43.488825" lon="10.940705"><ele>452.0</ele><time>2026-03-22T15:14:44.01Z</time></trkpt><trkpt lat="43.48897" lon="10.94061"><ele>450.0</ele><time>2026-03-22T15:14:45.01Z</time></trkpt><trkpt lat="43.4891017" lon="10.9405133"><ele>450.0</ele><time>2026-03-22T15:14:46.01Z</time></trkpt><trkpt lat="43.489215" lon="10.9404"><ele>450.0</ele><time>2026-03-22T15:14:47.01Z</time></trkpt><trkpt lat="43.4893133" lon="10.9402533"><ele>450.0</ele><time>2026-03-22T15:14:48.01Z</time></trkpt><trkpt lat="43.48938" lon="10.94008"><ele>450.0</ele><time>2026-03-22T15:14:49.01Z</time></trkpt><trkpt lat="43.48943" lon="10.9398817"><ele>451.0</ele><time>2026-03-22T15:14:50.01Z</time></trkpt><trkpt lat="43.4894517" lon="10.9396483"><ele>452.0</ele><time>2026-03-22T15:14:51.011Z</time></trkpt><trkpt lat="43.4894733" lon="10.93939"><ele>453.0</ele><time>2026-03-22T15:14:52.01Z</time></trkpt><trkpt lat="43.4895" lon="10.9391267"><ele>453.0</ele><time>2026-03-22T15:14:53.01Z</time></trkpt><trkpt lat="43.4895267" lon="10.9388617"><ele>453.0</ele><time>2026-03-22T15:14:54.01Z</time></trkpt><trkpt lat="43.4895567" lon="10.93858"><ele>453.0</ele><time>2026-03-22T15:14:55.01Z</time></trkpt><trkpt lat="43.4895867" lon="10.93829"><ele>451.66666666666663</ele><time>2026-03-22T15:14:56.01Z</time></trkpt><trkpt lat="43.48961" lon="10.9380067"><ele>450.3333333333333</ele><time>2026-03-22T15:14:57.01Z</time></trkpt><trkpt lat="43.4896367" lon="10.9377267"><ele>449.0</ele><time>2026-03-22T15:14:58.011Z</time></trkpt><trkpt lat="43.4896617" lon="10.9374583"><ele>449.0</ele><time>2026-03-22T15:14:59.011Z</time></trkpt><trkpt lat="43.4896883" lon="10.9371883"><ele>449.0</ele><time>2026-03-22T15:15:00.012Z</time></trkpt><trkpt lat="43.489715" lon="10.9369217"><ele>449.0</ele><time>2026-03-22T15:15:01.01Z</time></trkpt><trkpt lat="43.4897433" lon="10.9366567"><ele>449.3333333333333</ele><time>2026-03-22T15:15:02.011Z</time></trkpt><trkpt lat="43.4897717" lon="10.9363933"><ele>449.66666666666663</ele><time>2026-03-22T15:15:03.01Z</time></trkpt><trkpt lat="43.4898017" lon="10.9361317"><ele>450.0</ele><time>2026-03-22T15:15:04.009Z</time></trkpt><trkpt lat="43.489825" lon="10.9358817"><ele>451.33333333333337</ele><time>2026-03-22T15:15:05.01Z</time></trkpt><trkpt lat="43.4898483" lon="10.9356433"><ele>452.6666666666667</ele><time>2026-03-22T15:15:06.009Z</time></trkpt><trkpt lat="43.4898767" lon="10.9354067"><ele>454.0</ele><time>2026-03-22T15:15:07.01Z</time></trkpt><trkpt lat="43.4899017" lon="10.9351783"><ele>455.33333333333337</ele><time>2026-03-22T15:15:08.011Z</time></trkpt><trkpt lat="43.4899233" lon="10.9349583"><ele>456.66666666666663</ele><time>2026-03-22T15:15:09.01Z</time></trkpt><trkpt lat="43.489945" lon="10.9347467"><ele>458.0</ele><time>2026-03-22T15:15:10.01Z</time></trkpt><trkpt lat="43.4899667" lon="10.9345433"><ele>458.0</ele><time>2026-03-22T15:15:11.009Z</time></trkpt><trkpt lat="43.4899867" lon="10.934335"><ele>458.0</ele><time>2026-03-22T15:15:12.01Z</time></trkpt><trkpt lat="43.490005" lon="10.9341383"><ele>458.0</ele><time>2026-03-22T15:15:13.01Z</time></trkpt><trkpt lat="43.490025" lon="10.93395"><ele>458.0</ele><time>2026-03-22T15:15:14.011Z</time></trkpt><trkpt lat="43.490045" lon="10.9337667"><ele>458.0</ele><time>2026-03-22T15:15:15.01Z</time></trkpt><trkpt lat="43.4900617" lon="10.93359"><ele>458.0</ele><time>2026-03-22T15:15:16.009Z</time></trkpt><trkpt lat="43.4900767" lon="10.9334217"><ele>458.0</ele><time>2026-03-22T15:15:17.01Z</time></trkpt><trkpt lat="43.49009" lon="10.933255"><ele>458.0</ele><time>2026-03-22T15:15:18.01Z</time></trkpt><trkpt lat="43.4901" lon="10.933095"><ele>458.0</ele><time>2026-03-22T15:15:19.01Z</time></trkpt><trkpt lat="43.4901083" lon="10.9329467"><ele>457.99999999999994</ele><time>2026-03-22T15:15:20.011Z</time></trkpt><trkpt lat="43.49011" lon="10.932815"><ele>457.99999999999994</ele><time>2026-03-22T15:15:21.012Z</time></trkpt><trkpt lat="43.4901083" lon="10.932685"><ele>458.0</ele><time>2026-03-22T15:15:22.011Z</time></trkpt><trkpt lat="43.490105" lon="10.932545"><ele>458.0</ele><time>2026-03-22T15:15:23.011Z</time></trkpt><trkpt lat="43.4901033" lon="10.9323883"><ele>458.0</ele><time>2026-03-22T15:15:24.011Z</time></trkpt><trkpt lat="43.4901033" lon="10.9322233"><ele>458.0</ele><time>2026-03-22T15:15:25.011Z</time></trkpt><trkpt lat="43.490105" lon="10.9320567"><ele>458.0</ele><time>2026-03-22T15:15:26.011Z</time></trkpt><trkpt lat="43.49011" lon="10.93189"><ele>458.0</ele><time>2026-03-22T15:15:27.012Z</time></trkpt><trkpt lat="43.49011" lon="10.9317233"><ele>458.75</ele><time>2026-03-22T15:15:28.011Z</time></trkpt><trkpt lat="43.4901083" lon="10.9315533"><ele>459.5</ele><time>2026-03-22T15:15:29.01Z</time></trkpt><trkpt lat="43.49011" lon="10.9313783"><ele>460.25</ele><time>2026-03-22T15:15:30.009Z</time></trkpt><trkpt lat="43.490125" lon="10.9312033"><ele>461.0</ele><time>2026-03-22T15:15:31.01Z</time></trkpt><trkpt lat="43.4901433" lon="10.9310317"><ele>461.25</ele><time>2026-03-22T15:15:32.01Z</time></trkpt><trkpt lat="43.490175" lon="10.9308567"><ele>461.5</ele><time>2026-03-22T15:15:33.011Z</time></trkpt><trkpt lat="43.4902217" lon="10.930675"><ele>461.75</ele><time>2026-03-22T15:15:34.01Z</time></trkpt><trkpt lat="43.49029" lon="10.9304633"><ele>462.0</ele><time>2026-03-22T15:15:35.011Z</time></trkpt><trkpt lat="43.490365" lon="10.9302367"><ele>468.0</ele><time>2026-03-22T15:15:36.01Z</time></trkpt><trkpt lat="43.4904567" lon="10.9300033"><ele>474.0</ele><time>2026-03-22T15:15:37.01Z</time></trkpt><trkpt lat="43.490555" lon="10.9297667"><ele>480.0</ele><time>2026-03-22T15:15:38.011Z</time></trkpt><trkpt lat="43.4906567" lon="10.9295367"><ele>480.0</ele><time>2026-03-22T15:15:39.01Z</time></trkpt><trkpt lat="43.4907467" lon="10.9293283"><ele>480.0</ele><time>2026-03-22T15:15:40.011Z</time></trkpt><trkpt lat="43.4908317" lon="10.9291283"><ele>480.0</ele><time>2026-03-22T15:15:41.011Z</time></trkpt><trkpt lat="43.4909133" lon="10.9289367"><ele>478.75</ele><time>2026-03-22T15:15:42.011Z</time></trkpt><trkpt lat="43.49102" lon="10.9287733"><ele>477.5</ele><time>2026-03-22T15:15:43.01Z</time></trkpt><trkpt lat="43.4911367" lon="10.9286467"><ele>476.25</ele><time>2026-03-22T15:15:44.011Z</time></trkpt><trkpt lat="43.4912683" lon="10.9285783"><ele>475.0</ele><time>2026-03-22T15:15:45.009Z</time></trkpt><trkpt lat="43.4914" lon="10.9285567"><ele>477.75</ele><time>2026-03-22T15:15:46.01Z</time></trkpt><trkpt lat="43.4915367" lon="10.928595"><ele>480.5</ele><time>2026-03-22T15:15:47.01Z</time></trkpt><trkpt lat="43.491665" lon="10.9286667"><ele>483.25</ele><time>2026-03-22T15:15:48.01Z</time></trkpt><trkpt lat="43.4917917" lon="10.9287433"><ele>486.0</ele><time>2026-03-22T15:15:49.01Z</time></trkpt><trkpt lat="43.49193" lon="10.9288067"><ele>486.0</ele><time>2026-03-22T15:15:50.01Z</time></trkpt><trkpt lat="43.4920767" lon="10.9288367"><ele>486.0</ele><time>2026-03-22T15:15:51.01Z</time></trkpt><trkpt lat="43.4922133" lon="10.9288267"><ele>486.0</ele><time>2026-03-22T15:15:52.01Z</time></trkpt><trkpt lat="43.4923467" lon="10.9287767"><ele>486.0</ele><time>2026-03-22T15:15:53.01Z</time></trkpt><trkpt lat="43.4924683" lon="10.9286833"><ele>485.75</ele><time>2026-03-22T15:15:54.011Z</time></trkpt><trkpt lat="43.4925783" lon="10.92856"><ele>485.5</ele><time>2026-03-22T15:15:55.011Z</time></trkpt><trkpt lat="43.492685" lon="10.9284217"><ele>485.25</ele><time>2026-03-22T15:15:56.011Z</time></trkpt><trkpt lat="43.49279" lon="10.9282767"><ele>485.0</ele><time>2026-03-22T15:15:57.01Z</time></trkpt><trkpt lat="43.4928967" lon="10.9281283"><ele>488.0</ele><time>2026-03-22T15:15:58.011Z</time></trkpt><trkpt lat="43.49301" lon="10.92798"><ele>491.0</ele><time>2026-03-22T15:15:59.012Z</time></trkpt><trkpt lat="43.4931133" lon="10.92783"><ele>494.0</ele><time>2026-03-22T15:16:00.011Z</time></trkpt><trkpt lat="43.4932167" lon="10.92768"><ele>495.0</ele><time>2026-03-22T15:16:01.012Z</time></trkpt><trkpt lat="43.4933167" lon="10.9275317"><ele>496.0</ele><time>2026-03-22T15:16:02.01Z</time></trkpt><trkpt lat="43.493415" lon="10.92738"><ele>497.0</ele><time>2026-03-22T15:16:03.011Z</time></trkpt><trkpt lat="43.493505" lon="10.9272317"><ele>498.0</ele><time>2026-03-22T15:16:04.01Z</time></trkpt><trkpt lat="43.4935933" lon="10.9270983"><ele>498.0</ele><time>2026-03-22T15:16:05.01Z</time></trkpt><trkpt lat="43.4936983" lon="10.926975"><ele>498.0</ele><time>2026-03-22T15:16:06.01Z</time></trkpt><trkpt lat="43.4938217" lon="10.9268617"><ele>498.0</ele><time>2026-03-22T15:16:07.011Z</time></trkpt><trkpt lat="43.4939483" lon="10.9267483"><ele>498.0</ele><time>2026-03-22T15:16:08.011Z</time></trkpt><trkpt lat="43.4940733" lon="10.92664"><ele>498.0</ele><time>2026-03-22T15:16:09.01Z</time></trkpt><trkpt lat="43.4942067" lon="10.9265317"><ele>498.0</ele><time>2026-03-22T15:16:10.011Z</time></trkpt><trkpt lat="43.494345" lon="10.9264217"><ele>498.0</ele><time>2026-03-22T15:16:11.01Z</time></trkpt><trkpt lat="43.49449" lon="10.9263067"><ele>497.5</ele><time>2026-03-22T15:16:12.011Z</time></trkpt><trkpt lat="43.494625" lon="10.9262"><ele>497.0</ele><time>2026-03-22T15:16:13.01Z</time></trkpt><trkpt lat="43.4947483" lon="10.9261183"><ele>496.5</ele><time>2026-03-22T15:16:14.01Z</time></trkpt><trkpt lat="43.4948667" lon="10.9260483"><ele>496.0</ele><time>2026-03-22T15:16:15.01Z</time></trkpt><trkpt lat="43.4950017" lon="10.926025"><ele>496.0</ele><time>2026-03-22T15:16:16.01Z</time></trkpt><trkpt lat="43.4951317" lon="10.92605"><ele>496.0</ele><time>2026-03-22T15:16:17.01Z</time></trkpt><trkpt lat="43.4952517" lon="10.92609"><ele>496.0</ele><time>2026-03-22T15:16:18.01Z</time></trkpt><trkpt lat="43.495375" lon="10.9261083"><ele>496.0</ele><time>2026-03-22T15:16:19.01Z</time></trkpt><trkpt lat="43.4954917" lon="10.926065"><ele>498.25</ele><time>2026-03-22T15:16:20.012Z</time></trkpt><trkpt lat="43.4956183" lon="10.92602"><ele>500.5</ele><time>2026-03-22T15:16:21.01Z</time></trkpt><trkpt lat="43.4957417" lon="10.926"><ele>502.75</ele><time>2026-03-22T15:16:22.01Z</time></trkpt><trkpt lat="43.4958633" lon="10.9260433"><ele>505.0</ele><time>2026-03-22T15:16:23.011Z</time></trkpt><trkpt lat="43.495975" lon="10.9261317"><ele>505.0</ele><time>2026-03-22T15:16:24.01Z</time></trkpt><trkpt lat="43.4960817" lon="10.92627"><ele>505.0</ele><time>2026-03-22T15:16:25.011Z</time></trkpt><trkpt lat="43.4961967" lon="10.9264517"><ele>505.0</ele><time>2026-03-22T15:16:26.01Z</time></trkpt><trkpt lat="43.4963183" lon="10.9266183"><ele>507.0</ele><time>2026-03-22T15:16:27.011Z</time></trkpt><trkpt lat="43.496445" lon="10.9267733"><ele>509.0</ele><time>2026-03-22T15:16:28.01Z</time></trkpt><trkpt lat="43.4965783" lon="10.9268867"><ele>511.0</ele><time>2026-03-22T15:16:29.011Z</time></trkpt><trkpt lat="43.4967317" lon="10.9269667"><ele>511.0</ele><time>2026-03-22T15:16:30.012Z</time></trkpt><trkpt lat="43.4968983" lon="10.9270133"><ele>511.0</ele><time>2026-03-22T15:16:31.01Z</time></trkpt><trkpt lat="43.49708" lon="10.9270567"><ele>511.0</ele><time>2026-03-22T15:16:32.009Z</time></trkpt><trkpt lat="43.4972633" lon="10.9270933"><ele>510.6666666666667</ele><time>2026-03-22T15:16:33.01Z</time></trkpt><trkpt lat="43.4974517" lon="10.9271333"><ele>510.33333333333337</ele><time>2026-03-22T15:16:34.01Z</time></trkpt><trkpt lat="43.4976333" lon="10.9271683"><ele>510.0</ele><time>2026-03-22T15:16:35.01Z</time></trkpt><trkpt lat="43.497815" lon="10.9271983"><ele>511.33333333333337</ele><time>2026-03-22T15:16:36.011Z</time></trkpt><trkpt lat="43.497995" lon="10.927235"><ele>512.6666666666667</ele><time>2026-03-22T15:16:37.011Z</time></trkpt><trkpt lat="43.4981733" lon="10.9272783"><ele>514.0</ele><time>2026-03-22T15:16:38.011Z</time></trkpt><trkpt lat="43.4983467" lon="10.9273283"><ele>514.0</ele><time>2026-03-22T15:16:39.01Z</time></trkpt><trkpt lat="43.4985217" lon="10.9273883"><ele>514.0</ele><time>2026-03-22T15:16:40.01Z</time></trkpt><trkpt lat="43.4987067" lon="10.9274633"><ele>514.0</ele><time>2026-03-22T15:16:41.011Z</time></trkpt><trkpt lat="43.4988983" lon="10.9275317"><ele>512.3333333333334</ele><time>2026-03-22T15:16:42.011Z</time></trkpt><trkpt lat="43.4990967" lon="10.9275983"><ele>510.66666666666663</ele><time>2026-03-22T15:16:43.01Z</time></trkpt><trkpt lat="43.4992967" lon="10.9276617"><ele>509.0</ele><time>2026-03-22T15:16:44.011Z</time></trkpt><trkpt lat="43.4995033" lon="10.92772"><ele>509.0</ele><time>2026-03-22T15:16:45.01Z</time></trkpt><trkpt lat="43.4997083" lon="10.9277683"><ele>509.0</ele><time>2026-03-22T15:16:46.011Z</time></trkpt><trkpt lat="43.4999117" lon="10.927815"><ele>509.0</ele><time>2026-03-22T15:16:47.011Z</time></trkpt><trkpt lat="43.500115" lon="10.9278683"><ele>509.0</ele><time>2026-03-22T15:16:48.011Z</time></trkpt><trkpt lat="43.5003183" lon="10.927925"><ele>509.0</ele><time>2026-03-22T15:16:49.011Z</time></trkpt><trkpt lat="43.5005233" lon="10.92799"><ele>509.0</ele><time>2026-03-22T15:16:50.01Z</time></trkpt><trkpt lat="43.500725" lon="10.92806"><ele>509.3333333333333</ele><time>2026-03-22T15:16:51.01Z</time></trkpt><trkpt lat="43.5009267" lon="10.9281333"><ele>509.66666666666663</ele><time>2026-03-22T15:16:52.011Z</time></trkpt><trkpt lat="43.5011283" lon="10.92821"><ele>510.0</ele><time>2026-03-22T15:16:53.011Z</time></trkpt><trkpt lat="43.50133" lon="10.9282883"><ele>510.0</ele><time>2026-03-22T15:16:54.01Z</time></trkpt><trkpt lat="43.5015317" lon="10.92837"><ele>510.0</ele><time>2026-03-22T15:16:55.011Z</time></trkpt><trkpt lat="43.5017333" lon="10.92845"><ele>510.0</ele><time>2026-03-22T15:16:56.011Z</time></trkpt><trkpt lat="43.5019333" lon="10.92853"><ele>511.66666666666663</ele><time>2026-03-22T15:16:57.01Z</time></trkpt><trkpt lat="43.5021317" lon="10.92861"><ele>513.3333333333333</ele><time>2026-03-22T15:16:58.01Z</time></trkpt><trkpt lat="43.5023283" lon="10.9286883"><ele>515.0</ele><time>2026-03-22T15:16:59.011Z</time></trkpt><trkpt lat="43.5025283" lon="10.9287733"><ele>515.0</ele><time>2026-03-22T15:17:00.01Z</time></trkpt><trkpt lat="43.5027267" lon="10.9288533"><ele>515.0</ele><time>2026-03-22T15:17:01.01Z</time></trkpt><trkpt lat="43.50292" lon="10.9289267"><ele>515.0</ele><time>2026-03-22T15:17:02.011Z</time></trkpt><trkpt lat="43.5031117" lon="10.929"><ele>516.3333333333333</ele><time>2026-03-22T15:17:03.01Z</time></trkpt><trkpt lat="43.5032967" lon="10.929085"><ele>517.6666666666666</ele><time>2026-03-22T15:17:04.01Z</time></trkpt><trkpt lat="43.5034683" lon="10.9291383"><ele>519.0</ele><time>2026-03-22T15:17:05.01Z</time></trkpt><trkpt lat="43.5036433" lon="10.9292133"><ele>520.0</ele><time>2026-03-22T15:17:06.01Z</time></trkpt><trkpt lat="43.50381" lon="10.929285"><ele>521.0</ele><time>2026-03-22T15:17:07.011Z</time></trkpt><trkpt lat="43.5039617" lon="10.9293233"><ele>522.0</ele><time>2026-03-22T15:17:08.011Z</time></trkpt><trkpt lat="43.5041067" lon="10.9293667"><ele>522.0</ele><time>2026-03-22T15:17:09.01Z</time></trkpt><trkpt lat="43.5042533" lon="10.929405"><ele>522.0</ele><time>2026-03-22T15:17:10.01Z</time></trkpt><trkpt lat="43.5044067" lon="10.9294417"><ele>522.0</ele><time>2026-03-22T15:17:11.01Z</time></trkpt><trkpt lat="43.5045717" lon="10.9294867"><ele>518.6666666666666</ele><time>2026-03-22T15:17:12.011Z</time></trkpt><trkpt lat="43.5047417" lon="10.9295367"><ele>515.3333333333333</ele><time>2026-03-22T15:17:13.01Z</time></trkpt><trkpt lat="43.5049233" lon="10.929565"><ele>512.0</ele><time>2026-03-22T15:17:14.011Z</time></trkpt><trkpt lat="43.505105" lon="10.9295767"><ele>512.0</ele><time>2026-03-22T15:17:15.011Z</time></trkpt><trkpt lat="43.5052833" lon="10.9295867"><ele>512.0</ele><time>2026-03-22T15:17:16.01Z</time></trkpt><trkpt lat="43.5054617" lon="10.9295917"><ele>512.0</ele><time>2026-03-22T15:17:17.011Z</time></trkpt><trkpt lat="43.505635" lon="10.9295883"><ele>509.0</ele><time>2026-03-22T15:17:18.01Z</time></trkpt><trkpt lat="43.5058" lon="10.92959"><ele>506.0</ele><time>2026-03-22T15:17:19.011Z</time></trkpt><trkpt lat="43.5059533" lon="10.92959"><ele>503.0</ele><time>2026-03-22T15:17:20.01Z</time></trkpt><trkpt lat="43.506095" lon="10.9295867"><ele>503.0</ele><time>2026-03-22T15:17:21.011Z</time></trkpt><trkpt lat="43.5062283" lon="10.9295733"><ele>503.0</ele><time>2026-03-22T15:17:22.011Z</time></trkpt><trkpt lat="43.5063533" lon="10.9295333"><ele>503.0</ele><time>2026-03-22T15:17:23.01Z</time></trkpt><trkpt lat="43.5064633" lon="10.9294567"><ele>503.0</ele><time>2026-03-22T15:17:24.011Z</time></trkpt><trkpt lat="43.506535" lon="10.929305"><ele>502.75</ele><time>2026-03-22T15:17:25.011Z</time></trkpt><trkpt lat="43.5066017" lon="10.9291517"><ele>502.5</ele><time>2026-03-22T15:17:26.01Z</time></trkpt><trkpt lat="43.50669" lon="10.9290117"><ele>502.25</ele><time>2026-03-22T15:17:27.01Z</time></trkpt><trkpt lat="43.5068067" lon="10.9289017"><ele>502.0</ele><time>2026-03-22T15:17:28.01Z</time></trkpt><trkpt lat="43.5069517" lon="10.92883"><ele>499.33333333333337</ele><time>2026-03-22T15:17:29.01Z</time></trkpt><trkpt lat="43.507115" lon="10.92878"><ele>496.66666666666663</ele><time>2026-03-22T15:17:30.01Z</time></trkpt><trkpt lat="43.5072883" lon="10.9287417"><ele>494.0</ele><time>2026-03-22T15:17:31.01Z</time></trkpt><trkpt lat="43.5074733" lon="10.928725"><ele>494.0</ele><time>2026-03-22T15:17:32.011Z</time></trkpt><trkpt lat="43.50767" lon="10.9287217"><ele>494.0</ele><time>2026-03-22T15:17:33.01Z</time></trkpt><trkpt lat="43.5078583" lon="10.9287033"><ele>494.0</ele><time>2026-03-22T15:17:34.009Z</time></trkpt><trkpt lat="43.508055" lon="10.9286867"><ele>492.66666666666663</ele><time>2026-03-22T15:17:35.009Z</time></trkpt><trkpt lat="43.5082717" lon="10.9286783"><ele>491.33333333333337</ele><time>2026-03-22T15:17:36.01Z</time></trkpt><trkpt lat="43.50848" lon="10.9286583"><ele>490.0</ele><time>2026-03-22T15:17:37.01Z</time></trkpt><trkpt lat="43.508685" lon="10.9286383"><ele>488.0</ele><time>2026-03-22T15:17:38.009Z</time></trkpt><trkpt lat="43.5088883" lon="10.9286217"><ele>486.0</ele><time>2026-03-22T15:17:39.01Z</time></trkpt><trkpt lat="43.5090917" lon="10.9286183"><ele>484.0</ele><time>2026-03-22T15:17:40.01Z</time></trkpt><trkpt lat="43.5092883" lon="10.928635"><ele>484.0</ele><time>2026-03-22T15:17:41.01Z</time></trkpt><trkpt lat="43.5094833" lon="10.9286867"><ele>484.0</ele><time>2026-03-22T15:17:42.01Z</time></trkpt><trkpt lat="43.50968" lon="10.928775"><ele>484.0</ele><time>2026-03-22T15:17:43.009Z</time></trkpt><trkpt lat="43.5098717" lon="10.92887"><ele>486.33333333333337</ele><time>2026-03-22T15:17:44.01Z</time></trkpt><trkpt lat="43.5100617" lon="10.9289633"><ele>488.66666666666663</ele><time>2026-03-22T15:17:45.009Z</time></trkpt><trkpt lat="43.5102417" lon="10.929055"><ele>491.0</ele><time>2026-03-22T15:17:46.01Z</time></trkpt><trkpt lat="43.510405" lon="10.9291467"><ele>491.66666666666663</ele><time>2026-03-22T15:17:47.01Z</time></trkpt><trkpt lat="43.5105667" lon="10.9292467"><ele>492.33333333333337</ele><time>2026-03-22T15:17:48.01Z</time></trkpt><trkpt lat="43.5107333" lon="10.9293567"><ele>493.0</ele><time>2026-03-22T15:17:49.011Z</time></trkpt><trkpt lat="43.5109067" lon="10.92948"><ele>493.0</ele><time>2026-03-22T15:17:50.01Z</time></trkpt><trkpt lat="43.5110833" lon="10.9296"><ele>493.0</ele><time>2026-03-22T15:17:51.01Z</time></trkpt><trkpt lat="43.5112633" lon="10.9297217"><ele>493.0</ele><time>2026-03-22T15:17:52.011Z</time></trkpt><trkpt lat="43.5114467" lon="10.929845"><ele>491.6666666666667</ele><time>2026-03-22T15:17:53.01Z</time></trkpt><trkpt lat="43.5116367" lon="10.9299517"><ele>490.33333333333337</ele><time>2026-03-22T15:17:54.01Z</time></trkpt><trkpt lat="43.5118317" lon="10.9300433"><ele>489.0</ele><time>2026-03-22T15:17:55.01Z</time></trkpt><trkpt lat="43.5120367" lon="10.930115"><ele>487.33333333333337</ele><time>2026-03-22T15:17:56.01Z</time></trkpt><trkpt lat="43.5122383" lon="10.93017"><ele>485.6666666666667</ele><time>2026-03-22T15:17:57.01Z</time></trkpt><trkpt lat="43.51244" lon="10.9302183"><ele>484.0</ele><time>2026-03-22T15:17:58.01Z</time></trkpt><trkpt lat="43.5126333" lon="10.930255"><ele>484.0</ele><time>2026-03-22T15:17:59.01Z</time></trkpt><trkpt lat="43.5128167" lon="10.930255"><ele>484.0</ele><time>2026-03-22T15:18:00.01Z</time></trkpt><trkpt lat="43.5129933" lon="10.9302117"><ele>484.0</ele><time>2026-03-22T15:18:01.011Z</time></trkpt><trkpt lat="43.513155" lon="10.9301233"><ele>483.0</ele><time>2026-03-22T15:18:02.01Z</time></trkpt><trkpt lat="43.51329" lon="10.9299917"><ele>482.0</ele><time>2026-03-22T15:18:03.011Z</time></trkpt><trkpt lat="43.5133917" lon="10.9298067"><ele>481.0</ele><time>2026-03-22T15:18:04.01Z</time></trkpt><trkpt lat="43.5134817" lon="10.929585"><ele>481.0</ele><time>2026-03-22T15:18:05.01Z</time></trkpt><trkpt lat="43.513575" lon="10.9293583"><ele>481.0</ele><time>2026-03-22T15:18:06.01Z</time></trkpt><trkpt lat="43.5136917" lon="10.9291533"><ele>481.0</ele><time>2026-03-22T15:18:07.01Z</time></trkpt><trkpt lat="43.513825" lon="10.92897"><ele>479.33333333333337</ele><time>2026-03-22T15:18:08.01Z</time></trkpt><trkpt lat="43.513985" lon="10.9288217"><ele>477.66666666666663</ele><time>2026-03-22T15:18:09.01Z</time></trkpt><trkpt lat="43.5141567" lon="10.9287133"><ele>476.0</ele><time>2026-03-22T15:18:10.009Z</time></trkpt><trkpt lat="43.51434" lon="10.9286583"><ele>476.0</ele><time>2026-03-22T15:18:11.01Z</time></trkpt><trkpt lat="43.5145367" lon="10.928635"><ele>476.0</ele><time>2026-03-22T15:18:12.01Z</time></trkpt><trkpt lat="43.5147317" lon="10.9285983"><ele>476.0</ele><time>2026-03-22T15:18:13.01Z</time></trkpt><trkpt lat="43.514925" lon="10.9285183"><ele>471.66666666666663</ele><time>2026-03-22T15:18:14.01Z</time></trkpt><trkpt lat="43.5151067" lon="10.9283783"><ele>467.33333333333337</ele><time>2026-03-22T15:18:15.011Z</time></trkpt><trkpt lat="43.5152833" lon="10.9282117"><ele>463.0</ele><time>2026-03-22T15:18:16.008Z</time></trkpt><trkpt lat="43.515455" lon="10.9280483"><ele>459.6666666666667</ele><time>2026-03-22T15:18:17.011Z</time></trkpt><trkpt lat="43.5156183" lon="10.9278783"><ele>456.33333333333337</ele><time>2026-03-22T15:18:18.009Z</time></trkpt><trkpt lat="43.51576" lon="10.92768"><ele>453.0</ele><time>2026-03-22T15:18:19.009Z</time></trkpt><trkpt lat="43.5158733" lon="10.9274633"><ele>453.0</ele><time>2026-03-22T15:18:20.012Z</time></trkpt><trkpt lat="43.5159783" lon="10.927255"><ele>453.0</ele><time>2026-03-22T15:18:21.01Z</time></trkpt><trkpt lat="43.516095" lon="10.9270817"><ele>453.0</ele><time>2026-03-22T15:18:22.01Z</time></trkpt><trkpt lat="43.5162367" lon="10.9269667"><ele>449.0</ele><time>2026-03-22T15:18:23.01Z</time></trkpt><trkpt lat="43.5164067" lon="10.9269183"><ele>445.0</ele><time>2026-03-22T15:18:24.01Z</time></trkpt><trkpt lat="43.5165983" lon="10.9269283"><ele>441.0</ele><time>2026-03-22T15:18:25.01Z</time></trkpt><trkpt lat="43.5168083" lon="10.9269583"><ele>441.0</ele><time>2026-03-22T15:18:26.01Z</time></trkpt><trkpt lat="43.517025" lon="10.9269817"><ele>441.0</ele><time>2026-03-22T15:18:27.009Z</time></trkpt><trkpt lat="43.51724" lon="10.9269983"><ele>441.0</ele><time>2026-03-22T15:18:28.009Z</time></trkpt><trkpt lat="43.5174533" lon="10.9270167"><ele>440.33333333333337</ele><time>2026-03-22T15:18:29.01Z</time></trkpt><trkpt lat="43.51767" lon="10.9270383"><ele>439.6666666666667</ele><time>2026-03-22T15:18:30.009Z</time></trkpt><trkpt lat="43.517885" lon="10.92705"><ele>439.0</ele><time>2026-03-22T15:18:31.01Z</time></trkpt><trkpt lat="43.5181017" lon="10.9270633"><ele>439.0</ele><time>2026-03-22T15:18:32.011Z</time></trkpt><trkpt lat="43.5183183" lon="10.9270817"><ele>439.0</ele><time>2026-03-22T15:18:33.01Z</time></trkpt><trkpt lat="43.51853" lon="10.9271"><ele>439.0</ele><time>2026-03-22T15:18:34.01Z</time></trkpt><trkpt lat="43.5187317" lon="10.92712"><ele>439.6666666666667</ele><time>2026-03-22T15:18:35.01Z</time></trkpt><trkpt lat="43.5189233" lon="10.9271383"><ele>440.33333333333337</ele><time>2026-03-22T15:18:36.01Z</time></trkpt><trkpt lat="43.5191017" lon="10.92715"><ele>441.0</ele><time>2026-03-22T15:18:37.01Z</time></trkpt><trkpt lat="43.5192717" lon="10.9271667"><ele>441.0</ele><time>2026-03-22T15:18:38.01Z</time></trkpt><trkpt lat="43.5194433" lon="10.92719"><ele>441.0</ele><time>2026-03-22T15:18:39.01Z</time></trkpt><trkpt lat="43.5196167" lon="10.9272233"><ele>441.0</ele><time>2026-03-22T15:18:40.01Z</time></trkpt><trkpt lat="43.5197967" lon="10.9272667"><ele>440.66666666666663</ele><time>2026-03-22T15:18:41.01Z</time></trkpt><trkpt lat="43.51998" lon="10.9273133"><ele>440.3333333333333</ele><time>2026-03-22T15:18:42.01Z</time></trkpt><trkpt lat="43.5201717" lon="10.9273667"><ele>440.0</ele><time>2026-03-22T15:18:43.01Z</time></trkpt><trkpt lat="43.52037" lon="10.9274183"><ele>439.0</ele><time>2026-03-22T15:18:44.011Z</time></trkpt><trkpt lat="43.5205783" lon="10.9274733"><ele>438.0</ele><time>2026-03-22T15:18:45.01Z</time></trkpt><trkpt lat="43.5207883" lon="10.927525"><ele>437.0</ele><time>2026-03-22T15:18:46.009Z</time></trkpt><trkpt lat="43.5209983" lon="10.92758"><ele>436.3333333333333</ele><time>2026-03-22T15:18:47.01Z</time></trkpt><trkpt lat="43.5212067" lon="10.9276433"><ele>435.66666666666663</ele><time>2026-03-22T15:18:48.01Z</time></trkpt><trkpt lat="43.52142" lon="10.9277083"><ele>435.0</ele><time>2026-03-22T15:18:49.01Z</time></trkpt><trkpt lat="43.5216333" lon="10.9277717"><ele>434.0</ele><time>2026-03-22T15:18:50.009Z</time></trkpt><trkpt lat="43.5218467" lon="10.927835"><ele>433.0</ele><time>2026-03-22T15:18:51.01Z</time></trkpt><trkpt lat="43.52206" lon="10.9279033"><ele>432.0</ele><time>2026-03-22T15:18:52.01Z</time></trkpt><trkpt lat="43.52227" lon="10.9279933"><ele>432.0</ele><time>2026-03-22T15:18:53.01Z</time></trkpt><trkpt lat="43.5224767" lon="10.9281017"><ele>432.0</ele><time>2026-03-22T15:18:54.01Z</time></trkpt><trkpt lat="43.5226733" lon="10.928215"><ele>432.0</ele><time>2026-03-22T15:18:55.01Z</time></trkpt><trkpt lat="43.52286" lon="10.9283217"><ele>429.0</ele><time>2026-03-22T15:18:56.011Z</time></trkpt><trkpt lat="43.5230433" lon="10.9284217"><ele>426.0</ele><time>2026-03-22T15:18:57.01Z</time></trkpt><trkpt lat="43.52323" lon="10.9285167"><ele>423.0</ele><time>2026-03-22T15:18:58.01Z</time></trkpt><trkpt lat="43.5234217" lon="10.9285983"><ele>423.0</ele><time>2026-03-22T15:18:59.01Z</time></trkpt><trkpt lat="43.5236217" lon="10.9286533"><ele>423.0</ele><time>2026-03-22T15:19:00.009Z</time></trkpt><trkpt lat="43.5238283" lon="10.9286967"><ele>423.0</ele><time>2026-03-22T15:19:01.01Z</time></trkpt><trkpt lat="43.5240383" lon="10.9287283"><ele>422.33333333333337</ele><time>2026-03-22T15:19:02.01Z</time></trkpt><trkpt lat="43.5242517" lon="10.9287633"><ele>421.6666666666667</ele><time>2026-03-22T15:19:03.01Z</time></trkpt><trkpt lat="43.52447" lon="10.92881"><ele>421.0</ele><time>2026-03-22T15:19:04.011Z</time></trkpt><trkpt lat="43.5246917" lon="10.92886"><ele>420.5</ele><time>2026-03-22T15:19:05.01Z</time></trkpt><trkpt lat="43.52492" lon="10.9288883"><ele>420.0</ele><time>2026-03-22T15:19:06.01Z</time></trkpt><trkpt lat="43.5251567" lon="10.928895"><ele>420.0</ele><time>2026-03-22T15:19:07.01Z</time></trkpt><trkpt lat="43.5253883" lon="10.9288767"><ele>420.0</ele><time>2026-03-22T15:19:08.011Z</time></trkpt><trkpt lat="43.5256167" lon="10.9288533"><ele>422.0</ele><time>2026-03-22T15:19:09.01Z</time></trkpt><trkpt lat="43.5258367" lon="10.92882"><ele>424.0</ele><time>2026-03-22T15:19:10.01Z</time></trkpt><trkpt lat="43.5260483" lon="10.928785"><ele>426.0</ele><time>2026-03-22T15:19:11.01Z</time></trkpt><trkpt lat="43.526255" lon="10.92875"><ele>426.66666666666663</ele><time>2026-03-22T15:19:12.01Z</time></trkpt><trkpt lat="43.52646" lon="10.92872"><ele>427.3333333333333</ele><time>2026-03-22T15:19:13.01Z</time></trkpt><trkpt lat="43.526665" lon="10.9286917"><ele>428.0</ele><time>2026-03-22T15:19:14.01Z</time></trkpt><trkpt lat="43.5268667" lon="10.9286583"><ele>428.3333333333333</ele><time>2026-03-22T15:19:15.009Z</time></trkpt><trkpt lat="43.5270717" lon="10.9286317"><ele>428.66666666666663</ele><time>2026-03-22T15:19:16.009Z</time></trkpt><trkpt lat="43.527275" lon="10.9286083"><ele>429.0</ele><time>2026-03-22T15:19:17.009Z</time></trkpt><trkpt lat="43.5274717" lon="10.9285867"><ele>429.0</ele><time>2026-03-22T15:19:18.01Z</time></trkpt><trkpt lat="43.527665" lon="10.9285683"><ele>429.0</ele><time>2026-03-22T15:19:19.01Z</time></trkpt><trkpt lat="43.5278583" lon="10.9285583"><ele>429.0</ele><time>2026-03-22T15:19:20.01Z</time></trkpt><trkpt lat="43.5280467" lon="10.9285433"><ele>429.33333333333337</ele><time>2026-03-22T15:19:21.01Z</time></trkpt><trkpt lat="43.5282367" lon="10.9285317"><ele>429.6666666666667</ele><time>2026-03-22T15:19:22.01Z</time></trkpt><trkpt lat="43.5284333" lon="10.9285367"><ele>430.0</ele><time>2026-03-22T15:19:23.01Z</time></trkpt><trkpt lat="43.5286333" lon="10.92857"><ele>431.0</ele><time>2026-03-22T15:19:24.01Z</time></trkpt><trkpt lat="43.5288283" lon="10.9286367"><ele>432.0</ele><time>2026-03-22T15:19:25.01Z</time></trkpt><trkpt lat="43.5290133" lon="10.9287383"><ele>433.0</ele><time>2026-03-22T15:19:26.01Z</time></trkpt><trkpt lat="43.5291867" lon="10.9288633"><ele>433.0</ele><time>2026-03-22T15:19:27.01Z</time></trkpt><trkpt lat="43.5293467" lon="10.9289933"><ele>433.0</ele><time>2026-03-22T15:19:28.01Z</time></trkpt><trkpt lat="43.5294967" lon="10.92912"><ele>433.0</ele><time>2026-03-22T15:19:29.01Z</time></trkpt><trkpt lat="43.5296317" lon="10.92924"><ele>433.0</ele><time>2026-03-22T15:19:30.01Z</time></trkpt><trkpt lat="43.52974" lon="10.929375"><ele>433.0</ele><time>2026-03-22T15:19:31.01Z</time></trkpt><trkpt lat="43.5298317" lon="10.929535"><ele>433.0</ele><time>2026-03-22T15:19:32.01Z</time></trkpt><trkpt lat="43.5299117" lon="10.92973"><ele>433.0</ele><time>2026-03-22T15:19:33.01Z</time></trkpt><trkpt lat="43.5299883" lon="10.9299433"><ele>433.0</ele><time>2026-03-22T15:19:34.009Z</time></trkpt><trkpt lat="43.5300667" lon="10.9301683"><ele>433.0</ele><time>2026-03-22T15:19:35.01Z</time></trkpt><trkpt lat="43.5301483" lon="10.930405"><ele>431.33333333333337</ele><time>2026-03-22T15:19:36.01Z</time></trkpt><trkpt lat="43.5302333" lon="10.9306467"><ele>429.66666666666663</ele><time>2026-03-22T15:19:37.009Z</time></trkpt><trkpt lat="43.5303167" lon="10.93089"><ele>428.0</ele><time>2026-03-22T15:19:38.01Z</time></trkpt><trkpt lat="43.5304067" lon="10.931145"><ele>427.0</ele><time>2026-03-22T15:19:39.01Z</time></trkpt><trkpt lat="43.530495" lon="10.9314017"><ele>426.0</ele><time>2026-03-22T15:19:40.011Z</time></trkpt><trkpt lat="43.5305817" lon="10.931665"><ele>425.0</ele><time>2026-03-22T15:19:41.01Z</time></trkpt><trkpt lat="43.5306617" lon="10.9319383"><ele>423.66666666666663</ele><time>2026-03-22T15:19:42.01Z</time></trkpt><trkpt lat="43.530725" lon="10.93222"><ele>422.33333333333337</ele><time>2026-03-22T15:19:43.009Z</time></trkpt><trkpt lat="43.5307783" lon="10.932505"><ele>421.0</ele><time>2026-03-22T15:19:44.01Z</time></trkpt><trkpt lat="43.53082" lon="10.93279"><ele>420.6666666666667</ele><time>2026-03-22T15:19:45.008Z</time></trkpt><trkpt lat="43.5308617" lon="10.9330817"><ele>420.33333333333337</ele><time>2026-03-22T15:19:46.009Z</time></trkpt><trkpt lat="43.530905" lon="10.9333767"><ele>420.0</ele><time>2026-03-22T15:19:47.009Z</time></trkpt><trkpt lat="43.5309467" lon="10.93367"><ele>419.33333333333337</ele><time>2026-03-22T15:19:48.01Z</time></trkpt><trkpt lat="43.5309867" lon="10.933965"><ele>418.6666666666667</ele><time>2026-03-22T15:19:49.009Z</time></trkpt><trkpt lat="43.5310283" lon="10.93426"><ele>418.0</ele><time>2026-03-22T15:19:50.01Z</time></trkpt><trkpt lat="43.5310683" lon="10.93455"><ele>417.33333333333337</ele><time>2026-03-22T15:19:51.01Z</time></trkpt><trkpt lat="43.5311083" lon="10.9348333"><ele>416.66666666666663</ele><time>2026-03-22T15:19:52.011Z</time></trkpt><trkpt lat="43.5311467" lon="10.935115"><ele>416.0</ele><time>2026-03-22T15:19:53.01Z</time></trkpt><trkpt lat="43.5311833" lon="10.935395"><ele>415.3333333333333</ele><time>2026-03-22T15:19:54.009Z</time></trkpt><trkpt lat="43.5312217" lon="10.9356733"><ele>414.66666666666663</ele><time>2026-03-22T15:19:55.01Z</time></trkpt><trkpt lat="43.5312617" lon="10.9359533"><ele>414.0</ele><time>2026-03-22T15:19:56.01Z</time></trkpt><trkpt lat="43.5313083" lon="10.9362283"><ele>413.0</ele><time>2026-03-22T15:19:57.01Z</time></trkpt><trkpt lat="43.5313633" lon="10.9365033"><ele>412.0</ele><time>2026-03-22T15:19:58.01Z</time></trkpt><trkpt lat="43.5314433" lon="10.9367583"><ele>411.0</ele><time>2026-03-22T15:19:59.01Z</time></trkpt><trkpt lat="43.5315417" lon="10.9370067"><ele>411.0</ele><time>2026-03-22T15:20:00.01Z</time></trkpt><trkpt lat="43.53165" lon="10.937245"><ele>411.0</ele><time>2026-03-22T15:20:01.01Z</time></trkpt><trkpt lat="43.5317617" lon="10.9374833"><ele>411.0</ele><time>2026-03-22T15:20:02.01Z</time></trkpt><trkpt lat="43.5318733" lon="10.9377267"><ele>410.66666666666663</ele><time>2026-03-22T15:20:03.01Z</time></trkpt><trkpt lat="43.531985" lon="10.9379667"><ele>410.3333333333333</ele><time>2026-03-22T15:20:04.01Z</time></trkpt><trkpt lat="43.5320933" lon="10.9382017"><ele>410.0</ele><time>2026-03-22T15:20:05.009Z</time></trkpt><trkpt lat="43.5321967" lon="10.9384217"><ele>409.66666666666663</ele><time>2026-03-22T15:20:06.01Z</time></trkpt><trkpt lat="43.5322867" lon="10.938635"><ele>409.33333333333337</ele><time>2026-03-22T15:20:07.008Z</time></trkpt><trkpt lat="43.5323717" lon="10.9388467"><ele>409.0</ele><time>2026-03-22T15:20:08.011Z</time></trkpt><trkpt lat="43.53244" lon="10.939065"><ele>409.0</ele><time>2026-03-22T15:20:09.011Z</time></trkpt><trkpt lat="43.5324933" lon="10.9393083"><ele>409.0</ele><time>2026-03-22T15:20:10.01Z</time></trkpt><trkpt lat="43.53253" lon="10.9395617"><ele>409.0</ele><time>2026-03-22T15:20:11.01Z</time></trkpt><trkpt lat="43.53256" lon="10.9398233"><ele>409.0</ele><time>2026-03-22T15:20:12.01Z</time></trkpt><trkpt lat="43.53259" lon="10.9400833"><ele>409.0</ele><time>2026-03-22T15:20:13.009Z</time></trkpt><trkpt lat="43.5326167" lon="10.9403467"><ele>409.0</ele><time>2026-03-22T15:20:14.009Z</time></trkpt><trkpt lat="43.5326433" lon="10.9406083"><ele>409.0</ele><time>2026-03-22T15:20:15.009Z</time></trkpt><trkpt lat="43.532665" lon="10.9408717"><ele>409.0</ele><time>2026-03-22T15:20:16.01Z</time></trkpt><trkpt lat="43.53269" lon="10.94113"><ele>409.0</ele><time>2026-03-22T15:20:17.01Z</time></trkpt><trkpt lat="43.5327167" lon="10.94139"><ele>408.6666666666667</ele><time>2026-03-22T15:20:18.01Z</time></trkpt><trkpt lat="43.5327417" lon="10.94165"><ele>408.33333333333337</ele><time>2026-03-22T15:20:19.01Z</time></trkpt><trkpt lat="43.5327633" lon="10.941905"><ele>408.0</ele><time>2026-03-22T15:20:20.01Z</time></trkpt><trkpt lat="43.53278" lon="10.94214"><ele>408.0</ele><time>2026-03-22T15:20:21.01Z</time></trkpt><trkpt lat="43.532795" lon="10.9423633"><ele>408.0</ele><time>2026-03-22T15:20:22.01Z</time></trkpt><trkpt lat="43.5328067" lon="10.94258"><ele>408.0</ele><time>2026-03-22T15:20:23.01Z</time></trkpt><trkpt lat="43.5328167" lon="10.9427867"><ele>407.25</ele><time>2026-03-22T15:20:24.008Z</time></trkpt><trkpt lat="43.5328233" lon="10.9429917"><ele>406.5</ele><time>2026-03-22T15:20:25.01Z</time></trkpt><trkpt lat="43.532825" lon="10.9431967"><ele>405.75</ele><time>2026-03-22T15:20:26.011Z</time></trkpt><trkpt lat="43.5328267" lon="10.9434"><ele>405.0</ele><time>2026-03-22T15:20:27.01Z</time></trkpt><trkpt lat="43.532825" lon="10.9436067"><ele>405.0</ele><time>2026-03-22T15:20:28.01Z</time></trkpt><trkpt lat="43.532825" lon="10.9438083"><ele>405.0</ele><time>2026-03-22T15:20:29.01Z</time></trkpt><trkpt lat="43.53283" lon="10.9439917"><ele>405.0</ele><time>2026-03-22T15:20:30.01Z</time></trkpt><trkpt lat="43.5328383" lon="10.9441667"><ele>405.0</ele><time>2026-03-22T15:20:31.009Z</time></trkpt><trkpt lat="43.5328383" lon="10.9443417"><ele>405.25</ele><time>2026-03-22T15:20:32.01Z</time></trkpt><trkpt lat="43.5328433" lon="10.94452"><ele>405.5</ele><time>2026-03-22T15:20:33.009Z</time></trkpt><trkpt lat="43.532845" lon="10.9446917"><ele>405.75</ele><time>2026-03-22T15:20:34.009Z</time></trkpt><trkpt lat="43.53285" lon="10.94485"><ele>406.0</ele><time>2026-03-22T15:20:35.01Z</time></trkpt><trkpt lat="43.53285" lon="10.94501"><ele>405.75</ele><time>2026-03-22T15:20:36.009Z</time></trkpt><trkpt lat="43.5328533" lon="10.9451783"><ele>405.5</ele><time>2026-03-22T15:20:37.01Z</time></trkpt><trkpt lat="43.5328583" lon="10.9453567"><ele>405.25</ele><time>2026-03-22T15:20:38.01Z</time></trkpt><trkpt lat="43.53286" lon="10.945535"><ele>405.0</ele><time>2026-03-22T15:20:39.008Z</time></trkpt><trkpt lat="43.5328817" lon="10.9457"><ele>404.25</ele><time>2026-03-22T15:20:40.01Z</time></trkpt><trkpt lat="43.5329233" lon="10.9458617"><ele>403.5</ele><time>2026-03-22T15:20:41.011Z</time></trkpt><trkpt lat="43.53297" lon="10.94602"><ele>402.75</ele><time>2026-03-22T15:20:42.01Z</time></trkpt><trkpt lat="43.5330217" lon="10.946185"><ele>402.0</ele><time>2026-03-22T15:20:43.01Z</time></trkpt><trkpt lat="43.53308" lon="10.9463467"><ele>401.5</ele><time>2026-03-22T15:20:44.01Z</time></trkpt><trkpt lat="43.5331417" lon="10.946505"><ele>401.0</ele><time>2026-03-22T15:20:45.009Z</time></trkpt><trkpt lat="43.533205" lon="10.9466667"><ele>400.5</ele><time>2026-03-22T15:20:46.012Z</time></trkpt><trkpt lat="43.5332667" lon="10.946825"><ele>400.0</ele><time>2026-03-22T15:20:47.009Z</time></trkpt><trkpt lat="43.533325" lon="10.94698"><ele>399.5</ele><time>2026-03-22T15:20:48.01Z</time></trkpt><trkpt lat="43.5333767" lon="10.94713"><ele>399.0</ele><time>2026-03-22T15:20:49.011Z</time></trkpt><trkpt lat="43.533395" lon="10.947285"><ele>398.5</ele><time>2026-03-22T15:20:50.01Z</time></trkpt><trkpt lat="43.5333933" lon="10.9474533"><ele>398.0</ele><time>2026-03-22T15:20:51.009Z</time></trkpt><trkpt lat="43.5333767" lon="10.94763"><ele>397.75</ele><time>2026-03-22T15:20:52.009Z</time></trkpt><trkpt lat="43.5333617" lon="10.9478067"><ele>397.5</ele><time>2026-03-22T15:20:53.009Z</time></trkpt><trkpt lat="43.5333567" lon="10.9479783"><ele>397.25</ele><time>2026-03-22T15:20:54.009Z</time></trkpt><trkpt lat="43.5333733" lon="10.948145"><ele>397.0</ele><time>2026-03-22T15:20:55.009Z</time></trkpt><trkpt lat="43.5334083" lon="10.9483117"><ele>396.75</ele><time>2026-03-22T15:20:56.01Z</time></trkpt><trkpt lat="43.5334867" lon="10.948465"><ele>396.5</ele><time>2026-03-22T15:20:57.01Z</time></trkpt><trkpt lat="43.5335833" lon="10.948605"><ele>396.25</ele><time>2026-03-22T15:20:58.009Z</time></trkpt><trkpt lat="43.5336817" lon="10.948735"><ele>396.0</ele><time>2026-03-22T15:20:59.009Z</time></trkpt><trkpt lat="43.533785" lon="10.94885"><ele>393.75</ele><time>2026-03-22T15:21:00.008Z</time></trkpt><trkpt lat="43.5339" lon="10.94895"><ele>391.5</ele><time>2026-03-22T15:21:01.008Z</time></trkpt><trkpt lat="43.5340117" lon="10.9490283"><ele>389.25</ele><time>2026-03-22T15:21:02.01Z</time></trkpt><trkpt lat="43.5341117" lon="10.94911"><ele>387.0</ele><time>2026-03-22T15:21:03.009Z</time></trkpt><trkpt lat="43.53419" lon="10.9492167"><ele>386.0</ele><time>2026-03-22T15:21:04.009Z</time></trkpt><trkpt lat="43.5342517" lon="10.9493467"><ele>385.0</ele><time>2026-03-22T15:21:05.009Z</time></trkpt><trkpt lat="43.5343133" lon="10.94949"><ele>384.0</ele><time>2026-03-22T15:21:06.009Z</time></trkpt><trkpt lat="43.5343933" lon="10.9496283"><ele>383.0</ele><time>2026-03-22T15:21:07.01Z</time></trkpt><trkpt lat="43.5344967" lon="10.9497517"><ele>378.0</ele><time>2026-03-22T15:21:08.009Z</time></trkpt><trkpt lat="43.5346317" lon="10.9498517"><ele>373.0</ele><time>2026-03-22T15:21:09.008Z</time></trkpt><trkpt lat="43.5347833" lon="10.9499267"><ele>368.0</ele><time>2026-03-22T15:21:10.008Z</time></trkpt><trkpt lat="43.534945" lon="10.9499817"><ele>368.0</ele><time>2026-03-22T15:21:11.01Z</time></trkpt><trkpt lat="43.5351167" lon="10.9500333"><ele>368.0</ele><time>2026-03-22T15:21:12.009Z</time></trkpt><trkpt lat="43.5352867" lon="10.950115"><ele>368.0</ele><time>2026-03-22T15:21:13.009Z</time></trkpt><trkpt lat="43.535445" lon="10.950225"><ele>364.6666666666667</ele><time>2026-03-22T15:21:14.01Z</time></trkpt><trkpt lat="43.535585" lon="10.9503533"><ele>361.3333333333333</ele><time>2026-03-22T15:21:15.01Z</time></trkpt><trkpt lat="43.5357267" lon="10.9504867"><ele>358.0</ele><time>2026-03-22T15:21:16.009Z</time></trkpt><trkpt lat="43.53587" lon="10.9505917"><ele>358.0</ele><time>2026-03-22T15:21:17.01Z</time></trkpt><trkpt lat="43.5360317" lon="10.950665"><ele>358.0</ele><time>2026-03-22T15:21:18.01Z</time></trkpt><trkpt lat="43.5362033" lon="10.9506867"><ele>358.0</ele><time>2026-03-22T15:21:19.009Z</time></trkpt><trkpt lat="43.5363817" lon="10.9506917"><ele>355.3333333333333</ele><time>2026-03-22T15:21:20.01Z</time></trkpt><trkpt lat="43.5365667" lon="10.9506533"><ele>352.6666666666667</ele><time>2026-03-22T15:21:21.01Z</time></trkpt><trkpt lat="43.5367517" lon="10.9505817"><ele>350.0</ele><time>2026-03-22T15:21:22.009Z</time></trkpt><trkpt lat="43.5369367" lon="10.95049"><ele>349.33333333333337</ele><time>2026-03-22T15:21:23.01Z</time></trkpt><trkpt lat="43.537125" lon="10.9503967"><ele>348.6666666666667</ele><time>2026-03-22T15:21:24.009Z</time></trkpt><trkpt lat="43.537325" lon="10.9503317"><ele>348.0</ele><time>2026-03-22T15:21:25.01Z</time></trkpt><trkpt lat="43.5375317" lon="10.950285"><ele>348.0</ele><time>2026-03-22T15:21:26.011Z</time></trkpt><trkpt lat="43.5377333" lon="10.950225"><ele>348.0</ele><time>2026-03-22T15:21:27.009Z</time></trkpt><trkpt lat="43.537925" lon="10.9501233"><ele>348.0</ele><time>2026-03-22T15:21:28.009Z</time></trkpt><trkpt lat="43.5380967" lon="10.9499883"><ele>344.0</ele><time>2026-03-22T15:21:29.01Z</time></trkpt><trkpt lat="43.5382633" lon="10.94985"><ele>340.0</ele><time>2026-03-22T15:21:30.009Z</time></trkpt><trkpt lat="43.5384367" lon="10.949745"><ele>336.0</ele><time>2026-03-22T15:21:31.01Z</time></trkpt><trkpt lat="43.5386167" lon="10.949675"><ele>335.3333333333333</ele><time>2026-03-22T15:21:32.009Z</time></trkpt><trkpt lat="43.53881" lon="10.9496333"><ele>334.66666666666663</ele><time>2026-03-22T15:21:33.01Z</time></trkpt><trkpt lat="43.5390067" lon="10.9496"><ele>334.0</ele><time>2026-03-22T15:21:34.01Z</time></trkpt><trkpt lat="43.5392017" lon="10.9495783"><ele>334.0</ele><time>2026-03-22T15:21:35.01Z</time></trkpt><trkpt lat="43.5393817" lon="10.9495583"><ele>334.0</ele><time>2026-03-22T15:21:36.01Z</time></trkpt><trkpt lat="43.53955" lon="10.9495733"><ele>334.0</ele><time>2026-03-22T15:21:37.011Z</time></trkpt><trkpt lat="43.5397033" lon="10.9496433"><ele>327.66666666666663</ele><time>2026-03-22T15:21:38.011Z</time></trkpt><trkpt lat="43.5398233" lon="10.9497733"><ele>321.3333333333333</ele><time>2026-03-22T15:21:39.01Z</time></trkpt><trkpt lat="43.5399083" lon="10.9499483"><ele>315.0</ele><time>2026-03-22T15:21:40.01Z</time></trkpt><trkpt lat="43.53997" lon="10.9501633"><ele>315.0</ele><time>2026-03-22T15:21:41.01Z</time></trkpt><trkpt lat="43.5400017" lon="10.9504117"><ele>315.0</ele><time>2026-03-22T15:21:42.01Z</time></trkpt><trkpt lat="43.5400117" lon="10.95068"><ele>315.0</ele><time>2026-03-22T15:21:43.01Z</time></trkpt><trkpt lat="43.5400167" lon="10.9509467"><ele>314.6666666666667</ele><time>2026-03-22T15:21:44.009Z</time></trkpt><trkpt lat="43.5400267" lon="10.9512017"><ele>314.33333333333337</ele><time>2026-03-22T15:21:45.009Z</time></trkpt><trkpt lat="43.54005" lon="10.9514467"><ele>314.0</ele><time>2026-03-22T15:21:46.01Z</time></trkpt><trkpt lat="43.5400783" lon="10.951685"><ele>313.33333333333337</ele><time>2026-03-22T15:21:47.01Z</time></trkpt><trkpt lat="43.5401067" lon="10.951915"><ele>312.6666666666667</ele><time>2026-03-22T15:21:48.009Z</time></trkpt><trkpt lat="43.540135" lon="10.9521333"><ele>312.0</ele><time>2026-03-22T15:21:49.009Z</time></trkpt><trkpt lat="43.54016" lon="10.952345"><ele>312.75</ele><time>2026-03-22T15:21:50.01Z</time></trkpt><trkpt lat="43.540185" lon="10.9525467"><ele>313.5</ele><time>2026-03-22T15:21:51.009Z</time></trkpt><trkpt lat="43.5402117" lon="10.9527467"><ele>314.25</ele><time>2026-03-22T15:21:52.01Z</time></trkpt><trkpt lat="43.5402617" lon="10.9529317"><ele>315.0</ele><time>2026-03-22T15:21:53.01Z</time></trkpt><trkpt lat="43.5403283" lon="10.9530967"><ele>313.75</ele><time>2026-03-22T15:21:54.008Z</time></trkpt><trkpt lat="43.540405" lon="10.9532333"><ele>312.5</ele><time>2026-03-22T15:21:55.01Z</time></trkpt><trkpt lat="43.54051" lon="10.953335"><ele>311.25</ele><time>2026-03-22T15:21:56.009Z</time></trkpt><trkpt lat="43.540645" lon="10.9534317"><ele>310.0</ele><time>2026-03-22T15:21:57.01Z</time></trkpt><trkpt lat="43.5408033" lon="10.9535183"><ele>310.0</ele><time>2026-03-22T15:21:58.01Z</time></trkpt><trkpt lat="43.5409617" lon="10.9536133"><ele>310.0</ele><time>2026-03-22T15:21:59.01Z</time></trkpt><trkpt lat="43.5411267" lon="10.9537117"><ele>310.0</ele><time>2026-03-22T15:22:00.009Z</time></trkpt><trkpt lat="43.5412883" lon="10.953815"><ele>308.5</ele><time>2026-03-22T15:22:01.01Z</time></trkpt><trkpt lat="43.5414367" lon="10.9539217"><ele>307.0</ele><time>2026-03-22T15:22:02.011Z</time></trkpt><trkpt lat="43.5415633" lon="10.954025"><ele>305.5</ele><time>2026-03-22T15:22:03.01Z</time></trkpt><trkpt lat="43.5416717" lon="10.954135"><ele>304.0</ele><time>2026-03-22T15:22:04.008Z</time></trkpt><trkpt lat="43.5417633" lon="10.9542467"><ele>304.0</ele><time>2026-03-22T15:22:05.01Z</time></trkpt><trkpt lat="43.5418383" lon="10.9543617"><ele>304.0</ele><time>2026-03-22T15:22:06.009Z</time></trkpt><trkpt lat="43.5419067" lon="10.954475"><ele>304.0</ele><time>2026-03-22T15:22:07.009Z</time></trkpt><trkpt lat="43.541985" lon="10.9546017"><ele>304.0</ele><time>2026-03-22T15:22:08.01Z</time></trkpt><trkpt lat="43.5420683" lon="10.9547433"><ele>302.0</ele><time>2026-03-22T15:22:09.009Z</time></trkpt><trkpt lat="43.54215" lon="10.9548883"><ele>300.0</ele><time>2026-03-22T15:22:10.009Z</time></trkpt><trkpt lat="43.54223" lon="10.9550233"><ele>298.0</ele><time>2026-03-22T15:22:11.01Z</time></trkpt><trkpt lat="43.542335" lon="10.95514"><ele>296.0</ele><time>2026-03-22T15:22:12.009Z</time></trkpt><trkpt lat="43.5424617" lon="10.9552367"><ele>293.0</ele><time>2026-03-22T15:22:13.01Z</time></trkpt><trkpt lat="43.54261" lon="10.9553217"><ele>290.0</ele><time>2026-03-22T15:22:14.011Z</time></trkpt><trkpt lat="43.5427667" lon="10.9554117"><ele>287.0</ele><time>2026-03-22T15:22:15.01Z</time></trkpt><trkpt lat="43.54293" lon="10.9555117"><ele>285.33333333333337</ele><time>2026-03-22T15:22:16.009Z</time></trkpt><trkpt lat="43.5430933" lon="10.95562"><ele>283.6666666666667</ele><time>2026-03-22T15:22:17.01Z</time></trkpt><trkpt lat="43.5432583" lon="10.9557433"><ele>282.0</ele><time>2026-03-22T15:22:18.01Z</time></trkpt><trkpt lat="43.5434183" lon="10.9558683"><ele>278.6666666666667</ele><time>2026-03-22T15:22:19.009Z</time></trkpt><trkpt lat="43.5435733" lon="10.956"><ele>275.33333333333337</ele><time>2026-03-22T15:22:20.01Z</time></trkpt><trkpt lat="43.543725" lon="10.95613"><ele>272.0</ele><time>2026-03-22T15:22:21.01Z</time></trkpt><trkpt lat="43.543875" lon="10.9562567"><ele>271.33333333333337</ele><time>2026-03-22T15:22:22.01Z</time></trkpt><trkpt lat="43.5440233" lon="10.95638"><ele>270.6666666666667</ele><time>2026-03-22T15:22:23.01Z</time></trkpt><trkpt lat="43.5441717" lon="10.9565067"><ele>270.0</ele><time>2026-03-22T15:22:24.01Z</time></trkpt><trkpt lat="43.5443233" lon="10.9566317"><ele>267.0</ele><time>2026-03-22T15:22:25.009Z</time></trkpt><trkpt lat="43.5444783" lon="10.9567517"><ele>264.0</ele><time>2026-03-22T15:22:26.011Z</time></trkpt><trkpt lat="43.5446367" lon="10.9568633"><ele>261.0</ele><time>2026-03-22T15:22:27.01Z</time></trkpt><trkpt lat="43.5448" lon="10.956955"><ele>261.0</ele><time>2026-03-22T15:22:28.009Z</time></trkpt><trkpt lat="43.5449683" lon="10.9570433"><ele>261.0</ele><time>2026-03-22T15:22:29.01Z</time></trkpt><trkpt lat="43.545135" lon="10.9571283"><ele>261.0</ele><time>2026-03-22T15:22:30.009Z</time></trkpt><trkpt lat="43.5453017" lon="10.9572133"><ele>261.3333333333333</ele><time>2026-03-22T15:22:31.009Z</time></trkpt><trkpt lat="43.5454683" lon="10.9572967"><ele>261.66666666666663</ele><time>2026-03-22T15:22:32.011Z</time></trkpt><trkpt lat="43.5456333" lon="10.9573767"><ele>262.0</ele><time>2026-03-22T15:22:33.01Z</time></trkpt><trkpt lat="43.5458017" lon="10.9574517"><ele>262.0</ele><time>2026-03-22T15:22:34.01Z</time></trkpt><trkpt lat="43.5459717" lon="10.9575167"><ele>262.0</ele><time>2026-03-22T15:22:35.009Z</time></trkpt><trkpt lat="43.5461417" lon="10.9575667"><ele>262.0</ele><time>2026-03-22T15:22:36.01Z</time></trkpt><trkpt lat="43.546305" lon="10.9576067"><ele>262.0</ele><time>2026-03-22T15:22:37.009Z</time></trkpt><trkpt lat="43.5464517" lon="10.9576183"><ele>262.0</ele><time>2026-03-22T15:22:38.01Z</time></trkpt><trkpt lat="43.5465967" lon="10.9576067"><ele>262.0</ele><time>2026-03-22T15:22:39.01Z</time></trkpt><trkpt lat="43.5467433" lon="10.95755"><ele>262.0</ele><time>2026-03-22T15:22:40.01Z</time></trkpt><trkpt lat="43.5468933" lon="10.9574633"><ele>262.3333333333333</ele><time>2026-03-22T15:22:41.01Z</time></trkpt><trkpt lat="43.547045" lon="10.9573683"><ele>262.6666666666667</ele><time>2026-03-22T15:22:42.01Z</time></trkpt><trkpt lat="43.5471917" lon="10.9572767"><ele>263.0</ele><time>2026-03-22T15:22:43.009Z</time></trkpt><trkpt lat="43.5473367" lon="10.9572"><ele>263.0</ele><time>2026-03-22T15:22:44.01Z</time></trkpt><trkpt lat="43.54747" lon="10.95712"><ele>263.0</ele><time>2026-03-22T15:22:45.01Z</time></trkpt><trkpt lat="43.5475867" lon="10.9570367"><ele>263.0</ele><time>2026-03-22T15:22:46.009Z</time></trkpt><trkpt lat="43.54771" lon="10.9569767"><ele>263.0</ele><time>2026-03-22T15:22:47.01Z</time></trkpt><trkpt lat="43.5478383" lon="10.9569433"><ele>261.5</ele><time>2026-03-22T15:22:48.01Z</time></trkpt><trkpt lat="43.5479783" lon="10.9569433"><ele>260.0</ele><time>2026-03-22T15:22:49.011Z</time></trkpt><trkpt lat="43.548115" lon="10.9569917"><ele>258.5</ele><time>2026-03-22T15:22:50.01Z</time></trkpt><trkpt lat="43.5482467" lon="10.9570833"><ele>257.0</ele><time>2026-03-22T15:22:51.01Z</time></trkpt><trkpt lat="43.54837" lon="10.9571917"><ele>257.0</ele><time>2026-03-22T15:22:52.01Z</time></trkpt><trkpt lat="43.5484867" lon="10.9573067"><ele>257.0</ele><time>2026-03-22T15:22:53.01Z</time></trkpt><trkpt lat="43.5486" lon="10.957415"><ele>257.0</ele><time>2026-03-22T15:22:54.01Z</time></trkpt><trkpt lat="43.5487033" lon="10.9575067"><ele>257.0</ele><time>2026-03-22T15:22:55.009Z</time></trkpt><trkpt lat="43.548795" lon="10.95759"><ele>256.2</ele><time>2026-03-22T15:22:56.01Z</time></trkpt><trkpt lat="43.5488817" lon="10.957665"><ele>255.39999999999998</ele><time>2026-03-22T15:22:57.01Z</time></trkpt><trkpt lat="43.5489667" lon="10.9577167"><ele>254.60000000000002</ele><time>2026-03-22T15:22:58.01Z</time></trkpt><trkpt lat="43.5490633" lon="10.957735"><ele>253.8</ele><time>2026-03-22T15:22:59.01Z</time></trkpt><trkpt lat="43.549155" lon="10.9576883"><ele>253.0</ele><time>2026-03-22T15:23:00.01Z</time></trkpt><trkpt lat="43.5492383" lon="10.9576033"><ele>251.33333333333331</ele><time>2026-03-22T15:23:01.01Z</time></trkpt><trkpt lat="43.5493017" lon="10.957415"><ele>249.66666666666669</ele><time>2026-03-22T15:23:02.011Z</time></trkpt><trkpt lat="43.5493867" lon="10.9571933"><ele>248.0</ele><time>2026-03-22T15:23:03.01Z</time></trkpt><trkpt lat="43.5494783" lon="10.956955"><ele>244.0</ele><time>2026-03-22T15:23:04.009Z</time></trkpt><trkpt lat="43.5495767" lon="10.95672"><ele>240.0</ele><time>2026-03-22T15:23:05.009Z</time></trkpt><trkpt lat="43.5496783" lon="10.9564817"><ele>236.0</ele><time>2026-03-22T15:23:06.009Z</time></trkpt><trkpt lat="43.5497683" lon="10.95624"><ele>236.0</ele><time>2026-03-22T15:23:07.01Z</time></trkpt><trkpt lat="43.5498633" lon="10.9560033"><ele>236.0</ele><time>2026-03-22T15:23:08.01Z</time></trkpt><trkpt lat="43.5499583" lon="10.9557733"><ele>236.0</ele><time>2026-03-22T15:23:09.01Z</time></trkpt><trkpt lat="43.550055" lon="10.9555583"><ele>236.0</ele><time>2026-03-22T15:23:10.01Z</time></trkpt><trkpt lat="43.55016" lon="10.95535"><ele>236.0</ele><time>2026-03-22T15:23:11.009Z</time></trkpt><trkpt lat="43.55028" lon="10.9551617"><ele>236.0</ele><time>2026-03-22T15:23:12.01Z</time></trkpt><trkpt lat="43.5504233" lon="10.9550033"><ele>234.33333333333334</ele><time>2026-03-22T15:23:13.009Z</time></trkpt><trkpt lat="43.5505833" lon="10.9548717"><ele>232.66666666666669</ele><time>2026-03-22T15:23:14.01Z</time></trkpt><trkpt lat="43.5507583" lon="10.954755"><ele>231.0</ele><time>2026-03-22T15:23:15.01Z</time></trkpt><trkpt lat="43.5509383" lon="10.9546417"><ele>231.0</ele><time>2026-03-22T15:23:16.01Z</time></trkpt><trkpt lat="43.5511133" lon="10.95452"><ele>231.0</ele><time>2026-03-22T15:23:17.01Z</time></trkpt><trkpt lat="43.5512817" lon="10.9543867"><ele>231.0</ele><time>2026-03-22T15:23:18.01Z</time></trkpt><trkpt lat="43.55144" lon="10.9542433"><ele>231.0</ele><time>2026-03-22T15:23:19.012Z</time></trkpt><trkpt lat="43.5515933" lon="10.9540917"><ele>231.0</ele><time>2026-03-22T15:23:20.011Z</time></trkpt><trkpt lat="43.55174" lon="10.9539267"><ele>231.0</ele><time>2026-03-22T15:23:21.01Z</time></trkpt><trkpt lat="43.551885" lon="10.9537567"><ele>231.0</ele><time>2026-03-22T15:23:22.01Z</time></trkpt><trkpt lat="43.5520233" lon="10.953585"><ele>231.0</ele><time>2026-03-22T15:23:23.01Z</time></trkpt><trkpt lat="43.5521733" lon="10.9534433"><ele>231.0</ele><time>2026-03-22T15:23:24.009Z</time></trkpt><trkpt lat="43.5523417" lon="10.9533367"><ele>230.33333333333331</ele><time>2026-03-22T15:23:25.01Z</time></trkpt><trkpt lat="43.55252" lon="10.953265"><ele>229.66666666666666</ele><time>2026-03-22T15:23:26.009Z</time></trkpt><trkpt lat="43.552705" lon="10.9532083"><ele>229.0</ele><time>2026-03-22T15:23:27.01Z</time></trkpt><trkpt lat="43.5528933" lon="10.9531633"><ele>228.66666666666666</ele><time>2026-03-22T15:23:28.008Z</time></trkpt><trkpt lat="43.5530783" lon="10.953115"><ele>228.33333333333331</ele><time>2026-03-22T15:23:29.009Z</time></trkpt><trkpt lat="43.553255" lon="10.9530633"><ele>228.0</ele><time>2026-03-22T15:23:30.011Z</time></trkpt><trkpt lat="43.5534183" lon="10.9530167"><ele>228.0</ele><time>2026-03-22T15:23:31.009Z</time></trkpt><trkpt lat="43.5535717" lon="10.9529567"><ele>228.0</ele><time>2026-03-22T15:23:32.01Z</time></trkpt><trkpt lat="43.5537233" lon="10.9529"><ele>228.0</ele><time>2026-03-22T15:23:33.01Z</time></trkpt><trkpt lat="43.55388" lon="10.9528417"><ele>226.66666666666669</ele><time>2026-03-22T15:23:34.01Z</time></trkpt><trkpt lat="43.55404" lon="10.952795"><ele>225.33333333333334</ele><time>2026-03-22T15:23:35.009Z</time></trkpt><trkpt lat="43.5542033" lon="10.9527633"><ele>224.0</ele><time>2026-03-22T15:23:36.01Z</time></trkpt><trkpt lat="43.5543667" lon="10.95274"><ele>224.0</ele><time>2026-03-22T15:23:37.012Z</time></trkpt><trkpt lat="43.5545317" lon="10.9527167"><ele>224.0</ele><time>2026-03-22T15:23:38.01Z</time></trkpt><trkpt lat="43.5546883" lon="10.9526683"><ele>224.0</ele><time>2026-03-22T15:23:39.01Z</time></trkpt><trkpt lat="43.5548417" lon="10.9525983"><ele>221.0</ele><time>2026-03-22T15:23:40.01Z</time></trkpt><trkpt lat="43.55499" lon="10.9525083"><ele>218.0</ele><time>2026-03-22T15:23:41.01Z</time></trkpt><trkpt lat="43.55514" lon="10.952425"><ele>215.0</ele><time>2026-03-22T15:23:42.009Z</time></trkpt><trkpt lat="43.555285" lon="10.9523433"><ele>211.66666666666669</ele><time>2026-03-22T15:23:43.01Z</time></trkpt><trkpt lat="43.5554283" lon="10.95226"><ele>208.33333333333331</ele><time>2026-03-22T15:23:44.011Z</time></trkpt><trkpt lat="43.55557" lon="10.95218"><ele>205.0</ele><time>2026-03-22T15:23:45.01Z</time></trkpt><trkpt lat="43.555715" lon="10.9521083"><ele>205.0</ele><time>2026-03-22T15:23:46.01Z</time></trkpt><trkpt lat="43.55586" lon="10.9520367"><ele>205.0</ele><time>2026-03-22T15:23:47.009Z</time></trkpt><trkpt lat="43.5560083" lon="10.9519667"><ele>205.0</ele><time>2026-03-22T15:23:48.009Z</time></trkpt><trkpt lat="43.55615" lon="10.9519"><ele>202.5</ele><time>2026-03-22T15:23:49.009Z</time></trkpt><trkpt lat="43.5562867" lon="10.9518383"><ele>200.0</ele><time>2026-03-22T15:23:50.01Z</time></trkpt><trkpt lat="43.5564233" lon="10.95178"><ele>197.5</ele><time>2026-03-22T15:23:51.01Z</time></trkpt><trkpt lat="43.556565" lon="10.9517283"><ele>195.0</ele><time>2026-03-22T15:23:52.009Z</time></trkpt><trkpt lat="43.5567067" lon="10.9516817"><ele>195.0</ele><time>2026-03-22T15:23:53.009Z</time></trkpt><trkpt lat="43.5568483" lon="10.9516367"><ele>195.0</ele><time>2026-03-22T15:23:54.011Z</time></trkpt><trkpt lat="43.556985" lon="10.9515917"><ele>195.0</ele><time>2026-03-22T15:23:55.01Z</time></trkpt><trkpt lat="43.557125" lon="10.9515483"><ele>195.0</ele><time>2026-03-22T15:23:56.01Z</time></trkpt><trkpt lat="43.55726" lon="10.9515033"><ele>194.75</ele><time>2026-03-22T15:23:57.009Z</time></trkpt><trkpt lat="43.5573933" lon="10.9514567"><ele>194.5</ele><time>2026-03-22T15:23:58.01Z</time></trkpt><trkpt lat="43.557525" lon="10.9514"><ele>194.25</ele><time>2026-03-22T15:23:59.008Z</time></trkpt><trkpt lat="43.5576583" lon="10.95133"><ele>194.0</ele><time>2026-03-22T15:24:00.01Z</time></trkpt><trkpt lat="43.5577933" lon="10.9512417"><ele>194.0</ele><time>2026-03-22T15:24:01.01Z</time></trkpt><trkpt lat="43.5579333" lon="10.951145"><ele>194.0</ele><time>2026-03-22T15:24:02.009Z</time></trkpt><trkpt lat="43.55807" lon="10.9510517"><ele>194.0</ele><time>2026-03-22T15:24:03.011Z</time></trkpt><trkpt lat="43.558215" lon="10.9509767"><ele>194.0</ele><time>2026-03-22T15:24:04.01Z</time></trkpt><trkpt lat="43.558375" lon="10.9509333"><ele>194.0</ele><time>2026-03-22T15:24:05.01Z</time></trkpt><trkpt lat="43.5585333" lon="10.9509133"><ele>194.0</ele><time>2026-03-22T15:24:06.01Z</time></trkpt><trkpt lat="43.5586967" lon="10.9509133"><ele>194.33333333333334</ele><time>2026-03-22T15:24:07.01Z</time></trkpt><trkpt lat="43.558865" lon="10.9509367"><ele>194.66666666666669</ele><time>2026-03-22T15:24:08.01Z</time></trkpt><trkpt lat="43.5590417" lon="10.95096"><ele>195.0</ele><time>2026-03-22T15:24:09.01Z</time></trkpt><trkpt lat="43.5592267" lon="10.9509767"><ele>195.0</ele><time>2026-03-22T15:24:10.011Z</time></trkpt><trkpt lat="43.5594167" lon="10.9509933"><ele>195.0</ele><time>2026-03-22T15:24:11.011Z</time></trkpt><trkpt lat="43.559605" lon="10.951015"><ele>195.0</ele><time>2026-03-22T15:24:12.011Z</time></trkpt><trkpt lat="43.5597817" lon="10.95103"><ele>194.0</ele><time>2026-03-22T15:24:13.01Z</time></trkpt><trkpt lat="43.559945" lon="10.95104"><ele>193.0</ele><time>2026-03-22T15:24:14.011Z</time></trkpt><trkpt lat="43.560105" lon="10.9510467"><ele>192.0</ele><time>2026-03-22T15:24:15.01Z</time></trkpt><trkpt lat="43.56027" lon="10.9510483"><ele>189.33333333333334</ele><time>2026-03-22T15:24:16.011Z</time></trkpt><trkpt lat="43.5604333" lon="10.9510433"><ele>186.66666666666669</ele><time>2026-03-22T15:24:17.011Z</time></trkpt><trkpt lat="43.5605967" lon="10.9510383"><ele>184.0</ele><time>2026-03-22T15:24:18.011Z</time></trkpt><trkpt lat="43.5607567" lon="10.95103"><ele>184.0</ele><time>2026-03-22T15:24:19.011Z</time></trkpt><trkpt lat="43.56092" lon="10.9510267"><ele>184.0</ele><time>2026-03-22T15:24:20.011Z</time></trkpt><trkpt lat="43.5610817" lon="10.9510233"><ele>184.0</ele><time>2026-03-22T15:24:21.01Z</time></trkpt><trkpt lat="43.5612433" lon="10.9510267"><ele>182.0</ele><time>2026-03-22T15:24:22.01Z</time></trkpt><trkpt lat="43.5614017" lon="10.9510283"><ele>180.0</ele><time>2026-03-22T15:24:23.01Z</time></trkpt><trkpt lat="43.5615567" lon="10.9510317"><ele>178.0</ele><time>2026-03-22T15:24:24.011Z</time></trkpt><trkpt lat="43.5617033" lon="10.95106"><ele>178.0</ele><time>2026-03-22T15:24:25.01Z</time></trkpt><trkpt lat="43.5618467" lon="10.951135"><ele>178.0</ele><time>2026-03-22T15:24:26.01Z</time></trkpt><trkpt lat="43.56198" lon="10.9512567"><ele>178.0</ele><time>2026-03-22T15:24:27.011Z</time></trkpt><trkpt lat="43.562105" lon="10.9514167"><ele>179.0</ele><time>2026-03-22T15:24:28.01Z</time></trkpt><trkpt lat="43.56223" lon="10.951605"><ele>180.0</ele><time>2026-03-22T15:24:29.01Z</time></trkpt><trkpt lat="43.5623617" lon="10.9518083"><ele>181.0</ele><time>2026-03-22T15:24:30.011Z</time></trkpt><trkpt lat="43.5624933" lon="10.9520167"><ele>177.33333333333334</ele><time>2026-03-22T15:24:31.01Z</time></trkpt><trkpt lat="43.5626217" lon="10.952225"><ele>173.66666666666666</ele><time>2026-03-22T15:24:32.012Z</time></trkpt><trkpt lat="43.5627283" lon="10.952425"><ele>170.0</ele><time>2026-03-22T15:24:33.011Z</time></trkpt><trkpt lat="43.5628217" lon="10.9526333"><ele>168.66666666666666</ele><time>2026-03-22T15:24:34.011Z</time></trkpt><trkpt lat="43.5629" lon="10.9528383"><ele>167.33333333333334</ele><time>2026-03-22T15:24:35.011Z</time></trkpt><trkpt lat="43.5629683" lon="10.9530333"><ele>166.0</ele><time>2026-03-22T15:24:36.012Z</time></trkpt><trkpt lat="43.5630283" lon="10.9532183"><ele>166.5</ele><time>2026-03-22T15:24:37.011Z</time></trkpt><trkpt lat="43.5630817" lon="10.95339"><ele>167.0</ele><time>2026-03-22T15:24:38.011Z</time></trkpt><trkpt lat="43.5631317" lon="10.9535467"><ele>167.5</ele><time>2026-03-22T15:24:39.011Z</time></trkpt><trkpt lat="43.56318" lon="10.9536917"><ele>168.0</ele><time>2026-03-22T15:24:40.012Z</time></trkpt><trkpt lat="43.563225" lon="10.9538233"><ele>168.0</ele><time>2026-03-22T15:24:41.01Z</time></trkpt><trkpt lat="43.5632667" lon="10.95395"><ele>168.0</ele><time>2026-03-22T15:24:42.01Z</time></trkpt><trkpt lat="43.5633017" lon="10.9540683"><ele>168.0</ele><time>2026-03-22T15:24:43.01Z</time></trkpt><trkpt lat="43.56334" lon="10.9541867"><ele>168.0</ele><time>2026-03-22T15:24:44.012Z</time></trkpt><trkpt lat="43.5633817" lon="10.95432"><ele>168.0</ele><time>2026-03-22T15:24:45.011Z</time></trkpt><trkpt lat="43.5634317" lon="10.95446"><ele>168.0</ele><time>2026-03-22T15:24:46.01Z</time></trkpt><trkpt lat="43.5634867" lon="10.9546083"><ele>168.0</ele><time>2026-03-22T15:24:47.01Z</time></trkpt><trkpt lat="43.56354" lon="10.9547633"><ele>168.0</ele><time>2026-03-22T15:24:48.009Z</time></trkpt><trkpt lat="43.5635933" lon="10.9549183"><ele>168.0</ele><time>2026-03-22T15:24:49.011Z</time></trkpt><trkpt lat="43.5636417" lon="10.95507"><ele>167.5</ele><time>2026-03-22T15:24:50.01Z</time></trkpt><trkpt lat="43.5636867" lon="10.95522"><ele>167.0</ele><time>2026-03-22T15:24:51.011Z</time></trkpt><trkpt lat="43.5637467" lon="10.955375"><ele>166.5</ele><time>2026-03-22T15:24:52.01Z</time></trkpt><trkpt lat="43.5638133" lon="10.9555317"><ele>166.0</ele><time>2026-03-22T15:24:53.01Z</time></trkpt><trkpt lat="43.5638917" lon="10.9556867"><ele>166.0</ele><time>2026-03-22T15:24:54.009Z</time></trkpt><trkpt lat="43.56398" lon="10.9558333"><ele>166.0</ele><time>2026-03-22T15:24:55.011Z</time></trkpt><trkpt lat="43.5640717" lon="10.95596"><ele>166.0</ele><time>2026-03-22T15:24:56.01Z</time></trkpt><trkpt lat="43.5641617" lon="10.9560817"><ele>166.0</ele><time>2026-03-22T15:24:57.01Z</time></trkpt><trkpt lat="43.5642517" lon="10.9562033"><ele>166.25</ele><time>2026-03-22T15:24:58.01Z</time></trkpt><trkpt lat="43.5643417" lon="10.9563283"><ele>166.5</ele><time>2026-03-22T15:24:59.01Z</time></trkpt><trkpt lat="43.5644267" lon="10.9564583"><ele>166.75</ele><time>2026-03-22T15:25:00.009Z</time></trkpt><trkpt lat="43.564505" lon="10.9565767"><ele>167.0</ele><time>2026-03-22T15:25:01.011Z</time></trkpt><trkpt lat="43.5645767" lon="10.9566967"><ele>165.0</ele><time>2026-03-22T15:25:02.011Z</time></trkpt><trkpt lat="43.56465" lon="10.9568267"><ele>163.0</ele><time>2026-03-22T15:25:03.01Z</time></trkpt><trkpt lat="43.5647217" lon="10.9569583"><ele>161.0</ele><time>2026-03-22T15:25:04.01Z</time></trkpt><trkpt lat="43.5647983" lon="10.9570967"><ele>159.0</ele><time>2026-03-22T15:25:05.011Z</time></trkpt><trkpt lat="43.5648783" lon="10.957235"><ele>159.0</ele><time>2026-03-22T15:25:06.01Z</time></trkpt><trkpt lat="43.5649617" lon="10.9573717"><ele>159.0</ele><time>2026-03-22T15:25:07.009Z</time></trkpt><trkpt lat="43.5650433" lon="10.9575233"><ele>159.0</ele><time>2026-03-22T15:25:08.01Z</time></trkpt><trkpt lat="43.56513" lon="10.9576767"><ele>159.0</ele><time>2026-03-22T15:25:09.01Z</time></trkpt><trkpt lat="43.56522" lon="10.9578283"><ele>157.75</ele><time>2026-03-22T15:25:10.01Z</time></trkpt><trkpt lat="43.5653167" lon="10.95797"><ele>156.5</ele><time>2026-03-22T15:25:11.011Z</time></trkpt><trkpt lat="43.5654217" lon="10.9581083"><ele>155.25</ele><time>2026-03-22T15:25:12.011Z</time></trkpt><trkpt lat="43.5655333" lon="10.9582417"><ele>154.0</ele><time>2026-03-22T15:25:13.011Z</time></trkpt><trkpt lat="43.5656433" lon="10.95836"><ele>153.0</ele><time>2026-03-22T15:25:14.01Z</time></trkpt><trkpt lat="43.5657533" lon="10.9584683"><ele>152.0</ele><time>2026-03-22T15:25:15.011Z</time></trkpt><trkpt lat="43.5658683" lon="10.9585767"><ele>151.0</ele><time>2026-03-22T15:25:16.011Z</time></trkpt><trkpt lat="43.5659767" lon="10.9586833"><ele>150.0</ele><time>2026-03-22T15:25:17.01Z</time></trkpt><trkpt lat="43.5660783" lon="10.95879"><ele>150.0</ele><time>2026-03-22T15:25:18.01Z</time></trkpt><trkpt lat="43.5661717" lon="10.9588983"><ele>150.0</ele><time>2026-03-22T15:25:19.011Z</time></trkpt><trkpt lat="43.5662583" lon="10.9590033"><ele>150.0</ele><time>2026-03-22T15:25:20.01Z</time></trkpt><trkpt lat="43.5663383" lon="10.9591117"><ele>150.0</ele><time>2026-03-22T15:25:21.011Z</time></trkpt><trkpt lat="43.5664133" lon="10.9592217"><ele>147.75</ele><time>2026-03-22T15:25:22.01Z</time></trkpt><trkpt lat="43.5664883" lon="10.95934"><ele>145.5</ele><time>2026-03-22T15:25:23.01Z</time></trkpt><trkpt lat="43.5665683" lon="10.9594633"><ele>143.25</ele><time>2026-03-22T15:25:24.011Z</time></trkpt><trkpt lat="43.5666517" lon="10.9595917"><ele>141.0</ele><time>2026-03-22T15:25:25.01Z</time></trkpt><trkpt lat="43.5667317" lon="10.9597333"><ele>141.0</ele><time>2026-03-22T15:25:26.011Z</time></trkpt><trkpt lat="43.5668217" lon="10.9598817"><ele>141.0</ele><time>2026-03-22T15:25:27.01Z</time></trkpt><trkpt lat="43.5669283" lon="10.9600233"><ele>141.0</ele><time>2026-03-22T15:25:28.011Z</time></trkpt><trkpt lat="43.5670583" lon="10.9601317"><ele>141.0</ele><time>2026-03-22T15:25:29.01Z</time></trkpt><trkpt lat="43.56719" lon="10.9602217"><ele>140.25</ele><time>2026-03-22T15:25:30.011Z</time></trkpt><trkpt lat="43.5673083" lon="10.9602717"><ele>139.5</ele><time>2026-03-22T15:25:31.01Z</time></trkpt><trkpt lat="43.5674233" lon="10.9603217"><ele>138.75</ele><time>2026-03-22T15:25:32.011Z</time></trkpt><trkpt lat="43.567535" lon="10.9603817"><ele>138.0</ele><time>2026-03-22T15:25:33.011Z</time></trkpt><trkpt lat="43.5676433" lon="10.9604433"><ele>138.0</ele><time>2026-03-22T15:25:34.009Z</time></trkpt><trkpt lat="43.5677517" lon="10.96051"><ele>138.0</ele><time>2026-03-22T15:25:35.011Z</time></trkpt><trkpt lat="43.5678533" lon="10.9605533"><ele>138.0</ele><time>2026-03-22T15:25:36.01Z</time></trkpt><trkpt lat="43.5679667" lon="10.9606233"><ele>138.0</ele><time>2026-03-22T15:25:37.011Z</time></trkpt><trkpt lat="43.5680883" lon="10.9607067"><ele>136.66666666666666</ele><time>2026-03-22T15:25:38.011Z</time></trkpt><trkpt lat="43.568215" lon="10.9607867"><ele>135.33333333333331</ele><time>2026-03-22T15:25:39.009Z</time></trkpt><trkpt lat="43.56835" lon="10.9608933"><ele>134.0</ele><time>2026-03-22T15:25:40.011Z</time></trkpt><trkpt lat="43.5685033" lon="10.9610183"><ele>134.0</ele><time>2026-03-22T15:25:41.01Z</time></trkpt><trkpt lat="43.56867" lon="10.9611583"><ele>134.0</ele><time>2026-03-22T15:25:42.011Z</time></trkpt><trkpt lat="43.5688433" lon="10.9613167"><ele>134.0</ele><time>2026-03-22T15:25:43.01Z</time></trkpt><trkpt lat="43.5690117" lon="10.96149"><ele>134.33333333333331</ele><time>2026-03-22T15:25:44.01Z</time></trkpt><trkpt lat="43.569175" lon="10.9616533"><ele>134.66666666666666</ele><time>2026-03-22T15:25:45.011Z</time></trkpt><trkpt lat="43.569335" lon="10.9618183"><ele>135.0</ele><time>2026-03-22T15:25:46.01Z</time></trkpt><trkpt lat="43.56947" lon="10.9620017"><ele>135.66666666666666</ele><time>2026-03-22T15:25:47.01Z</time></trkpt><trkpt lat="43.5695817" lon="10.9622133"><ele>136.33333333333331</ele><time>2026-03-22T15:25:48.011Z</time></trkpt><trkpt lat="43.5696733" lon="10.9624567"><ele>137.0</ele><time>2026-03-22T15:25:49.01Z</time></trkpt><trkpt lat="43.5697483" lon="10.9627033"><ele>135.66666666666666</ele><time>2026-03-22T15:25:50.01Z</time></trkpt><trkpt lat="43.569815" lon="10.9629367"><ele>134.33333333333334</ele><time>2026-03-22T15:25:51.01Z</time></trkpt><trkpt lat="43.5698867" lon="10.9631417"><ele>133.0</ele><time>2026-03-22T15:25:52.01Z</time></trkpt><trkpt lat="43.569975" lon="10.9633117"><ele>127.66666666666667</ele><time>2026-03-22T15:25:53.011Z</time></trkpt><trkpt lat="43.5700967" lon="10.96344"><ele>122.33333333333334</ele><time>2026-03-22T15:25:54.01Z</time></trkpt><trkpt lat="43.5702333" lon="10.9635183"><ele>117.0</ele><time>2026-03-22T15:25:55.012Z</time></trkpt><trkpt lat="43.5703833" lon="10.9635433"><ele>117.0</ele><time>2026-03-22T15:25:56.011Z</time></trkpt><trkpt lat="43.5705417" lon="10.963515"><ele>117.0</ele><time>2026-03-22T15:25:57.01Z</time></trkpt><trkpt lat="43.5707083" lon="10.9633983"><ele>117.0</ele><time>2026-03-22T15:25:58.011Z</time></trkpt><trkpt lat="43.57088" lon="10.963255"><ele>117.33333333333334</ele><time>2026-03-22T15:25:59.012Z</time></trkpt><trkpt lat="43.5710483" lon="10.9631317"><ele>117.66666666666667</ele><time>2026-03-22T15:26:00.01Z</time></trkpt><trkpt lat="43.57121" lon="10.9630117"><ele>118.0</ele><time>2026-03-22T15:26:01.011Z</time></trkpt><trkpt lat="43.5713717" lon="10.9628967"><ele>118.0</ele><time>2026-03-22T15:26:02.01Z</time></trkpt><trkpt lat="43.5715317" lon="10.962795"><ele>118.0</ele><time>2026-03-22T15:26:03.011Z</time></trkpt><trkpt lat="43.5716917" lon="10.962715"><ele>118.0</ele><time>2026-03-22T15:26:04.01Z</time></trkpt><trkpt lat="43.5718533" lon="10.9626633"><ele>118.0</ele><time>2026-03-22T15:26:05.01Z</time></trkpt><trkpt lat="43.5720183" lon="10.9626267"><ele>118.0</ele><time>2026-03-22T15:26:06.01Z</time></trkpt><trkpt lat="43.5721817" lon="10.9625967"><ele>118.0</ele><time>2026-03-22T15:26:07.01Z</time></trkpt><trkpt lat="43.5723483" lon="10.9625783"><ele>115.66666666666667</ele><time>2026-03-22T15:26:08.009Z</time></trkpt><trkpt lat="43.5725183" lon="10.9625833"><ele>113.33333333333334</ele><time>2026-03-22T15:26:09.01Z</time></trkpt><trkpt lat="43.5726933" lon="10.962605"><ele>111.0</ele><time>2026-03-22T15:26:10.009Z</time></trkpt><trkpt lat="43.5728717" lon="10.96264"><ele>109.33333333333334</ele><time>2026-03-22T15:26:11.009Z</time></trkpt><trkpt lat="43.5730517" lon="10.9626817"><ele>107.66666666666667</ele><time>2026-03-22T15:26:12.009Z</time></trkpt><trkpt lat="43.57323" lon="10.9627217"><ele>106.0</ele><time>2026-03-22T15:26:13.01Z</time></trkpt><trkpt lat="43.5734067" lon="10.9627617"><ele>106.0</ele><time>2026-03-22T15:26:14.01Z</time></trkpt><trkpt lat="43.57358" lon="10.9628083"><ele>106.0</ele><time>2026-03-22T15:26:15.01Z</time></trkpt><trkpt lat="43.573755" lon="10.9628433"><ele>106.0</ele><time>2026-03-22T15:26:16.01Z</time></trkpt><trkpt lat="43.57393" lon="10.9628833"><ele>104.0</ele><time>2026-03-22T15:26:17.011Z</time></trkpt><trkpt lat="43.5741083" lon="10.9629333"><ele>102.0</ele><time>2026-03-22T15:26:18.01Z</time></trkpt><trkpt lat="43.5742867" lon="10.9629833"><ele>100.0</ele><time>2026-03-22T15:26:19.01Z</time></trkpt><trkpt lat="43.5744617" lon="10.96303"><ele>97.0</ele><time>2026-03-22T15:26:20.01Z</time></trkpt><trkpt lat="43.57463" lon="10.9630733"><ele>94.0</ele><time>2026-03-22T15:26:21.011Z</time></trkpt><trkpt lat="43.5747967" lon="10.9631167"><ele>91.0</ele><time>2026-03-22T15:26:22.011Z</time></trkpt><trkpt lat="43.5749567" lon="10.9631583"><ele>91.0</ele><time>2026-03-22T15:26:23.01Z</time></trkpt><trkpt lat="43.5751167" lon="10.9631983"><ele>91.0</ele><time>2026-03-22T15:26:24.01Z</time></trkpt><trkpt lat="43.5752783" lon="10.9632417"><ele>91.0</ele><time>2026-03-22T15:26:25.009Z</time></trkpt><trkpt lat="43.57544" lon="10.9632867"><ele>88.66666666666666</ele><time>2026-03-22T15:26:26.01Z</time></trkpt><trkpt lat="43.5756033" lon="10.96333"><ele>86.33333333333333</ele><time>2026-03-22T15:26:27.01Z</time></trkpt><trkpt lat="43.575765" lon="10.9633667"><ele>84.0</ele><time>2026-03-22T15:26:28.01Z</time></trkpt><trkpt lat="43.5759283" lon="10.9634067"><ele>84.0</ele><time>2026-03-22T15:26:29.01Z</time></trkpt><trkpt lat="43.5760933" lon="10.96345"><ele>84.0</ele><time>2026-03-22T15:26:30.011Z</time></trkpt><trkpt lat="43.57626" lon="10.9634867"><ele>84.0</ele><time>2026-03-22T15:26:31.011Z</time></trkpt><trkpt lat="43.5764267" lon="10.963525"><ele>80.66666666666667</ele><time>2026-03-22T15:26:32.01Z</time></trkpt><trkpt lat="43.5765967" lon="10.9635733"><ele>77.33333333333334</ele><time>2026-03-22T15:26:33.011Z</time></trkpt><trkpt lat="43.5767667" lon="10.963615"><ele>74.0</ele><time>2026-03-22T15:26:34.01Z</time></trkpt><trkpt lat="43.5769333" lon="10.9636583"><ele>71.33333333333334</ele><time>2026-03-22T15:26:35.01Z</time></trkpt><trkpt lat="43.5770983" lon="10.963695"><ele>68.66666666666667</ele><time>2026-03-22T15:26:36.01Z</time></trkpt><trkpt lat="43.5772633" lon="10.963735"><ele>66.0</ele><time>2026-03-22T15:26:37.01Z</time></trkpt><trkpt lat="43.5774333" lon="10.9637817"><ele>66.0</ele><time>2026-03-22T15:26:38.009Z</time></trkpt><trkpt lat="43.5776033" lon="10.9638233"><ele>66.0</ele><time>2026-03-22T15:26:39.009Z</time></trkpt><trkpt lat="43.5777717" lon="10.9638617"><ele>66.0</ele><time>2026-03-22T15:26:40.011Z</time></trkpt><trkpt lat="43.5779383" lon="10.9639017"><ele>64.66666666666667</ele><time>2026-03-22T15:26:41.01Z</time></trkpt><trkpt lat="43.5781083" lon="10.96395"><ele>63.333333333333336</ele><time>2026-03-22T15:26:42.01Z</time></trkpt><trkpt lat="43.578275" lon="10.9640083"><ele>62.0</ele><time>2026-03-22T15:26:43.01Z</time></trkpt><trkpt lat="43.5784417" lon="10.9640667"><ele>62.0</ele><time>2026-03-22T15:26:44.01Z</time></trkpt><trkpt lat="43.5786067" lon="10.9641183"><ele>62.0</ele><time>2026-03-22T15:26:45.01Z</time></trkpt><trkpt lat="43.578775" lon="10.9641767"><ele>62.0</ele><time>2026-03-22T15:26:46.01Z</time></trkpt><trkpt lat="43.5789383" lon="10.964235"><ele>62.333333333333336</ele><time>2026-03-22T15:26:47.01Z</time></trkpt><trkpt lat="43.5791017" lon="10.9642867"><ele>62.66666666666667</ele><time>2026-03-22T15:26:48.01Z</time></trkpt><trkpt lat="43.579265" lon="10.9643467"><ele>63.0</ele><time>2026-03-22T15:26:49.01Z</time></trkpt><trkpt lat="43.5794283" lon="10.9644067"><ele>62.66666666666667</ele><time>2026-03-22T15:26:50.011Z</time></trkpt><trkpt lat="43.57959" lon="10.96446"><ele>62.333333333333336</ele><time>2026-03-22T15:26:51.01Z</time></trkpt><trkpt lat="43.5797533" lon="10.9645167"><ele>62.0</ele><time>2026-03-22T15:26:52.01Z</time></trkpt><trkpt lat="43.5799133" lon="10.9645683"><ele>62.0</ele><time>2026-03-22T15:26:53.011Z</time></trkpt><trkpt lat="43.5800767" lon="10.9646333"><ele>62.0</ele><time>2026-03-22T15:26:54.01Z</time></trkpt><trkpt lat="43.5802383" lon="10.964695"><ele>62.0</ele><time>2026-03-22T15:26:55.01Z</time></trkpt><trkpt lat="43.5803983" lon="10.9647567"><ele>61.333333333333336</ele><time>2026-03-22T15:26:56.009Z</time></trkpt><trkpt lat="43.5805583" lon="10.9648183"><ele>60.66666666666667</ele><time>2026-03-22T15:26:57.01Z</time></trkpt><trkpt lat="43.58072" lon="10.9648833"><ele>60.0</ele><time>2026-03-22T15:26:58.01Z</time></trkpt><trkpt lat="43.58088" lon="10.964945"><ele>60.0</ele><time>2026-03-22T15:26:59.01Z</time></trkpt><trkpt lat="43.5810383" lon="10.96501"><ele>60.0</ele><time>2026-03-22T15:27:00.009Z</time></trkpt><trkpt lat="43.5812" lon="10.96507"><ele>60.0</ele><time>2026-03-22T15:27:01.01Z</time></trkpt><trkpt lat="43.5813583" lon="10.96513"><ele>60.0</ele><time>2026-03-22T15:27:02.01Z</time></trkpt><trkpt lat="43.581515" lon="10.965195"><ele>60.0</ele><time>2026-03-22T15:27:03.01Z</time></trkpt><trkpt lat="43.5816583" lon="10.9652517"><ele>60.0</ele><time>2026-03-22T15:27:04.01Z</time></trkpt><trkpt lat="43.5817917" lon="10.965305"><ele>60.0</ele><time>2026-03-22T15:27:05.011Z</time></trkpt><trkpt lat="43.5819167" lon="10.9653517"><ele>60.0</ele><time>2026-03-22T15:27:06.01Z</time></trkpt><trkpt lat="43.5820367" lon="10.9653983"><ele>60.0</ele><time>2026-03-22T15:27:07.01Z</time></trkpt><trkpt lat="43.582155" lon="10.965435"><ele>60.0</ele><time>2026-03-22T15:27:08.01Z</time></trkpt><trkpt lat="43.5822833" lon="10.9654717"><ele>59.66666666666667</ele><time>2026-03-22T15:27:09.01Z</time></trkpt><trkpt lat="43.5824167" lon="10.9655117"><ele>59.333333333333336</ele><time>2026-03-22T15:27:10.01Z</time></trkpt><trkpt lat="43.5825667" lon="10.9655633"><ele>59.0</ele><time>2026-03-22T15:27:11.01Z</time></trkpt><trkpt lat="43.5827333" lon="10.96562"><ele>59.333333333333336</ele><time>2026-03-22T15:27:12.01Z</time></trkpt><trkpt lat="43.5829" lon="10.9656833"><ele>59.66666666666667</ele><time>2026-03-22T15:27:13.01Z</time></trkpt><trkpt lat="43.58307" lon="10.9657517"><ele>60.0</ele><time>2026-03-22T15:27:14.011Z</time></trkpt><trkpt lat="43.5832383" lon="10.9658167"><ele>59.0</ele><time>2026-03-22T15:27:15.01Z</time></trkpt><trkpt lat="43.5834067" lon="10.9658833"><ele>58.0</ele><time>2026-03-22T15:27:16.01Z</time></trkpt><trkpt lat="43.5835783" lon="10.9659583"><ele>57.0</ele><time>2026-03-22T15:27:17.011Z</time></trkpt><trkpt lat="43.5837467" lon="10.9660333"><ele>57.0</ele><time>2026-03-22T15:27:18.01Z</time></trkpt><trkpt lat="43.5839117" lon="10.9661233"><ele>57.0</ele><time>2026-03-22T15:27:19.011Z</time></trkpt><trkpt lat="43.5840733" lon="10.9662233"><ele>57.0</ele><time>2026-03-22T15:27:20.011Z</time></trkpt><trkpt lat="43.5842317" lon="10.9663333"><ele>57.0</ele><time>2026-03-22T15:27:21.01Z</time></trkpt><trkpt lat="43.5843783" lon="10.9664583"><ele>57.0</ele><time>2026-03-22T15:27:22.009Z</time></trkpt><trkpt lat="43.5845233" lon="10.9665967"><ele>57.0</ele><time>2026-03-22T15:27:23.01Z</time></trkpt><trkpt lat="43.5846633" lon="10.9667383"><ele>57.33333333333333</ele><time>2026-03-22T15:27:24.01Z</time></trkpt><trkpt lat="43.5848033" lon="10.9668933"><ele>57.666666666666664</ele><time>2026-03-22T15:27:25.009Z</time></trkpt><trkpt lat="43.58494" lon="10.967045"><ele>58.0</ele><time>2026-03-22T15:27:26.009Z</time></trkpt><trkpt lat="43.5850783" lon="10.9671967"><ele>58.0</ele><time>2026-03-22T15:27:27.01Z</time></trkpt><trkpt lat="43.5852133" lon="10.96735"><ele>58.0</ele><time>2026-03-22T15:27:28.011Z</time></trkpt><trkpt lat="43.5853617" lon="10.9675033"><ele>58.0</ele><time>2026-03-22T15:27:29.011Z</time></trkpt><trkpt lat="43.5855067" lon="10.9676583"><ele>57.666666666666664</ele><time>2026-03-22T15:27:30.01Z</time></trkpt><trkpt lat="43.5856517" lon="10.96781"><ele>57.33333333333333</ele><time>2026-03-22T15:27:31.009Z</time></trkpt><trkpt lat="43.5857933" lon="10.967965"><ele>57.0</ele><time>2026-03-22T15:27:32.01Z</time></trkpt><trkpt lat="43.585935" lon="10.9681217"><ele>57.0</ele><time>2026-03-22T15:27:33.01Z</time></trkpt><trkpt lat="43.5860767" lon="10.968285"><ele>57.0</ele><time>2026-03-22T15:27:34.01Z</time></trkpt><trkpt lat="43.5862167" lon="10.9684433"><ele>57.0</ele><time>2026-03-22T15:27:35.01Z</time></trkpt><trkpt lat="43.5863617" lon="10.9685967"><ele>56.0</ele><time>2026-03-22T15:27:36.01Z</time></trkpt><trkpt lat="43.5865083" lon="10.968755"><ele>55.0</ele><time>2026-03-22T15:27:37.01Z</time></trkpt><trkpt lat="43.5866617" lon="10.9689117"><ele>54.0</ele><time>2026-03-22T15:27:38.011Z</time></trkpt><trkpt lat="43.586815" lon="10.9690717"><ele>54.66666666666667</ele><time>2026-03-22T15:27:39.01Z</time></trkpt><trkpt lat="43.5869667" lon="10.969235"><ele>55.333333333333336</ele><time>2026-03-22T15:27:40.01Z</time></trkpt><trkpt lat="43.5871183" lon="10.9694"><ele>56.0</ele><time>2026-03-22T15:27:41.01Z</time></trkpt><trkpt lat="43.58727" lon="10.9695683"><ele>56.0</ele><time>2026-03-22T15:27:42.009Z</time></trkpt><trkpt lat="43.58742" lon="10.96973"><ele>56.0</ele><time>2026-03-22T15:27:43.01Z</time></trkpt><trkpt lat="43.58757" lon="10.9698833"><ele>56.0</ele><time>2026-03-22T15:27:44.01Z</time></trkpt><trkpt lat="43.587715" lon="10.9700333"><ele>55.333333333333336</ele><time>2026-03-22T15:27:45.01Z</time></trkpt><trkpt lat="43.5878483" lon="10.9701733"><ele>54.66666666666667</ele><time>2026-03-22T15:27:46.01Z</time></trkpt><trkpt lat="43.5879783" lon="10.9703067"><ele>54.0</ele><time>2026-03-22T15:27:47.009Z</time></trkpt><trkpt lat="43.5880933" lon="10.9704283"><ele>54.0</ele><time>2026-03-22T15:27:48.01Z</time></trkpt><trkpt lat="43.5882" lon="10.9705483"><ele>54.0</ele><time>2026-03-22T15:27:49.011Z</time></trkpt><trkpt lat="43.5883067" lon="10.9706617"><ele>54.0</ele><time>2026-03-22T15:27:50.01Z</time></trkpt><trkpt lat="43.5884167" lon="10.970775"><ele>54.0</ele><time>2026-03-22T15:27:51.011Z</time></trkpt><trkpt lat="43.58853" lon="10.9708883"><ele>54.0</ele><time>2026-03-22T15:27:52.01Z</time></trkpt><trkpt lat="43.5886433" lon="10.970995"><ele>54.0</ele><time>2026-03-22T15:27:53.011Z</time></trkpt><trkpt lat="43.5887517" lon="10.9710933"><ele>54.0</ele><time>2026-03-22T15:27:54.011Z</time></trkpt><trkpt lat="43.58885" lon="10.9711867"><ele>54.0</ele><time>2026-03-22T15:27:55.011Z</time></trkpt><trkpt lat="43.58894" lon="10.97127"><ele>53.800000000000004</ele><time>2026-03-22T15:27:56.011Z</time></trkpt><trkpt lat="43.589025" lon="10.9713467"><ele>53.60000000000001</ele><time>2026-03-22T15:27:57.01Z</time></trkpt><trkpt lat="43.589105" lon="10.97143"><ele>53.4</ele><time>2026-03-22T15:27:58.01Z</time></trkpt><trkpt lat="43.58918" lon="10.9715217"><ele>53.2</ele><time>2026-03-22T15:27:59.011Z</time></trkpt><trkpt lat="43.5892483" lon="10.97163"><ele>53.0</ele><time>2026-03-22T15:28:00.01Z</time></trkpt><trkpt lat="43.5893067" lon="10.9717467"><ele>52.833333333333336</ele><time>2026-03-22T15:28:01.01Z</time></trkpt><trkpt lat="43.5893667" lon="10.9718483"><ele>52.66666666666667</ele><time>2026-03-22T15:28:02.011Z</time></trkpt><trkpt lat="43.5894383" lon="10.97192"><ele>52.5</ele><time>2026-03-22T15:28:03.01Z</time></trkpt><trkpt lat="43.589515" lon="10.9719683"><ele>52.33333333333333</ele><time>2026-03-22T15:28:04.01Z</time></trkpt><trkpt lat="43.5895967" lon="10.9719933"><ele>52.166666666666664</ele><time>2026-03-22T15:28:05.01Z</time></trkpt><trkpt lat="43.58968" lon="10.9719667"><ele>52.0</ele><time>2026-03-22T15:28:06.01Z</time></trkpt><trkpt lat="43.5897767" lon="10.9719317"><ele>52.0</ele><time>2026-03-22T15:28:07.01Z</time></trkpt><trkpt lat="43.5898833" lon="10.97192"><ele>52.0</ele><time>2026-03-22T15:28:08.01Z</time></trkpt><trkpt lat="43.590005" lon="10.9719183"><ele>52.0</ele><time>2026-03-22T15:28:09.009Z</time></trkpt><trkpt lat="43.5901683" lon="10.9719433"><ele>52.0</ele><time>2026-03-22T15:28:10.01Z</time></trkpt><trkpt lat="43.590355" lon="10.97199"><ele>52.0</ele><time>2026-03-22T15:28:11.01Z</time></trkpt><trkpt lat="43.59055" lon="10.9720383"><ele>52.0</ele><time>2026-03-22T15:28:12.01Z</time></trkpt><trkpt lat="43.590755" lon="10.9720783"><ele>52.0</ele><time>2026-03-22T15:28:13.01Z</time></trkpt><trkpt lat="43.5909617" lon="10.9721217"><ele>52.0</ele><time>2026-03-22T15:28:14.011Z</time></trkpt><trkpt lat="43.5911633" lon="10.97216"><ele>52.0</ele><time>2026-03-22T15:28:15.01Z</time></trkpt><trkpt lat="43.5913633" lon="10.972195"><ele>52.0</ele><time>2026-03-22T15:28:16.01Z</time></trkpt><trkpt lat="43.5915583" lon="10.9722283"><ele>51.666666666666664</ele><time>2026-03-22T15:28:17.01Z</time></trkpt><trkpt lat="43.591745" lon="10.972255"><ele>51.33333333333333</ele><time>2026-03-22T15:28:18.01Z</time></trkpt><trkpt lat="43.59192" lon="10.9722767"><ele>51.0</ele><time>2026-03-22T15:28:19.011Z</time></trkpt><trkpt lat="43.592085" lon="10.972295"><ele>51.0</ele><time>2026-03-22T15:28:20.011Z</time></trkpt><trkpt lat="43.5922333" lon="10.9723167"><ele>51.0</ele><time>2026-03-22T15:28:21.011Z</time></trkpt><trkpt lat="43.5923633" lon="10.97234"><ele>51.0</ele><time>2026-03-22T15:28:22.01Z</time></trkpt><trkpt lat="43.5924783" lon="10.972375"><ele>51.0</ele><time>2026-03-22T15:28:23.012Z</time></trkpt><trkpt lat="43.5925833" lon="10.9724217"><ele>51.0</ele><time>2026-03-22T15:28:24.01Z</time></trkpt><trkpt lat="43.59268" lon="10.9724783"><ele>51.0</ele><time>2026-03-22T15:28:25.011Z</time></trkpt><trkpt lat="43.5927683" lon="10.9725167"><ele>51.0</ele><time>2026-03-22T15:28:26.01Z</time></trkpt><trkpt lat="43.5928517" lon="10.9725367"><ele>51.0</ele><time>2026-03-22T15:28:27.012Z</time></trkpt><trkpt lat="43.59293" lon="10.972495"><ele>51.0</ele><time>2026-03-22T15:28:28.01Z</time></trkpt><trkpt lat="43.5930233" lon="10.9724467"><ele>50.75</ele><time>2026-03-22T15:28:29.01Z</time></trkpt><trkpt lat="43.5931383" lon="10.972405"><ele>50.5</ele><time>2026-03-22T15:28:30.01Z</time></trkpt><trkpt lat="43.593265" lon="10.97237"><ele>50.25</ele><time>2026-03-22T15:28:31.01Z</time></trkpt><trkpt lat="43.59342" lon="10.9723517"><ele>50.0</ele><time>2026-03-22T15:28:32.01Z</time></trkpt><trkpt lat="43.5935867" lon="10.9723383"><ele>50.333333333333336</ele><time>2026-03-22T15:28:33.009Z</time></trkpt><trkpt lat="43.5937683" lon="10.9723367"><ele>50.66666666666667</ele><time>2026-03-22T15:28:34.01Z</time></trkpt><trkpt lat="43.5939483" lon="10.9723383"><ele>51.0</ele><time>2026-03-22T15:28:35.01Z</time></trkpt><trkpt lat="43.594125" lon="10.9723367"><ele>51.0</ele><time>2026-03-22T15:28:36.01Z</time></trkpt><trkpt lat="43.594305" lon="10.9723317"><ele>51.0</ele><time>2026-03-22T15:28:37.01Z</time></trkpt><trkpt lat="43.5944867" lon="10.9723267"><ele>51.0</ele><time>2026-03-22T15:28:38.011Z</time></trkpt><trkpt lat="43.5946717" lon="10.9723183"><ele>51.33333333333333</ele><time>2026-03-22T15:28:39.01Z</time></trkpt><trkpt lat="43.5948533" lon="10.9723067"><ele>51.666666666666664</ele><time>2026-03-22T15:28:40.011Z</time></trkpt><trkpt lat="43.5950383" lon="10.9722983"><ele>52.0</ele><time>2026-03-22T15:28:41.01Z</time></trkpt><trkpt lat="43.595225" lon="10.9722933"><ele>52.0</ele><time>2026-03-22T15:28:42.01Z</time></trkpt><trkpt lat="43.5954117" lon="10.9722883"><ele>52.0</ele><time>2026-03-22T15:28:43.01Z</time></trkpt><trkpt lat="43.5955983" lon="10.9722917"><ele>52.0</ele><time>2026-03-22T15:28:44.01Z</time></trkpt><trkpt lat="43.59578" lon="10.9723133"><ele>52.0</ele><time>2026-03-22T15:28:45.009Z</time></trkpt><trkpt lat="43.595965" lon="10.972355"><ele>52.0</ele><time>2026-03-22T15:28:46.01Z</time></trkpt><trkpt lat="43.5961467" lon="10.9724133"><ele>52.0</ele><time>2026-03-22T15:28:47.01Z</time></trkpt><trkpt lat="43.5963267" lon="10.9724933"><ele>51.33333333333333</ele><time>2026-03-22T15:28:48.011Z</time></trkpt><trkpt lat="43.5965" lon="10.972595"><ele>50.66666666666667</ele><time>2026-03-22T15:28:49.01Z</time></trkpt><trkpt lat="43.5966667" lon="10.9727133"><ele>50.0</ele><time>2026-03-22T15:28:50.012Z</time></trkpt><trkpt lat="43.5968267" lon="10.9728517"><ele>50.0</ele><time>2026-03-22T15:28:51.01Z</time></trkpt><trkpt lat="43.5969817" lon="10.9730033"><ele>50.0</ele><time>2026-03-22T15:28:52.01Z</time></trkpt><trkpt lat="43.5971267" lon="10.9731567"><ele>50.0</ele><time>2026-03-22T15:28:53.011Z</time></trkpt><trkpt lat="43.5972783" lon="10.9733217"><ele>51.333333333333336</ele><time>2026-03-22T15:28:54.011Z</time></trkpt><trkpt lat="43.5974317" lon="10.97349"><ele>52.66666666666667</ele><time>2026-03-22T15:28:55.009Z</time></trkpt><trkpt lat="43.5975867" lon="10.9736567"><ele>54.0</ele><time>2026-03-22T15:28:56.011Z</time></trkpt><trkpt lat="43.5977383" lon="10.97382"><ele>55.0</ele><time>2026-03-22T15:28:57.01Z</time></trkpt><trkpt lat="43.5978867" lon="10.9739783"><ele>56.0</ele><time>2026-03-22T15:28:58.01Z</time></trkpt><trkpt lat="43.5980333" lon="10.9741183"><ele>57.0</ele><time>2026-03-22T15:28:59.011Z</time></trkpt><trkpt lat="43.5981783" lon="10.974245"><ele>58.0</ele><time>2026-03-22T15:29:00.011Z</time></trkpt><trkpt lat="43.59833" lon="10.9743633"><ele>59.0</ele><time>2026-03-22T15:29:01.01Z</time></trkpt><trkpt lat="43.598485" lon="10.9744633"><ele>60.0</ele><time>2026-03-22T15:29:02.01Z</time></trkpt><trkpt lat="43.5986433" lon="10.97455"><ele>59.66666666666667</ele><time>2026-03-22T15:29:03.009Z</time></trkpt><trkpt lat="43.5988067" lon="10.9746233"><ele>59.333333333333336</ele><time>2026-03-22T15:29:04.009Z</time></trkpt><trkpt lat="43.5989733" lon="10.9746817"><ele>59.0</ele><time>2026-03-22T15:29:05.01Z</time></trkpt><trkpt lat="43.5991433" lon="10.9747217"><ele>59.0</ele><time>2026-03-22T15:29:06.01Z</time></trkpt><trkpt lat="43.5993167" lon="10.9747533"><ele>59.0</ele><time>2026-03-22T15:29:07.01Z</time></trkpt><trkpt lat="43.5994917" lon="10.9747733"><ele>59.0</ele><time>2026-03-22T15:29:08.01Z</time></trkpt><trkpt lat="43.5996683" lon="10.9747967"><ele>59.66666666666667</ele><time>2026-03-22T15:29:09.01Z</time></trkpt><trkpt lat="43.5998433" lon="10.974815"><ele>60.33333333333333</ele><time>2026-03-22T15:29:10.009Z</time></trkpt><trkpt lat="43.6000183" lon="10.9748367"><ele>61.0</ele><time>2026-03-22T15:29:11.009Z</time></trkpt><trkpt lat="43.6001933" lon="10.974855"><ele>58.666666666666664</ele><time>2026-03-22T15:29:12.01Z</time></trkpt><trkpt lat="43.60037" lon="10.9748767"><ele>56.33333333333333</ele><time>2026-03-22T15:29:13.01Z</time></trkpt><trkpt lat="43.600545" lon="10.974895"><ele>54.0</ele><time>2026-03-22T15:29:14.01Z</time></trkpt><trkpt lat="43.6007167" lon="10.974915"><ele>54.0</ele><time>2026-03-22T15:29:15.017Z</time></trkpt><trkpt lat="43.6008833" lon="10.9749467"><ele>54.0</ele><time>2026-03-22T15:29:16.009Z</time></trkpt><trkpt lat="43.601035" lon="10.9749817"><ele>54.0</ele><time>2026-03-22T15:29:17.011Z</time></trkpt><trkpt lat="43.6011767" lon="10.97502"><ele>55.75</ele><time>2026-03-22T15:29:18.01Z</time></trkpt><trkpt lat="43.6013067" lon="10.9750567"><ele>57.5</ele><time>2026-03-22T15:29:19.01Z</time></trkpt><trkpt lat="43.6014333" lon="10.97509"><ele>59.25</ele><time>2026-03-22T15:29:20.011Z</time></trkpt><trkpt lat="43.6015567" lon="10.9751233"><ele>61.0</ele><time>2026-03-22T15:29:21.01Z</time></trkpt><trkpt lat="43.6016783" lon="10.9751583"><ele>61.0</ele><time>2026-03-22T15:29:22.01Z</time></trkpt><trkpt lat="43.6017967" lon="10.9751883"><ele>60.99999999999999</ele><time>2026-03-22T15:29:23.01Z</time></trkpt><trkpt lat="43.6019033" lon="10.97522"><ele>60.99999999999999</ele><time>2026-03-22T15:29:24.01Z</time></trkpt><trkpt lat="43.602005" lon="10.9752517"><ele>61.0</ele><time>2026-03-22T15:29:25.01Z</time></trkpt><trkpt lat="43.6020917" lon="10.9752817"><ele>61.0</ele><time>2026-03-22T15:29:26.01Z</time></trkpt><trkpt lat="43.60217" lon="10.9753133"><ele>60.14285714285713</ele><time>2026-03-22T15:29:27.01Z</time></trkpt><trkpt lat="43.602235" lon="10.9753367"><ele>59.285714285714285</ele><time>2026-03-22T15:29:28.01Z</time></trkpt><trkpt lat="43.6022967" lon="10.9753567"><ele>58.42857142857142</ele><time>2026-03-22T15:29:29.01Z</time></trkpt><trkpt lat="43.6023633" lon="10.975375"><ele>57.57142857142857</ele><time>2026-03-22T15:29:30.008Z</time></trkpt><trkpt lat="43.6024383" lon="10.9753933"><ele>56.71428571428571</ele><time>2026-03-22T15:29:31.01Z</time></trkpt><trkpt lat="43.602515" lon="10.97541"><ele>55.857142857142854</ele><time>2026-03-22T15:29:32.01Z</time></trkpt><trkpt lat="43.602595" lon="10.97543"><ele>55.0</ele><time>2026-03-22T15:29:33.01Z</time></trkpt><trkpt lat="43.602675" lon="10.97545"><ele>54.99999999999999</ele><time>2026-03-22T15:29:34.01Z</time></trkpt><trkpt lat="43.6027517" lon="10.9754667"><ele>55.0</ele><time>2026-03-22T15:29:35.01Z</time></trkpt><trkpt lat="43.602825" lon="10.9754833"><ele>55.0</ele><time>2026-03-22T15:29:36.01Z</time></trkpt><trkpt lat="43.6028933" lon="10.975495"><ele>55.0</ele><time>2026-03-22T15:29:37.009Z</time></trkpt><trkpt lat="43.6029583" lon="10.9755167"><ele>54.99999999999999</ele><time>2026-03-22T15:29:38.01Z</time></trkpt><trkpt lat="43.6030467" lon="10.975535"><ele>55.0</ele><time>2026-03-22T15:29:40.01Z</time></trkpt><trkpt lat="43.6031317" lon="10.9755483"><ele>54.4</ele><time>2026-03-22T15:29:43.01Z</time></trkpt><trkpt lat="43.603235" lon="10.97556"><ele>53.8</ele><time>2026-03-22T15:30:49.009Z</time></trkpt><trkpt lat="43.6033133" lon="10.9755767"><ele>53.2</ele><time>2026-03-22T15:30:50.01Z</time></trkpt><trkpt lat="43.603405" lon="10.9756033"><ele>52.6</ele><time>2026-03-22T15:30:51.01Z</time></trkpt><trkpt lat="43.6035083" lon="10.9756317"><ele>52.0</ele><time>2026-03-22T15:30:52.011Z</time></trkpt><trkpt lat="43.6036183" lon="10.9756617"><ele>52.0</ele><time>2026-03-22T15:30:53.011Z</time></trkpt><trkpt lat="43.6037417" lon="10.9756967"><ele>52.0</ele><time>2026-03-22T15:30:54.01Z</time></trkpt><trkpt lat="43.6038717" lon="10.9757233"><ele>52.0</ele><time>2026-03-22T15:30:55.01Z</time></trkpt><trkpt lat="43.6040017" lon="10.975755"><ele>52.0</ele><time>2026-03-22T15:30:56.01Z</time></trkpt><trkpt lat="43.60414" lon="10.9757933"><ele>52.0</ele><time>2026-03-22T15:30:57.009Z</time></trkpt><trkpt lat="43.6042817" lon="10.9758283"><ele>52.0</ele><time>2026-03-22T15:30:58.01Z</time></trkpt><trkpt lat="43.604435" lon="10.9758667"><ele>52.0</ele><time>2026-03-22T15:30:59.01Z</time></trkpt><trkpt lat="43.6045933" lon="10.9759033"><ele>51.666666666666664</ele><time>2026-03-22T15:31:00.009Z</time></trkpt><trkpt lat="43.6047533" lon="10.97594"><ele>51.33333333333333</ele><time>2026-03-22T15:31:01.008Z</time></trkpt><trkpt lat="43.6049133" lon="10.975975"><ele>51.0</ele><time>2026-03-22T15:31:02.009Z</time></trkpt><trkpt lat="43.6050817" lon="10.97601"><ele>51.0</ele><time>2026-03-22T15:31:03.01Z</time></trkpt><trkpt lat="43.605255" lon="10.97604"><ele>51.0</ele><time>2026-03-22T15:31:04.01Z</time></trkpt><trkpt lat="43.6054367" lon="10.976055"><ele>51.0</ele><time>2026-03-22T15:31:05.011Z</time></trkpt><trkpt lat="43.6056167" lon="10.97605"><ele>51.33333333333333</ele><time>2026-03-22T15:31:06.01Z</time></trkpt><trkpt lat="43.6057917" lon="10.976015"><ele>51.666666666666664</ele><time>2026-03-22T15:31:07.011Z</time></trkpt><trkpt lat="43.60596" lon="10.97595"><ele>52.0</ele><time>2026-03-22T15:31:08.011Z</time></trkpt><trkpt lat="43.606115" lon="10.9758533"><ele>54.0</ele><time>2026-03-22T15:31:09.011Z</time></trkpt><trkpt lat="43.606255" lon="10.9757267"><ele>56.0</ele><time>2026-03-22T15:31:10.01Z</time></trkpt><trkpt lat="43.6063767" lon="10.9755767"><ele>58.0</ele><time>2026-03-22T15:31:11.01Z</time></trkpt><trkpt lat="43.606485" lon="10.9754033"><ele>58.0</ele><time>2026-03-22T15:31:12.01Z</time></trkpt><trkpt lat="43.6065717" lon="10.9752117"><ele>58.0</ele><time>2026-03-22T15:31:13.01Z</time></trkpt><trkpt lat="43.6066467" lon="10.975"><ele>58.0</ele><time>2026-03-22T15:31:14.011Z</time></trkpt><trkpt lat="43.6067133" lon="10.97478"><ele>61.0</ele><time>2026-03-22T15:31:15.012Z</time></trkpt><trkpt lat="43.6067783" lon="10.9745533"><ele>64.0</ele><time>2026-03-22T15:31:16.01Z</time></trkpt><trkpt lat="43.6068533" lon="10.9743167"><ele>67.0</ele><time>2026-03-22T15:31:17.009Z</time></trkpt><trkpt lat="43.606935" lon="10.9740867"><ele>69.33333333333333</ele><time>2026-03-22T15:31:18.01Z</time></trkpt><trkpt lat="43.6070267" lon="10.9738767"><ele>71.66666666666667</ele><time>2026-03-22T15:31:19.01Z</time></trkpt><trkpt lat="43.6071217" lon="10.973675"><ele>74.0</ele><time>2026-03-22T15:31:20.01Z</time></trkpt><trkpt lat="43.607225" lon="10.973485"><ele>80.0</ele><time>2026-03-22T15:31:21.01Z</time></trkpt><trkpt lat="43.6073217" lon="10.9733083"><ele>86.0</ele><time>2026-03-22T15:31:22.011Z</time></trkpt><trkpt lat="43.6074183" lon="10.973145"><ele>92.0</ele><time>2026-03-22T15:31:23.01Z</time></trkpt><trkpt lat="43.6075167" lon="10.97301"><ele>92.0</ele><time>2026-03-22T15:31:24.01Z</time></trkpt><trkpt lat="43.6076283" lon="10.9729083"><ele>92.0</ele><time>2026-03-22T15:31:25.011Z</time></trkpt><trkpt lat="43.607755" lon="10.97285"><ele>92.0</ele><time>2026-03-22T15:31:26.009Z</time></trkpt><trkpt lat="43.6078967" lon="10.9728367"><ele>92.0</ele><time>2026-03-22T15:31:27.012Z</time></trkpt><trkpt lat="43.6080367" lon="10.9728533"><ele>92.0</ele><time>2026-03-22T15:31:28.01Z</time></trkpt><trkpt lat="43.6081767" lon="10.9728967"><ele>92.0</ele><time>2026-03-22T15:31:29.011Z</time></trkpt><trkpt lat="43.6083133" lon="10.972955"><ele>92.0</ele><time>2026-03-22T15:31:30.01Z</time></trkpt><trkpt lat="43.6084483" lon="10.973025"><ele>92.0</ele><time>2026-03-22T15:31:31.01Z</time></trkpt><trkpt lat="43.6085833" lon="10.973105"><ele>92.66666666666667</ele><time>2026-03-22T15:31:32.01Z</time></trkpt><trkpt lat="43.6087167" lon="10.973195"><ele>93.33333333333333</ele><time>2026-03-22T15:31:33.009Z</time></trkpt><trkpt lat="43.608865" lon="10.9732983"><ele>94.0</ele><time>2026-03-22T15:31:34.01Z</time></trkpt><trkpt lat="43.6090133" lon="10.9734067"><ele>94.0</ele><time>2026-03-22T15:31:35.009Z</time></trkpt><trkpt lat="43.609165" lon="10.97352"><ele>94.0</ele><time>2026-03-22T15:31:36.011Z</time></trkpt><trkpt lat="43.60932" lon="10.9736383"><ele>94.0</ele><time>2026-03-22T15:31:37.01Z</time></trkpt><trkpt lat="43.6094833" lon="10.97376"><ele>99.0</ele><time>2026-03-22T15:31:38.01Z</time></trkpt><trkpt lat="43.6096483" lon="10.9738867"><ele>104.0</ele><time>2026-03-22T15:31:39.01Z</time></trkpt><trkpt lat="43.6098083" lon="10.9740117"><ele>109.0</ele><time>2026-03-22T15:31:40.012Z</time></trkpt><trkpt lat="43.60997" lon="10.974145"><ele>110.0</ele><time>2026-03-22T15:31:41.011Z</time></trkpt><trkpt lat="43.6101317" lon="10.9743"><ele>111.0</ele><time>2026-03-22T15:31:42.01Z</time></trkpt><trkpt lat="43.610285" lon="10.9744767"><ele>112.0</ele><time>2026-03-22T15:31:43.01Z</time></trkpt><trkpt lat="43.6104183" lon="10.974665"><ele>112.0</ele><time>2026-03-22T15:31:44.011Z</time></trkpt><trkpt lat="43.6105483" lon="10.9748717"><ele>112.0</ele><time>2026-03-22T15:31:45.01Z</time></trkpt><trkpt lat="43.61068" lon="10.9750717"><ele>112.0</ele><time>2026-03-22T15:31:46.01Z</time></trkpt><trkpt lat="43.61083" lon="10.9752417"><ele>112.66666666666667</ele><time>2026-03-22T15:31:47.011Z</time></trkpt><trkpt lat="43.6109967" lon="10.9753833"><ele>113.33333333333334</ele><time>2026-03-22T15:31:48.009Z</time></trkpt><trkpt lat="43.6111783" lon="10.9755033"><ele>114.0</ele><time>2026-03-22T15:31:49.012Z</time></trkpt><trkpt lat="43.61136" lon="10.9756183"><ele>114.0</ele><time>2026-03-22T15:31:50.013Z</time></trkpt><trkpt lat="43.6115367" lon="10.9757483"><ele>114.0</ele><time>2026-03-22T15:31:51.01Z</time></trkpt><trkpt lat="43.6117117" lon="10.9758883"><ele>114.0</ele><time>2026-03-22T15:31:52.009Z</time></trkpt><trkpt lat="43.611885" lon="10.97604"><ele>115.66666666666666</ele><time>2026-03-22T15:31:53.009Z</time></trkpt><trkpt lat="43.61205" lon="10.9762133"><ele>117.33333333333333</ele><time>2026-03-22T15:31:54.011Z</time></trkpt><trkpt lat="43.6122083" lon="10.97641"><ele>119.0</ele><time>2026-03-22T15:31:55.01Z</time></trkpt><trkpt lat="43.6123533" lon="10.9766233"><ele>119.66666666666666</ele><time>2026-03-22T15:31:56.01Z</time></trkpt><trkpt lat="43.6124883" lon="10.9768617"><ele>120.33333333333334</ele><time>2026-03-22T15:31:57.009Z</time></trkpt><trkpt lat="43.61261" lon="10.9771083"><ele>121.0</ele><time>2026-03-22T15:31:58.01Z</time></trkpt><trkpt lat="43.61272" lon="10.9773567"><ele>121.33333333333334</ele><time>2026-03-22T15:31:59.011Z</time></trkpt><trkpt lat="43.6128233" lon="10.977605"><ele>121.66666666666666</ele><time>2026-03-22T15:32:00.01Z</time></trkpt><trkpt lat="43.6129217" lon="10.9778567"><ele>122.0</ele><time>2026-03-22T15:32:01.011Z</time></trkpt><trkpt lat="43.6130183" lon="10.9781067"><ele>120.66666666666666</ele><time>2026-03-22T15:32:02.01Z</time></trkpt><trkpt lat="43.613115" lon="10.9783517"><ele>119.33333333333334</ele><time>2026-03-22T15:32:03.009Z</time></trkpt><trkpt lat="43.6132183" lon="10.978595"><ele>118.0</ele><time>2026-03-22T15:32:04.01Z</time></trkpt><trkpt lat="43.61334" lon="10.9788233"><ele>118.0</ele><time>2026-03-22T15:32:05.009Z</time></trkpt><trkpt lat="43.6134867" lon="10.9790367"><ele>118.0</ele><time>2026-03-22T15:32:06.012Z</time></trkpt><trkpt lat="43.61365" lon="10.9792317"><ele>118.0</ele><time>2026-03-22T15:32:07.012Z</time></trkpt><trkpt lat="43.6138117" lon="10.9794233"><ele>118.33333333333334</ele><time>2026-03-22T15:32:08.011Z</time></trkpt><trkpt lat="43.6139817" lon="10.9796117"><ele>118.66666666666666</ele><time>2026-03-22T15:32:09.009Z</time></trkpt><trkpt lat="43.6141567" lon="10.9798033"><ele>119.0</ele><time>2026-03-22T15:32:10.01Z</time></trkpt><trkpt lat="43.6143317" lon="10.9799933"><ele>121.66666666666666</ele><time>2026-03-22T15:32:11.009Z</time></trkpt><trkpt lat="43.6145017" lon="10.9801817"><ele>124.33333333333334</ele><time>2026-03-22T15:32:12.01Z</time></trkpt><trkpt lat="43.6146667" lon="10.980375"><ele>127.0</ele><time>2026-03-22T15:32:13.009Z</time></trkpt><trkpt lat="43.614825" lon="10.98058"><ele>127.0</ele><time>2026-03-22T15:32:14.009Z</time></trkpt><trkpt lat="43.6149633" lon="10.9808017"><ele>127.0</ele><time>2026-03-22T15:32:15.01Z</time></trkpt><trkpt lat="43.6150733" lon="10.9810467"><ele>127.0</ele><time>2026-03-22T15:32:16.012Z</time></trkpt><trkpt lat="43.6151483" lon="10.9813117"><ele>129.33333333333334</ele><time>2026-03-22T15:32:17.01Z</time></trkpt><trkpt lat="43.6152017" lon="10.9815883"><ele>131.66666666666666</ele><time>2026-03-22T15:32:18.01Z</time></trkpt><trkpt lat="43.6152283" lon="10.9818783"><ele>134.0</ele><time>2026-03-22T15:32:19.012Z</time></trkpt><trkpt lat="43.615255" lon="10.9821683"><ele>134.66666666666666</ele><time>2026-03-22T15:32:20.011Z</time></trkpt><trkpt lat="43.6152917" lon="10.9824633"><ele>135.33333333333334</ele><time>2026-03-22T15:32:21.01Z</time></trkpt><trkpt lat="43.6153467" lon="10.98275"><ele>136.0</ele><time>2026-03-22T15:32:22.01Z</time></trkpt><trkpt lat="43.61544" lon="10.9830167"><ele>136.0</ele><time>2026-03-22T15:32:23.01Z</time></trkpt><trkpt lat="43.6155617" lon="10.9832517"><ele>136.0</ele><time>2026-03-22T15:32:24.01Z</time></trkpt><trkpt lat="43.615715" lon="10.983445"><ele>136.0</ele><time>2026-03-22T15:32:25.01Z</time></trkpt><trkpt lat="43.6158983" lon="10.9836067"><ele>135.33333333333334</ele><time>2026-03-22T15:32:26.01Z</time></trkpt><trkpt lat="43.6160917" lon="10.9837517"><ele>134.66666666666666</ele><time>2026-03-22T15:32:27.01Z</time></trkpt><trkpt lat="43.6162933" lon="10.983895"><ele>134.0</ele><time>2026-03-22T15:32:28.01Z</time></trkpt><trkpt lat="43.6164833" lon="10.9840317"><ele>134.0</ele><time>2026-03-22T15:32:29.01Z</time></trkpt><trkpt lat="43.6166567" lon="10.9841517"><ele>134.0</ele><time>2026-03-22T15:32:30.009Z</time></trkpt><trkpt lat="43.6168117" lon="10.98425"><ele>134.0</ele><time>2026-03-22T15:32:31.01Z</time></trkpt><trkpt lat="43.6169533" lon="10.9843367"><ele>131.5</ele><time>2026-03-22T15:32:32.012Z</time></trkpt><trkpt lat="43.6170867" lon="10.9844067"><ele>129.0</ele><time>2026-03-22T15:32:33.01Z</time></trkpt><trkpt lat="43.6172133" lon="10.984465"><ele>126.5</ele><time>2026-03-22T15:32:34.009Z</time></trkpt><trkpt lat="43.617325" lon="10.9845017"><ele>124.0</ele><time>2026-03-22T15:32:35.01Z</time></trkpt><trkpt lat="43.617415" lon="10.9845333"><ele>124.00000000000001</ele><time>2026-03-22T15:32:36.01Z</time></trkpt><trkpt lat="43.6174917" lon="10.9845533"><ele>124.0</ele><time>2026-03-22T15:32:37.012Z</time></trkpt><trkpt lat="43.6175533" lon="10.9845717"><ele>124.0</ele><time>2026-03-22T15:32:38.01Z</time></trkpt><trkpt lat="43.6176267" lon="10.9846017"><ele>124.0</ele><time>2026-03-22T15:32:40.01Z</time></trkpt><trkpt lat="43.6177017" lon="10.984585"><ele>124.00000000000001</ele><time>2026-03-22T15:33:20.009Z</time></trkpt><trkpt lat="43.6177817" lon="10.9846"><ele>124.0</ele><time>2026-03-22T15:33:21.009Z</time></trkpt><trkpt lat="43.6178783" lon="10.9846283"><ele>123.75</ele><time>2026-03-22T15:33:22.009Z</time></trkpt><trkpt lat="43.6179883" lon="10.9846667"><ele>123.5</ele><time>2026-03-22T15:33:23.009Z</time></trkpt><trkpt lat="43.618105" lon="10.984715"><ele>123.25</ele><time>2026-03-22T15:33:24.01Z</time></trkpt><trkpt lat="43.6182283" lon="10.984775"><ele>123.0</ele><time>2026-03-22T15:33:25.01Z</time></trkpt><trkpt lat="43.618355" lon="10.9848533"><ele>123.0</ele><time>2026-03-22T15:33:26.011Z</time></trkpt><trkpt lat="43.618485" lon="10.984945"><ele>123.0</ele><time>2026-03-22T15:33:27.009Z</time></trkpt><trkpt lat="43.61863" lon="10.9850767"><ele>123.0</ele><time>2026-03-22T15:33:28.01Z</time></trkpt><trkpt lat="43.6187867" lon="10.9852283"><ele>121.33333333333334</ele><time>2026-03-22T15:33:29.01Z</time></trkpt><trkpt lat="43.6189533" lon="10.98538"><ele>119.66666666666667</ele><time>2026-03-22T15:33:30.009Z</time></trkpt><trkpt lat="43.6191333" lon="10.985535"><ele>118.0</ele><time>2026-03-22T15:33:31.01Z</time></trkpt><trkpt lat="43.619315" lon="10.9856917"><ele>118.66666666666667</ele><time>2026-03-22T15:33:32.01Z</time></trkpt><trkpt lat="43.6194833" lon="10.9858567"><ele>119.33333333333334</ele><time>2026-03-22T15:33:33.01Z</time></trkpt><trkpt lat="43.6196417" lon="10.9860433"><ele>120.0</ele><time>2026-03-22T15:33:34.009Z</time></trkpt><trkpt lat="43.61979" lon="10.9862533"><ele>120.0</ele><time>2026-03-22T15:33:35.009Z</time></trkpt><trkpt lat="43.6199317" lon="10.986475"><ele>120.0</ele><time>2026-03-22T15:33:36.01Z</time></trkpt><trkpt lat="43.620075" lon="10.9867017"><ele>120.0</ele><time>2026-03-22T15:33:37.009Z</time></trkpt><trkpt lat="43.6202183" lon="10.98693"><ele>120.66666666666666</ele><time>2026-03-22T15:33:38.011Z</time></trkpt><trkpt lat="43.6203633" lon="10.98715"><ele>121.33333333333333</ele><time>2026-03-22T15:33:39.01Z</time></trkpt><trkpt lat="43.620505" lon="10.9873733"><ele>122.0</ele><time>2026-03-22T15:33:40.009Z</time></trkpt><trkpt lat="43.6206467" lon="10.9875917"><ele>123.0</ele><time>2026-03-22T15:33:41.01Z</time></trkpt><trkpt lat="43.620795" lon="10.987795"><ele>124.0</ele><time>2026-03-22T15:33:42.009Z</time></trkpt><trkpt lat="43.62096" lon="10.9879733"><ele>125.0</ele><time>2026-03-22T15:33:43.01Z</time></trkpt><trkpt lat="43.6211417" lon="10.9881133"><ele>123.33333333333333</ele><time>2026-03-22T15:33:44.01Z</time></trkpt><trkpt lat="43.621335" lon="10.9882233"><ele>121.66666666666666</ele><time>2026-03-22T15:33:45.01Z</time></trkpt><trkpt lat="43.62154" lon="10.988305"><ele>120.0</ele><time>2026-03-22T15:33:46.009Z</time></trkpt><trkpt lat="43.6217533" lon="10.9883467"><ele>120.0</ele><time>2026-03-22T15:33:47.011Z</time></trkpt><trkpt lat="43.62197" lon="10.9883683"><ele>120.0</ele><time>2026-03-22T15:33:48.01Z</time></trkpt><trkpt lat="43.6221883" lon="10.9883817"><ele>120.0</ele><time>2026-03-22T15:33:49.01Z</time></trkpt><trkpt lat="43.62241" lon="10.988395"><ele>120.33333333333334</ele><time>2026-03-22T15:33:50.01Z</time></trkpt><trkpt lat="43.6226333" lon="10.9884133"><ele>120.66666666666667</ele><time>2026-03-22T15:33:51.01Z</time></trkpt><trkpt lat="43.6228583" lon="10.9884367"><ele>121.0</ele><time>2026-03-22T15:33:52.01Z</time></trkpt><trkpt lat="43.6230833" lon="10.9884533"><ele>119.0</ele><time>2026-03-22T15:33:53.01Z</time></trkpt><trkpt lat="43.6233033" lon="10.9884783"><ele>117.0</ele><time>2026-03-22T15:33:54.01Z</time></trkpt><trkpt lat="43.6235133" lon="10.9885317"><ele>115.0</ele><time>2026-03-22T15:33:55.011Z</time></trkpt><trkpt lat="43.623705" lon="10.9886383"><ele>115.0</ele><time>2026-03-22T15:33:56.01Z</time></trkpt><trkpt lat="43.6238767" lon="10.98881"><ele>115.0</ele><time>2026-03-22T15:33:57.011Z</time></trkpt><trkpt lat="43.6240333" lon="10.9890217"><ele>115.0</ele><time>2026-03-22T15:33:58.009Z</time></trkpt><trkpt lat="43.624185" lon="10.9892367"><ele>115.0</ele><time>2026-03-22T15:33:59.009Z</time></trkpt><trkpt lat="43.6243483" lon="10.9894333"><ele>115.0</ele><time>2026-03-22T15:34:00.011Z</time></trkpt><trkpt lat="43.6245267" lon="10.989605"><ele>115.0</ele><time>2026-03-22T15:34:01.009Z</time></trkpt><trkpt lat="43.62472" lon="10.9897467"><ele>117.33333333333334</ele><time>2026-03-22T15:34:02.01Z</time></trkpt><trkpt lat="43.62492" lon="10.9898633"><ele>119.66666666666666</ele><time>2026-03-22T15:34:03.01Z</time></trkpt><trkpt lat="43.625125" lon="10.9899367"><ele>122.0</ele><time>2026-03-22T15:34:04.011Z</time></trkpt><trkpt lat="43.625335" lon="10.989965"><ele>122.0</ele><time>2026-03-22T15:34:05.011Z</time></trkpt><trkpt lat="43.62555" lon="10.9899583"><ele>122.0</ele><time>2026-03-22T15:34:06.01Z</time></trkpt><trkpt lat="43.6257733" lon="10.9899417"><ele>122.0</ele><time>2026-03-22T15:34:07.009Z</time></trkpt><trkpt lat="43.626" lon="10.9899217"><ele>123.0</ele><time>2026-03-22T15:34:08.01Z</time></trkpt><trkpt lat="43.6262133" lon="10.9899017"><ele>124.0</ele><time>2026-03-22T15:34:09.01Z</time></trkpt><trkpt lat="43.626415" lon="10.9899"><ele>125.0</ele><time>2026-03-22T15:34:10.009Z</time></trkpt><trkpt lat="43.62661" lon="10.9899233"><ele>125.0</ele><time>2026-03-22T15:34:11.01Z</time></trkpt><trkpt lat="43.6268" lon="10.9899983"><ele>125.0</ele><time>2026-03-22T15:34:12.01Z</time></trkpt><trkpt lat="43.626985" lon="10.99011"><ele>125.0</ele><time>2026-03-22T15:34:13.009Z</time></trkpt><trkpt lat="43.62717" lon="10.9902517"><ele>126.66666666666666</ele><time>2026-03-22T15:34:14.011Z</time></trkpt><trkpt lat="43.627355" lon="10.9904033"><ele>128.33333333333334</ele><time>2026-03-22T15:34:15.011Z</time></trkpt><trkpt lat="43.6275333" lon="10.9905517"><ele>130.0</ele><time>2026-03-22T15:34:16.011Z</time></trkpt><trkpt lat="43.6276967" lon="10.990705"><ele>132.0</ele><time>2026-03-22T15:34:17.008Z</time></trkpt><trkpt lat="43.627835" lon="10.9908817"><ele>134.0</ele><time>2026-03-22T15:34:18.008Z</time></trkpt><trkpt lat="43.6279433" lon="10.9910883"><ele>136.0</ele><time>2026-03-22T15:34:19.01Z</time></trkpt><trkpt lat="43.6280317" lon="10.9913233"><ele>136.0</ele><time>2026-03-22T15:34:20.01Z</time></trkpt><trkpt lat="43.6280933" lon="10.99158"><ele>136.0</ele><time>2026-03-22T15:34:21.01Z</time></trkpt><trkpt lat="43.6281433" lon="10.9918567"><ele>136.0</ele><time>2026-03-22T15:34:22.01Z</time></trkpt><trkpt lat="43.6281917" lon="10.9921367"><ele>136.66666666666669</ele><time>2026-03-22T15:34:23.009Z</time></trkpt><trkpt lat="43.6282433" lon="10.99242"><ele>137.33333333333334</ele><time>2026-03-22T15:34:24.01Z</time></trkpt><trkpt lat="43.6282933" lon="10.992705"><ele>138.0</ele><time>2026-03-22T15:34:25.011Z</time></trkpt><trkpt lat="43.6283417" lon="10.9929917"><ele>138.66666666666666</ele><time>2026-03-22T15:34:26.01Z</time></trkpt><trkpt lat="43.6283967" lon="10.9932767"><ele>139.33333333333331</ele><time>2026-03-22T15:34:27.011Z</time></trkpt><trkpt lat="43.6284617" lon="10.99355"><ele>140.0</ele><time>2026-03-22T15:34:28.011Z</time></trkpt><trkpt lat="43.6285467" lon="10.9938133"><ele>139.0</ele><time>2026-03-22T15:34:29.01Z</time></trkpt><trkpt lat="43.6286517" lon="10.994065"><ele>138.0</ele><time>2026-03-22T15:34:30.009Z</time></trkpt><trkpt lat="43.62877" lon="10.994315"><ele>137.0</ele><time>2026-03-22T15:34:31.009Z</time></trkpt><trkpt lat="43.6288967" lon="10.9945633"><ele>139.33333333333331</ele><time>2026-03-22T15:34:32.01Z</time></trkpt><trkpt lat="43.629025" lon="10.994805"><ele>141.66666666666666</ele><time>2026-03-22T15:34:33.011Z</time></trkpt><trkpt lat="43.6291483" lon="10.995045"><ele>144.0</ele><time>2026-03-22T15:34:34.009Z</time></trkpt><trkpt lat="43.62928" lon="10.9952733"><ele>144.0</ele><time>2026-03-22T15:34:35.011Z</time></trkpt><trkpt lat="43.629425" lon="10.9954867"><ele>144.0</ele><time>2026-03-22T15:34:36.01Z</time></trkpt><trkpt lat="43.6295817" lon="10.99569"><ele>144.0</ele><time>2026-03-22T15:34:37.009Z</time></trkpt><trkpt lat="43.6297317" lon="10.9959033"><ele>143.0</ele><time>2026-03-22T15:34:38.009Z</time></trkpt><trkpt lat="43.6298883" lon="10.996115"><ele>142.0</ele><time>2026-03-22T15:34:39.009Z</time></trkpt><trkpt lat="43.6300517" lon="10.9963283"><ele>141.0</ele><time>2026-03-22T15:34:40.01Z</time></trkpt><trkpt lat="43.6302167" lon="10.9965367"><ele>142.0</ele><time>2026-03-22T15:34:41.008Z</time></trkpt><trkpt lat="43.6303833" lon="10.9967483"><ele>143.0</ele><time>2026-03-22T15:34:42.008Z</time></trkpt><trkpt lat="43.6305467" lon="10.99697"><ele>143.0</ele><time>2026-03-22T15:34:43.01Z</time></trkpt><trkpt lat="43.630695" lon="10.9971983"><ele>143.0</ele><time>2026-03-22T15:34:44.01Z</time></trkpt><trkpt lat="43.6308183" lon="10.9974517"><ele>143.0</ele><time>2026-03-22T15:34:45.01Z</time></trkpt><trkpt lat="43.630925" lon="10.997725"><ele>143.33333333333331</ele><time>2026-03-22T15:34:46.01Z</time></trkpt><trkpt lat="43.6310183" lon="10.998005"><ele>143.66666666666666</ele><time>2026-03-22T15:34:47.009Z</time></trkpt><trkpt lat="43.6311017" lon="10.9982633"><ele>144.0</ele><time>2026-03-22T15:34:48.01Z</time></trkpt><trkpt lat="43.6311817" lon="10.9985083"><ele>145.0</ele><time>2026-03-22T15:34:49.009Z</time></trkpt><trkpt lat="43.6312617" lon="10.9987517"><ele>146.0</ele><time>2026-03-22T15:34:50.01Z</time></trkpt><trkpt lat="43.6313483" lon="10.9989867"><ele>147.0</ele><time>2026-03-22T15:34:51.01Z</time></trkpt><trkpt lat="43.631435" lon="10.99922"><ele>147.0</ele><time>2026-03-22T15:34:52.01Z</time></trkpt><trkpt lat="43.631535" lon="10.999445"><ele>147.0</ele><time>2026-03-22T15:34:53.01Z</time></trkpt><trkpt lat="43.6316467" lon="10.999675"><ele>147.0</ele><time>2026-03-22T15:34:54.012Z</time></trkpt><trkpt lat="43.63176" lon="10.99991"><ele>147.0</ele><time>2026-03-22T15:34:55.012Z</time></trkpt><trkpt lat="43.6318833" lon="11.00014"><ele>147.0</ele><time>2026-03-22T15:34:56.011Z</time></trkpt><trkpt lat="43.6320133" lon="11.0003717"><ele>147.0</ele><time>2026-03-22T15:34:57.009Z</time></trkpt><trkpt lat="43.6321417" lon="11.0006"><ele>148.33333333333334</ele><time>2026-03-22T15:34:58.009Z</time></trkpt><trkpt lat="43.63227" lon="11.0008283"><ele>149.66666666666669</ele><time>2026-03-22T15:34:59.009Z</time></trkpt><trkpt lat="43.6323933" lon="11.001055"><ele>151.0</ele><time>2026-03-22T15:35:00.009Z</time></trkpt><trkpt lat="43.632515" lon="11.0012733"><ele>151.66666666666669</ele><time>2026-03-22T15:35:01.009Z</time></trkpt><trkpt lat="43.6326383" lon="11.00149"><ele>152.33333333333334</ele><time>2026-03-22T15:35:02.011Z</time></trkpt><trkpt lat="43.6327633" lon="11.001705"><ele>153.0</ele><time>2026-03-22T15:35:03.01Z</time></trkpt><trkpt lat="43.63289" lon="11.001925"><ele>156.33333333333334</ele><time>2026-03-22T15:35:04.01Z</time></trkpt><trkpt lat="43.63302" lon="11.002135"><ele>159.66666666666669</ele><time>2026-03-22T15:35:05.01Z</time></trkpt><trkpt lat="43.6331433" lon="11.0023417"><ele>163.0</ele><time>2026-03-22T15:35:06.01Z</time></trkpt><trkpt lat="43.6332617" lon="11.0025583"><ele>163.0</ele><time>2026-03-22T15:35:07.009Z</time></trkpt><trkpt lat="43.6333733" lon="11.0027717"><ele>163.0</ele><time>2026-03-22T15:35:08.01Z</time></trkpt><trkpt lat="43.6334683" lon="11.0029883"><ele>163.0</ele><time>2026-03-22T15:35:09.011Z</time></trkpt><trkpt lat="43.633535" lon="11.003225"><ele>163.33333333333334</ele><time>2026-03-22T15:35:10.009Z</time></trkpt><trkpt lat="43.633575" lon="11.0034667"><ele>163.66666666666666</ele><time>2026-03-22T15:35:11.01Z</time></trkpt><trkpt lat="43.6335883" lon="11.0036983"><ele>164.0</ele><time>2026-03-22T15:35:12.011Z</time></trkpt><trkpt lat="43.63358" lon="11.0039367"><ele>164.66666666666666</ele><time>2026-03-22T15:35:13.013Z</time></trkpt><trkpt lat="43.6335617" lon="11.0041733"><ele>165.33333333333334</ele><time>2026-03-22T15:35:14.012Z</time></trkpt><trkpt lat="43.633545" lon="11.004415"><ele>166.0</ele><time>2026-03-22T15:35:15.011Z</time></trkpt><trkpt lat="43.633555" lon="11.0046533"><ele>166.0</ele><time>2026-03-22T15:35:16.012Z</time></trkpt><trkpt lat="43.63358" lon="11.0048817"><ele>166.0</ele><time>2026-03-22T15:35:17.01Z</time></trkpt><trkpt lat="43.633655" lon="11.0051133"><ele>166.0</ele><time>2026-03-22T15:35:18.011Z</time></trkpt><trkpt lat="43.6337583" lon="11.0053233"><ele>167.33333333333334</ele><time>2026-03-22T15:35:19.01Z</time></trkpt><trkpt lat="43.63388" lon="11.0055017"><ele>168.66666666666666</ele><time>2026-03-22T15:35:20.012Z</time></trkpt><trkpt lat="43.6340217" lon="11.0056517"><ele>170.0</ele><time>2026-03-22T15:35:21.013Z</time></trkpt><trkpt lat="43.63419" lon="11.0057567"><ele>170.0</ele><time>2026-03-22T15:35:22.011Z</time></trkpt><trkpt lat="43.6343867" lon="11.005825"><ele>170.0</ele><time>2026-03-22T15:35:23.011Z</time></trkpt><trkpt lat="43.6345867" lon="11.005855"><ele>170.0</ele><time>2026-03-22T15:35:24.011Z</time></trkpt><trkpt lat="43.634795" lon="11.0058983"><ele>167.66666666666666</ele><time>2026-03-22T15:35:25.01Z</time></trkpt><trkpt lat="43.635005" lon="11.00597"><ele>165.33333333333334</ele><time>2026-03-22T15:35:26.011Z</time></trkpt><trkpt lat="43.635205" lon="11.00606"><ele>163.0</ele><time>2026-03-22T15:35:27.011Z</time></trkpt><trkpt lat="43.635395" lon="11.0061817"><ele>158.66666666666669</ele><time>2026-03-22T15:35:28.011Z</time></trkpt><trkpt lat="43.635575" lon="11.006335"><ele>154.33333333333334</ele><time>2026-03-22T15:35:29.01Z</time></trkpt><trkpt lat="43.6357417" lon="11.006525"><ele>150.0</ele><time>2026-03-22T15:35:30.01Z</time></trkpt><trkpt lat="43.6358933" lon="11.006745"><ele>149.5</ele><time>2026-03-22T15:35:31.009Z</time></trkpt><trkpt lat="43.6360333" lon="11.0069867"><ele>149.0</ele><time>2026-03-22T15:35:32.01Z</time></trkpt><trkpt lat="43.63617" lon="11.0072367"><ele>146.33333333333331</ele><time>2026-03-22T15:35:33.01Z</time></trkpt><trkpt lat="43.6363067" lon="11.00748"><ele>143.66666666666666</ele><time>2026-03-22T15:35:34.011Z</time></trkpt><trkpt lat="43.6364533" lon="11.0077133"><ele>141.0</ele><time>2026-03-22T15:35:35.012Z</time></trkpt><trkpt lat="43.6366067" lon="11.00794"><ele>141.0</ele><time>2026-03-22T15:35:36.01Z</time></trkpt><trkpt lat="43.6367683" lon="11.0081517"><ele>141.0</ele><time>2026-03-22T15:35:37.01Z</time></trkpt><trkpt lat="43.6369367" lon="11.0083567"><ele>141.0</ele><time>2026-03-22T15:35:38.01Z</time></trkpt><trkpt lat="43.6371117" lon="11.008555"><ele>140.66666666666666</ele><time>2026-03-22T15:35:39.009Z</time></trkpt><trkpt lat="43.63728" lon="11.0087367"><ele>140.33333333333331</ele><time>2026-03-22T15:35:40.01Z</time></trkpt><trkpt lat="43.63745" lon="11.008925"><ele>140.0</ele><time>2026-03-22T15:35:41.01Z</time></trkpt><trkpt lat="43.6376117" lon="11.0091033"><ele>141.0</ele><time>2026-03-22T15:35:42.01Z</time></trkpt><trkpt lat="43.6377783" lon="11.0092767"><ele>142.0</ele><time>2026-03-22T15:35:43.011Z</time></trkpt><trkpt lat="43.637945" lon="11.0094517"><ele>143.0</ele><time>2026-03-22T15:35:44.011Z</time></trkpt><trkpt lat="43.638115" lon="11.0096317"><ele>146.33333333333331</ele><time>2026-03-22T15:35:45.01Z</time></trkpt><trkpt lat="43.6382733" lon="11.0098167"><ele>149.66666666666666</ele><time>2026-03-22T15:35:46.01Z</time></trkpt><trkpt lat="43.6384233" lon="11.010025"><ele>153.0</ele><time>2026-03-22T15:35:47.011Z</time></trkpt><trkpt lat="43.6385517" lon="11.010255"><ele>157.33333333333334</ele><time>2026-03-22T15:35:48.01Z</time></trkpt><trkpt lat="43.6386633" lon="11.0105117"><ele>161.66666666666669</ele><time>2026-03-22T15:35:49.011Z</time></trkpt><trkpt lat="43.638745" lon="11.010795"><ele>166.0</ele><time>2026-03-22T15:35:50.01Z</time></trkpt><trkpt lat="43.6387967" lon="11.0110917"><ele>166.0</ele><time>2026-03-22T15:35:51.011Z</time></trkpt><trkpt lat="43.6388233" lon="11.0114033"><ele>166.0</ele><time>2026-03-22T15:35:52.009Z</time></trkpt><trkpt lat="43.6388317" lon="11.0117217"><ele>166.5</ele><time>2026-03-22T15:35:53.011Z</time></trkpt><trkpt lat="43.6388433" lon="11.01204"><ele>167.0</ele><time>2026-03-22T15:35:54.009Z</time></trkpt><trkpt lat="43.6388567" lon="11.01235"><ele>167.33333333333331</ele><time>2026-03-22T15:35:55.01Z</time></trkpt><trkpt lat="43.6388683" lon="11.0126467"><ele>167.66666666666666</ele><time>2026-03-22T15:35:56.01Z</time></trkpt><trkpt lat="43.63887" lon="11.012925"><ele>168.0</ele><time>2026-03-22T15:35:57.011Z</time></trkpt><trkpt lat="43.6388433" lon="11.0131917"><ele>169.33333333333334</ele><time>2026-03-22T15:35:58.01Z</time></trkpt><trkpt lat="43.6387833" lon="11.0134483"><ele>170.66666666666669</ele><time>2026-03-22T15:35:59.012Z</time></trkpt><trkpt lat="43.638685" lon="11.013685"><ele>172.0</ele><time>2026-03-22T15:36:00.011Z</time></trkpt><trkpt lat="43.63856" lon="11.0139"><ele>165.66666666666669</ele><time>2026-03-22T15:36:01.011Z</time></trkpt><trkpt lat="43.6383867" lon="11.0140667"><ele>159.33333333333334</ele><time>2026-03-22T15:36:02.011Z</time></trkpt><trkpt lat="43.6381867" lon="11.0141917"><ele>153.0</ele><time>2026-03-22T15:36:03.01Z</time></trkpt><trkpt lat="43.6379683" lon="11.0142767"><ele>150.5</ele><time>2026-03-22T15:36:04.012Z</time></trkpt><trkpt lat="43.6377383" lon="11.0143467"><ele>148.0</ele><time>2026-03-22T15:36:05.01Z</time></trkpt><trkpt lat="43.6375083" lon="11.0144083"><ele>148.0</ele><time>2026-03-22T15:36:06.01Z</time></trkpt><trkpt lat="43.637285" lon="11.0144817"><ele>148.0</ele><time>2026-03-22T15:36:07.009Z</time></trkpt><trkpt lat="43.6370767" lon="11.0145883"><ele>148.33333333333334</ele><time>2026-03-22T15:36:08.012Z</time></trkpt><trkpt lat="43.6368917" lon="11.0147417"><ele>148.66666666666666</ele><time>2026-03-22T15:36:09.01Z</time></trkpt><trkpt lat="43.6367317" lon="11.014935"><ele>149.0</ele><time>2026-03-22T15:36:10.009Z</time></trkpt><trkpt lat="43.636615" lon="11.0151483"><ele>150.66666666666666</ele><time>2026-03-22T15:36:11.012Z</time></trkpt><trkpt lat="43.63653" lon="11.01537"><ele>152.33333333333334</ele><time>2026-03-22T15:36:12.011Z</time></trkpt><trkpt lat="43.6364567" lon="11.015575"><ele>154.0</ele><time>2026-03-22T15:36:13.01Z</time></trkpt><trkpt lat="43.636385" lon="11.0157533"><ele>154.5</ele><time>2026-03-22T15:36:14.012Z</time></trkpt><trkpt lat="43.636285" lon="11.0159117"><ele>155.0</ele><time>2026-03-22T15:36:15.011Z</time></trkpt><trkpt lat="43.6361733" lon="11.01604"><ele>155.5</ele><time>2026-03-22T15:36:16.011Z</time></trkpt><trkpt lat="43.6360467" lon="11.016145"><ele>156.0</ele><time>2026-03-22T15:36:17.01Z</time></trkpt><trkpt lat="43.63592" lon="11.0162417"><ele>156.75</ele><time>2026-03-22T15:36:18.009Z</time></trkpt><trkpt lat="43.6357967" lon="11.0163533"><ele>157.5</ele><time>2026-03-22T15:36:19.01Z</time></trkpt><trkpt lat="43.63569" lon="11.0164733"><ele>158.25</ele><time>2026-03-22T15:36:20.011Z</time></trkpt><trkpt lat="43.6355683" lon="11.0166133"><ele>159.0</ele><time>2026-03-22T15:36:21.011Z</time></trkpt><trkpt lat="43.6354633" lon="11.0167633"><ele>159.0</ele><time>2026-03-22T15:36:22.01Z</time></trkpt><trkpt lat="43.635365" lon="11.016925"><ele>159.0</ele><time>2026-03-22T15:36:23.01Z</time></trkpt><trkpt lat="43.6352967" lon="11.01711"><ele>159.0</ele><time>2026-03-22T15:36:24.012Z</time></trkpt><trkpt lat="43.6352433" lon="11.0173067"><ele>159.25</ele><time>2026-03-22T15:36:25.011Z</time></trkpt><trkpt lat="43.6352233" lon="11.0175067"><ele>159.5</ele><time>2026-03-22T15:36:26.012Z</time></trkpt><trkpt lat="43.6352117" lon="11.01771"><ele>159.75</ele><time>2026-03-22T15:36:27.011Z</time></trkpt><trkpt lat="43.635205" lon="11.01792"><ele>160.0</ele><time>2026-03-22T15:36:28.012Z</time></trkpt><trkpt lat="43.6351917" lon="11.018125"><ele>160.0</ele><time>2026-03-22T15:36:29.01Z</time></trkpt><trkpt lat="43.6351683" lon="11.0183167"><ele>160.0</ele><time>2026-03-22T15:36:30.009Z</time></trkpt><trkpt lat="43.6351517" lon="11.0185017"><ele>160.0</ele><time>2026-03-22T15:36:31.011Z</time></trkpt><trkpt lat="43.6351317" lon="11.0186883"><ele>160.0</ele><time>2026-03-22T15:36:32.01Z</time></trkpt><trkpt lat="43.6351133" lon="11.0188783"><ele>160.5</ele><time>2026-03-22T15:36:33.012Z</time></trkpt><trkpt lat="43.6351067" lon="11.0190733"><ele>161.0</ele><time>2026-03-22T15:36:34.011Z</time></trkpt><trkpt lat="43.6351117" lon="11.0192717"><ele>161.5</ele><time>2026-03-22T15:36:35.01Z</time></trkpt><trkpt lat="43.6351233" lon="11.0194733"><ele>162.0</ele><time>2026-03-22T15:36:36.011Z</time></trkpt><trkpt lat="43.6351333" lon="11.0196683"><ele>162.33333333333334</ele><time>2026-03-22T15:36:37.01Z</time></trkpt><trkpt lat="43.635135" lon="11.0198733"><ele>162.66666666666669</ele><time>2026-03-22T15:36:38.011Z</time></trkpt><trkpt lat="43.6351383" lon="11.02009"><ele>163.0</ele><time>2026-03-22T15:36:39.01Z</time></trkpt><trkpt lat="43.6351417" lon="11.0203117"><ele>162.33333333333334</ele><time>2026-03-22T15:36:40.009Z</time></trkpt><trkpt lat="43.63515" lon="11.0205367"><ele>161.66666666666666</ele><time>2026-03-22T15:36:41.011Z</time></trkpt><trkpt lat="43.6351617" lon="11.0207617"><ele>161.0</ele><time>2026-03-22T15:36:42.011Z</time></trkpt><trkpt lat="43.6351683" lon="11.02099"><ele>159.33333333333331</ele><time>2026-03-22T15:36:43.01Z</time></trkpt><trkpt lat="43.6351783" lon="11.0212167"><ele>157.66666666666666</ele><time>2026-03-22T15:36:44.01Z</time></trkpt><trkpt lat="43.6351817" lon="11.0214467"><ele>156.0</ele><time>2026-03-22T15:36:45.012Z</time></trkpt><trkpt lat="43.6351917" lon="11.0216767"><ele>154.0</ele><time>2026-03-22T15:36:46.01Z</time></trkpt><trkpt lat="43.635215" lon="11.021905"><ele>152.0</ele><time>2026-03-22T15:36:47.012Z</time></trkpt><trkpt lat="43.6352583" lon="11.022125"><ele>150.0</ele><time>2026-03-22T15:36:48.01Z</time></trkpt><trkpt lat="43.6353267" lon="11.0223383"><ele>148.0</ele><time>2026-03-22T15:36:49.01Z</time></trkpt><trkpt lat="43.635415" lon="11.0225417"><ele>146.0</ele><time>2026-03-22T15:36:50.012Z</time></trkpt><trkpt lat="43.6355067" lon="11.02274"><ele>144.0</ele><time>2026-03-22T15:36:51.012Z</time></trkpt><trkpt lat="43.6356067" lon="11.0229233"><ele>144.0</ele><time>2026-03-22T15:36:52.011Z</time></trkpt><trkpt lat="43.6357083" lon="11.0231017"><ele>144.0</ele><time>2026-03-22T15:36:53.01Z</time></trkpt><trkpt lat="43.63582" lon="11.0232667"><ele>144.0</ele><time>2026-03-22T15:36:54.012Z</time></trkpt><trkpt lat="43.6359433" lon="11.0234167"><ele>144.0</ele><time>2026-03-22T15:36:55.01Z</time></trkpt><trkpt lat="43.6360617" lon="11.02356"><ele>144.0</ele><time>2026-03-22T15:36:56.012Z</time></trkpt><trkpt lat="43.6361767" lon="11.0236967"><ele>144.0</ele><time>2026-03-22T15:36:57.01Z</time></trkpt><trkpt lat="43.636295" lon="11.0238317"><ele>144.0</ele><time>2026-03-22T15:36:58.01Z</time></trkpt><trkpt lat="43.63642" lon="11.0239533"><ele>144.0</ele><time>2026-03-22T15:36:59.012Z</time></trkpt><trkpt lat="43.636545" lon="11.02406"><ele>144.0</ele><time>2026-03-22T15:37:00.011Z</time></trkpt><trkpt lat="43.6366717" lon="11.024145"><ele>144.0</ele><time>2026-03-22T15:37:01.011Z</time></trkpt><trkpt lat="43.6368017" lon="11.0242217"><ele>144.66666666666666</ele><time>2026-03-22T15:37:02.012Z</time></trkpt><trkpt lat="43.6369333" lon="11.024295"><ele>145.33333333333331</ele><time>2026-03-22T15:37:03.01Z</time></trkpt><trkpt lat="43.6370717" lon="11.0243783"><ele>146.0</ele><time>2026-03-22T15:37:04.012Z</time></trkpt><trkpt lat="43.6372117" lon="11.024485"><ele>146.0</ele><time>2026-03-22T15:37:05.01Z</time></trkpt><trkpt lat="43.6373483" lon="11.0246233"><ele>146.0</ele><time>2026-03-22T15:37:06.012Z</time></trkpt><trkpt lat="43.6374717" lon="11.0247817"><ele>146.0</ele><time>2026-03-22T15:37:07.012Z</time></trkpt><trkpt lat="43.63758" lon="11.0249633"><ele>145.66666666666666</ele><time>2026-03-22T15:37:08.011Z</time></trkpt><trkpt lat="43.6376717" lon="11.025145"><ele>145.33333333333334</ele><time>2026-03-22T15:37:09.01Z</time></trkpt><trkpt lat="43.6377567" lon="11.0253233"><ele>145.0</ele><time>2026-03-22T15:37:10.012Z</time></trkpt><trkpt lat="43.6378433" lon="11.0255017"><ele>144.0</ele><time>2026-03-22T15:37:11.01Z</time></trkpt><trkpt lat="43.63793" lon="11.0256867"><ele>143.0</ele><time>2026-03-22T15:37:12.01Z</time></trkpt><trkpt lat="43.6380217" lon="11.0258633"><ele>142.0</ele><time>2026-03-22T15:37:13.011Z</time></trkpt><trkpt lat="43.6381117" lon="11.0260417"><ele>142.0</ele><time>2026-03-22T15:37:14.012Z</time></trkpt><trkpt lat="43.6381967" lon="11.02621"><ele>142.0</ele><time>2026-03-22T15:37:15.012Z</time></trkpt><trkpt lat="43.63828" lon="11.0263733"><ele>142.0</ele><time>2026-03-22T15:37:16.012Z</time></trkpt><trkpt lat="43.63836" lon="11.0265367"><ele>142.0</ele><time>2026-03-22T15:37:17.01Z</time></trkpt><trkpt lat="43.6384417" lon="11.0266983"><ele>141.5</ele><time>2026-03-22T15:37:18.011Z</time></trkpt><trkpt lat="43.63852" lon="11.0268617"><ele>141.0</ele><time>2026-03-22T15:37:19.01Z</time></trkpt><trkpt lat="43.6385983" lon="11.0270217"><ele>140.5</ele><time>2026-03-22T15:37:20.012Z</time></trkpt><trkpt lat="43.6386733" lon="11.0271767"><ele>140.0</ele><time>2026-03-22T15:37:21.012Z</time></trkpt><trkpt lat="43.638745" lon="11.02732"><ele>140.0</ele><time>2026-03-22T15:37:22.011Z</time></trkpt><trkpt lat="43.6388117" lon="11.027445"><ele>140.0</ele><time>2026-03-22T15:37:23.011Z</time></trkpt><trkpt lat="43.6388767" lon="11.0275633"><ele>140.0</ele><time>2026-03-22T15:37:24.011Z</time></trkpt><trkpt lat="43.638945" lon="11.0276983"><ele>140.0</ele><time>2026-03-22T15:37:25.011Z</time></trkpt><trkpt lat="43.63901" lon="11.02785"><ele>142.25</ele><time>2026-03-22T15:37:26.011Z</time></trkpt><trkpt lat="43.6390717" lon="11.0280183"><ele>144.5</ele><time>2026-03-22T15:37:27.013Z</time></trkpt><trkpt lat="43.6391367" lon="11.0282117"><ele>146.75</ele><time>2026-03-22T15:37:28.014Z</time></trkpt><trkpt lat="43.63921" lon="11.0284033"><ele>149.0</ele><time>2026-03-22T15:37:29.011Z</time></trkpt><trkpt lat="43.6392883" lon="11.0286"><ele>150.33333333333331</ele><time>2026-03-22T15:37:30.009Z</time></trkpt><trkpt lat="43.63936" lon="11.0287967"><ele>151.66666666666666</ele><time>2026-03-22T15:37:31.012Z</time></trkpt><trkpt lat="43.639435" lon="11.028985"><ele>153.0</ele><time>2026-03-22T15:37:32.011Z</time></trkpt><trkpt lat="43.6395117" lon="11.0291783"><ele>153.0</ele><time>2026-03-22T15:37:33.01Z</time></trkpt><trkpt lat="43.6395867" lon="11.029375"><ele>153.0</ele><time>2026-03-22T15:37:34.009Z</time></trkpt><trkpt lat="43.6396633" lon="11.0295767"><ele>153.0</ele><time>2026-03-22T15:37:35.011Z</time></trkpt><trkpt lat="43.63974" lon="11.0297833"><ele>154.33333333333334</ele><time>2026-03-22T15:37:36.011Z</time></trkpt><trkpt lat="43.6398217" lon="11.0299883"><ele>155.66666666666669</ele><time>2026-03-22T15:37:37.01Z</time></trkpt><trkpt lat="43.6399033" lon="11.030195"><ele>157.0</ele><time>2026-03-22T15:37:38.011Z</time></trkpt><trkpt lat="43.639985" lon="11.0303983"><ele>157.0</ele><time>2026-03-22T15:37:39.01Z</time></trkpt><trkpt lat="43.640065" lon="11.0306033"><ele>157.0</ele><time>2026-03-22T15:37:40.01Z</time></trkpt><trkpt lat="43.6401483" lon="11.0308133"><ele>157.0</ele><time>2026-03-22T15:37:41.012Z</time></trkpt><trkpt lat="43.64023" lon="11.0310233"><ele>161.66666666666669</ele><time>2026-03-22T15:37:42.01Z</time></trkpt><trkpt lat="43.6403133" lon="11.0312467"><ele>166.33333333333334</ele><time>2026-03-22T15:37:43.009Z</time></trkpt><trkpt lat="43.6403983" lon="11.0314667"><ele>171.0</ele><time>2026-03-22T15:37:44.012Z</time></trkpt><trkpt lat="43.6404867" lon="11.0316867"><ele>173.0</ele><time>2026-03-22T15:37:45.012Z</time></trkpt><trkpt lat="43.6405783" lon="11.031905"><ele>175.0</ele><time>2026-03-22T15:37:46.01Z</time></trkpt><trkpt lat="43.6406683" lon="11.032125"><ele>177.0</ele><time>2026-03-22T15:37:47.009Z</time></trkpt><trkpt lat="43.64076" lon="11.0323517"><ele>178.0</ele><time>2026-03-22T15:37:48.011Z</time></trkpt><trkpt lat="43.64085" lon="11.032585"><ele>179.0</ele><time>2026-03-22T15:37:49.011Z</time></trkpt><trkpt lat="43.640945" lon="11.0328317"><ele>180.0</ele><time>2026-03-22T15:37:50.011Z</time></trkpt><trkpt lat="43.6410417" lon="11.033085"><ele>184.66666666666669</ele><time>2026-03-22T15:37:51.011Z</time></trkpt><trkpt lat="43.641135" lon="11.03334"><ele>189.33333333333334</ele><time>2026-03-22T15:37:52.01Z</time></trkpt><trkpt lat="43.6412367" lon="11.033605"><ele>194.0</ele><time>2026-03-22T15:37:53.011Z</time></trkpt><trkpt lat="43.6413367" lon="11.0338683"><ele>194.0</ele><time>2026-03-22T15:37:54.012Z</time></trkpt><trkpt lat="43.641445" lon="11.034125"><ele>194.0</ele><time>2026-03-22T15:37:55.01Z</time></trkpt><trkpt lat="43.6415567" lon="11.0343767"><ele>194.0</ele><time>2026-03-22T15:37:56.011Z</time></trkpt><trkpt lat="43.6416767" lon="11.034635"><ele>192.33333333333334</ele><time>2026-03-22T15:37:57.009Z</time></trkpt><trkpt lat="43.6417967" lon="11.0348933"><ele>190.66666666666669</ele><time>2026-03-22T15:37:58.011Z</time></trkpt><trkpt lat="43.64192" lon="11.0351533"><ele>189.0</ele><time>2026-03-22T15:37:59.01Z</time></trkpt><trkpt lat="43.6420433" lon="11.03542"><ele>189.0</ele><time>2026-03-22T15:38:00.01Z</time></trkpt><trkpt lat="43.6421667" lon="11.03568"><ele>189.0</ele><time>2026-03-22T15:38:01.011Z</time></trkpt><trkpt lat="43.6422883" lon="11.0359283"><ele>189.0</ele><time>2026-03-22T15:38:02.01Z</time></trkpt><trkpt lat="43.6424117" lon="11.036175"><ele>188.66666666666666</ele><time>2026-03-22T15:38:03.01Z</time></trkpt><trkpt lat="43.64253" lon="11.0364233"><ele>188.33333333333331</ele><time>2026-03-22T15:38:04.01Z</time></trkpt><trkpt lat="43.642645" lon="11.0366617"><ele>188.0</ele><time>2026-03-22T15:38:05.01Z</time></trkpt><trkpt lat="43.6427583" lon="11.0368933"><ele>186.33333333333331</ele><time>2026-03-22T15:38:06.011Z</time></trkpt><trkpt lat="43.6428667" lon="11.03712"><ele>184.66666666666666</ele><time>2026-03-22T15:38:07.01Z</time></trkpt><trkpt lat="43.642975" lon="11.0373367"><ele>183.0</ele><time>2026-03-22T15:38:08.01Z</time></trkpt><trkpt lat="43.6430817" lon="11.0375567"><ele>183.0</ele><time>2026-03-22T15:38:09.011Z</time></trkpt><trkpt lat="43.6431817" lon="11.037775"><ele>183.0</ele><time>2026-03-22T15:38:10.009Z</time></trkpt><trkpt lat="43.6432783" lon="11.0379867"><ele>183.0</ele><time>2026-03-22T15:38:11.01Z</time></trkpt><trkpt lat="43.6433633" lon="11.03819"><ele>186.0</ele><time>2026-03-22T15:38:12.011Z</time></trkpt><trkpt lat="43.6434417" lon="11.03839"><ele>189.0</ele><time>2026-03-22T15:38:13.011Z</time></trkpt><trkpt lat="43.6435067" lon="11.0385967"><ele>192.0</ele><time>2026-03-22T15:38:14.01Z</time></trkpt><trkpt lat="43.6435583" lon="11.0388117"><ele>192.0</ele><time>2026-03-22T15:38:15.01Z</time></trkpt><trkpt lat="43.6436083" lon="11.0390233"><ele>192.0</ele><time>2026-03-22T15:38:16.011Z</time></trkpt><trkpt lat="43.6436533" lon="11.03923"><ele>192.0</ele><time>2026-03-22T15:38:17.011Z</time></trkpt><trkpt lat="43.6436983" lon="11.039435"><ele>189.33333333333334</ele><time>2026-03-22T15:38:18.01Z</time></trkpt><trkpt lat="43.643755" lon="11.03964"><ele>186.66666666666669</ele><time>2026-03-22T15:38:19.011Z</time></trkpt><trkpt lat="43.643835" lon="11.0398317"><ele>184.0</ele><time>2026-03-22T15:38:20.012Z</time></trkpt><trkpt lat="43.643945" lon="11.04"><ele>184.0</ele><time>2026-03-22T15:38:21.011Z</time></trkpt><trkpt lat="43.6440817" lon="11.0401633"><ele>184.0</ele><time>2026-03-22T15:38:22.011Z</time></trkpt><trkpt lat="43.6442233" lon="11.04031"><ele>184.0</ele><time>2026-03-22T15:38:23.01Z</time></trkpt><trkpt lat="43.64436" lon="11.0404383"><ele>185.66666666666669</ele><time>2026-03-22T15:38:24.01Z</time></trkpt><trkpt lat="43.6444867" lon="11.04056"><ele>187.33333333333334</ele><time>2026-03-22T15:38:25.01Z</time></trkpt><trkpt lat="43.64461" lon="11.04068"><ele>189.0</ele><time>2026-03-22T15:38:26.01Z</time></trkpt><trkpt lat="43.6447317" lon="11.0408067"><ele>189.0</ele><time>2026-03-22T15:38:27.011Z</time></trkpt><trkpt lat="43.6448533" lon="11.0409367"><ele>189.0</ele><time>2026-03-22T15:38:28.011Z</time></trkpt><trkpt lat="43.6449583" lon="11.0410767"><ele>189.0</ele><time>2026-03-22T15:38:29.01Z</time></trkpt><trkpt lat="43.64503" lon="11.041245"><ele>189.0</ele><time>2026-03-22T15:38:30.01Z</time></trkpt><trkpt lat="43.6450667" lon="11.041445"><ele>190.33333333333331</ele><time>2026-03-22T15:38:31.012Z</time></trkpt><trkpt lat="43.64507" lon="11.04167"><ele>191.66666666666666</ele><time>2026-03-22T15:38:32.011Z</time></trkpt><trkpt lat="43.6450567" lon="11.0419033"><ele>193.0</ele><time>2026-03-22T15:38:33.01Z</time></trkpt><trkpt lat="43.6450333" lon="11.0421333"><ele>193.0</ele><time>2026-03-22T15:38:34.011Z</time></trkpt><trkpt lat="43.6450117" lon="11.0423533"><ele>193.0</ele><time>2026-03-22T15:38:35.01Z</time></trkpt><trkpt lat="43.6450033" lon="11.04257"><ele>193.0</ele><time>2026-03-22T15:38:36.01Z</time></trkpt><trkpt lat="43.64499" lon="11.0427717"><ele>193.0</ele><time>2026-03-22T15:38:37.01Z</time></trkpt><trkpt lat="43.64498" lon="11.042965"><ele>193.0</ele><time>2026-03-22T15:38:38.01Z</time></trkpt><trkpt lat="43.6449767" lon="11.0431683"><ele>193.0</ele><time>2026-03-22T15:38:39.01Z</time></trkpt><trkpt lat="43.6449683" lon="11.04337"><ele>193.0</ele><time>2026-03-22T15:38:40.01Z</time></trkpt><trkpt lat="43.64496" lon="11.0435667"><ele>193.0</ele><time>2026-03-22T15:38:41.01Z</time></trkpt><trkpt lat="43.64495" lon="11.04376"><ele>193.0</ele><time>2026-03-22T15:38:42.01Z</time></trkpt><trkpt lat="43.6449317" lon="11.0439617"><ele>193.0</ele><time>2026-03-22T15:38:43.011Z</time></trkpt><trkpt lat="43.6449117" lon="11.0441567"><ele>193.0</ele><time>2026-03-22T15:38:44.011Z</time></trkpt><trkpt lat="43.6448883" lon="11.0443467"><ele>192.75</ele><time>2026-03-22T15:38:45.01Z</time></trkpt><trkpt lat="43.6448633" lon="11.044535"><ele>192.5</ele><time>2026-03-22T15:38:46.012Z</time></trkpt><trkpt lat="43.64484" lon="11.0447217"><ele>192.25</ele><time>2026-03-22T15:38:47.012Z</time></trkpt><trkpt lat="43.644815" lon="11.0448967"><ele>192.0</ele><time>2026-03-22T15:38:48.01Z</time></trkpt><trkpt lat="43.6447767" lon="11.045065"><ele>191.75</ele><time>2026-03-22T15:38:49.009Z</time></trkpt><trkpt lat="43.644725" lon="11.045225"><ele>191.5</ele><time>2026-03-22T15:38:50.01Z</time></trkpt><trkpt lat="43.644665" lon="11.045385"><ele>191.25</ele><time>2026-03-22T15:38:51.01Z</time></trkpt><trkpt lat="43.6446033" lon="11.0455417"><ele>191.0</ele><time>2026-03-22T15:38:52.009Z</time></trkpt><trkpt lat="43.6445483" lon="11.0456967"><ele>190.75</ele><time>2026-03-22T15:38:53.01Z</time></trkpt><trkpt lat="43.644505" lon="11.0458517"><ele>190.5</ele><time>2026-03-22T15:38:54.01Z</time></trkpt><trkpt lat="43.6444717" lon="11.0460017"><ele>190.25</ele><time>2026-03-22T15:38:55.011Z</time></trkpt><trkpt lat="43.64444" lon="11.0461533"><ele>190.0</ele><time>2026-03-22T15:38:56.01Z</time></trkpt><trkpt lat="43.6444133" lon="11.0463083"><ele>190.0</ele><time>2026-03-22T15:38:57.01Z</time></trkpt><trkpt lat="43.644385" lon="11.046465"><ele>190.0</ele><time>2026-03-22T15:38:58.009Z</time></trkpt><trkpt lat="43.6443567" lon="11.0466283"><ele>190.0</ele><time>2026-03-22T15:38:59.011Z</time></trkpt><trkpt lat="43.6443267" lon="11.046795"><ele>190.0</ele><time>2026-03-22T15:39:00.01Z</time></trkpt><trkpt lat="43.644295" lon="11.0469617"><ele>191.75</ele><time>2026-03-22T15:39:01.011Z</time></trkpt><trkpt lat="43.6442667" lon="11.0471317"><ele>193.5</ele><time>2026-03-22T15:39:02.01Z</time></trkpt><trkpt lat="43.6442333" lon="11.0473017"><ele>195.25</ele><time>2026-03-22T15:39:03.009Z</time></trkpt><trkpt lat="43.644195" lon="11.0474717"><ele>197.0</ele><time>2026-03-22T15:39:04.012Z</time></trkpt><trkpt lat="43.64414" lon="11.0476367"><ele>198.25</ele><time>2026-03-22T15:39:05.011Z</time></trkpt><trkpt lat="43.6440717" lon="11.0477967"><ele>199.5</ele><time>2026-03-22T15:39:06.012Z</time></trkpt><trkpt lat="43.6440017" lon="11.0479583"><ele>200.75</ele><time>2026-03-22T15:39:07.009Z</time></trkpt><trkpt lat="43.643935" lon="11.048125"><ele>202.0</ele><time>2026-03-22T15:39:08.011Z</time></trkpt><trkpt lat="43.643875" lon="11.048295"><ele>203.0</ele><time>2026-03-22T15:39:09.011Z</time></trkpt><trkpt lat="43.6438117" lon="11.0484733"><ele>204.0</ele><time>2026-03-22T15:39:10.009Z</time></trkpt><trkpt lat="43.6437483" lon="11.0486567"><ele>205.0</ele><time>2026-03-22T15:39:11.01Z</time></trkpt><trkpt lat="43.64369" lon="11.0488433"><ele>206.0</ele><time>2026-03-22T15:39:12.011Z</time></trkpt><trkpt lat="43.6436367" lon="11.04903"><ele>205.0</ele><time>2026-03-22T15:39:13.01Z</time></trkpt><trkpt lat="43.6435917" lon="11.0492233"><ele>204.0</ele><time>2026-03-22T15:39:14.01Z</time></trkpt><trkpt lat="43.6435617" lon="11.04943"><ele>203.0</ele><time>2026-03-22T15:39:15.01Z</time></trkpt><trkpt lat="43.64355" lon="11.0496467"><ele>203.0</ele><time>2026-03-22T15:39:16.01Z</time></trkpt><trkpt lat="43.6435467" lon="11.0498717"><ele>203.0</ele><time>2026-03-22T15:39:17.009Z</time></trkpt><trkpt lat="43.643555" lon="11.050095"><ele>203.0</ele><time>2026-03-22T15:39:18.01Z</time></trkpt><trkpt lat="43.6435717" lon="11.0503133"><ele>203.0</ele><time>2026-03-22T15:39:19.011Z</time></trkpt><trkpt lat="43.6436033" lon="11.0505083"><ele>203.0</ele><time>2026-03-22T15:39:20.01Z</time></trkpt><trkpt lat="43.643665" lon="11.0506983"><ele>203.0</ele><time>2026-03-22T15:39:21.01Z</time></trkpt><trkpt lat="43.6437433" lon="11.05089"><ele>205.66666666666669</ele><time>2026-03-22T15:39:22.011Z</time></trkpt><trkpt lat="43.64383" lon="11.05108"><ele>208.33333333333331</ele><time>2026-03-22T15:39:23.011Z</time></trkpt><trkpt lat="43.6439133" lon="11.0512767"><ele>211.0</ele><time>2026-03-22T15:39:24.01Z</time></trkpt><trkpt lat="43.6439767" lon="11.0514917"><ele>210.66666666666666</ele><time>2026-03-22T15:39:25.013Z</time></trkpt><trkpt lat="43.6440183" lon="11.05172"><ele>210.33333333333331</ele><time>2026-03-22T15:39:26.011Z</time></trkpt><trkpt lat="43.644045" lon="11.0519583"><ele>210.0</ele><time>2026-03-22T15:39:27.01Z</time></trkpt><trkpt lat="43.6440733" lon="11.0522033"><ele>210.0</ele><time>2026-03-22T15:39:28.009Z</time></trkpt><trkpt lat="43.64411" lon="11.0524433"><ele>210.0</ele><time>2026-03-22T15:39:29.012Z</time></trkpt><trkpt lat="43.6441483" lon="11.052685"><ele>210.0</ele><time>2026-03-22T15:39:30.01Z</time></trkpt><trkpt lat="43.6441883" lon="11.0529267"><ele>209.33333333333331</ele><time>2026-03-22T15:39:31.013Z</time></trkpt><trkpt lat="43.6442283" lon="11.0531617"><ele>208.66666666666666</ele><time>2026-03-22T15:39:32.011Z</time></trkpt><trkpt lat="43.6442567" lon="11.0533983"><ele>208.0</ele><time>2026-03-22T15:39:33.009Z</time></trkpt><trkpt lat="43.64427" lon="11.0536367"><ele>205.66666666666666</ele><time>2026-03-22T15:39:34.012Z</time></trkpt><trkpt lat="43.644265" lon="11.0538683"><ele>203.33333333333331</ele><time>2026-03-22T15:39:35.011Z</time></trkpt><trkpt lat="43.6442383" lon="11.0541083"><ele>201.0</ele><time>2026-03-22T15:39:36.01Z</time></trkpt><trkpt lat="43.6441967" lon="11.054345"><ele>200.33333333333331</ele><time>2026-03-22T15:39:37.01Z</time></trkpt><trkpt lat="43.6441517" lon="11.0545883"><ele>199.66666666666666</ele><time>2026-03-22T15:39:38.012Z</time></trkpt><trkpt lat="43.6441167" lon="11.0548417"><ele>199.0</ele><time>2026-03-22T15:39:39.01Z</time></trkpt><trkpt lat="43.6440917" lon="11.055105"><ele>200.33333333333331</ele><time>2026-03-22T15:39:40.011Z</time></trkpt><trkpt lat="43.64408" lon="11.0553683"><ele>201.66666666666669</ele><time>2026-03-22T15:39:41.012Z</time></trkpt><trkpt lat="43.6440933" lon="11.05563"><ele>203.0</ele><time>2026-03-22T15:39:42.012Z</time></trkpt><trkpt lat="43.6441317" lon="11.0558883"><ele>204.66666666666669</ele><time>2026-03-22T15:39:43.012Z</time></trkpt><trkpt lat="43.6441833" lon="11.0561417"><ele>206.33333333333331</ele><time>2026-03-22T15:39:44.01Z</time></trkpt><trkpt lat="43.644245" lon="11.0564"><ele>208.0</ele><time>2026-03-22T15:39:45.01Z</time></trkpt><trkpt lat="43.6443083" lon="11.0566517"><ele>207.0</ele><time>2026-03-22T15:39:46.01Z</time></trkpt><trkpt lat="43.6443717" lon="11.0568933"><ele>206.0</ele><time>2026-03-22T15:39:47.011Z</time></trkpt><trkpt lat="43.644435" lon="11.05713"><ele>205.0</ele><time>2026-03-22T15:39:48.01Z</time></trkpt><trkpt lat="43.6444933" lon="11.0573533"><ele>206.33333333333331</ele><time>2026-03-22T15:39:49.011Z</time></trkpt><trkpt lat="43.6445517" lon="11.0575733"><ele>207.66666666666669</ele><time>2026-03-22T15:39:50.011Z</time></trkpt><trkpt lat="43.6446083" lon="11.05779"><ele>209.0</ele><time>2026-03-22T15:39:51.011Z</time></trkpt><trkpt lat="43.6446683" lon="11.0579933"><ele>209.0</ele><time>2026-03-22T15:39:52.011Z</time></trkpt><trkpt lat="43.6447267" lon="11.0581867"><ele>209.0</ele><time>2026-03-22T15:39:53.008Z</time></trkpt><trkpt lat="43.6447867" lon="11.0583633"><ele>209.0</ele><time>2026-03-22T15:39:54.011Z</time></trkpt><trkpt lat="43.64485" lon="11.0585333"><ele>209.0</ele><time>2026-03-22T15:39:55.011Z</time></trkpt><trkpt lat="43.6449133" lon="11.0587"><ele>210.75</ele><time>2026-03-22T15:39:56.012Z</time></trkpt><trkpt lat="43.6449767" lon="11.0588667"><ele>212.5</ele><time>2026-03-22T15:39:57.01Z</time></trkpt><trkpt lat="43.64504" lon="11.0590267"><ele>214.25</ele><time>2026-03-22T15:39:58.01Z</time></trkpt><trkpt lat="43.6451" lon="11.0591733"><ele>216.0</ele><time>2026-03-22T15:39:59.011Z</time></trkpt><trkpt lat="43.6451617" lon="11.059315"><ele>215.25</ele><time>2026-03-22T15:40:00.01Z</time></trkpt><trkpt lat="43.6452183" lon="11.0594517"><ele>214.5</ele><time>2026-03-22T15:40:01.01Z</time></trkpt><trkpt lat="43.6452767" lon="11.0595867"><ele>213.75</ele><time>2026-03-22T15:40:02.009Z</time></trkpt><trkpt lat="43.6453383" lon="11.0597267"><ele>213.0</ele><time>2026-03-22T15:40:03.011Z</time></trkpt><trkpt lat="43.6453933" lon="11.05987"><ele>216.0</ele><time>2026-03-22T15:40:04.011Z</time></trkpt><trkpt lat="43.645445" lon="11.06002"><ele>219.0</ele><time>2026-03-22T15:40:05.01Z</time></trkpt><trkpt lat="43.64549" lon="11.0601717"><ele>222.0</ele><time>2026-03-22T15:40:06.011Z</time></trkpt><trkpt lat="43.6455433" lon="11.0603283"><ele>225.0</ele><time>2026-03-22T15:40:07.011Z</time></trkpt><trkpt lat="43.6455983" lon="11.0604867"><ele>225.0</ele><time>2026-03-22T15:40:08.01Z</time></trkpt><trkpt lat="43.6456417" lon="11.0606533"><ele>225.0</ele><time>2026-03-22T15:40:09.01Z</time></trkpt><trkpt lat="43.6457017" lon="11.06081"><ele>225.0</ele><time>2026-03-22T15:40:10.012Z</time></trkpt><trkpt lat="43.6457583" lon="11.06097"><ele>225.0</ele><time>2026-03-22T15:40:11.012Z</time></trkpt><trkpt lat="43.64581" lon="11.06113"><ele>225.5</ele><time>2026-03-22T15:40:12.011Z</time></trkpt><trkpt lat="43.64586" lon="11.061295"><ele>226.0</ele><time>2026-03-22T15:40:13.012Z</time></trkpt><trkpt lat="43.6459133" lon="11.0614617"><ele>226.5</ele><time>2026-03-22T15:40:14.011Z</time></trkpt><trkpt lat="43.6459633" lon="11.0616283"><ele>227.0</ele><time>2026-03-22T15:40:15.011Z</time></trkpt><trkpt lat="43.6460133" lon="11.0618017"><ele>227.0</ele><time>2026-03-22T15:40:16.01Z</time></trkpt><trkpt lat="43.6460633" lon="11.06197"><ele>227.0</ele><time>2026-03-22T15:40:17.01Z</time></trkpt><trkpt lat="43.6461067" lon="11.0621433"><ele>227.0</ele><time>2026-03-22T15:40:18.01Z</time></trkpt><trkpt lat="43.6461317" lon="11.06232"><ele>227.0</ele><time>2026-03-22T15:40:19.009Z</time></trkpt><trkpt lat="43.6461433" lon="11.0625017"><ele>227.5</ele><time>2026-03-22T15:40:20.01Z</time></trkpt><trkpt lat="43.6461333" lon="11.0626917"><ele>228.0</ele><time>2026-03-22T15:40:21.01Z</time></trkpt><trkpt lat="43.6461183" lon="11.0628783"><ele>228.5</ele><time>2026-03-22T15:40:22.012Z</time></trkpt><trkpt lat="43.6460967" lon="11.0630633"><ele>229.0</ele><time>2026-03-22T15:40:23.01Z</time></trkpt><trkpt lat="43.6460683" lon="11.06325"><ele>228.75</ele><time>2026-03-22T15:40:24.01Z</time></trkpt><trkpt lat="43.6460383" lon="11.0634383"><ele>228.5</ele><time>2026-03-22T15:40:25.01Z</time></trkpt><trkpt lat="43.6460167" lon="11.063625"><ele>228.25</ele><time>2026-03-22T15:40:26.01Z</time></trkpt><trkpt lat="43.6459933" lon="11.063805"><ele>228.0</ele><time>2026-03-22T15:40:27.011Z</time></trkpt><trkpt lat="43.645975" lon="11.0639683"><ele>228.8</ele><time>2026-03-22T15:40:28.009Z</time></trkpt><trkpt lat="43.64596" lon="11.0641167"><ele>229.60000000000002</ele><time>2026-03-22T15:40:29.014Z</time></trkpt><trkpt lat="43.645955" lon="11.0642517"><ele>230.39999999999998</ele><time>2026-03-22T15:40:30.013Z</time></trkpt><trkpt lat="43.6459583" lon="11.0643767"><ele>231.2</ele><time>2026-03-22T15:40:31.01Z</time></trkpt><trkpt lat="43.645955" lon="11.0645117"><ele>232.0</ele><time>2026-03-22T15:40:32.013Z</time></trkpt><trkpt lat="43.6459567" lon="11.0646517"><ele>232.0</ele><time>2026-03-22T15:40:33.01Z</time></trkpt><trkpt lat="43.6459583" lon="11.064795"><ele>232.0</ele><time>2026-03-22T15:40:34.012Z</time></trkpt><trkpt lat="43.6459583" lon="11.0649417"><ele>232.0</ele><time>2026-03-22T15:40:35.011Z</time></trkpt><trkpt lat="43.6459617" lon="11.0650933"><ele>232.0</ele><time>2026-03-22T15:40:36.01Z</time></trkpt><trkpt lat="43.64596" lon="11.065245"><ele>232.0</ele><time>2026-03-22T15:40:37.01Z</time></trkpt><trkpt lat="43.64596" lon="11.065395"><ele>232.2</ele><time>2026-03-22T15:40:38.01Z</time></trkpt><trkpt lat="43.6459567" lon="11.0655417"><ele>232.39999999999998</ele><time>2026-03-22T15:40:39.01Z</time></trkpt><trkpt lat="43.645955" lon="11.0656817"><ele>232.60000000000002</ele><time>2026-03-22T15:40:40.009Z</time></trkpt><trkpt lat="43.6459533" lon="11.065825"><ele>232.8</ele><time>2026-03-22T15:40:41.01Z</time></trkpt><trkpt lat="43.6459517" lon="11.0659667"><ele>233.0</ele><time>2026-03-22T15:40:42.011Z</time></trkpt><trkpt lat="43.6459467" lon="11.0661067"><ele>233.2</ele><time>2026-03-22T15:40:43.01Z</time></trkpt><trkpt lat="43.6459417" lon="11.0662433"><ele>233.4</ele><time>2026-03-22T15:40:44.01Z</time></trkpt><trkpt lat="43.64592" lon="11.066385"><ele>233.59999999999997</ele><time>2026-03-22T15:40:45.009Z</time></trkpt><trkpt lat="43.6458883" lon="11.066525"><ele>233.79999999999998</ele><time>2026-03-22T15:40:46.011Z</time></trkpt><trkpt lat="43.6458567" lon="11.0666617"><ele>234.0</ele><time>2026-03-22T15:40:47.01Z</time></trkpt><trkpt lat="43.645815" lon="11.0667967"><ele>234.0</ele><time>2026-03-22T15:40:48.01Z</time></trkpt><trkpt lat="43.645755" lon="11.06693"><ele>233.99999999999997</ele><time>2026-03-22T15:40:49.01Z</time></trkpt><trkpt lat="43.64569" lon="11.067055"><ele>233.99999999999997</ele><time>2026-03-22T15:40:50.01Z</time></trkpt><trkpt lat="43.645625" lon="11.0671783"><ele>234.0</ele><time>2026-03-22T15:40:51.011Z</time></trkpt><trkpt lat="43.6455567" lon="11.0673"><ele>234.0</ele><time>2026-03-22T15:40:52.011Z</time></trkpt><trkpt lat="43.6454867" lon="11.06742"><ele>233.0</ele><time>2026-03-22T15:40:53.01Z</time></trkpt><trkpt lat="43.6454217" lon="11.0675417"><ele>231.99999999999997</ele><time>2026-03-22T15:40:54.012Z</time></trkpt><trkpt lat="43.645355" lon="11.0676617"><ele>230.99999999999997</ele><time>2026-03-22T15:40:55.012Z</time></trkpt><trkpt lat="43.6452883" lon="11.06778"><ele>230.0</ele><time>2026-03-22T15:40:56.012Z</time></trkpt><trkpt lat="43.645235" lon="11.0678933"><ele>229.0</ele><time>2026-03-22T15:40:57.01Z</time></trkpt><trkpt lat="43.6451817" lon="11.0680033"><ele>229.0</ele><time>2026-03-22T15:40:58.011Z</time></trkpt><trkpt lat="43.6451267" lon="11.0681167"><ele>228.99999999999997</ele><time>2026-03-22T15:40:59.011Z</time></trkpt><trkpt lat="43.645075" lon="11.0682383"><ele>228.99999999999997</ele><time>2026-03-22T15:41:00.012Z</time></trkpt><trkpt lat="43.6450317" lon="11.0683667"><ele>229.0</ele><time>2026-03-22T15:41:01.01Z</time></trkpt><trkpt lat="43.64499" lon="11.0684967"><ele>229.0</ele><time>2026-03-22T15:41:02.01Z</time></trkpt><trkpt lat="43.6449533" lon="11.0686267"><ele>229.0</ele><time>2026-03-22T15:41:03.01Z</time></trkpt><trkpt lat="43.6449183" lon="11.0687567"><ele>228.99999999999997</ele><time>2026-03-22T15:41:04.01Z</time></trkpt><trkpt lat="43.6448817" lon="11.0688883"><ele>228.99999999999997</ele><time>2026-03-22T15:41:05.009Z</time></trkpt><trkpt lat="43.64485" lon="11.069015"><ele>229.0</ele><time>2026-03-22T15:41:06.009Z</time></trkpt><trkpt lat="43.64483" lon="11.069135"><ele>229.0</ele><time>2026-03-22T15:41:07.01Z</time></trkpt><trkpt lat="43.6448133" lon="11.0692467"><ele>228.83333333333331</ele><time>2026-03-22T15:41:08.009Z</time></trkpt><trkpt lat="43.6447983" lon="11.0693583"><ele>228.66666666666666</ele><time>2026-03-22T15:41:09.008Z</time></trkpt><trkpt lat="43.644785" lon="11.0694717"><ele>228.5</ele><time>2026-03-22T15:41:10.011Z</time></trkpt><trkpt lat="43.6447633" lon="11.0695967"><ele>228.33333333333331</ele><time>2026-03-22T15:41:11.011Z</time></trkpt><trkpt lat="43.6447417" lon="11.0697183"><ele>228.16666666666666</ele><time>2026-03-22T15:41:12.011Z</time></trkpt><trkpt lat="43.64472" lon="11.0698367"><ele>228.0</ele><time>2026-03-22T15:41:13.01Z</time></trkpt><trkpt lat="43.6446933" lon="11.0699517"><ele>228.33333333333334</ele><time>2026-03-22T15:41:14.011Z</time></trkpt><trkpt lat="43.6446633" lon="11.0700667"><ele>228.66666666666669</ele><time>2026-03-22T15:41:15.011Z</time></trkpt><trkpt lat="43.6446317" lon="11.0701833"><ele>229.0</ele><time>2026-03-22T15:41:16.01Z</time></trkpt><trkpt lat="43.6445983" lon="11.0702983"><ele>229.33333333333334</ele><time>2026-03-22T15:41:17.01Z</time></trkpt><trkpt lat="43.6445683" lon="11.0704083"><ele>229.66666666666669</ele><time>2026-03-22T15:41:18.01Z</time></trkpt><trkpt lat="43.6445417" lon="11.0705083"><ele>230.0</ele><time>2026-03-22T15:41:19.011Z</time></trkpt><trkpt lat="43.6445167" lon="11.0705917"><ele>230.0</ele><time>2026-03-22T15:41:20.013Z</time></trkpt><trkpt lat="43.6444733" lon="11.0707433"><ele>230.0</ele><time>2026-03-22T15:41:22.01Z</time></trkpt><trkpt lat="43.6444383" lon="11.070865"><ele>230.0</ele><time>2026-03-22T15:41:24.011Z</time></trkpt><trkpt lat="43.6444083" lon="11.070995"><ele>230.0</ele><time>2026-03-22T15:41:26.01Z</time></trkpt><trkpt lat="43.64442" lon="11.0711217"><ele>230.0</ele><time>2026-03-22T15:41:28.01Z</time></trkpt><trkpt lat="43.64449" lon="11.07121"><ele>230.2</ele><time>2026-03-22T15:41:30.009Z</time></trkpt><trkpt lat="43.644585" lon="11.0712967"><ele>230.4</ele><time>2026-03-22T15:41:32.01Z</time></trkpt><trkpt lat="43.6446733" lon="11.0714183"><ele>230.60000000000002</ele><time>2026-03-22T15:41:34.01Z</time></trkpt><trkpt lat="43.6447183" lon="11.07149"><ele>230.8</ele><time>2026-03-22T15:41:35.01Z</time></trkpt><trkpt lat="43.6447633" lon="11.0715717"><ele>231.0</ele><time>2026-03-22T15:41:36.009Z</time></trkpt><trkpt lat="43.64481" lon="11.07166"><ele>231.16666666666666</ele><time>2026-03-22T15:41:37.01Z</time></trkpt><trkpt lat="43.6448517" lon="11.0717467"><ele>231.33333333333331</ele><time>2026-03-22T15:41:38.01Z</time></trkpt><trkpt lat="43.64489" lon="11.0718367"><ele>231.5</ele><time>2026-03-22T15:41:39.012Z</time></trkpt><trkpt lat="43.644925" lon="11.0719217"><ele>231.66666666666666</ele><time>2026-03-22T15:41:40.011Z</time></trkpt><trkpt lat="43.6449517" lon="11.0720917"><ele>231.83333333333331</ele><time>2026-03-22T15:41:42.011Z</time></trkpt><trkpt lat="43.6449667" lon="11.07218"><ele>232.0</ele><time>2026-03-22T15:41:43.01Z</time></trkpt><trkpt lat="43.64498" lon="11.07227"><ele>232.00000000000003</ele><time>2026-03-22T15:41:44.01Z</time></trkpt><trkpt lat="43.6449967" lon="11.0723583"><ele>232.0</ele><time>2026-03-22T15:41:45.01Z</time></trkpt><trkpt lat="43.6450067" lon="11.0724483"><ele>232.00000000000003</ele><time>2026-03-22T15:41:46.009Z</time></trkpt><trkpt lat="43.645025" lon="11.0725383"><ele>232.00000000000003</ele><time>2026-03-22T15:41:47.009Z</time></trkpt><trkpt lat="43.6450367" lon="11.07263"><ele>232.0</ele><time>2026-03-22T15:41:48.01Z</time></trkpt><trkpt lat="43.6450533" lon="11.072725"><ele>232.00000000000003</ele><time>2026-03-22T15:41:49.011Z</time></trkpt><trkpt lat="43.645065" lon="11.0728217"><ele>232.00000000000003</ele><time>2026-03-22T15:41:50.01Z</time></trkpt><trkpt lat="43.6450817" lon="11.07292"><ele>232.16666666666666</ele><time>2026-03-22T15:41:51.009Z</time></trkpt><trkpt lat="43.645095" lon="11.0730183"><ele>232.33333333333331</ele><time>2026-03-22T15:41:52.01Z</time></trkpt><trkpt lat="43.6451067" lon="11.073115"><ele>232.5</ele><time>2026-03-22T15:41:53.01Z</time></trkpt><trkpt lat="43.6451133" lon="11.07321"><ele>232.66666666666669</ele><time>2026-03-22T15:41:54.01Z</time></trkpt><trkpt lat="43.6451083" lon="11.0733017"><ele>232.83333333333334</ele><time>2026-03-22T15:41:55.01Z</time></trkpt><trkpt lat="43.645095" lon="11.0734617"><ele>233.0</ele><time>2026-03-22T15:41:57.01Z</time></trkpt><trkpt lat="43.645115" lon="11.0735967"><ele>233.4</ele><time>2026-03-22T15:41:59.01Z</time></trkpt><trkpt lat="43.6451667" lon="11.073725"><ele>233.8</ele><time>2026-03-22T15:42:01.01Z</time></trkpt><trkpt lat="43.6451967" lon="11.0738517"><ele>234.2</ele><time>2026-03-22T15:42:03.01Z</time></trkpt><trkpt lat="43.64522" lon="11.0739767"><ele>234.6</ele><time>2026-03-22T15:42:05.01Z</time></trkpt><trkpt lat="43.6452433" lon="11.0741133"><ele>235.0</ele><time>2026-03-22T15:42:07.01Z</time></trkpt><trkpt lat="43.6452667" lon="11.0742867"><ele>234.6</ele><time>2026-03-22T15:42:09.009Z</time></trkpt><trkpt lat="43.6452783" lon="11.0743933"><ele>234.2</ele><time>2026-03-22T15:42:10.01Z</time></trkpt><trkpt lat="43.645295" lon="11.074515"><ele>233.8</ele><time>2026-03-22T15:42:11.011Z</time></trkpt><trkpt lat="43.645315" lon="11.0746533"><ele>233.4</ele><time>2026-03-22T15:42:12.011Z</time></trkpt><trkpt lat="43.6453383" lon="11.0748067"><ele>233.0</ele><time>2026-03-22T15:42:13.01Z</time></trkpt><trkpt lat="43.64536" lon="11.07497"><ele>232.0</ele><time>2026-03-22T15:42:14.012Z</time></trkpt><trkpt lat="43.6453767" lon="11.0751433"><ele>231.0</ele><time>2026-03-22T15:42:15.01Z</time></trkpt><trkpt lat="43.6453967" lon="11.075315"><ele>230.0</ele><time>2026-03-22T15:42:16.012Z</time></trkpt><trkpt lat="43.6454183" lon="11.07549"><ele>229.0</ele><time>2026-03-22T15:42:17.01Z</time></trkpt><trkpt lat="43.6454417" lon="11.075665"><ele>228.5</ele><time>2026-03-22T15:42:18.01Z</time></trkpt><trkpt lat="43.6454667" lon="11.07584"><ele>228.0</ele><time>2026-03-22T15:42:19.011Z</time></trkpt><trkpt lat="43.645495" lon="11.0760083"><ele>227.5</ele><time>2026-03-22T15:42:20.01Z</time></trkpt><trkpt lat="43.645525" lon="11.076175"><ele>227.0</ele><time>2026-03-22T15:42:21.01Z</time></trkpt><trkpt lat="43.64555" lon="11.0763467"><ele>227.0</ele><time>2026-03-22T15:42:22.01Z</time></trkpt><trkpt lat="43.645575" lon="11.0765233"><ele>227.0</ele><time>2026-03-22T15:42:23.009Z</time></trkpt><trkpt lat="43.6456033" lon="11.0767117"><ele>227.0</ele><time>2026-03-22T15:42:24.01Z</time></trkpt><trkpt lat="43.645645" lon="11.0769067"><ele>227.0</ele><time>2026-03-22T15:42:25.01Z</time></trkpt><trkpt lat="43.6456967" lon="11.0771133"><ele>227.33333333333334</ele><time>2026-03-22T15:42:26.01Z</time></trkpt><trkpt lat="43.6457517" lon="11.07733"><ele>227.66666666666669</ele><time>2026-03-22T15:42:27.009Z</time></trkpt><trkpt lat="43.64581" lon="11.0775567"><ele>228.0</ele><time>2026-03-22T15:42:28.01Z</time></trkpt><trkpt lat="43.64587" lon="11.0778017"><ele>227.33333333333331</ele><time>2026-03-22T15:42:29.01Z</time></trkpt><trkpt lat="43.64593" lon="11.0780767"><ele>226.66666666666666</ele><time>2026-03-22T15:42:30.009Z</time></trkpt><trkpt lat="43.6459833" lon="11.0783633"><ele>226.0</ele><time>2026-03-22T15:42:31.011Z</time></trkpt><trkpt lat="43.6460283" lon="11.078655"><ele>226.0</ele><time>2026-03-22T15:42:32.01Z</time></trkpt><trkpt lat="43.64607" lon="11.0789383"><ele>226.0</ele><time>2026-03-22T15:42:33.009Z</time></trkpt><trkpt lat="43.6461167" lon="11.0792083"><ele>226.0</ele><time>2026-03-22T15:42:34.009Z</time></trkpt><trkpt lat="43.6461783" lon="11.079475"><ele>221.33333333333331</ele><time>2026-03-22T15:42:35.009Z</time></trkpt><trkpt lat="43.6462617" lon="11.0797217"><ele>216.66666666666669</ele><time>2026-03-22T15:42:36.009Z</time></trkpt><trkpt lat="43.6463533" lon="11.0799417"><ele>212.0</ele><time>2026-03-22T15:42:37.01Z</time></trkpt><trkpt lat="43.6464533" lon="11.080135"><ele>212.0</ele><time>2026-03-22T15:42:38.009Z</time></trkpt><trkpt lat="43.6465717" lon="11.0803083"><ele>212.0</ele><time>2026-03-22T15:42:39.01Z</time></trkpt><trkpt lat="43.6467167" lon="11.080485"><ele>212.0</ele><time>2026-03-22T15:42:40.01Z</time></trkpt><trkpt lat="43.6468783" lon="11.08069"><ele>208.0</ele><time>2026-03-22T15:42:41.009Z</time></trkpt><trkpt lat="43.6470367" lon="11.0809183"><ele>204.0</ele><time>2026-03-22T15:42:42.008Z</time></trkpt><trkpt lat="43.6471783" lon="11.0811567"><ele>204.0</ele><time>2026-03-22T15:42:43.01Z</time></trkpt><trkpt lat="43.6472917" lon="11.0814"><ele>204.0</ele><time>2026-03-22T15:42:44.01Z</time></trkpt><trkpt lat="43.647375" lon="11.08166"><ele>204.0</ele><time>2026-03-22T15:42:45.01Z</time></trkpt><trkpt lat="43.6474417" lon="11.081925"><ele>206.33333333333331</ele><time>2026-03-22T15:42:46.01Z</time></trkpt><trkpt lat="43.6474933" lon="11.0821867"><ele>208.66666666666666</ele><time>2026-03-22T15:42:47.011Z</time></trkpt><trkpt lat="43.6475467" lon="11.0824433"><ele>211.0</ele><time>2026-03-22T15:42:48.01Z</time></trkpt><trkpt lat="43.6476083" lon="11.0826967"><ele>211.0</ele><time>2026-03-22T15:42:49.01Z</time></trkpt><trkpt lat="43.6476767" lon="11.0829483"><ele>211.0</ele><time>2026-03-22T15:42:50.01Z</time></trkpt><trkpt lat="43.6477517" lon="11.0832017"><ele>211.0</ele><time>2026-03-22T15:42:51.009Z</time></trkpt><trkpt lat="43.6478283" lon="11.0834517"><ele>208.33333333333331</ele><time>2026-03-22T15:42:52.009Z</time></trkpt><trkpt lat="43.6479083" lon="11.0836983"><ele>205.66666666666669</ele><time>2026-03-22T15:42:53.009Z</time></trkpt><trkpt lat="43.6479867" lon="11.0839417"><ele>203.0</ele><time>2026-03-22T15:42:54.01Z</time></trkpt><trkpt lat="43.64806" lon="11.084185"><ele>203.0</ele><time>2026-03-22T15:42:55.009Z</time></trkpt><trkpt lat="43.64813" lon="11.08442"><ele>203.0</ele><time>2026-03-22T15:42:56.01Z</time></trkpt><trkpt lat="43.6481983" lon="11.08465"><ele>203.0</ele><time>2026-03-22T15:42:57.01Z</time></trkpt><trkpt lat="43.6482667" lon="11.0848667"><ele>203.0</ele><time>2026-03-22T15:42:58.01Z</time></trkpt><trkpt lat="43.6483267" lon="11.0850733"><ele>203.0</ele><time>2026-03-22T15:42:59.01Z</time></trkpt><trkpt lat="43.6483917" lon="11.0852733"><ele>203.0</ele><time>2026-03-22T15:43:00.009Z</time></trkpt><trkpt lat="43.6484633" lon="11.0854583"><ele>203.0</ele><time>2026-03-22T15:43:01.009Z</time></trkpt><trkpt lat="43.6485517" lon="11.08562"><ele>203.0</ele><time>2026-03-22T15:43:02.01Z</time></trkpt><trkpt lat="43.6486533" lon="11.0857433"><ele>203.0</ele><time>2026-03-22T15:43:03.008Z</time></trkpt><trkpt lat="43.6487783" lon="11.0858333"><ele>203.0</ele><time>2026-03-22T15:43:04.01Z</time></trkpt><trkpt lat="43.6489117" lon="11.0858867"><ele>202.75</ele><time>2026-03-22T15:43:05.009Z</time></trkpt><trkpt lat="43.6490383" lon="11.0858817"><ele>202.5</ele><time>2026-03-22T15:43:06.01Z</time></trkpt><trkpt lat="43.6491467" lon="11.085815"><ele>202.25</ele><time>2026-03-22T15:43:07.011Z</time></trkpt><trkpt lat="43.649235" lon="11.0857017"><ele>202.0</ele><time>2026-03-22T15:43:08.01Z</time></trkpt><trkpt lat="43.6493033" lon="11.0855333"><ele>202.0</ele><time>2026-03-22T15:43:09.009Z</time></trkpt><trkpt lat="43.6493667" lon="11.0853317"><ele>202.0</ele><time>2026-03-22T15:43:10.01Z</time></trkpt><trkpt lat="43.649435" lon="11.0851533"><ele>202.0</ele><time>2026-03-22T15:43:11.01Z</time></trkpt><trkpt lat="43.6495283" lon="11.0850067"><ele>202.0</ele><time>2026-03-22T15:43:12.01Z</time></trkpt><trkpt lat="43.6496583" lon="11.0848917"><ele>197.66666666666666</ele><time>2026-03-22T15:43:13.009Z</time></trkpt><trkpt lat="43.6498133" lon="11.08481"><ele>193.33333333333331</ele><time>2026-03-22T15:43:14.012Z</time></trkpt><trkpt lat="43.6499783" lon="11.0847583"><ele>189.0</ele><time>2026-03-22T15:43:15.01Z</time></trkpt><trkpt lat="43.6501417" lon="11.0847167"><ele>186.33333333333334</ele><time>2026-03-22T15:43:16.01Z</time></trkpt><trkpt lat="43.6503133" lon="11.0846983"><ele>183.66666666666669</ele><time>2026-03-22T15:43:17.009Z</time></trkpt><trkpt lat="43.65049" lon="11.0847067"><ele>181.0</ele><time>2026-03-22T15:43:18.008Z</time></trkpt><trkpt lat="43.6506633" lon="11.0847167"><ele>181.0</ele><time>2026-03-22T15:43:19.01Z</time></trkpt><trkpt lat="43.6508317" lon="11.084725"><ele>181.0</ele><time>2026-03-22T15:43:20.01Z</time></trkpt><trkpt lat="43.650985" lon="11.0847433"><ele>181.0</ele><time>2026-03-22T15:43:21.01Z</time></trkpt><trkpt lat="43.6511167" lon="11.0847883"><ele>179.0</ele><time>2026-03-22T15:43:22.01Z</time></trkpt><trkpt lat="43.6512217" lon="11.084865"><ele>177.0</ele><time>2026-03-22T15:43:23.01Z</time></trkpt><trkpt lat="43.651295" lon="11.0849717"><ele>175.0</ele><time>2026-03-22T15:43:24.01Z</time></trkpt><trkpt lat="43.6513317" lon="11.0851"><ele>173.0</ele><time>2026-03-22T15:43:25.01Z</time></trkpt><trkpt lat="43.6513317" lon="11.08524"><ele>171.0</ele><time>2026-03-22T15:43:26.01Z</time></trkpt><trkpt lat="43.651315" lon="11.0853767"><ele>171.0</ele><time>2026-03-22T15:43:27.01Z</time></trkpt><trkpt lat="43.6513217" lon="11.0855117"><ele>171.0</ele><time>2026-03-22T15:43:28.01Z</time></trkpt><trkpt lat="43.6513583" lon="11.08563"><ele>171.0</ele><time>2026-03-22T15:43:29.01Z</time></trkpt><trkpt lat="43.6514167" lon="11.0857167"><ele>171.0</ele><time>2026-03-22T15:43:30.01Z</time></trkpt><trkpt lat="43.651495" lon="11.0857033"><ele>171.0</ele><time>2026-03-22T15:43:31.01Z</time></trkpt><trkpt lat="43.6515783" lon="11.08564"><ele>171.0</ele><time>2026-03-22T15:43:32.011Z</time></trkpt><trkpt lat="43.65167" lon="11.0855233"><ele>171.0</ele><time>2026-03-22T15:43:33.009Z</time></trkpt><trkpt lat="43.6517767" lon="11.0853733"><ele>171.0</ele><time>2026-03-22T15:43:34.01Z</time></trkpt><trkpt lat="43.6518917" lon="11.08522"><ele>171.0</ele><time>2026-03-22T15:43:35.009Z</time></trkpt><trkpt lat="43.6520283" lon="11.0850817"><ele>167.66666666666666</ele><time>2026-03-22T15:43:36.01Z</time></trkpt><trkpt lat="43.6521817" lon="11.0849633"><ele>164.33333333333331</ele><time>2026-03-22T15:43:37.01Z</time></trkpt><trkpt lat="43.6523433" lon="11.084875"><ele>161.0</ele><time>2026-03-22T15:43:38.01Z</time></trkpt><trkpt lat="43.652505" lon="11.0848"><ele>160.0</ele><time>2026-03-22T15:43:39.01Z</time></trkpt><trkpt lat="43.65266" lon="11.0847267"><ele>159.0</ele><time>2026-03-22T15:43:40.01Z</time></trkpt><trkpt lat="43.6528017" lon="11.084655"><ele>158.0</ele><time>2026-03-22T15:43:41.01Z</time></trkpt><trkpt lat="43.6529317" lon="11.0846017"><ele>156.0</ele><time>2026-03-22T15:43:42.009Z</time></trkpt><trkpt lat="43.6530583" lon="11.08459"><ele>154.0</ele><time>2026-03-22T15:43:43.01Z</time></trkpt><trkpt lat="43.6531767" lon="11.0846267"><ele>152.0</ele><time>2026-03-22T15:43:44.01Z</time></trkpt><trkpt lat="43.65328" lon="11.0847167"><ele>150.0</ele><time>2026-03-22T15:43:45.009Z</time></trkpt><trkpt lat="43.6533583" lon="11.0848517"><ele>151.0</ele><time>2026-03-22T15:43:46.01Z</time></trkpt><trkpt lat="43.6534067" lon="11.08502"><ele>152.0</ele><time>2026-03-22T15:43:47.01Z</time></trkpt><trkpt lat="43.6534133" lon="11.085195"><ele>153.0</ele><time>2026-03-22T15:43:48.01Z</time></trkpt><trkpt lat="43.6533867" lon="11.08536"><ele>154.0</ele><time>2026-03-22T15:43:49.009Z</time></trkpt><trkpt lat="43.6533167" lon="11.0854967"><ele>154.0</ele><time>2026-03-22T15:43:50.01Z</time></trkpt><trkpt lat="43.6532067" lon="11.0856"><ele>154.0</ele><time>2026-03-22T15:43:51.009Z</time></trkpt><trkpt lat="43.6530683" lon="11.0856833"><ele>154.0</ele><time>2026-03-22T15:43:52.01Z</time></trkpt><trkpt lat="43.6529267" lon="11.0857767"><ele>154.0</ele><time>2026-03-22T15:43:53.008Z</time></trkpt><trkpt lat="43.6527917" lon="11.08587"><ele>154.75</ele><time>2026-03-22T15:43:54.01Z</time></trkpt><trkpt lat="43.65268" lon="11.0859767"><ele>155.5</ele><time>2026-03-22T15:43:55.009Z</time></trkpt><trkpt lat="43.6525883" lon="11.0861067"><ele>156.25</ele><time>2026-03-22T15:43:56.009Z</time></trkpt><trkpt lat="43.6525317" lon="11.08628"><ele>157.0</ele><time>2026-03-22T15:43:57.009Z</time></trkpt><trkpt lat="43.6525033" lon="11.0864767"><ele>154.75</ele><time>2026-03-22T15:43:58.01Z</time></trkpt><trkpt lat="43.6524917" lon="11.0866683"><ele>152.5</ele><time>2026-03-22T15:43:59.009Z</time></trkpt><trkpt lat="43.65247" lon="11.0868483"><ele>150.25</ele><time>2026-03-22T15:44:00.01Z</time></trkpt><trkpt lat="43.65242" lon="11.0870067"><ele>148.0</ele><time>2026-03-22T15:44:01.01Z</time></trkpt><trkpt lat="43.6523367" lon="11.0871383"><ele>148.0</ele><time>2026-03-22T15:44:02.01Z</time></trkpt><trkpt lat="43.652225" lon="11.0872367"><ele>148.0</ele><time>2026-03-22T15:44:03.008Z</time></trkpt><trkpt lat="43.6521" lon="11.0873117"><ele>148.0</ele><time>2026-03-22T15:44:04.009Z</time></trkpt><trkpt lat="43.6519867" lon="11.0873883"><ele>148.0</ele><time>2026-03-22T15:44:05.009Z</time></trkpt><trkpt lat="43.6519" lon="11.0875017"><ele>148.0</ele><time>2026-03-22T15:44:06.009Z</time></trkpt><trkpt lat="43.6518533" lon="11.0876433"><ele>148.0</ele><time>2026-03-22T15:44:07.009Z</time></trkpt><trkpt lat="43.651845" lon="11.0877883"><ele>148.0</ele><time>2026-03-22T15:44:08.01Z</time></trkpt><trkpt lat="43.65187" lon="11.0879167"><ele>148.0</ele><time>2026-03-22T15:44:09.008Z</time></trkpt><trkpt lat="43.6519117" lon="11.08802"><ele>148.0</ele><time>2026-03-22T15:44:10.01Z</time></trkpt><trkpt lat="43.6520033" lon="11.08809"><ele>144.66666666666669</ele><time>2026-03-22T15:44:11.01Z</time></trkpt><trkpt lat="43.6521333" lon="11.0880833"><ele>141.33333333333334</ele><time>2026-03-22T15:44:12.01Z</time></trkpt><trkpt lat="43.652285" lon="11.0880417"><ele>138.0</ele><time>2026-03-22T15:44:13.009Z</time></trkpt><trkpt lat="43.6524517" lon="11.0879733"><ele>138.0</ele><time>2026-03-22T15:44:14.011Z</time></trkpt><trkpt lat="43.6526167" lon="11.08789"><ele>138.0</ele><time>2026-03-22T15:44:15.011Z</time></trkpt><trkpt lat="43.6527767" lon="11.08779"><ele>138.0</ele><time>2026-03-22T15:44:16.01Z</time></trkpt><trkpt lat="43.6529267" lon="11.0876783"><ele>137.33333333333334</ele><time>2026-03-22T15:44:17.01Z</time></trkpt><trkpt lat="43.6530717" lon="11.0875633"><ele>136.66666666666669</ele><time>2026-03-22T15:44:18.009Z</time></trkpt><trkpt lat="43.6532167" lon="11.0874433"><ele>136.0</ele><time>2026-03-22T15:44:19.009Z</time></trkpt><trkpt lat="43.6533683" lon="11.08732"><ele>136.0</ele><time>2026-03-22T15:44:20.01Z</time></trkpt><trkpt lat="43.6535317" lon="11.0872033"><ele>136.0</ele><time>2026-03-22T15:44:21.009Z</time></trkpt><trkpt lat="43.6537" lon="11.08708"><ele>136.0</ele><time>2026-03-22T15:44:22.01Z</time></trkpt><trkpt lat="43.6538683" lon="11.0869567"><ele>135.66666666666669</ele><time>2026-03-22T15:44:23.009Z</time></trkpt><trkpt lat="43.6540467" lon="11.08683"><ele>135.33333333333334</ele><time>2026-03-22T15:44:24.011Z</time></trkpt><trkpt lat="43.6542233" lon="11.0866967"><ele>135.0</ele><time>2026-03-22T15:44:25.009Z</time></trkpt><trkpt lat="43.6543983" lon="11.086565"><ele>129.66666666666666</ele><time>2026-03-22T15:44:26.01Z</time></trkpt><trkpt lat="43.654565" lon="11.0864383"><ele>124.33333333333333</ele><time>2026-03-22T15:44:27.01Z</time></trkpt><trkpt lat="43.65473" lon="11.0863067"><ele>119.0</ele><time>2026-03-22T15:44:28.009Z</time></trkpt><trkpt lat="43.654885" lon="11.0861567"><ele>119.0</ele><time>2026-03-22T15:44:29.009Z</time></trkpt><trkpt lat="43.655035" lon="11.0859967"><ele>119.0</ele><time>2026-03-22T15:44:30.01Z</time></trkpt><trkpt lat="43.65518" lon="11.08583"><ele>119.0</ele><time>2026-03-22T15:44:31.01Z</time></trkpt><trkpt lat="43.65532" lon="11.085655"><ele>115.66666666666666</ele><time>2026-03-22T15:44:32.01Z</time></trkpt><trkpt lat="43.6554567" lon="11.08547"><ele>112.33333333333334</ele><time>2026-03-22T15:44:33.01Z</time></trkpt><trkpt lat="43.65557" lon="11.0852717"><ele>109.0</ele><time>2026-03-22T15:44:34.009Z</time></trkpt><trkpt lat="43.6556517" lon="11.0850667"><ele>109.0</ele><time>2026-03-22T15:44:35.01Z</time></trkpt><trkpt lat="43.6557333" lon="11.0848667"><ele>109.0</ele><time>2026-03-22T15:44:36.009Z</time></trkpt><trkpt lat="43.6558183" lon="11.0846867"><ele>109.0</ele><time>2026-03-22T15:44:37.009Z</time></trkpt><trkpt lat="43.6559267" lon="11.084525"><ele>109.0</ele><time>2026-03-22T15:44:38.01Z</time></trkpt><trkpt lat="43.6560517" lon="11.0843883"><ele>109.0</ele><time>2026-03-22T15:44:39.01Z</time></trkpt><trkpt lat="43.6561833" lon="11.0842683"><ele>109.0</ele><time>2026-03-22T15:44:40.01Z</time></trkpt><trkpt lat="43.6563217" lon="11.08417"><ele>108.0</ele><time>2026-03-22T15:44:41.01Z</time></trkpt><trkpt lat="43.65646" lon="11.0840867"><ele>107.0</ele><time>2026-03-22T15:44:42.01Z</time></trkpt><trkpt lat="43.6565983" lon="11.08401"><ele>106.0</ele><time>2026-03-22T15:44:43.01Z</time></trkpt><trkpt lat="43.6567433" lon="11.0839417"><ele>106.0</ele><time>2026-03-22T15:44:44.01Z</time></trkpt><trkpt lat="43.6568883" lon="11.0838817"><ele>106.0</ele><time>2026-03-22T15:44:45.009Z</time></trkpt><trkpt lat="43.6570383" lon="11.0838367"><ele>106.0</ele><time>2026-03-22T15:44:46.01Z</time></trkpt><trkpt lat="43.6571917" lon="11.0838083"><ele>105.33333333333334</ele><time>2026-03-22T15:44:47.01Z</time></trkpt><trkpt lat="43.6573483" lon="11.0837883"><ele>104.66666666666666</ele><time>2026-03-22T15:44:48.009Z</time></trkpt><trkpt lat="43.6575083" lon="11.083785"><ele>104.0</ele><time>2026-03-22T15:44:49.01Z</time></trkpt><trkpt lat="43.6576683" lon="11.0837967"><ele>103.33333333333333</ele><time>2026-03-22T15:44:50.01Z</time></trkpt><trkpt lat="43.6578283" lon="11.083815"><ele>102.66666666666666</ele><time>2026-03-22T15:44:51.009Z</time></trkpt><trkpt lat="43.6579883" lon="11.08384"><ele>102.0</ele><time>2026-03-22T15:44:52.009Z</time></trkpt><trkpt lat="43.658145" lon="11.0838683"><ele>102.0</ele><time>2026-03-22T15:44:53.009Z</time></trkpt><trkpt lat="43.6583017" lon="11.0838967"><ele>102.0</ele><time>2026-03-22T15:44:54.009Z</time></trkpt><trkpt lat="43.6584567" lon="11.0839233"><ele>102.0</ele><time>2026-03-22T15:44:55.009Z</time></trkpt><trkpt lat="43.6586083" lon="11.083955"><ele>101.5</ele><time>2026-03-22T15:44:56.01Z</time></trkpt><trkpt lat="43.6587533" lon="11.08399"><ele>101.0</ele><time>2026-03-22T15:44:57.01Z</time></trkpt><trkpt lat="43.658895" lon="11.084025"><ele>100.5</ele><time>2026-03-22T15:44:58.011Z</time></trkpt><trkpt lat="43.6590317" lon="11.0840567"><ele>100.0</ele><time>2026-03-22T15:44:59.009Z</time></trkpt><trkpt lat="43.6591583" lon="11.0840883"><ele>100.0</ele><time>2026-03-22T15:45:00.012Z</time></trkpt><trkpt lat="43.659275" lon="11.0841167"><ele>100.0</ele><time>2026-03-22T15:45:01.01Z</time></trkpt><trkpt lat="43.6593833" lon="11.084145"><ele>100.0</ele><time>2026-03-22T15:45:02.01Z</time></trkpt><trkpt lat="43.6594867" lon="11.0841733"><ele>100.0</ele><time>2026-03-22T15:45:03.011Z</time></trkpt><trkpt lat="43.6595933" lon="11.0842017"><ele>100.0</ele><time>2026-03-22T15:45:04.009Z</time></trkpt><trkpt lat="43.6597067" lon="11.0842333"><ele>99.75</ele><time>2026-03-22T15:45:05.009Z</time></trkpt><trkpt lat="43.65982" lon="11.0842617"><ele>99.5</ele><time>2026-03-22T15:45:06.009Z</time></trkpt><trkpt lat="43.6599367" lon="11.084285"><ele>99.25</ele><time>2026-03-22T15:45:07.01Z</time></trkpt><trkpt lat="43.6600567" lon="11.084305"><ele>99.0</ele><time>2026-03-22T15:45:08.01Z</time></trkpt><trkpt lat="43.6601783" lon="11.084325"><ele>98.6</ele><time>2026-03-22T15:45:09.009Z</time></trkpt><trkpt lat="43.6602983" lon="11.0843433"><ele>98.2</ele><time>2026-03-22T15:45:10.01Z</time></trkpt><trkpt lat="43.6604133" lon="11.0843467"><ele>97.8</ele><time>2026-03-22T15:45:11.01Z</time></trkpt><trkpt lat="43.6605183" lon="11.0843483"><ele>97.39999999999999</ele><time>2026-03-22T15:45:12.012Z</time></trkpt><trkpt lat="43.660615" lon="11.0843567"><ele>97.0</ele><time>2026-03-22T15:45:13.009Z</time></trkpt><trkpt lat="43.6607033" lon="11.084395"><ele>97.0</ele><time>2026-03-22T15:45:14.01Z</time></trkpt><trkpt lat="43.6607817" lon="11.0844567"><ele>97.0</ele><time>2026-03-22T15:45:15.01Z</time></trkpt><trkpt lat="43.6608367" lon="11.0845683"><ele>97.0</ele><time>2026-03-22T15:45:16.012Z</time></trkpt><trkpt lat="43.66088" lon="11.0846917"><ele>97.0</ele><time>2026-03-22T15:45:17.012Z</time></trkpt><trkpt lat="43.660925" lon="11.0848067"><ele>97.0</ele><time>2026-03-22T15:45:18.01Z</time></trkpt><trkpt lat="43.66099" lon="11.084885"><ele>97.8</ele><time>2026-03-22T15:45:19.01Z</time></trkpt><trkpt lat="43.661065" lon="11.08493"><ele>98.6</ele><time>2026-03-22T15:45:20.01Z</time></trkpt><trkpt lat="43.6611533" lon="11.0848917"><ele>99.39999999999999</ele><time>2026-03-22T15:45:21.011Z</time></trkpt><trkpt lat="43.661235" lon="11.084835"><ele>100.19999999999999</ele><time>2026-03-22T15:45:22.009Z</time></trkpt><trkpt lat="43.6613167" lon="11.0847333"><ele>101.0</ele><time>2026-03-22T15:45:23.01Z</time></trkpt><trkpt lat="43.661415" lon="11.0846617"><ele>101.0</ele><time>2026-03-22T15:45:24.011Z</time></trkpt><trkpt lat="43.66153" lon="11.0845983"><ele>101.0</ele><time>2026-03-22T15:45:25.009Z</time></trkpt><trkpt lat="43.661665" lon="11.084565"><ele>101.0</ele><time>2026-03-22T15:45:26.012Z</time></trkpt><trkpt lat="43.6618283" lon="11.0845367"><ele>101.0</ele><time>2026-03-22T15:45:27.012Z</time></trkpt><trkpt lat="43.6620117" lon="11.0845167"><ele>100.66666666666666</ele><time>2026-03-22T15:45:28.009Z</time></trkpt><trkpt lat="43.6622033" lon="11.08452"><ele>100.33333333333334</ele><time>2026-03-22T15:45:29.009Z</time></trkpt><trkpt lat="43.6623933" lon="11.0845333"><ele>100.0</ele><time>2026-03-22T15:45:30.009Z</time></trkpt><trkpt lat="43.66257" lon="11.084545"><ele>100.0</ele><time>2026-03-22T15:45:31.009Z</time></trkpt><trkpt lat="43.6627283" lon="11.0845683"><ele>100.0</ele><time>2026-03-22T15:45:32.009Z</time></trkpt><trkpt lat="43.6628783" lon="11.0845983"><ele>100.0</ele><time>2026-03-22T15:45:33.009Z</time></trkpt><trkpt lat="43.6630233" lon="11.0846383"><ele>99.0</ele><time>2026-03-22T15:45:34.01Z</time></trkpt><trkpt lat="43.6631733" lon="11.0846833"><ele>98.0</ele><time>2026-03-22T15:45:35.011Z</time></trkpt><trkpt lat="43.66332" lon="11.08473"><ele>97.0</ele><time>2026-03-22T15:45:36.009Z</time></trkpt><trkpt lat="43.663465" lon="11.08479"><ele>97.0</ele><time>2026-03-22T15:45:37.009Z</time></trkpt><trkpt lat="43.6636" lon="11.0848367"><ele>97.0</ele><time>2026-03-22T15:45:38.01Z</time></trkpt><trkpt lat="43.663725" lon="11.0848733"><ele>97.0</ele><time>2026-03-22T15:45:39.011Z</time></trkpt><trkpt lat="43.6638433" lon="11.0848867"><ele>97.0</ele><time>2026-03-22T15:45:40.011Z</time></trkpt><trkpt lat="43.6639567" lon="11.0848633"><ele>97.8</ele><time>2026-03-22T15:45:41.01Z</time></trkpt><trkpt lat="43.6640633" lon="11.0848133"><ele>98.6</ele><time>2026-03-22T15:45:42.01Z</time></trkpt><trkpt lat="43.664165" lon="11.0847633"><ele>99.39999999999999</ele><time>2026-03-22T15:45:43.01Z</time></trkpt><trkpt lat="43.6642633" lon="11.0847083"><ele>100.19999999999999</ele><time>2026-03-22T15:45:44.01Z</time></trkpt><trkpt lat="43.6643567" lon="11.08465"><ele>101.0</ele><time>2026-03-22T15:45:45.01Z</time></trkpt><trkpt lat="43.6644533" lon="11.08459"><ele>102.0</ele><time>2026-03-22T15:45:46.009Z</time></trkpt><trkpt lat="43.664555" lon="11.0845233"><ele>103.0</ele><time>2026-03-22T15:45:47.01Z</time></trkpt><trkpt lat="43.664645" lon="11.0844383"><ele>104.0</ele><time>2026-03-22T15:45:48.011Z</time></trkpt><trkpt lat="43.664735" lon="11.0843567"><ele>105.0</ele><time>2026-03-22T15:45:49.009Z</time></trkpt><trkpt lat="43.6648317" lon="11.0842817"><ele>106.0</ele><time>2026-03-22T15:45:50.01Z</time></trkpt><trkpt lat="43.664915" lon="11.0842017"><ele>106.0</ele><time>2026-03-22T15:45:51.01Z</time></trkpt><trkpt lat="43.664995" lon="11.0841283"><ele>106.0</ele><time>2026-03-22T15:45:52.01Z</time></trkpt><trkpt lat="43.6650617" lon="11.08404"><ele>106.0</ele><time>2026-03-22T15:45:53.009Z</time></trkpt><trkpt lat="43.6651333" lon="11.0839533"><ele>106.0</ele><time>2026-03-22T15:45:54.009Z</time></trkpt><trkpt lat="43.6652" lon="11.0838583"><ele>106.0</ele><time>2026-03-22T15:45:55.01Z</time></trkpt><trkpt lat="43.6652683" lon="11.08376"><ele>108.5</ele><time>2026-03-22T15:45:56.01Z</time></trkpt><trkpt lat="43.66535" lon="11.08366"><ele>111.0</ele><time>2026-03-22T15:45:57.01Z</time></trkpt><trkpt lat="43.66543" lon="11.083555"><ele>113.5</ele><time>2026-03-22T15:45:58.009Z</time></trkpt><trkpt lat="43.6655267" lon="11.083455"><ele>116.0</ele><time>2026-03-22T15:45:59.009Z</time></trkpt><trkpt lat="43.665625" lon="11.083355"><ele>114.5</ele><time>2026-03-22T15:46:00.009Z</time></trkpt><trkpt lat="43.665725" lon="11.0832467"><ele>113.0</ele><time>2026-03-22T15:46:01.009Z</time></trkpt><trkpt lat="43.6658333" lon="11.0831417"><ele>111.5</ele><time>2026-03-22T15:46:02.009Z</time></trkpt><trkpt lat="43.6659617" lon="11.08304"><ele>110.0</ele><time>2026-03-22T15:46:03.009Z</time></trkpt><trkpt lat="43.66611" lon="11.0829467"><ele>111.66666666666666</ele><time>2026-03-22T15:46:04.01Z</time></trkpt><trkpt lat="43.6662783" lon="11.0828667"><ele>113.33333333333334</ele><time>2026-03-22T15:46:05.01Z</time></trkpt><trkpt lat="43.6664583" lon="11.08279"><ele>115.0</ele><time>2026-03-22T15:46:06.01Z</time></trkpt><trkpt lat="43.6666417" lon="11.0827167"><ele>115.0</ele><time>2026-03-22T15:46:07.009Z</time></trkpt><trkpt lat="43.6668167" lon="11.0826417"><ele>115.0</ele><time>2026-03-22T15:46:08.01Z</time></trkpt><trkpt lat="43.66698" lon="11.082565"><ele>115.0</ele><time>2026-03-22T15:46:09.009Z</time></trkpt><trkpt lat="43.66713" lon="11.0824983"><ele>115.25</ele><time>2026-03-22T15:46:10.01Z</time></trkpt><trkpt lat="43.6672717" lon="11.0824367"><ele>115.5</ele><time>2026-03-22T15:46:11.008Z</time></trkpt><trkpt lat="43.6674033" lon="11.0823783"><ele>115.75</ele><time>2026-03-22T15:46:12.009Z</time></trkpt><trkpt lat="43.6675233" lon="11.082325"><ele>116.0</ele><time>2026-03-22T15:46:13.008Z</time></trkpt><trkpt lat="43.667635" lon="11.082285"><ele>116.0</ele><time>2026-03-22T15:46:14.01Z</time></trkpt><trkpt lat="43.6677417" lon="11.0822867"><ele>116.0</ele><time>2026-03-22T15:46:15.01Z</time></trkpt><trkpt lat="43.6678383" lon="11.08234"><ele>116.0</ele><time>2026-03-22T15:46:16.01Z</time></trkpt><trkpt lat="43.6679083" lon="11.082445"><ele>116.0</ele><time>2026-03-22T15:46:17.011Z</time></trkpt><trkpt lat="43.6679383" lon="11.0825783"><ele>116.0</ele><time>2026-03-22T15:46:18.011Z</time></trkpt><trkpt lat="43.6679117" lon="11.0827367"><ele>117.5</ele><time>2026-03-22T15:46:19.009Z</time></trkpt><trkpt lat="43.667845" lon="11.0828817"><ele>119.0</ele><time>2026-03-22T15:46:20.01Z</time></trkpt><trkpt lat="43.667745" lon="11.083025"><ele>120.5</ele><time>2026-03-22T15:46:21.01Z</time></trkpt><trkpt lat="43.6676333" lon="11.0831767"><ele>122.0</ele><time>2026-03-22T15:46:22.009Z</time></trkpt><trkpt lat="43.6675233" lon="11.0833417"><ele>125.33333333333333</ele><time>2026-03-22T15:46:23.01Z</time></trkpt><trkpt lat="43.6673967" lon="11.0835283"><ele>128.66666666666666</ele><time>2026-03-22T15:46:24.011Z</time></trkpt><trkpt lat="43.6672417" lon="11.0837433"><ele>132.0</ele><time>2026-03-22T15:46:25.009Z</time></trkpt><trkpt lat="43.66707" lon="11.0839483"><ele>131.66666666666666</ele><time>2026-03-22T15:46:26.01Z</time></trkpt><trkpt lat="43.6669017" lon="11.0841517"><ele>131.33333333333331</ele><time>2026-03-22T15:46:27.009Z</time></trkpt><trkpt lat="43.6667517" lon="11.0843617"><ele>131.0</ele><time>2026-03-22T15:46:28.009Z</time></trkpt><trkpt lat="43.6666333" lon="11.0845833"><ele>131.0</ele><time>2026-03-22T15:46:29.01Z</time></trkpt><trkpt lat="43.6665567" lon="11.0848133"><ele>131.0</ele><time>2026-03-22T15:46:30.011Z</time></trkpt><trkpt lat="43.666525" lon="11.0850533"><ele>131.0</ele><time>2026-03-22T15:46:31.009Z</time></trkpt><trkpt lat="43.6665417" lon="11.08531"><ele>135.0</ele><time>2026-03-22T15:46:32.01Z</time></trkpt><trkpt lat="43.666615" lon="11.0855933"><ele>139.0</ele><time>2026-03-22T15:46:33.01Z</time></trkpt><trkpt lat="43.6667317" lon="11.085905"><ele>139.0</ele><time>2026-03-22T15:46:34.008Z</time></trkpt><trkpt lat="43.6668133" lon="11.0862233"><ele>139.0</ele><time>2026-03-22T15:46:35.01Z</time></trkpt><trkpt lat="43.66689" lon="11.0865117"><ele>145.0</ele><time>2026-03-22T15:46:36.009Z</time></trkpt><trkpt lat="43.66698" lon="11.08677"><ele>151.0</ele><time>2026-03-22T15:46:37.01Z</time></trkpt><trkpt lat="43.66711" lon="11.0870017"><ele>157.0</ele><time>2026-03-22T15:46:38.01Z</time></trkpt><trkpt lat="43.6672767" lon="11.087225"><ele>151.5</ele><time>2026-03-22T15:46:39.008Z</time></trkpt><trkpt lat="43.6674833" lon="11.0874517"><ele>146.0</ele><time>2026-03-22T15:46:40.009Z</time></trkpt><trkpt lat="43.667695" lon="11.0876983"><ele>155.5</ele><time>2026-03-22T15:46:41.009Z</time></trkpt><trkpt lat="43.6679" lon="11.0879567"><ele>165.0</ele><time>2026-03-22T15:46:42.009Z</time></trkpt><trkpt lat="43.6680683" lon="11.0882133"><ele>162.0</ele><time>2026-03-22T15:46:43.007Z</time></trkpt><trkpt lat="43.66822" lon="11.0884567"><ele>159.0</ele><time>2026-03-22T15:46:44.009Z</time></trkpt><trkpt lat="43.668375" lon="11.0886867"><ele>159.0</ele><time>2026-03-22T15:46:45.009Z</time></trkpt><trkpt lat="43.668545" lon="11.0889083"><ele>159.0</ele><time>2026-03-22T15:46:46.01Z</time></trkpt><trkpt lat="43.6687417" lon="11.0891067"><ele>162.5</ele><time>2026-03-22T15:46:47.01Z</time></trkpt><trkpt lat="43.6689383" lon="11.0893033"><ele>166.0</ele><time>2026-03-22T15:46:48.01Z</time></trkpt><trkpt lat="43.66912" lon="11.089495"><ele>166.0</ele><time>2026-03-22T15:46:49.01Z</time></trkpt><trkpt lat="43.6692833" lon="11.0896967"><ele>166.0</ele><time>2026-03-22T15:46:50.01Z</time></trkpt><trkpt lat="43.6694283" lon="11.0899117"><ele>166.0</ele><time>2026-03-22T15:46:51.009Z</time></trkpt><trkpt lat="43.66955" lon="11.0901367"><ele>170.0</ele><time>2026-03-22T15:46:52.01Z</time></trkpt><trkpt lat="43.66965" lon="11.0903533"><ele>174.0</ele><time>2026-03-22T15:46:53.01Z</time></trkpt><trkpt lat="43.669745" lon="11.0905517"><ele>178.0</ele><time>2026-03-22T15:46:54.009Z</time></trkpt><trkpt lat="43.669835" lon="11.09071"><ele>178.25</ele><time>2026-03-22T15:46:55.009Z</time></trkpt><trkpt lat="43.6699433" lon="11.0908333"><ele>178.5</ele><time>2026-03-22T15:46:56.01Z</time></trkpt><trkpt lat="43.670075" lon="11.090905"><ele>178.75</ele><time>2026-03-22T15:46:57.01Z</time></trkpt><trkpt lat="43.67022" lon="11.0909483"><ele>179.0</ele><time>2026-03-22T15:46:58.011Z</time></trkpt><trkpt lat="43.67037" lon="11.0910167"><ele>179.0</ele><time>2026-03-22T15:46:59.009Z</time></trkpt><trkpt lat="43.670495" lon="11.09111"><ele>179.0</ele><time>2026-03-22T15:47:00.011Z</time></trkpt><trkpt lat="43.6705917" lon="11.0912317"><ele>179.0</ele><time>2026-03-22T15:47:01.009Z</time></trkpt><trkpt lat="43.6706767" lon="11.0913867"><ele>179.0</ele><time>2026-03-22T15:47:02.01Z</time></trkpt><trkpt lat="43.67077" lon="11.0915867"><ele>178.66666666666666</ele><time>2026-03-22T15:47:03.01Z</time></trkpt><trkpt lat="43.670855" lon="11.0918067"><ele>178.33333333333334</ele><time>2026-03-22T15:47:04.01Z</time></trkpt><trkpt lat="43.6709267" lon="11.0920367"><ele>178.0</ele><time>2026-03-22T15:47:05.011Z</time></trkpt><trkpt lat="43.6709833" lon="11.092245"><ele>178.33333333333334</ele><time>2026-03-22T15:47:06.011Z</time></trkpt><trkpt lat="43.67102" lon="11.0924533"><ele>178.66666666666666</ele><time>2026-03-22T15:47:07.01Z</time></trkpt><trkpt lat="43.6710383" lon="11.092665"><ele>179.0</ele><time>2026-03-22T15:47:08.009Z</time></trkpt><trkpt lat="43.6710333" lon="11.0929133"><ele>179.0</ele><time>2026-03-22T15:47:09.01Z</time></trkpt><trkpt lat="43.6710017" lon="11.0931733"><ele>179.0</ele><time>2026-03-22T15:47:10.011Z</time></trkpt><trkpt lat="43.6709483" lon="11.0934467"><ele>179.0</ele><time>2026-03-22T15:47:11.012Z</time></trkpt><trkpt lat="43.6708683" lon="11.093735"><ele>180.0</ele><time>2026-03-22T15:47:12.011Z</time></trkpt><trkpt lat="43.67079" lon="11.0940233"><ele>181.0</ele><time>2026-03-22T15:47:13.01Z</time></trkpt><trkpt lat="43.6707" lon="11.0942883"><ele>182.0</ele><time>2026-03-22T15:47:14.011Z</time></trkpt><trkpt lat="43.6705983" lon="11.0945233"><ele>185.0</ele><time>2026-03-22T15:47:15.011Z</time></trkpt><trkpt lat="43.6704933" lon="11.0947167"><ele>188.0</ele><time>2026-03-22T15:47:16.011Z</time></trkpt><trkpt lat="43.6704067" lon="11.0948967"><ele>191.0</ele><time>2026-03-22T15:47:17.01Z</time></trkpt><trkpt lat="43.6703367" lon="11.0950867"><ele>193.66666666666666</ele><time>2026-03-22T15:47:18.01Z</time></trkpt><trkpt lat="43.670315" lon="11.0952883"><ele>196.33333333333331</ele><time>2026-03-22T15:47:19.011Z</time></trkpt><trkpt lat="43.67034" lon="11.095495"><ele>199.0</ele><time>2026-03-22T15:47:20.012Z</time></trkpt><trkpt lat="43.6703983" lon="11.095725"><ele>199.33333333333331</ele><time>2026-03-22T15:47:21.01Z</time></trkpt><trkpt lat="43.670445" lon="11.09599"><ele>199.66666666666669</ele><time>2026-03-22T15:47:22.01Z</time></trkpt><trkpt lat="43.6704767" lon="11.09629"><ele>200.0</ele><time>2026-03-22T15:47:23.013Z</time></trkpt><trkpt lat="43.6704783" lon="11.0965883"><ele>200.33333333333334</ele><time>2026-03-22T15:47:24.011Z</time></trkpt><trkpt lat="43.6704533" lon="11.0968567"><ele>200.66666666666669</ele><time>2026-03-22T15:47:25.009Z</time></trkpt><trkpt lat="43.67039" lon="11.097115"><ele>201.0</ele><time>2026-03-22T15:47:26.01Z</time></trkpt><trkpt lat="43.67031" lon="11.0973533"><ele>197.0</ele><time>2026-03-22T15:47:27.011Z</time></trkpt><trkpt lat="43.67024" lon="11.0975733"><ele>193.0</ele><time>2026-03-22T15:47:28.011Z</time></trkpt><trkpt lat="43.6701983" lon="11.09778"><ele>189.0</ele><time>2026-03-22T15:47:29.011Z</time></trkpt><trkpt lat="43.670185" lon="11.0979917"><ele>189.0</ele><time>2026-03-22T15:47:30.009Z</time></trkpt><trkpt lat="43.6702317" lon="11.0982117"><ele>189.0</ele><time>2026-03-22T15:47:31.011Z</time></trkpt><trkpt lat="43.6703233" lon="11.0984383"><ele>189.0</ele><time>2026-03-22T15:47:32.01Z</time></trkpt><trkpt lat="43.670455" lon="11.0986883"><ele>193.33333333333331</ele><time>2026-03-22T15:47:33.012Z</time></trkpt><trkpt lat="43.6705933" lon="11.0989317"><ele>197.66666666666666</ele><time>2026-03-22T15:47:34.01Z</time></trkpt><trkpt lat="43.670745" lon="11.0991517"><ele>202.0</ele><time>2026-03-22T15:47:35.012Z</time></trkpt><trkpt lat="43.670915" lon="11.099345"><ele>202.0</ele><time>2026-03-22T15:47:36.012Z</time></trkpt><trkpt lat="43.67109" lon="11.0995183"><ele>202.0</ele><time>2026-03-22T15:47:37.011Z</time></trkpt><trkpt lat="43.6712583" lon="11.099675"><ele>202.0</ele><time>2026-03-22T15:47:38.011Z</time></trkpt><trkpt lat="43.6714217" lon="11.0998283"><ele>204.33333333333331</ele><time>2026-03-22T15:47:39.012Z</time></trkpt><trkpt lat="43.671575" lon="11.0999933"><ele>206.66666666666669</ele><time>2026-03-22T15:47:40.01Z</time></trkpt><trkpt lat="43.6717167" lon="11.10017"><ele>209.0</ele><time>2026-03-22T15:47:41.01Z</time></trkpt><trkpt lat="43.67183" lon="11.100365"><ele>209.0</ele><time>2026-03-22T15:47:42.008Z</time></trkpt><trkpt lat="43.6719183" lon="11.1005767"><ele>209.0</ele><time>2026-03-22T15:47:43.01Z</time></trkpt><trkpt lat="43.6719817" lon="11.1007967"><ele>209.0</ele><time>2026-03-22T15:47:44.01Z</time></trkpt><trkpt lat="43.6720183" lon="11.10102"><ele>211.33333333333334</ele><time>2026-03-22T15:47:45.01Z</time></trkpt><trkpt lat="43.6720333" lon="11.1012467"><ele>213.66666666666669</ele><time>2026-03-22T15:47:46.01Z</time></trkpt><trkpt lat="43.672035" lon="11.1014717"><ele>216.0</ele><time>2026-03-22T15:47:47.01Z</time></trkpt><trkpt lat="43.6720317" lon="11.1016967"><ele>216.66666666666669</ele><time>2026-03-22T15:47:48.011Z</time></trkpt><trkpt lat="43.6720367" lon="11.1019167"><ele>217.33333333333334</ele><time>2026-03-22T15:47:49.01Z</time></trkpt><trkpt lat="43.672065" lon="11.1021283"><ele>218.0</ele><time>2026-03-22T15:47:50.009Z</time></trkpt><trkpt lat="43.6721183" lon="11.1023333"><ele>218.0</ele><time>2026-03-22T15:47:51.011Z</time></trkpt><trkpt lat="43.6721783" lon="11.10253"><ele>218.0</ele><time>2026-03-22T15:47:52.012Z</time></trkpt><trkpt lat="43.672245" lon="11.1027283"><ele>218.0</ele><time>2026-03-22T15:47:53.01Z</time></trkpt><trkpt lat="43.67231" lon="11.1029233"><ele>218.0</ele><time>2026-03-22T15:47:54.011Z</time></trkpt><trkpt lat="43.6723633" lon="11.1031183"><ele>218.0</ele><time>2026-03-22T15:47:55.01Z</time></trkpt><trkpt lat="43.6724133" lon="11.1033083"><ele>218.0</ele><time>2026-03-22T15:47:56.009Z</time></trkpt><trkpt lat="43.6724467" lon="11.1034867"><ele>218.0</ele><time>2026-03-22T15:47:57.009Z</time></trkpt><trkpt lat="43.67248" lon="11.1036533"><ele>217.60000000000002</ele><time>2026-03-22T15:47:58.01Z</time></trkpt><trkpt lat="43.672515" lon="11.1038017"><ele>217.20000000000002</ele><time>2026-03-22T15:47:59.009Z</time></trkpt><trkpt lat="43.6725383" lon="11.103935"><ele>216.8</ele><time>2026-03-22T15:48:00.01Z</time></trkpt><trkpt lat="43.672565" lon="11.1040633"><ele>216.4</ele><time>2026-03-22T15:48:01.01Z</time></trkpt><trkpt lat="43.6725883" lon="11.1041883"><ele>216.0</ele><time>2026-03-22T15:48:02.01Z</time></trkpt><trkpt lat="43.672615" lon="11.104315"><ele>215.60000000000002</ele><time>2026-03-22T15:48:03.011Z</time></trkpt><trkpt lat="43.6726433" lon="11.104445"><ele>215.20000000000002</ele><time>2026-03-22T15:48:04.009Z</time></trkpt><trkpt lat="43.67267" lon="11.1045833"><ele>214.79999999999998</ele><time>2026-03-22T15:48:05.01Z</time></trkpt><trkpt lat="43.6726967" lon="11.104735"><ele>214.39999999999998</ele><time>2026-03-22T15:48:06.01Z</time></trkpt><trkpt lat="43.6727267" lon="11.104895"><ele>214.0</ele><time>2026-03-22T15:48:07.009Z</time></trkpt><trkpt lat="43.672765" lon="11.1050567"><ele>213.25</ele><time>2026-03-22T15:48:08.011Z</time></trkpt><trkpt lat="43.6728067" lon="11.1052217"><ele>212.5</ele><time>2026-03-22T15:48:09.01Z</time></trkpt><trkpt lat="43.6728483" lon="11.10539"><ele>211.75</ele><time>2026-03-22T15:48:10.009Z</time></trkpt><trkpt lat="43.6728983" lon="11.1055583"><ele>211.0</ele><time>2026-03-22T15:48:11.011Z</time></trkpt><trkpt lat="43.6729567" lon="11.1057267"><ele>212.5</ele><time>2026-03-22T15:48:12.011Z</time></trkpt><trkpt lat="43.673025" lon="11.1058967"><ele>214.0</ele><time>2026-03-22T15:48:13.012Z</time></trkpt><trkpt lat="43.6730917" lon="11.1060667"><ele>215.5</ele><time>2026-03-22T15:48:14.011Z</time></trkpt><trkpt lat="43.67317" lon="11.1062417"><ele>217.0</ele><time>2026-03-22T15:48:15.012Z</time></trkpt><trkpt lat="43.6732617" lon="11.1064133"><ele>218.0</ele><time>2026-03-22T15:48:16.012Z</time></trkpt><trkpt lat="43.6733433" lon="11.1065817"><ele>219.0</ele><time>2026-03-22T15:48:17.012Z</time></trkpt><trkpt lat="43.67342" lon="11.1067533"><ele>220.0</ele><time>2026-03-22T15:48:18.011Z</time></trkpt><trkpt lat="43.6734917" lon="11.10692"><ele>221.0</ele><time>2026-03-22T15:48:19.011Z</time></trkpt><trkpt lat="43.673565" lon="11.1070917"><ele>219.25</ele><time>2026-03-22T15:48:20.011Z</time></trkpt><trkpt lat="43.6736433" lon="11.107265"><ele>217.5</ele><time>2026-03-22T15:48:21.011Z</time></trkpt><trkpt lat="43.6737233" lon="11.1074333"><ele>215.75</ele><time>2026-03-22T15:48:22.011Z</time></trkpt><trkpt lat="43.6738033" lon="11.1076067"><ele>214.0</ele><time>2026-03-22T15:48:23.012Z</time></trkpt><trkpt lat="43.6738867" lon="11.107775"><ele>214.0</ele><time>2026-03-22T15:48:24.011Z</time></trkpt><trkpt lat="43.67397" lon="11.107945"><ele>214.0</ele><time>2026-03-22T15:48:25.011Z</time></trkpt><trkpt lat="43.67406" lon="11.1081183"><ele>214.0</ele><time>2026-03-22T15:48:26.011Z</time></trkpt><trkpt lat="43.674155" lon="11.10829"><ele>214.5</ele><time>2026-03-22T15:48:27.011Z</time></trkpt><trkpt lat="43.67424" lon="11.1084717"><ele>215.0</ele><time>2026-03-22T15:48:28.011Z</time></trkpt><trkpt lat="43.6743383" lon="11.1086333"><ele>215.5</ele><time>2026-03-22T15:48:29.011Z</time></trkpt><trkpt lat="43.6744367" lon="11.10877"><ele>216.0</ele><time>2026-03-22T15:48:30.011Z</time></trkpt><trkpt lat="43.674555" lon="11.1088783"><ele>214.0</ele><time>2026-03-22T15:48:31.011Z</time></trkpt><trkpt lat="43.6746867" lon="11.108975"><ele>212.0</ele><time>2026-03-22T15:48:32.012Z</time></trkpt><trkpt lat="43.6748283" lon="11.1090533"><ele>210.0</ele><time>2026-03-22T15:48:33.011Z</time></trkpt><trkpt lat="43.6749967" lon="11.1091267"><ele>208.33333333333331</ele><time>2026-03-22T15:48:34.011Z</time></trkpt><trkpt lat="43.67515" lon="11.1092183"><ele>206.66666666666666</ele><time>2026-03-22T15:48:35.01Z</time></trkpt><trkpt lat="43.675305" lon="11.10931"><ele>205.0</ele><time>2026-03-22T15:48:36.011Z</time></trkpt><trkpt lat="43.675455" lon="11.10944"><ele>202.33333333333331</ele><time>2026-03-22T15:48:37.008Z</time></trkpt><trkpt lat="43.675595" lon="11.1096067"><ele>199.66666666666669</ele><time>2026-03-22T15:48:38.013Z</time></trkpt><trkpt lat="43.6757367" lon="11.1097917"><ele>197.0</ele><time>2026-03-22T15:48:39.01Z</time></trkpt><trkpt lat="43.6758733" lon="11.1099767"><ele>197.0</ele><time>2026-03-22T15:48:40.01Z</time></trkpt><trkpt lat="43.6760083" lon="11.1101567"><ele>197.0</ele><time>2026-03-22T15:48:41.01Z</time></trkpt><trkpt lat="43.6761433" lon="11.110335"><ele>197.0</ele><time>2026-03-22T15:48:42.01Z</time></trkpt><trkpt lat="43.6762817" lon="11.1105133"><ele>195.0</ele><time>2026-03-22T15:48:43.013Z</time></trkpt><trkpt lat="43.6764217" lon="11.110685"><ele>193.0</ele><time>2026-03-22T15:48:44.01Z</time></trkpt><trkpt lat="43.6765683" lon="11.11084"><ele>191.0</ele><time>2026-03-22T15:48:45.011Z</time></trkpt><trkpt lat="43.6767233" lon="11.1109817"><ele>191.0</ele><time>2026-03-22T15:48:46.01Z</time></trkpt><trkpt lat="43.6768917" lon="11.111105"><ele>191.0</ele><time>2026-03-22T15:48:47.011Z</time></trkpt><trkpt lat="43.677065" lon="11.111205"><ele>191.0</ele><time>2026-03-22T15:48:48.01Z</time></trkpt><trkpt lat="43.6772367" lon="11.1112917"><ele>189.33333333333331</ele><time>2026-03-22T15:48:49.009Z</time></trkpt><trkpt lat="43.6773983" lon="11.1113917"><ele>187.66666666666666</ele><time>2026-03-22T15:48:50.01Z</time></trkpt><trkpt lat="43.67755" lon="11.1115167"><ele>186.0</ele><time>2026-03-22T15:48:51.012Z</time></trkpt><trkpt lat="43.67769" lon="11.1116667"><ele>186.0</ele><time>2026-03-22T15:48:52.01Z</time></trkpt><trkpt lat="43.6778133" lon="11.1118517"><ele>186.0</ele><time>2026-03-22T15:48:53.01Z</time></trkpt><trkpt lat="43.67793" lon="11.1120517"><ele>186.0</ele><time>2026-03-22T15:48:54.009Z</time></trkpt><trkpt lat="43.6780483" lon="11.1122383"><ele>186.0</ele><time>2026-03-22T15:48:55.012Z</time></trkpt><trkpt lat="43.6781833" lon="11.1123967"><ele>186.0</ele><time>2026-03-22T15:48:56.021Z</time></trkpt><trkpt lat="43.6783233" lon="11.112525"><ele>186.0</ele><time>2026-03-22T15:48:57.01Z</time></trkpt><trkpt lat="43.6784583" lon="11.112635"><ele>185.8</ele><time>2026-03-22T15:48:58.011Z</time></trkpt><trkpt lat="43.6785683" lon="11.112735"><ele>185.60000000000002</ele><time>2026-03-22T15:48:59.011Z</time></trkpt><trkpt lat="43.6786533" lon="11.1128383"><ele>185.4</ele><time>2026-03-22T15:49:00.01Z</time></trkpt><trkpt lat="43.6786933" lon="11.1129617"><ele>185.2</ele><time>2026-03-22T15:49:01.01Z</time></trkpt><trkpt lat="43.67867" lon="11.1130933"><ele>185.0</ele><time>2026-03-22T15:49:02.01Z</time></trkpt><trkpt lat="43.6785933" lon="11.113175"><ele>184.25</ele><time>2026-03-22T15:49:03.01Z</time></trkpt><trkpt lat="43.6784867" lon="11.1131883"><ele>183.5</ele><time>2026-03-22T15:49:04.01Z</time></trkpt><trkpt lat="43.67836" lon="11.1131417"><ele>182.75</ele><time>2026-03-22T15:49:05.01Z</time></trkpt><trkpt lat="43.678205" lon="11.1130483"><ele>182.0</ele><time>2026-03-22T15:49:06.01Z</time></trkpt><trkpt lat="43.6780267" lon="11.112975"><ele>182.0</ele><time>2026-03-22T15:49:07.009Z</time></trkpt><trkpt lat="43.677815" lon="11.1129533"><ele>182.0</ele><time>2026-03-22T15:49:08.01Z</time></trkpt><trkpt lat="43.6775917" lon="11.1129617"><ele>182.0</ele><time>2026-03-22T15:49:09.011Z</time></trkpt><trkpt lat="43.6773817" lon="11.1129883"><ele>180.33333333333331</ele><time>2026-03-22T15:49:10.009Z</time></trkpt><trkpt lat="43.677185" lon="11.113035"><ele>178.66666666666666</ele><time>2026-03-22T15:49:11.01Z</time></trkpt><trkpt lat="43.6770033" lon="11.11311"><ele>177.0</ele><time>2026-03-22T15:49:12.01Z</time></trkpt><trkpt lat="43.676845" lon="11.113205"><ele>177.0</ele><time>2026-03-22T15:49:13.012Z</time></trkpt><trkpt lat="43.6766983" lon="11.113275"><ele>177.0</ele><time>2026-03-22T15:49:14.01Z</time></trkpt><trkpt lat="43.6765567" lon="11.113275"><ele>177.0</ele><time>2026-03-22T15:49:15.01Z</time></trkpt><trkpt lat="43.6764267" lon="11.113195"><ele>177.0</ele><time>2026-03-22T15:49:16.011Z</time></trkpt><trkpt lat="43.6763067" lon="11.11306"><ele>177.0</ele><time>2026-03-22T15:49:17.01Z</time></trkpt><trkpt lat="43.676205" lon="11.1129"><ele>177.0</ele><time>2026-03-22T15:49:18.012Z</time></trkpt><trkpt lat="43.676115" lon="11.1127483"><ele>177.0</ele><time>2026-03-22T15:49:19.012Z</time></trkpt><trkpt lat="43.67602" lon="11.1126217"><ele>177.0</ele><time>2026-03-22T15:49:20.012Z</time></trkpt><trkpt lat="43.67591" lon="11.1125667"><ele>175.0</ele><time>2026-03-22T15:49:21.012Z</time></trkpt><trkpt lat="43.6758067" lon="11.1125783"><ele>173.0</ele><time>2026-03-22T15:49:22.011Z</time></trkpt><trkpt lat="43.6757167" lon="11.1126467"><ele>171.0</ele><time>2026-03-22T15:49:23.011Z</time></trkpt><trkpt lat="43.6756533" lon="11.1127417"><ele>169.0</ele><time>2026-03-22T15:49:24.011Z</time></trkpt><trkpt lat="43.6756167" lon="11.1128633"><ele>167.0</ele><time>2026-03-22T15:49:25.01Z</time></trkpt><trkpt lat="43.6756133" lon="11.1129867"><ele>167.0</ele><time>2026-03-22T15:49:26.01Z</time></trkpt><trkpt lat="43.6756967" lon="11.1131183"><ele>167.0</ele><time>2026-03-22T15:49:27.011Z</time></trkpt><trkpt lat="43.6757933" lon="11.1132883"><ele>167.0</ele><time>2026-03-22T15:49:28.012Z</time></trkpt><trkpt lat="43.6759183" lon="11.1135083"><ele>167.0</ele><time>2026-03-22T15:49:29.011Z</time></trkpt><trkpt lat="43.6760367" lon="11.1137317"><ele>167.0</ele><time>2026-03-22T15:49:30.012Z</time></trkpt><trkpt lat="43.6761567" lon="11.1139367"><ele>167.0</ele><time>2026-03-22T15:49:31.012Z</time></trkpt><trkpt lat="43.6762883" lon="11.1141083"><ele>161.33333333333331</ele><time>2026-03-22T15:49:32.011Z</time></trkpt><trkpt lat="43.6764317" lon="11.11424"><ele>155.66666666666666</ele><time>2026-03-22T15:49:33.012Z</time></trkpt><trkpt lat="43.6766" lon="11.1143333"><ele>150.0</ele><time>2026-03-22T15:49:34.011Z</time></trkpt><trkpt lat="43.6767967" lon="11.1144117"><ele>150.66666666666666</ele><time>2026-03-22T15:49:35.011Z</time></trkpt><trkpt lat="43.6769983" lon="11.114485"><ele>151.33333333333331</ele><time>2026-03-22T15:49:36.01Z</time></trkpt><trkpt lat="43.67719" lon="11.114555"><ele>152.0</ele><time>2026-03-22T15:49:37.011Z</time></trkpt><trkpt lat="43.6773633" lon="11.1146217"><ele>152.0</ele><time>2026-03-22T15:49:38.011Z</time></trkpt><trkpt lat="43.6775117" lon="11.1146967"><ele>152.0</ele><time>2026-03-22T15:49:39.012Z</time></trkpt><trkpt lat="43.677635" lon="11.11481"><ele>152.0</ele><time>2026-03-22T15:49:40.01Z</time></trkpt><trkpt lat="43.6777233" lon="11.1149667"><ele>153.0</ele><time>2026-03-22T15:49:41.01Z</time></trkpt><trkpt lat="43.6777833" lon="11.1151633"><ele>154.0</ele><time>2026-03-22T15:49:42.01Z</time></trkpt><trkpt lat="43.6778183" lon="11.1154083"><ele>155.0</ele><time>2026-03-22T15:49:43.009Z</time></trkpt><trkpt lat="43.6778533" lon="11.1156533"><ele>152.0</ele><time>2026-03-22T15:49:44.011Z</time></trkpt><trkpt lat="43.6778967" lon="11.1158933"><ele>149.0</ele><time>2026-03-22T15:49:45.01Z</time></trkpt><trkpt lat="43.6779417" lon="11.11613"><ele>146.0</ele><time>2026-03-22T15:49:46.01Z</time></trkpt><trkpt lat="43.6779933" lon="11.1163583"><ele>142.66666666666666</ele><time>2026-03-22T15:49:47.01Z</time></trkpt><trkpt lat="43.6780517" lon="11.1165767"><ele>139.33333333333334</ele><time>2026-03-22T15:49:48.01Z</time></trkpt><trkpt lat="43.678115" lon="11.1167783"><ele>136.0</ele><time>2026-03-22T15:49:49.01Z</time></trkpt><trkpt lat="43.67818" lon="11.11698"><ele>136.0</ele><time>2026-03-22T15:49:50.012Z</time></trkpt><trkpt lat="43.6782383" lon="11.1171783"><ele>136.0</ele><time>2026-03-22T15:49:51.01Z</time></trkpt><trkpt lat="43.6782867" lon="11.1173617"><ele>136.0</ele><time>2026-03-22T15:49:52.012Z</time></trkpt><trkpt lat="43.67832" lon="11.1175317"><ele>136.0</ele><time>2026-03-22T15:49:53.01Z</time></trkpt><trkpt lat="43.6783283" lon="11.1176967"><ele>134.25</ele><time>2026-03-22T15:49:54.01Z</time></trkpt><trkpt lat="43.6783167" lon="11.1178567"><ele>132.5</ele><time>2026-03-22T15:49:55.011Z</time></trkpt><trkpt lat="43.6782967" lon="11.1180183"><ele>130.75</ele><time>2026-03-22T15:49:56.01Z</time></trkpt><trkpt lat="43.6782833" lon="11.1181817"><ele>129.0</ele><time>2026-03-22T15:49:57.009Z</time></trkpt><trkpt lat="43.6782683" lon="11.11835"><ele>127.25</ele><time>2026-03-22T15:49:58.009Z</time></trkpt><trkpt lat="43.6782533" lon="11.1185217"><ele>125.5</ele><time>2026-03-22T15:49:59.01Z</time></trkpt><trkpt lat="43.6782483" lon="11.1186967"><ele>123.75</ele><time>2026-03-22T15:50:00.009Z</time></trkpt><trkpt lat="43.67827" lon="11.11887"><ele>122.0</ele><time>2026-03-22T15:50:01.01Z</time></trkpt><trkpt lat="43.67832" lon="11.1190333"><ele>120.25</ele><time>2026-03-22T15:50:02.009Z</time></trkpt><trkpt lat="43.6783917" lon="11.1191833"><ele>118.5</ele><time>2026-03-22T15:50:03.01Z</time></trkpt><trkpt lat="43.6784733" lon="11.1193317"><ele>116.75</ele><time>2026-03-22T15:50:04.01Z</time></trkpt><trkpt lat="43.6785817" lon="11.119475"><ele>115.0</ele><time>2026-03-22T15:50:05.011Z</time></trkpt><trkpt lat="43.678705" lon="11.1196167"><ele>115.0</ele><time>2026-03-22T15:50:06.01Z</time></trkpt><trkpt lat="43.6788367" lon="11.1197567"><ele>115.0</ele><time>2026-03-22T15:50:07.01Z</time></trkpt><trkpt lat="43.678975" lon="11.11991"><ele>115.0</ele><time>2026-03-22T15:50:08.01Z</time></trkpt><trkpt lat="43.679115" lon="11.1200617"><ele>111.33333333333334</ele><time>2026-03-22T15:50:09.012Z</time></trkpt><trkpt lat="43.6792467" lon="11.120205"><ele>107.66666666666666</ele><time>2026-03-22T15:50:10.01Z</time></trkpt><trkpt lat="43.6793717" lon="11.12034"><ele>104.0</ele><time>2026-03-22T15:50:11.011Z</time></trkpt><trkpt lat="43.67949" lon="11.120465"><ele>103.0</ele><time>2026-03-22T15:50:12.01Z</time></trkpt><trkpt lat="43.6796117" lon="11.1205933"><ele>102.0</ele><time>2026-03-22T15:50:13.01Z</time></trkpt><trkpt lat="43.6797333" lon="11.1207267"><ele>101.0</ele><time>2026-03-22T15:50:14.01Z</time></trkpt><trkpt lat="43.6798517" lon="11.120865"><ele>98.75</ele><time>2026-03-22T15:50:15.011Z</time></trkpt><trkpt lat="43.6799667" lon="11.1209983"><ele>96.5</ele><time>2026-03-22T15:50:16.01Z</time></trkpt><trkpt lat="43.680075" lon="11.1211183"><ele>94.25</ele><time>2026-03-22T15:50:17.012Z</time></trkpt><trkpt lat="43.68018" lon="11.1212333"><ele>92.0</ele><time>2026-03-22T15:50:18.009Z</time></trkpt><trkpt lat="43.680285" lon="11.1213517"><ele>90.75</ele><time>2026-03-22T15:50:19.01Z</time></trkpt><trkpt lat="43.6804017" lon="11.1214783"><ele>89.5</ele><time>2026-03-22T15:50:20.01Z</time></trkpt><trkpt lat="43.6805183" lon="11.121605"><ele>88.25</ele><time>2026-03-22T15:50:21.008Z</time></trkpt><trkpt lat="43.6806367" lon="11.1217383"><ele>87.0</ele><time>2026-03-22T15:50:22.01Z</time></trkpt><trkpt lat="43.6807483" lon="11.12187"><ele>85.66666666666667</ele><time>2026-03-22T15:50:23.009Z</time></trkpt><trkpt lat="43.6808617" lon="11.1220083"><ele>84.33333333333334</ele><time>2026-03-22T15:50:24.01Z</time></trkpt><trkpt lat="43.68097" lon="11.1221617"><ele>83.0</ele><time>2026-03-22T15:50:25.011Z</time></trkpt><trkpt lat="43.6810783" lon="11.1223383"><ele>82.33333333333334</ele><time>2026-03-22T15:50:26.012Z</time></trkpt><trkpt lat="43.6811917" lon="11.122545"><ele>81.66666666666667</ele><time>2026-03-22T15:50:27.01Z</time></trkpt><trkpt lat="43.681305" lon="11.1227667"><ele>81.0</ele><time>2026-03-22T15:50:28.01Z</time></trkpt><trkpt lat="43.6814217" lon="11.1230017"><ele>79.33333333333333</ele><time>2026-03-22T15:50:29.011Z</time></trkpt><trkpt lat="43.68155" lon="11.1232383"><ele>77.66666666666666</ele><time>2026-03-22T15:50:30.011Z</time></trkpt><trkpt lat="43.68168" lon="11.1234617"><ele>76.0</ele><time>2026-03-22T15:50:31.013Z</time></trkpt><trkpt lat="43.6818083" lon="11.1236783"><ele>76.0</ele><time>2026-03-22T15:50:32.011Z</time></trkpt><trkpt lat="43.6819367" lon="11.1238867"><ele>76.0</ele><time>2026-03-22T15:50:33.009Z</time></trkpt><trkpt lat="43.68207" lon="11.1240917"><ele>76.0</ele><time>2026-03-22T15:50:34.01Z</time></trkpt><trkpt lat="43.682205" lon="11.1242917"><ele>76.0</ele><time>2026-03-22T15:50:35.01Z</time></trkpt><trkpt lat="43.68234" lon="11.1244683"><ele>76.0</ele><time>2026-03-22T15:50:36.009Z</time></trkpt><trkpt lat="43.6824733" lon="11.1246517"><ele>76.0</ele><time>2026-03-22T15:50:37.01Z</time></trkpt><trkpt lat="43.6826033" lon="11.124835"><ele>76.0</ele><time>2026-03-22T15:50:38.011Z</time></trkpt><trkpt lat="43.682735" lon="11.1250133"><ele>76.0</ele><time>2026-03-22T15:50:39.009Z</time></trkpt><trkpt lat="43.6828617" lon="11.12519"><ele>76.0</ele><time>2026-03-22T15:50:40.012Z</time></trkpt><trkpt lat="43.68299" lon="11.1253583"><ele>76.0</ele><time>2026-03-22T15:50:41.012Z</time></trkpt><trkpt lat="43.683115" lon="11.1255233"><ele>76.0</ele><time>2026-03-22T15:50:42.01Z</time></trkpt><trkpt lat="43.683225" lon="11.12568"><ele>76.0</ele><time>2026-03-22T15:50:43.01Z</time></trkpt><trkpt lat="43.68332" lon="11.1258217"><ele>76.0</ele><time>2026-03-22T15:50:44.011Z</time></trkpt><trkpt lat="43.683405" lon="11.1259567"><ele>76.0</ele><time>2026-03-22T15:50:45.01Z</time></trkpt><trkpt lat="43.6834867" lon="11.1260883"><ele>76.0</ele><time>2026-03-22T15:50:46.009Z</time></trkpt><trkpt lat="43.6835633" lon="11.1262317"><ele>76.0</ele><time>2026-03-22T15:50:47.011Z</time></trkpt><trkpt lat="43.68364" lon="11.1263817"><ele>77.25</ele><time>2026-03-22T15:50:48.01Z</time></trkpt><trkpt lat="43.683705" lon="11.1265683"><ele>78.5</ele><time>2026-03-22T15:50:49.009Z</time></trkpt><trkpt lat="43.6837617" lon="11.12675"><ele>79.75</ele><time>2026-03-22T15:50:50.011Z</time></trkpt><trkpt lat="43.6838333" lon="11.1269233"><ele>81.0</ele><time>2026-03-22T15:50:51.01Z</time></trkpt><trkpt lat="43.6839167" lon="11.1270883"><ele>81.0</ele><time>2026-03-22T15:50:52.011Z</time></trkpt><trkpt lat="43.6840017" lon="11.1272417"><ele>81.0</ele><time>2026-03-22T15:50:53.01Z</time></trkpt><trkpt lat="43.68409" lon="11.12738"><ele>81.0</ele><time>2026-03-22T15:50:54.01Z</time></trkpt><trkpt lat="43.68417" lon="11.1275017"><ele>81.0</ele><time>2026-03-22T15:50:55.009Z</time></trkpt><trkpt lat="43.6842467" lon="11.1276167"><ele>81.19999999999999</ele><time>2026-03-22T15:50:56.011Z</time></trkpt><trkpt lat="43.684305" lon="11.127725"><ele>81.39999999999999</ele><time>2026-03-22T15:50:57.01Z</time></trkpt><trkpt lat="43.6843433" lon="11.1278167"><ele>81.6</ele><time>2026-03-22T15:50:58.011Z</time></trkpt><trkpt lat="43.6843717" lon="11.127895"><ele>81.8</ele><time>2026-03-22T15:50:59.011Z</time></trkpt><trkpt lat="43.6844033" lon="11.128025"><ele>82.0</ele><time>2026-03-22T15:51:01.01Z</time></trkpt><trkpt lat="43.6844467" lon="11.1281817"><ele>82.33333333333333</ele><time>2026-03-22T15:51:03.012Z</time></trkpt><trkpt lat="43.6844833" lon="11.1282733"><ele>82.66666666666666</ele><time>2026-03-22T15:51:04.01Z</time></trkpt><trkpt lat="43.6845283" lon="11.1283667"><ele>83.0</ele><time>2026-03-22T15:51:05.01Z</time></trkpt><trkpt lat="43.684575" lon="11.1284683"><ele>83.33333333333333</ele><time>2026-03-22T15:51:06.011Z</time></trkpt><trkpt lat="43.6846267" lon="11.1285767"><ele>83.66666666666667</ele><time>2026-03-22T15:51:07.009Z</time></trkpt><trkpt lat="43.6846717" lon="11.128685"><ele>84.0</ele><time>2026-03-22T15:51:08.01Z</time></trkpt><trkpt lat="43.6847117" lon="11.128805"><ele>84.0</ele><time>2026-03-22T15:51:09.01Z</time></trkpt><trkpt lat="43.68475" lon="11.1289233"><ele>84.0</ele><time>2026-03-22T15:51:10.01Z</time></trkpt><trkpt lat="43.684785" lon="11.1290467"><ele>84.0</ele><time>2026-03-22T15:51:11.012Z</time></trkpt><trkpt lat="43.684825" lon="11.1291683"><ele>84.0</ele><time>2026-03-22T15:51:12.01Z</time></trkpt><trkpt lat="43.6848717" lon="11.1292783"><ele>84.0</ele><time>2026-03-22T15:51:13.01Z</time></trkpt><trkpt lat="43.6849183" lon="11.1293883"><ele>84.2</ele><time>2026-03-22T15:51:14.011Z</time></trkpt><trkpt lat="43.684975" lon="11.12949"><ele>84.4</ele><time>2026-03-22T15:51:15.01Z</time></trkpt><trkpt lat="43.68503" lon="11.1295933"><ele>84.6</ele><time>2026-03-22T15:51:16.009Z</time></trkpt><trkpt lat="43.68509" lon="11.129685"><ele>84.8</ele><time>2026-03-22T15:51:17.012Z</time></trkpt><trkpt lat="43.68516" lon="11.1297667"><ele>85.0</ele><time>2026-03-22T15:51:18.012Z</time></trkpt><trkpt lat="43.685235" lon="11.1298517"><ele>86.0</ele><time>2026-03-22T15:51:19.01Z</time></trkpt><trkpt lat="43.6853117" lon="11.1299317"><ele>87.0</ele><time>2026-03-22T15:51:20.011Z</time></trkpt><trkpt lat="43.6853817" lon="11.1300117"><ele>88.0</ele><time>2026-03-22T15:51:21.01Z</time></trkpt><trkpt lat="43.6854533" lon="11.1300883"><ele>89.0</ele><time>2026-03-22T15:51:22.01Z</time></trkpt><trkpt lat="43.6855267" lon="11.1301683"><ele>90.0</ele><time>2026-03-22T15:51:23.01Z</time></trkpt><trkpt lat="43.6855983" lon="11.13025"><ele>90.0</ele><time>2026-03-22T15:51:24.01Z</time></trkpt><trkpt lat="43.6856717" lon="11.1303283"><ele>90.0</ele><time>2026-03-22T15:51:25.01Z</time></trkpt><trkpt lat="43.685745" lon="11.1304067"><ele>90.0</ele><time>2026-03-22T15:51:26.01Z</time></trkpt><trkpt lat="43.6858167" lon="11.1304867"><ele>90.0</ele><time>2026-03-22T15:51:27.012Z</time></trkpt><trkpt lat="43.6858883" lon="11.1305667"><ele>90.0</ele><time>2026-03-22T15:51:28.01Z</time></trkpt><trkpt lat="43.6859567" lon="11.1306533"><ele>89.6</ele><time>2026-03-22T15:51:29.01Z</time></trkpt><trkpt lat="43.6860317" lon="11.1307333"><ele>89.2</ele><time>2026-03-22T15:51:30.01Z</time></trkpt><trkpt lat="43.6861083" lon="11.1308167"><ele>88.80000000000001</ele><time>2026-03-22T15:51:31.011Z</time></trkpt><trkpt lat="43.6861833" lon="11.1309033"><ele>88.4</ele><time>2026-03-22T15:51:32.01Z</time></trkpt><trkpt lat="43.6862633" lon="11.1309817"><ele>88.0</ele><time>2026-03-22T15:51:33.01Z</time></trkpt><trkpt lat="43.6863467" lon="11.1310683"><ele>89.2</ele><time>2026-03-22T15:51:34.01Z</time></trkpt><trkpt lat="43.68643" lon="11.131155"><ele>90.4</ele><time>2026-03-22T15:51:35.011Z</time></trkpt><trkpt lat="43.6865083" lon="11.13124"><ele>91.60000000000001</ele><time>2026-03-22T15:51:36.01Z</time></trkpt><trkpt lat="43.6865883" lon="11.1313317"><ele>92.80000000000001</ele><time>2026-03-22T15:51:37.01Z</time></trkpt><trkpt lat="43.6866767" lon="11.1314367"><ele>94.0</ele><time>2026-03-22T15:51:38.01Z</time></trkpt><trkpt lat="43.686765" lon="11.1315533"><ele>93.75</ele><time>2026-03-22T15:51:39.009Z</time></trkpt><trkpt lat="43.686845" lon="11.131675"><ele>93.5</ele><time>2026-03-22T15:51:40.011Z</time></trkpt><trkpt lat="43.6869267" lon="11.131815"><ele>93.25</ele><time>2026-03-22T15:51:41.01Z</time></trkpt><trkpt lat="43.6870167" lon="11.131965"><ele>93.0</ele><time>2026-03-22T15:51:42.009Z</time></trkpt><trkpt lat="43.6871067" lon="11.1321117"><ele>94.0</ele><time>2026-03-22T15:51:43.01Z</time></trkpt><trkpt lat="43.6871867" lon="11.1322467"><ele>95.0</ele><time>2026-03-22T15:51:44.01Z</time></trkpt><trkpt lat="43.68726" lon="11.1323683"><ele>96.0</ele><time>2026-03-22T15:51:45.01Z</time></trkpt><trkpt lat="43.687335" lon="11.132495"><ele>97.0</ele><time>2026-03-22T15:51:46.009Z</time></trkpt><trkpt lat="43.687405" lon="11.1326233"><ele>97.6</ele><time>2026-03-22T15:51:47.01Z</time></trkpt><trkpt lat="43.6874533" lon="11.13276"><ele>98.19999999999999</ele><time>2026-03-22T15:51:48.011Z</time></trkpt><trkpt lat="43.6874883" lon="11.1328783"><ele>98.8</ele><time>2026-03-22T15:51:49.012Z</time></trkpt><trkpt lat="43.68751" lon="11.13297"><ele>99.4</ele><time>2026-03-22T15:51:50.01Z</time></trkpt><trkpt lat="43.6875483" lon="11.1331233"><ele>100.0</ele><time>2026-03-22T15:51:52.012Z</time></trkpt><trkpt lat="43.6875633" lon="11.1332283"><ele>100.25</ele><time>2026-03-22T15:51:53.01Z</time></trkpt><trkpt lat="43.6875767" lon="11.133365"><ele>100.5</ele><time>2026-03-22T15:51:54.009Z</time></trkpt><trkpt lat="43.6876083" lon="11.1335733"><ele>100.75</ele><time>2026-03-22T15:51:55.01Z</time></trkpt><trkpt lat="43.68765" lon="11.1337967"><ele>101.0</ele><time>2026-03-22T15:51:56.01Z</time></trkpt><trkpt lat="43.6877017" lon="11.1340183"><ele>100.66666666666666</ele><time>2026-03-22T15:51:57.012Z</time></trkpt><trkpt lat="43.6877517" lon="11.1342533"><ele>100.33333333333334</ele><time>2026-03-22T15:51:58.01Z</time></trkpt><trkpt lat="43.6877983" lon="11.134495"><ele>100.0</ele><time>2026-03-22T15:51:59.01Z</time></trkpt><trkpt lat="43.6878433" lon="11.1347367"><ele>102.33333333333334</ele><time>2026-03-22T15:52:00.01Z</time></trkpt><trkpt lat="43.6878617" lon="11.1349917"><ele>104.66666666666666</ele><time>2026-03-22T15:52:01.009Z</time></trkpt><trkpt lat="43.6878483" lon="11.13525"><ele>107.0</ele><time>2026-03-22T15:52:02.01Z</time></trkpt><trkpt lat="43.687825" lon="11.1355067"><ele>107.0</ele><time>2026-03-22T15:52:03.009Z</time></trkpt><trkpt lat="43.6877883" lon="11.1357633"><ele>107.0</ele><time>2026-03-22T15:52:04.01Z</time></trkpt><trkpt lat="43.687755" lon="11.1360217"><ele>107.0</ele><time>2026-03-22T15:52:05.01Z</time></trkpt><trkpt lat="43.6877267" lon="11.136295"><ele>104.0</ele><time>2026-03-22T15:52:06.009Z</time></trkpt><trkpt lat="43.6876983" lon="11.1365767"><ele>101.0</ele><time>2026-03-22T15:52:07.01Z</time></trkpt><trkpt lat="43.6876633" lon="11.1368717"><ele>98.0</ele><time>2026-03-22T15:52:08.01Z</time></trkpt><trkpt lat="43.6876217" lon="11.1371717"><ele>98.0</ele><time>2026-03-22T15:52:09.011Z</time></trkpt><trkpt lat="43.68758" lon="11.1374717"><ele>98.0</ele><time>2026-03-22T15:52:10.009Z</time></trkpt><trkpt lat="43.6875517" lon="11.137775"><ele>98.0</ele><time>2026-03-22T15:52:11.01Z</time></trkpt><trkpt lat="43.6875533" lon="11.1380917"><ele>98.5</ele><time>2026-03-22T15:52:12.01Z</time></trkpt><trkpt lat="43.6875767" lon="11.138425"><ele>99.0</ele><time>2026-03-22T15:52:13.01Z</time></trkpt><trkpt lat="43.6876083" lon="11.1387633"><ele>99.0</ele><time>2026-03-22T15:52:14.009Z</time></trkpt><trkpt lat="43.687635" lon="11.1390833"><ele>99.0</ele><time>2026-03-22T15:52:15.01Z</time></trkpt><trkpt lat="43.6876667" lon="11.1394033"><ele>99.0</ele><time>2026-03-22T15:52:16.009Z</time></trkpt><trkpt lat="43.6877083" lon="11.1397233"><ele>99.0</ele><time>2026-03-22T15:52:17.009Z</time></trkpt><trkpt lat="43.6877583" lon="11.1400417"><ele>102.0</ele><time>2026-03-22T15:52:18.01Z</time></trkpt><trkpt lat="43.68782" lon="11.140345"><ele>105.0</ele><time>2026-03-22T15:52:19.011Z</time></trkpt><trkpt lat="43.68788" lon="11.1406267"><ele>108.0</ele><time>2026-03-22T15:52:20.011Z</time></trkpt><trkpt lat="43.6879417" lon="11.1408883"><ele>108.0</ele><time>2026-03-22T15:52:21.01Z</time></trkpt><trkpt lat="43.6879983" lon="11.1411467"><ele>108.0</ele><time>2026-03-22T15:52:22.01Z</time></trkpt><trkpt lat="43.6880183" lon="11.1414083"><ele>108.0</ele><time>2026-03-22T15:52:23.011Z</time></trkpt><trkpt lat="43.68799" lon="11.14168"><ele>108.0</ele><time>2026-03-22T15:52:24.01Z</time></trkpt><trkpt lat="43.6879117" lon="11.1419667"><ele>108.0</ele><time>2026-03-22T15:52:25.011Z</time></trkpt><trkpt lat="43.6877933" lon="11.1422717"><ele>106.0</ele><time>2026-03-22T15:52:26.01Z</time></trkpt><trkpt lat="43.6876717" lon="11.1425683"><ele>104.0</ele><time>2026-03-22T15:52:27.01Z</time></trkpt><trkpt lat="43.68757" lon="11.14284"><ele>104.0</ele><time>2026-03-22T15:52:28.01Z</time></trkpt><trkpt lat="43.687495" lon="11.1430967"><ele>104.0</ele><time>2026-03-22T15:52:29.01Z</time></trkpt><trkpt lat="43.6874567" lon="11.14335"><ele>104.0</ele><time>2026-03-22T15:52:30.01Z</time></trkpt><trkpt lat="43.687455" lon="11.143615"><ele>104.0</ele><time>2026-03-22T15:52:31.009Z</time></trkpt><trkpt lat="43.6874767" lon="11.1439"><ele>104.0</ele><time>2026-03-22T15:52:32.01Z</time></trkpt><trkpt lat="43.68752" lon="11.14418"><ele>104.0</ele><time>2026-03-22T15:52:33.01Z</time></trkpt><trkpt lat="43.6875983" lon="11.1444483"><ele>104.0</ele><time>2026-03-22T15:52:34.01Z</time></trkpt><trkpt lat="43.6877167" lon="11.1446933"><ele>104.0</ele><time>2026-03-22T15:52:35.01Z</time></trkpt><trkpt lat="43.6878283" lon="11.144925"><ele>104.0</ele><time>2026-03-22T15:52:36.012Z</time></trkpt><trkpt lat="43.6879133" lon="11.1451533"><ele>107.66666666666666</ele><time>2026-03-22T15:52:37.014Z</time></trkpt><trkpt lat="43.687975" lon="11.145385"><ele>111.33333333333334</ele><time>2026-03-22T15:52:38.01Z</time></trkpt><trkpt lat="43.6879767" lon="11.1456133"><ele>115.0</ele><time>2026-03-22T15:52:39.01Z</time></trkpt><trkpt lat="43.68794" lon="11.1458467"><ele>115.0</ele><time>2026-03-22T15:52:40.01Z</time></trkpt><trkpt lat="43.6878683" lon="11.1461117"><ele>115.0</ele><time>2026-03-22T15:52:41.01Z</time></trkpt><trkpt lat="43.6877583" lon="11.1463933"><ele>115.0</ele><time>2026-03-22T15:52:42.009Z</time></trkpt><trkpt lat="43.6876417" lon="11.1466567"><ele>114.0</ele><time>2026-03-22T15:52:43.01Z</time></trkpt><trkpt lat="43.6875417" lon="11.1469083"><ele>113.0</ele><time>2026-03-22T15:52:44.01Z</time></trkpt><trkpt lat="43.68747" lon="11.147155"><ele>112.0</ele><time>2026-03-22T15:52:45.011Z</time></trkpt><trkpt lat="43.6874383" lon="11.1473933"><ele>112.0</ele><time>2026-03-22T15:52:46.01Z</time></trkpt><trkpt lat="43.68745" lon="11.14761"><ele>112.0</ele><time>2026-03-22T15:52:47.01Z</time></trkpt><trkpt lat="43.6875" lon="11.1478133"><ele>112.0</ele><time>2026-03-22T15:52:48.01Z</time></trkpt><trkpt lat="43.68757" lon="11.14801"><ele>112.0</ele><time>2026-03-22T15:52:49.01Z</time></trkpt><trkpt lat="43.68764" lon="11.1481933"><ele>112.0</ele><time>2026-03-22T15:52:50.01Z</time></trkpt><trkpt lat="43.6877" lon="11.14837"><ele>112.0</ele><time>2026-03-22T15:52:51.01Z</time></trkpt><trkpt lat="43.6877517" lon="11.1485433"><ele>112.0</ele><time>2026-03-22T15:52:52.01Z</time></trkpt><trkpt lat="43.6877883" lon="11.148725"><ele>116.33333333333334</ele><time>2026-03-22T15:52:53.01Z</time></trkpt><trkpt lat="43.6878083" lon="11.1489233"><ele>120.66666666666666</ele><time>2026-03-22T15:52:54.01Z</time></trkpt><trkpt lat="43.68782" lon="11.14914"><ele>125.0</ele><time>2026-03-22T15:52:55.011Z</time></trkpt><trkpt lat="43.687815" lon="11.149395"><ele>126.0</ele><time>2026-03-22T15:52:56.011Z</time></trkpt><trkpt lat="43.6877967" lon="11.14969"><ele>127.0</ele><time>2026-03-22T15:52:57.01Z</time></trkpt><trkpt lat="43.687765" lon="11.1500167"><ele>119.0</ele><time>2026-03-22T15:52:58.01Z</time></trkpt><trkpt lat="43.68772" lon="11.1503483"><ele>111.0</ele><time>2026-03-22T15:52:59.01Z</time></trkpt><trkpt lat="43.6876883" lon="11.150675"><ele>111.0</ele><time>2026-03-22T15:53:00.01Z</time></trkpt><trkpt lat="43.6876917" lon="11.1510117"><ele>111.0</ele><time>2026-03-22T15:53:01.01Z</time></trkpt><trkpt lat="43.6877183" lon="11.1513633"><ele>112.5</ele><time>2026-03-22T15:53:02.011Z</time></trkpt><trkpt lat="43.6877583" lon="11.1517167"><ele>114.0</ele><time>2026-03-22T15:53:03.01Z</time></trkpt><trkpt lat="43.6878033" lon="11.1520533"><ele>117.0</ele><time>2026-03-22T15:53:04.01Z</time></trkpt><trkpt lat="43.6878533" lon="11.1523633"><ele>120.0</ele><time>2026-03-22T15:53:05.011Z</time></trkpt><trkpt lat="43.68793" lon="11.1526667"><ele>120.0</ele><time>2026-03-22T15:53:06.009Z</time></trkpt><trkpt lat="43.6880383" lon="11.1529667"><ele>120.0</ele><time>2026-03-22T15:53:07.01Z</time></trkpt><trkpt lat="43.68815" lon="11.1532733"><ele>119.0</ele><time>2026-03-22T15:53:08.01Z</time></trkpt><trkpt lat="43.688245" lon="11.1535833"><ele>118.0</ele><time>2026-03-22T15:53:09.009Z</time></trkpt><trkpt lat="43.6883267" lon="11.153875"><ele>117.66666666666667</ele><time>2026-03-22T15:53:10.009Z</time></trkpt><trkpt lat="43.6884183" lon="11.1541367"><ele>117.33333333333334</ele><time>2026-03-22T15:53:11.01Z</time></trkpt><trkpt lat="43.6885233" lon="11.1543667"><ele>117.0</ele><time>2026-03-22T15:53:12.01Z</time></trkpt><trkpt lat="43.6886267" lon="11.1545633"><ele>118.5</ele><time>2026-03-22T15:53:13.01Z</time></trkpt><trkpt lat="43.6887217" lon="11.15474"><ele>120.0</ele><time>2026-03-22T15:53:14.008Z</time></trkpt><trkpt lat="43.688785" lon="11.154915"><ele>121.5</ele><time>2026-03-22T15:53:15.011Z</time></trkpt><trkpt lat="43.6888017" lon="11.1551117"><ele>123.0</ele><time>2026-03-22T15:53:16.01Z</time></trkpt><trkpt lat="43.688775" lon="11.1553283"><ele>123.33333333333334</ele><time>2026-03-22T15:53:17.01Z</time></trkpt><trkpt lat="43.6887233" lon="11.1555533"><ele>123.66666666666667</ele><time>2026-03-22T15:53:18.009Z</time></trkpt><trkpt lat="43.6886733" lon="11.1557617"><ele>124.0</ele><time>2026-03-22T15:53:19.012Z</time></trkpt><trkpt lat="43.6886583" lon="11.1559517"><ele>124.33333333333334</ele><time>2026-03-22T15:53:20.011Z</time></trkpt><trkpt lat="43.6886983" lon="11.156135"><ele>124.66666666666666</ele><time>2026-03-22T15:53:21.01Z</time></trkpt><trkpt lat="43.68877" lon="11.1563267"><ele>125.0</ele><time>2026-03-22T15:53:22.009Z</time></trkpt><trkpt lat="43.6888733" lon="11.1565483"><ele>125.0</ele><time>2026-03-22T15:53:23.01Z</time></trkpt><trkpt lat="43.688945" lon="11.156785"><ele>125.0</ele><time>2026-03-22T15:53:24.01Z</time></trkpt><trkpt lat="43.6889767" lon="11.1570367"><ele>125.0</ele><time>2026-03-22T15:53:25.01Z</time></trkpt><trkpt lat="43.68897" lon="11.1572883"><ele>125.33333333333333</ele><time>2026-03-22T15:53:26.01Z</time></trkpt><trkpt lat="43.688965" lon="11.1575283"><ele>125.66666666666666</ele><time>2026-03-22T15:53:27.01Z</time></trkpt><trkpt lat="43.689" lon="11.1577633"><ele>126.0</ele><time>2026-03-22T15:53:28.009Z</time></trkpt><trkpt lat="43.6890917" lon="11.1579917"><ele>126.0</ele><time>2026-03-22T15:53:29.01Z</time></trkpt><trkpt lat="43.6892117" lon="11.1581867"><ele>126.0</ele><time>2026-03-22T15:53:30.01Z</time></trkpt><trkpt lat="43.6893367" lon="11.15835"><ele>126.0</ele><time>2026-03-22T15:53:31.01Z</time></trkpt><trkpt lat="43.689435" lon="11.15852"><ele>126.0</ele><time>2026-03-22T15:53:32.01Z</time></trkpt><trkpt lat="43.6894983" lon="11.1587067"><ele>126.0</ele><time>2026-03-22T15:53:33.009Z</time></trkpt><trkpt lat="43.6895233" lon="11.1589417"><ele>126.0</ele><time>2026-03-22T15:53:34.011Z</time></trkpt><trkpt lat="43.689525" lon="11.159215"><ele>126.0</ele><time>2026-03-22T15:53:35.01Z</time></trkpt><trkpt lat="43.6895167" lon="11.1594933"><ele>126.0</ele><time>2026-03-22T15:53:36.01Z</time></trkpt><trkpt lat="43.68952" lon="11.1597617"><ele>126.0</ele><time>2026-03-22T15:53:37.01Z</time></trkpt><trkpt lat="43.6895417" lon="11.16004"><ele>125.0</ele><time>2026-03-22T15:53:38.01Z</time></trkpt><trkpt lat="43.68958" lon="11.1603417"><ele>124.0</ele><time>2026-03-22T15:53:39.009Z</time></trkpt><trkpt lat="43.689625" lon="11.16066"><ele>124.33333333333334</ele><time>2026-03-22T15:53:40.009Z</time></trkpt><trkpt lat="43.6896617" lon="11.1609767"><ele>124.66666666666666</ele><time>2026-03-22T15:53:41.01Z</time></trkpt><trkpt lat="43.68969" lon="11.1612733"><ele>125.0</ele><time>2026-03-22T15:53:42.009Z</time></trkpt><trkpt lat="43.689725" lon="11.1615483"><ele>125.33333333333333</ele><time>2026-03-22T15:53:43.009Z</time></trkpt><trkpt lat="43.6897767" lon="11.161815"><ele>125.66666666666666</ele><time>2026-03-22T15:53:44.009Z</time></trkpt><trkpt lat="43.689855" lon="11.1620683"><ele>126.0</ele><time>2026-03-22T15:53:45.01Z</time></trkpt><trkpt lat="43.68995" lon="11.1623133"><ele>126.66666666666666</ele><time>2026-03-22T15:53:46.01Z</time></trkpt><trkpt lat="43.6900633" lon="11.1625583"><ele>127.33333333333333</ele><time>2026-03-22T15:53:47.01Z</time></trkpt><trkpt lat="43.6901867" lon="11.16281"><ele>128.0</ele><time>2026-03-22T15:53:48.01Z</time></trkpt><trkpt lat="43.6903167" lon="11.16305"><ele>128.33333333333331</ele><time>2026-03-22T15:53:49.01Z</time></trkpt><trkpt lat="43.6904483" lon="11.1632817"><ele>128.66666666666666</ele><time>2026-03-22T15:53:50.01Z</time></trkpt><trkpt lat="43.6905767" lon="11.1635017"><ele>129.0</ele><time>2026-03-22T15:53:51.011Z</time></trkpt><trkpt lat="43.6906983" lon="11.1637083"><ele>129.0</ele><time>2026-03-22T15:53:52.011Z</time></trkpt><trkpt lat="43.690815" lon="11.1638983"><ele>129.0</ele><time>2026-03-22T15:53:53.01Z</time></trkpt><trkpt lat="43.690925" lon="11.1640783"><ele>129.0</ele><time>2026-03-22T15:53:54.009Z</time></trkpt><trkpt lat="43.6910317" lon="11.1642517"><ele>130.66666666666666</ele><time>2026-03-22T15:53:55.009Z</time></trkpt><trkpt lat="43.6911383" lon="11.1644283"><ele>132.33333333333331</ele><time>2026-03-22T15:53:56.011Z</time></trkpt><trkpt lat="43.6912433" lon="11.1646"><ele>134.0</ele><time>2026-03-22T15:53:57.009Z</time></trkpt><trkpt lat="43.691345" lon="11.1647683"><ele>134.25</ele><time>2026-03-22T15:53:58.009Z</time></trkpt><trkpt lat="43.69144" lon="11.1649267"><ele>134.5</ele><time>2026-03-22T15:53:59.01Z</time></trkpt><trkpt lat="43.6915267" lon="11.165065"><ele>134.75</ele><time>2026-03-22T15:54:00.009Z</time></trkpt><trkpt lat="43.69161" lon="11.1651967"><ele>135.0</ele><time>2026-03-22T15:54:01.009Z</time></trkpt><trkpt lat="43.69169" lon="11.1653283"><ele>135.0</ele><time>2026-03-22T15:54:02.009Z</time></trkpt><trkpt lat="43.6917633" lon="11.165465"><ele>135.0</ele><time>2026-03-22T15:54:03.009Z</time></trkpt><trkpt lat="43.6918317" lon="11.1656067"><ele>135.0</ele><time>2026-03-22T15:54:04.008Z</time></trkpt><trkpt lat="43.6918883" lon="11.1657617"><ele>135.0</ele><time>2026-03-22T15:54:05.009Z</time></trkpt><trkpt lat="43.6919367" lon="11.1659133"><ele>137.0</ele><time>2026-03-22T15:54:06.008Z</time></trkpt><trkpt lat="43.69198" lon="11.166075"><ele>139.0</ele><time>2026-03-22T15:54:07.009Z</time></trkpt><trkpt lat="43.6920317" lon="11.16623"><ele>141.0</ele><time>2026-03-22T15:54:08.01Z</time></trkpt><trkpt lat="43.6920883" lon="11.166385"><ele>143.0</ele><time>2026-03-22T15:54:09.009Z</time></trkpt><trkpt lat="43.69215" lon="11.166535"><ele>143.0</ele><time>2026-03-22T15:54:10.011Z</time></trkpt><trkpt lat="43.6922233" lon="11.1666783"><ele>143.0</ele><time>2026-03-22T15:54:11.012Z</time></trkpt><trkpt lat="43.6923067" lon="11.166805"><ele>143.0</ele><time>2026-03-22T15:54:12.01Z</time></trkpt><trkpt lat="43.692405" lon="11.166925"><ele>143.0</ele><time>2026-03-22T15:54:13.01Z</time></trkpt><trkpt lat="43.692525" lon="11.1670383"><ele>143.0</ele><time>2026-03-22T15:54:14.01Z</time></trkpt><trkpt lat="43.6926733" lon="11.1671533"><ele>143.0</ele><time>2026-03-22T15:54:15.01Z</time></trkpt><trkpt lat="43.69285" lon="11.1672867"><ele>143.0</ele><time>2026-03-22T15:54:16.01Z</time></trkpt><trkpt lat="43.69304" lon="11.1674417"><ele>145.33333333333331</ele><time>2026-03-22T15:54:17.01Z</time></trkpt><trkpt lat="43.6932217" lon="11.1675983"><ele>147.66666666666666</ele><time>2026-03-22T15:54:18.012Z</time></trkpt><trkpt lat="43.6933833" lon="11.1677267"><ele>150.0</ele><time>2026-03-22T15:54:19.01Z</time></trkpt><trkpt lat="43.693535" lon="11.1678067"><ele>152.0</ele><time>2026-03-22T15:54:20.01Z</time></trkpt><trkpt lat="43.6936967" lon="11.1678417"><ele>154.0</ele><time>2026-03-22T15:54:21.009Z</time></trkpt><trkpt lat="43.693875" lon="11.1678167"><ele>156.0</ele><time>2026-03-22T15:54:22.009Z</time></trkpt><trkpt lat="43.6940383" lon="11.167745"><ele>156.0</ele><time>2026-03-22T15:54:23.009Z</time></trkpt><trkpt lat="43.6941767" lon="11.167685"><ele>156.0</ele><time>2026-03-22T15:54:24.009Z</time></trkpt><trkpt lat="43.694295" lon="11.167675"><ele>156.0</ele><time>2026-03-22T15:54:25.01Z</time></trkpt><trkpt lat="43.6943867" lon="11.16775"><ele>156.0</ele><time>2026-03-22T15:54:26.009Z</time></trkpt><trkpt lat="43.694445" lon="11.1679"><ele>155.0</ele><time>2026-03-22T15:54:27.009Z</time></trkpt><trkpt lat="43.6944617" lon="11.1680933"><ele>154.0</ele><time>2026-03-22T15:54:28.009Z</time></trkpt><trkpt lat="43.6944217" lon="11.1683583"><ele>153.0</ele><time>2026-03-22T15:54:29.01Z</time></trkpt><trkpt lat="43.694365" lon="11.16866"><ele>153.0</ele><time>2026-03-22T15:54:30.01Z</time></trkpt><trkpt lat="43.69432" lon="11.168965"><ele>153.0</ele><time>2026-03-22T15:54:31.01Z</time></trkpt><trkpt lat="43.6943067" lon="11.1692317"><ele>153.0</ele><time>2026-03-22T15:54:32.01Z</time></trkpt><trkpt lat="43.6943367" lon="11.1694883"><ele>154.33333333333334</ele><time>2026-03-22T15:54:33.01Z</time></trkpt><trkpt lat="43.69441" lon="11.1697383"><ele>155.66666666666669</ele><time>2026-03-22T15:54:34.009Z</time></trkpt><trkpt lat="43.6945067" lon="11.1699617"><ele>157.0</ele><time>2026-03-22T15:54:35.011Z</time></trkpt><trkpt lat="43.6946" lon="11.1701567"><ele>161.5</ele><time>2026-03-22T15:54:36.009Z</time></trkpt><trkpt lat="43.694685" lon="11.1703217"><ele>166.0</ele><time>2026-03-22T15:54:37.011Z</time></trkpt><trkpt lat="43.6947467" lon="11.17046"><ele>170.5</ele><time>2026-03-22T15:54:38.011Z</time></trkpt><trkpt lat="43.69478" lon="11.1706017"><ele>175.0</ele><time>2026-03-22T15:54:39.01Z</time></trkpt><trkpt lat="43.69476" lon="11.1707333"><ele>175.0</ele><time>2026-03-22T15:54:40.01Z</time></trkpt><trkpt lat="43.694735" lon="11.1708733"><ele>175.0</ele><time>2026-03-22T15:54:41.009Z</time></trkpt><trkpt lat="43.6947433" lon="11.1710233"><ele>175.0</ele><time>2026-03-22T15:54:42.01Z</time></trkpt><trkpt lat="43.694775" lon="11.1711817"><ele>175.0</ele><time>2026-03-22T15:54:43.01Z</time></trkpt><trkpt lat="43.6948467" lon="11.171355"><ele>177.0</ele><time>2026-03-22T15:54:44.01Z</time></trkpt><trkpt lat="43.6949583" lon="11.17154"><ele>179.0</ele><time>2026-03-22T15:54:45.012Z</time></trkpt><trkpt lat="43.6951433" lon="11.171725"><ele>181.0</ele><time>2026-03-22T15:54:46.009Z</time></trkpt><trkpt lat="43.69537" lon="11.1718933"><ele>181.66666666666669</ele><time>2026-03-22T15:54:47.01Z</time></trkpt><trkpt lat="43.6955883" lon="11.1720267"><ele>182.33333333333334</ele><time>2026-03-22T15:54:48.01Z</time></trkpt><trkpt lat="43.69578" lon="11.1721467"><ele>183.0</ele><time>2026-03-22T15:54:49.012Z</time></trkpt><trkpt lat="43.695965" lon="11.172275"><ele>182.66666666666666</ele><time>2026-03-22T15:54:50.01Z</time></trkpt><trkpt lat="43.6961283" lon="11.17242"><ele>182.33333333333331</ele><time>2026-03-22T15:54:51.01Z</time></trkpt><trkpt lat="43.6962817" lon="11.1725967"><ele>182.0</ele><time>2026-03-22T15:54:52.01Z</time></trkpt><trkpt lat="43.6964233" lon="11.1728117"><ele>182.0</ele><time>2026-03-22T15:54:53.01Z</time></trkpt><trkpt lat="43.69656" lon="11.1730433"><ele>182.0</ele><time>2026-03-22T15:54:54.01Z</time></trkpt><trkpt lat="43.6967067" lon="11.1732817"><ele>182.0</ele><time>2026-03-22T15:54:55.01Z</time></trkpt><trkpt lat="43.6968583" lon="11.1735417"><ele>178.5</ele><time>2026-03-22T15:54:56.01Z</time></trkpt><trkpt lat="43.6970033" lon="11.1737967"><ele>175.0</ele><time>2026-03-22T15:54:57.01Z</time></trkpt><trkpt lat="43.697145" lon="11.174045"><ele>174.5</ele><time>2026-03-22T15:54:58.01Z</time></trkpt><trkpt lat="43.697295" lon="11.1742883"><ele>174.0</ele><time>2026-03-22T15:54:59.009Z</time></trkpt><trkpt lat="43.6974333" lon="11.1745317"><ele>174.0</ele><time>2026-03-22T15:55:00.011Z</time></trkpt><trkpt lat="43.69756" lon="11.1747967"><ele>174.0</ele><time>2026-03-22T15:55:01.01Z</time></trkpt><trkpt lat="43.69767" lon="11.17509"><ele>176.5</ele><time>2026-03-22T15:55:02.01Z</time></trkpt><trkpt lat="43.69778" lon="11.1753867"><ele>179.0</ele><time>2026-03-22T15:55:03.01Z</time></trkpt><trkpt lat="43.6979017" lon="11.1756767"><ele>178.66666666666666</ele><time>2026-03-22T15:55:04.009Z</time></trkpt><trkpt lat="43.6980233" lon="11.1759483"><ele>178.33333333333334</ele><time>2026-03-22T15:55:05.01Z</time></trkpt><trkpt lat="43.6981367" lon="11.1762017"><ele>178.0</ele><time>2026-03-22T15:55:06.01Z</time></trkpt><trkpt lat="43.698225" lon="11.1764483"><ele>179.66666666666669</ele><time>2026-03-22T15:55:07.01Z</time></trkpt><trkpt lat="43.698295" lon="11.1766833"><ele>181.33333333333334</ele><time>2026-03-22T15:55:08.009Z</time></trkpt><trkpt lat="43.698355" lon="11.1768983"><ele>183.0</ele><time>2026-03-22T15:55:09.009Z</time></trkpt><trkpt lat="43.6984167" lon="11.177095"><ele>183.0</ele><time>2026-03-22T15:55:10.011Z</time></trkpt><trkpt lat="43.6985017" lon="11.17726"><ele>183.0</ele><time>2026-03-22T15:55:11.01Z</time></trkpt><trkpt lat="43.69861" lon="11.1774117"><ele>183.0</ele><time>2026-03-22T15:55:12.01Z</time></trkpt><trkpt lat="43.69876" lon="11.1775417"><ele>182.33333333333334</ele><time>2026-03-22T15:55:13.01Z</time></trkpt><trkpt lat="43.6989067" lon="11.177665"><ele>181.66666666666669</ele><time>2026-03-22T15:55:14.01Z</time></trkpt><trkpt lat="43.6990417" lon="11.1777867"><ele>181.0</ele><time>2026-03-22T15:55:15.01Z</time></trkpt><trkpt lat="43.6991733" lon="11.1779083"><ele>181.0</ele><time>2026-03-22T15:55:16.01Z</time></trkpt><trkpt lat="43.6992917" lon="11.178035"><ele>181.0</ele><time>2026-03-22T15:55:17.01Z</time></trkpt><trkpt lat="43.6994067" lon="11.1781983"><ele>181.0</ele><time>2026-03-22T15:55:18.011Z</time></trkpt><trkpt lat="43.6995217" lon="11.17841"><ele>182.66666666666669</ele><time>2026-03-22T15:55:19.011Z</time></trkpt><trkpt lat="43.6996433" lon="11.17865"><ele>184.33333333333334</ele><time>2026-03-22T15:55:20.01Z</time></trkpt><trkpt lat="43.6997567" lon="11.1788733"><ele>186.0</ele><time>2026-03-22T15:55:21.009Z</time></trkpt><trkpt lat="43.6998517" lon="11.17907"><ele>187.5</ele><time>2026-03-22T15:55:22.01Z</time></trkpt><trkpt lat="43.6999583" lon="11.1791967"><ele>189.0</ele><time>2026-03-22T15:55:23.01Z</time></trkpt><trkpt lat="43.7000817" lon="11.17927"><ele>190.5</ele><time>2026-03-22T15:55:24.009Z</time></trkpt><trkpt lat="43.7002383" lon="11.1792817"><ele>192.0</ele><time>2026-03-22T15:55:25.01Z</time></trkpt><trkpt lat="43.7004233" lon="11.1792383"><ele>192.0</ele><time>2026-03-22T15:55:26.009Z</time></trkpt><trkpt lat="43.7006467" lon="11.1791667"><ele>192.0</ele><time>2026-03-22T15:55:27.009Z</time></trkpt><trkpt lat="43.700885" lon="11.1790917"><ele>198.0</ele><time>2026-03-22T15:55:28.009Z</time></trkpt><trkpt lat="43.7011133" lon="11.1790067"><ele>204.0</ele><time>2026-03-22T15:55:29.009Z</time></trkpt><trkpt lat="43.701315" lon="11.1789167"><ele>210.0</ele><time>2026-03-22T15:55:30.009Z</time></trkpt><trkpt lat="43.7014867" lon="11.1788233"><ele>210.0</ele><time>2026-03-22T15:55:31.01Z</time></trkpt><trkpt lat="43.7016367" lon="11.1787417"><ele>210.0</ele><time>2026-03-22T15:55:32.01Z</time></trkpt><trkpt lat="43.70176" lon="11.1787217"><ele>210.0</ele><time>2026-03-22T15:55:33.01Z</time></trkpt><trkpt lat="43.7018683" lon="11.178735"><ele>210.0</ele><time>2026-03-22T15:55:34.009Z</time></trkpt><trkpt lat="43.7019383" lon="11.1788317"><ele>211.5</ele><time>2026-03-22T15:55:35.01Z</time></trkpt><trkpt lat="43.70197" lon="11.1789817"><ele>213.0</ele><time>2026-03-22T15:55:36.009Z</time></trkpt><trkpt lat="43.70197" lon="11.179175"><ele>214.5</ele><time>2026-03-22T15:55:37.01Z</time></trkpt><trkpt lat="43.7019667" lon="11.17938"><ele>216.0</ele><time>2026-03-22T15:55:38.009Z</time></trkpt><trkpt lat="43.7019833" lon="11.179565"><ele>216.0</ele><time>2026-03-22T15:55:39.011Z</time></trkpt><trkpt lat="43.7020417" lon="11.179745"><ele>216.0</ele><time>2026-03-22T15:55:40.01Z</time></trkpt><trkpt lat="43.7021433" lon="11.179895"><ele>216.0</ele><time>2026-03-22T15:55:41.011Z</time></trkpt><trkpt lat="43.7023167" lon="11.1800283"><ele>214.66666666666669</ele><time>2026-03-22T15:55:42.01Z</time></trkpt><trkpt lat="43.7025283" lon="11.1801633"><ele>213.33333333333334</ele><time>2026-03-22T15:55:43.012Z</time></trkpt><trkpt lat="43.7027083" lon="11.1803017"><ele>212.0</ele><time>2026-03-22T15:55:44.01Z</time></trkpt><trkpt lat="43.7028733" lon="11.18044"><ele>215.0</ele><time>2026-03-22T15:55:45.01Z</time></trkpt><trkpt lat="43.7030017" lon="11.1806183"><ele>218.0</ele><time>2026-03-22T15:55:46.01Z</time></trkpt><trkpt lat="43.7030967" lon="11.180825"><ele>221.0</ele><time>2026-03-22T15:55:47.01Z</time></trkpt><trkpt lat="43.70318" lon="11.181045"><ele>221.0</ele><time>2026-03-22T15:55:48.01Z</time></trkpt><trkpt lat="43.7032667" lon="11.18126"><ele>221.0</ele><time>2026-03-22T15:55:49.01Z</time></trkpt><trkpt lat="43.7033683" lon="11.1814717"><ele>221.0</ele><time>2026-03-22T15:55:50.011Z</time></trkpt><trkpt lat="43.703475" lon="11.18169"><ele>219.33333333333334</ele><time>2026-03-22T15:55:51.01Z</time></trkpt><trkpt lat="43.703575" lon="11.1819183"><ele>217.66666666666669</ele><time>2026-03-22T15:55:52.01Z</time></trkpt><trkpt lat="43.7036667" lon="11.1821467"><ele>216.0</ele><time>2026-03-22T15:55:53.012Z</time></trkpt><trkpt lat="43.703745" lon="11.1823683"><ele>222.33333333333331</ele><time>2026-03-22T15:55:54.011Z</time></trkpt><trkpt lat="43.7038083" lon="11.1825683"><ele>228.66666666666666</ele><time>2026-03-22T15:55:55.01Z</time></trkpt><trkpt lat="43.703875" lon="11.1827583"><ele>235.0</ele><time>2026-03-22T15:55:56.009Z</time></trkpt><trkpt lat="43.7039183" lon="11.1829433"><ele>235.0</ele><time>2026-03-22T15:55:57.01Z</time></trkpt><trkpt lat="43.70398" lon="11.1831183"><ele>235.0</ele><time>2026-03-22T15:55:58.009Z</time></trkpt><trkpt lat="43.7040583" lon="11.183275"><ele>235.0</ele><time>2026-03-22T15:55:59.01Z</time></trkpt><trkpt lat="43.7041417" lon="11.1834317"><ele>235.0</ele><time>2026-03-22T15:56:00.01Z</time></trkpt><trkpt lat="43.7042167" lon="11.1835783"><ele>235.0</ele><time>2026-03-22T15:56:01.009Z</time></trkpt><trkpt lat="43.70428" lon="11.1837167"><ele>235.0</ele><time>2026-03-22T15:56:02.01Z</time></trkpt><trkpt lat="43.704335" lon="11.1838567"><ele>235.0</ele><time>2026-03-22T15:56:03.009Z</time></trkpt><trkpt lat="43.704375" lon="11.184"><ele>235.0</ele><time>2026-03-22T15:56:04.012Z</time></trkpt><trkpt lat="43.7044167" lon="11.1841467"><ele>235.0</ele><time>2026-03-22T15:56:05.009Z</time></trkpt><trkpt lat="43.7044483" lon="11.184295"><ele>235.0</ele><time>2026-03-22T15:56:06.009Z</time></trkpt><trkpt lat="43.704495" lon="11.184445"><ele>235.0</ele><time>2026-03-22T15:56:07.011Z</time></trkpt><trkpt lat="43.7045433" lon="11.1845917"><ele>235.0</ele><time>2026-03-22T15:56:08.011Z</time></trkpt><trkpt lat="43.7045833" lon="11.1847283"><ele>234.49999999999997</ele><time>2026-03-22T15:56:09.009Z</time></trkpt><trkpt lat="43.7046183" lon="11.1848517"><ele>234.0</ele><time>2026-03-22T15:56:10.012Z</time></trkpt><trkpt lat="43.7046433" lon="11.184955"><ele>233.5</ele><time>2026-03-22T15:56:11.012Z</time></trkpt><trkpt lat="43.7046717" lon="11.1850383"><ele>233.0</ele><time>2026-03-22T15:56:12.01Z</time></trkpt><trkpt lat="43.7047083" lon="11.1851233"><ele>232.49999999999997</ele><time>2026-03-22T15:56:14.01Z</time></trkpt><trkpt lat="43.7047733" lon="11.1850633"><ele>232.0</ele><time>2026-03-22T15:56:18.01Z</time></trkpt><trkpt lat="43.7048533" lon="11.1849667"><ele>231.99999999999997</ele><time>2026-03-22T15:56:20.012Z</time></trkpt><trkpt lat="43.7049283" lon="11.1849717"><ele>232.0</ele><time>2026-03-22T15:56:23.007Z</time></trkpt><trkpt lat="43.7049333" lon="11.185095"><ele>232.0</ele><time>2026-03-22T15:56:25.009Z</time></trkpt><trkpt lat="43.70492" lon="11.185195"><ele>232.0</ele><time>2026-03-22T15:56:27.01Z</time></trkpt><trkpt lat="43.7049383" lon="11.185285"><ele>231.99999999999997</ele><time>2026-03-22T15:56:29.009Z</time></trkpt><trkpt lat="43.7048833" lon="11.18542"><ele>232.0</ele><time>2026-03-22T15:57:42.009Z</time></trkpt><trkpt lat="43.7049017" lon="11.185515"><ele>232.00000000000003</ele><time>2026-03-22T15:59:40.009Z</time></trkpt><trkpt lat="43.7048817" lon="11.1856017"><ele>232.0</ele><time>2026-03-22T15:59:46.011Z</time></trkpt><trkpt lat="43.7048417" lon="11.18568"><ele>232.00000000000003</ele><time>2026-03-22T15:59:51.01Z</time></trkpt><trkpt lat="43.7048547" lon="11.1857838"><ele>232.00000000000003</ele><time>2026-03-22T15:59:57.067Z</time></trkpt><trkpt lat="43.7048435" lon="11.1858835"><ele>232.0</ele><time>2026-03-22T16:00:09.051Z</time></trkpt><trkpt lat="43.7048845" lon="11.1859505"><ele>232.00000000000003</ele><time>2026-03-22T16:00:15.094Z</time></trkpt><trkpt lat="43.7049545" lon="11.1859706"><ele>232.00000000000003</ele><time>2026-03-22T16:00:21.035Z</time></trkpt><trkpt lat="43.7050193" lon="11.1860111"><ele>232.0</ele><time>2026-03-22T16:00:27.078Z</time></trkpt></trkseg></trk></gpx>